<?xml version="1.0" encoding="UTF-8" standalone="no" ?>
<gpx xmlns="http://www.topografix.com/GPX/1/1" xmlns:xsi="http://www.w3.org/2001/XMLSchema-instance" xsi:schemaLocation="http://www.topografix.com/GPX/1/1 http://www.topografix.com/GPX/1/1/gpx.xsd" version="1.1" creator="VisuGPX - https://www.visugpx.com">
  <metadata>
    <name>Mours AR 16 oct. 2022 12:25:32</name>
  </metadata>
  <trk>
    <name><![CDATA[Mours AR 16 oct. 2022 12:25:32]]></name>
    <trkseg>
      <trkpt lat="45.11492" lon="5.31861">
        <ele>215</ele>
        <time>2022-10-16T10:25:34.000Z</time>
      </trkpt>
      <trkpt lat="45.11492" lon="5.31858">
        <ele>215</ele>
        <time>2022-10-16T10:25:36.000Z</time>
      </trkpt>
      <trkpt lat="45.11494" lon="5.3186">
        <ele>215</ele>
        <time>2022-10-16T10:25:42.000Z</time>
      </trkpt>
      <trkpt lat="45.11496" lon="5.31859">
        <ele>215</ele>
        <time>2022-10-16T10:25:43.000Z</time>
      </trkpt>
      <trkpt lat="45.11501" lon="5.31862">
        <ele>215</ele>
        <time>2022-10-16T10:25:44.000Z</time>
      </trkpt>
      <trkpt lat="45.11505" lon="5.31861">
        <ele>214.8</ele>
        <time>2022-10-16T10:25:45.000Z</time>
      </trkpt>
      <trkpt lat="45.11508" lon="5.31859">
        <ele>214.7</ele>
        <time>2022-10-16T10:25:46.000Z</time>
      </trkpt>
      <trkpt lat="45.11511" lon="5.31856">
        <ele>214.6</ele>
        <time>2022-10-16T10:25:47.000Z</time>
      </trkpt>
      <trkpt lat="45.11514" lon="5.31854">
        <ele>214.5</ele>
        <time>2022-10-16T10:25:48.000Z</time>
      </trkpt>
      <trkpt lat="45.11516" lon="5.31852">
        <ele>214.4</ele>
        <time>2022-10-16T10:25:49.000Z</time>
      </trkpt>
      <trkpt lat="45.11519" lon="5.31849">
        <ele>214.3</ele>
        <time>2022-10-16T10:25:50.000Z</time>
      </trkpt>
      <trkpt lat="45.11521" lon="5.31845">
        <ele>214.2</ele>
        <time>2022-10-16T10:25:51.000Z</time>
      </trkpt>
      <trkpt lat="45.11523" lon="5.31841">
        <ele>214.2</ele>
        <time>2022-10-16T10:25:52.000Z</time>
      </trkpt>
      <trkpt lat="45.11523" lon="5.31835">
        <ele>214.2</ele>
        <time>2022-10-16T10:25:53.000Z</time>
      </trkpt>
      <trkpt lat="45.11521" lon="5.31829">
        <ele>214.3</ele>
        <time>2022-10-16T10:25:54.000Z</time>
      </trkpt>
      <trkpt lat="45.11518" lon="5.31824">
        <ele>214.3</ele>
        <time>2022-10-16T10:25:55.000Z</time>
      </trkpt>
      <trkpt lat="45.11515" lon="5.31821">
        <ele>214.5</ele>
        <time>2022-10-16T10:25:56.000Z</time>
      </trkpt>
      <trkpt lat="45.11511" lon="5.31816">
        <ele>214.6</ele>
        <time>2022-10-16T10:25:57.000Z</time>
      </trkpt>
      <trkpt lat="45.11509" lon="5.31812">
        <ele>214.7</ele>
        <time>2022-10-16T10:25:58.000Z</time>
      </trkpt>
      <trkpt lat="45.11506" lon="5.31809">
        <ele>214.8</ele>
        <time>2022-10-16T10:25:59.000Z</time>
      </trkpt>
      <trkpt lat="45.11504" lon="5.31806">
        <ele>214.9</ele>
        <time>2022-10-16T10:26:00.000Z</time>
      </trkpt>
      <trkpt lat="45.11501" lon="5.31802">
        <ele>214.8</ele>
        <time>2022-10-16T10:26:01.000Z</time>
      </trkpt>
      <trkpt lat="45.11499" lon="5.31798">
        <ele>214.7</ele>
        <time>2022-10-16T10:26:02.000Z</time>
      </trkpt>
      <trkpt lat="45.11497" lon="5.31794">
        <ele>214.6</ele>
        <time>2022-10-16T10:26:03.000Z</time>
      </trkpt>
      <trkpt lat="45.11495" lon="5.3179">
        <ele>214.5</ele>
        <time>2022-10-16T10:26:04.000Z</time>
      </trkpt>
      <trkpt lat="45.11493" lon="5.31786">
        <ele>214.5</ele>
        <time>2022-10-16T10:26:05.000Z</time>
      </trkpt>
      <trkpt lat="45.11491" lon="5.31782">
        <ele>214.4</ele>
        <time>2022-10-16T10:26:06.000Z</time>
      </trkpt>
      <trkpt lat="45.11489" lon="5.31778">
        <ele>214.4</ele>
        <time>2022-10-16T10:26:07.000Z</time>
      </trkpt>
      <trkpt lat="45.11486" lon="5.31773">
        <ele>214.5</ele>
        <time>2022-10-16T10:26:08.000Z</time>
      </trkpt>
      <trkpt lat="45.11484" lon="5.31768">
        <ele>214.6</ele>
        <time>2022-10-16T10:26:09.000Z</time>
      </trkpt>
      <trkpt lat="45.11481" lon="5.31762">
        <ele>214.7</ele>
        <time>2022-10-16T10:26:10.000Z</time>
      </trkpt>
      <trkpt lat="45.11477" lon="5.31756">
        <ele>214.8</ele>
        <time>2022-10-16T10:26:11.000Z</time>
      </trkpt>
      <trkpt lat="45.11473" lon="5.3175">
        <ele>215</ele>
        <time>2022-10-16T10:26:12.000Z</time>
      </trkpt>
      <trkpt lat="45.11469" lon="5.31743">
        <ele>214.8</ele>
        <time>2022-10-16T10:26:13.000Z</time>
      </trkpt>
      <trkpt lat="45.11465" lon="5.31737">
        <ele>214.6</ele>
        <time>2022-10-16T10:26:14.000Z</time>
      </trkpt>
      <trkpt lat="45.1146" lon="5.31729">
        <ele>214.6</ele>
        <time>2022-10-16T10:26:15.000Z</time>
      </trkpt>
      <trkpt lat="45.11455" lon="5.31722">
        <ele>214.6</ele>
        <time>2022-10-16T10:26:16.000Z</time>
      </trkpt>
      <trkpt lat="45.11452" lon="5.31714">
        <ele>214.7</ele>
        <time>2022-10-16T10:26:17.000Z</time>
      </trkpt>
      <trkpt lat="45.11448" lon="5.31706">
        <ele>214.9</ele>
        <time>2022-10-16T10:26:18.000Z</time>
      </trkpt>
      <trkpt lat="45.11445" lon="5.31699">
        <ele>215</ele>
        <time>2022-10-16T10:26:19.000Z</time>
      </trkpt>
      <trkpt lat="45.11442" lon="5.31691">
        <ele>214.9</ele>
        <time>2022-10-16T10:26:20.000Z</time>
      </trkpt>
      <trkpt lat="45.11439" lon="5.31683">
        <ele>214.7</ele>
        <time>2022-10-16T10:26:21.000Z</time>
      </trkpt>
      <trkpt lat="45.11436" lon="5.31676">
        <ele>214.5</ele>
        <time>2022-10-16T10:26:22.000Z</time>
      </trkpt>
      <trkpt lat="45.11434" lon="5.31668">
        <ele>214.4</ele>
        <time>2022-10-16T10:26:23.000Z</time>
      </trkpt>
      <trkpt lat="45.11432" lon="5.3166">
        <ele>214.4</ele>
        <time>2022-10-16T10:26:24.000Z</time>
      </trkpt>
      <trkpt lat="45.1143" lon="5.31652">
        <ele>214.5</ele>
        <time>2022-10-16T10:26:25.000Z</time>
      </trkpt>
      <trkpt lat="45.11428" lon="5.31644">
        <ele>214.6</ele>
        <time>2022-10-16T10:26:26.000Z</time>
      </trkpt>
      <trkpt lat="45.11426" lon="5.31637">
        <ele>214.7</ele>
        <time>2022-10-16T10:26:27.000Z</time>
      </trkpt>
      <trkpt lat="45.11424" lon="5.3163">
        <ele>214.8</ele>
        <time>2022-10-16T10:26:28.000Z</time>
      </trkpt>
      <trkpt lat="45.11422" lon="5.31623">
        <ele>214.8</ele>
        <time>2022-10-16T10:26:29.000Z</time>
      </trkpt>
      <trkpt lat="45.1142" lon="5.31615">
        <ele>214.9</ele>
        <time>2022-10-16T10:26:30.000Z</time>
      </trkpt>
      <trkpt lat="45.11418" lon="5.31608">
        <ele>214.8</ele>
        <time>2022-10-16T10:26:31.000Z</time>
      </trkpt>
      <trkpt lat="45.11416" lon="5.31601">
        <ele>214.6</ele>
        <time>2022-10-16T10:26:32.000Z</time>
      </trkpt>
      <trkpt lat="45.11414" lon="5.31594">
        <ele>214.4</ele>
        <time>2022-10-16T10:26:33.000Z</time>
      </trkpt>
      <trkpt lat="45.11412" lon="5.31587">
        <ele>214.3</ele>
        <time>2022-10-16T10:26:34.000Z</time>
      </trkpt>
      <trkpt lat="45.1141" lon="5.3158">
        <ele>214.2</ele>
        <time>2022-10-16T10:26:35.000Z</time>
      </trkpt>
      <trkpt lat="45.11408" lon="5.31573">
        <ele>214.3</ele>
        <time>2022-10-16T10:26:36.000Z</time>
      </trkpt>
      <trkpt lat="45.11406" lon="5.31567">
        <ele>214.4</ele>
        <time>2022-10-16T10:26:37.000Z</time>
      </trkpt>
      <trkpt lat="45.11403" lon="5.31561">
        <ele>214.5</ele>
        <time>2022-10-16T10:26:38.000Z</time>
      </trkpt>
      <trkpt lat="45.11401" lon="5.31555">
        <ele>214.6</ele>
        <time>2022-10-16T10:26:39.000Z</time>
      </trkpt>
      <trkpt lat="45.11399" lon="5.31549">
        <ele>214.5</ele>
        <time>2022-10-16T10:26:40.000Z</time>
      </trkpt>
      <trkpt lat="45.11397" lon="5.31544">
        <ele>214.4</ele>
        <time>2022-10-16T10:26:41.000Z</time>
      </trkpt>
      <trkpt lat="45.11394" lon="5.31538">
        <ele>214.3</ele>
        <time>2022-10-16T10:26:42.000Z</time>
      </trkpt>
      <trkpt lat="45.1139" lon="5.31533">
        <ele>214.2</ele>
        <time>2022-10-16T10:26:43.000Z</time>
      </trkpt>
      <trkpt lat="45.11387" lon="5.31528">
        <ele>214.1</ele>
        <time>2022-10-16T10:26:44.000Z</time>
      </trkpt>
      <trkpt lat="45.11384" lon="5.31524">
        <ele>214.2</ele>
        <time>2022-10-16T10:26:45.000Z</time>
      </trkpt>
      <trkpt lat="45.1138" lon="5.31519">
        <ele>214.2</ele>
        <time>2022-10-16T10:26:46.000Z</time>
      </trkpt>
      <trkpt lat="45.11376" lon="5.31515">
        <ele>214.2</ele>
        <time>2022-10-16T10:26:47.000Z</time>
      </trkpt>
      <trkpt lat="45.11373" lon="5.31512">
        <ele>214.3</ele>
        <time>2022-10-16T10:26:48.000Z</time>
      </trkpt>
      <trkpt lat="45.11369" lon="5.31508">
        <ele>214.2</ele>
        <time>2022-10-16T10:26:49.000Z</time>
      </trkpt>
      <trkpt lat="45.11366" lon="5.31504">
        <ele>214.1</ele>
        <time>2022-10-16T10:26:50.000Z</time>
      </trkpt>
      <trkpt lat="45.11363" lon="5.315">
        <ele>214</ele>
        <time>2022-10-16T10:26:51.000Z</time>
      </trkpt>
      <trkpt lat="45.11361" lon="5.31496">
        <ele>214</ele>
        <time>2022-10-16T10:26:52.000Z</time>
      </trkpt>
      <trkpt lat="45.11358" lon="5.31492">
        <ele>214.1</ele>
        <time>2022-10-16T10:26:53.000Z</time>
      </trkpt>
      <trkpt lat="45.11355" lon="5.31488">
        <ele>214.2</ele>
        <time>2022-10-16T10:26:54.000Z</time>
      </trkpt>
      <trkpt lat="45.11353" lon="5.31484">
        <ele>214.3</ele>
        <time>2022-10-16T10:26:55.000Z</time>
      </trkpt>
      <trkpt lat="45.1135" lon="5.3148">
        <ele>214.4</ele>
        <time>2022-10-16T10:26:56.000Z</time>
      </trkpt>
      <trkpt lat="45.11347" lon="5.31477">
        <ele>214.5</ele>
        <time>2022-10-16T10:26:57.000Z</time>
      </trkpt>
      <trkpt lat="45.11345" lon="5.31474">
        <ele>214.6</ele>
        <time>2022-10-16T10:26:58.000Z</time>
      </trkpt>
      <trkpt lat="45.11342" lon="5.31471">
        <ele>214.7</ele>
        <time>2022-10-16T10:26:59.000Z</time>
      </trkpt>
      <trkpt lat="45.1134" lon="5.31468">
        <ele>214.8</ele>
        <time>2022-10-16T10:27:00.000Z</time>
      </trkpt>
      <trkpt lat="45.11337" lon="5.31464">
        <ele>214.9</ele>
        <time>2022-10-16T10:27:01.000Z</time>
      </trkpt>
      <trkpt lat="45.11334" lon="5.31461">
        <ele>215</ele>
        <time>2022-10-16T10:27:02.000Z</time>
      </trkpt>
      <trkpt lat="45.11327" lon="5.31452">
        <ele>215</ele>
        <time>2022-10-16T10:27:03.000Z</time>
      </trkpt>
      <trkpt lat="45.1132" lon="5.31439">
        <ele>215</ele>
        <time>2022-10-16T10:27:04.000Z</time>
      </trkpt>
      <trkpt lat="45.11313" lon="5.31443">
        <ele>215</ele>
        <time>2022-10-16T10:27:05.000Z</time>
      </trkpt>
      <trkpt lat="45.11309" lon="5.31434">
        <ele>215</ele>
        <time>2022-10-16T10:27:06.000Z</time>
      </trkpt>
      <trkpt lat="45.11309" lon="5.31437">
        <ele>215</ele>
        <time>2022-10-16T10:27:07.000Z</time>
      </trkpt>
      <trkpt lat="45.11306" lon="5.31435">
        <ele>215</ele>
        <time>2022-10-16T10:27:08.000Z</time>
      </trkpt>
      <trkpt lat="45.11303" lon="5.31437">
        <ele>215</ele>
        <time>2022-10-16T10:27:09.000Z</time>
      </trkpt>
      <trkpt lat="45.11301" lon="5.31438">
        <ele>215</ele>
        <time>2022-10-16T10:27:11.000Z</time>
      </trkpt>
      <trkpt lat="45.11297" lon="5.31436">
        <ele>215</ele>
        <time>2022-10-16T10:27:13.000Z</time>
      </trkpt>
      <trkpt lat="45.11295" lon="5.31432">
        <ele>215</ele>
        <time>2022-10-16T10:27:14.000Z</time>
      </trkpt>
      <trkpt lat="45.11292" lon="5.31426">
        <ele>215</ele>
        <time>2022-10-16T10:27:15.000Z</time>
      </trkpt>
      <trkpt lat="45.1129" lon="5.3142">
        <ele>215</ele>
        <time>2022-10-16T10:27:16.000Z</time>
      </trkpt>
      <trkpt lat="45.11287" lon="5.31415">
        <ele>215</ele>
        <time>2022-10-16T10:27:17.000Z</time>
      </trkpt>
      <trkpt lat="45.11284" lon="5.31412">
        <ele>215</ele>
        <time>2022-10-16T10:27:18.000Z</time>
      </trkpt>
      <trkpt lat="45.11281" lon="5.31408">
        <ele>215</ele>
        <time>2022-10-16T10:27:19.000Z</time>
      </trkpt>
      <trkpt lat="45.11278" lon="5.31404">
        <ele>215</ele>
        <time>2022-10-16T10:27:20.000Z</time>
      </trkpt>
      <trkpt lat="45.11275" lon="5.314">
        <ele>215</ele>
        <time>2022-10-16T10:27:21.000Z</time>
      </trkpt>
      <trkpt lat="45.11272" lon="5.31396">
        <ele>215</ele>
        <time>2022-10-16T10:27:22.000Z</time>
      </trkpt>
      <trkpt lat="45.1127" lon="5.31391">
        <ele>215</ele>
        <time>2022-10-16T10:27:23.000Z</time>
      </trkpt>
      <trkpt lat="45.11266" lon="5.31387">
        <ele>215</ele>
        <time>2022-10-16T10:27:24.000Z</time>
      </trkpt>
      <trkpt lat="45.11263" lon="5.31382">
        <ele>215</ele>
        <time>2022-10-16T10:27:25.000Z</time>
      </trkpt>
      <trkpt lat="45.11261" lon="5.31378">
        <ele>215</ele>
        <time>2022-10-16T10:27:26.000Z</time>
      </trkpt>
      <trkpt lat="45.11257" lon="5.31373">
        <ele>215</ele>
        <time>2022-10-16T10:27:27.000Z</time>
      </trkpt>
      <trkpt lat="45.11254" lon="5.31368">
        <ele>215</ele>
        <time>2022-10-16T10:27:28.000Z</time>
      </trkpt>
      <trkpt lat="45.11252" lon="5.31364">
        <ele>215</ele>
        <time>2022-10-16T10:27:29.000Z</time>
      </trkpt>
      <trkpt lat="45.11249" lon="5.31359">
        <ele>215</ele>
        <time>2022-10-16T10:27:30.000Z</time>
      </trkpt>
      <trkpt lat="45.11246" lon="5.31354">
        <ele>215</ele>
        <time>2022-10-16T10:27:31.000Z</time>
      </trkpt>
      <trkpt lat="45.11243" lon="5.31349">
        <ele>215</ele>
        <time>2022-10-16T10:27:32.000Z</time>
      </trkpt>
      <trkpt lat="45.11241" lon="5.31345">
        <ele>215</ele>
        <time>2022-10-16T10:27:33.000Z</time>
      </trkpt>
      <trkpt lat="45.11239" lon="5.3134">
        <ele>215</ele>
        <time>2022-10-16T10:27:34.000Z</time>
      </trkpt>
      <trkpt lat="45.11236" lon="5.31335">
        <ele>215</ele>
        <time>2022-10-16T10:27:35.000Z</time>
      </trkpt>
      <trkpt lat="45.11234" lon="5.31331">
        <ele>215</ele>
        <time>2022-10-16T10:27:36.000Z</time>
      </trkpt>
      <trkpt lat="45.11231" lon="5.31326">
        <ele>214.9</ele>
        <time>2022-10-16T10:27:37.000Z</time>
      </trkpt>
      <trkpt lat="45.11228" lon="5.31322">
        <ele>214.9</ele>
        <time>2022-10-16T10:27:38.000Z</time>
      </trkpt>
      <trkpt lat="45.11226" lon="5.31318">
        <ele>214.9</ele>
        <time>2022-10-16T10:27:39.000Z</time>
      </trkpt>
      <trkpt lat="45.11224" lon="5.31314">
        <ele>215</ele>
        <time>2022-10-16T10:27:40.000Z</time>
      </trkpt>
      <trkpt lat="45.11222" lon="5.31309">
        <ele>215</ele>
        <time>2022-10-16T10:27:41.000Z</time>
      </trkpt>
      <trkpt lat="45.1122" lon="5.31305">
        <ele>215</ele>
        <time>2022-10-16T10:27:42.000Z</time>
      </trkpt>
      <trkpt lat="45.11217" lon="5.31301">
        <ele>214.9</ele>
        <time>2022-10-16T10:27:43.000Z</time>
      </trkpt>
      <trkpt lat="45.11214" lon="5.31297">
        <ele>214.8</ele>
        <time>2022-10-16T10:27:44.000Z</time>
      </trkpt>
      <trkpt lat="45.11211" lon="5.31293">
        <ele>214.7</ele>
        <time>2022-10-16T10:27:45.000Z</time>
      </trkpt>
      <trkpt lat="45.11208" lon="5.31288">
        <ele>214.7</ele>
        <time>2022-10-16T10:27:46.000Z</time>
      </trkpt>
      <trkpt lat="45.11206" lon="5.31284">
        <ele>214.7</ele>
        <time>2022-10-16T10:27:47.000Z</time>
      </trkpt>
      <trkpt lat="45.11204" lon="5.31279">
        <ele>214.7</ele>
        <time>2022-10-16T10:27:48.000Z</time>
      </trkpt>
      <trkpt lat="45.11201" lon="5.31274">
        <ele>214.8</ele>
        <time>2022-10-16T10:27:49.000Z</time>
      </trkpt>
      <trkpt lat="45.11198" lon="5.31269">
        <ele>214.9</ele>
        <time>2022-10-16T10:27:50.000Z</time>
      </trkpt>
      <trkpt lat="45.11195" lon="5.31265">
        <ele>215</ele>
        <time>2022-10-16T10:27:51.000Z</time>
      </trkpt>
      <trkpt lat="45.11192" lon="5.3126">
        <ele>215</ele>
        <time>2022-10-16T10:27:52.000Z</time>
      </trkpt>
      <trkpt lat="45.1119" lon="5.31255">
        <ele>215</ele>
        <time>2022-10-16T10:27:53.000Z</time>
      </trkpt>
      <trkpt lat="45.11187" lon="5.3125">
        <ele>215</ele>
        <time>2022-10-16T10:27:54.000Z</time>
      </trkpt>
      <trkpt lat="45.11185" lon="5.31245">
        <ele>214.9</ele>
        <time>2022-10-16T10:27:55.000Z</time>
      </trkpt>
      <trkpt lat="45.11182" lon="5.3124">
        <ele>214.8</ele>
        <time>2022-10-16T10:27:56.000Z</time>
      </trkpt>
      <trkpt lat="45.11179" lon="5.31236">
        <ele>214.8</ele>
        <time>2022-10-16T10:27:57.000Z</time>
      </trkpt>
      <trkpt lat="45.11176" lon="5.31231">
        <ele>214.8</ele>
        <time>2022-10-16T10:27:58.000Z</time>
      </trkpt>
      <trkpt lat="45.11174" lon="5.31227">
        <ele>214.8</ele>
        <time>2022-10-16T10:27:59.000Z</time>
      </trkpt>
      <trkpt lat="45.11171" lon="5.31222">
        <ele>214.9</ele>
        <time>2022-10-16T10:28:00.000Z</time>
      </trkpt>
      <trkpt lat="45.11168" lon="5.31217">
        <ele>214.8</ele>
        <time>2022-10-16T10:28:01.000Z</time>
      </trkpt>
      <trkpt lat="45.11166" lon="5.31213">
        <ele>214.7</ele>
        <time>2022-10-16T10:28:02.000Z</time>
      </trkpt>
      <trkpt lat="45.11163" lon="5.31208">
        <ele>214.6</ele>
        <time>2022-10-16T10:28:03.000Z</time>
      </trkpt>
      <trkpt lat="45.1116" lon="5.31203">
        <ele>214.5</ele>
        <time>2022-10-16T10:28:04.000Z</time>
      </trkpt>
      <trkpt lat="45.11157" lon="5.31198">
        <ele>214.4</ele>
        <time>2022-10-16T10:28:05.000Z</time>
      </trkpt>
      <trkpt lat="45.11154" lon="5.31194">
        <ele>214.5</ele>
        <time>2022-10-16T10:28:06.000Z</time>
      </trkpt>
      <trkpt lat="45.11151" lon="5.31189">
        <ele>214.7</ele>
        <time>2022-10-16T10:28:07.000Z</time>
      </trkpt>
      <trkpt lat="45.11149" lon="5.31184">
        <ele>214.9</ele>
        <time>2022-10-16T10:28:08.000Z</time>
      </trkpt>
      <trkpt lat="45.11147" lon="5.31179">
        <ele>215.1</ele>
        <time>2022-10-16T10:28:09.000Z</time>
      </trkpt>
      <trkpt lat="45.11145" lon="5.31174">
        <ele>215.4</ele>
        <time>2022-10-16T10:28:10.000Z</time>
      </trkpt>
      <trkpt lat="45.11143" lon="5.3117">
        <ele>215.6</ele>
        <time>2022-10-16T10:28:11.000Z</time>
      </trkpt>
      <trkpt lat="45.11141" lon="5.31165">
        <ele>215.8</ele>
        <time>2022-10-16T10:28:12.000Z</time>
      </trkpt>
      <trkpt lat="45.11139" lon="5.3116">
        <ele>215.8</ele>
        <time>2022-10-16T10:28:13.000Z</time>
      </trkpt>
      <trkpt lat="45.11137" lon="5.31155">
        <ele>215.6</ele>
        <time>2022-10-16T10:28:14.000Z</time>
      </trkpt>
      <trkpt lat="45.11135" lon="5.31149">
        <ele>215.5</ele>
        <time>2022-10-16T10:28:15.000Z</time>
      </trkpt>
      <trkpt lat="45.11133" lon="5.31143">
        <ele>215.3</ele>
        <time>2022-10-16T10:28:16.000Z</time>
      </trkpt>
      <trkpt lat="45.11131" lon="5.31137">
        <ele>215.3</ele>
        <time>2022-10-16T10:28:17.000Z</time>
      </trkpt>
      <trkpt lat="45.11129" lon="5.31131">
        <ele>215.4</ele>
        <time>2022-10-16T10:28:18.000Z</time>
      </trkpt>
      <trkpt lat="45.11127" lon="5.31125">
        <ele>215.4</ele>
        <time>2022-10-16T10:28:19.000Z</time>
      </trkpt>
      <trkpt lat="45.11125" lon="5.31119">
        <ele>215.5</ele>
        <time>2022-10-16T10:28:20.000Z</time>
      </trkpt>
      <trkpt lat="45.11124" lon="5.31113">
        <ele>215.6</ele>
        <time>2022-10-16T10:28:21.000Z</time>
      </trkpt>
      <trkpt lat="45.11122" lon="5.31107">
        <ele>215.5</ele>
        <time>2022-10-16T10:28:22.000Z</time>
      </trkpt>
      <trkpt lat="45.1112" lon="5.31101">
        <ele>215.4</ele>
        <time>2022-10-16T10:28:23.000Z</time>
      </trkpt>
      <trkpt lat="45.11119" lon="5.31095">
        <ele>215.3</ele>
        <time>2022-10-16T10:28:24.000Z</time>
      </trkpt>
      <trkpt lat="45.11118" lon="5.31088">
        <ele>215.1</ele>
        <time>2022-10-16T10:28:25.000Z</time>
      </trkpt>
      <trkpt lat="45.11117" lon="5.31082">
        <ele>215</ele>
        <time>2022-10-16T10:28:26.000Z</time>
      </trkpt>
      <trkpt lat="45.11116" lon="5.31076">
        <ele>215</ele>
        <time>2022-10-16T10:28:27.000Z</time>
      </trkpt>
      <trkpt lat="45.11115" lon="5.31069">
        <ele>215</ele>
        <time>2022-10-16T10:28:28.000Z</time>
      </trkpt>
      <trkpt lat="45.11114" lon="5.31063">
        <ele>215</ele>
        <time>2022-10-16T10:28:29.000Z</time>
      </trkpt>
      <trkpt lat="45.11113" lon="5.31057">
        <ele>215</ele>
        <time>2022-10-16T10:28:30.000Z</time>
      </trkpt>
      <trkpt lat="45.11111" lon="5.3105">
        <ele>215</ele>
        <time>2022-10-16T10:28:31.000Z</time>
      </trkpt>
      <trkpt lat="45.1111" lon="5.31044">
        <ele>215</ele>
        <time>2022-10-16T10:28:32.000Z</time>
      </trkpt>
      <trkpt lat="45.11109" lon="5.31038">
        <ele>215</ele>
        <time>2022-10-16T10:28:33.000Z</time>
      </trkpt>
      <trkpt lat="45.11107" lon="5.31032">
        <ele>215</ele>
        <time>2022-10-16T10:28:34.000Z</time>
      </trkpt>
      <trkpt lat="45.11105" lon="5.31026">
        <ele>214.9</ele>
        <time>2022-10-16T10:28:35.000Z</time>
      </trkpt>
      <trkpt lat="45.11102" lon="5.3102">
        <ele>214.8</ele>
        <time>2022-10-16T10:28:36.000Z</time>
      </trkpt>
      <trkpt lat="45.111" lon="5.31014">
        <ele>214.7</ele>
        <time>2022-10-16T10:28:37.000Z</time>
      </trkpt>
      <trkpt lat="45.11098" lon="5.31008">
        <ele>214.6</ele>
        <time>2022-10-16T10:28:38.000Z</time>
      </trkpt>
      <trkpt lat="45.11096" lon="5.31002">
        <ele>214.6</ele>
        <time>2022-10-16T10:28:39.000Z</time>
      </trkpt>
      <trkpt lat="45.11094" lon="5.30997">
        <ele>214.6</ele>
        <time>2022-10-16T10:28:40.000Z</time>
      </trkpt>
      <trkpt lat="45.11092" lon="5.30991">
        <ele>214.7</ele>
        <time>2022-10-16T10:28:41.000Z</time>
      </trkpt>
      <trkpt lat="45.1109" lon="5.30985">
        <ele>214.7</ele>
        <time>2022-10-16T10:28:42.000Z</time>
      </trkpt>
      <trkpt lat="45.11088" lon="5.3098">
        <ele>214.8</ele>
        <time>2022-10-16T10:28:43.000Z</time>
      </trkpt>
      <trkpt lat="45.11087" lon="5.30975">
        <ele>214.9</ele>
        <time>2022-10-16T10:28:44.000Z</time>
      </trkpt>
      <trkpt lat="45.11085" lon="5.30969">
        <ele>215</ele>
        <time>2022-10-16T10:28:45.000Z</time>
      </trkpt>
      <trkpt lat="45.11083" lon="5.30964">
        <ele>215</ele>
        <time>2022-10-16T10:28:46.000Z</time>
      </trkpt>
      <trkpt lat="45.11081" lon="5.30959">
        <ele>215</ele>
        <time>2022-10-16T10:28:47.000Z</time>
      </trkpt>
      <trkpt lat="45.11079" lon="5.30953">
        <ele>215</ele>
        <time>2022-10-16T10:28:48.000Z</time>
      </trkpt>
      <trkpt lat="45.11078" lon="5.30947">
        <ele>215</ele>
        <time>2022-10-16T10:28:49.000Z</time>
      </trkpt>
      <trkpt lat="45.11076" lon="5.30941">
        <ele>214.9</ele>
        <time>2022-10-16T10:28:50.000Z</time>
      </trkpt>
      <trkpt lat="45.11074" lon="5.30935">
        <ele>214.8</ele>
        <time>2022-10-16T10:28:51.000Z</time>
      </trkpt>
      <trkpt lat="45.11072" lon="5.30929">
        <ele>214.7</ele>
        <time>2022-10-16T10:28:52.000Z</time>
      </trkpt>
      <trkpt lat="45.1107" lon="5.30923">
        <ele>214.6</ele>
        <time>2022-10-16T10:28:53.000Z</time>
      </trkpt>
      <trkpt lat="45.11068" lon="5.30917">
        <ele>214.6</ele>
        <time>2022-10-16T10:28:54.000Z</time>
      </trkpt>
      <trkpt lat="45.11066" lon="5.30911">
        <ele>214.6</ele>
        <time>2022-10-16T10:28:55.000Z</time>
      </trkpt>
      <trkpt lat="45.11063" lon="5.30905">
        <ele>214.7</ele>
        <time>2022-10-16T10:28:56.000Z</time>
      </trkpt>
      <trkpt lat="45.11061" lon="5.309">
        <ele>214.8</ele>
        <time>2022-10-16T10:28:57.000Z</time>
      </trkpt>
      <trkpt lat="45.11058" lon="5.30894">
        <ele>214.9</ele>
        <time>2022-10-16T10:28:58.000Z</time>
      </trkpt>
      <trkpt lat="45.11056" lon="5.30889">
        <ele>215</ele>
        <time>2022-10-16T10:28:59.000Z</time>
      </trkpt>
      <trkpt lat="45.11054" lon="5.30883">
        <ele>214.8</ele>
        <time>2022-10-16T10:29:00.000Z</time>
      </trkpt>
      <trkpt lat="45.11053" lon="5.30877">
        <ele>214.6</ele>
        <time>2022-10-16T10:29:01.000Z</time>
      </trkpt>
      <trkpt lat="45.11052" lon="5.30871">
        <ele>214.4</ele>
        <time>2022-10-16T10:29:02.000Z</time>
      </trkpt>
      <trkpt lat="45.1105" lon="5.30866">
        <ele>214.2</ele>
        <time>2022-10-16T10:29:03.000Z</time>
      </trkpt>
      <trkpt lat="45.11049" lon="5.30861">
        <ele>214</ele>
        <time>2022-10-16T10:29:04.000Z</time>
      </trkpt>
      <trkpt lat="45.11047" lon="5.30855">
        <ele>214</ele>
        <time>2022-10-16T10:29:05.000Z</time>
      </trkpt>
      <trkpt lat="45.11044" lon="5.30849">
        <ele>214</ele>
        <time>2022-10-16T10:29:06.000Z</time>
      </trkpt>
      <trkpt lat="45.11042" lon="5.30844">
        <ele>214</ele>
        <time>2022-10-16T10:29:07.000Z</time>
      </trkpt>
      <trkpt lat="45.1104" lon="5.30839">
        <ele>214</ele>
        <time>2022-10-16T10:29:08.000Z</time>
      </trkpt>
      <trkpt lat="45.11038" lon="5.30832">
        <ele>214</ele>
        <time>2022-10-16T10:29:09.000Z</time>
      </trkpt>
      <trkpt lat="45.11036" lon="5.30826">
        <ele>214</ele>
        <time>2022-10-16T10:29:10.000Z</time>
      </trkpt>
      <trkpt lat="45.11033" lon="5.30819">
        <ele>214</ele>
        <time>2022-10-16T10:29:11.000Z</time>
      </trkpt>
      <trkpt lat="45.11031" lon="5.30813">
        <ele>214</ele>
        <time>2022-10-16T10:29:12.000Z</time>
      </trkpt>
      <trkpt lat="45.11029" lon="5.30807">
        <ele>214</ele>
        <time>2022-10-16T10:29:13.000Z</time>
      </trkpt>
      <trkpt lat="45.11026" lon="5.30801">
        <ele>214</ele>
        <time>2022-10-16T10:29:14.000Z</time>
      </trkpt>
      <trkpt lat="45.11022" lon="5.30796">
        <ele>214</ele>
        <time>2022-10-16T10:29:15.000Z</time>
      </trkpt>
      <trkpt lat="45.11019" lon="5.30791">
        <ele>214</ele>
        <time>2022-10-16T10:29:16.000Z</time>
      </trkpt>
      <trkpt lat="45.11015" lon="5.30785">
        <ele>214</ele>
        <time>2022-10-16T10:29:17.000Z</time>
      </trkpt>
      <trkpt lat="45.11012" lon="5.3078">
        <ele>214</ele>
        <time>2022-10-16T10:29:18.000Z</time>
      </trkpt>
      <trkpt lat="45.11009" lon="5.30775">
        <ele>213.9</ele>
        <time>2022-10-16T10:29:19.000Z</time>
      </trkpt>
      <trkpt lat="45.11006" lon="5.30769">
        <ele>213.7</ele>
        <time>2022-10-16T10:29:20.000Z</time>
      </trkpt>
      <trkpt lat="45.11004" lon="5.30764">
        <ele>213.5</ele>
        <time>2022-10-16T10:29:21.000Z</time>
      </trkpt>
      <trkpt lat="45.11" lon="5.30758">
        <ele>213.3</ele>
        <time>2022-10-16T10:29:22.000Z</time>
      </trkpt>
      <trkpt lat="45.10997" lon="5.30753">
        <ele>213.2</ele>
        <time>2022-10-16T10:29:23.000Z</time>
      </trkpt>
      <trkpt lat="45.10994" lon="5.30748">
        <ele>213.2</ele>
        <time>2022-10-16T10:29:24.000Z</time>
      </trkpt>
      <trkpt lat="45.10991" lon="5.30742">
        <ele>213.3</ele>
        <time>2022-10-16T10:29:25.000Z</time>
      </trkpt>
      <trkpt lat="45.10987" lon="5.30737">
        <ele>213.5</ele>
        <time>2022-10-16T10:29:26.000Z</time>
      </trkpt>
      <trkpt lat="45.10984" lon="5.30731">
        <ele>213.6</ele>
        <time>2022-10-16T10:29:27.000Z</time>
      </trkpt>
      <trkpt lat="45.10981" lon="5.30726">
        <ele>213.7</ele>
        <time>2022-10-16T10:29:28.000Z</time>
      </trkpt>
      <trkpt lat="45.10977" lon="5.3072">
        <ele>213.8</ele>
        <time>2022-10-16T10:29:29.000Z</time>
      </trkpt>
      <trkpt lat="45.10973" lon="5.30715">
        <ele>213.7</ele>
        <time>2022-10-16T10:29:30.000Z</time>
      </trkpt>
      <trkpt lat="45.1097" lon="5.30709">
        <ele>213.5</ele>
        <time>2022-10-16T10:29:31.000Z</time>
      </trkpt>
      <trkpt lat="45.10966" lon="5.30704">
        <ele>213.4</ele>
        <time>2022-10-16T10:29:32.000Z</time>
      </trkpt>
      <trkpt lat="45.10962" lon="5.30699">
        <ele>213.2</ele>
        <time>2022-10-16T10:29:33.000Z</time>
      </trkpt>
      <trkpt lat="45.10958" lon="5.30694">
        <ele>213</ele>
        <time>2022-10-16T10:29:34.000Z</time>
      </trkpt>
      <trkpt lat="45.10954" lon="5.30688">
        <ele>212.9</ele>
        <time>2022-10-16T10:29:35.000Z</time>
      </trkpt>
      <trkpt lat="45.10951" lon="5.30683">
        <ele>212.9</ele>
        <time>2022-10-16T10:29:36.000Z</time>
      </trkpt>
      <trkpt lat="45.10946" lon="5.30678">
        <ele>213</ele>
        <time>2022-10-16T10:29:37.000Z</time>
      </trkpt>
      <trkpt lat="45.10942" lon="5.30673">
        <ele>213</ele>
        <time>2022-10-16T10:29:38.000Z</time>
      </trkpt>
      <trkpt lat="45.10939" lon="5.30668">
        <ele>213</ele>
        <time>2022-10-16T10:29:39.000Z</time>
      </trkpt>
      <trkpt lat="45.10935" lon="5.30663">
        <ele>213</ele>
        <time>2022-10-16T10:29:40.000Z</time>
      </trkpt>
      <trkpt lat="45.10931" lon="5.30658">
        <ele>213</ele>
        <time>2022-10-16T10:29:41.000Z</time>
      </trkpt>
      <trkpt lat="45.10927" lon="5.30653">
        <ele>213</ele>
        <time>2022-10-16T10:29:42.000Z</time>
      </trkpt>
      <trkpt lat="45.10924" lon="5.30648">
        <ele>213</ele>
        <time>2022-10-16T10:29:43.000Z</time>
      </trkpt>
      <trkpt lat="45.1092" lon="5.30644">
        <ele>213</ele>
        <time>2022-10-16T10:29:44.000Z</time>
      </trkpt>
      <trkpt lat="45.10916" lon="5.3064">
        <ele>213</ele>
        <time>2022-10-16T10:29:45.000Z</time>
      </trkpt>
      <trkpt lat="45.10913" lon="5.30635">
        <ele>213.2</ele>
        <time>2022-10-16T10:29:46.000Z</time>
      </trkpt>
      <trkpt lat="45.10909" lon="5.3063">
        <ele>213.3</ele>
        <time>2022-10-16T10:29:47.000Z</time>
      </trkpt>
      <trkpt lat="45.10906" lon="5.30625">
        <ele>213.4</ele>
        <time>2022-10-16T10:29:48.000Z</time>
      </trkpt>
      <trkpt lat="45.10903" lon="5.3062">
        <ele>213.5</ele>
        <time>2022-10-16T10:29:49.000Z</time>
      </trkpt>
      <trkpt lat="45.10901" lon="5.30615">
        <ele>213.6</ele>
        <time>2022-10-16T10:29:50.000Z</time>
      </trkpt>
      <trkpt lat="45.10898" lon="5.3061">
        <ele>213.6</ele>
        <time>2022-10-16T10:29:51.000Z</time>
      </trkpt>
      <trkpt lat="45.10896" lon="5.30604">
        <ele>213.7</ele>
        <time>2022-10-16T10:29:52.000Z</time>
      </trkpt>
      <trkpt lat="45.10895" lon="5.30597">
        <ele>213.7</ele>
        <time>2022-10-16T10:29:53.000Z</time>
      </trkpt>
      <trkpt lat="45.10895" lon="5.3059">
        <ele>213.6</ele>
        <time>2022-10-16T10:29:54.000Z</time>
      </trkpt>
      <trkpt lat="45.10894" lon="5.30583">
        <ele>213.6</ele>
        <time>2022-10-16T10:29:55.000Z</time>
      </trkpt>
      <trkpt lat="45.10894" lon="5.30576">
        <ele>213.4</ele>
        <time>2022-10-16T10:29:56.000Z</time>
      </trkpt>
      <trkpt lat="45.10893" lon="5.3057">
        <ele>213.3</ele>
        <time>2022-10-16T10:29:57.000Z</time>
      </trkpt>
      <trkpt lat="45.10893" lon="5.30563">
        <ele>213.1</ele>
        <time>2022-10-16T10:29:58.000Z</time>
      </trkpt>
      <trkpt lat="45.10892" lon="5.30556">
        <ele>212.9</ele>
        <time>2022-10-16T10:29:59.000Z</time>
      </trkpt>
      <trkpt lat="45.10891" lon="5.3055">
        <ele>212.9</ele>
        <time>2022-10-16T10:30:00.000Z</time>
      </trkpt>
      <trkpt lat="45.1089" lon="5.30543">
        <ele>213</ele>
        <time>2022-10-16T10:30:01.000Z</time>
      </trkpt>
      <trkpt lat="45.10889" lon="5.30537">
        <ele>213</ele>
        <time>2022-10-16T10:30:02.000Z</time>
      </trkpt>
      <trkpt lat="45.10888" lon="5.3053">
        <ele>213</ele>
        <time>2022-10-16T10:30:03.000Z</time>
      </trkpt>
      <trkpt lat="45.10888" lon="5.30524">
        <ele>213</ele>
        <time>2022-10-16T10:30:04.000Z</time>
      </trkpt>
      <trkpt lat="45.10887" lon="5.30517">
        <ele>213.1</ele>
        <time>2022-10-16T10:30:05.000Z</time>
      </trkpt>
      <trkpt lat="45.10886" lon="5.30511">
        <ele>213.1</ele>
        <time>2022-10-16T10:30:06.000Z</time>
      </trkpt>
      <trkpt lat="45.10885" lon="5.30504">
        <ele>213.1</ele>
        <time>2022-10-16T10:30:07.000Z</time>
      </trkpt>
      <trkpt lat="45.10884" lon="5.30497">
        <ele>213.1</ele>
        <time>2022-10-16T10:30:08.000Z</time>
      </trkpt>
      <trkpt lat="45.10883" lon="5.3049">
        <ele>212.9</ele>
        <time>2022-10-16T10:30:09.000Z</time>
      </trkpt>
      <trkpt lat="45.10882" lon="5.30483">
        <ele>212.7</ele>
        <time>2022-10-16T10:30:10.000Z</time>
      </trkpt>
      <trkpt lat="45.10881" lon="5.30476">
        <ele>212.4</ele>
        <time>2022-10-16T10:30:11.000Z</time>
      </trkpt>
      <trkpt lat="45.1088" lon="5.30469">
        <ele>212.3</ele>
        <time>2022-10-16T10:30:12.000Z</time>
      </trkpt>
      <trkpt lat="45.10879" lon="5.30462">
        <ele>212.3</ele>
        <time>2022-10-16T10:30:13.000Z</time>
      </trkpt>
      <trkpt lat="45.10879" lon="5.30454">
        <ele>212.4</ele>
        <time>2022-10-16T10:30:14.000Z</time>
      </trkpt>
      <trkpt lat="45.10879" lon="5.30447">
        <ele>212.4</ele>
        <time>2022-10-16T10:30:15.000Z</time>
      </trkpt>
      <trkpt lat="45.10879" lon="5.30439">
        <ele>212.3</ele>
        <time>2022-10-16T10:30:16.000Z</time>
      </trkpt>
      <trkpt lat="45.10878" lon="5.30432">
        <ele>212.2</ele>
        <time>2022-10-16T10:30:17.000Z</time>
      </trkpt>
      <trkpt lat="45.10878" lon="5.30423">
        <ele>212.1</ele>
        <time>2022-10-16T10:30:18.000Z</time>
      </trkpt>
      <trkpt lat="45.10878" lon="5.30415">
        <ele>212</ele>
        <time>2022-10-16T10:30:19.000Z</time>
      </trkpt>
      <trkpt lat="45.10877" lon="5.30407">
        <ele>212</ele>
        <time>2022-10-16T10:30:20.000Z</time>
      </trkpt>
      <trkpt lat="45.10877" lon="5.30399">
        <ele>212</ele>
        <time>2022-10-16T10:30:21.000Z</time>
      </trkpt>
      <trkpt lat="45.10876" lon="5.30391">
        <ele>212</ele>
        <time>2022-10-16T10:30:22.000Z</time>
      </trkpt>
      <trkpt lat="45.10875" lon="5.30382">
        <ele>212</ele>
        <time>2022-10-16T10:30:23.000Z</time>
      </trkpt>
      <trkpt lat="45.10875" lon="5.30374">
        <ele>212</ele>
        <time>2022-10-16T10:30:24.000Z</time>
      </trkpt>
      <trkpt lat="45.10874" lon="5.30367">
        <ele>212</ele>
        <time>2022-10-16T10:30:25.000Z</time>
      </trkpt>
      <trkpt lat="45.10873" lon="5.30359">
        <ele>212</ele>
        <time>2022-10-16T10:30:26.000Z</time>
      </trkpt>
      <trkpt lat="45.10872" lon="5.30351">
        <ele>211.9</ele>
        <time>2022-10-16T10:30:27.000Z</time>
      </trkpt>
      <trkpt lat="45.10872" lon="5.30343">
        <ele>211.8</ele>
        <time>2022-10-16T10:30:28.000Z</time>
      </trkpt>
      <trkpt lat="45.10872" lon="5.30335">
        <ele>211.7</ele>
        <time>2022-10-16T10:30:29.000Z</time>
      </trkpt>
      <trkpt lat="45.10871" lon="5.30327">
        <ele>211.6</ele>
        <time>2022-10-16T10:30:30.000Z</time>
      </trkpt>
      <trkpt lat="45.1087" lon="5.30319">
        <ele>211.7</ele>
        <time>2022-10-16T10:30:31.000Z</time>
      </trkpt>
      <trkpt lat="45.1087" lon="5.30312">
        <ele>211.7</ele>
        <time>2022-10-16T10:30:32.000Z</time>
      </trkpt>
      <trkpt lat="45.10869" lon="5.30304">
        <ele>211.7</ele>
        <time>2022-10-16T10:30:33.000Z</time>
      </trkpt>
      <trkpt lat="45.10868" lon="5.30296">
        <ele>211.5</ele>
        <time>2022-10-16T10:30:34.000Z</time>
      </trkpt>
      <trkpt lat="45.10867" lon="5.30288">
        <ele>211.3</ele>
        <time>2022-10-16T10:30:35.000Z</time>
      </trkpt>
      <trkpt lat="45.10866" lon="5.30281">
        <ele>211.1</ele>
        <time>2022-10-16T10:30:36.000Z</time>
      </trkpt>
      <trkpt lat="45.10866" lon="5.30273">
        <ele>211</ele>
        <time>2022-10-16T10:30:37.000Z</time>
      </trkpt>
      <trkpt lat="45.10866" lon="5.30265">
        <ele>210.9</ele>
        <time>2022-10-16T10:30:38.000Z</time>
      </trkpt>
      <trkpt lat="45.10866" lon="5.30257">
        <ele>210.9</ele>
        <time>2022-10-16T10:30:39.000Z</time>
      </trkpt>
      <trkpt lat="45.10865" lon="5.30249">
        <ele>210.9</ele>
        <time>2022-10-16T10:30:40.000Z</time>
      </trkpt>
      <trkpt lat="45.10865" lon="5.30241">
        <ele>210.9</ele>
        <time>2022-10-16T10:30:41.000Z</time>
      </trkpt>
      <trkpt lat="45.10864" lon="5.30233">
        <ele>211</ele>
        <time>2022-10-16T10:30:42.000Z</time>
      </trkpt>
      <trkpt lat="45.10863" lon="5.30225">
        <ele>211</ele>
        <time>2022-10-16T10:30:43.000Z</time>
      </trkpt>
      <trkpt lat="45.10863" lon="5.30216">
        <ele>211</ele>
        <time>2022-10-16T10:30:44.000Z</time>
      </trkpt>
      <trkpt lat="45.10862" lon="5.30209">
        <ele>211</ele>
        <time>2022-10-16T10:30:45.000Z</time>
      </trkpt>
      <trkpt lat="45.10861" lon="5.30201">
        <ele>211</ele>
        <time>2022-10-16T10:30:46.000Z</time>
      </trkpt>
      <trkpt lat="45.10861" lon="5.30193">
        <ele>211</ele>
        <time>2022-10-16T10:30:47.000Z</time>
      </trkpt>
      <trkpt lat="45.1086" lon="5.30185">
        <ele>211</ele>
        <time>2022-10-16T10:30:48.000Z</time>
      </trkpt>
      <trkpt lat="45.10859" lon="5.30177">
        <ele>211</ele>
        <time>2022-10-16T10:30:49.000Z</time>
      </trkpt>
      <trkpt lat="45.10858" lon="5.30169">
        <ele>211</ele>
        <time>2022-10-16T10:30:50.000Z</time>
      </trkpt>
      <trkpt lat="45.10858" lon="5.30162">
        <ele>211</ele>
        <time>2022-10-16T10:30:51.000Z</time>
      </trkpt>
      <trkpt lat="45.10857" lon="5.30154">
        <ele>211</ele>
        <time>2022-10-16T10:30:52.000Z</time>
      </trkpt>
      <trkpt lat="45.10856" lon="5.30147">
        <ele>211</ele>
        <time>2022-10-16T10:30:53.000Z</time>
      </trkpt>
      <trkpt lat="45.10855" lon="5.30139">
        <ele>211</ele>
        <time>2022-10-16T10:30:54.000Z</time>
      </trkpt>
      <trkpt lat="45.10854" lon="5.30132">
        <ele>211</ele>
        <time>2022-10-16T10:30:55.000Z</time>
      </trkpt>
      <trkpt lat="45.10854" lon="5.30125">
        <ele>211</ele>
        <time>2022-10-16T10:30:56.000Z</time>
      </trkpt>
      <trkpt lat="45.10853" lon="5.30118">
        <ele>211</ele>
        <time>2022-10-16T10:30:57.000Z</time>
      </trkpt>
      <trkpt lat="45.10853" lon="5.30111">
        <ele>211</ele>
        <time>2022-10-16T10:30:58.000Z</time>
      </trkpt>
      <trkpt lat="45.10852" lon="5.30104">
        <ele>211</ele>
        <time>2022-10-16T10:30:59.000Z</time>
      </trkpt>
      <trkpt lat="45.10852" lon="5.30097">
        <ele>211</ele>
        <time>2022-10-16T10:31:00.000Z</time>
      </trkpt>
      <trkpt lat="45.10852" lon="5.3009">
        <ele>211</ele>
        <time>2022-10-16T10:31:01.000Z</time>
      </trkpt>
      <trkpt lat="45.10851" lon="5.30083">
        <ele>211</ele>
        <time>2022-10-16T10:31:02.000Z</time>
      </trkpt>
      <trkpt lat="45.10851" lon="5.30077">
        <ele>211</ele>
        <time>2022-10-16T10:31:03.000Z</time>
      </trkpt>
      <trkpt lat="45.1085" lon="5.3007">
        <ele>211</ele>
        <time>2022-10-16T10:31:04.000Z</time>
      </trkpt>
      <trkpt lat="45.1085" lon="5.30065">
        <ele>211</ele>
        <time>2022-10-16T10:31:05.000Z</time>
      </trkpt>
      <trkpt lat="45.10849" lon="5.30059">
        <ele>211</ele>
        <time>2022-10-16T10:31:06.000Z</time>
      </trkpt>
      <trkpt lat="45.10848" lon="5.30053">
        <ele>211</ele>
        <time>2022-10-16T10:31:07.000Z</time>
      </trkpt>
      <trkpt lat="45.10847" lon="5.30047">
        <ele>211</ele>
        <time>2022-10-16T10:31:08.000Z</time>
      </trkpt>
      <trkpt lat="45.10846" lon="5.30041">
        <ele>211</ele>
        <time>2022-10-16T10:31:09.000Z</time>
      </trkpt>
      <trkpt lat="45.10846" lon="5.30035">
        <ele>211</ele>
        <time>2022-10-16T10:31:10.000Z</time>
      </trkpt>
      <trkpt lat="45.10846" lon="5.30029">
        <ele>211</ele>
        <time>2022-10-16T10:31:11.000Z</time>
      </trkpt>
      <trkpt lat="45.10845" lon="5.30023">
        <ele>211</ele>
        <time>2022-10-16T10:31:12.000Z</time>
      </trkpt>
      <trkpt lat="45.10845" lon="5.30017">
        <ele>211</ele>
        <time>2022-10-16T10:31:13.000Z</time>
      </trkpt>
      <trkpt lat="45.10844" lon="5.30011">
        <ele>211</ele>
        <time>2022-10-16T10:31:14.000Z</time>
      </trkpt>
      <trkpt lat="45.10844" lon="5.30005">
        <ele>211</ele>
        <time>2022-10-16T10:31:15.000Z</time>
      </trkpt>
      <trkpt lat="45.10844" lon="5.29998">
        <ele>211</ele>
        <time>2022-10-16T10:31:16.000Z</time>
      </trkpt>
      <trkpt lat="45.10843" lon="5.29992">
        <ele>211</ele>
        <time>2022-10-16T10:31:17.000Z</time>
      </trkpt>
      <trkpt lat="45.10843" lon="5.29986">
        <ele>211</ele>
        <time>2022-10-16T10:31:18.000Z</time>
      </trkpt>
      <trkpt lat="45.10842" lon="5.2998">
        <ele>211</ele>
        <time>2022-10-16T10:31:19.000Z</time>
      </trkpt>
      <trkpt lat="45.10842" lon="5.29974">
        <ele>211</ele>
        <time>2022-10-16T10:31:20.000Z</time>
      </trkpt>
      <trkpt lat="45.10841" lon="5.29968">
        <ele>211.2</ele>
        <time>2022-10-16T10:31:21.000Z</time>
      </trkpt>
      <trkpt lat="45.10841" lon="5.29962">
        <ele>211.4</ele>
        <time>2022-10-16T10:31:22.000Z</time>
      </trkpt>
      <trkpt lat="45.10841" lon="5.29956">
        <ele>211.6</ele>
        <time>2022-10-16T10:31:23.000Z</time>
      </trkpt>
      <trkpt lat="45.10841" lon="5.29949">
        <ele>211.8</ele>
        <time>2022-10-16T10:31:24.000Z</time>
      </trkpt>
      <trkpt lat="45.1084" lon="5.29943">
        <ele>212</ele>
        <time>2022-10-16T10:31:25.000Z</time>
      </trkpt>
      <trkpt lat="45.10839" lon="5.29937">
        <ele>211.7</ele>
        <time>2022-10-16T10:31:26.000Z</time>
      </trkpt>
      <trkpt lat="45.10839" lon="5.29931">
        <ele>211.5</ele>
        <time>2022-10-16T10:31:27.000Z</time>
      </trkpt>
      <trkpt lat="45.10838" lon="5.29924">
        <ele>211.3</ele>
        <time>2022-10-16T10:31:28.000Z</time>
      </trkpt>
      <trkpt lat="45.10838" lon="5.29918">
        <ele>211</ele>
        <time>2022-10-16T10:31:29.000Z</time>
      </trkpt>
      <trkpt lat="45.10838" lon="5.29911">
        <ele>211</ele>
        <time>2022-10-16T10:31:30.000Z</time>
      </trkpt>
      <trkpt lat="45.10837" lon="5.29904">
        <ele>211</ele>
        <time>2022-10-16T10:31:31.000Z</time>
      </trkpt>
      <trkpt lat="45.10837" lon="5.29897">
        <ele>211</ele>
        <time>2022-10-16T10:31:32.000Z</time>
      </trkpt>
      <trkpt lat="45.10837" lon="5.2989">
        <ele>211</ele>
        <time>2022-10-16T10:31:33.000Z</time>
      </trkpt>
      <trkpt lat="45.10836" lon="5.29883">
        <ele>211</ele>
        <time>2022-10-16T10:31:34.000Z</time>
      </trkpt>
      <trkpt lat="45.10835" lon="5.29876">
        <ele>211</ele>
        <time>2022-10-16T10:31:35.000Z</time>
      </trkpt>
      <trkpt lat="45.10835" lon="5.29869">
        <ele>211</ele>
        <time>2022-10-16T10:31:36.000Z</time>
      </trkpt>
      <trkpt lat="45.10834" lon="5.29862">
        <ele>211</ele>
        <time>2022-10-16T10:31:37.000Z</time>
      </trkpt>
      <trkpt lat="45.10834" lon="5.29855">
        <ele>211</ele>
        <time>2022-10-16T10:31:38.000Z</time>
      </trkpt>
      <trkpt lat="45.10833" lon="5.29847">
        <ele>211</ele>
        <time>2022-10-16T10:31:39.000Z</time>
      </trkpt>
      <trkpt lat="45.10832" lon="5.2984">
        <ele>211</ele>
        <time>2022-10-16T10:31:40.000Z</time>
      </trkpt>
      <trkpt lat="45.10831" lon="5.29833">
        <ele>211</ele>
        <time>2022-10-16T10:31:41.000Z</time>
      </trkpt>
      <trkpt lat="45.10831" lon="5.29826">
        <ele>211</ele>
        <time>2022-10-16T10:31:42.000Z</time>
      </trkpt>
      <trkpt lat="45.1083" lon="5.29819">
        <ele>211</ele>
        <time>2022-10-16T10:31:43.000Z</time>
      </trkpt>
      <trkpt lat="45.1083" lon="5.29812">
        <ele>211</ele>
        <time>2022-10-16T10:31:44.000Z</time>
      </trkpt>
      <trkpt lat="45.10829" lon="5.29805">
        <ele>211</ele>
        <time>2022-10-16T10:31:45.000Z</time>
      </trkpt>
      <trkpt lat="45.10829" lon="5.29798">
        <ele>211</ele>
        <time>2022-10-16T10:31:46.000Z</time>
      </trkpt>
      <trkpt lat="45.10828" lon="5.29792">
        <ele>211</ele>
        <time>2022-10-16T10:31:47.000Z</time>
      </trkpt>
      <trkpt lat="45.10828" lon="5.29784">
        <ele>211</ele>
        <time>2022-10-16T10:31:48.000Z</time>
      </trkpt>
      <trkpt lat="45.10827" lon="5.29778">
        <ele>211</ele>
        <time>2022-10-16T10:31:49.000Z</time>
      </trkpt>
      <trkpt lat="45.10827" lon="5.29771">
        <ele>211</ele>
        <time>2022-10-16T10:31:50.000Z</time>
      </trkpt>
      <trkpt lat="45.10826" lon="5.29765">
        <ele>211</ele>
        <time>2022-10-16T10:31:51.000Z</time>
      </trkpt>
      <trkpt lat="45.10825" lon="5.29758">
        <ele>211</ele>
        <time>2022-10-16T10:31:52.000Z</time>
      </trkpt>
      <trkpt lat="45.10825" lon="5.29752">
        <ele>211</ele>
        <time>2022-10-16T10:31:53.000Z</time>
      </trkpt>
      <trkpt lat="45.10824" lon="5.29746">
        <ele>211</ele>
        <time>2022-10-16T10:31:54.000Z</time>
      </trkpt>
      <trkpt lat="45.10823" lon="5.29739">
        <ele>211</ele>
        <time>2022-10-16T10:31:55.000Z</time>
      </trkpt>
      <trkpt lat="45.10822" lon="5.29733">
        <ele>211</ele>
        <time>2022-10-16T10:31:56.000Z</time>
      </trkpt>
      <trkpt lat="45.10821" lon="5.29726">
        <ele>211</ele>
        <time>2022-10-16T10:31:57.000Z</time>
      </trkpt>
      <trkpt lat="45.10821" lon="5.2972">
        <ele>211</ele>
        <time>2022-10-16T10:31:58.000Z</time>
      </trkpt>
      <trkpt lat="45.10821" lon="5.29713">
        <ele>211</ele>
        <time>2022-10-16T10:31:59.000Z</time>
      </trkpt>
      <trkpt lat="45.1082" lon="5.29706">
        <ele>211</ele>
        <time>2022-10-16T10:32:00.000Z</time>
      </trkpt>
      <trkpt lat="45.1082" lon="5.29699">
        <ele>211</ele>
        <time>2022-10-16T10:32:01.000Z</time>
      </trkpt>
      <trkpt lat="45.1082" lon="5.29692">
        <ele>211</ele>
        <time>2022-10-16T10:32:02.000Z</time>
      </trkpt>
      <trkpt lat="45.10819" lon="5.29686">
        <ele>211</ele>
        <time>2022-10-16T10:32:03.000Z</time>
      </trkpt>
      <trkpt lat="45.10819" lon="5.2968">
        <ele>211</ele>
        <time>2022-10-16T10:32:04.000Z</time>
      </trkpt>
      <trkpt lat="45.10819" lon="5.29674">
        <ele>211</ele>
        <time>2022-10-16T10:32:05.000Z</time>
      </trkpt>
      <trkpt lat="45.10818" lon="5.29667">
        <ele>211</ele>
        <time>2022-10-16T10:32:06.000Z</time>
      </trkpt>
      <trkpt lat="45.10818" lon="5.29661">
        <ele>211</ele>
        <time>2022-10-16T10:32:07.000Z</time>
      </trkpt>
      <trkpt lat="45.10818" lon="5.29655">
        <ele>211</ele>
        <time>2022-10-16T10:32:08.000Z</time>
      </trkpt>
      <trkpt lat="45.10817" lon="5.29649">
        <ele>211</ele>
        <time>2022-10-16T10:32:09.000Z</time>
      </trkpt>
      <trkpt lat="45.10817" lon="5.29642">
        <ele>211</ele>
        <time>2022-10-16T10:32:10.000Z</time>
      </trkpt>
      <trkpt lat="45.10816" lon="5.29636">
        <ele>211</ele>
        <time>2022-10-16T10:32:11.000Z</time>
      </trkpt>
      <trkpt lat="45.10816" lon="5.2963">
        <ele>211</ele>
        <time>2022-10-16T10:32:12.000Z</time>
      </trkpt>
      <trkpt lat="45.10815" lon="5.29623">
        <ele>211</ele>
        <time>2022-10-16T10:32:13.000Z</time>
      </trkpt>
      <trkpt lat="45.10814" lon="5.29617">
        <ele>211</ele>
        <time>2022-10-16T10:32:14.000Z</time>
      </trkpt>
      <trkpt lat="45.10814" lon="5.2961">
        <ele>211</ele>
        <time>2022-10-16T10:32:15.000Z</time>
      </trkpt>
      <trkpt lat="45.10813" lon="5.29603">
        <ele>211</ele>
        <time>2022-10-16T10:32:16.000Z</time>
      </trkpt>
      <trkpt lat="45.10813" lon="5.29597">
        <ele>211</ele>
        <time>2022-10-16T10:32:17.000Z</time>
      </trkpt>
      <trkpt lat="45.10812" lon="5.2959">
        <ele>211</ele>
        <time>2022-10-16T10:32:18.000Z</time>
      </trkpt>
      <trkpt lat="45.10812" lon="5.29584">
        <ele>211</ele>
        <time>2022-10-16T10:32:19.000Z</time>
      </trkpt>
      <trkpt lat="45.10811" lon="5.29577">
        <ele>211</ele>
        <time>2022-10-16T10:32:20.000Z</time>
      </trkpt>
      <trkpt lat="45.1081" lon="5.2957">
        <ele>211</ele>
        <time>2022-10-16T10:32:21.000Z</time>
      </trkpt>
      <trkpt lat="45.1081" lon="5.29563">
        <ele>211</ele>
        <time>2022-10-16T10:32:22.000Z</time>
      </trkpt>
      <trkpt lat="45.10809" lon="5.29557">
        <ele>211</ele>
        <time>2022-10-16T10:32:23.000Z</time>
      </trkpt>
      <trkpt lat="45.10809" lon="5.2955">
        <ele>211</ele>
        <time>2022-10-16T10:32:24.000Z</time>
      </trkpt>
      <trkpt lat="45.10808" lon="5.29543">
        <ele>211</ele>
        <time>2022-10-16T10:32:25.000Z</time>
      </trkpt>
      <trkpt lat="45.10807" lon="5.29537">
        <ele>211</ele>
        <time>2022-10-16T10:32:26.000Z</time>
      </trkpt>
      <trkpt lat="45.10807" lon="5.2953">
        <ele>211</ele>
        <time>2022-10-16T10:32:27.000Z</time>
      </trkpt>
      <trkpt lat="45.10806" lon="5.29524">
        <ele>211</ele>
        <time>2022-10-16T10:32:28.000Z</time>
      </trkpt>
      <trkpt lat="45.10806" lon="5.29517">
        <ele>211</ele>
        <time>2022-10-16T10:32:29.000Z</time>
      </trkpt>
      <trkpt lat="45.10806" lon="5.29511">
        <ele>211</ele>
        <time>2022-10-16T10:32:30.000Z</time>
      </trkpt>
      <trkpt lat="45.10805" lon="5.29505">
        <ele>211</ele>
        <time>2022-10-16T10:32:31.000Z</time>
      </trkpt>
      <trkpt lat="45.10805" lon="5.29499">
        <ele>211</ele>
        <time>2022-10-16T10:32:32.000Z</time>
      </trkpt>
      <trkpt lat="45.10804" lon="5.29493">
        <ele>211</ele>
        <time>2022-10-16T10:32:33.000Z</time>
      </trkpt>
      <trkpt lat="45.10804" lon="5.29486">
        <ele>211</ele>
        <time>2022-10-16T10:32:34.000Z</time>
      </trkpt>
      <trkpt lat="45.10803" lon="5.2948">
        <ele>211</ele>
        <time>2022-10-16T10:32:35.000Z</time>
      </trkpt>
      <trkpt lat="45.10803" lon="5.29474">
        <ele>211</ele>
        <time>2022-10-16T10:32:36.000Z</time>
      </trkpt>
      <trkpt lat="45.10802" lon="5.29468">
        <ele>211</ele>
        <time>2022-10-16T10:32:37.000Z</time>
      </trkpt>
      <trkpt lat="45.10801" lon="5.29462">
        <ele>211</ele>
        <time>2022-10-16T10:32:38.000Z</time>
      </trkpt>
      <trkpt lat="45.10801" lon="5.29455">
        <ele>211</ele>
        <time>2022-10-16T10:32:39.000Z</time>
      </trkpt>
      <trkpt lat="45.10801" lon="5.29449">
        <ele>211</ele>
        <time>2022-10-16T10:32:40.000Z</time>
      </trkpt>
      <trkpt lat="45.108" lon="5.29443">
        <ele>211.1</ele>
        <time>2022-10-16T10:32:41.000Z</time>
      </trkpt>
      <trkpt lat="45.108" lon="5.29436">
        <ele>211.2</ele>
        <time>2022-10-16T10:32:42.000Z</time>
      </trkpt>
      <trkpt lat="45.10799" lon="5.29429">
        <ele>211.4</ele>
        <time>2022-10-16T10:32:43.000Z</time>
      </trkpt>
      <trkpt lat="45.10799" lon="5.29423">
        <ele>211.6</ele>
        <time>2022-10-16T10:32:44.000Z</time>
      </trkpt>
      <trkpt lat="45.10798" lon="5.29417">
        <ele>211.7</ele>
        <time>2022-10-16T10:32:45.000Z</time>
      </trkpt>
      <trkpt lat="45.10797" lon="5.2941">
        <ele>211.5</ele>
        <time>2022-10-16T10:32:46.000Z</time>
      </trkpt>
      <trkpt lat="45.10796" lon="5.29404">
        <ele>211.4</ele>
        <time>2022-10-16T10:32:47.000Z</time>
      </trkpt>
      <trkpt lat="45.10795" lon="5.29398">
        <ele>211.2</ele>
        <time>2022-10-16T10:32:48.000Z</time>
      </trkpt>
      <trkpt lat="45.10795" lon="5.29391">
        <ele>211.1</ele>
        <time>2022-10-16T10:32:49.000Z</time>
      </trkpt>
      <trkpt lat="45.10795" lon="5.29385">
        <ele>211</ele>
        <time>2022-10-16T10:32:50.000Z</time>
      </trkpt>
      <trkpt lat="45.10795" lon="5.29379">
        <ele>211</ele>
        <time>2022-10-16T10:32:51.000Z</time>
      </trkpt>
      <trkpt lat="45.10794" lon="5.29373">
        <ele>211</ele>
        <time>2022-10-16T10:32:52.000Z</time>
      </trkpt>
      <trkpt lat="45.10794" lon="5.29366">
        <ele>211</ele>
        <time>2022-10-16T10:32:53.000Z</time>
      </trkpt>
      <trkpt lat="45.10793" lon="5.2936">
        <ele>211</ele>
        <time>2022-10-16T10:32:54.000Z</time>
      </trkpt>
      <trkpt lat="45.10792" lon="5.29354">
        <ele>211</ele>
        <time>2022-10-16T10:32:55.000Z</time>
      </trkpt>
      <trkpt lat="45.10792" lon="5.29347">
        <ele>211</ele>
        <time>2022-10-16T10:32:56.000Z</time>
      </trkpt>
      <trkpt lat="45.10791" lon="5.2934">
        <ele>211</ele>
        <time>2022-10-16T10:32:57.000Z</time>
      </trkpt>
      <trkpt lat="45.10791" lon="5.29334">
        <ele>211</ele>
        <time>2022-10-16T10:32:58.000Z</time>
      </trkpt>
      <trkpt lat="45.1079" lon="5.29327">
        <ele>211</ele>
        <time>2022-10-16T10:32:59.000Z</time>
      </trkpt>
      <trkpt lat="45.1079" lon="5.2932">
        <ele>211</ele>
        <time>2022-10-16T10:33:00.000Z</time>
      </trkpt>
      <trkpt lat="45.10789" lon="5.29313">
        <ele>211</ele>
        <time>2022-10-16T10:33:01.000Z</time>
      </trkpt>
      <trkpt lat="45.10789" lon="5.29306">
        <ele>211</ele>
        <time>2022-10-16T10:33:02.000Z</time>
      </trkpt>
      <trkpt lat="45.10788" lon="5.29299">
        <ele>211.1</ele>
        <time>2022-10-16T10:33:03.000Z</time>
      </trkpt>
      <trkpt lat="45.10788" lon="5.29292">
        <ele>211.3</ele>
        <time>2022-10-16T10:33:04.000Z</time>
      </trkpt>
      <trkpt lat="45.10787" lon="5.29285">
        <ele>211.5</ele>
        <time>2022-10-16T10:33:05.000Z</time>
      </trkpt>
      <trkpt lat="45.10787" lon="5.29278">
        <ele>211.7</ele>
        <time>2022-10-16T10:33:06.000Z</time>
      </trkpt>
      <trkpt lat="45.10786" lon="5.29271">
        <ele>211.7</ele>
        <time>2022-10-16T10:33:07.000Z</time>
      </trkpt>
      <trkpt lat="45.10786" lon="5.29264">
        <ele>211.7</ele>
        <time>2022-10-16T10:33:08.000Z</time>
      </trkpt>
      <trkpt lat="45.10785" lon="5.29257">
        <ele>211.7</ele>
        <time>2022-10-16T10:33:09.000Z</time>
      </trkpt>
      <trkpt lat="45.10785" lon="5.2925">
        <ele>211.7</ele>
        <time>2022-10-16T10:33:10.000Z</time>
      </trkpt>
      <trkpt lat="45.10784" lon="5.29244">
        <ele>211.8</ele>
        <time>2022-10-16T10:33:11.000Z</time>
      </trkpt>
      <trkpt lat="45.10783" lon="5.29237">
        <ele>211.8</ele>
        <time>2022-10-16T10:33:12.000Z</time>
      </trkpt>
      <trkpt lat="45.10783" lon="5.2923">
        <ele>211.8</ele>
        <time>2022-10-16T10:33:13.000Z</time>
      </trkpt>
      <trkpt lat="45.10782" lon="5.29223">
        <ele>211.9</ele>
        <time>2022-10-16T10:33:14.000Z</time>
      </trkpt>
      <trkpt lat="45.10781" lon="5.29216">
        <ele>211.7</ele>
        <time>2022-10-16T10:33:15.000Z</time>
      </trkpt>
      <trkpt lat="45.1078" lon="5.2921">
        <ele>211.5</ele>
        <time>2022-10-16T10:33:16.000Z</time>
      </trkpt>
      <trkpt lat="45.1078" lon="5.29204">
        <ele>211.3</ele>
        <time>2022-10-16T10:33:17.000Z</time>
      </trkpt>
      <trkpt lat="45.10779" lon="5.29197">
        <ele>211.1</ele>
        <time>2022-10-16T10:33:18.000Z</time>
      </trkpt>
      <trkpt lat="45.10779" lon="5.29191">
        <ele>211</ele>
        <time>2022-10-16T10:33:19.000Z</time>
      </trkpt>
      <trkpt lat="45.10778" lon="5.29185">
        <ele>211</ele>
        <time>2022-10-16T10:33:20.000Z</time>
      </trkpt>
      <trkpt lat="45.10777" lon="5.29179">
        <ele>211</ele>
        <time>2022-10-16T10:33:21.000Z</time>
      </trkpt>
      <trkpt lat="45.10777" lon="5.29173">
        <ele>211</ele>
        <time>2022-10-16T10:33:22.000Z</time>
      </trkpt>
      <trkpt lat="45.10777" lon="5.29167">
        <ele>211</ele>
        <time>2022-10-16T10:33:23.000Z</time>
      </trkpt>
      <trkpt lat="45.10777" lon="5.29162">
        <ele>211</ele>
        <time>2022-10-16T10:33:24.000Z</time>
      </trkpt>
      <trkpt lat="45.10777" lon="5.29156">
        <ele>211</ele>
        <time>2022-10-16T10:33:25.000Z</time>
      </trkpt>
      <trkpt lat="45.10776" lon="5.2915">
        <ele>211.1</ele>
        <time>2022-10-16T10:33:26.000Z</time>
      </trkpt>
      <trkpt lat="45.10774" lon="5.29145">
        <ele>211.1</ele>
        <time>2022-10-16T10:33:27.000Z</time>
      </trkpt>
      <trkpt lat="45.10773" lon="5.29141">
        <ele>211.2</ele>
        <time>2022-10-16T10:33:28.000Z</time>
      </trkpt>
      <trkpt lat="45.10772" lon="5.29136">
        <ele>211.2</ele>
        <time>2022-10-16T10:33:29.000Z</time>
      </trkpt>
      <trkpt lat="45.10772" lon="5.29131">
        <ele>211.2</ele>
        <time>2022-10-16T10:33:30.000Z</time>
      </trkpt>
      <trkpt lat="45.10772" lon="5.29126">
        <ele>211.2</ele>
        <time>2022-10-16T10:33:31.000Z</time>
      </trkpt>
      <trkpt lat="45.10773" lon="5.29118">
        <ele>211.2</ele>
        <time>2022-10-16T10:33:32.000Z</time>
      </trkpt>
      <trkpt lat="45.10771" lon="5.2911">
        <ele>211.2</ele>
        <time>2022-10-16T10:33:33.000Z</time>
      </trkpt>
      <trkpt lat="45.1077" lon="5.29104">
        <ele>211</ele>
        <time>2022-10-16T10:33:34.000Z</time>
      </trkpt>
      <trkpt lat="45.10769" lon="5.29098">
        <ele>210.9</ele>
        <time>2022-10-16T10:33:35.000Z</time>
      </trkpt>
      <trkpt lat="45.10769" lon="5.29094">
        <ele>210.7</ele>
        <time>2022-10-16T10:33:36.000Z</time>
      </trkpt>
      <trkpt lat="45.10769" lon="5.2909">
        <ele>210.5</ele>
        <time>2022-10-16T10:33:37.000Z</time>
      </trkpt>
      <trkpt lat="45.1077" lon="5.29084">
        <ele>210.3</ele>
        <time>2022-10-16T10:33:38.000Z</time>
      </trkpt>
      <trkpt lat="45.1077" lon="5.29077">
        <ele>210.2</ele>
        <time>2022-10-16T10:33:39.000Z</time>
      </trkpt>
      <trkpt lat="45.1077" lon="5.2907">
        <ele>210.1</ele>
        <time>2022-10-16T10:33:40.000Z</time>
      </trkpt>
      <trkpt lat="45.1077" lon="5.29064">
        <ele>210.1</ele>
        <time>2022-10-16T10:33:41.000Z</time>
      </trkpt>
      <trkpt lat="45.1077" lon="5.29056">
        <ele>210</ele>
        <time>2022-10-16T10:33:42.000Z</time>
      </trkpt>
      <trkpt lat="45.10769" lon="5.29048">
        <ele>209.7</ele>
        <time>2022-10-16T10:33:43.000Z</time>
      </trkpt>
      <trkpt lat="45.10768" lon="5.29041">
        <ele>209.5</ele>
        <time>2022-10-16T10:33:44.000Z</time>
      </trkpt>
      <trkpt lat="45.10767" lon="5.29033">
        <ele>209.2</ele>
        <time>2022-10-16T10:33:45.000Z</time>
      </trkpt>
      <trkpt lat="45.10767" lon="5.29026">
        <ele>209</ele>
        <time>2022-10-16T10:33:46.000Z</time>
      </trkpt>
      <trkpt lat="45.10767" lon="5.29019">
        <ele>209</ele>
        <time>2022-10-16T10:33:47.000Z</time>
      </trkpt>
      <trkpt lat="45.10766" lon="5.29013">
        <ele>209</ele>
        <time>2022-10-16T10:33:48.000Z</time>
      </trkpt>
      <trkpt lat="45.10766" lon="5.29006">
        <ele>209</ele>
        <time>2022-10-16T10:33:49.000Z</time>
      </trkpt>
      <trkpt lat="45.10765" lon="5.28999">
        <ele>209</ele>
        <time>2022-10-16T10:33:50.000Z</time>
      </trkpt>
      <trkpt lat="45.10764" lon="5.28993">
        <ele>209</ele>
        <time>2022-10-16T10:33:51.000Z</time>
      </trkpt>
      <trkpt lat="45.10764" lon="5.28987">
        <ele>209</ele>
        <time>2022-10-16T10:33:52.000Z</time>
      </trkpt>
      <trkpt lat="45.10763" lon="5.28981">
        <ele>209</ele>
        <time>2022-10-16T10:33:53.000Z</time>
      </trkpt>
      <trkpt lat="45.10763" lon="5.28976">
        <ele>209</ele>
        <time>2022-10-16T10:33:54.000Z</time>
      </trkpt>
      <trkpt lat="45.10763" lon="5.2897">
        <ele>209</ele>
        <time>2022-10-16T10:33:55.000Z</time>
      </trkpt>
      <trkpt lat="45.10762" lon="5.28965">
        <ele>209.1</ele>
        <time>2022-10-16T10:33:56.000Z</time>
      </trkpt>
      <trkpt lat="45.10762" lon="5.28959">
        <ele>209.3</ele>
        <time>2022-10-16T10:33:57.000Z</time>
      </trkpt>
      <trkpt lat="45.10761" lon="5.28954">
        <ele>209.4</ele>
        <time>2022-10-16T10:33:58.000Z</time>
      </trkpt>
      <trkpt lat="45.10761" lon="5.28949">
        <ele>209.5</ele>
        <time>2022-10-16T10:33:59.000Z</time>
      </trkpt>
      <trkpt lat="45.1076" lon="5.28944">
        <ele>209.6</ele>
        <time>2022-10-16T10:34:00.000Z</time>
      </trkpt>
      <trkpt lat="45.1076" lon="5.2894">
        <ele>209.5</ele>
        <time>2022-10-16T10:34:01.000Z</time>
      </trkpt>
      <trkpt lat="45.10759" lon="5.28936">
        <ele>209.5</ele>
        <time>2022-10-16T10:34:02.000Z</time>
      </trkpt>
      <trkpt lat="45.10759" lon="5.28932">
        <ele>209.4</ele>
        <time>2022-10-16T10:34:03.000Z</time>
      </trkpt>
      <trkpt lat="45.10758" lon="5.28927">
        <ele>209.3</ele>
        <time>2022-10-16T10:34:04.000Z</time>
      </trkpt>
      <trkpt lat="45.10757" lon="5.28923">
        <ele>209.2</ele>
        <time>2022-10-16T10:34:05.000Z</time>
      </trkpt>
      <trkpt lat="45.10757" lon="5.28918">
        <ele>209</ele>
        <time>2022-10-16T10:34:06.000Z</time>
      </trkpt>
      <trkpt lat="45.10756" lon="5.28913">
        <ele>209</ele>
        <time>2022-10-16T10:34:07.000Z</time>
      </trkpt>
      <trkpt lat="45.10756" lon="5.28908">
        <ele>209</ele>
        <time>2022-10-16T10:34:08.000Z</time>
      </trkpt>
      <trkpt lat="45.10756" lon="5.28902">
        <ele>209</ele>
        <time>2022-10-16T10:34:09.000Z</time>
      </trkpt>
      <trkpt lat="45.10755" lon="5.28897">
        <ele>209</ele>
        <time>2022-10-16T10:34:10.000Z</time>
      </trkpt>
      <trkpt lat="45.10755" lon="5.28892">
        <ele>209</ele>
        <time>2022-10-16T10:34:11.000Z</time>
      </trkpt>
      <trkpt lat="45.10754" lon="5.28887">
        <ele>209</ele>
        <time>2022-10-16T10:34:12.000Z</time>
      </trkpt>
      <trkpt lat="45.10753" lon="5.28882">
        <ele>209</ele>
        <time>2022-10-16T10:34:13.000Z</time>
      </trkpt>
      <trkpt lat="45.10753" lon="5.28876">
        <ele>209</ele>
        <time>2022-10-16T10:34:14.000Z</time>
      </trkpt>
      <trkpt lat="45.10753" lon="5.28871">
        <ele>209</ele>
        <time>2022-10-16T10:34:15.000Z</time>
      </trkpt>
      <trkpt lat="45.10753" lon="5.28865">
        <ele>209</ele>
        <time>2022-10-16T10:34:16.000Z</time>
      </trkpt>
      <trkpt lat="45.10752" lon="5.28859">
        <ele>209</ele>
        <time>2022-10-16T10:34:17.000Z</time>
      </trkpt>
      <trkpt lat="45.10752" lon="5.28853">
        <ele>209</ele>
        <time>2022-10-16T10:34:18.000Z</time>
      </trkpt>
      <trkpt lat="45.10751" lon="5.28847">
        <ele>209</ele>
        <time>2022-10-16T10:34:19.000Z</time>
      </trkpt>
      <trkpt lat="45.10751" lon="5.2884">
        <ele>209</ele>
        <time>2022-10-16T10:34:20.000Z</time>
      </trkpt>
      <trkpt lat="45.1075" lon="5.28834">
        <ele>209</ele>
        <time>2022-10-16T10:34:21.000Z</time>
      </trkpt>
      <trkpt lat="45.10749" lon="5.28828">
        <ele>208.8</ele>
        <time>2022-10-16T10:34:22.000Z</time>
      </trkpt>
      <trkpt lat="45.10748" lon="5.28822">
        <ele>208.6</ele>
        <time>2022-10-16T10:34:23.000Z</time>
      </trkpt>
      <trkpt lat="45.10748" lon="5.28816">
        <ele>208.4</ele>
        <time>2022-10-16T10:34:24.000Z</time>
      </trkpt>
      <trkpt lat="45.10747" lon="5.28809">
        <ele>208.2</ele>
        <time>2022-10-16T10:34:25.000Z</time>
      </trkpt>
      <trkpt lat="45.10747" lon="5.28804">
        <ele>208.1</ele>
        <time>2022-10-16T10:34:26.000Z</time>
      </trkpt>
      <trkpt lat="45.10746" lon="5.28799">
        <ele>208.2</ele>
        <time>2022-10-16T10:34:27.000Z</time>
      </trkpt>
      <trkpt lat="45.10746" lon="5.28793">
        <ele>208.2</ele>
        <time>2022-10-16T10:34:28.000Z</time>
      </trkpt>
      <trkpt lat="45.10746" lon="5.28788">
        <ele>208.2</ele>
        <time>2022-10-16T10:34:29.000Z</time>
      </trkpt>
      <trkpt lat="45.10746" lon="5.28782">
        <ele>208.2</ele>
        <time>2022-10-16T10:34:30.000Z</time>
      </trkpt>
      <trkpt lat="45.10745" lon="5.28776">
        <ele>208.2</ele>
        <time>2022-10-16T10:34:31.000Z</time>
      </trkpt>
      <trkpt lat="45.10744" lon="5.28769">
        <ele>208.1</ele>
        <time>2022-10-16T10:34:32.000Z</time>
      </trkpt>
      <trkpt lat="45.10744" lon="5.28763">
        <ele>208.1</ele>
        <time>2022-10-16T10:34:33.000Z</time>
      </trkpt>
      <trkpt lat="45.10743" lon="5.28757">
        <ele>208.1</ele>
        <time>2022-10-16T10:34:34.000Z</time>
      </trkpt>
      <trkpt lat="45.10743" lon="5.28751">
        <ele>208</ele>
        <time>2022-10-16T10:34:35.000Z</time>
      </trkpt>
      <trkpt lat="45.10743" lon="5.28744">
        <ele>208.2</ele>
        <time>2022-10-16T10:34:36.000Z</time>
      </trkpt>
      <trkpt lat="45.10743" lon="5.28738">
        <ele>208.3</ele>
        <time>2022-10-16T10:34:37.000Z</time>
      </trkpt>
      <trkpt lat="45.10743" lon="5.28732">
        <ele>208.5</ele>
        <time>2022-10-16T10:34:38.000Z</time>
      </trkpt>
      <trkpt lat="45.10742" lon="5.28727">
        <ele>208.6</ele>
        <time>2022-10-16T10:34:39.000Z</time>
      </trkpt>
      <trkpt lat="45.10742" lon="5.28721">
        <ele>208.7</ele>
        <time>2022-10-16T10:34:40.000Z</time>
      </trkpt>
      <trkpt lat="45.10741" lon="5.28715">
        <ele>208.7</ele>
        <time>2022-10-16T10:34:41.000Z</time>
      </trkpt>
      <trkpt lat="45.10741" lon="5.28711">
        <ele>208.7</ele>
        <time>2022-10-16T10:34:42.000Z</time>
      </trkpt>
      <trkpt lat="45.1074" lon="5.28707">
        <ele>208.6</ele>
        <time>2022-10-16T10:34:43.000Z</time>
      </trkpt>
      <trkpt lat="45.1074" lon="5.28703">
        <ele>208.6</ele>
        <time>2022-10-16T10:34:44.000Z</time>
      </trkpt>
      <trkpt lat="45.10739" lon="5.28698">
        <ele>208.6</ele>
        <time>2022-10-16T10:34:45.000Z</time>
      </trkpt>
      <trkpt lat="45.10738" lon="5.28693">
        <ele>208.6</ele>
        <time>2022-10-16T10:34:46.000Z</time>
      </trkpt>
      <trkpt lat="45.10738" lon="5.28689">
        <ele>208.6</ele>
        <time>2022-10-16T10:34:47.000Z</time>
      </trkpt>
      <trkpt lat="45.10738" lon="5.28684">
        <ele>208.5</ele>
        <time>2022-10-16T10:34:48.000Z</time>
      </trkpt>
      <trkpt lat="45.10738" lon="5.28678">
        <ele>208.5</ele>
        <time>2022-10-16T10:34:49.000Z</time>
      </trkpt>
      <trkpt lat="45.10737" lon="5.28674">
        <ele>208.5</ele>
        <time>2022-10-16T10:34:50.000Z</time>
      </trkpt>
      <trkpt lat="45.10736" lon="5.2867">
        <ele>208.5</ele>
        <time>2022-10-16T10:34:51.000Z</time>
      </trkpt>
      <trkpt lat="45.10736" lon="5.28664">
        <ele>208.5</ele>
        <time>2022-10-16T10:34:52.000Z</time>
      </trkpt>
      <trkpt lat="45.10735" lon="5.28659">
        <ele>208.5</ele>
        <time>2022-10-16T10:34:53.000Z</time>
      </trkpt>
      <trkpt lat="45.10735" lon="5.28653">
        <ele>208.4</ele>
        <time>2022-10-16T10:34:54.000Z</time>
      </trkpt>
      <trkpt lat="45.10734" lon="5.28648">
        <ele>208.4</ele>
        <time>2022-10-16T10:34:55.000Z</time>
      </trkpt>
      <trkpt lat="45.10734" lon="5.28642">
        <ele>208.4</ele>
        <time>2022-10-16T10:34:56.000Z</time>
      </trkpt>
      <trkpt lat="45.10734" lon="5.28635">
        <ele>208.5</ele>
        <time>2022-10-16T10:34:57.000Z</time>
      </trkpt>
      <trkpt lat="45.10734" lon="5.28628">
        <ele>208.6</ele>
        <time>2022-10-16T10:34:58.000Z</time>
      </trkpt>
      <trkpt lat="45.10733" lon="5.28621">
        <ele>208.8</ele>
        <time>2022-10-16T10:34:59.000Z</time>
      </trkpt>
      <trkpt lat="45.10733" lon="5.28615">
        <ele>208.9</ele>
        <time>2022-10-16T10:35:00.000Z</time>
      </trkpt>
      <trkpt lat="45.10732" lon="5.28609">
        <ele>209.1</ele>
        <time>2022-10-16T10:35:01.000Z</time>
      </trkpt>
      <trkpt lat="45.10731" lon="5.28603">
        <ele>209.2</ele>
        <time>2022-10-16T10:35:02.000Z</time>
      </trkpt>
      <trkpt lat="45.10731" lon="5.28596">
        <ele>209.3</ele>
        <time>2022-10-16T10:35:03.000Z</time>
      </trkpt>
      <trkpt lat="45.1073" lon="5.2859">
        <ele>209.4</ele>
        <time>2022-10-16T10:35:04.000Z</time>
      </trkpt>
      <trkpt lat="45.1073" lon="5.28584">
        <ele>209.5</ele>
        <time>2022-10-16T10:35:05.000Z</time>
      </trkpt>
      <trkpt lat="45.10729" lon="5.28578">
        <ele>209.5</ele>
        <time>2022-10-16T10:35:06.000Z</time>
      </trkpt>
      <trkpt lat="45.10729" lon="5.28572">
        <ele>209.4</ele>
        <time>2022-10-16T10:35:07.000Z</time>
      </trkpt>
      <trkpt lat="45.10729" lon="5.28565">
        <ele>209.3</ele>
        <time>2022-10-16T10:35:08.000Z</time>
      </trkpt>
      <trkpt lat="45.10728" lon="5.28559">
        <ele>209.2</ele>
        <time>2022-10-16T10:35:09.000Z</time>
      </trkpt>
      <trkpt lat="45.10728" lon="5.28553">
        <ele>209.3</ele>
        <time>2022-10-16T10:35:10.000Z</time>
      </trkpt>
      <trkpt lat="45.10727" lon="5.28547">
        <ele>209.4</ele>
        <time>2022-10-16T10:35:11.000Z</time>
      </trkpt>
      <trkpt lat="45.10727" lon="5.28541">
        <ele>209.5</ele>
        <time>2022-10-16T10:35:12.000Z</time>
      </trkpt>
      <trkpt lat="45.10726" lon="5.28535">
        <ele>209.7</ele>
        <time>2022-10-16T10:35:13.000Z</time>
      </trkpt>
      <trkpt lat="45.10726" lon="5.28528">
        <ele>209.9</ele>
        <time>2022-10-16T10:35:14.000Z</time>
      </trkpt>
      <trkpt lat="45.10726" lon="5.28522">
        <ele>209.8</ele>
        <time>2022-10-16T10:35:15.000Z</time>
      </trkpt>
      <trkpt lat="45.10726" lon="5.28515">
        <ele>209.8</ele>
        <time>2022-10-16T10:35:16.000Z</time>
      </trkpt>
      <trkpt lat="45.10725" lon="5.28509">
        <ele>209.7</ele>
        <time>2022-10-16T10:35:17.000Z</time>
      </trkpt>
      <trkpt lat="45.10725" lon="5.28502">
        <ele>209.7</ele>
        <time>2022-10-16T10:35:18.000Z</time>
      </trkpt>
      <trkpt lat="45.10725" lon="5.28496">
        <ele>209.6</ele>
        <time>2022-10-16T10:35:19.000Z</time>
      </trkpt>
      <trkpt lat="45.10724" lon="5.28489">
        <ele>209.6</ele>
        <time>2022-10-16T10:35:20.000Z</time>
      </trkpt>
      <trkpt lat="45.10724" lon="5.28482">
        <ele>209.6</ele>
        <time>2022-10-16T10:35:21.000Z</time>
      </trkpt>
      <trkpt lat="45.10723" lon="5.28476">
        <ele>209.7</ele>
        <time>2022-10-16T10:35:22.000Z</time>
      </trkpt>
      <trkpt lat="45.10723" lon="5.28469">
        <ele>210</ele>
        <time>2022-10-16T10:35:23.000Z</time>
      </trkpt>
      <trkpt lat="45.10722" lon="5.28463">
        <ele>210.3</ele>
        <time>2022-10-16T10:35:24.000Z</time>
      </trkpt>
      <trkpt lat="45.10721" lon="5.28457">
        <ele>210.5</ele>
        <time>2022-10-16T10:35:25.000Z</time>
      </trkpt>
      <trkpt lat="45.10721" lon="5.2845">
        <ele>210.7</ele>
        <time>2022-10-16T10:35:26.000Z</time>
      </trkpt>
      <trkpt lat="45.1072" lon="5.28444">
        <ele>210.8</ele>
        <time>2022-10-16T10:35:27.000Z</time>
      </trkpt>
      <trkpt lat="45.10719" lon="5.28437">
        <ele>210.5</ele>
        <time>2022-10-16T10:35:28.000Z</time>
      </trkpt>
      <trkpt lat="45.10718" lon="5.2843">
        <ele>210.3</ele>
        <time>2022-10-16T10:35:29.000Z</time>
      </trkpt>
      <trkpt lat="45.10718" lon="5.28423">
        <ele>210</ele>
        <time>2022-10-16T10:35:30.000Z</time>
      </trkpt>
      <trkpt lat="45.10718" lon="5.28417">
        <ele>209.8</ele>
        <time>2022-10-16T10:35:31.000Z</time>
      </trkpt>
      <trkpt lat="45.10717" lon="5.2841">
        <ele>209.9</ele>
        <time>2022-10-16T10:35:32.000Z</time>
      </trkpt>
      <trkpt lat="45.10717" lon="5.28404">
        <ele>209.9</ele>
        <time>2022-10-16T10:35:33.000Z</time>
      </trkpt>
      <trkpt lat="45.10716" lon="5.28398">
        <ele>209.9</ele>
        <time>2022-10-16T10:35:34.000Z</time>
      </trkpt>
      <trkpt lat="45.10716" lon="5.28391">
        <ele>210</ele>
        <time>2022-10-16T10:35:35.000Z</time>
      </trkpt>
      <trkpt lat="45.10716" lon="5.28383">
        <ele>209.8</ele>
        <time>2022-10-16T10:35:36.000Z</time>
      </trkpt>
      <trkpt lat="45.10716" lon="5.28376">
        <ele>209.6</ele>
        <time>2022-10-16T10:35:37.000Z</time>
      </trkpt>
      <trkpt lat="45.10715" lon="5.28368">
        <ele>209.4</ele>
        <time>2022-10-16T10:35:38.000Z</time>
      </trkpt>
      <trkpt lat="45.10715" lon="5.28362">
        <ele>209.3</ele>
        <time>2022-10-16T10:35:39.000Z</time>
      </trkpt>
      <trkpt lat="45.10715" lon="5.28354">
        <ele>209.1</ele>
        <time>2022-10-16T10:35:40.000Z</time>
      </trkpt>
      <trkpt lat="45.10714" lon="5.28346">
        <ele>208.9</ele>
        <time>2022-10-16T10:35:41.000Z</time>
      </trkpt>
      <trkpt lat="45.10714" lon="5.28339">
        <ele>208.8</ele>
        <time>2022-10-16T10:35:42.000Z</time>
      </trkpt>
      <trkpt lat="45.10713" lon="5.28332">
        <ele>208.6</ele>
        <time>2022-10-16T10:35:43.000Z</time>
      </trkpt>
      <trkpt lat="45.10712" lon="5.28322">
        <ele>208.2</ele>
        <time>2022-10-16T10:35:44.000Z</time>
      </trkpt>
      <trkpt lat="45.10711" lon="5.2831">
        <ele>207.8</ele>
        <time>2022-10-16T10:35:45.000Z</time>
      </trkpt>
      <trkpt lat="45.1071" lon="5.28299">
        <ele>207.6</ele>
        <time>2022-10-16T10:35:46.000Z</time>
      </trkpt>
      <trkpt lat="45.10708" lon="5.28288">
        <ele>207.4</ele>
        <time>2022-10-16T10:35:47.000Z</time>
      </trkpt>
      <trkpt lat="45.10707" lon="5.28277">
        <ele>207.1</ele>
        <time>2022-10-16T10:35:48.000Z</time>
      </trkpt>
      <trkpt lat="45.10706" lon="5.28265">
        <ele>206.3</ele>
        <time>2022-10-16T10:35:49.000Z</time>
      </trkpt>
      <trkpt lat="45.10705" lon="5.28254">
        <ele>205.5</ele>
        <time>2022-10-16T10:35:50.000Z</time>
      </trkpt>
      <trkpt lat="45.10704" lon="5.28243">
        <ele>204.6</ele>
        <time>2022-10-16T10:35:51.000Z</time>
      </trkpt>
      <trkpt lat="45.10703" lon="5.28233">
        <ele>203.7</ele>
        <time>2022-10-16T10:35:52.000Z</time>
      </trkpt>
      <trkpt lat="45.10703" lon="5.28222">
        <ele>202.8</ele>
        <time>2022-10-16T10:35:53.000Z</time>
      </trkpt>
      <trkpt lat="45.10702" lon="5.28212">
        <ele>202.7</ele>
        <time>2022-10-16T10:35:54.000Z</time>
      </trkpt>
      <trkpt lat="45.107" lon="5.28201">
        <ele>202.6</ele>
        <time>2022-10-16T10:35:55.000Z</time>
      </trkpt>
      <trkpt lat="45.10699" lon="5.28191">
        <ele>202.5</ele>
        <time>2022-10-16T10:35:56.000Z</time>
      </trkpt>
      <trkpt lat="45.10698" lon="5.28181">
        <ele>202.6</ele>
        <time>2022-10-16T10:35:57.000Z</time>
      </trkpt>
      <trkpt lat="45.10698" lon="5.2817">
        <ele>202.5</ele>
        <time>2022-10-16T10:35:58.000Z</time>
      </trkpt>
      <trkpt lat="45.10697" lon="5.2816">
        <ele>202.6</ele>
        <time>2022-10-16T10:35:59.000Z</time>
      </trkpt>
      <trkpt lat="45.10696" lon="5.28151">
        <ele>202.7</ele>
        <time>2022-10-16T10:36:00.000Z</time>
      </trkpt>
      <trkpt lat="45.10696" lon="5.28142">
        <ele>202.8</ele>
        <time>2022-10-16T10:36:01.000Z</time>
      </trkpt>
      <trkpt lat="45.10695" lon="5.28133">
        <ele>202.7</ele>
        <time>2022-10-16T10:36:02.000Z</time>
      </trkpt>
      <trkpt lat="45.10694" lon="5.28124">
        <ele>202.4</ele>
        <time>2022-10-16T10:36:03.000Z</time>
      </trkpt>
      <trkpt lat="45.10693" lon="5.28116">
        <ele>202</ele>
        <time>2022-10-16T10:36:04.000Z</time>
      </trkpt>
      <trkpt lat="45.10692" lon="5.28108">
        <ele>201.7</ele>
        <time>2022-10-16T10:36:05.000Z</time>
      </trkpt>
      <trkpt lat="45.10691" lon="5.28101">
        <ele>201.7</ele>
        <time>2022-10-16T10:36:06.000Z</time>
      </trkpt>
      <trkpt lat="45.1069" lon="5.28093">
        <ele>201.7</ele>
        <time>2022-10-16T10:36:07.000Z</time>
      </trkpt>
      <trkpt lat="45.1069" lon="5.28085">
        <ele>201.7</ele>
        <time>2022-10-16T10:36:08.000Z</time>
      </trkpt>
      <trkpt lat="45.10689" lon="5.28076">
        <ele>201.7</ele>
        <time>2022-10-16T10:36:09.000Z</time>
      </trkpt>
      <trkpt lat="45.10689" lon="5.28069">
        <ele>201.7</ele>
        <time>2022-10-16T10:36:10.000Z</time>
      </trkpt>
      <trkpt lat="45.10689" lon="5.28061">
        <ele>201.7</ele>
        <time>2022-10-16T10:36:11.000Z</time>
      </trkpt>
      <trkpt lat="45.10688" lon="5.28054">
        <ele>201.8</ele>
        <time>2022-10-16T10:36:12.000Z</time>
      </trkpt>
      <trkpt lat="45.10688" lon="5.28047">
        <ele>201.8</ele>
        <time>2022-10-16T10:36:13.000Z</time>
      </trkpt>
      <trkpt lat="45.10688" lon="5.2804">
        <ele>201.8</ele>
        <time>2022-10-16T10:36:14.000Z</time>
      </trkpt>
      <trkpt lat="45.10687" lon="5.28033">
        <ele>201.7</ele>
        <time>2022-10-16T10:36:15.000Z</time>
      </trkpt>
      <trkpt lat="45.10687" lon="5.28026">
        <ele>201.7</ele>
        <time>2022-10-16T10:36:16.000Z</time>
      </trkpt>
      <trkpt lat="45.10686" lon="5.28019">
        <ele>201.8</ele>
        <time>2022-10-16T10:36:17.000Z</time>
      </trkpt>
      <trkpt lat="45.10685" lon="5.28011">
        <ele>201.9</ele>
        <time>2022-10-16T10:36:18.000Z</time>
      </trkpt>
      <trkpt lat="45.10685" lon="5.28003">
        <ele>202</ele>
        <time>2022-10-16T10:36:19.000Z</time>
      </trkpt>
      <trkpt lat="45.10684" lon="5.27995">
        <ele>202</ele>
        <time>2022-10-16T10:36:20.000Z</time>
      </trkpt>
      <trkpt lat="45.10684" lon="5.27988">
        <ele>202</ele>
        <time>2022-10-16T10:36:21.000Z</time>
      </trkpt>
      <trkpt lat="45.10684" lon="5.27981">
        <ele>202</ele>
        <time>2022-10-16T10:36:22.000Z</time>
      </trkpt>
      <trkpt lat="45.10683" lon="5.27973">
        <ele>202</ele>
        <time>2022-10-16T10:36:23.000Z</time>
      </trkpt>
      <trkpt lat="45.10683" lon="5.27966">
        <ele>202</ele>
        <time>2022-10-16T10:36:24.000Z</time>
      </trkpt>
      <trkpt lat="45.10683" lon="5.27959">
        <ele>202</ele>
        <time>2022-10-16T10:36:25.000Z</time>
      </trkpt>
      <trkpt lat="45.10682" lon="5.27952">
        <ele>202</ele>
        <time>2022-10-16T10:36:26.000Z</time>
      </trkpt>
      <trkpt lat="45.10682" lon="5.27945">
        <ele>202</ele>
        <time>2022-10-16T10:36:27.000Z</time>
      </trkpt>
      <trkpt lat="45.10681" lon="5.27939">
        <ele>202</ele>
        <time>2022-10-16T10:36:28.000Z</time>
      </trkpt>
      <trkpt lat="45.10681" lon="5.27932">
        <ele>202</ele>
        <time>2022-10-16T10:36:29.000Z</time>
      </trkpt>
      <trkpt lat="45.1068" lon="5.27926">
        <ele>202</ele>
        <time>2022-10-16T10:36:30.000Z</time>
      </trkpt>
      <trkpt lat="45.10679" lon="5.27919">
        <ele>202</ele>
        <time>2022-10-16T10:36:31.000Z</time>
      </trkpt>
      <trkpt lat="45.10679" lon="5.27913">
        <ele>202</ele>
        <time>2022-10-16T10:36:32.000Z</time>
      </trkpt>
      <trkpt lat="45.10678" lon="5.27906">
        <ele>202</ele>
        <time>2022-10-16T10:36:33.000Z</time>
      </trkpt>
      <trkpt lat="45.10678" lon="5.27899">
        <ele>202</ele>
        <time>2022-10-16T10:36:34.000Z</time>
      </trkpt>
      <trkpt lat="45.10678" lon="5.27893">
        <ele>202</ele>
        <time>2022-10-16T10:36:35.000Z</time>
      </trkpt>
      <trkpt lat="45.10677" lon="5.27886">
        <ele>202</ele>
        <time>2022-10-16T10:36:36.000Z</time>
      </trkpt>
      <trkpt lat="45.10677" lon="5.27879">
        <ele>202</ele>
        <time>2022-10-16T10:36:37.000Z</time>
      </trkpt>
      <trkpt lat="45.10677" lon="5.27872">
        <ele>202</ele>
        <time>2022-10-16T10:36:38.000Z</time>
      </trkpt>
      <trkpt lat="45.10676" lon="5.27865">
        <ele>202</ele>
        <time>2022-10-16T10:36:39.000Z</time>
      </trkpt>
      <trkpt lat="45.10675" lon="5.27859">
        <ele>202</ele>
        <time>2022-10-16T10:36:40.000Z</time>
      </trkpt>
      <trkpt lat="45.10675" lon="5.27852">
        <ele>202</ele>
        <time>2022-10-16T10:36:41.000Z</time>
      </trkpt>
      <trkpt lat="45.10674" lon="5.27845">
        <ele>202</ele>
        <time>2022-10-16T10:36:42.000Z</time>
      </trkpt>
      <trkpt lat="45.10673" lon="5.27839">
        <ele>202</ele>
        <time>2022-10-16T10:36:43.000Z</time>
      </trkpt>
      <trkpt lat="45.10673" lon="5.27834">
        <ele>202</ele>
        <time>2022-10-16T10:36:44.000Z</time>
      </trkpt>
      <trkpt lat="45.10672" lon="5.27828">
        <ele>202</ele>
        <time>2022-10-16T10:36:45.000Z</time>
      </trkpt>
      <trkpt lat="45.10671" lon="5.27822">
        <ele>201.9</ele>
        <time>2022-10-16T10:36:46.000Z</time>
      </trkpt>
      <trkpt lat="45.1067" lon="5.27816">
        <ele>201.9</ele>
        <time>2022-10-16T10:36:47.000Z</time>
      </trkpt>
      <trkpt lat="45.10669" lon="5.2781">
        <ele>201.9</ele>
        <time>2022-10-16T10:36:48.000Z</time>
      </trkpt>
      <trkpt lat="45.10669" lon="5.27804">
        <ele>201.9</ele>
        <time>2022-10-16T10:36:49.000Z</time>
      </trkpt>
      <trkpt lat="45.10669" lon="5.27798">
        <ele>201.9</ele>
        <time>2022-10-16T10:36:50.000Z</time>
      </trkpt>
      <trkpt lat="45.10669" lon="5.27793">
        <ele>201.9</ele>
        <time>2022-10-16T10:36:51.000Z</time>
      </trkpt>
      <trkpt lat="45.10668" lon="5.27788">
        <ele>202</ele>
        <time>2022-10-16T10:36:52.000Z</time>
      </trkpt>
      <trkpt lat="45.10668" lon="5.27782">
        <ele>202</ele>
        <time>2022-10-16T10:36:53.000Z</time>
      </trkpt>
      <trkpt lat="45.10668" lon="5.27777">
        <ele>201.9</ele>
        <time>2022-10-16T10:36:54.000Z</time>
      </trkpt>
      <trkpt lat="45.10667" lon="5.27772">
        <ele>201.8</ele>
        <time>2022-10-16T10:36:55.000Z</time>
      </trkpt>
      <trkpt lat="45.10667" lon="5.27766">
        <ele>201.6</ele>
        <time>2022-10-16T10:36:56.000Z</time>
      </trkpt>
      <trkpt lat="45.10666" lon="5.27761">
        <ele>201.4</ele>
        <time>2022-10-16T10:36:57.000Z</time>
      </trkpt>
      <trkpt lat="45.10666" lon="5.27756">
        <ele>201.2</ele>
        <time>2022-10-16T10:36:58.000Z</time>
      </trkpt>
      <trkpt lat="45.10666" lon="5.27751">
        <ele>201</ele>
        <time>2022-10-16T10:36:59.000Z</time>
      </trkpt>
      <trkpt lat="45.10665" lon="5.27746">
        <ele>201</ele>
        <time>2022-10-16T10:37:00.000Z</time>
      </trkpt>
      <trkpt lat="45.10665" lon="5.27741">
        <ele>201</ele>
        <time>2022-10-16T10:37:01.000Z</time>
      </trkpt>
      <trkpt lat="45.10665" lon="5.27737">
        <ele>201</ele>
        <time>2022-10-16T10:37:02.000Z</time>
      </trkpt>
      <trkpt lat="45.10665" lon="5.27732">
        <ele>200.9</ele>
        <time>2022-10-16T10:37:03.000Z</time>
      </trkpt>
      <trkpt lat="45.10664" lon="5.27727">
        <ele>200.9</ele>
        <time>2022-10-16T10:37:04.000Z</time>
      </trkpt>
      <trkpt lat="45.10664" lon="5.27722">
        <ele>200.9</ele>
        <time>2022-10-16T10:37:05.000Z</time>
      </trkpt>
      <trkpt lat="45.10665" lon="5.27717">
        <ele>200.9</ele>
        <time>2022-10-16T10:37:06.000Z</time>
      </trkpt>
      <trkpt lat="45.10667" lon="5.27713">
        <ele>201</ele>
        <time>2022-10-16T10:37:07.000Z</time>
      </trkpt>
      <trkpt lat="45.10669" lon="5.27711">
        <ele>201</ele>
        <time>2022-10-16T10:37:08.000Z</time>
      </trkpt>
      <trkpt lat="45.10671" lon="5.27712">
        <ele>201</ele>
        <time>2022-10-16T10:37:09.000Z</time>
      </trkpt>
      <trkpt lat="45.10673" lon="5.27713">
        <ele>201</ele>
        <time>2022-10-16T10:37:10.000Z</time>
      </trkpt>
      <trkpt lat="45.10676" lon="5.27715">
        <ele>201</ele>
        <time>2022-10-16T10:37:11.000Z</time>
      </trkpt>
      <trkpt lat="45.10679" lon="5.27718">
        <ele>201</ele>
        <time>2022-10-16T10:37:12.000Z</time>
      </trkpt>
      <trkpt lat="45.10682" lon="5.27721">
        <ele>201</ele>
        <time>2022-10-16T10:37:13.000Z</time>
      </trkpt>
      <trkpt lat="45.10684" lon="5.27724">
        <ele>201</ele>
        <time>2022-10-16T10:37:14.000Z</time>
      </trkpt>
      <trkpt lat="45.10688" lon="5.27728">
        <ele>201</ele>
        <time>2022-10-16T10:37:15.000Z</time>
      </trkpt>
      <trkpt lat="45.10691" lon="5.27731">
        <ele>201</ele>
        <time>2022-10-16T10:37:16.000Z</time>
      </trkpt>
      <trkpt lat="45.10694" lon="5.27735">
        <ele>201</ele>
        <time>2022-10-16T10:37:17.000Z</time>
      </trkpt>
      <trkpt lat="45.10697" lon="5.27739">
        <ele>201</ele>
        <time>2022-10-16T10:37:18.000Z</time>
      </trkpt>
      <trkpt lat="45.10701" lon="5.27743">
        <ele>200.9</ele>
        <time>2022-10-16T10:37:19.000Z</time>
      </trkpt>
      <trkpt lat="45.10704" lon="5.27747">
        <ele>201</ele>
        <time>2022-10-16T10:37:20.000Z</time>
      </trkpt>
      <trkpt lat="45.10708" lon="5.27751">
        <ele>201</ele>
        <time>2022-10-16T10:37:21.000Z</time>
      </trkpt>
      <trkpt lat="45.10711" lon="5.27756">
        <ele>201</ele>
        <time>2022-10-16T10:37:22.000Z</time>
      </trkpt>
      <trkpt lat="45.10714" lon="5.27761">
        <ele>201</ele>
        <time>2022-10-16T10:37:23.000Z</time>
      </trkpt>
      <trkpt lat="45.10718" lon="5.27765">
        <ele>201</ele>
        <time>2022-10-16T10:37:24.000Z</time>
      </trkpt>
      <trkpt lat="45.10722" lon="5.27769">
        <ele>201</ele>
        <time>2022-10-16T10:37:25.000Z</time>
      </trkpt>
      <trkpt lat="45.10726" lon="5.27774">
        <ele>200.9</ele>
        <time>2022-10-16T10:37:26.000Z</time>
      </trkpt>
      <trkpt lat="45.1073" lon="5.27778">
        <ele>200.7</ele>
        <time>2022-10-16T10:37:27.000Z</time>
      </trkpt>
      <trkpt lat="45.10734" lon="5.27783">
        <ele>200.5</ele>
        <time>2022-10-16T10:37:28.000Z</time>
      </trkpt>
      <trkpt lat="45.10738" lon="5.27787">
        <ele>200.3</ele>
        <time>2022-10-16T10:37:29.000Z</time>
      </trkpt>
      <trkpt lat="45.10741" lon="5.27792">
        <ele>200.2</ele>
        <time>2022-10-16T10:37:30.000Z</time>
      </trkpt>
      <trkpt lat="45.10745" lon="5.27796">
        <ele>200.1</ele>
        <time>2022-10-16T10:37:31.000Z</time>
      </trkpt>
      <trkpt lat="45.10749" lon="5.27801">
        <ele>200</ele>
        <time>2022-10-16T10:37:32.000Z</time>
      </trkpt>
      <trkpt lat="45.10752" lon="5.27805">
        <ele>200</ele>
        <time>2022-10-16T10:37:33.000Z</time>
      </trkpt>
      <trkpt lat="45.10756" lon="5.27809">
        <ele>200</ele>
        <time>2022-10-16T10:37:34.000Z</time>
      </trkpt>
      <trkpt lat="45.1076" lon="5.27813">
        <ele>200.1</ele>
        <time>2022-10-16T10:37:35.000Z</time>
      </trkpt>
      <trkpt lat="45.10763" lon="5.27818">
        <ele>200.2</ele>
        <time>2022-10-16T10:37:36.000Z</time>
      </trkpt>
      <trkpt lat="45.10767" lon="5.27822">
        <ele>200.4</ele>
        <time>2022-10-16T10:37:37.000Z</time>
      </trkpt>
      <trkpt lat="45.10771" lon="5.27826">
        <ele>200.6</ele>
        <time>2022-10-16T10:37:38.000Z</time>
      </trkpt>
      <trkpt lat="45.10775" lon="5.27831">
        <ele>200.8</ele>
        <time>2022-10-16T10:37:39.000Z</time>
      </trkpt>
      <trkpt lat="45.10779" lon="5.27835">
        <ele>201</ele>
        <time>2022-10-16T10:37:40.000Z</time>
      </trkpt>
      <trkpt lat="45.10782" lon="5.2784">
        <ele>201</ele>
        <time>2022-10-16T10:37:41.000Z</time>
      </trkpt>
      <trkpt lat="45.10786" lon="5.27845">
        <ele>200.9</ele>
        <time>2022-10-16T10:37:42.000Z</time>
      </trkpt>
      <trkpt lat="45.1079" lon="5.27849">
        <ele>200.8</ele>
        <time>2022-10-16T10:37:43.000Z</time>
      </trkpt>
      <trkpt lat="45.10794" lon="5.27854">
        <ele>200.6</ele>
        <time>2022-10-16T10:37:44.000Z</time>
      </trkpt>
      <trkpt lat="45.10798" lon="5.27858">
        <ele>200.4</ele>
        <time>2022-10-16T10:37:45.000Z</time>
      </trkpt>
      <trkpt lat="45.10801" lon="5.27863">
        <ele>200.2</ele>
        <time>2022-10-16T10:37:46.000Z</time>
      </trkpt>
      <trkpt lat="45.10805" lon="5.27868">
        <ele>200.2</ele>
        <time>2022-10-16T10:37:47.000Z</time>
      </trkpt>
      <trkpt lat="45.10809" lon="5.27872">
        <ele>200.3</ele>
        <time>2022-10-16T10:37:48.000Z</time>
      </trkpt>
      <trkpt lat="45.10813" lon="5.27877">
        <ele>200.3</ele>
        <time>2022-10-16T10:37:49.000Z</time>
      </trkpt>
      <trkpt lat="45.10817" lon="5.27881">
        <ele>200.3</ele>
        <time>2022-10-16T10:37:50.000Z</time>
      </trkpt>
      <trkpt lat="45.10821" lon="5.27886">
        <ele>200.3</ele>
        <time>2022-10-16T10:37:51.000Z</time>
      </trkpt>
      <trkpt lat="45.10825" lon="5.27891">
        <ele>200.3</ele>
        <time>2022-10-16T10:37:52.000Z</time>
      </trkpt>
      <trkpt lat="45.10829" lon="5.27895">
        <ele>200.3</ele>
        <time>2022-10-16T10:37:53.000Z</time>
      </trkpt>
      <trkpt lat="45.10833" lon="5.279">
        <ele>200.4</ele>
        <time>2022-10-16T10:37:54.000Z</time>
      </trkpt>
      <trkpt lat="45.10837" lon="5.27904">
        <ele>200.4</ele>
        <time>2022-10-16T10:37:55.000Z</time>
      </trkpt>
      <trkpt lat="45.1084" lon="5.27909">
        <ele>200.3</ele>
        <time>2022-10-16T10:37:56.000Z</time>
      </trkpt>
      <trkpt lat="45.10844" lon="5.27913">
        <ele>200.2</ele>
        <time>2022-10-16T10:37:57.000Z</time>
      </trkpt>
      <trkpt lat="45.10848" lon="5.27918">
        <ele>200</ele>
        <time>2022-10-16T10:37:58.000Z</time>
      </trkpt>
      <trkpt lat="45.10852" lon="5.27922">
        <ele>200</ele>
        <time>2022-10-16T10:37:59.000Z</time>
      </trkpt>
      <trkpt lat="45.10855" lon="5.27926">
        <ele>200</ele>
        <time>2022-10-16T10:38:00.000Z</time>
      </trkpt>
      <trkpt lat="45.10859" lon="5.27931">
        <ele>200.1</ele>
        <time>2022-10-16T10:38:01.000Z</time>
      </trkpt>
      <trkpt lat="45.10863" lon="5.27936">
        <ele>200.3</ele>
        <time>2022-10-16T10:38:02.000Z</time>
      </trkpt>
      <trkpt lat="45.10867" lon="5.2794">
        <ele>200.3</ele>
        <time>2022-10-16T10:38:03.000Z</time>
      </trkpt>
      <trkpt lat="45.10871" lon="5.27946">
        <ele>200.4</ele>
        <time>2022-10-16T10:38:04.000Z</time>
      </trkpt>
      <trkpt lat="45.10875" lon="5.27951">
        <ele>200.2</ele>
        <time>2022-10-16T10:38:05.000Z</time>
      </trkpt>
      <trkpt lat="45.10879" lon="5.27956">
        <ele>200.1</ele>
        <time>2022-10-16T10:38:06.000Z</time>
      </trkpt>
      <trkpt lat="45.10884" lon="5.27961">
        <ele>200</ele>
        <time>2022-10-16T10:38:07.000Z</time>
      </trkpt>
      <trkpt lat="45.10888" lon="5.27966">
        <ele>199.8</ele>
        <time>2022-10-16T10:38:08.000Z</time>
      </trkpt>
      <trkpt lat="45.10893" lon="5.27972">
        <ele>199.8</ele>
        <time>2022-10-16T10:38:09.000Z</time>
      </trkpt>
      <trkpt lat="45.10897" lon="5.27977">
        <ele>199.8</ele>
        <time>2022-10-16T10:38:10.000Z</time>
      </trkpt>
      <trkpt lat="45.10902" lon="5.27983">
        <ele>199.7</ele>
        <time>2022-10-16T10:38:11.000Z</time>
      </trkpt>
      <trkpt lat="45.10907" lon="5.27989">
        <ele>199.6</ele>
        <time>2022-10-16T10:38:12.000Z</time>
      </trkpt>
      <trkpt lat="45.10911" lon="5.27994">
        <ele>199.4</ele>
        <time>2022-10-16T10:38:13.000Z</time>
      </trkpt>
      <trkpt lat="45.10916" lon="5.28">
        <ele>199</ele>
        <time>2022-10-16T10:38:14.000Z</time>
      </trkpt>
      <trkpt lat="45.10921" lon="5.28006">
        <ele>199.1</ele>
        <time>2022-10-16T10:38:15.000Z</time>
      </trkpt>
      <trkpt lat="45.10927" lon="5.28012">
        <ele>198.9</ele>
        <time>2022-10-16T10:38:16.000Z</time>
      </trkpt>
      <trkpt lat="45.10932" lon="5.28019">
        <ele>198.3</ele>
        <time>2022-10-16T10:38:17.000Z</time>
      </trkpt>
      <trkpt lat="45.10938" lon="5.28026">
        <ele>197.3</ele>
        <time>2022-10-16T10:38:18.000Z</time>
      </trkpt>
      <trkpt lat="45.10943" lon="5.28033">
        <ele>196.9</ele>
        <time>2022-10-16T10:38:19.000Z</time>
      </trkpt>
      <trkpt lat="45.10949" lon="5.2804">
        <ele>197.5</ele>
        <time>2022-10-16T10:38:20.000Z</time>
      </trkpt>
      <trkpt lat="45.10956" lon="5.28047">
        <ele>197.6</ele>
        <time>2022-10-16T10:38:21.000Z</time>
      </trkpt>
      <trkpt lat="45.10962" lon="5.28054">
        <ele>196.9</ele>
        <time>2022-10-16T10:38:22.000Z</time>
      </trkpt>
      <trkpt lat="45.10968" lon="5.28061">
        <ele>196.5</ele>
        <time>2022-10-16T10:38:23.000Z</time>
      </trkpt>
      <trkpt lat="45.10975" lon="5.28068">
        <ele>196.8</ele>
        <time>2022-10-16T10:38:24.000Z</time>
      </trkpt>
      <trkpt lat="45.10981" lon="5.28076">
        <ele>197.1</ele>
        <time>2022-10-16T10:38:25.000Z</time>
      </trkpt>
      <trkpt lat="45.10987" lon="5.28083">
        <ele>196.3</ele>
        <time>2022-10-16T10:38:26.000Z</time>
      </trkpt>
      <trkpt lat="45.10994" lon="5.28091">
        <ele>195.9</ele>
        <time>2022-10-16T10:38:27.000Z</time>
      </trkpt>
      <trkpt lat="45.11" lon="5.28098">
        <ele>195.6</ele>
        <time>2022-10-16T10:38:28.000Z</time>
      </trkpt>
      <trkpt lat="45.11007" lon="5.28105">
        <ele>195.2</ele>
        <time>2022-10-16T10:38:29.000Z</time>
      </trkpt>
      <trkpt lat="45.11014" lon="5.28112">
        <ele>194.1</ele>
        <time>2022-10-16T10:38:30.000Z</time>
      </trkpt>
      <trkpt lat="45.11022" lon="5.28117">
        <ele>193.6</ele>
        <time>2022-10-16T10:38:31.000Z</time>
      </trkpt>
      <trkpt lat="45.1103" lon="5.2812">
        <ele>193.2</ele>
        <time>2022-10-16T10:38:32.000Z</time>
      </trkpt>
      <trkpt lat="45.11038" lon="5.28121">
        <ele>193.2</ele>
        <time>2022-10-16T10:38:33.000Z</time>
      </trkpt>
      <trkpt lat="45.11047" lon="5.28118">
        <ele>192.2</ele>
        <time>2022-10-16T10:38:34.000Z</time>
      </trkpt>
      <trkpt lat="45.11055" lon="5.28112">
        <ele>190.4</ele>
        <time>2022-10-16T10:38:35.000Z</time>
      </trkpt>
      <trkpt lat="45.11062" lon="5.28104">
        <ele>188.4</ele>
        <time>2022-10-16T10:38:36.000Z</time>
      </trkpt>
      <trkpt lat="45.11068" lon="5.28096">
        <ele>185.5</ele>
        <time>2022-10-16T10:38:37.000Z</time>
      </trkpt>
      <trkpt lat="45.11074" lon="5.28087">
        <ele>181.1</ele>
        <time>2022-10-16T10:38:38.000Z</time>
      </trkpt>
      <trkpt lat="45.1108" lon="5.28079">
        <ele>175.4</ele>
        <time>2022-10-16T10:38:39.000Z</time>
      </trkpt>
      <trkpt lat="45.11085" lon="5.28071">
        <ele>169.9</ele>
        <time>2022-10-16T10:38:40.000Z</time>
      </trkpt>
      <trkpt lat="45.11091" lon="5.28062">
        <ele>166</ele>
        <time>2022-10-16T10:38:41.000Z</time>
      </trkpt>
      <trkpt lat="45.11096" lon="5.28053">
        <ele>163.5</ele>
        <time>2022-10-16T10:38:42.000Z</time>
      </trkpt>
      <trkpt lat="45.11101" lon="5.28045">
        <ele>162.7</ele>
        <time>2022-10-16T10:38:43.000Z</time>
      </trkpt>
      <trkpt lat="45.11106" lon="5.28036">
        <ele>162.2</ele>
        <time>2022-10-16T10:38:44.000Z</time>
      </trkpt>
      <trkpt lat="45.11111" lon="5.28028">
        <ele>162</ele>
        <time>2022-10-16T10:38:45.000Z</time>
      </trkpt>
      <trkpt lat="45.11116" lon="5.2802">
        <ele>161.8</ele>
        <time>2022-10-16T10:38:46.000Z</time>
      </trkpt>
      <trkpt lat="45.11121" lon="5.28012">
        <ele>161.6</ele>
        <time>2022-10-16T10:38:47.000Z</time>
      </trkpt>
      <trkpt lat="45.11126" lon="5.28004">
        <ele>161.6</ele>
        <time>2022-10-16T10:38:48.000Z</time>
      </trkpt>
      <trkpt lat="45.11131" lon="5.27997">
        <ele>161.7</ele>
        <time>2022-10-16T10:38:49.000Z</time>
      </trkpt>
      <trkpt lat="45.11135" lon="5.27989">
        <ele>161.9</ele>
        <time>2022-10-16T10:38:50.000Z</time>
      </trkpt>
      <trkpt lat="45.11139" lon="5.27982">
        <ele>162.1</ele>
        <time>2022-10-16T10:38:51.000Z</time>
      </trkpt>
      <trkpt lat="45.11144" lon="5.27975">
        <ele>163.2</ele>
        <time>2022-10-16T10:38:52.000Z</time>
      </trkpt>
      <trkpt lat="45.11148" lon="5.27968">
        <ele>166</ele>
        <time>2022-10-16T10:38:53.000Z</time>
      </trkpt>
      <trkpt lat="45.11152" lon="5.27961">
        <ele>169.7</ele>
        <time>2022-10-16T10:38:54.000Z</time>
      </trkpt>
      <trkpt lat="45.11156" lon="5.27954">
        <ele>173.5</ele>
        <time>2022-10-16T10:38:55.000Z</time>
      </trkpt>
      <trkpt lat="45.11159" lon="5.27947">
        <ele>177.5</ele>
        <time>2022-10-16T10:38:56.000Z</time>
      </trkpt>
      <trkpt lat="45.11163" lon="5.27941">
        <ele>181</ele>
        <time>2022-10-16T10:38:57.000Z</time>
      </trkpt>
      <trkpt lat="45.11167" lon="5.27934">
        <ele>183.5</ele>
        <time>2022-10-16T10:38:58.000Z</time>
      </trkpt>
      <trkpt lat="45.1117" lon="5.27929">
        <ele>184.5</ele>
        <time>2022-10-16T10:38:59.000Z</time>
      </trkpt>
      <trkpt lat="45.11171" lon="5.27923">
        <ele>185.4</ele>
        <time>2022-10-16T10:39:00.000Z</time>
      </trkpt>
      <trkpt lat="45.11171" lon="5.27918">
        <ele>186</ele>
        <time>2022-10-16T10:39:01.000Z</time>
      </trkpt>
      <trkpt lat="45.11169" lon="5.27914">
        <ele>186.2</ele>
        <time>2022-10-16T10:39:02.000Z</time>
      </trkpt>
      <trkpt lat="45.11166" lon="5.27912">
        <ele>186</ele>
        <time>2022-10-16T10:39:03.000Z</time>
      </trkpt>
      <trkpt lat="45.11161" lon="5.27912">
        <ele>185.5</ele>
        <time>2022-10-16T10:39:04.000Z</time>
      </trkpt>
      <trkpt lat="45.11154" lon="5.27912">
        <ele>184.6</ele>
        <time>2022-10-16T10:39:05.000Z</time>
      </trkpt>
      <trkpt lat="45.11148" lon="5.2791">
        <ele>184.1</ele>
        <time>2022-10-16T10:39:06.000Z</time>
      </trkpt>
      <trkpt lat="45.11143" lon="5.27907">
        <ele>183.8</ele>
        <time>2022-10-16T10:39:07.000Z</time>
      </trkpt>
      <trkpt lat="45.11136" lon="5.27904">
        <ele>183.1</ele>
        <time>2022-10-16T10:39:08.000Z</time>
      </trkpt>
      <trkpt lat="45.11131" lon="5.27899">
        <ele>182.5</ele>
        <time>2022-10-16T10:39:09.000Z</time>
      </trkpt>
      <trkpt lat="45.11125" lon="5.27893">
        <ele>182.6</ele>
        <time>2022-10-16T10:39:10.000Z</time>
      </trkpt>
      <trkpt lat="45.1112" lon="5.27886">
        <ele>182.5</ele>
        <time>2022-10-16T10:39:11.000Z</time>
      </trkpt>
      <trkpt lat="45.11114" lon="5.27879">
        <ele>181.5</ele>
        <time>2022-10-16T10:39:12.000Z</time>
      </trkpt>
      <trkpt lat="45.11109" lon="5.27871">
        <ele>180.4</ele>
        <time>2022-10-16T10:39:13.000Z</time>
      </trkpt>
      <trkpt lat="45.11104" lon="5.27863">
        <ele>179.1</ele>
        <time>2022-10-16T10:39:14.000Z</time>
      </trkpt>
      <trkpt lat="45.11099" lon="5.27855">
        <ele>178.9</ele>
        <time>2022-10-16T10:39:15.000Z</time>
      </trkpt>
      <trkpt lat="45.11094" lon="5.27846">
        <ele>179</ele>
        <time>2022-10-16T10:39:16.000Z</time>
      </trkpt>
      <trkpt lat="45.11089" lon="5.27837">
        <ele>179.5</ele>
        <time>2022-10-16T10:39:17.000Z</time>
      </trkpt>
      <trkpt lat="45.11085" lon="5.27827">
        <ele>179.4</ele>
        <time>2022-10-16T10:39:18.000Z</time>
      </trkpt>
      <trkpt lat="45.1108" lon="5.27818">
        <ele>178</ele>
        <time>2022-10-16T10:39:19.000Z</time>
      </trkpt>
      <trkpt lat="45.11076" lon="5.27806">
        <ele>176.6</ele>
        <time>2022-10-16T10:39:20.000Z</time>
      </trkpt>
      <trkpt lat="45.11071" lon="5.27796">
        <ele>175.7</ele>
        <time>2022-10-16T10:39:21.000Z</time>
      </trkpt>
      <trkpt lat="45.11067" lon="5.27785">
        <ele>175</ele>
        <time>2022-10-16T10:39:22.000Z</time>
      </trkpt>
      <trkpt lat="45.11064" lon="5.27774">
        <ele>174.7</ele>
        <time>2022-10-16T10:39:23.000Z</time>
      </trkpt>
      <trkpt lat="45.1106" lon="5.27763">
        <ele>175</ele>
        <time>2022-10-16T10:39:24.000Z</time>
      </trkpt>
      <trkpt lat="45.11056" lon="5.27751">
        <ele>175.9</ele>
        <time>2022-10-16T10:39:25.000Z</time>
      </trkpt>
      <trkpt lat="45.11052" lon="5.27741">
        <ele>175.5</ele>
        <time>2022-10-16T10:39:26.000Z</time>
      </trkpt>
      <trkpt lat="45.11047" lon="5.2773">
        <ele>174.8</ele>
        <time>2022-10-16T10:39:27.000Z</time>
      </trkpt>
      <trkpt lat="45.11042" lon="5.2772">
        <ele>174.1</ele>
        <time>2022-10-16T10:39:28.000Z</time>
      </trkpt>
      <trkpt lat="45.11037" lon="5.2771">
        <ele>174</ele>
        <time>2022-10-16T10:39:29.000Z</time>
      </trkpt>
      <trkpt lat="45.11032" lon="5.277">
        <ele>173.7</ele>
        <time>2022-10-16T10:39:30.000Z</time>
      </trkpt>
      <trkpt lat="45.11026" lon="5.27689">
        <ele>174.1</ele>
        <time>2022-10-16T10:39:31.000Z</time>
      </trkpt>
      <trkpt lat="45.1102" lon="5.2768">
        <ele>174.9</ele>
        <time>2022-10-16T10:39:32.000Z</time>
      </trkpt>
      <trkpt lat="45.11014" lon="5.27671">
        <ele>174.8</ele>
        <time>2022-10-16T10:39:33.000Z</time>
      </trkpt>
      <trkpt lat="45.11007" lon="5.27662">
        <ele>174.5</ele>
        <time>2022-10-16T10:39:34.000Z</time>
      </trkpt>
      <trkpt lat="45.11" lon="5.27653">
        <ele>175.6</ele>
        <time>2022-10-16T10:39:35.000Z</time>
      </trkpt>
      <trkpt lat="45.10994" lon="5.27644">
        <ele>176.3</ele>
        <time>2022-10-16T10:39:36.000Z</time>
      </trkpt>
      <trkpt lat="45.10986" lon="5.27635">
        <ele>174</ele>
        <time>2022-10-16T10:39:37.000Z</time>
      </trkpt>
      <trkpt lat="45.1098" lon="5.27625">
        <ele>170.5</ele>
        <time>2022-10-16T10:39:38.000Z</time>
      </trkpt>
      <trkpt lat="45.10975" lon="5.27613">
        <ele>168.1</ele>
        <time>2022-10-16T10:39:39.000Z</time>
      </trkpt>
      <trkpt lat="45.1097" lon="5.276">
        <ele>166.3</ele>
        <time>2022-10-16T10:39:40.000Z</time>
      </trkpt>
      <trkpt lat="45.10966" lon="5.27587">
        <ele>165.2</ele>
        <time>2022-10-16T10:39:41.000Z</time>
      </trkpt>
      <trkpt lat="45.10963" lon="5.27572">
        <ele>164.4</ele>
        <time>2022-10-16T10:39:42.000Z</time>
      </trkpt>
      <trkpt lat="45.10959" lon="5.27557">
        <ele>163.6</ele>
        <time>2022-10-16T10:39:43.000Z</time>
      </trkpt>
      <trkpt lat="45.10956" lon="5.27543">
        <ele>163.6</ele>
        <time>2022-10-16T10:39:44.000Z</time>
      </trkpt>
      <trkpt lat="45.10952" lon="5.27529">
        <ele>163.3</ele>
        <time>2022-10-16T10:39:45.000Z</time>
      </trkpt>
      <trkpt lat="45.10949" lon="5.27516">
        <ele>163.9</ele>
        <time>2022-10-16T10:39:46.000Z</time>
      </trkpt>
      <trkpt lat="45.10945" lon="5.27504">
        <ele>163.9</ele>
        <time>2022-10-16T10:39:47.000Z</time>
      </trkpt>
      <trkpt lat="45.10942" lon="5.27492">
        <ele>164.8</ele>
        <time>2022-10-16T10:39:48.000Z</time>
      </trkpt>
      <trkpt lat="45.10938" lon="5.27481">
        <ele>165.7</ele>
        <time>2022-10-16T10:39:49.000Z</time>
      </trkpt>
      <trkpt lat="45.10935" lon="5.27469">
        <ele>166.5</ele>
        <time>2022-10-16T10:39:50.000Z</time>
      </trkpt>
      <trkpt lat="45.10932" lon="5.27458">
        <ele>167.3</ele>
        <time>2022-10-16T10:39:51.000Z</time>
      </trkpt>
      <trkpt lat="45.10929" lon="5.27448">
        <ele>167.4</ele>
        <time>2022-10-16T10:39:52.000Z</time>
      </trkpt>
      <trkpt lat="45.10926" lon="5.27438">
        <ele>167.1</ele>
        <time>2022-10-16T10:39:53.000Z</time>
      </trkpt>
      <trkpt lat="45.10922" lon="5.27428">
        <ele>166.3</ele>
        <time>2022-10-16T10:39:54.000Z</time>
      </trkpt>
      <trkpt lat="45.10919" lon="5.27419">
        <ele>165.5</ele>
        <time>2022-10-16T10:39:55.000Z</time>
      </trkpt>
      <trkpt lat="45.10916" lon="5.2741">
        <ele>166.4</ele>
        <time>2022-10-16T10:39:56.000Z</time>
      </trkpt>
      <trkpt lat="45.10913" lon="5.27402">
        <ele>168.2</ele>
        <time>2022-10-16T10:39:57.000Z</time>
      </trkpt>
      <trkpt lat="45.1091" lon="5.27395">
        <ele>169.4</ele>
        <time>2022-10-16T10:39:58.000Z</time>
      </trkpt>
      <trkpt lat="45.10908" lon="5.27387">
        <ele>170.4</ele>
        <time>2022-10-16T10:39:59.000Z</time>
      </trkpt>
      <trkpt lat="45.10904" lon="5.2738">
        <ele>170.2</ele>
        <time>2022-10-16T10:40:00.000Z</time>
      </trkpt>
      <trkpt lat="45.10901" lon="5.27374">
        <ele>170.3</ele>
        <time>2022-10-16T10:40:01.000Z</time>
      </trkpt>
      <trkpt lat="45.10897" lon="5.27368">
        <ele>169.3</ele>
        <time>2022-10-16T10:40:02.000Z</time>
      </trkpt>
      <trkpt lat="45.10892" lon="5.27362">
        <ele>167.8</ele>
        <time>2022-10-16T10:40:03.000Z</time>
      </trkpt>
      <trkpt lat="45.10889" lon="5.27357">
        <ele>167.3</ele>
        <time>2022-10-16T10:40:04.000Z</time>
      </trkpt>
      <trkpt lat="45.10885" lon="5.27352">
        <ele>168.1</ele>
        <time>2022-10-16T10:40:05.000Z</time>
      </trkpt>
      <trkpt lat="45.10881" lon="5.27347">
        <ele>168.6</ele>
        <time>2022-10-16T10:40:06.000Z</time>
      </trkpt>
      <trkpt lat="45.10878" lon="5.27341">
        <ele>168.9</ele>
        <time>2022-10-16T10:40:07.000Z</time>
      </trkpt>
      <trkpt lat="45.10874" lon="5.27336">
        <ele>168.7</ele>
        <time>2022-10-16T10:40:08.000Z</time>
      </trkpt>
      <trkpt lat="45.10871" lon="5.27331">
        <ele>168.4</ele>
        <time>2022-10-16T10:40:09.000Z</time>
      </trkpt>
      <trkpt lat="45.10867" lon="5.27327">
        <ele>168.2</ele>
        <time>2022-10-16T10:40:10.000Z</time>
      </trkpt>
      <trkpt lat="45.10864" lon="5.27323">
        <ele>168.3</ele>
        <time>2022-10-16T10:40:11.000Z</time>
      </trkpt>
      <trkpt lat="45.10861" lon="5.27319">
        <ele>168.6</ele>
        <time>2022-10-16T10:40:12.000Z</time>
      </trkpt>
      <trkpt lat="45.10858" lon="5.27315">
        <ele>169.3</ele>
        <time>2022-10-16T10:40:13.000Z</time>
      </trkpt>
      <trkpt lat="45.10855" lon="5.27311">
        <ele>169.4</ele>
        <time>2022-10-16T10:40:14.000Z</time>
      </trkpt>
      <trkpt lat="45.10852" lon="5.27307">
        <ele>169.4</ele>
        <time>2022-10-16T10:40:15.000Z</time>
      </trkpt>
      <trkpt lat="45.10849" lon="5.27303">
        <ele>169.5</ele>
        <time>2022-10-16T10:40:16.000Z</time>
      </trkpt>
      <trkpt lat="45.10847" lon="5.27299">
        <ele>169.7</ele>
        <time>2022-10-16T10:40:17.000Z</time>
      </trkpt>
      <trkpt lat="45.10844" lon="5.27296">
        <ele>169.6</ele>
        <time>2022-10-16T10:40:18.000Z</time>
      </trkpt>
      <trkpt lat="45.10842" lon="5.27293">
        <ele>169.3</ele>
        <time>2022-10-16T10:40:19.000Z</time>
      </trkpt>
      <trkpt lat="45.10839" lon="5.27289">
        <ele>169</ele>
        <time>2022-10-16T10:40:20.000Z</time>
      </trkpt>
      <trkpt lat="45.10836" lon="5.27286">
        <ele>168.5</ele>
        <time>2022-10-16T10:40:21.000Z</time>
      </trkpt>
      <trkpt lat="45.10834" lon="5.27283">
        <ele>168.1</ele>
        <time>2022-10-16T10:40:22.000Z</time>
      </trkpt>
      <trkpt lat="45.10832" lon="5.2728">
        <ele>168.2</ele>
        <time>2022-10-16T10:40:23.000Z</time>
      </trkpt>
      <trkpt lat="45.10829" lon="5.27276">
        <ele>168.7</ele>
        <time>2022-10-16T10:40:24.000Z</time>
      </trkpt>
      <trkpt lat="45.10827" lon="5.27273">
        <ele>169</ele>
        <time>2022-10-16T10:40:25.000Z</time>
      </trkpt>
      <trkpt lat="45.10824" lon="5.27269">
        <ele>169.4</ele>
        <time>2022-10-16T10:40:26.000Z</time>
      </trkpt>
      <trkpt lat="45.10822" lon="5.27265">
        <ele>169.8</ele>
        <time>2022-10-16T10:40:27.000Z</time>
      </trkpt>
      <trkpt lat="45.10819" lon="5.27262">
        <ele>169.9</ele>
        <time>2022-10-16T10:40:28.000Z</time>
      </trkpt>
      <trkpt lat="45.10817" lon="5.27258">
        <ele>170.2</ele>
        <time>2022-10-16T10:40:29.000Z</time>
      </trkpt>
      <trkpt lat="45.10815" lon="5.27255">
        <ele>170</ele>
        <time>2022-10-16T10:40:30.000Z</time>
      </trkpt>
      <trkpt lat="45.10813" lon="5.27251">
        <ele>170.1</ele>
        <time>2022-10-16T10:40:31.000Z</time>
      </trkpt>
      <trkpt lat="45.1081" lon="5.27248">
        <ele>170.1</ele>
        <time>2022-10-16T10:40:32.000Z</time>
      </trkpt>
      <trkpt lat="45.10808" lon="5.27245">
        <ele>170</ele>
        <time>2022-10-16T10:40:33.000Z</time>
      </trkpt>
      <trkpt lat="45.10805" lon="5.27242">
        <ele>170.2</ele>
        <time>2022-10-16T10:40:34.000Z</time>
      </trkpt>
      <trkpt lat="45.10802" lon="5.27239">
        <ele>170.7</ele>
        <time>2022-10-16T10:40:35.000Z</time>
      </trkpt>
      <trkpt lat="45.10799" lon="5.27236">
        <ele>171.1</ele>
        <time>2022-10-16T10:40:36.000Z</time>
      </trkpt>
      <trkpt lat="45.10797" lon="5.27233">
        <ele>171.4</ele>
        <time>2022-10-16T10:40:37.000Z</time>
      </trkpt>
      <trkpt lat="45.10794" lon="5.27231">
        <ele>171.5</ele>
        <time>2022-10-16T10:40:38.000Z</time>
      </trkpt>
      <trkpt lat="45.10791" lon="5.27227">
        <ele>171.5</ele>
        <time>2022-10-16T10:40:39.000Z</time>
      </trkpt>
      <trkpt lat="45.10788" lon="5.27224">
        <ele>171.4</ele>
        <time>2022-10-16T10:40:40.000Z</time>
      </trkpt>
      <trkpt lat="45.10785" lon="5.27222">
        <ele>171</ele>
        <time>2022-10-16T10:40:41.000Z</time>
      </trkpt>
      <trkpt lat="45.10781" lon="5.27219">
        <ele>171.1</ele>
        <time>2022-10-16T10:40:42.000Z</time>
      </trkpt>
      <trkpt lat="45.10778" lon="5.27216">
        <ele>171.1</ele>
        <time>2022-10-16T10:40:43.000Z</time>
      </trkpt>
      <trkpt lat="45.10775" lon="5.27213">
        <ele>171.6</ele>
        <time>2022-10-16T10:40:44.000Z</time>
      </trkpt>
      <trkpt lat="45.10772" lon="5.2721">
        <ele>172.1</ele>
        <time>2022-10-16T10:40:45.000Z</time>
      </trkpt>
      <trkpt lat="45.1077" lon="5.27208">
        <ele>172.3</ele>
        <time>2022-10-16T10:40:46.000Z</time>
      </trkpt>
      <trkpt lat="45.10767" lon="5.27206">
        <ele>172.6</ele>
        <time>2022-10-16T10:40:47.000Z</time>
      </trkpt>
      <trkpt lat="45.10764" lon="5.27203">
        <ele>172.7</ele>
        <time>2022-10-16T10:40:48.000Z</time>
      </trkpt>
      <trkpt lat="45.10762" lon="5.27201">
        <ele>172.6</ele>
        <time>2022-10-16T10:40:49.000Z</time>
      </trkpt>
      <trkpt lat="45.10759" lon="5.272">
        <ele>172.5</ele>
        <time>2022-10-16T10:40:50.000Z</time>
      </trkpt>
      <trkpt lat="45.10757" lon="5.27197">
        <ele>172.5</ele>
        <time>2022-10-16T10:40:51.000Z</time>
      </trkpt>
      <trkpt lat="45.10755" lon="5.27195">
        <ele>172.4</ele>
        <time>2022-10-16T10:40:52.000Z</time>
      </trkpt>
      <trkpt lat="45.10752" lon="5.27194">
        <ele>172.1</ele>
        <time>2022-10-16T10:40:53.000Z</time>
      </trkpt>
      <trkpt lat="45.1075" lon="5.27192">
        <ele>172</ele>
        <time>2022-10-16T10:40:54.000Z</time>
      </trkpt>
      <trkpt lat="45.10748" lon="5.27191">
        <ele>172.2</ele>
        <time>2022-10-16T10:40:55.000Z</time>
      </trkpt>
      <trkpt lat="45.10745" lon="5.27188">
        <ele>172.7</ele>
        <time>2022-10-16T10:40:56.000Z</time>
      </trkpt>
      <trkpt lat="45.10743" lon="5.27186">
        <ele>173.2</ele>
        <time>2022-10-16T10:40:57.000Z</time>
      </trkpt>
      <trkpt lat="45.10741" lon="5.27184">
        <ele>173.6</ele>
        <time>2022-10-16T10:40:58.000Z</time>
      </trkpt>
      <trkpt lat="45.10739" lon="5.27182">
        <ele>174.2</ele>
        <time>2022-10-16T10:40:59.000Z</time>
      </trkpt>
      <trkpt lat="45.10737" lon="5.27179">
        <ele>174.8</ele>
        <time>2022-10-16T10:41:00.000Z</time>
      </trkpt>
      <trkpt lat="45.10735" lon="5.27177">
        <ele>175.2</ele>
        <time>2022-10-16T10:41:01.000Z</time>
      </trkpt>
      <trkpt lat="45.10733" lon="5.27174">
        <ele>175.7</ele>
        <time>2022-10-16T10:41:02.000Z</time>
      </trkpt>
      <trkpt lat="45.10731" lon="5.27172">
        <ele>176</ele>
        <time>2022-10-16T10:41:03.000Z</time>
      </trkpt>
      <trkpt lat="45.10728" lon="5.2717">
        <ele>176.2</ele>
        <time>2022-10-16T10:41:04.000Z</time>
      </trkpt>
      <trkpt lat="45.10725" lon="5.27168">
        <ele>176.4</ele>
        <time>2022-10-16T10:41:05.000Z</time>
      </trkpt>
      <trkpt lat="45.10722" lon="5.27165">
        <ele>176.6</ele>
        <time>2022-10-16T10:41:06.000Z</time>
      </trkpt>
      <trkpt lat="45.10718" lon="5.27162">
        <ele>177</ele>
        <time>2022-10-16T10:41:07.000Z</time>
      </trkpt>
      <trkpt lat="45.10716" lon="5.2716">
        <ele>177.3</ele>
        <time>2022-10-16T10:41:08.000Z</time>
      </trkpt>
      <trkpt lat="45.10713" lon="5.27159">
        <ele>177.3</ele>
        <time>2022-10-16T10:41:09.000Z</time>
      </trkpt>
      <trkpt lat="45.10709" lon="5.27157">
        <ele>177.3</ele>
        <time>2022-10-16T10:41:10.000Z</time>
      </trkpt>
      <trkpt lat="45.10706" lon="5.27154">
        <ele>177.5</ele>
        <time>2022-10-16T10:41:11.000Z</time>
      </trkpt>
      <trkpt lat="45.10703" lon="5.27152">
        <ele>177.6</ele>
        <time>2022-10-16T10:41:12.000Z</time>
      </trkpt>
      <trkpt lat="45.107" lon="5.2715">
        <ele>177.8</ele>
        <time>2022-10-16T10:41:13.000Z</time>
      </trkpt>
      <trkpt lat="45.10697" lon="5.27148">
        <ele>178</ele>
        <time>2022-10-16T10:41:14.000Z</time>
      </trkpt>
      <trkpt lat="45.10695" lon="5.27145">
        <ele>178.3</ele>
        <time>2022-10-16T10:41:15.000Z</time>
      </trkpt>
      <trkpt lat="45.10692" lon="5.27144">
        <ele>178.2</ele>
        <time>2022-10-16T10:41:16.000Z</time>
      </trkpt>
      <trkpt lat="45.10689" lon="5.27142">
        <ele>178.2</ele>
        <time>2022-10-16T10:41:17.000Z</time>
      </trkpt>
      <trkpt lat="45.10686" lon="5.27139">
        <ele>178.2</ele>
        <time>2022-10-16T10:41:18.000Z</time>
      </trkpt>
      <trkpt lat="45.10684" lon="5.27137">
        <ele>178.2</ele>
        <time>2022-10-16T10:41:19.000Z</time>
      </trkpt>
      <trkpt lat="45.10681" lon="5.27135">
        <ele>178.3</ele>
        <time>2022-10-16T10:41:20.000Z</time>
      </trkpt>
      <trkpt lat="45.10678" lon="5.27133">
        <ele>178.5</ele>
        <time>2022-10-16T10:41:21.000Z</time>
      </trkpt>
      <trkpt lat="45.10676" lon="5.27131">
        <ele>178.6</ele>
        <time>2022-10-16T10:41:22.000Z</time>
      </trkpt>
      <trkpt lat="45.10674" lon="5.27129">
        <ele>178.7</ele>
        <time>2022-10-16T10:41:23.000Z</time>
      </trkpt>
      <trkpt lat="45.10671" lon="5.27127">
        <ele>178.9</ele>
        <time>2022-10-16T10:41:24.000Z</time>
      </trkpt>
      <trkpt lat="45.10668" lon="5.27124">
        <ele>179.2</ele>
        <time>2022-10-16T10:41:25.000Z</time>
      </trkpt>
      <trkpt lat="45.10665" lon="5.27122">
        <ele>179.2</ele>
        <time>2022-10-16T10:41:26.000Z</time>
      </trkpt>
      <trkpt lat="45.10662" lon="5.2712">
        <ele>179.4</ele>
        <time>2022-10-16T10:41:27.000Z</time>
      </trkpt>
      <trkpt lat="45.10659" lon="5.27118">
        <ele>179.6</ele>
        <time>2022-10-16T10:41:28.000Z</time>
      </trkpt>
      <trkpt lat="45.10657" lon="5.27116">
        <ele>179.7</ele>
        <time>2022-10-16T10:41:29.000Z</time>
      </trkpt>
      <trkpt lat="45.10654" lon="5.27114">
        <ele>179.9</ele>
        <time>2022-10-16T10:41:30.000Z</time>
      </trkpt>
      <trkpt lat="45.10652" lon="5.27112">
        <ele>179.8</ele>
        <time>2022-10-16T10:41:31.000Z</time>
      </trkpt>
      <trkpt lat="45.10649" lon="5.2711">
        <ele>179.6</ele>
        <time>2022-10-16T10:41:32.000Z</time>
      </trkpt>
      <trkpt lat="45.10646" lon="5.27109">
        <ele>179.7</ele>
        <time>2022-10-16T10:41:33.000Z</time>
      </trkpt>
      <trkpt lat="45.10643" lon="5.27106">
        <ele>179.9</ele>
        <time>2022-10-16T10:41:34.000Z</time>
      </trkpt>
      <trkpt lat="45.1064" lon="5.27105">
        <ele>179.7</ele>
        <time>2022-10-16T10:41:35.000Z</time>
      </trkpt>
      <trkpt lat="45.10637" lon="5.27103">
        <ele>180</ele>
        <time>2022-10-16T10:41:36.000Z</time>
      </trkpt>
      <trkpt lat="45.10634" lon="5.27101">
        <ele>180.3</ele>
        <time>2022-10-16T10:41:37.000Z</time>
      </trkpt>
      <trkpt lat="45.10631" lon="5.271">
        <ele>180.4</ele>
        <time>2022-10-16T10:41:38.000Z</time>
      </trkpt>
      <trkpt lat="45.10627" lon="5.27098">
        <ele>180.6</ele>
        <time>2022-10-16T10:41:39.000Z</time>
      </trkpt>
      <trkpt lat="45.10624" lon="5.27096">
        <ele>180.9</ele>
        <time>2022-10-16T10:41:40.000Z</time>
      </trkpt>
      <trkpt lat="45.10622" lon="5.27094">
        <ele>181.1</ele>
        <time>2022-10-16T10:41:41.000Z</time>
      </trkpt>
      <trkpt lat="45.10618" lon="5.27092">
        <ele>181.2</ele>
        <time>2022-10-16T10:41:42.000Z</time>
      </trkpt>
      <trkpt lat="45.10615" lon="5.2709">
        <ele>181.4</ele>
        <time>2022-10-16T10:41:43.000Z</time>
      </trkpt>
      <trkpt lat="45.10612" lon="5.27088">
        <ele>181.5</ele>
        <time>2022-10-16T10:41:44.000Z</time>
      </trkpt>
      <trkpt lat="45.10609" lon="5.27087">
        <ele>181.2</ele>
        <time>2022-10-16T10:41:45.000Z</time>
      </trkpt>
      <trkpt lat="45.10606" lon="5.27086">
        <ele>180.9</ele>
        <time>2022-10-16T10:41:46.000Z</time>
      </trkpt>
      <trkpt lat="45.10603" lon="5.27084">
        <ele>180.6</ele>
        <time>2022-10-16T10:41:47.000Z</time>
      </trkpt>
      <trkpt lat="45.10599" lon="5.27083">
        <ele>180.2</ele>
        <time>2022-10-16T10:41:48.000Z</time>
      </trkpt>
      <trkpt lat="45.10596" lon="5.27081">
        <ele>179.9</ele>
        <time>2022-10-16T10:41:49.000Z</time>
      </trkpt>
      <trkpt lat="45.10593" lon="5.2708">
        <ele>179.7</ele>
        <time>2022-10-16T10:41:50.000Z</time>
      </trkpt>
      <trkpt lat="45.10591" lon="5.27077">
        <ele>180</ele>
        <time>2022-10-16T10:41:51.000Z</time>
      </trkpt>
      <trkpt lat="45.10588" lon="5.27073">
        <ele>180.3</ele>
        <time>2022-10-16T10:41:52.000Z</time>
      </trkpt>
      <trkpt lat="45.10586" lon="5.2707">
        <ele>180.6</ele>
        <time>2022-10-16T10:41:53.000Z</time>
      </trkpt>
      <trkpt lat="45.10584" lon="5.27068">
        <ele>180.6</ele>
        <time>2022-10-16T10:41:54.000Z</time>
      </trkpt>
      <trkpt lat="45.10582" lon="5.27066">
        <ele>180.7</ele>
        <time>2022-10-16T10:41:55.000Z</time>
      </trkpt>
      <trkpt lat="45.1058" lon="5.27064">
        <ele>180.9</ele>
        <time>2022-10-16T10:41:56.000Z</time>
      </trkpt>
      <trkpt lat="45.10578" lon="5.27062">
        <ele>180.9</ele>
        <time>2022-10-16T10:41:57.000Z</time>
      </trkpt>
      <trkpt lat="45.10576" lon="5.2706">
        <ele>181.1</ele>
        <time>2022-10-16T10:41:58.000Z</time>
      </trkpt>
      <trkpt lat="45.10574" lon="5.27058">
        <ele>181.1</ele>
        <time>2022-10-16T10:41:59.000Z</time>
      </trkpt>
      <trkpt lat="45.10572" lon="5.27055">
        <ele>181.2</ele>
        <time>2022-10-16T10:42:00.000Z</time>
      </trkpt>
      <trkpt lat="45.10569" lon="5.27053">
        <ele>181.2</ele>
        <time>2022-10-16T10:42:01.000Z</time>
      </trkpt>
      <trkpt lat="45.10567" lon="5.27052">
        <ele>181</ele>
        <time>2022-10-16T10:42:02.000Z</time>
      </trkpt>
      <trkpt lat="45.10564" lon="5.2705">
        <ele>180.8</ele>
        <time>2022-10-16T10:42:03.000Z</time>
      </trkpt>
      <trkpt lat="45.10561" lon="5.27049">
        <ele>180.5</ele>
        <time>2022-10-16T10:42:04.000Z</time>
      </trkpt>
      <trkpt lat="45.10558" lon="5.27047">
        <ele>180.2</ele>
        <time>2022-10-16T10:42:05.000Z</time>
      </trkpt>
      <trkpt lat="45.10555" lon="5.27045">
        <ele>179.9</ele>
        <time>2022-10-16T10:42:06.000Z</time>
      </trkpt>
      <trkpt lat="45.10553" lon="5.27044">
        <ele>180.2</ele>
        <time>2022-10-16T10:42:07.000Z</time>
      </trkpt>
      <trkpt lat="45.1055" lon="5.27043">
        <ele>180.3</ele>
        <time>2022-10-16T10:42:08.000Z</time>
      </trkpt>
      <trkpt lat="45.10547" lon="5.27042">
        <ele>180.2</ele>
        <time>2022-10-16T10:42:09.000Z</time>
      </trkpt>
      <trkpt lat="45.10545" lon="5.27042">
        <ele>180.2</ele>
        <time>2022-10-16T10:42:10.000Z</time>
      </trkpt>
      <trkpt lat="45.10543" lon="5.27041">
        <ele>180.3</ele>
        <time>2022-10-16T10:42:11.000Z</time>
      </trkpt>
      <trkpt lat="45.1054" lon="5.2704">
        <ele>180.3</ele>
        <time>2022-10-16T10:42:12.000Z</time>
      </trkpt>
      <trkpt lat="45.10538" lon="5.2704">
        <ele>180.3</ele>
        <time>2022-10-16T10:42:13.000Z</time>
      </trkpt>
      <trkpt lat="45.10535" lon="5.27039">
        <ele>180.2</ele>
        <time>2022-10-16T10:42:14.000Z</time>
      </trkpt>
      <trkpt lat="45.10532" lon="5.27039">
        <ele>180</ele>
        <time>2022-10-16T10:42:15.000Z</time>
      </trkpt>
      <trkpt lat="45.1053" lon="5.27039">
        <ele>179.8</ele>
        <time>2022-10-16T10:42:16.000Z</time>
      </trkpt>
      <trkpt lat="45.10527" lon="5.27039">
        <ele>179.7</ele>
        <time>2022-10-16T10:42:17.000Z</time>
      </trkpt>
      <trkpt lat="45.10524" lon="5.27039">
        <ele>179.6</ele>
        <time>2022-10-16T10:42:18.000Z</time>
      </trkpt>
      <trkpt lat="45.10522" lon="5.27039">
        <ele>179.5</ele>
        <time>2022-10-16T10:42:19.000Z</time>
      </trkpt>
      <trkpt lat="45.10519" lon="5.27039">
        <ele>179.3</ele>
        <time>2022-10-16T10:42:20.000Z</time>
      </trkpt>
      <trkpt lat="45.10515" lon="5.2704">
        <ele>179.2</ele>
        <time>2022-10-16T10:42:21.000Z</time>
      </trkpt>
      <trkpt lat="45.10512" lon="5.2704">
        <ele>179.1</ele>
        <time>2022-10-16T10:42:22.000Z</time>
      </trkpt>
      <trkpt lat="45.10509" lon="5.27039">
        <ele>179</ele>
        <time>2022-10-16T10:42:23.000Z</time>
      </trkpt>
      <trkpt lat="45.10507" lon="5.27039">
        <ele>179</ele>
        <time>2022-10-16T10:42:24.000Z</time>
      </trkpt>
      <trkpt lat="45.10504" lon="5.27039">
        <ele>179</ele>
        <time>2022-10-16T10:42:25.000Z</time>
      </trkpt>
      <trkpt lat="45.10501" lon="5.27038">
        <ele>179</ele>
        <time>2022-10-16T10:42:26.000Z</time>
      </trkpt>
      <trkpt lat="45.10498" lon="5.27037">
        <ele>179.3</ele>
        <time>2022-10-16T10:42:27.000Z</time>
      </trkpt>
      <trkpt lat="45.10495" lon="5.27036">
        <ele>179.5</ele>
        <time>2022-10-16T10:42:28.000Z</time>
      </trkpt>
      <trkpt lat="45.10492" lon="5.27035">
        <ele>179.8</ele>
        <time>2022-10-16T10:42:29.000Z</time>
      </trkpt>
      <trkpt lat="45.10489" lon="5.27035">
        <ele>179.9</ele>
        <time>2022-10-16T10:42:30.000Z</time>
      </trkpt>
      <trkpt lat="45.10486" lon="5.27034">
        <ele>180</ele>
        <time>2022-10-16T10:42:31.000Z</time>
      </trkpt>
      <trkpt lat="45.10484" lon="5.27034">
        <ele>180.1</ele>
        <time>2022-10-16T10:42:32.000Z</time>
      </trkpt>
      <trkpt lat="45.10481" lon="5.27033">
        <ele>180.1</ele>
        <time>2022-10-16T10:42:33.000Z</time>
      </trkpt>
      <trkpt lat="45.10478" lon="5.27033">
        <ele>180.1</ele>
        <time>2022-10-16T10:42:34.000Z</time>
      </trkpt>
      <trkpt lat="45.10475" lon="5.27033">
        <ele>180.2</ele>
        <time>2022-10-16T10:42:35.000Z</time>
      </trkpt>
      <trkpt lat="45.10472" lon="5.27033">
        <ele>180.2</ele>
        <time>2022-10-16T10:42:36.000Z</time>
      </trkpt>
      <trkpt lat="45.10469" lon="5.27032">
        <ele>180.4</ele>
        <time>2022-10-16T10:42:37.000Z</time>
      </trkpt>
      <trkpt lat="45.10467" lon="5.27032">
        <ele>180.5</ele>
        <time>2022-10-16T10:42:38.000Z</time>
      </trkpt>
      <trkpt lat="45.10464" lon="5.27032">
        <ele>180.6</ele>
        <time>2022-10-16T10:42:39.000Z</time>
      </trkpt>
      <trkpt lat="45.10462" lon="5.27032">
        <ele>180.8</ele>
        <time>2022-10-16T10:42:40.000Z</time>
      </trkpt>
      <trkpt lat="45.10459" lon="5.27032">
        <ele>180.9</ele>
        <time>2022-10-16T10:42:41.000Z</time>
      </trkpt>
      <trkpt lat="45.10457" lon="5.27032">
        <ele>181</ele>
        <time>2022-10-16T10:42:42.000Z</time>
      </trkpt>
      <trkpt lat="45.10455" lon="5.27032">
        <ele>181.2</ele>
        <time>2022-10-16T10:42:43.000Z</time>
      </trkpt>
      <trkpt lat="45.10453" lon="5.27032">
        <ele>181.3</ele>
        <time>2022-10-16T10:42:44.000Z</time>
      </trkpt>
      <trkpt lat="45.10451" lon="5.27032">
        <ele>181.4</ele>
        <time>2022-10-16T10:42:45.000Z</time>
      </trkpt>
      <trkpt lat="45.10448" lon="5.27033">
        <ele>181.4</ele>
        <time>2022-10-16T10:42:46.000Z</time>
      </trkpt>
      <trkpt lat="45.10446" lon="5.27034">
        <ele>181.5</ele>
        <time>2022-10-16T10:42:47.000Z</time>
      </trkpt>
      <trkpt lat="45.10443" lon="5.27034">
        <ele>181.6</ele>
        <time>2022-10-16T10:42:48.000Z</time>
      </trkpt>
      <trkpt lat="45.10441" lon="5.27033">
        <ele>181.8</ele>
        <time>2022-10-16T10:42:49.000Z</time>
      </trkpt>
      <trkpt lat="45.10439" lon="5.27032">
        <ele>182</ele>
        <time>2022-10-16T10:42:50.000Z</time>
      </trkpt>
      <trkpt lat="45.10436" lon="5.27031">
        <ele>182.3</ele>
        <time>2022-10-16T10:42:51.000Z</time>
      </trkpt>
      <trkpt lat="45.10433" lon="5.2703">
        <ele>182.5</ele>
        <time>2022-10-16T10:42:52.000Z</time>
      </trkpt>
      <trkpt lat="45.10431" lon="5.2703">
        <ele>182.7</ele>
        <time>2022-10-16T10:42:53.000Z</time>
      </trkpt>
      <trkpt lat="45.10428" lon="5.2703">
        <ele>182.8</ele>
        <time>2022-10-16T10:42:54.000Z</time>
      </trkpt>
      <trkpt lat="45.10426" lon="5.2703">
        <ele>183</ele>
        <time>2022-10-16T10:42:55.000Z</time>
      </trkpt>
      <trkpt lat="45.10423" lon="5.2703">
        <ele>183.2</ele>
        <time>2022-10-16T10:42:56.000Z</time>
      </trkpt>
      <trkpt lat="45.10421" lon="5.2703">
        <ele>183.3</ele>
        <time>2022-10-16T10:42:57.000Z</time>
      </trkpt>
      <trkpt lat="45.10419" lon="5.27029">
        <ele>183.6</ele>
        <time>2022-10-16T10:42:58.000Z</time>
      </trkpt>
      <trkpt lat="45.10416" lon="5.27029">
        <ele>183.8</ele>
        <time>2022-10-16T10:42:59.000Z</time>
      </trkpt>
      <trkpt lat="45.10414" lon="5.27028">
        <ele>183.9</ele>
        <time>2022-10-16T10:43:00.000Z</time>
      </trkpt>
      <trkpt lat="45.10412" lon="5.27026">
        <ele>184.1</ele>
        <time>2022-10-16T10:43:01.000Z</time>
      </trkpt>
      <trkpt lat="45.10409" lon="5.27025">
        <ele>184.3</ele>
        <time>2022-10-16T10:43:02.000Z</time>
      </trkpt>
      <trkpt lat="45.10407" lon="5.27023">
        <ele>184.5</ele>
        <time>2022-10-16T10:43:03.000Z</time>
      </trkpt>
      <trkpt lat="45.10405" lon="5.27022">
        <ele>184.6</ele>
        <time>2022-10-16T10:43:04.000Z</time>
      </trkpt>
      <trkpt lat="45.10402" lon="5.27021">
        <ele>184.8</ele>
        <time>2022-10-16T10:43:05.000Z</time>
      </trkpt>
      <trkpt lat="45.104" lon="5.2702">
        <ele>185</ele>
        <time>2022-10-16T10:43:06.000Z</time>
      </trkpt>
      <trkpt lat="45.10397" lon="5.27018">
        <ele>185.2</ele>
        <time>2022-10-16T10:43:07.000Z</time>
      </trkpt>
      <trkpt lat="45.10395" lon="5.27017">
        <ele>185.5</ele>
        <time>2022-10-16T10:43:08.000Z</time>
      </trkpt>
      <trkpt lat="45.10393" lon="5.27015">
        <ele>185.8</ele>
        <time>2022-10-16T10:43:09.000Z</time>
      </trkpt>
      <trkpt lat="45.1039" lon="5.27013">
        <ele>186.2</ele>
        <time>2022-10-16T10:43:10.000Z</time>
      </trkpt>
      <trkpt lat="45.10388" lon="5.27011">
        <ele>186.5</ele>
        <time>2022-10-16T10:43:11.000Z</time>
      </trkpt>
      <trkpt lat="45.10386" lon="5.27009">
        <ele>186.5</ele>
        <time>2022-10-16T10:43:12.000Z</time>
      </trkpt>
      <trkpt lat="45.10383" lon="5.27007">
        <ele>186.6</ele>
        <time>2022-10-16T10:43:13.000Z</time>
      </trkpt>
      <trkpt lat="45.10381" lon="5.27005">
        <ele>186.7</ele>
        <time>2022-10-16T10:43:14.000Z</time>
      </trkpt>
      <trkpt lat="45.10378" lon="5.27003">
        <ele>186.7</ele>
        <time>2022-10-16T10:43:15.000Z</time>
      </trkpt>
      <trkpt lat="45.10376" lon="5.27001">
        <ele>186.8</ele>
        <time>2022-10-16T10:43:16.000Z</time>
      </trkpt>
      <trkpt lat="45.10373" lon="5.27">
        <ele>186.7</ele>
        <time>2022-10-16T10:43:17.000Z</time>
      </trkpt>
      <trkpt lat="45.1037" lon="5.26999">
        <ele>186.7</ele>
        <time>2022-10-16T10:43:18.000Z</time>
      </trkpt>
      <trkpt lat="45.10368" lon="5.26998">
        <ele>186.5</ele>
        <time>2022-10-16T10:43:19.000Z</time>
      </trkpt>
      <trkpt lat="45.10365" lon="5.26997">
        <ele>186.3</ele>
        <time>2022-10-16T10:43:20.000Z</time>
      </trkpt>
      <trkpt lat="45.10361" lon="5.26996">
        <ele>186.2</ele>
        <time>2022-10-16T10:43:21.000Z</time>
      </trkpt>
      <trkpt lat="45.10358" lon="5.26995">
        <ele>186.5</ele>
        <time>2022-10-16T10:43:22.000Z</time>
      </trkpt>
      <trkpt lat="45.10354" lon="5.26993">
        <ele>186.8</ele>
        <time>2022-10-16T10:43:23.000Z</time>
      </trkpt>
      <trkpt lat="45.10351" lon="5.26991">
        <ele>187.2</ele>
        <time>2022-10-16T10:43:24.000Z</time>
      </trkpt>
      <trkpt lat="45.10347" lon="5.26989">
        <ele>187.6</ele>
        <time>2022-10-16T10:43:25.000Z</time>
      </trkpt>
      <trkpt lat="45.10343" lon="5.26987">
        <ele>187.8</ele>
        <time>2022-10-16T10:43:26.000Z</time>
      </trkpt>
      <trkpt lat="45.10339" lon="5.26985">
        <ele>187.9</ele>
        <time>2022-10-16T10:43:27.000Z</time>
      </trkpt>
      <trkpt lat="45.10335" lon="5.26982">
        <ele>188</ele>
        <time>2022-10-16T10:43:28.000Z</time>
      </trkpt>
      <trkpt lat="45.10331" lon="5.2698">
        <ele>187.9</ele>
        <time>2022-10-16T10:43:29.000Z</time>
      </trkpt>
      <trkpt lat="45.10327" lon="5.26977">
        <ele>187.8</ele>
        <time>2022-10-16T10:43:30.000Z</time>
      </trkpt>
      <trkpt lat="45.10324" lon="5.26974">
        <ele>187.8</ele>
        <time>2022-10-16T10:43:31.000Z</time>
      </trkpt>
      <trkpt lat="45.1032" lon="5.26971">
        <ele>188</ele>
        <time>2022-10-16T10:43:32.000Z</time>
      </trkpt>
      <trkpt lat="45.10317" lon="5.26967">
        <ele>188.3</ele>
        <time>2022-10-16T10:43:33.000Z</time>
      </trkpt>
      <trkpt lat="45.10314" lon="5.26964">
        <ele>188.6</ele>
        <time>2022-10-16T10:43:34.000Z</time>
      </trkpt>
      <trkpt lat="45.10311" lon="5.2696">
        <ele>188.8</ele>
        <time>2022-10-16T10:43:35.000Z</time>
      </trkpt>
      <trkpt lat="45.10308" lon="5.26957">
        <ele>188.9</ele>
        <time>2022-10-16T10:43:36.000Z</time>
      </trkpt>
      <trkpt lat="45.10305" lon="5.26954">
        <ele>188.8</ele>
        <time>2022-10-16T10:43:37.000Z</time>
      </trkpt>
      <trkpt lat="45.10302" lon="5.26951">
        <ele>188.9</ele>
        <time>2022-10-16T10:43:38.000Z</time>
      </trkpt>
      <trkpt lat="45.10299" lon="5.26948">
        <ele>189</ele>
        <time>2022-10-16T10:43:39.000Z</time>
      </trkpt>
      <trkpt lat="45.10295" lon="5.26946">
        <ele>188.8</ele>
        <time>2022-10-16T10:43:40.000Z</time>
      </trkpt>
      <trkpt lat="45.10292" lon="5.26944">
        <ele>188.6</ele>
        <time>2022-10-16T10:43:41.000Z</time>
      </trkpt>
      <trkpt lat="45.10288" lon="5.26943">
        <ele>188.4</ele>
        <time>2022-10-16T10:43:42.000Z</time>
      </trkpt>
      <trkpt lat="45.10284" lon="5.26942">
        <ele>187.9</ele>
        <time>2022-10-16T10:43:43.000Z</time>
      </trkpt>
      <trkpt lat="45.10281" lon="5.26942">
        <ele>187.2</ele>
        <time>2022-10-16T10:43:44.000Z</time>
      </trkpt>
      <trkpt lat="45.10277" lon="5.26943">
        <ele>186.6</ele>
        <time>2022-10-16T10:43:45.000Z</time>
      </trkpt>
      <trkpt lat="45.10273" lon="5.26943">
        <ele>186.5</ele>
        <time>2022-10-16T10:43:46.000Z</time>
      </trkpt>
      <trkpt lat="45.10269" lon="5.26944">
        <ele>186.3</ele>
        <time>2022-10-16T10:43:47.000Z</time>
      </trkpt>
      <trkpt lat="45.10265" lon="5.26945">
        <ele>186.3</ele>
        <time>2022-10-16T10:43:48.000Z</time>
      </trkpt>
      <trkpt lat="45.10261" lon="5.26946">
        <ele>186.3</ele>
        <time>2022-10-16T10:43:49.000Z</time>
      </trkpt>
      <trkpt lat="45.10258" lon="5.26947">
        <ele>186.3</ele>
        <time>2022-10-16T10:43:50.000Z</time>
      </trkpt>
      <trkpt lat="45.10254" lon="5.26947">
        <ele>186.3</ele>
        <time>2022-10-16T10:43:51.000Z</time>
      </trkpt>
      <trkpt lat="45.1025" lon="5.26947">
        <ele>186.4</ele>
        <time>2022-10-16T10:43:52.000Z</time>
      </trkpt>
      <trkpt lat="45.10247" lon="5.26948">
        <ele>186.2</ele>
        <time>2022-10-16T10:43:53.000Z</time>
      </trkpt>
      <trkpt lat="45.10244" lon="5.26948">
        <ele>186.2</ele>
        <time>2022-10-16T10:43:54.000Z</time>
      </trkpt>
      <trkpt lat="45.1024" lon="5.26949">
        <ele>186.1</ele>
        <time>2022-10-16T10:43:55.000Z</time>
      </trkpt>
      <trkpt lat="45.10237" lon="5.26948">
        <ele>186.2</ele>
        <time>2022-10-16T10:43:56.000Z</time>
      </trkpt>
      <trkpt lat="45.10234" lon="5.26948">
        <ele>186.2</ele>
        <time>2022-10-16T10:43:57.000Z</time>
      </trkpt>
      <trkpt lat="45.1023" lon="5.26949">
        <ele>186.1</ele>
        <time>2022-10-16T10:43:58.000Z</time>
      </trkpt>
      <trkpt lat="45.10226" lon="5.26948">
        <ele>186.2</ele>
        <time>2022-10-16T10:43:59.000Z</time>
      </trkpt>
      <trkpt lat="45.10223" lon="5.26947">
        <ele>186.4</ele>
        <time>2022-10-16T10:44:00.000Z</time>
      </trkpt>
      <trkpt lat="45.10219" lon="5.26946">
        <ele>186.4</ele>
        <time>2022-10-16T10:44:01.000Z</time>
      </trkpt>
      <trkpt lat="45.10215" lon="5.26946">
        <ele>186.3</ele>
        <time>2022-10-16T10:44:02.000Z</time>
      </trkpt>
      <trkpt lat="45.10211" lon="5.26945">
        <ele>186.2</ele>
        <time>2022-10-16T10:44:03.000Z</time>
      </trkpt>
      <trkpt lat="45.10208" lon="5.26944">
        <ele>186.2</ele>
        <time>2022-10-16T10:44:04.000Z</time>
      </trkpt>
      <trkpt lat="45.10205" lon="5.26943">
        <ele>186.1</ele>
        <time>2022-10-16T10:44:05.000Z</time>
      </trkpt>
      <trkpt lat="45.10203" lon="5.26943">
        <ele>186</ele>
        <time>2022-10-16T10:44:06.000Z</time>
      </trkpt>
      <trkpt lat="45.10201" lon="5.26943">
        <ele>185.9</ele>
        <time>2022-10-16T10:44:07.000Z</time>
      </trkpt>
      <trkpt lat="45.10197" lon="5.26943">
        <ele>185.6</ele>
        <time>2022-10-16T10:44:09.000Z</time>
      </trkpt>
      <trkpt lat="45.10194" lon="5.26943">
        <ele>185.4</ele>
        <time>2022-10-16T10:44:10.000Z</time>
      </trkpt>
      <trkpt lat="45.10191" lon="5.26944">
        <ele>185.6</ele>
        <time>2022-10-16T10:44:11.000Z</time>
      </trkpt>
      <trkpt lat="45.10188" lon="5.26945">
        <ele>185.9</ele>
        <time>2022-10-16T10:44:12.000Z</time>
      </trkpt>
      <trkpt lat="45.10185" lon="5.26945">
        <ele>186.3</ele>
        <time>2022-10-16T10:44:13.000Z</time>
      </trkpt>
      <trkpt lat="45.10181" lon="5.26946">
        <ele>186.7</ele>
        <time>2022-10-16T10:44:14.000Z</time>
      </trkpt>
      <trkpt lat="45.10178" lon="5.26947">
        <ele>187</ele>
        <time>2022-10-16T10:44:15.000Z</time>
      </trkpt>
      <trkpt lat="45.10175" lon="5.26947">
        <ele>187.4</ele>
        <time>2022-10-16T10:44:16.000Z</time>
      </trkpt>
      <trkpt lat="45.10172" lon="5.26948">
        <ele>187.5</ele>
        <time>2022-10-16T10:44:17.000Z</time>
      </trkpt>
      <trkpt lat="45.10169" lon="5.2695">
        <ele>187.6</ele>
        <time>2022-10-16T10:44:18.000Z</time>
      </trkpt>
      <trkpt lat="45.10167" lon="5.26952">
        <ele>187.5</ele>
        <time>2022-10-16T10:44:19.000Z</time>
      </trkpt>
      <trkpt lat="45.10164" lon="5.26954">
        <ele>187.2</ele>
        <time>2022-10-16T10:44:20.000Z</time>
      </trkpt>
      <trkpt lat="45.10161" lon="5.26956">
        <ele>187.2</ele>
        <time>2022-10-16T10:44:21.000Z</time>
      </trkpt>
      <trkpt lat="45.10158" lon="5.26957">
        <ele>187.4</ele>
        <time>2022-10-16T10:44:22.000Z</time>
      </trkpt>
      <trkpt lat="45.10155" lon="5.26958">
        <ele>187.4</ele>
        <time>2022-10-16T10:44:23.000Z</time>
      </trkpt>
      <trkpt lat="45.10152" lon="5.2696">
        <ele>187.5</ele>
        <time>2022-10-16T10:44:24.000Z</time>
      </trkpt>
      <trkpt lat="45.10149" lon="5.26962">
        <ele>187.5</ele>
        <time>2022-10-16T10:44:25.000Z</time>
      </trkpt>
      <trkpt lat="45.10145" lon="5.26962">
        <ele>187.7</ele>
        <time>2022-10-16T10:44:26.000Z</time>
      </trkpt>
      <trkpt lat="45.10141" lon="5.26962">
        <ele>188.2</ele>
        <time>2022-10-16T10:44:27.000Z</time>
      </trkpt>
      <trkpt lat="45.10137" lon="5.26964">
        <ele>188.1</ele>
        <time>2022-10-16T10:44:28.000Z</time>
      </trkpt>
      <trkpt lat="45.10132" lon="5.26965">
        <ele>187.6</ele>
        <time>2022-10-16T10:44:29.000Z</time>
      </trkpt>
      <trkpt lat="45.10129" lon="5.26965">
        <ele>187.3</ele>
        <time>2022-10-16T10:44:30.000Z</time>
      </trkpt>
      <trkpt lat="45.10125" lon="5.26965">
        <ele>187.1</ele>
        <time>2022-10-16T10:44:31.000Z</time>
      </trkpt>
      <trkpt lat="45.10121" lon="5.26966">
        <ele>186.7</ele>
        <time>2022-10-16T10:44:32.000Z</time>
      </trkpt>
      <trkpt lat="45.10118" lon="5.26966">
        <ele>186.6</ele>
        <time>2022-10-16T10:44:33.000Z</time>
      </trkpt>
      <trkpt lat="45.10115" lon="5.26966">
        <ele>186.6</ele>
        <time>2022-10-16T10:44:34.000Z</time>
      </trkpt>
      <trkpt lat="45.10111" lon="5.26965">
        <ele>186.5</ele>
        <time>2022-10-16T10:44:35.000Z</time>
      </trkpt>
      <trkpt lat="45.10109" lon="5.26965">
        <ele>186.5</ele>
        <time>2022-10-16T10:44:36.000Z</time>
      </trkpt>
      <trkpt lat="45.10106" lon="5.26964">
        <ele>186.5</ele>
        <time>2022-10-16T10:44:37.000Z</time>
      </trkpt>
      <trkpt lat="45.10104" lon="5.26964">
        <ele>186.4</ele>
        <time>2022-10-16T10:44:38.000Z</time>
      </trkpt>
      <trkpt lat="45.10102" lon="5.26964">
        <ele>186.4</ele>
        <time>2022-10-16T10:44:39.000Z</time>
      </trkpt>
      <trkpt lat="45.101" lon="5.26963">
        <ele>186.4</ele>
        <time>2022-10-16T10:44:40.000Z</time>
      </trkpt>
      <trkpt lat="45.10097" lon="5.26962">
        <ele>186.5</ele>
        <time>2022-10-16T10:44:41.000Z</time>
      </trkpt>
      <trkpt lat="45.10094" lon="5.26961">
        <ele>186.6</ele>
        <time>2022-10-16T10:44:42.000Z</time>
      </trkpt>
      <trkpt lat="45.10091" lon="5.2696">
        <ele>186.7</ele>
        <time>2022-10-16T10:44:43.000Z</time>
      </trkpt>
      <trkpt lat="45.10088" lon="5.2696">
        <ele>186.6</ele>
        <time>2022-10-16T10:44:44.000Z</time>
      </trkpt>
      <trkpt lat="45.10085" lon="5.2696">
        <ele>186.3</ele>
        <time>2022-10-16T10:44:45.000Z</time>
      </trkpt>
      <trkpt lat="45.10082" lon="5.26961">
        <ele>186</ele>
        <time>2022-10-16T10:44:46.000Z</time>
      </trkpt>
      <trkpt lat="45.10079" lon="5.26961">
        <ele>185.8</ele>
        <time>2022-10-16T10:44:47.000Z</time>
      </trkpt>
      <trkpt lat="45.10076" lon="5.26962">
        <ele>185.6</ele>
        <time>2022-10-16T10:44:48.000Z</time>
      </trkpt>
      <trkpt lat="45.10072" lon="5.26963">
        <ele>185.4</ele>
        <time>2022-10-16T10:44:49.000Z</time>
      </trkpt>
      <trkpt lat="45.10068" lon="5.26965">
        <ele>185</ele>
        <time>2022-10-16T10:44:50.000Z</time>
      </trkpt>
      <trkpt lat="45.10064" lon="5.26967">
        <ele>184.6</ele>
        <time>2022-10-16T10:44:51.000Z</time>
      </trkpt>
      <trkpt lat="45.10061" lon="5.2697">
        <ele>184.2</ele>
        <time>2022-10-16T10:44:52.000Z</time>
      </trkpt>
      <trkpt lat="45.10057" lon="5.26974">
        <ele>183.9</ele>
        <time>2022-10-16T10:44:53.000Z</time>
      </trkpt>
      <trkpt lat="45.10054" lon="5.26977">
        <ele>184</ele>
        <time>2022-10-16T10:44:54.000Z</time>
      </trkpt>
      <trkpt lat="45.10051" lon="5.2698">
        <ele>184.2</ele>
        <time>2022-10-16T10:44:55.000Z</time>
      </trkpt>
      <trkpt lat="45.10048" lon="5.26983">
        <ele>184.4</ele>
        <time>2022-10-16T10:44:56.000Z</time>
      </trkpt>
      <trkpt lat="45.10045" lon="5.26985">
        <ele>184.4</ele>
        <time>2022-10-16T10:44:57.000Z</time>
      </trkpt>
      <trkpt lat="45.10042" lon="5.26988">
        <ele>184.4</ele>
        <time>2022-10-16T10:44:58.000Z</time>
      </trkpt>
      <trkpt lat="45.10039" lon="5.26991">
        <ele>184.4</ele>
        <time>2022-10-16T10:44:59.000Z</time>
      </trkpt>
      <trkpt lat="45.10036" lon="5.26994">
        <ele>184.4</ele>
        <time>2022-10-16T10:45:00.000Z</time>
      </trkpt>
      <trkpt lat="45.10032" lon="5.26995">
        <ele>184.5</ele>
        <time>2022-10-16T10:45:01.000Z</time>
      </trkpt>
      <trkpt lat="45.10028" lon="5.26997">
        <ele>184.6</ele>
        <time>2022-10-16T10:45:02.000Z</time>
      </trkpt>
      <trkpt lat="45.10024" lon="5.26998">
        <ele>184.6</ele>
        <time>2022-10-16T10:45:03.000Z</time>
      </trkpt>
      <trkpt lat="45.10021" lon="5.26999">
        <ele>184.6</ele>
        <time>2022-10-16T10:45:04.000Z</time>
      </trkpt>
      <trkpt lat="45.10017" lon="5.27">
        <ele>184.7</ele>
        <time>2022-10-16T10:45:05.000Z</time>
      </trkpt>
      <trkpt lat="45.10014" lon="5.27001">
        <ele>184.9</ele>
        <time>2022-10-16T10:45:06.000Z</time>
      </trkpt>
      <trkpt lat="45.10011" lon="5.27002">
        <ele>185</ele>
        <time>2022-10-16T10:45:07.000Z</time>
      </trkpt>
      <trkpt lat="45.10007" lon="5.27002">
        <ele>185.2</ele>
        <time>2022-10-16T10:45:08.000Z</time>
      </trkpt>
      <trkpt lat="45.10003" lon="5.27003">
        <ele>185.4</ele>
        <time>2022-10-16T10:45:09.000Z</time>
      </trkpt>
      <trkpt lat="45.09999" lon="5.27003">
        <ele>185.5</ele>
        <time>2022-10-16T10:45:10.000Z</time>
      </trkpt>
      <trkpt lat="45.09995" lon="5.27004">
        <ele>185.3</ele>
        <time>2022-10-16T10:45:11.000Z</time>
      </trkpt>
      <trkpt lat="45.09992" lon="5.27004">
        <ele>185.2</ele>
        <time>2022-10-16T10:45:12.000Z</time>
      </trkpt>
      <trkpt lat="45.09988" lon="5.27003">
        <ele>185.2</ele>
        <time>2022-10-16T10:45:13.000Z</time>
      </trkpt>
      <trkpt lat="45.09984" lon="5.27003">
        <ele>185.2</ele>
        <time>2022-10-16T10:45:14.000Z</time>
      </trkpt>
      <trkpt lat="45.0998" lon="5.27003">
        <ele>185</ele>
        <time>2022-10-16T10:45:15.000Z</time>
      </trkpt>
      <trkpt lat="45.09976" lon="5.27002">
        <ele>185</ele>
        <time>2022-10-16T10:45:16.000Z</time>
      </trkpt>
      <trkpt lat="45.09972" lon="5.27001">
        <ele>184.9</ele>
        <time>2022-10-16T10:45:17.000Z</time>
      </trkpt>
      <trkpt lat="45.09968" lon="5.27001">
        <ele>184.6</ele>
        <time>2022-10-16T10:45:18.000Z</time>
      </trkpt>
      <trkpt lat="45.09964" lon="5.27001">
        <ele>184.3</ele>
        <time>2022-10-16T10:45:19.000Z</time>
      </trkpt>
      <trkpt lat="45.09959" lon="5.27001">
        <ele>184</ele>
        <time>2022-10-16T10:45:20.000Z</time>
      </trkpt>
      <trkpt lat="45.09954" lon="5.27001">
        <ele>183.7</ele>
        <time>2022-10-16T10:45:21.000Z</time>
      </trkpt>
      <trkpt lat="45.09949" lon="5.27">
        <ele>183.3</ele>
        <time>2022-10-16T10:45:22.000Z</time>
      </trkpt>
      <trkpt lat="45.09944" lon="5.26999">
        <ele>183</ele>
        <time>2022-10-16T10:45:23.000Z</time>
      </trkpt>
      <trkpt lat="45.09939" lon="5.26999">
        <ele>183.1</ele>
        <time>2022-10-16T10:45:24.000Z</time>
      </trkpt>
      <trkpt lat="45.09934" lon="5.26998">
        <ele>183.1</ele>
        <time>2022-10-16T10:45:25.000Z</time>
      </trkpt>
      <trkpt lat="45.09929" lon="5.26996">
        <ele>183.1</ele>
        <time>2022-10-16T10:45:26.000Z</time>
      </trkpt>
      <trkpt lat="45.09924" lon="5.26995">
        <ele>183.2</ele>
        <time>2022-10-16T10:45:27.000Z</time>
      </trkpt>
      <trkpt lat="45.09919" lon="5.26995">
        <ele>183.2</ele>
        <time>2022-10-16T10:45:28.000Z</time>
      </trkpt>
      <trkpt lat="45.09914" lon="5.26994">
        <ele>183.3</ele>
        <time>2022-10-16T10:45:29.000Z</time>
      </trkpt>
      <trkpt lat="45.09909" lon="5.26994">
        <ele>183.3</ele>
        <time>2022-10-16T10:45:30.000Z</time>
      </trkpt>
      <trkpt lat="45.09905" lon="5.26994">
        <ele>183.4</ele>
        <time>2022-10-16T10:45:31.000Z</time>
      </trkpt>
      <trkpt lat="45.099" lon="5.26993">
        <ele>183.5</ele>
        <time>2022-10-16T10:45:32.000Z</time>
      </trkpt>
      <trkpt lat="45.09896" lon="5.26993">
        <ele>183.6</ele>
        <time>2022-10-16T10:45:33.000Z</time>
      </trkpt>
      <trkpt lat="45.09892" lon="5.26992">
        <ele>183.8</ele>
        <time>2022-10-16T10:45:34.000Z</time>
      </trkpt>
      <trkpt lat="45.09888" lon="5.26991">
        <ele>184</ele>
        <time>2022-10-16T10:45:35.000Z</time>
      </trkpt>
      <trkpt lat="45.09885" lon="5.2699">
        <ele>184.2</ele>
        <time>2022-10-16T10:45:36.000Z</time>
      </trkpt>
      <trkpt lat="45.09881" lon="5.26989">
        <ele>184.3</ele>
        <time>2022-10-16T10:45:37.000Z</time>
      </trkpt>
      <trkpt lat="45.09877" lon="5.26988">
        <ele>184.5</ele>
        <time>2022-10-16T10:45:38.000Z</time>
      </trkpt>
      <trkpt lat="45.09874" lon="5.26987">
        <ele>184.7</ele>
        <time>2022-10-16T10:45:39.000Z</time>
      </trkpt>
      <trkpt lat="45.09871" lon="5.26987">
        <ele>184.8</ele>
        <time>2022-10-16T10:45:40.000Z</time>
      </trkpt>
      <trkpt lat="45.09868" lon="5.26986">
        <ele>184.9</ele>
        <time>2022-10-16T10:45:41.000Z</time>
      </trkpt>
      <trkpt lat="45.09865" lon="5.26985">
        <ele>185</ele>
        <time>2022-10-16T10:45:42.000Z</time>
      </trkpt>
      <trkpt lat="45.09862" lon="5.26984">
        <ele>185.1</ele>
        <time>2022-10-16T10:45:43.000Z</time>
      </trkpt>
      <trkpt lat="45.09859" lon="5.26983">
        <ele>185.2</ele>
        <time>2022-10-16T10:45:44.000Z</time>
      </trkpt>
      <trkpt lat="45.09856" lon="5.26981">
        <ele>185.3</ele>
        <time>2022-10-16T10:45:45.000Z</time>
      </trkpt>
      <trkpt lat="45.09854" lon="5.2698">
        <ele>185.4</ele>
        <time>2022-10-16T10:45:46.000Z</time>
      </trkpt>
      <trkpt lat="45.09851" lon="5.26979">
        <ele>185.6</ele>
        <time>2022-10-16T10:45:47.000Z</time>
      </trkpt>
      <trkpt lat="45.09849" lon="5.26977">
        <ele>185.8</ele>
        <time>2022-10-16T10:45:48.000Z</time>
      </trkpt>
      <trkpt lat="45.09847" lon="5.26976">
        <ele>186</ele>
        <time>2022-10-16T10:45:49.000Z</time>
      </trkpt>
      <trkpt lat="45.09844" lon="5.26975">
        <ele>186.3</ele>
        <time>2022-10-16T10:45:50.000Z</time>
      </trkpt>
      <trkpt lat="45.09841" lon="5.26973">
        <ele>186.6</ele>
        <time>2022-10-16T10:45:51.000Z</time>
      </trkpt>
      <trkpt lat="45.09839" lon="5.26972">
        <ele>186.9</ele>
        <time>2022-10-16T10:45:52.000Z</time>
      </trkpt>
      <trkpt lat="45.09837" lon="5.26971">
        <ele>187.1</ele>
        <time>2022-10-16T10:45:53.000Z</time>
      </trkpt>
      <trkpt lat="45.09835" lon="5.26969">
        <ele>187.4</ele>
        <time>2022-10-16T10:45:54.000Z</time>
      </trkpt>
      <trkpt lat="45.09833" lon="5.26968">
        <ele>187.5</ele>
        <time>2022-10-16T10:45:55.000Z</time>
      </trkpt>
      <trkpt lat="45.09831" lon="5.26967">
        <ele>187.5</ele>
        <time>2022-10-16T10:45:56.000Z</time>
      </trkpt>
      <trkpt lat="45.09829" lon="5.26965">
        <ele>187.6</ele>
        <time>2022-10-16T10:45:57.000Z</time>
      </trkpt>
      <trkpt lat="45.09827" lon="5.26964">
        <ele>187.6</ele>
        <time>2022-10-16T10:45:58.000Z</time>
      </trkpt>
      <trkpt lat="45.09826" lon="5.26962">
        <ele>187.7</ele>
        <time>2022-10-16T10:45:59.000Z</time>
      </trkpt>
      <trkpt lat="45.09824" lon="5.26961">
        <ele>187.8</ele>
        <time>2022-10-16T10:46:00.000Z</time>
      </trkpt>
      <trkpt lat="45.09822" lon="5.26959">
        <ele>187.9</ele>
        <time>2022-10-16T10:46:01.000Z</time>
      </trkpt>
      <trkpt lat="45.09819" lon="5.26957">
        <ele>188</ele>
        <time>2022-10-16T10:46:02.000Z</time>
      </trkpt>
      <trkpt lat="45.09816" lon="5.26954">
        <ele>188.1</ele>
        <time>2022-10-16T10:46:03.000Z</time>
      </trkpt>
      <trkpt lat="45.09813" lon="5.26952">
        <ele>188.3</ele>
        <time>2022-10-16T10:46:04.000Z</time>
      </trkpt>
      <trkpt lat="45.09811" lon="5.2695">
        <ele>188.4</ele>
        <time>2022-10-16T10:46:05.000Z</time>
      </trkpt>
      <trkpt lat="45.09808" lon="5.26949">
        <ele>188.4</ele>
        <time>2022-10-16T10:46:06.000Z</time>
      </trkpt>
      <trkpt lat="45.09806" lon="5.26948">
        <ele>188.4</ele>
        <time>2022-10-16T10:46:07.000Z</time>
      </trkpt>
      <trkpt lat="45.09802" lon="5.26947">
        <ele>188.7</ele>
        <time>2022-10-16T10:46:08.000Z</time>
      </trkpt>
      <trkpt lat="45.09799" lon="5.26946">
        <ele>189</ele>
        <time>2022-10-16T10:46:09.000Z</time>
      </trkpt>
      <trkpt lat="45.09796" lon="5.26945">
        <ele>189.2</ele>
        <time>2022-10-16T10:46:10.000Z</time>
      </trkpt>
      <trkpt lat="45.09793" lon="5.26945">
        <ele>189.3</ele>
        <time>2022-10-16T10:46:11.000Z</time>
      </trkpt>
      <trkpt lat="45.0979" lon="5.26946">
        <ele>189.4</ele>
        <time>2022-10-16T10:46:12.000Z</time>
      </trkpt>
      <trkpt lat="45.09787" lon="5.26946">
        <ele>189.4</ele>
        <time>2022-10-16T10:46:13.000Z</time>
      </trkpt>
      <trkpt lat="45.09784" lon="5.26947">
        <ele>189.4</ele>
        <time>2022-10-16T10:46:14.000Z</time>
      </trkpt>
      <trkpt lat="45.09782" lon="5.26947">
        <ele>189.4</ele>
        <time>2022-10-16T10:46:15.000Z</time>
      </trkpt>
      <trkpt lat="45.0978" lon="5.26948">
        <ele>189.4</ele>
        <time>2022-10-16T10:46:16.000Z</time>
      </trkpt>
      <trkpt lat="45.09777" lon="5.26948">
        <ele>189.4</ele>
        <time>2022-10-16T10:46:17.000Z</time>
      </trkpt>
      <trkpt lat="45.09775" lon="5.26948">
        <ele>189.6</ele>
        <time>2022-10-16T10:46:18.000Z</time>
      </trkpt>
      <trkpt lat="45.09773" lon="5.26947">
        <ele>189.8</ele>
        <time>2022-10-16T10:46:19.000Z</time>
      </trkpt>
      <trkpt lat="45.0977" lon="5.26947">
        <ele>189.9</ele>
        <time>2022-10-16T10:46:20.000Z</time>
      </trkpt>
      <trkpt lat="45.09768" lon="5.26946">
        <ele>190.1</ele>
        <time>2022-10-16T10:46:21.000Z</time>
      </trkpt>
      <trkpt lat="45.09765" lon="5.26946">
        <ele>190.2</ele>
        <time>2022-10-16T10:46:22.000Z</time>
      </trkpt>
      <trkpt lat="45.09763" lon="5.26946">
        <ele>190.3</ele>
        <time>2022-10-16T10:46:23.000Z</time>
      </trkpt>
      <trkpt lat="45.0976" lon="5.26946">
        <ele>190.5</ele>
        <time>2022-10-16T10:46:24.000Z</time>
      </trkpt>
      <trkpt lat="45.09758" lon="5.26945">
        <ele>190.7</ele>
        <time>2022-10-16T10:46:25.000Z</time>
      </trkpt>
      <trkpt lat="45.09756" lon="5.26944">
        <ele>190.8</ele>
        <time>2022-10-16T10:46:26.000Z</time>
      </trkpt>
      <trkpt lat="45.09754" lon="5.26942">
        <ele>190.9</ele>
        <time>2022-10-16T10:46:27.000Z</time>
      </trkpt>
      <trkpt lat="45.09752" lon="5.2694">
        <ele>191</ele>
        <time>2022-10-16T10:46:28.000Z</time>
      </trkpt>
      <trkpt lat="45.09749" lon="5.26939">
        <ele>191</ele>
        <time>2022-10-16T10:46:29.000Z</time>
      </trkpt>
      <trkpt lat="45.09746" lon="5.26937">
        <ele>191</ele>
        <time>2022-10-16T10:46:30.000Z</time>
      </trkpt>
      <trkpt lat="45.09742" lon="5.26937">
        <ele>191</ele>
        <time>2022-10-16T10:46:31.000Z</time>
      </trkpt>
      <trkpt lat="45.09739" lon="5.26936">
        <ele>191</ele>
        <time>2022-10-16T10:46:32.000Z</time>
      </trkpt>
      <trkpt lat="45.09735" lon="5.26934">
        <ele>191</ele>
        <time>2022-10-16T10:46:33.000Z</time>
      </trkpt>
      <trkpt lat="45.09732" lon="5.26933">
        <ele>191</ele>
        <time>2022-10-16T10:46:34.000Z</time>
      </trkpt>
      <trkpt lat="45.09729" lon="5.26931">
        <ele>191</ele>
        <time>2022-10-16T10:46:35.000Z</time>
      </trkpt>
      <trkpt lat="45.09726" lon="5.26931">
        <ele>191</ele>
        <time>2022-10-16T10:46:36.000Z</time>
      </trkpt>
      <trkpt lat="45.09723" lon="5.2693">
        <ele>191</ele>
        <time>2022-10-16T10:46:37.000Z</time>
      </trkpt>
      <trkpt lat="45.09721" lon="5.2693">
        <ele>191</ele>
        <time>2022-10-16T10:46:38.000Z</time>
      </trkpt>
      <trkpt lat="45.09718" lon="5.26929">
        <ele>191</ele>
        <time>2022-10-16T10:46:39.000Z</time>
      </trkpt>
      <trkpt lat="45.09715" lon="5.26927">
        <ele>191</ele>
        <time>2022-10-16T10:46:40.000Z</time>
      </trkpt>
      <trkpt lat="45.09712" lon="5.26926">
        <ele>191</ele>
        <time>2022-10-16T10:46:41.000Z</time>
      </trkpt>
      <trkpt lat="45.09709" lon="5.26925">
        <ele>191</ele>
        <time>2022-10-16T10:46:42.000Z</time>
      </trkpt>
      <trkpt lat="45.09706" lon="5.26924">
        <ele>191</ele>
        <time>2022-10-16T10:46:43.000Z</time>
      </trkpt>
      <trkpt lat="45.09703" lon="5.26923">
        <ele>191</ele>
        <time>2022-10-16T10:46:44.000Z</time>
      </trkpt>
      <trkpt lat="45.097" lon="5.26923">
        <ele>191</ele>
        <time>2022-10-16T10:46:45.000Z</time>
      </trkpt>
      <trkpt lat="45.09698" lon="5.26922">
        <ele>191</ele>
        <time>2022-10-16T10:46:46.000Z</time>
      </trkpt>
      <trkpt lat="45.09695" lon="5.26921">
        <ele>191</ele>
        <time>2022-10-16T10:46:47.000Z</time>
      </trkpt>
      <trkpt lat="45.09692" lon="5.2692">
        <ele>191</ele>
        <time>2022-10-16T10:46:48.000Z</time>
      </trkpt>
      <trkpt lat="45.09689" lon="5.26918">
        <ele>191</ele>
        <time>2022-10-16T10:46:49.000Z</time>
      </trkpt>
      <trkpt lat="45.09686" lon="5.26916">
        <ele>191</ele>
        <time>2022-10-16T10:46:50.000Z</time>
      </trkpt>
      <trkpt lat="45.09682" lon="5.26915">
        <ele>191</ele>
        <time>2022-10-16T10:46:51.000Z</time>
      </trkpt>
      <trkpt lat="45.09679" lon="5.26914">
        <ele>191</ele>
        <time>2022-10-16T10:46:52.000Z</time>
      </trkpt>
      <trkpt lat="45.09675" lon="5.26913">
        <ele>191</ele>
        <time>2022-10-16T10:46:53.000Z</time>
      </trkpt>
      <trkpt lat="45.09672" lon="5.26913">
        <ele>191</ele>
        <time>2022-10-16T10:46:54.000Z</time>
      </trkpt>
      <trkpt lat="45.09668" lon="5.26912">
        <ele>191</ele>
        <time>2022-10-16T10:46:55.000Z</time>
      </trkpt>
      <trkpt lat="45.09665" lon="5.26911">
        <ele>191</ele>
        <time>2022-10-16T10:46:56.000Z</time>
      </trkpt>
      <trkpt lat="45.09662" lon="5.2691">
        <ele>191</ele>
        <time>2022-10-16T10:46:57.000Z</time>
      </trkpt>
      <trkpt lat="45.09659" lon="5.26909">
        <ele>191</ele>
        <time>2022-10-16T10:46:58.000Z</time>
      </trkpt>
      <trkpt lat="45.09657" lon="5.26909">
        <ele>191</ele>
        <time>2022-10-16T10:46:59.000Z</time>
      </trkpt>
      <trkpt lat="45.09654" lon="5.2691">
        <ele>191</ele>
        <time>2022-10-16T10:47:00.000Z</time>
      </trkpt>
      <trkpt lat="45.09651" lon="5.2691">
        <ele>191</ele>
        <time>2022-10-16T10:47:01.000Z</time>
      </trkpt>
      <trkpt lat="45.09648" lon="5.2691">
        <ele>191</ele>
        <time>2022-10-16T10:47:02.000Z</time>
      </trkpt>
      <trkpt lat="45.09642" lon="5.26916">
        <ele>191</ele>
        <time>2022-10-16T10:47:03.000Z</time>
      </trkpt>
      <trkpt lat="45.0964" lon="5.26914">
        <ele>191</ele>
        <time>2022-10-16T10:47:04.000Z</time>
      </trkpt>
      <trkpt lat="45.09639" lon="5.26912">
        <ele>191</ele>
        <time>2022-10-16T10:47:05.000Z</time>
      </trkpt>
      <trkpt lat="45.09637" lon="5.2691">
        <ele>191</ele>
        <time>2022-10-16T10:47:06.000Z</time>
      </trkpt>
      <trkpt lat="45.09635" lon="5.26908">
        <ele>190.9</ele>
        <time>2022-10-16T10:47:07.000Z</time>
      </trkpt>
      <trkpt lat="45.09632" lon="5.26906">
        <ele>190.8</ele>
        <time>2022-10-16T10:47:08.000Z</time>
      </trkpt>
      <trkpt lat="45.0963" lon="5.26904">
        <ele>190.8</ele>
        <time>2022-10-16T10:47:09.000Z</time>
      </trkpt>
      <trkpt lat="45.09628" lon="5.26903">
        <ele>190.8</ele>
        <time>2022-10-16T10:47:10.000Z</time>
      </trkpt>
      <trkpt lat="45.09624" lon="5.26901">
        <ele>190.8</ele>
        <time>2022-10-16T10:47:11.000Z</time>
      </trkpt>
      <trkpt lat="45.09621" lon="5.269">
        <ele>190.7</ele>
        <time>2022-10-16T10:47:12.000Z</time>
      </trkpt>
      <trkpt lat="45.09619" lon="5.26898">
        <ele>190.8</ele>
        <time>2022-10-16T10:47:13.000Z</time>
      </trkpt>
      <trkpt lat="45.09616" lon="5.26898">
        <ele>190.7</ele>
        <time>2022-10-16T10:47:14.000Z</time>
      </trkpt>
      <trkpt lat="45.09613" lon="5.26897">
        <ele>190.7</ele>
        <time>2022-10-16T10:47:15.000Z</time>
      </trkpt>
      <trkpt lat="45.0961" lon="5.26897">
        <ele>190.7</ele>
        <time>2022-10-16T10:47:16.000Z</time>
      </trkpt>
      <trkpt lat="45.09607" lon="5.26896">
        <ele>190.7</ele>
        <time>2022-10-16T10:47:17.000Z</time>
      </trkpt>
      <trkpt lat="45.09604" lon="5.26895">
        <ele>190.7</ele>
        <time>2022-10-16T10:47:18.000Z</time>
      </trkpt>
      <trkpt lat="45.096" lon="5.26895">
        <ele>190.7</ele>
        <time>2022-10-16T10:47:19.000Z</time>
      </trkpt>
      <trkpt lat="45.09597" lon="5.26895">
        <ele>190.7</ele>
        <time>2022-10-16T10:47:20.000Z</time>
      </trkpt>
      <trkpt lat="45.09594" lon="5.26894">
        <ele>190.7</ele>
        <time>2022-10-16T10:47:21.000Z</time>
      </trkpt>
      <trkpt lat="45.09591" lon="5.26894">
        <ele>190.7</ele>
        <time>2022-10-16T10:47:22.000Z</time>
      </trkpt>
      <trkpt lat="45.09589" lon="5.26893">
        <ele>190.7</ele>
        <time>2022-10-16T10:47:23.000Z</time>
      </trkpt>
      <trkpt lat="45.09586" lon="5.26891">
        <ele>190.8</ele>
        <time>2022-10-16T10:47:24.000Z</time>
      </trkpt>
      <trkpt lat="45.09583" lon="5.2689">
        <ele>190.9</ele>
        <time>2022-10-16T10:47:25.000Z</time>
      </trkpt>
      <trkpt lat="45.0958" lon="5.26888">
        <ele>190.9</ele>
        <time>2022-10-16T10:47:26.000Z</time>
      </trkpt>
      <trkpt lat="45.09578" lon="5.26886">
        <ele>190.9</ele>
        <time>2022-10-16T10:47:27.000Z</time>
      </trkpt>
      <trkpt lat="45.09575" lon="5.26885">
        <ele>190.9</ele>
        <time>2022-10-16T10:47:28.000Z</time>
      </trkpt>
      <trkpt lat="45.09571" lon="5.26885">
        <ele>190.9</ele>
        <time>2022-10-16T10:47:29.000Z</time>
      </trkpt>
      <trkpt lat="45.09568" lon="5.26884">
        <ele>190.9</ele>
        <time>2022-10-16T10:47:30.000Z</time>
      </trkpt>
      <trkpt lat="45.09565" lon="5.26883">
        <ele>191</ele>
        <time>2022-10-16T10:47:31.000Z</time>
      </trkpt>
      <trkpt lat="45.09562" lon="5.26881">
        <ele>191.2</ele>
        <time>2022-10-16T10:47:32.000Z</time>
      </trkpt>
      <trkpt lat="45.0956" lon="5.26881">
        <ele>191.2</ele>
        <time>2022-10-16T10:47:33.000Z</time>
      </trkpt>
      <trkpt lat="45.09558" lon="5.2688">
        <ele>191.3</ele>
        <time>2022-10-16T10:47:35.000Z</time>
      </trkpt>
      <trkpt lat="45.09556" lon="5.26879">
        <ele>191.5</ele>
        <time>2022-10-16T10:47:36.000Z</time>
      </trkpt>
      <trkpt lat="45.09552" lon="5.26876">
        <ele>191.8</ele>
        <time>2022-10-16T10:47:37.000Z</time>
      </trkpt>
      <trkpt lat="45.09549" lon="5.26875">
        <ele>192</ele>
        <time>2022-10-16T10:47:38.000Z</time>
      </trkpt>
      <trkpt lat="45.09545" lon="5.26875">
        <ele>192</ele>
        <time>2022-10-16T10:47:39.000Z</time>
      </trkpt>
      <trkpt lat="45.09542" lon="5.26875">
        <ele>192.1</ele>
        <time>2022-10-16T10:47:40.000Z</time>
      </trkpt>
      <trkpt lat="45.09539" lon="5.26875">
        <ele>192.1</ele>
        <time>2022-10-16T10:47:41.000Z</time>
      </trkpt>
      <trkpt lat="45.09536" lon="5.26874">
        <ele>192.1</ele>
        <time>2022-10-16T10:47:42.000Z</time>
      </trkpt>
      <trkpt lat="45.09534" lon="5.26873">
        <ele>192.3</ele>
        <time>2022-10-16T10:47:43.000Z</time>
      </trkpt>
      <trkpt lat="45.09531" lon="5.26872">
        <ele>192.4</ele>
        <time>2022-10-16T10:47:44.000Z</time>
      </trkpt>
      <trkpt lat="45.09528" lon="5.26871">
        <ele>192.7</ele>
        <time>2022-10-16T10:47:45.000Z</time>
      </trkpt>
      <trkpt lat="45.09525" lon="5.26869">
        <ele>193</ele>
        <time>2022-10-16T10:47:46.000Z</time>
      </trkpt>
      <trkpt lat="45.09522" lon="5.26869">
        <ele>193.2</ele>
        <time>2022-10-16T10:47:47.000Z</time>
      </trkpt>
      <trkpt lat="45.0952" lon="5.26868">
        <ele>193.5</ele>
        <time>2022-10-16T10:47:48.000Z</time>
      </trkpt>
      <trkpt lat="45.09517" lon="5.26868">
        <ele>193.8</ele>
        <time>2022-10-16T10:47:49.000Z</time>
      </trkpt>
      <trkpt lat="45.09514" lon="5.26867">
        <ele>194</ele>
        <time>2022-10-16T10:47:50.000Z</time>
      </trkpt>
      <trkpt lat="45.09512" lon="5.26867">
        <ele>194.2</ele>
        <time>2022-10-16T10:47:51.000Z</time>
      </trkpt>
      <trkpt lat="45.09509" lon="5.26867">
        <ele>194.3</ele>
        <time>2022-10-16T10:47:52.000Z</time>
      </trkpt>
      <trkpt lat="45.09507" lon="5.26867">
        <ele>194.5</ele>
        <time>2022-10-16T10:47:53.000Z</time>
      </trkpt>
      <trkpt lat="45.09504" lon="5.26865">
        <ele>195</ele>
        <time>2022-10-16T10:47:54.000Z</time>
      </trkpt>
      <trkpt lat="45.09501" lon="5.26865">
        <ele>195.2</ele>
        <time>2022-10-16T10:47:55.000Z</time>
      </trkpt>
      <trkpt lat="45.09499" lon="5.26864">
        <ele>195.5</ele>
        <time>2022-10-16T10:47:56.000Z</time>
      </trkpt>
      <trkpt lat="45.09497" lon="5.26863">
        <ele>195.6</ele>
        <time>2022-10-16T10:47:57.000Z</time>
      </trkpt>
      <trkpt lat="45.09495" lon="5.26862">
        <ele>195.8</ele>
        <time>2022-10-16T10:47:58.000Z</time>
      </trkpt>
      <trkpt lat="45.09493" lon="5.26861">
        <ele>196</ele>
        <time>2022-10-16T10:47:59.000Z</time>
      </trkpt>
      <trkpt lat="45.09492" lon="5.2686">
        <ele>196.2</ele>
        <time>2022-10-16T10:48:00.000Z</time>
      </trkpt>
      <trkpt lat="45.0949" lon="5.26859">
        <ele>196.3</ele>
        <time>2022-10-16T10:48:01.000Z</time>
      </trkpt>
      <trkpt lat="45.09487" lon="5.26859">
        <ele>196.4</ele>
        <time>2022-10-16T10:48:02.000Z</time>
      </trkpt>
      <trkpt lat="45.09485" lon="5.26858">
        <ele>196.4</ele>
        <time>2022-10-16T10:48:03.000Z</time>
      </trkpt>
      <trkpt lat="45.09483" lon="5.26857">
        <ele>196.6</ele>
        <time>2022-10-16T10:48:04.000Z</time>
      </trkpt>
      <trkpt lat="45.0948" lon="5.26857">
        <ele>196.6</ele>
        <time>2022-10-16T10:48:05.000Z</time>
      </trkpt>
      <trkpt lat="45.09478" lon="5.26857">
        <ele>196.6</ele>
        <time>2022-10-16T10:48:06.000Z</time>
      </trkpt>
      <trkpt lat="45.09476" lon="5.26857">
        <ele>196.6</ele>
        <time>2022-10-16T10:48:07.000Z</time>
      </trkpt>
      <trkpt lat="45.09473" lon="5.26857">
        <ele>196.6</ele>
        <time>2022-10-16T10:48:08.000Z</time>
      </trkpt>
      <trkpt lat="45.0947" lon="5.26856">
        <ele>196.8</ele>
        <time>2022-10-16T10:48:09.000Z</time>
      </trkpt>
      <trkpt lat="45.09467" lon="5.26855">
        <ele>196.9</ele>
        <time>2022-10-16T10:48:10.000Z</time>
      </trkpt>
      <trkpt lat="45.09464" lon="5.26855">
        <ele>197.1</ele>
        <time>2022-10-16T10:48:11.000Z</time>
      </trkpt>
      <trkpt lat="45.09462" lon="5.26854">
        <ele>197.2</ele>
        <time>2022-10-16T10:48:12.000Z</time>
      </trkpt>
      <trkpt lat="45.09459" lon="5.26853">
        <ele>197.3</ele>
        <time>2022-10-16T10:48:13.000Z</time>
      </trkpt>
      <trkpt lat="45.09457" lon="5.26853">
        <ele>197.4</ele>
        <time>2022-10-16T10:48:14.000Z</time>
      </trkpt>
      <trkpt lat="45.09455" lon="5.26853">
        <ele>197.4</ele>
        <time>2022-10-16T10:48:15.000Z</time>
      </trkpt>
      <trkpt lat="45.09453" lon="5.26853">
        <ele>197.4</ele>
        <time>2022-10-16T10:48:16.000Z</time>
      </trkpt>
      <trkpt lat="45.0945" lon="5.26853">
        <ele>197.5</ele>
        <time>2022-10-16T10:48:17.000Z</time>
      </trkpt>
      <trkpt lat="45.09448" lon="5.26853">
        <ele>197.5</ele>
        <time>2022-10-16T10:48:18.000Z</time>
      </trkpt>
      <trkpt lat="45.09445" lon="5.26853">
        <ele>197.6</ele>
        <time>2022-10-16T10:48:19.000Z</time>
      </trkpt>
      <trkpt lat="45.09442" lon="5.26853">
        <ele>197.6</ele>
        <time>2022-10-16T10:48:20.000Z</time>
      </trkpt>
      <trkpt lat="45.09439" lon="5.26854">
        <ele>197.5</ele>
        <time>2022-10-16T10:48:21.000Z</time>
      </trkpt>
      <trkpt lat="45.09436" lon="5.26853">
        <ele>197.6</ele>
        <time>2022-10-16T10:48:22.000Z</time>
      </trkpt>
      <trkpt lat="45.09433" lon="5.26853">
        <ele>197.6</ele>
        <time>2022-10-16T10:48:23.000Z</time>
      </trkpt>
      <trkpt lat="45.09429" lon="5.26853">
        <ele>197.6</ele>
        <time>2022-10-16T10:48:24.000Z</time>
      </trkpt>
      <trkpt lat="45.09426" lon="5.26853">
        <ele>197.6</ele>
        <time>2022-10-16T10:48:25.000Z</time>
      </trkpt>
      <trkpt lat="45.09423" lon="5.26853">
        <ele>197.6</ele>
        <time>2022-10-16T10:48:26.000Z</time>
      </trkpt>
      <trkpt lat="45.0942" lon="5.26853">
        <ele>197.6</ele>
        <time>2022-10-16T10:48:27.000Z</time>
      </trkpt>
      <trkpt lat="45.09417" lon="5.26854">
        <ele>197.5</ele>
        <time>2022-10-16T10:48:28.000Z</time>
      </trkpt>
      <trkpt lat="45.09414" lon="5.26854">
        <ele>197.6</ele>
        <time>2022-10-16T10:48:29.000Z</time>
      </trkpt>
      <trkpt lat="45.09412" lon="5.26854">
        <ele>197.6</ele>
        <time>2022-10-16T10:48:30.000Z</time>
      </trkpt>
      <trkpt lat="45.09409" lon="5.26855">
        <ele>197.6</ele>
        <time>2022-10-16T10:48:31.000Z</time>
      </trkpt>
      <trkpt lat="45.09407" lon="5.26856">
        <ele>197.7</ele>
        <time>2022-10-16T10:48:32.000Z</time>
      </trkpt>
      <trkpt lat="45.09404" lon="5.26856">
        <ele>197.8</ele>
        <time>2022-10-16T10:48:33.000Z</time>
      </trkpt>
      <trkpt lat="45.09401" lon="5.26856">
        <ele>197.8</ele>
        <time>2022-10-16T10:48:34.000Z</time>
      </trkpt>
      <trkpt lat="45.09398" lon="5.26856">
        <ele>197.9</ele>
        <time>2022-10-16T10:48:35.000Z</time>
      </trkpt>
      <trkpt lat="45.09394" lon="5.26857">
        <ele>198</ele>
        <time>2022-10-16T10:48:36.000Z</time>
      </trkpt>
      <trkpt lat="45.09391" lon="5.26858">
        <ele>198.1</ele>
        <time>2022-10-16T10:48:37.000Z</time>
      </trkpt>
      <trkpt lat="45.09388" lon="5.26858">
        <ele>198.1</ele>
        <time>2022-10-16T10:48:38.000Z</time>
      </trkpt>
      <trkpt lat="45.09385" lon="5.26859">
        <ele>198.1</ele>
        <time>2022-10-16T10:48:39.000Z</time>
      </trkpt>
      <trkpt lat="45.09381" lon="5.26861">
        <ele>198</ele>
        <time>2022-10-16T10:48:40.000Z</time>
      </trkpt>
      <trkpt lat="45.09377" lon="5.26863">
        <ele>197.8</ele>
        <time>2022-10-16T10:48:41.000Z</time>
      </trkpt>
      <trkpt lat="45.09373" lon="5.26864">
        <ele>197.6</ele>
        <time>2022-10-16T10:48:42.000Z</time>
      </trkpt>
      <trkpt lat="45.0937" lon="5.26865">
        <ele>197.5</ele>
        <time>2022-10-16T10:48:43.000Z</time>
      </trkpt>
      <trkpt lat="45.09366" lon="5.26867">
        <ele>197.3</ele>
        <time>2022-10-16T10:48:44.000Z</time>
      </trkpt>
      <trkpt lat="45.09363" lon="5.26867">
        <ele>197.3</ele>
        <time>2022-10-16T10:48:45.000Z</time>
      </trkpt>
      <trkpt lat="45.09359" lon="5.26869">
        <ele>197.3</ele>
        <time>2022-10-16T10:48:46.000Z</time>
      </trkpt>
      <trkpt lat="45.09356" lon="5.2687">
        <ele>197.3</ele>
        <time>2022-10-16T10:48:47.000Z</time>
      </trkpt>
      <trkpt lat="45.09353" lon="5.26871">
        <ele>197.4</ele>
        <time>2022-10-16T10:48:48.000Z</time>
      </trkpt>
      <trkpt lat="45.09349" lon="5.26871">
        <ele>197.5</ele>
        <time>2022-10-16T10:48:49.000Z</time>
      </trkpt>
      <trkpt lat="45.09347" lon="5.26872">
        <ele>197.6</ele>
        <time>2022-10-16T10:48:50.000Z</time>
      </trkpt>
      <trkpt lat="45.09344" lon="5.26872">
        <ele>197.7</ele>
        <time>2022-10-16T10:48:51.000Z</time>
      </trkpt>
      <trkpt lat="45.09342" lon="5.26873">
        <ele>197.7</ele>
        <time>2022-10-16T10:48:52.000Z</time>
      </trkpt>
      <trkpt lat="45.09339" lon="5.26874">
        <ele>197.8</ele>
        <time>2022-10-16T10:48:53.000Z</time>
      </trkpt>
      <trkpt lat="45.09337" lon="5.26875">
        <ele>197.8</ele>
        <time>2022-10-16T10:48:54.000Z</time>
      </trkpt>
      <trkpt lat="45.09334" lon="5.26877">
        <ele>197.9</ele>
        <time>2022-10-16T10:48:56.000Z</time>
      </trkpt>
      <trkpt lat="45.09331" lon="5.26878">
        <ele>197.9</ele>
        <time>2022-10-16T10:48:57.000Z</time>
      </trkpt>
      <trkpt lat="45.09329" lon="5.26879">
        <ele>197.8</ele>
        <time>2022-10-16T10:48:58.000Z</time>
      </trkpt>
      <trkpt lat="45.09326" lon="5.2688">
        <ele>197.8</ele>
        <time>2022-10-16T10:48:59.000Z</time>
      </trkpt>
      <trkpt lat="45.09323" lon="5.26881">
        <ele>197.8</ele>
        <time>2022-10-16T10:49:00.000Z</time>
      </trkpt>
      <trkpt lat="45.09321" lon="5.26883">
        <ele>197.8</ele>
        <time>2022-10-16T10:49:01.000Z</time>
      </trkpt>
      <trkpt lat="45.09319" lon="5.26884">
        <ele>197.8</ele>
        <time>2022-10-16T10:49:02.000Z</time>
      </trkpt>
      <trkpt lat="45.09316" lon="5.26885">
        <ele>197.8</ele>
        <time>2022-10-16T10:49:03.000Z</time>
      </trkpt>
      <trkpt lat="45.09313" lon="5.26886">
        <ele>197.9</ele>
        <time>2022-10-16T10:49:04.000Z</time>
      </trkpt>
      <trkpt lat="45.09311" lon="5.26887">
        <ele>197.9</ele>
        <time>2022-10-16T10:49:05.000Z</time>
      </trkpt>
      <trkpt lat="45.09308" lon="5.26888">
        <ele>197.9</ele>
        <time>2022-10-16T10:49:06.000Z</time>
      </trkpt>
      <trkpt lat="45.09306" lon="5.26889">
        <ele>198</ele>
        <time>2022-10-16T10:49:07.000Z</time>
      </trkpt>
      <trkpt lat="45.09304" lon="5.2689">
        <ele>197.9</ele>
        <time>2022-10-16T10:49:08.000Z</time>
      </trkpt>
      <trkpt lat="45.09302" lon="5.26891">
        <ele>197.9</ele>
        <time>2022-10-16T10:49:09.000Z</time>
      </trkpt>
      <trkpt lat="45.09299" lon="5.26891">
        <ele>197.9</ele>
        <time>2022-10-16T10:49:10.000Z</time>
      </trkpt>
      <trkpt lat="45.09297" lon="5.26892">
        <ele>198</ele>
        <time>2022-10-16T10:49:11.000Z</time>
      </trkpt>
      <trkpt lat="45.09294" lon="5.26892">
        <ele>198.1</ele>
        <time>2022-10-16T10:49:12.000Z</time>
      </trkpt>
      <trkpt lat="45.09292" lon="5.26893">
        <ele>198.1</ele>
        <time>2022-10-16T10:49:13.000Z</time>
      </trkpt>
      <trkpt lat="45.09289" lon="5.26894">
        <ele>198.2</ele>
        <time>2022-10-16T10:49:14.000Z</time>
      </trkpt>
      <trkpt lat="45.09286" lon="5.26894">
        <ele>198.3</ele>
        <time>2022-10-16T10:49:15.000Z</time>
      </trkpt>
      <trkpt lat="45.09283" lon="5.26895">
        <ele>198.4</ele>
        <time>2022-10-16T10:49:16.000Z</time>
      </trkpt>
      <trkpt lat="45.0928" lon="5.26896">
        <ele>198.6</ele>
        <time>2022-10-16T10:49:17.000Z</time>
      </trkpt>
      <trkpt lat="45.09277" lon="5.26897">
        <ele>198.7</ele>
        <time>2022-10-16T10:49:18.000Z</time>
      </trkpt>
      <trkpt lat="45.09274" lon="5.26898">
        <ele>198.7</ele>
        <time>2022-10-16T10:49:19.000Z</time>
      </trkpt>
      <trkpt lat="45.09271" lon="5.26898">
        <ele>198.7</ele>
        <time>2022-10-16T10:49:20.000Z</time>
      </trkpt>
      <trkpt lat="45.09268" lon="5.269">
        <ele>198.6</ele>
        <time>2022-10-16T10:49:21.000Z</time>
      </trkpt>
      <trkpt lat="45.09265" lon="5.26901">
        <ele>198.6</ele>
        <time>2022-10-16T10:49:22.000Z</time>
      </trkpt>
      <trkpt lat="45.09262" lon="5.26901">
        <ele>198.6</ele>
        <time>2022-10-16T10:49:23.000Z</time>
      </trkpt>
      <trkpt lat="45.09259" lon="5.26902">
        <ele>198.5</ele>
        <time>2022-10-16T10:49:24.000Z</time>
      </trkpt>
      <trkpt lat="45.09256" lon="5.26903">
        <ele>198.5</ele>
        <time>2022-10-16T10:49:25.000Z</time>
      </trkpt>
      <trkpt lat="45.09253" lon="5.26904">
        <ele>198.5</ele>
        <time>2022-10-16T10:49:26.000Z</time>
      </trkpt>
      <trkpt lat="45.0925" lon="5.26905">
        <ele>198.4</ele>
        <time>2022-10-16T10:49:27.000Z</time>
      </trkpt>
      <trkpt lat="45.09247" lon="5.26906">
        <ele>198.5</ele>
        <time>2022-10-16T10:49:28.000Z</time>
      </trkpt>
      <trkpt lat="45.09245" lon="5.26906">
        <ele>198.5</ele>
        <time>2022-10-16T10:49:29.000Z</time>
      </trkpt>
      <trkpt lat="45.09241" lon="5.26907">
        <ele>198.5</ele>
        <time>2022-10-16T10:49:30.000Z</time>
      </trkpt>
      <trkpt lat="45.09238" lon="5.26908">
        <ele>198.6</ele>
        <time>2022-10-16T10:49:31.000Z</time>
      </trkpt>
      <trkpt lat="45.09236" lon="5.26908">
        <ele>198.7</ele>
        <time>2022-10-16T10:49:32.000Z</time>
      </trkpt>
      <trkpt lat="45.09233" lon="5.26908">
        <ele>198.7</ele>
        <time>2022-10-16T10:49:33.000Z</time>
      </trkpt>
      <trkpt lat="45.0923" lon="5.26908">
        <ele>198.8</ele>
        <time>2022-10-16T10:49:34.000Z</time>
      </trkpt>
      <trkpt lat="45.09227" lon="5.26908">
        <ele>198.9</ele>
        <time>2022-10-16T10:49:35.000Z</time>
      </trkpt>
      <trkpt lat="45.09224" lon="5.26907">
        <ele>199</ele>
        <time>2022-10-16T10:49:36.000Z</time>
      </trkpt>
      <trkpt lat="45.09221" lon="5.26908">
        <ele>199</ele>
        <time>2022-10-16T10:49:37.000Z</time>
      </trkpt>
      <trkpt lat="45.09218" lon="5.26908">
        <ele>199</ele>
        <time>2022-10-16T10:49:38.000Z</time>
      </trkpt>
      <trkpt lat="45.09215" lon="5.26908">
        <ele>199</ele>
        <time>2022-10-16T10:49:39.000Z</time>
      </trkpt>
      <trkpt lat="45.09212" lon="5.26909">
        <ele>199</ele>
        <time>2022-10-16T10:49:40.000Z</time>
      </trkpt>
      <trkpt lat="45.09209" lon="5.26909">
        <ele>199</ele>
        <time>2022-10-16T10:49:41.000Z</time>
      </trkpt>
      <trkpt lat="45.09207" lon="5.26909">
        <ele>199</ele>
        <time>2022-10-16T10:49:42.000Z</time>
      </trkpt>
      <trkpt lat="45.09204" lon="5.26909">
        <ele>199</ele>
        <time>2022-10-16T10:49:43.000Z</time>
      </trkpt>
      <trkpt lat="45.09201" lon="5.26909">
        <ele>199</ele>
        <time>2022-10-16T10:49:44.000Z</time>
      </trkpt>
      <trkpt lat="45.09198" lon="5.26908">
        <ele>199</ele>
        <time>2022-10-16T10:49:45.000Z</time>
      </trkpt>
      <trkpt lat="45.09194" lon="5.26908">
        <ele>199</ele>
        <time>2022-10-16T10:49:46.000Z</time>
      </trkpt>
      <trkpt lat="45.0919" lon="5.26908">
        <ele>199</ele>
        <time>2022-10-16T10:49:47.000Z</time>
      </trkpt>
      <trkpt lat="45.09186" lon="5.26909">
        <ele>199</ele>
        <time>2022-10-16T10:49:48.000Z</time>
      </trkpt>
      <trkpt lat="45.09183" lon="5.26909">
        <ele>199</ele>
        <time>2022-10-16T10:49:49.000Z</time>
      </trkpt>
      <trkpt lat="45.0918" lon="5.26909">
        <ele>199</ele>
        <time>2022-10-16T10:49:50.000Z</time>
      </trkpt>
      <trkpt lat="45.09177" lon="5.26909">
        <ele>199</ele>
        <time>2022-10-16T10:49:51.000Z</time>
      </trkpt>
      <trkpt lat="45.09174" lon="5.26909">
        <ele>199</ele>
        <time>2022-10-16T10:49:52.000Z</time>
      </trkpt>
      <trkpt lat="45.09171" lon="5.26909">
        <ele>199</ele>
        <time>2022-10-16T10:49:53.000Z</time>
      </trkpt>
      <trkpt lat="45.09168" lon="5.26908">
        <ele>199</ele>
        <time>2022-10-16T10:49:54.000Z</time>
      </trkpt>
      <trkpt lat="45.09166" lon="5.26908">
        <ele>199</ele>
        <time>2022-10-16T10:49:55.000Z</time>
      </trkpt>
      <trkpt lat="45.09163" lon="5.26909">
        <ele>199</ele>
        <time>2022-10-16T10:49:56.000Z</time>
      </trkpt>
      <trkpt lat="45.0916" lon="5.26909">
        <ele>199</ele>
        <time>2022-10-16T10:49:57.000Z</time>
      </trkpt>
      <trkpt lat="45.09157" lon="5.26909">
        <ele>199</ele>
        <time>2022-10-16T10:49:58.000Z</time>
      </trkpt>
      <trkpt lat="45.09154" lon="5.26908">
        <ele>199</ele>
        <time>2022-10-16T10:49:59.000Z</time>
      </trkpt>
      <trkpt lat="45.09151" lon="5.26908">
        <ele>199</ele>
        <time>2022-10-16T10:50:00.000Z</time>
      </trkpt>
      <trkpt lat="45.09148" lon="5.26909">
        <ele>199</ele>
        <time>2022-10-16T10:50:01.000Z</time>
      </trkpt>
      <trkpt lat="45.09145" lon="5.26909">
        <ele>199</ele>
        <time>2022-10-16T10:50:02.000Z</time>
      </trkpt>
      <trkpt lat="45.09142" lon="5.2691">
        <ele>199</ele>
        <time>2022-10-16T10:50:03.000Z</time>
      </trkpt>
      <trkpt lat="45.09139" lon="5.2691">
        <ele>199</ele>
        <time>2022-10-16T10:50:04.000Z</time>
      </trkpt>
      <trkpt lat="45.09135" lon="5.2691">
        <ele>199</ele>
        <time>2022-10-16T10:50:05.000Z</time>
      </trkpt>
      <trkpt lat="45.09132" lon="5.26911">
        <ele>199</ele>
        <time>2022-10-16T10:50:06.000Z</time>
      </trkpt>
      <trkpt lat="45.09129" lon="5.26911">
        <ele>199</ele>
        <time>2022-10-16T10:50:07.000Z</time>
      </trkpt>
      <trkpt lat="45.09125" lon="5.26911">
        <ele>199</ele>
        <time>2022-10-16T10:50:08.000Z</time>
      </trkpt>
      <trkpt lat="45.09122" lon="5.26912">
        <ele>199</ele>
        <time>2022-10-16T10:50:09.000Z</time>
      </trkpt>
      <trkpt lat="45.09117" lon="5.26913">
        <ele>199</ele>
        <time>2022-10-16T10:50:10.000Z</time>
      </trkpt>
      <trkpt lat="45.09113" lon="5.26913">
        <ele>199</ele>
        <time>2022-10-16T10:50:11.000Z</time>
      </trkpt>
      <trkpt lat="45.09109" lon="5.26912">
        <ele>199.1</ele>
        <time>2022-10-16T10:50:12.000Z</time>
      </trkpt>
      <trkpt lat="45.09105" lon="5.26911">
        <ele>199.2</ele>
        <time>2022-10-16T10:50:13.000Z</time>
      </trkpt>
      <trkpt lat="45.09102" lon="5.26912">
        <ele>199.3</ele>
        <time>2022-10-16T10:50:14.000Z</time>
      </trkpt>
      <trkpt lat="45.09099" lon="5.26912">
        <ele>199.4</ele>
        <time>2022-10-16T10:50:15.000Z</time>
      </trkpt>
      <trkpt lat="45.09095" lon="5.26913">
        <ele>199.5</ele>
        <time>2022-10-16T10:50:16.000Z</time>
      </trkpt>
      <trkpt lat="45.09092" lon="5.26913">
        <ele>199.6</ele>
        <time>2022-10-16T10:50:17.000Z</time>
      </trkpt>
      <trkpt lat="45.09088" lon="5.26913">
        <ele>199.7</ele>
        <time>2022-10-16T10:50:18.000Z</time>
      </trkpt>
      <trkpt lat="45.09085" lon="5.26912">
        <ele>199.8</ele>
        <time>2022-10-16T10:50:19.000Z</time>
      </trkpt>
      <trkpt lat="45.09082" lon="5.26912">
        <ele>199.8</ele>
        <time>2022-10-16T10:50:20.000Z</time>
      </trkpt>
      <trkpt lat="45.09079" lon="5.26911">
        <ele>199.7</ele>
        <time>2022-10-16T10:50:21.000Z</time>
      </trkpt>
      <trkpt lat="45.09076" lon="5.26911">
        <ele>199.6</ele>
        <time>2022-10-16T10:50:22.000Z</time>
      </trkpt>
      <trkpt lat="45.09072" lon="5.26912">
        <ele>199.5</ele>
        <time>2022-10-16T10:50:23.000Z</time>
      </trkpt>
      <trkpt lat="45.09069" lon="5.26912">
        <ele>199.4</ele>
        <time>2022-10-16T10:50:24.000Z</time>
      </trkpt>
      <trkpt lat="45.09066" lon="5.26912">
        <ele>199.3</ele>
        <time>2022-10-16T10:50:25.000Z</time>
      </trkpt>
      <trkpt lat="45.09062" lon="5.26912">
        <ele>199.2</ele>
        <time>2022-10-16T10:50:26.000Z</time>
      </trkpt>
      <trkpt lat="45.09059" lon="5.26912">
        <ele>199.1</ele>
        <time>2022-10-16T10:50:27.000Z</time>
      </trkpt>
      <trkpt lat="45.09056" lon="5.26911">
        <ele>199</ele>
        <time>2022-10-16T10:50:28.000Z</time>
      </trkpt>
      <trkpt lat="45.09054" lon="5.26911">
        <ele>199</ele>
        <time>2022-10-16T10:50:29.000Z</time>
      </trkpt>
      <trkpt lat="45.09051" lon="5.26911">
        <ele>199</ele>
        <time>2022-10-16T10:50:30.000Z</time>
      </trkpt>
      <trkpt lat="45.09048" lon="5.26912">
        <ele>199</ele>
        <time>2022-10-16T10:50:31.000Z</time>
      </trkpt>
      <trkpt lat="45.09045" lon="5.26913">
        <ele>199</ele>
        <time>2022-10-16T10:50:32.000Z</time>
      </trkpt>
      <trkpt lat="45.09042" lon="5.26914">
        <ele>199</ele>
        <time>2022-10-16T10:50:33.000Z</time>
      </trkpt>
      <trkpt lat="45.0904" lon="5.26915">
        <ele>199</ele>
        <time>2022-10-16T10:50:34.000Z</time>
      </trkpt>
      <trkpt lat="45.09037" lon="5.26915">
        <ele>199</ele>
        <time>2022-10-16T10:50:35.000Z</time>
      </trkpt>
      <trkpt lat="45.09035" lon="5.26915">
        <ele>199</ele>
        <time>2022-10-16T10:50:36.000Z</time>
      </trkpt>
      <trkpt lat="45.09032" lon="5.26916">
        <ele>199</ele>
        <time>2022-10-16T10:50:37.000Z</time>
      </trkpt>
      <trkpt lat="45.09029" lon="5.26916">
        <ele>199</ele>
        <time>2022-10-16T10:50:38.000Z</time>
      </trkpt>
      <trkpt lat="45.09026" lon="5.26918">
        <ele>198.6</ele>
        <time>2022-10-16T10:50:39.000Z</time>
      </trkpt>
      <trkpt lat="45.09023" lon="5.2692">
        <ele>198.2</ele>
        <time>2022-10-16T10:50:40.000Z</time>
      </trkpt>
      <trkpt lat="45.09019" lon="5.26922">
        <ele>197.8</ele>
        <time>2022-10-16T10:50:41.000Z</time>
      </trkpt>
      <trkpt lat="45.09016" lon="5.26925">
        <ele>197.4</ele>
        <time>2022-10-16T10:50:42.000Z</time>
      </trkpt>
      <trkpt lat="45.09012" lon="5.26926">
        <ele>197.4</ele>
        <time>2022-10-16T10:50:43.000Z</time>
      </trkpt>
      <trkpt lat="45.09009" lon="5.26928">
        <ele>197.5</ele>
        <time>2022-10-16T10:50:44.000Z</time>
      </trkpt>
      <trkpt lat="45.09005" lon="5.26928">
        <ele>197.8</ele>
        <time>2022-10-16T10:50:45.000Z</time>
      </trkpt>
      <trkpt lat="45.09001" lon="5.26929">
        <ele>198</ele>
        <time>2022-10-16T10:50:46.000Z</time>
      </trkpt>
      <trkpt lat="45.08997" lon="5.2693">
        <ele>197.9</ele>
        <time>2022-10-16T10:50:47.000Z</time>
      </trkpt>
      <trkpt lat="45.08993" lon="5.26931">
        <ele>197.7</ele>
        <time>2022-10-16T10:50:48.000Z</time>
      </trkpt>
      <trkpt lat="45.0899" lon="5.26931">
        <ele>197.6</ele>
        <time>2022-10-16T10:50:49.000Z</time>
      </trkpt>
      <trkpt lat="45.08987" lon="5.26932">
        <ele>197.3</ele>
        <time>2022-10-16T10:50:50.000Z</time>
      </trkpt>
      <trkpt lat="45.08984" lon="5.26933">
        <ele>197.2</ele>
        <time>2022-10-16T10:50:51.000Z</time>
      </trkpt>
      <trkpt lat="45.0898" lon="5.26933">
        <ele>197</ele>
        <time>2022-10-16T10:50:52.000Z</time>
      </trkpt>
      <trkpt lat="45.08976" lon="5.26933">
        <ele>196.8</ele>
        <time>2022-10-16T10:50:53.000Z</time>
      </trkpt>
      <trkpt lat="45.08971" lon="5.26934">
        <ele>196.6</ele>
        <time>2022-10-16T10:50:54.000Z</time>
      </trkpt>
      <trkpt lat="45.08967" lon="5.26934">
        <ele>196.6</ele>
        <time>2022-10-16T10:50:55.000Z</time>
      </trkpt>
      <trkpt lat="45.08963" lon="5.26935">
        <ele>196.6</ele>
        <time>2022-10-16T10:50:56.000Z</time>
      </trkpt>
      <trkpt lat="45.08958" lon="5.26935">
        <ele>196.7</ele>
        <time>2022-10-16T10:50:57.000Z</time>
      </trkpt>
      <trkpt lat="45.08954" lon="5.26935">
        <ele>196.8</ele>
        <time>2022-10-16T10:50:58.000Z</time>
      </trkpt>
      <trkpt lat="45.0895" lon="5.26934">
        <ele>197</ele>
        <time>2022-10-16T10:50:59.000Z</time>
      </trkpt>
      <trkpt lat="45.08945" lon="5.26934">
        <ele>197.1</ele>
        <time>2022-10-16T10:51:00.000Z</time>
      </trkpt>
      <trkpt lat="45.08941" lon="5.26934">
        <ele>197.2</ele>
        <time>2022-10-16T10:51:01.000Z</time>
      </trkpt>
      <trkpt lat="45.08937" lon="5.26934">
        <ele>197.2</ele>
        <time>2022-10-16T10:51:02.000Z</time>
      </trkpt>
      <trkpt lat="45.08933" lon="5.26935">
        <ele>197.2</ele>
        <time>2022-10-16T10:51:03.000Z</time>
      </trkpt>
      <trkpt lat="45.08929" lon="5.26935">
        <ele>197.2</ele>
        <time>2022-10-16T10:51:04.000Z</time>
      </trkpt>
      <trkpt lat="45.08925" lon="5.26935">
        <ele>197.2</ele>
        <time>2022-10-16T10:51:05.000Z</time>
      </trkpt>
      <trkpt lat="45.08921" lon="5.26935">
        <ele>197.3</ele>
        <time>2022-10-16T10:51:06.000Z</time>
      </trkpt>
      <trkpt lat="45.08917" lon="5.26935">
        <ele>197.3</ele>
        <time>2022-10-16T10:51:07.000Z</time>
      </trkpt>
      <trkpt lat="45.08913" lon="5.26935">
        <ele>197.3</ele>
        <time>2022-10-16T10:51:08.000Z</time>
      </trkpt>
      <trkpt lat="45.08908" lon="5.26936">
        <ele>197.3</ele>
        <time>2022-10-16T10:51:09.000Z</time>
      </trkpt>
      <trkpt lat="45.08904" lon="5.26936">
        <ele>197.3</ele>
        <time>2022-10-16T10:51:10.000Z</time>
      </trkpt>
      <trkpt lat="45.089" lon="5.26936">
        <ele>197.3</ele>
        <time>2022-10-16T10:51:11.000Z</time>
      </trkpt>
      <trkpt lat="45.08897" lon="5.26937">
        <ele>197.3</ele>
        <time>2022-10-16T10:51:12.000Z</time>
      </trkpt>
      <trkpt lat="45.08893" lon="5.26937">
        <ele>197.3</ele>
        <time>2022-10-16T10:51:13.000Z</time>
      </trkpt>
      <trkpt lat="45.0889" lon="5.26938">
        <ele>197.2</ele>
        <time>2022-10-16T10:51:14.000Z</time>
      </trkpt>
      <trkpt lat="45.08886" lon="5.26939">
        <ele>197.2</ele>
        <time>2022-10-16T10:51:15.000Z</time>
      </trkpt>
      <trkpt lat="45.08883" lon="5.2694">
        <ele>197.2</ele>
        <time>2022-10-16T10:51:16.000Z</time>
      </trkpt>
      <trkpt lat="45.0888" lon="5.26939">
        <ele>197.2</ele>
        <time>2022-10-16T10:51:17.000Z</time>
      </trkpt>
      <trkpt lat="45.08877" lon="5.26939">
        <ele>197.2</ele>
        <time>2022-10-16T10:51:18.000Z</time>
      </trkpt>
      <trkpt lat="45.08874" lon="5.2694">
        <ele>197.2</ele>
        <time>2022-10-16T10:51:19.000Z</time>
      </trkpt>
      <trkpt lat="45.08871" lon="5.26941">
        <ele>197.1</ele>
        <time>2022-10-16T10:51:20.000Z</time>
      </trkpt>
      <trkpt lat="45.08867" lon="5.26942">
        <ele>197.1</ele>
        <time>2022-10-16T10:51:21.000Z</time>
      </trkpt>
      <trkpt lat="45.08864" lon="5.26943">
        <ele>197.1</ele>
        <time>2022-10-16T10:51:22.000Z</time>
      </trkpt>
      <trkpt lat="45.0886" lon="5.26944">
        <ele>197.1</ele>
        <time>2022-10-16T10:51:23.000Z</time>
      </trkpt>
      <trkpt lat="45.08857" lon="5.26944">
        <ele>197.2</ele>
        <time>2022-10-16T10:51:24.000Z</time>
      </trkpt>
      <trkpt lat="45.08853" lon="5.26946">
        <ele>197</ele>
        <time>2022-10-16T10:51:25.000Z</time>
      </trkpt>
      <trkpt lat="45.0885" lon="5.26947">
        <ele>196.8</ele>
        <time>2022-10-16T10:51:26.000Z</time>
      </trkpt>
      <trkpt lat="45.08847" lon="5.26947">
        <ele>196.9</ele>
        <time>2022-10-16T10:51:27.000Z</time>
      </trkpt>
      <trkpt lat="45.08844" lon="5.26947">
        <ele>197.2</ele>
        <time>2022-10-16T10:51:28.000Z</time>
      </trkpt>
      <trkpt lat="45.0884" lon="5.26946">
        <ele>197.5</ele>
        <time>2022-10-16T10:51:29.000Z</time>
      </trkpt>
      <trkpt lat="45.08837" lon="5.26946">
        <ele>197.7</ele>
        <time>2022-10-16T10:51:30.000Z</time>
      </trkpt>
      <trkpt lat="45.08834" lon="5.26946">
        <ele>197.8</ele>
        <time>2022-10-16T10:51:31.000Z</time>
      </trkpt>
      <trkpt lat="45.0883" lon="5.26945">
        <ele>197.9</ele>
        <time>2022-10-16T10:51:32.000Z</time>
      </trkpt>
      <trkpt lat="45.08827" lon="5.26945">
        <ele>198</ele>
        <time>2022-10-16T10:51:33.000Z</time>
      </trkpt>
      <trkpt lat="45.08823" lon="5.26944">
        <ele>198</ele>
        <time>2022-10-16T10:51:34.000Z</time>
      </trkpt>
      <trkpt lat="45.0882" lon="5.26943">
        <ele>198</ele>
        <time>2022-10-16T10:51:35.000Z</time>
      </trkpt>
      <trkpt lat="45.08816" lon="5.26942">
        <ele>198</ele>
        <time>2022-10-16T10:51:36.000Z</time>
      </trkpt>
      <trkpt lat="45.08813" lon="5.26941">
        <ele>198</ele>
        <time>2022-10-16T10:51:37.000Z</time>
      </trkpt>
      <trkpt lat="45.0881" lon="5.2694">
        <ele>198</ele>
        <time>2022-10-16T10:51:38.000Z</time>
      </trkpt>
      <trkpt lat="45.08806" lon="5.26939">
        <ele>198</ele>
        <time>2022-10-16T10:51:39.000Z</time>
      </trkpt>
      <trkpt lat="45.08803" lon="5.26937">
        <ele>198</ele>
        <time>2022-10-16T10:51:40.000Z</time>
      </trkpt>
      <trkpt lat="45.08799" lon="5.26936">
        <ele>197.9</ele>
        <time>2022-10-16T10:51:41.000Z</time>
      </trkpt>
      <trkpt lat="45.08795" lon="5.26935">
        <ele>197.9</ele>
        <time>2022-10-16T10:51:42.000Z</time>
      </trkpt>
      <trkpt lat="45.08791" lon="5.26933">
        <ele>197.8</ele>
        <time>2022-10-16T10:51:43.000Z</time>
      </trkpt>
      <trkpt lat="45.08787" lon="5.26931">
        <ele>197.7</ele>
        <time>2022-10-16T10:51:44.000Z</time>
      </trkpt>
      <trkpt lat="45.08783" lon="5.26929">
        <ele>197.6</ele>
        <time>2022-10-16T10:51:45.000Z</time>
      </trkpt>
      <trkpt lat="45.08779" lon="5.26928">
        <ele>197.4</ele>
        <time>2022-10-16T10:51:46.000Z</time>
      </trkpt>
      <trkpt lat="45.08774" lon="5.26926">
        <ele>197.2</ele>
        <time>2022-10-16T10:51:47.000Z</time>
      </trkpt>
      <trkpt lat="45.0877" lon="5.26925">
        <ele>197.1</ele>
        <time>2022-10-16T10:51:48.000Z</time>
      </trkpt>
      <trkpt lat="45.08765" lon="5.26924">
        <ele>197</ele>
        <time>2022-10-16T10:51:49.000Z</time>
      </trkpt>
      <trkpt lat="45.0876" lon="5.26923">
        <ele>196.9</ele>
        <time>2022-10-16T10:51:50.000Z</time>
      </trkpt>
      <trkpt lat="45.08754" lon="5.26923">
        <ele>196.8</ele>
        <time>2022-10-16T10:51:51.000Z</time>
      </trkpt>
      <trkpt lat="45.08748" lon="5.26923">
        <ele>196.8</ele>
        <time>2022-10-16T10:51:52.000Z</time>
      </trkpt>
      <trkpt lat="45.08743" lon="5.26922">
        <ele>196.8</ele>
        <time>2022-10-16T10:51:53.000Z</time>
      </trkpt>
      <trkpt lat="45.08737" lon="5.26921">
        <ele>196.8</ele>
        <time>2022-10-16T10:51:54.000Z</time>
      </trkpt>
      <trkpt lat="45.08732" lon="5.2692">
        <ele>196.9</ele>
        <time>2022-10-16T10:51:55.000Z</time>
      </trkpt>
      <trkpt lat="45.08726" lon="5.26919">
        <ele>196.9</ele>
        <time>2022-10-16T10:51:56.000Z</time>
      </trkpt>
      <trkpt lat="45.08722" lon="5.26918">
        <ele>196.9</ele>
        <time>2022-10-16T10:51:57.000Z</time>
      </trkpt>
      <trkpt lat="45.08717" lon="5.26917">
        <ele>197</ele>
        <time>2022-10-16T10:51:58.000Z</time>
      </trkpt>
      <trkpt lat="45.08713" lon="5.26916">
        <ele>197</ele>
        <time>2022-10-16T10:51:59.000Z</time>
      </trkpt>
      <trkpt lat="45.08708" lon="5.26914">
        <ele>197</ele>
        <time>2022-10-16T10:52:00.000Z</time>
      </trkpt>
      <trkpt lat="45.08704" lon="5.26913">
        <ele>197</ele>
        <time>2022-10-16T10:52:01.000Z</time>
      </trkpt>
      <trkpt lat="45.087" lon="5.26911">
        <ele>197</ele>
        <time>2022-10-16T10:52:02.000Z</time>
      </trkpt>
      <trkpt lat="45.08697" lon="5.2691">
        <ele>197</ele>
        <time>2022-10-16T10:52:03.000Z</time>
      </trkpt>
      <trkpt lat="45.08692" lon="5.26909">
        <ele>196.9</ele>
        <time>2022-10-16T10:52:04.000Z</time>
      </trkpt>
      <trkpt lat="45.08688" lon="5.26908">
        <ele>196.8</ele>
        <time>2022-10-16T10:52:05.000Z</time>
      </trkpt>
      <trkpt lat="45.08685" lon="5.26907">
        <ele>196.8</ele>
        <time>2022-10-16T10:52:06.000Z</time>
      </trkpt>
      <trkpt lat="45.08681" lon="5.26906">
        <ele>196.7</ele>
        <time>2022-10-16T10:52:07.000Z</time>
      </trkpt>
      <trkpt lat="45.08677" lon="5.26906">
        <ele>196.6</ele>
        <time>2022-10-16T10:52:08.000Z</time>
      </trkpt>
      <trkpt lat="45.08673" lon="5.26905">
        <ele>196.5</ele>
        <time>2022-10-16T10:52:09.000Z</time>
      </trkpt>
      <trkpt lat="45.08669" lon="5.26905">
        <ele>196.5</ele>
        <time>2022-10-16T10:52:10.000Z</time>
      </trkpt>
      <trkpt lat="45.08665" lon="5.26904">
        <ele>196.5</ele>
        <time>2022-10-16T10:52:11.000Z</time>
      </trkpt>
      <trkpt lat="45.0866" lon="5.26904">
        <ele>196.6</ele>
        <time>2022-10-16T10:52:12.000Z</time>
      </trkpt>
      <trkpt lat="45.08656" lon="5.26904">
        <ele>196.7</ele>
        <time>2022-10-16T10:52:13.000Z</time>
      </trkpt>
      <trkpt lat="45.08651" lon="5.26904">
        <ele>196.8</ele>
        <time>2022-10-16T10:52:14.000Z</time>
      </trkpt>
      <trkpt lat="45.08648" lon="5.26903">
        <ele>196.8</ele>
        <time>2022-10-16T10:52:15.000Z</time>
      </trkpt>
      <trkpt lat="45.08644" lon="5.26902">
        <ele>196.9</ele>
        <time>2022-10-16T10:52:16.000Z</time>
      </trkpt>
      <trkpt lat="45.0864" lon="5.26902">
        <ele>197</ele>
        <time>2022-10-16T10:52:17.000Z</time>
      </trkpt>
      <trkpt lat="45.08636" lon="5.269">
        <ele>196.9</ele>
        <time>2022-10-16T10:52:18.000Z</time>
      </trkpt>
      <trkpt lat="45.08633" lon="5.26898">
        <ele>196.8</ele>
        <time>2022-10-16T10:52:19.000Z</time>
      </trkpt>
      <trkpt lat="45.08629" lon="5.26898">
        <ele>196.6</ele>
        <time>2022-10-16T10:52:20.000Z</time>
      </trkpt>
      <trkpt lat="45.08626" lon="5.26899">
        <ele>196.5</ele>
        <time>2022-10-16T10:52:21.000Z</time>
      </trkpt>
      <trkpt lat="45.08622" lon="5.26897">
        <ele>196.4</ele>
        <time>2022-10-16T10:52:22.000Z</time>
      </trkpt>
      <trkpt lat="45.08619" lon="5.26894">
        <ele>196.3</ele>
        <time>2022-10-16T10:52:23.000Z</time>
      </trkpt>
      <trkpt lat="45.08616" lon="5.26893">
        <ele>196.2</ele>
        <time>2022-10-16T10:52:24.000Z</time>
      </trkpt>
      <trkpt lat="45.08611" lon="5.2689">
        <ele>196</ele>
        <time>2022-10-16T10:52:25.000Z</time>
      </trkpt>
      <trkpt lat="45.08607" lon="5.26887">
        <ele>195.9</ele>
        <time>2022-10-16T10:52:26.000Z</time>
      </trkpt>
      <trkpt lat="45.08604" lon="5.26885">
        <ele>195.9</ele>
        <time>2022-10-16T10:52:27.000Z</time>
      </trkpt>
      <trkpt lat="45.08601" lon="5.26884">
        <ele>195.9</ele>
        <time>2022-10-16T10:52:28.000Z</time>
      </trkpt>
      <trkpt lat="45.08598" lon="5.26883">
        <ele>195.9</ele>
        <time>2022-10-16T10:52:29.000Z</time>
      </trkpt>
      <trkpt lat="45.08595" lon="5.2688">
        <ele>195.9</ele>
        <time>2022-10-16T10:52:31.000Z</time>
      </trkpt>
      <trkpt lat="45.08593" lon="5.26878">
        <ele>196</ele>
        <time>2022-10-16T10:52:32.000Z</time>
      </trkpt>
      <trkpt lat="45.0859" lon="5.26877">
        <ele>196</ele>
        <time>2022-10-16T10:52:33.000Z</time>
      </trkpt>
      <trkpt lat="45.08588" lon="5.26876">
        <ele>196</ele>
        <time>2022-10-16T10:52:34.000Z</time>
      </trkpt>
      <trkpt lat="45.08587" lon="5.26875">
        <ele>196.1</ele>
        <time>2022-10-16T10:52:35.000Z</time>
      </trkpt>
      <trkpt lat="45.08584" lon="5.26872">
        <ele>196.2</ele>
        <time>2022-10-16T10:52:37.000Z</time>
      </trkpt>
      <trkpt lat="45.08581" lon="5.2687">
        <ele>196.3</ele>
        <time>2022-10-16T10:52:38.000Z</time>
      </trkpt>
      <trkpt lat="45.08578" lon="5.26867">
        <ele>196.5</ele>
        <time>2022-10-16T10:52:39.000Z</time>
      </trkpt>
      <trkpt lat="45.08574" lon="5.26864">
        <ele>196.7</ele>
        <time>2022-10-16T10:52:40.000Z</time>
      </trkpt>
      <trkpt lat="45.0857" lon="5.26861">
        <ele>197</ele>
        <time>2022-10-16T10:52:41.000Z</time>
      </trkpt>
      <trkpt lat="45.08565" lon="5.26859">
        <ele>197</ele>
        <time>2022-10-16T10:52:42.000Z</time>
      </trkpt>
      <trkpt lat="45.08561" lon="5.26856">
        <ele>197</ele>
        <time>2022-10-16T10:52:43.000Z</time>
      </trkpt>
      <trkpt lat="45.08557" lon="5.26854">
        <ele>197</ele>
        <time>2022-10-16T10:52:44.000Z</time>
      </trkpt>
      <trkpt lat="45.08553" lon="5.26851">
        <ele>196.6</ele>
        <time>2022-10-16T10:52:45.000Z</time>
      </trkpt>
      <trkpt lat="45.08548" lon="5.26848">
        <ele>196.2</ele>
        <time>2022-10-16T10:52:46.000Z</time>
      </trkpt>
      <trkpt lat="45.08544" lon="5.26846">
        <ele>195.8</ele>
        <time>2022-10-16T10:52:47.000Z</time>
      </trkpt>
      <trkpt lat="45.08539" lon="5.26843">
        <ele>195.7</ele>
        <time>2022-10-16T10:52:48.000Z</time>
      </trkpt>
      <trkpt lat="45.08534" lon="5.26841">
        <ele>195.8</ele>
        <time>2022-10-16T10:52:49.000Z</time>
      </trkpt>
      <trkpt lat="45.0853" lon="5.26838">
        <ele>196.1</ele>
        <time>2022-10-16T10:52:50.000Z</time>
      </trkpt>
      <trkpt lat="45.08525" lon="5.26835">
        <ele>196.4</ele>
        <time>2022-10-16T10:52:51.000Z</time>
      </trkpt>
      <trkpt lat="45.0852" lon="5.26833">
        <ele>196.5</ele>
        <time>2022-10-16T10:52:52.000Z</time>
      </trkpt>
      <trkpt lat="45.08517" lon="5.26831">
        <ele>196.4</ele>
        <time>2022-10-16T10:52:53.000Z</time>
      </trkpt>
      <trkpt lat="45.08513" lon="5.26828">
        <ele>196.3</ele>
        <time>2022-10-16T10:52:54.000Z</time>
      </trkpt>
      <trkpt lat="45.0851" lon="5.26826">
        <ele>196.3</ele>
        <time>2022-10-16T10:52:55.000Z</time>
      </trkpt>
      <trkpt lat="45.08507" lon="5.26824">
        <ele>196.3</ele>
        <time>2022-10-16T10:52:56.000Z</time>
      </trkpt>
      <trkpt lat="45.08503" lon="5.26822">
        <ele>196.3</ele>
        <time>2022-10-16T10:52:57.000Z</time>
      </trkpt>
      <trkpt lat="45.085" lon="5.2682">
        <ele>196.4</ele>
        <time>2022-10-16T10:52:58.000Z</time>
      </trkpt>
      <trkpt lat="45.08496" lon="5.26818">
        <ele>196.5</ele>
        <time>2022-10-16T10:52:59.000Z</time>
      </trkpt>
      <trkpt lat="45.08492" lon="5.26816">
        <ele>196.6</ele>
        <time>2022-10-16T10:53:00.000Z</time>
      </trkpt>
      <trkpt lat="45.08488" lon="5.26814">
        <ele>196.8</ele>
        <time>2022-10-16T10:53:01.000Z</time>
      </trkpt>
      <trkpt lat="45.08485" lon="5.26811">
        <ele>197.1</ele>
        <time>2022-10-16T10:53:02.000Z</time>
      </trkpt>
      <trkpt lat="45.08481" lon="5.26809">
        <ele>197.5</ele>
        <time>2022-10-16T10:53:03.000Z</time>
      </trkpt>
      <trkpt lat="45.08478" lon="5.26806">
        <ele>198</ele>
        <time>2022-10-16T10:53:04.000Z</time>
      </trkpt>
      <trkpt lat="45.08475" lon="5.26803">
        <ele>198.1</ele>
        <time>2022-10-16T10:53:05.000Z</time>
      </trkpt>
      <trkpt lat="45.08472" lon="5.26801">
        <ele>198.2</ele>
        <time>2022-10-16T10:53:06.000Z</time>
      </trkpt>
      <trkpt lat="45.08468" lon="5.26798">
        <ele>198.1</ele>
        <time>2022-10-16T10:53:07.000Z</time>
      </trkpt>
      <trkpt lat="45.08464" lon="5.26796">
        <ele>198.1</ele>
        <time>2022-10-16T10:53:08.000Z</time>
      </trkpt>
      <trkpt lat="45.0846" lon="5.26793">
        <ele>198</ele>
        <time>2022-10-16T10:53:09.000Z</time>
      </trkpt>
      <trkpt lat="45.08456" lon="5.26791">
        <ele>197.9</ele>
        <time>2022-10-16T10:53:10.000Z</time>
      </trkpt>
      <trkpt lat="45.08452" lon="5.26789">
        <ele>197.8</ele>
        <time>2022-10-16T10:53:11.000Z</time>
      </trkpt>
      <trkpt lat="45.08448" lon="5.26787">
        <ele>197.8</ele>
        <time>2022-10-16T10:53:12.000Z</time>
      </trkpt>
      <trkpt lat="45.08444" lon="5.26785">
        <ele>197.7</ele>
        <time>2022-10-16T10:53:13.000Z</time>
      </trkpt>
      <trkpt lat="45.0844" lon="5.26783">
        <ele>197.7</ele>
        <time>2022-10-16T10:53:14.000Z</time>
      </trkpt>
      <trkpt lat="45.08437" lon="5.26781">
        <ele>197.8</ele>
        <time>2022-10-16T10:53:15.000Z</time>
      </trkpt>
      <trkpt lat="45.08433" lon="5.26778">
        <ele>198</ele>
        <time>2022-10-16T10:53:16.000Z</time>
      </trkpt>
      <trkpt lat="45.08429" lon="5.26776">
        <ele>198.1</ele>
        <time>2022-10-16T10:53:17.000Z</time>
      </trkpt>
      <trkpt lat="45.08426" lon="5.26774">
        <ele>198.2</ele>
        <time>2022-10-16T10:53:18.000Z</time>
      </trkpt>
      <trkpt lat="45.08422" lon="5.26772">
        <ele>198.2</ele>
        <time>2022-10-16T10:53:19.000Z</time>
      </trkpt>
      <trkpt lat="45.08418" lon="5.26771">
        <ele>198.3</ele>
        <time>2022-10-16T10:53:20.000Z</time>
      </trkpt>
      <trkpt lat="45.08415" lon="5.2677">
        <ele>198.2</ele>
        <time>2022-10-16T10:53:21.000Z</time>
      </trkpt>
      <trkpt lat="45.08411" lon="5.26769">
        <ele>198.2</ele>
        <time>2022-10-16T10:53:22.000Z</time>
      </trkpt>
      <trkpt lat="45.08407" lon="5.26768">
        <ele>198.2</ele>
        <time>2022-10-16T10:53:23.000Z</time>
      </trkpt>
      <trkpt lat="45.08404" lon="5.26766">
        <ele>198.2</ele>
        <time>2022-10-16T10:53:24.000Z</time>
      </trkpt>
      <trkpt lat="45.08401" lon="5.26765">
        <ele>198.2</ele>
        <time>2022-10-16T10:53:25.000Z</time>
      </trkpt>
      <trkpt lat="45.08398" lon="5.26763">
        <ele>198.2</ele>
        <time>2022-10-16T10:53:26.000Z</time>
      </trkpt>
      <trkpt lat="45.08394" lon="5.26761">
        <ele>198.3</ele>
        <time>2022-10-16T10:53:27.000Z</time>
      </trkpt>
      <trkpt lat="45.08391" lon="5.26759">
        <ele>198.4</ele>
        <time>2022-10-16T10:53:28.000Z</time>
      </trkpt>
      <trkpt lat="45.08388" lon="5.26758">
        <ele>198.4</ele>
        <time>2022-10-16T10:53:29.000Z</time>
      </trkpt>
      <trkpt lat="45.08385" lon="5.26756">
        <ele>198.4</ele>
        <time>2022-10-16T10:53:30.000Z</time>
      </trkpt>
      <trkpt lat="45.08381" lon="5.26755">
        <ele>198.3</ele>
        <time>2022-10-16T10:53:31.000Z</time>
      </trkpt>
      <trkpt lat="45.08378" lon="5.26753">
        <ele>198.3</ele>
        <time>2022-10-16T10:53:32.000Z</time>
      </trkpt>
      <trkpt lat="45.08374" lon="5.26752">
        <ele>198.3</ele>
        <time>2022-10-16T10:53:33.000Z</time>
      </trkpt>
      <trkpt lat="45.0837" lon="5.2675">
        <ele>198.3</ele>
        <time>2022-10-16T10:53:34.000Z</time>
      </trkpt>
      <trkpt lat="45.08366" lon="5.26749">
        <ele>198.2</ele>
        <time>2022-10-16T10:53:35.000Z</time>
      </trkpt>
      <trkpt lat="45.08362" lon="5.26747">
        <ele>198.1</ele>
        <time>2022-10-16T10:53:36.000Z</time>
      </trkpt>
      <trkpt lat="45.08357" lon="5.26745">
        <ele>198</ele>
        <time>2022-10-16T10:53:37.000Z</time>
      </trkpt>
      <trkpt lat="45.08353" lon="5.26744">
        <ele>197.9</ele>
        <time>2022-10-16T10:53:38.000Z</time>
      </trkpt>
      <trkpt lat="45.08348" lon="5.26742">
        <ele>197.8</ele>
        <time>2022-10-16T10:53:39.000Z</time>
      </trkpt>
      <trkpt lat="45.08344" lon="5.2674">
        <ele>197.7</ele>
        <time>2022-10-16T10:53:40.000Z</time>
      </trkpt>
      <trkpt lat="45.08339" lon="5.26739">
        <ele>197.6</ele>
        <time>2022-10-16T10:53:41.000Z</time>
      </trkpt>
      <trkpt lat="45.08334" lon="5.26738">
        <ele>197.5</ele>
        <time>2022-10-16T10:53:42.000Z</time>
      </trkpt>
      <trkpt lat="45.0833" lon="5.26737">
        <ele>197.5</ele>
        <time>2022-10-16T10:53:43.000Z</time>
      </trkpt>
      <trkpt lat="45.08325" lon="5.26736">
        <ele>197.5</ele>
        <time>2022-10-16T10:53:44.000Z</time>
      </trkpt>
      <trkpt lat="45.0832" lon="5.26736">
        <ele>197.5</ele>
        <time>2022-10-16T10:53:45.000Z</time>
      </trkpt>
      <trkpt lat="45.08316" lon="5.26736">
        <ele>197.5</ele>
        <time>2022-10-16T10:53:46.000Z</time>
      </trkpt>
      <trkpt lat="45.08311" lon="5.26736">
        <ele>197.5</ele>
        <time>2022-10-16T10:53:47.000Z</time>
      </trkpt>
      <trkpt lat="45.08307" lon="5.26737">
        <ele>197.5</ele>
        <time>2022-10-16T10:53:48.000Z</time>
      </trkpt>
      <trkpt lat="45.08302" lon="5.26738">
        <ele>197.3</ele>
        <time>2022-10-16T10:53:49.000Z</time>
      </trkpt>
      <trkpt lat="45.08298" lon="5.26739">
        <ele>197</ele>
        <time>2022-10-16T10:53:50.000Z</time>
      </trkpt>
      <trkpt lat="45.08293" lon="5.2674">
        <ele>196.8</ele>
        <time>2022-10-16T10:53:51.000Z</time>
      </trkpt>
      <trkpt lat="45.08289" lon="5.2674">
        <ele>196.6</ele>
        <time>2022-10-16T10:53:52.000Z</time>
      </trkpt>
      <trkpt lat="45.08285" lon="5.26739">
        <ele>196.5</ele>
        <time>2022-10-16T10:53:53.000Z</time>
      </trkpt>
      <trkpt lat="45.08281" lon="5.26739">
        <ele>196.4</ele>
        <time>2022-10-16T10:53:54.000Z</time>
      </trkpt>
      <trkpt lat="45.08277" lon="5.26738">
        <ele>196.3</ele>
        <time>2022-10-16T10:53:55.000Z</time>
      </trkpt>
      <trkpt lat="45.08273" lon="5.26737">
        <ele>196</ele>
        <time>2022-10-16T10:53:56.000Z</time>
      </trkpt>
      <trkpt lat="45.08268" lon="5.26735">
        <ele>195.9</ele>
        <time>2022-10-16T10:53:57.000Z</time>
      </trkpt>
      <trkpt lat="45.08263" lon="5.26734">
        <ele>195.8</ele>
        <time>2022-10-16T10:53:58.000Z</time>
      </trkpt>
      <trkpt lat="45.08259" lon="5.26732">
        <ele>195.7</ele>
        <time>2022-10-16T10:53:59.000Z</time>
      </trkpt>
      <trkpt lat="45.08254" lon="5.26731">
        <ele>195.7</ele>
        <time>2022-10-16T10:54:00.000Z</time>
      </trkpt>
      <trkpt lat="45.0825" lon="5.26729">
        <ele>195.7</ele>
        <time>2022-10-16T10:54:01.000Z</time>
      </trkpt>
      <trkpt lat="45.08246" lon="5.26728">
        <ele>195.8</ele>
        <time>2022-10-16T10:54:02.000Z</time>
      </trkpt>
      <trkpt lat="45.08242" lon="5.26726">
        <ele>196</ele>
        <time>2022-10-16T10:54:03.000Z</time>
      </trkpt>
      <trkpt lat="45.08238" lon="5.26723">
        <ele>196.4</ele>
        <time>2022-10-16T10:54:04.000Z</time>
      </trkpt>
      <trkpt lat="45.08234" lon="5.2672">
        <ele>196.5</ele>
        <time>2022-10-16T10:54:05.000Z</time>
      </trkpt>
      <trkpt lat="45.0823" lon="5.26717">
        <ele>196.4</ele>
        <time>2022-10-16T10:54:06.000Z</time>
      </trkpt>
      <trkpt lat="45.08225" lon="5.26713">
        <ele>196.4</ele>
        <time>2022-10-16T10:54:07.000Z</time>
      </trkpt>
      <trkpt lat="45.08221" lon="5.2671">
        <ele>196.4</ele>
        <time>2022-10-16T10:54:08.000Z</time>
      </trkpt>
      <trkpt lat="45.08217" lon="5.26706">
        <ele>196.5</ele>
        <time>2022-10-16T10:54:09.000Z</time>
      </trkpt>
      <trkpt lat="45.08213" lon="5.26702">
        <ele>196.6</ele>
        <time>2022-10-16T10:54:10.000Z</time>
      </trkpt>
      <trkpt lat="45.08208" lon="5.26698">
        <ele>196.8</ele>
        <time>2022-10-16T10:54:11.000Z</time>
      </trkpt>
      <trkpt lat="45.08204" lon="5.26695">
        <ele>197</ele>
        <time>2022-10-16T10:54:12.000Z</time>
      </trkpt>
      <trkpt lat="45.082" lon="5.26691">
        <ele>197</ele>
        <time>2022-10-16T10:54:13.000Z</time>
      </trkpt>
      <trkpt lat="45.08196" lon="5.26687">
        <ele>197</ele>
        <time>2022-10-16T10:54:14.000Z</time>
      </trkpt>
      <trkpt lat="45.08192" lon="5.26683">
        <ele>197</ele>
        <time>2022-10-16T10:54:15.000Z</time>
      </trkpt>
      <trkpt lat="45.08188" lon="5.2668">
        <ele>196.9</ele>
        <time>2022-10-16T10:54:16.000Z</time>
      </trkpt>
      <trkpt lat="45.08184" lon="5.26677">
        <ele>196.9</ele>
        <time>2022-10-16T10:54:17.000Z</time>
      </trkpt>
      <trkpt lat="45.0818" lon="5.26674">
        <ele>196.9</ele>
        <time>2022-10-16T10:54:18.000Z</time>
      </trkpt>
      <trkpt lat="45.08175" lon="5.2667">
        <ele>196.9</ele>
        <time>2022-10-16T10:54:19.000Z</time>
      </trkpt>
      <trkpt lat="45.0817" lon="5.26666">
        <ele>197</ele>
        <time>2022-10-16T10:54:20.000Z</time>
      </trkpt>
      <trkpt lat="45.08166" lon="5.26663">
        <ele>197</ele>
        <time>2022-10-16T10:54:21.000Z</time>
      </trkpt>
      <trkpt lat="45.08161" lon="5.26659">
        <ele>196.9</ele>
        <time>2022-10-16T10:54:22.000Z</time>
      </trkpt>
      <trkpt lat="45.08157" lon="5.26656">
        <ele>196.8</ele>
        <time>2022-10-16T10:54:23.000Z</time>
      </trkpt>
      <trkpt lat="45.08152" lon="5.26651">
        <ele>196.8</ele>
        <time>2022-10-16T10:54:24.000Z</time>
      </trkpt>
      <trkpt lat="45.08148" lon="5.26648">
        <ele>196.8</ele>
        <time>2022-10-16T10:54:25.000Z</time>
      </trkpt>
      <trkpt lat="45.08143" lon="5.26644">
        <ele>196.8</ele>
        <time>2022-10-16T10:54:26.000Z</time>
      </trkpt>
      <trkpt lat="45.08139" lon="5.2664">
        <ele>197</ele>
        <time>2022-10-16T10:54:27.000Z</time>
      </trkpt>
      <trkpt lat="45.08134" lon="5.26636">
        <ele>196.8</ele>
        <time>2022-10-16T10:54:28.000Z</time>
      </trkpt>
      <trkpt lat="45.0813" lon="5.26632">
        <ele>196.8</ele>
        <time>2022-10-16T10:54:29.000Z</time>
      </trkpt>
      <trkpt lat="45.08126" lon="5.26628">
        <ele>196.7</ele>
        <time>2022-10-16T10:54:30.000Z</time>
      </trkpt>
      <trkpt lat="45.08122" lon="5.26624">
        <ele>196.7</ele>
        <time>2022-10-16T10:54:31.000Z</time>
      </trkpt>
      <trkpt lat="45.08118" lon="5.26621">
        <ele>196.7</ele>
        <time>2022-10-16T10:54:32.000Z</time>
      </trkpt>
      <trkpt lat="45.08113" lon="5.26618">
        <ele>196.8</ele>
        <time>2022-10-16T10:54:33.000Z</time>
      </trkpt>
      <trkpt lat="45.0811" lon="5.26616">
        <ele>196.7</ele>
        <time>2022-10-16T10:54:34.000Z</time>
      </trkpt>
      <trkpt lat="45.08106" lon="5.26612">
        <ele>196.4</ele>
        <time>2022-10-16T10:54:35.000Z</time>
      </trkpt>
      <trkpt lat="45.08102" lon="5.26609">
        <ele>196.1</ele>
        <time>2022-10-16T10:54:36.000Z</time>
      </trkpt>
      <trkpt lat="45.08098" lon="5.26606">
        <ele>195.9</ele>
        <time>2022-10-16T10:54:37.000Z</time>
      </trkpt>
      <trkpt lat="45.08095" lon="5.26602">
        <ele>195.8</ele>
        <time>2022-10-16T10:54:38.000Z</time>
      </trkpt>
      <trkpt lat="45.08091" lon="5.26598">
        <ele>195.9</ele>
        <time>2022-10-16T10:54:39.000Z</time>
      </trkpt>
      <trkpt lat="45.08088" lon="5.26594">
        <ele>196.1</ele>
        <time>2022-10-16T10:54:40.000Z</time>
      </trkpt>
      <trkpt lat="45.08084" lon="5.26589">
        <ele>196.4</ele>
        <time>2022-10-16T10:54:41.000Z</time>
      </trkpt>
      <trkpt lat="45.08081" lon="5.26584">
        <ele>196.3</ele>
        <time>2022-10-16T10:54:42.000Z</time>
      </trkpt>
      <trkpt lat="45.08077" lon="5.2658">
        <ele>195.5</ele>
        <time>2022-10-16T10:54:43.000Z</time>
      </trkpt>
      <trkpt lat="45.08072" lon="5.26576">
        <ele>194.9</ele>
        <time>2022-10-16T10:54:44.000Z</time>
      </trkpt>
      <trkpt lat="45.08068" lon="5.26572">
        <ele>194.6</ele>
        <time>2022-10-16T10:54:45.000Z</time>
      </trkpt>
      <trkpt lat="45.08064" lon="5.26568">
        <ele>194.7</ele>
        <time>2022-10-16T10:54:46.000Z</time>
      </trkpt>
      <trkpt lat="45.0806" lon="5.26564">
        <ele>195.2</ele>
        <time>2022-10-16T10:54:47.000Z</time>
      </trkpt>
      <trkpt lat="45.08057" lon="5.2656">
        <ele>196</ele>
        <time>2022-10-16T10:54:48.000Z</time>
      </trkpt>
      <trkpt lat="45.08053" lon="5.26556">
        <ele>196.6</ele>
        <time>2022-10-16T10:54:49.000Z</time>
      </trkpt>
      <trkpt lat="45.08048" lon="5.26553">
        <ele>196.3</ele>
        <time>2022-10-16T10:54:50.000Z</time>
      </trkpt>
      <trkpt lat="45.08044" lon="5.2655">
        <ele>196</ele>
        <time>2022-10-16T10:54:51.000Z</time>
      </trkpt>
      <trkpt lat="45.08039" lon="5.26546">
        <ele>195.8</ele>
        <time>2022-10-16T10:54:52.000Z</time>
      </trkpt>
      <trkpt lat="45.08035" lon="5.26543">
        <ele>195.8</ele>
        <time>2022-10-16T10:54:53.000Z</time>
      </trkpt>
      <trkpt lat="45.08031" lon="5.26539">
        <ele>195.9</ele>
        <time>2022-10-16T10:54:54.000Z</time>
      </trkpt>
      <trkpt lat="45.08026" lon="5.26535">
        <ele>196</ele>
        <time>2022-10-16T10:54:55.000Z</time>
      </trkpt>
      <trkpt lat="45.08023" lon="5.26532">
        <ele>195.9</ele>
        <time>2022-10-16T10:54:56.000Z</time>
      </trkpt>
      <trkpt lat="45.08019" lon="5.26529">
        <ele>195.9</ele>
        <time>2022-10-16T10:54:57.000Z</time>
      </trkpt>
      <trkpt lat="45.08015" lon="5.26525">
        <ele>195.8</ele>
        <time>2022-10-16T10:54:58.000Z</time>
      </trkpt>
      <trkpt lat="45.08012" lon="5.26521">
        <ele>195.8</ele>
        <time>2022-10-16T10:54:59.000Z</time>
      </trkpt>
      <trkpt lat="45.08008" lon="5.26518">
        <ele>195.7</ele>
        <time>2022-10-16T10:55:00.000Z</time>
      </trkpt>
      <trkpt lat="45.08005" lon="5.26515">
        <ele>195.8</ele>
        <time>2022-10-16T10:55:01.000Z</time>
      </trkpt>
      <trkpt lat="45.08002" lon="5.26511">
        <ele>195.9</ele>
        <time>2022-10-16T10:55:02.000Z</time>
      </trkpt>
      <trkpt lat="45.07998" lon="5.26508">
        <ele>195.9</ele>
        <time>2022-10-16T10:55:03.000Z</time>
      </trkpt>
      <trkpt lat="45.07995" lon="5.26505">
        <ele>195.7</ele>
        <time>2022-10-16T10:55:04.000Z</time>
      </trkpt>
      <trkpt lat="45.07991" lon="5.26501">
        <ele>195.6</ele>
        <time>2022-10-16T10:55:05.000Z</time>
      </trkpt>
      <trkpt lat="45.07987" lon="5.26498">
        <ele>195.3</ele>
        <time>2022-10-16T10:55:06.000Z</time>
      </trkpt>
      <trkpt lat="45.07983" lon="5.26493">
        <ele>195.3</ele>
        <time>2022-10-16T10:55:07.000Z</time>
      </trkpt>
      <trkpt lat="45.0798" lon="5.26489">
        <ele>195.3</ele>
        <time>2022-10-16T10:55:08.000Z</time>
      </trkpt>
      <trkpt lat="45.07976" lon="5.26486">
        <ele>195.4</ele>
        <time>2022-10-16T10:55:09.000Z</time>
      </trkpt>
      <trkpt lat="45.07972" lon="5.26482">
        <ele>195.6</ele>
        <time>2022-10-16T10:55:10.000Z</time>
      </trkpt>
      <trkpt lat="45.07968" lon="5.26477">
        <ele>196</ele>
        <time>2022-10-16T10:55:11.000Z</time>
      </trkpt>
      <trkpt lat="45.07964" lon="5.26473">
        <ele>196.4</ele>
        <time>2022-10-16T10:55:12.000Z</time>
      </trkpt>
      <trkpt lat="45.07961" lon="5.26468">
        <ele>196.4</ele>
        <time>2022-10-16T10:55:13.000Z</time>
      </trkpt>
      <trkpt lat="45.07959" lon="5.26463">
        <ele>196.5</ele>
        <time>2022-10-16T10:55:14.000Z</time>
      </trkpt>
      <trkpt lat="45.07956" lon="5.26458">
        <ele>196.6</ele>
        <time>2022-10-16T10:55:15.000Z</time>
      </trkpt>
      <trkpt lat="45.07954" lon="5.26453">
        <ele>196.8</ele>
        <time>2022-10-16T10:55:16.000Z</time>
      </trkpt>
      <trkpt lat="45.07951" lon="5.26448">
        <ele>197</ele>
        <time>2022-10-16T10:55:17.000Z</time>
      </trkpt>
      <trkpt lat="45.07949" lon="5.26443">
        <ele>197.2</ele>
        <time>2022-10-16T10:55:18.000Z</time>
      </trkpt>
      <trkpt lat="45.07948" lon="5.26439">
        <ele>197.5</ele>
        <time>2022-10-16T10:55:19.000Z</time>
      </trkpt>
      <trkpt lat="45.07946" lon="5.26435">
        <ele>197.7</ele>
        <time>2022-10-16T10:55:20.000Z</time>
      </trkpt>
      <trkpt lat="45.07944" lon="5.26431">
        <ele>198</ele>
        <time>2022-10-16T10:55:21.000Z</time>
      </trkpt>
      <trkpt lat="45.07943" lon="5.26428">
        <ele>198.2</ele>
        <time>2022-10-16T10:55:22.000Z</time>
      </trkpt>
      <trkpt lat="45.07941" lon="5.26424">
        <ele>198.4</ele>
        <time>2022-10-16T10:55:24.000Z</time>
      </trkpt>
      <trkpt lat="45.07939" lon="5.26421">
        <ele>198.5</ele>
        <time>2022-10-16T10:55:26.000Z</time>
      </trkpt>
      <trkpt lat="45.07937" lon="5.26418">
        <ele>198.7</ele>
        <time>2022-10-16T10:55:28.000Z</time>
      </trkpt>
      <trkpt lat="45.07935" lon="5.26416">
        <ele>198.7</ele>
        <time>2022-10-16T10:55:29.000Z</time>
      </trkpt>
      <trkpt lat="45.07933" lon="5.26415">
        <ele>198.6</ele>
        <time>2022-10-16T10:55:30.000Z</time>
      </trkpt>
      <trkpt lat="45.07933" lon="5.26412">
        <ele>198.7</ele>
        <time>2022-10-16T10:55:31.000Z</time>
      </trkpt>
      <trkpt lat="45.07933" lon="5.26408">
        <ele>198.7</ele>
        <time>2022-10-16T10:55:32.000Z</time>
      </trkpt>
      <trkpt lat="45.07934" lon="5.26404">
        <ele>198.8</ele>
        <time>2022-10-16T10:55:33.000Z</time>
      </trkpt>
      <trkpt lat="45.07936" lon="5.26401">
        <ele>198.9</ele>
        <time>2022-10-16T10:55:34.000Z</time>
      </trkpt>
      <trkpt lat="45.07938" lon="5.26397">
        <ele>198.9</ele>
        <time>2022-10-16T10:55:35.000Z</time>
      </trkpt>
      <trkpt lat="45.07939" lon="5.26393">
        <ele>199</ele>
        <time>2022-10-16T10:55:36.000Z</time>
      </trkpt>
      <trkpt lat="45.0794" lon="5.26389">
        <ele>199</ele>
        <time>2022-10-16T10:55:37.000Z</time>
      </trkpt>
      <trkpt lat="45.0794" lon="5.26385">
        <ele>199.1</ele>
        <time>2022-10-16T10:55:38.000Z</time>
      </trkpt>
      <trkpt lat="45.07941" lon="5.26381">
        <ele>199.2</ele>
        <time>2022-10-16T10:55:39.000Z</time>
      </trkpt>
      <trkpt lat="45.07941" lon="5.26377">
        <ele>199.4</ele>
        <time>2022-10-16T10:55:40.000Z</time>
      </trkpt>
      <trkpt lat="45.07941" lon="5.26373">
        <ele>199.5</ele>
        <time>2022-10-16T10:55:41.000Z</time>
      </trkpt>
      <trkpt lat="45.07942" lon="5.2637">
        <ele>199.6</ele>
        <time>2022-10-16T10:55:42.000Z</time>
      </trkpt>
      <trkpt lat="45.07942" lon="5.26365">
        <ele>199.8</ele>
        <time>2022-10-16T10:55:43.000Z</time>
      </trkpt>
      <trkpt lat="45.07943" lon="5.26361">
        <ele>200</ele>
        <time>2022-10-16T10:55:44.000Z</time>
      </trkpt>
      <trkpt lat="45.07944" lon="5.26357">
        <ele>200.1</ele>
        <time>2022-10-16T10:55:45.000Z</time>
      </trkpt>
      <trkpt lat="45.07946" lon="5.26354">
        <ele>200.3</ele>
        <time>2022-10-16T10:55:46.000Z</time>
      </trkpt>
      <trkpt lat="45.07947" lon="5.26351">
        <ele>200.4</ele>
        <time>2022-10-16T10:55:47.000Z</time>
      </trkpt>
      <trkpt lat="45.07949" lon="5.26348">
        <ele>200.6</ele>
        <time>2022-10-16T10:55:48.000Z</time>
      </trkpt>
      <trkpt lat="45.0795" lon="5.26345">
        <ele>200.7</ele>
        <time>2022-10-16T10:55:49.000Z</time>
      </trkpt>
      <trkpt lat="45.07952" lon="5.26341">
        <ele>200.8</ele>
        <time>2022-10-16T10:55:50.000Z</time>
      </trkpt>
      <trkpt lat="45.07954" lon="5.26338">
        <ele>200.9</ele>
        <time>2022-10-16T10:55:51.000Z</time>
      </trkpt>
      <trkpt lat="45.07956" lon="5.26334">
        <ele>201</ele>
        <time>2022-10-16T10:55:52.000Z</time>
      </trkpt>
      <trkpt lat="45.07958" lon="5.26331">
        <ele>201.1</ele>
        <time>2022-10-16T10:55:53.000Z</time>
      </trkpt>
      <trkpt lat="45.07959" lon="5.26328">
        <ele>201.3</ele>
        <time>2022-10-16T10:55:54.000Z</time>
      </trkpt>
      <trkpt lat="45.07961" lon="5.26325">
        <ele>201.5</ele>
        <time>2022-10-16T10:55:55.000Z</time>
      </trkpt>
      <trkpt lat="45.07963" lon="5.26323">
        <ele>201.6</ele>
        <time>2022-10-16T10:55:56.000Z</time>
      </trkpt>
      <trkpt lat="45.07964" lon="5.2632">
        <ele>201.8</ele>
        <time>2022-10-16T10:55:57.000Z</time>
      </trkpt>
      <trkpt lat="45.07966" lon="5.26317">
        <ele>202.1</ele>
        <time>2022-10-16T10:55:58.000Z</time>
      </trkpt>
      <trkpt lat="45.07968" lon="5.26313">
        <ele>202.3</ele>
        <time>2022-10-16T10:55:59.000Z</time>
      </trkpt>
      <trkpt lat="45.0797" lon="5.26309">
        <ele>202.6</ele>
        <time>2022-10-16T10:56:00.000Z</time>
      </trkpt>
      <trkpt lat="45.07971" lon="5.26306">
        <ele>202.9</ele>
        <time>2022-10-16T10:56:01.000Z</time>
      </trkpt>
      <trkpt lat="45.07973" lon="5.26302">
        <ele>203.1</ele>
        <time>2022-10-16T10:56:02.000Z</time>
      </trkpt>
      <trkpt lat="45.07974" lon="5.26299">
        <ele>203.2</ele>
        <time>2022-10-16T10:56:03.000Z</time>
      </trkpt>
      <trkpt lat="45.07976" lon="5.26296">
        <ele>203.3</ele>
        <time>2022-10-16T10:56:04.000Z</time>
      </trkpt>
      <trkpt lat="45.07978" lon="5.26293">
        <ele>203.4</ele>
        <time>2022-10-16T10:56:05.000Z</time>
      </trkpt>
      <trkpt lat="45.07979" lon="5.26291">
        <ele>203.5</ele>
        <time>2022-10-16T10:56:06.000Z</time>
      </trkpt>
      <trkpt lat="45.0798" lon="5.26289">
        <ele>203.6</ele>
        <time>2022-10-16T10:56:07.000Z</time>
      </trkpt>
      <trkpt lat="45.07983" lon="5.26285">
        <ele>203.7</ele>
        <time>2022-10-16T10:56:09.000Z</time>
      </trkpt>
      <trkpt lat="45.07982" lon="5.26281">
        <ele>203.9</ele>
        <time>2022-10-16T10:56:11.000Z</time>
      </trkpt>
      <trkpt lat="45.07981" lon="5.26279">
        <ele>204</ele>
        <time>2022-10-16T10:56:12.000Z</time>
      </trkpt>
      <trkpt lat="45.0798" lon="5.26276">
        <ele>204</ele>
        <time>2022-10-16T10:56:14.000Z</time>
      </trkpt>
      <trkpt lat="45.07978" lon="5.26274">
        <ele>204</ele>
        <time>2022-10-16T10:56:17.000Z</time>
      </trkpt>
      <trkpt lat="45.07976" lon="5.26274">
        <ele>204</ele>
        <time>2022-10-16T10:56:18.000Z</time>
      </trkpt>
      <trkpt lat="45.07973" lon="5.26273">
        <ele>204</ele>
        <time>2022-10-16T10:56:19.000Z</time>
      </trkpt>
      <trkpt lat="45.0797" lon="5.26273">
        <ele>203.9</ele>
        <time>2022-10-16T10:56:20.000Z</time>
      </trkpt>
      <trkpt lat="45.07967" lon="5.26272">
        <ele>203.7</ele>
        <time>2022-10-16T10:56:21.000Z</time>
      </trkpt>
      <trkpt lat="45.07964" lon="5.26272">
        <ele>203.6</ele>
        <time>2022-10-16T10:56:22.000Z</time>
      </trkpt>
      <trkpt lat="45.07961" lon="5.2627">
        <ele>203.4</ele>
        <time>2022-10-16T10:56:23.000Z</time>
      </trkpt>
      <trkpt lat="45.07958" lon="5.26269">
        <ele>203.3</ele>
        <time>2022-10-16T10:56:24.000Z</time>
      </trkpt>
      <trkpt lat="45.07955" lon="5.26268">
        <ele>203.2</ele>
        <time>2022-10-16T10:56:25.000Z</time>
      </trkpt>
      <trkpt lat="45.07952" lon="5.26267">
        <ele>203.1</ele>
        <time>2022-10-16T10:56:26.000Z</time>
      </trkpt>
      <trkpt lat="45.07948" lon="5.26267">
        <ele>202.9</ele>
        <time>2022-10-16T10:56:27.000Z</time>
      </trkpt>
      <trkpt lat="45.07943" lon="5.26266">
        <ele>202.8</ele>
        <time>2022-10-16T10:56:28.000Z</time>
      </trkpt>
      <trkpt lat="45.07938" lon="5.26265">
        <ele>202.7</ele>
        <time>2022-10-16T10:56:29.000Z</time>
      </trkpt>
      <trkpt lat="45.07934" lon="5.26264">
        <ele>202.6</ele>
        <time>2022-10-16T10:56:30.000Z</time>
      </trkpt>
      <trkpt lat="45.0793" lon="5.26263">
        <ele>202.6</ele>
        <time>2022-10-16T10:56:31.000Z</time>
      </trkpt>
      <trkpt lat="45.07926" lon="5.26262">
        <ele>202.5</ele>
        <time>2022-10-16T10:56:32.000Z</time>
      </trkpt>
      <trkpt lat="45.07922" lon="5.26261">
        <ele>202.4</ele>
        <time>2022-10-16T10:56:33.000Z</time>
      </trkpt>
      <trkpt lat="45.07919" lon="5.26259">
        <ele>202.4</ele>
        <time>2022-10-16T10:56:34.000Z</time>
      </trkpt>
      <trkpt lat="45.07915" lon="5.26258">
        <ele>202.4</ele>
        <time>2022-10-16T10:56:35.000Z</time>
      </trkpt>
      <trkpt lat="45.07911" lon="5.26256">
        <ele>202.4</ele>
        <time>2022-10-16T10:56:36.000Z</time>
      </trkpt>
      <trkpt lat="45.07906" lon="5.26255">
        <ele>202.3</ele>
        <time>2022-10-16T10:56:37.000Z</time>
      </trkpt>
      <trkpt lat="45.07902" lon="5.26253">
        <ele>202.3</ele>
        <time>2022-10-16T10:56:38.000Z</time>
      </trkpt>
      <trkpt lat="45.07898" lon="5.26251">
        <ele>202.2</ele>
        <time>2022-10-16T10:56:39.000Z</time>
      </trkpt>
      <trkpt lat="45.07893" lon="5.26249">
        <ele>202.1</ele>
        <time>2022-10-16T10:56:40.000Z</time>
      </trkpt>
      <trkpt lat="45.07889" lon="5.26245">
        <ele>202</ele>
        <time>2022-10-16T10:56:41.000Z</time>
      </trkpt>
      <trkpt lat="45.07885" lon="5.26243">
        <ele>201.8</ele>
        <time>2022-10-16T10:56:42.000Z</time>
      </trkpt>
      <trkpt lat="45.07882" lon="5.2624">
        <ele>201.6</ele>
        <time>2022-10-16T10:56:43.000Z</time>
      </trkpt>
      <trkpt lat="45.07879" lon="5.26237">
        <ele>201.5</ele>
        <time>2022-10-16T10:56:44.000Z</time>
      </trkpt>
      <trkpt lat="45.07876" lon="5.26233">
        <ele>201.4</ele>
        <time>2022-10-16T10:56:45.000Z</time>
      </trkpt>
      <trkpt lat="45.07873" lon="5.26229">
        <ele>201.3</ele>
        <time>2022-10-16T10:56:46.000Z</time>
      </trkpt>
      <trkpt lat="45.07871" lon="5.26225">
        <ele>201.3</ele>
        <time>2022-10-16T10:56:47.000Z</time>
      </trkpt>
      <trkpt lat="45.07868" lon="5.26222">
        <ele>201.3</ele>
        <time>2022-10-16T10:56:48.000Z</time>
      </trkpt>
      <trkpt lat="45.07865" lon="5.26218">
        <ele>201.4</ele>
        <time>2022-10-16T10:56:49.000Z</time>
      </trkpt>
      <trkpt lat="45.07863" lon="5.26215">
        <ele>201.6</ele>
        <time>2022-10-16T10:56:50.000Z</time>
      </trkpt>
      <trkpt lat="45.07861" lon="5.26212">
        <ele>201.7</ele>
        <time>2022-10-16T10:56:51.000Z</time>
      </trkpt>
      <trkpt lat="45.07859" lon="5.26208">
        <ele>202</ele>
        <time>2022-10-16T10:56:52.000Z</time>
      </trkpt>
      <trkpt lat="45.07857" lon="5.26204">
        <ele>202.2</ele>
        <time>2022-10-16T10:56:53.000Z</time>
      </trkpt>
      <trkpt lat="45.07856" lon="5.26199">
        <ele>202.5</ele>
        <time>2022-10-16T10:56:54.000Z</time>
      </trkpt>
      <trkpt lat="45.07854" lon="5.26196">
        <ele>202.7</ele>
        <time>2022-10-16T10:56:55.000Z</time>
      </trkpt>
      <trkpt lat="45.07852" lon="5.26192">
        <ele>202.7</ele>
        <time>2022-10-16T10:56:56.000Z</time>
      </trkpt>
      <trkpt lat="45.0785" lon="5.26188">
        <ele>202.7</ele>
        <time>2022-10-16T10:56:57.000Z</time>
      </trkpt>
      <trkpt lat="45.07847" lon="5.26184">
        <ele>202.7</ele>
        <time>2022-10-16T10:56:58.000Z</time>
      </trkpt>
      <trkpt lat="45.07845" lon="5.26179">
        <ele>202.7</ele>
        <time>2022-10-16T10:56:59.000Z</time>
      </trkpt>
      <trkpt lat="45.07842" lon="5.26175">
        <ele>202.8</ele>
        <time>2022-10-16T10:57:00.000Z</time>
      </trkpt>
      <trkpt lat="45.07841" lon="5.26171">
        <ele>202.9</ele>
        <time>2022-10-16T10:57:01.000Z</time>
      </trkpt>
      <trkpt lat="45.07839" lon="5.26166">
        <ele>203</ele>
        <time>2022-10-16T10:57:02.000Z</time>
      </trkpt>
      <trkpt lat="45.07837" lon="5.26161">
        <ele>203.2</ele>
        <time>2022-10-16T10:57:03.000Z</time>
      </trkpt>
      <trkpt lat="45.07835" lon="5.26156">
        <ele>203.4</ele>
        <time>2022-10-16T10:57:04.000Z</time>
      </trkpt>
      <trkpt lat="45.07833" lon="5.26151">
        <ele>203.5</ele>
        <time>2022-10-16T10:57:05.000Z</time>
      </trkpt>
      <trkpt lat="45.07831" lon="5.26146">
        <ele>203.6</ele>
        <time>2022-10-16T10:57:06.000Z</time>
      </trkpt>
      <trkpt lat="45.07829" lon="5.26141">
        <ele>203.6</ele>
        <time>2022-10-16T10:57:07.000Z</time>
      </trkpt>
      <trkpt lat="45.07827" lon="5.26137">
        <ele>203.5</ele>
        <time>2022-10-16T10:57:08.000Z</time>
      </trkpt>
      <trkpt lat="45.07825" lon="5.26132">
        <ele>203.4</ele>
        <time>2022-10-16T10:57:09.000Z</time>
      </trkpt>
      <trkpt lat="45.07822" lon="5.26128">
        <ele>203.3</ele>
        <time>2022-10-16T10:57:10.000Z</time>
      </trkpt>
      <trkpt lat="45.0782" lon="5.26124">
        <ele>203.3</ele>
        <time>2022-10-16T10:57:11.000Z</time>
      </trkpt>
      <trkpt lat="45.07816" lon="5.26121">
        <ele>203.3</ele>
        <time>2022-10-16T10:57:12.000Z</time>
      </trkpt>
      <trkpt lat="45.07813" lon="5.26118">
        <ele>203.4</ele>
        <time>2022-10-16T10:57:13.000Z</time>
      </trkpt>
      <trkpt lat="45.0781" lon="5.26114">
        <ele>203.7</ele>
        <time>2022-10-16T10:57:14.000Z</time>
      </trkpt>
      <trkpt lat="45.07807" lon="5.26112">
        <ele>203.9</ele>
        <time>2022-10-16T10:57:15.000Z</time>
      </trkpt>
      <trkpt lat="45.07804" lon="5.2611">
        <ele>203.8</ele>
        <time>2022-10-16T10:57:16.000Z</time>
      </trkpt>
      <trkpt lat="45.078" lon="5.26107">
        <ele>203.5</ele>
        <time>2022-10-16T10:57:17.000Z</time>
      </trkpt>
      <trkpt lat="45.07797" lon="5.26105">
        <ele>203.3</ele>
        <time>2022-10-16T10:57:18.000Z</time>
      </trkpt>
      <trkpt lat="45.07794" lon="5.26103">
        <ele>203.1</ele>
        <time>2022-10-16T10:57:19.000Z</time>
      </trkpt>
      <trkpt lat="45.07789" lon="5.261">
        <ele>202.9</ele>
        <time>2022-10-16T10:57:20.000Z</time>
      </trkpt>
      <trkpt lat="45.07785" lon="5.26097">
        <ele>202.8</ele>
        <time>2022-10-16T10:57:21.000Z</time>
      </trkpt>
      <trkpt lat="45.0778" lon="5.26093">
        <ele>202.7</ele>
        <time>2022-10-16T10:57:22.000Z</time>
      </trkpt>
      <trkpt lat="45.07776" lon="5.2609">
        <ele>202.7</ele>
        <time>2022-10-16T10:57:23.000Z</time>
      </trkpt>
      <trkpt lat="45.07772" lon="5.26086">
        <ele>202.5</ele>
        <time>2022-10-16T10:57:24.000Z</time>
      </trkpt>
      <trkpt lat="45.07768" lon="5.26083">
        <ele>202.3</ele>
        <time>2022-10-16T10:57:25.000Z</time>
      </trkpt>
      <trkpt lat="45.07764" lon="5.26081">
        <ele>202.1</ele>
        <time>2022-10-16T10:57:26.000Z</time>
      </trkpt>
      <trkpt lat="45.0776" lon="5.26078">
        <ele>201.9</ele>
        <time>2022-10-16T10:57:27.000Z</time>
      </trkpt>
      <trkpt lat="45.07756" lon="5.26074">
        <ele>201.7</ele>
        <time>2022-10-16T10:57:28.000Z</time>
      </trkpt>
      <trkpt lat="45.07753" lon="5.26071">
        <ele>201.6</ele>
        <time>2022-10-16T10:57:29.000Z</time>
      </trkpt>
      <trkpt lat="45.07749" lon="5.26068">
        <ele>201.5</ele>
        <time>2022-10-16T10:57:30.000Z</time>
      </trkpt>
      <trkpt lat="45.07746" lon="5.26065">
        <ele>201.5</ele>
        <time>2022-10-16T10:57:31.000Z</time>
      </trkpt>
      <trkpt lat="45.07742" lon="5.26062">
        <ele>201.5</ele>
        <time>2022-10-16T10:57:32.000Z</time>
      </trkpt>
      <trkpt lat="45.07739" lon="5.26058">
        <ele>201.5</ele>
        <time>2022-10-16T10:57:33.000Z</time>
      </trkpt>
      <trkpt lat="45.07736" lon="5.26055">
        <ele>201.5</ele>
        <time>2022-10-16T10:57:34.000Z</time>
      </trkpt>
      <trkpt lat="45.07733" lon="5.26051">
        <ele>201.5</ele>
        <time>2022-10-16T10:57:35.000Z</time>
      </trkpt>
      <trkpt lat="45.07733" lon="5.26045">
        <ele>201.6</ele>
        <time>2022-10-16T10:57:37.000Z</time>
      </trkpt>
      <trkpt lat="45.07733" lon="5.2604">
        <ele>201.7</ele>
        <time>2022-10-16T10:57:38.000Z</time>
      </trkpt>
      <trkpt lat="45.07733" lon="5.26035">
        <ele>201.8</ele>
        <time>2022-10-16T10:57:39.000Z</time>
      </trkpt>
      <trkpt lat="45.07735" lon="5.26029">
        <ele>202</ele>
        <time>2022-10-16T10:57:40.000Z</time>
      </trkpt>
      <trkpt lat="45.07737" lon="5.26024">
        <ele>202.1</ele>
        <time>2022-10-16T10:57:41.000Z</time>
      </trkpt>
      <trkpt lat="45.07739" lon="5.2602">
        <ele>202.3</ele>
        <time>2022-10-16T10:57:42.000Z</time>
      </trkpt>
      <trkpt lat="45.07741" lon="5.26015">
        <ele>202.5</ele>
        <time>2022-10-16T10:57:43.000Z</time>
      </trkpt>
      <trkpt lat="45.07743" lon="5.26011">
        <ele>202.6</ele>
        <time>2022-10-16T10:57:44.000Z</time>
      </trkpt>
      <trkpt lat="45.07745" lon="5.26006">
        <ele>202.8</ele>
        <time>2022-10-16T10:57:45.000Z</time>
      </trkpt>
      <trkpt lat="45.07746" lon="5.26001">
        <ele>203</ele>
        <time>2022-10-16T10:57:46.000Z</time>
      </trkpt>
      <trkpt lat="45.07748" lon="5.25996">
        <ele>203.1</ele>
        <time>2022-10-16T10:57:47.000Z</time>
      </trkpt>
      <trkpt lat="45.0775" lon="5.25992">
        <ele>203.3</ele>
        <time>2022-10-16T10:57:48.000Z</time>
      </trkpt>
      <trkpt lat="45.07752" lon="5.25988">
        <ele>203.4</ele>
        <time>2022-10-16T10:57:49.000Z</time>
      </trkpt>
      <trkpt lat="45.07753" lon="5.25983">
        <ele>203.6</ele>
        <time>2022-10-16T10:57:50.000Z</time>
      </trkpt>
      <trkpt lat="45.07754" lon="5.25978">
        <ele>203.8</ele>
        <time>2022-10-16T10:57:51.000Z</time>
      </trkpt>
      <trkpt lat="45.07754" lon="5.25973">
        <ele>204</ele>
        <time>2022-10-16T10:57:52.000Z</time>
      </trkpt>
      <trkpt lat="45.07754" lon="5.25968">
        <ele>204</ele>
        <time>2022-10-16T10:57:53.000Z</time>
      </trkpt>
      <trkpt lat="45.07752" lon="5.25963">
        <ele>204</ele>
        <time>2022-10-16T10:57:54.000Z</time>
      </trkpt>
      <trkpt lat="45.07751" lon="5.25959">
        <ele>204</ele>
        <time>2022-10-16T10:57:55.000Z</time>
      </trkpt>
      <trkpt lat="45.07748" lon="5.25955">
        <ele>203.9</ele>
        <time>2022-10-16T10:57:56.000Z</time>
      </trkpt>
      <trkpt lat="45.07746" lon="5.25952">
        <ele>203.8</ele>
        <time>2022-10-16T10:57:57.000Z</time>
      </trkpt>
      <trkpt lat="45.07742" lon="5.25948">
        <ele>203.7</ele>
        <time>2022-10-16T10:57:58.000Z</time>
      </trkpt>
      <trkpt lat="45.07739" lon="5.25944">
        <ele>203.6</ele>
        <time>2022-10-16T10:57:59.000Z</time>
      </trkpt>
      <trkpt lat="45.07736" lon="5.25941">
        <ele>203.6</ele>
        <time>2022-10-16T10:58:00.000Z</time>
      </trkpt>
      <trkpt lat="45.07733" lon="5.25938">
        <ele>203.5</ele>
        <time>2022-10-16T10:58:01.000Z</time>
      </trkpt>
      <trkpt lat="45.0773" lon="5.25935">
        <ele>203.5</ele>
        <time>2022-10-16T10:58:02.000Z</time>
      </trkpt>
      <trkpt lat="45.07728" lon="5.25932">
        <ele>203.6</ele>
        <time>2022-10-16T10:58:03.000Z</time>
      </trkpt>
      <trkpt lat="45.07725" lon="5.25928">
        <ele>203.6</ele>
        <time>2022-10-16T10:58:04.000Z</time>
      </trkpt>
      <trkpt lat="45.07723" lon="5.25925">
        <ele>203.7</ele>
        <time>2022-10-16T10:58:05.000Z</time>
      </trkpt>
      <trkpt lat="45.0772" lon="5.25921">
        <ele>203.8</ele>
        <time>2022-10-16T10:58:06.000Z</time>
      </trkpt>
      <trkpt lat="45.07718" lon="5.25918">
        <ele>203.8</ele>
        <time>2022-10-16T10:58:07.000Z</time>
      </trkpt>
      <trkpt lat="45.07716" lon="5.25914">
        <ele>203.8</ele>
        <time>2022-10-16T10:58:08.000Z</time>
      </trkpt>
      <trkpt lat="45.07715" lon="5.25911">
        <ele>203.7</ele>
        <time>2022-10-16T10:58:09.000Z</time>
      </trkpt>
      <trkpt lat="45.07714" lon="5.25907">
        <ele>203.7</ele>
        <time>2022-10-16T10:58:10.000Z</time>
      </trkpt>
      <trkpt lat="45.07713" lon="5.25904">
        <ele>203.7</ele>
        <time>2022-10-16T10:58:11.000Z</time>
      </trkpt>
      <trkpt lat="45.07712" lon="5.259">
        <ele>203.6</ele>
        <time>2022-10-16T10:58:12.000Z</time>
      </trkpt>
      <trkpt lat="45.07711" lon="5.25895">
        <ele>203.6</ele>
        <time>2022-10-16T10:58:13.000Z</time>
      </trkpt>
      <trkpt lat="45.07709" lon="5.25891">
        <ele>203.5</ele>
        <time>2022-10-16T10:58:14.000Z</time>
      </trkpt>
      <trkpt lat="45.07708" lon="5.25887">
        <ele>203.5</ele>
        <time>2022-10-16T10:58:15.000Z</time>
      </trkpt>
      <trkpt lat="45.07707" lon="5.25882">
        <ele>203.6</ele>
        <time>2022-10-16T10:58:16.000Z</time>
      </trkpt>
      <trkpt lat="45.07705" lon="5.25878">
        <ele>203.6</ele>
        <time>2022-10-16T10:58:17.000Z</time>
      </trkpt>
      <trkpt lat="45.07703" lon="5.25873">
        <ele>203.7</ele>
        <time>2022-10-16T10:58:18.000Z</time>
      </trkpt>
      <trkpt lat="45.07702" lon="5.25868">
        <ele>203.8</ele>
        <time>2022-10-16T10:58:19.000Z</time>
      </trkpt>
      <trkpt lat="45.07701" lon="5.25864">
        <ele>203.9</ele>
        <time>2022-10-16T10:58:20.000Z</time>
      </trkpt>
      <trkpt lat="45.07699" lon="5.25859">
        <ele>204</ele>
        <time>2022-10-16T10:58:21.000Z</time>
      </trkpt>
      <trkpt lat="45.07697" lon="5.25855">
        <ele>204</ele>
        <time>2022-10-16T10:58:22.000Z</time>
      </trkpt>
      <trkpt lat="45.07695" lon="5.2585">
        <ele>204</ele>
        <time>2022-10-16T10:58:23.000Z</time>
      </trkpt>
      <trkpt lat="45.07693" lon="5.25846">
        <ele>204</ele>
        <time>2022-10-16T10:58:24.000Z</time>
      </trkpt>
      <trkpt lat="45.07692" lon="5.25841">
        <ele>204</ele>
        <time>2022-10-16T10:58:25.000Z</time>
      </trkpt>
      <trkpt lat="45.0769" lon="5.25837">
        <ele>204</ele>
        <time>2022-10-16T10:58:26.000Z</time>
      </trkpt>
      <trkpt lat="45.07688" lon="5.25832">
        <ele>204</ele>
        <time>2022-10-16T10:58:27.000Z</time>
      </trkpt>
      <trkpt lat="45.07686" lon="5.25828">
        <ele>204</ele>
        <time>2022-10-16T10:58:28.000Z</time>
      </trkpt>
      <trkpt lat="45.07685" lon="5.25824">
        <ele>204</ele>
        <time>2022-10-16T10:58:29.000Z</time>
      </trkpt>
      <trkpt lat="45.07683" lon="5.2582">
        <ele>204</ele>
        <time>2022-10-16T10:58:30.000Z</time>
      </trkpt>
      <trkpt lat="45.07681" lon="5.25817">
        <ele>204</ele>
        <time>2022-10-16T10:58:31.000Z</time>
      </trkpt>
      <trkpt lat="45.07681" lon="5.25813">
        <ele>204</ele>
        <time>2022-10-16T10:58:32.000Z</time>
      </trkpt>
      <trkpt lat="45.07679" lon="5.25809">
        <ele>204</ele>
        <time>2022-10-16T10:58:33.000Z</time>
      </trkpt>
      <trkpt lat="45.07676" lon="5.25805">
        <ele>204</ele>
        <time>2022-10-16T10:58:34.000Z</time>
      </trkpt>
      <trkpt lat="45.07671" lon="5.258">
        <ele>204.2</ele>
        <time>2022-10-16T10:58:35.000Z</time>
      </trkpt>
      <trkpt lat="45.07667" lon="5.25793">
        <ele>204.4</ele>
        <time>2022-10-16T10:58:36.000Z</time>
      </trkpt>
      <trkpt lat="45.07665" lon="5.25787">
        <ele>204.6</ele>
        <time>2022-10-16T10:58:37.000Z</time>
      </trkpt>
      <trkpt lat="45.07664" lon="5.25781">
        <ele>204.8</ele>
        <time>2022-10-16T10:58:38.000Z</time>
      </trkpt>
      <trkpt lat="45.07663" lon="5.25777">
        <ele>204.9</ele>
        <time>2022-10-16T10:58:39.000Z</time>
      </trkpt>
      <trkpt lat="45.07663" lon="5.25773">
        <ele>204.9</ele>
        <time>2022-10-16T10:58:40.000Z</time>
      </trkpt>
      <trkpt lat="45.07664" lon="5.25769">
        <ele>204.9</ele>
        <time>2022-10-16T10:58:41.000Z</time>
      </trkpt>
      <trkpt lat="45.07662" lon="5.25765">
        <ele>204.8</ele>
        <time>2022-10-16T10:58:42.000Z</time>
      </trkpt>
      <trkpt lat="45.0766" lon="5.25762">
        <ele>204.8</ele>
        <time>2022-10-16T10:58:43.000Z</time>
      </trkpt>
      <trkpt lat="45.07659" lon="5.25758">
        <ele>204.7</ele>
        <time>2022-10-16T10:58:44.000Z</time>
      </trkpt>
      <trkpt lat="45.07657" lon="5.25754">
        <ele>204.7</ele>
        <time>2022-10-16T10:58:45.000Z</time>
      </trkpt>
      <trkpt lat="45.07656" lon="5.2575">
        <ele>204.6</ele>
        <time>2022-10-16T10:58:46.000Z</time>
      </trkpt>
      <trkpt lat="45.07654" lon="5.25746">
        <ele>204.6</ele>
        <time>2022-10-16T10:58:47.000Z</time>
      </trkpt>
      <trkpt lat="45.07652" lon="5.25741">
        <ele>204.6</ele>
        <time>2022-10-16T10:58:48.000Z</time>
      </trkpt>
      <trkpt lat="45.0765" lon="5.25737">
        <ele>204.7</ele>
        <time>2022-10-16T10:58:49.000Z</time>
      </trkpt>
      <trkpt lat="45.07648" lon="5.25732">
        <ele>204.8</ele>
        <time>2022-10-16T10:58:50.000Z</time>
      </trkpt>
      <trkpt lat="45.07646" lon="5.25727">
        <ele>204.9</ele>
        <time>2022-10-16T10:58:51.000Z</time>
      </trkpt>
      <trkpt lat="45.07643" lon="5.25722">
        <ele>205</ele>
        <time>2022-10-16T10:58:52.000Z</time>
      </trkpt>
      <trkpt lat="45.07641" lon="5.25718">
        <ele>204.8</ele>
        <time>2022-10-16T10:58:53.000Z</time>
      </trkpt>
      <trkpt lat="45.07638" lon="5.25713">
        <ele>204.6</ele>
        <time>2022-10-16T10:58:54.000Z</time>
      </trkpt>
      <trkpt lat="45.07635" lon="5.25708">
        <ele>204.4</ele>
        <time>2022-10-16T10:58:55.000Z</time>
      </trkpt>
      <trkpt lat="45.07633" lon="5.25704">
        <ele>204.3</ele>
        <time>2022-10-16T10:58:56.000Z</time>
      </trkpt>
      <trkpt lat="45.0763" lon="5.25699">
        <ele>204.1</ele>
        <time>2022-10-16T10:58:57.000Z</time>
      </trkpt>
      <trkpt lat="45.07627" lon="5.25695">
        <ele>204</ele>
        <time>2022-10-16T10:58:58.000Z</time>
      </trkpt>
      <trkpt lat="45.07625" lon="5.25692">
        <ele>204.1</ele>
        <time>2022-10-16T10:58:59.000Z</time>
      </trkpt>
      <trkpt lat="45.07623" lon="5.25688">
        <ele>204.2</ele>
        <time>2022-10-16T10:59:00.000Z</time>
      </trkpt>
      <trkpt lat="45.0762" lon="5.25685">
        <ele>204.4</ele>
        <time>2022-10-16T10:59:01.000Z</time>
      </trkpt>
      <trkpt lat="45.07618" lon="5.25681">
        <ele>204.5</ele>
        <time>2022-10-16T10:59:02.000Z</time>
      </trkpt>
      <trkpt lat="45.07616" lon="5.25677">
        <ele>204.6</ele>
        <time>2022-10-16T10:59:03.000Z</time>
      </trkpt>
      <trkpt lat="45.07613" lon="5.25674">
        <ele>204.7</ele>
        <time>2022-10-16T10:59:04.000Z</time>
      </trkpt>
      <trkpt lat="45.07611" lon="5.25671">
        <ele>204.8</ele>
        <time>2022-10-16T10:59:05.000Z</time>
      </trkpt>
      <trkpt lat="45.07608" lon="5.25667">
        <ele>204.9</ele>
        <time>2022-10-16T10:59:06.000Z</time>
      </trkpt>
      <trkpt lat="45.07604" lon="5.25663">
        <ele>204.7</ele>
        <time>2022-10-16T10:59:07.000Z</time>
      </trkpt>
      <trkpt lat="45.07601" lon="5.2566">
        <ele>204.6</ele>
        <time>2022-10-16T10:59:08.000Z</time>
      </trkpt>
      <trkpt lat="45.07598" lon="5.25657">
        <ele>204.5</ele>
        <time>2022-10-16T10:59:09.000Z</time>
      </trkpt>
      <trkpt lat="45.07595" lon="5.25654">
        <ele>204.5</ele>
        <time>2022-10-16T10:59:10.000Z</time>
      </trkpt>
      <trkpt lat="45.07592" lon="5.25651">
        <ele>204.5</ele>
        <time>2022-10-16T10:59:11.000Z</time>
      </trkpt>
      <trkpt lat="45.07589" lon="5.25648">
        <ele>204.6</ele>
        <time>2022-10-16T10:59:12.000Z</time>
      </trkpt>
      <trkpt lat="45.07587" lon="5.25645">
        <ele>204.7</ele>
        <time>2022-10-16T10:59:13.000Z</time>
      </trkpt>
      <trkpt lat="45.07584" lon="5.25642">
        <ele>204.9</ele>
        <time>2022-10-16T10:59:14.000Z</time>
      </trkpt>
      <trkpt lat="45.07582" lon="5.25637">
        <ele>204.9</ele>
        <time>2022-10-16T10:59:15.000Z</time>
      </trkpt>
      <trkpt lat="45.07579" lon="5.25633">
        <ele>204.6</ele>
        <time>2022-10-16T10:59:16.000Z</time>
      </trkpt>
      <trkpt lat="45.07576" lon="5.25629">
        <ele>204.4</ele>
        <time>2022-10-16T10:59:17.000Z</time>
      </trkpt>
      <trkpt lat="45.07572" lon="5.25624">
        <ele>204.3</ele>
        <time>2022-10-16T10:59:18.000Z</time>
      </trkpt>
      <trkpt lat="45.07569" lon="5.2562">
        <ele>204.1</ele>
        <time>2022-10-16T10:59:19.000Z</time>
      </trkpt>
      <trkpt lat="45.07565" lon="5.25616">
        <ele>204.1</ele>
        <time>2022-10-16T10:59:20.000Z</time>
      </trkpt>
      <trkpt lat="45.07562" lon="5.25611">
        <ele>204</ele>
        <time>2022-10-16T10:59:21.000Z</time>
      </trkpt>
      <trkpt lat="45.07559" lon="5.25607">
        <ele>204</ele>
        <time>2022-10-16T10:59:22.000Z</time>
      </trkpt>
      <trkpt lat="45.07555" lon="5.25603">
        <ele>204</ele>
        <time>2022-10-16T10:59:23.000Z</time>
      </trkpt>
      <trkpt lat="45.07552" lon="5.25599">
        <ele>204</ele>
        <time>2022-10-16T10:59:24.000Z</time>
      </trkpt>
      <trkpt lat="45.07549" lon="5.25596">
        <ele>204</ele>
        <time>2022-10-16T10:59:25.000Z</time>
      </trkpt>
      <trkpt lat="45.07545" lon="5.25592">
        <ele>204</ele>
        <time>2022-10-16T10:59:26.000Z</time>
      </trkpt>
      <trkpt lat="45.07542" lon="5.25589">
        <ele>204</ele>
        <time>2022-10-16T10:59:27.000Z</time>
      </trkpt>
      <trkpt lat="45.07539" lon="5.25586">
        <ele>204</ele>
        <time>2022-10-16T10:59:28.000Z</time>
      </trkpt>
      <trkpt lat="45.07536" lon="5.25583">
        <ele>204</ele>
        <time>2022-10-16T10:59:29.000Z</time>
      </trkpt>
      <trkpt lat="45.07532" lon="5.25581">
        <ele>204</ele>
        <time>2022-10-16T10:59:30.000Z</time>
      </trkpt>
      <trkpt lat="45.07529" lon="5.25578">
        <ele>204</ele>
        <time>2022-10-16T10:59:31.000Z</time>
      </trkpt>
      <trkpt lat="45.07525" lon="5.25576">
        <ele>204</ele>
        <time>2022-10-16T10:59:32.000Z</time>
      </trkpt>
      <trkpt lat="45.07521" lon="5.25574">
        <ele>204</ele>
        <time>2022-10-16T10:59:33.000Z</time>
      </trkpt>
      <trkpt lat="45.07517" lon="5.25572">
        <ele>204</ele>
        <time>2022-10-16T10:59:34.000Z</time>
      </trkpt>
      <trkpt lat="45.07513" lon="5.2557">
        <ele>204</ele>
        <time>2022-10-16T10:59:35.000Z</time>
      </trkpt>
      <trkpt lat="45.07509" lon="5.25567">
        <ele>204</ele>
        <time>2022-10-16T10:59:36.000Z</time>
      </trkpt>
      <trkpt lat="45.07505" lon="5.25565">
        <ele>204</ele>
        <time>2022-10-16T10:59:37.000Z</time>
      </trkpt>
      <trkpt lat="45.07501" lon="5.25564">
        <ele>204</ele>
        <time>2022-10-16T10:59:38.000Z</time>
      </trkpt>
      <trkpt lat="45.07497" lon="5.25562">
        <ele>204</ele>
        <time>2022-10-16T10:59:39.000Z</time>
      </trkpt>
      <trkpt lat="45.07493" lon="5.25561">
        <ele>204</ele>
        <time>2022-10-16T10:59:40.000Z</time>
      </trkpt>
      <trkpt lat="45.07489" lon="5.25559">
        <ele>204</ele>
        <time>2022-10-16T10:59:41.000Z</time>
      </trkpt>
      <trkpt lat="45.07486" lon="5.25557">
        <ele>204</ele>
        <time>2022-10-16T10:59:42.000Z</time>
      </trkpt>
      <trkpt lat="45.07482" lon="5.25555">
        <ele>204</ele>
        <time>2022-10-16T10:59:43.000Z</time>
      </trkpt>
      <trkpt lat="45.07478" lon="5.25552">
        <ele>204</ele>
        <time>2022-10-16T10:59:44.000Z</time>
      </trkpt>
      <trkpt lat="45.07474" lon="5.25549">
        <ele>204</ele>
        <time>2022-10-16T10:59:45.000Z</time>
      </trkpt>
      <trkpt lat="45.07471" lon="5.25546">
        <ele>204</ele>
        <time>2022-10-16T10:59:46.000Z</time>
      </trkpt>
      <trkpt lat="45.07467" lon="5.25543">
        <ele>203.9</ele>
        <time>2022-10-16T10:59:47.000Z</time>
      </trkpt>
      <trkpt lat="45.07464" lon="5.2554">
        <ele>203.9</ele>
        <time>2022-10-16T10:59:48.000Z</time>
      </trkpt>
      <trkpt lat="45.07461" lon="5.25537">
        <ele>203.9</ele>
        <time>2022-10-16T10:59:49.000Z</time>
      </trkpt>
      <trkpt lat="45.07458" lon="5.25534">
        <ele>203.9</ele>
        <time>2022-10-16T10:59:50.000Z</time>
      </trkpt>
      <trkpt lat="45.07454" lon="5.25531">
        <ele>203.9</ele>
        <time>2022-10-16T10:59:51.000Z</time>
      </trkpt>
      <trkpt lat="45.07451" lon="5.25528">
        <ele>204</ele>
        <time>2022-10-16T10:59:52.000Z</time>
      </trkpt>
      <trkpt lat="45.07448" lon="5.25525">
        <ele>204</ele>
        <time>2022-10-16T10:59:53.000Z</time>
      </trkpt>
      <trkpt lat="45.07445" lon="5.25523">
        <ele>204</ele>
        <time>2022-10-16T10:59:54.000Z</time>
      </trkpt>
      <trkpt lat="45.07442" lon="5.2552">
        <ele>203.9</ele>
        <time>2022-10-16T10:59:55.000Z</time>
      </trkpt>
      <trkpt lat="45.0744" lon="5.25518">
        <ele>203.9</ele>
        <time>2022-10-16T10:59:56.000Z</time>
      </trkpt>
      <trkpt lat="45.07437" lon="5.25515">
        <ele>203.8</ele>
        <time>2022-10-16T10:59:57.000Z</time>
      </trkpt>
      <trkpt lat="45.07434" lon="5.25513">
        <ele>203.8</ele>
        <time>2022-10-16T10:59:58.000Z</time>
      </trkpt>
      <trkpt lat="45.07432" lon="5.2551">
        <ele>203.8</ele>
        <time>2022-10-16T10:59:59.000Z</time>
      </trkpt>
      <trkpt lat="45.07429" lon="5.25508">
        <ele>203.8</ele>
        <time>2022-10-16T11:00:00.000Z</time>
      </trkpt>
      <trkpt lat="45.07427" lon="5.25505">
        <ele>203.9</ele>
        <time>2022-10-16T11:00:01.000Z</time>
      </trkpt>
      <trkpt lat="45.07426" lon="5.25503">
        <ele>203.9</ele>
        <time>2022-10-16T11:00:02.000Z</time>
      </trkpt>
      <trkpt lat="45.07424" lon="5.25501">
        <ele>204</ele>
        <time>2022-10-16T11:00:03.000Z</time>
      </trkpt>
      <trkpt lat="45.07422" lon="5.25499">
        <ele>204</ele>
        <time>2022-10-16T11:00:04.000Z</time>
      </trkpt>
      <trkpt lat="45.07421" lon="5.25496">
        <ele>204</ele>
        <time>2022-10-16T11:00:05.000Z</time>
      </trkpt>
      <trkpt lat="45.07417" lon="5.25493">
        <ele>204</ele>
        <time>2022-10-16T11:00:06.000Z</time>
      </trkpt>
      <trkpt lat="45.07413" lon="5.25489">
        <ele>203.9</ele>
        <time>2022-10-16T11:00:07.000Z</time>
      </trkpt>
      <trkpt lat="45.0741" lon="5.25485">
        <ele>203.7</ele>
        <time>2022-10-16T11:00:08.000Z</time>
      </trkpt>
      <trkpt lat="45.07407" lon="5.25481">
        <ele>203.6</ele>
        <time>2022-10-16T11:00:09.000Z</time>
      </trkpt>
      <trkpt lat="45.07403" lon="5.25476">
        <ele>203.5</ele>
        <time>2022-10-16T11:00:10.000Z</time>
      </trkpt>
      <trkpt lat="45.074" lon="5.25472">
        <ele>203.4</ele>
        <time>2022-10-16T11:00:11.000Z</time>
      </trkpt>
      <trkpt lat="45.07396" lon="5.25467">
        <ele>203.3</ele>
        <time>2022-10-16T11:00:12.000Z</time>
      </trkpt>
      <trkpt lat="45.07393" lon="5.25463">
        <ele>203.2</ele>
        <time>2022-10-16T11:00:13.000Z</time>
      </trkpt>
      <trkpt lat="45.0739" lon="5.25458">
        <ele>203</ele>
        <time>2022-10-16T11:00:14.000Z</time>
      </trkpt>
      <trkpt lat="45.07387" lon="5.25454">
        <ele>203</ele>
        <time>2022-10-16T11:00:15.000Z</time>
      </trkpt>
      <trkpt lat="45.07384" lon="5.2545">
        <ele>203</ele>
        <time>2022-10-16T11:00:16.000Z</time>
      </trkpt>
      <trkpt lat="45.07381" lon="5.25445">
        <ele>203</ele>
        <time>2022-10-16T11:00:17.000Z</time>
      </trkpt>
      <trkpt lat="45.07378" lon="5.25441">
        <ele>203.1</ele>
        <time>2022-10-16T11:00:18.000Z</time>
      </trkpt>
      <trkpt lat="45.07375" lon="5.25436">
        <ele>203.2</ele>
        <time>2022-10-16T11:00:19.000Z</time>
      </trkpt>
      <trkpt lat="45.07373" lon="5.25431">
        <ele>203.3</ele>
        <time>2022-10-16T11:00:20.000Z</time>
      </trkpt>
      <trkpt lat="45.0737" lon="5.25426">
        <ele>203.5</ele>
        <time>2022-10-16T11:00:21.000Z</time>
      </trkpt>
      <trkpt lat="45.07368" lon="5.2542">
        <ele>203.7</ele>
        <time>2022-10-16T11:00:22.000Z</time>
      </trkpt>
      <trkpt lat="45.07366" lon="5.25415">
        <ele>203.8</ele>
        <time>2022-10-16T11:00:23.000Z</time>
      </trkpt>
      <trkpt lat="45.07364" lon="5.25409">
        <ele>203.7</ele>
        <time>2022-10-16T11:00:24.000Z</time>
      </trkpt>
      <trkpt lat="45.07361" lon="5.25403">
        <ele>203.5</ele>
        <time>2022-10-16T11:00:25.000Z</time>
      </trkpt>
      <trkpt lat="45.07359" lon="5.25398">
        <ele>203.3</ele>
        <time>2022-10-16T11:00:26.000Z</time>
      </trkpt>
      <trkpt lat="45.07358" lon="5.25392">
        <ele>203.1</ele>
        <time>2022-10-16T11:00:27.000Z</time>
      </trkpt>
      <trkpt lat="45.07356" lon="5.25387">
        <ele>203</ele>
        <time>2022-10-16T11:00:28.000Z</time>
      </trkpt>
      <trkpt lat="45.07354" lon="5.25382">
        <ele>203</ele>
        <time>2022-10-16T11:00:29.000Z</time>
      </trkpt>
      <trkpt lat="45.07353" lon="5.25376">
        <ele>203</ele>
        <time>2022-10-16T11:00:30.000Z</time>
      </trkpt>
      <trkpt lat="45.07351" lon="5.25371">
        <ele>203</ele>
        <time>2022-10-16T11:00:31.000Z</time>
      </trkpt>
      <trkpt lat="45.07349" lon="5.25366">
        <ele>203</ele>
        <time>2022-10-16T11:00:32.000Z</time>
      </trkpt>
      <trkpt lat="45.07348" lon="5.25361">
        <ele>203</ele>
        <time>2022-10-16T11:00:33.000Z</time>
      </trkpt>
      <trkpt lat="45.07347" lon="5.25357">
        <ele>203.1</ele>
        <time>2022-10-16T11:00:34.000Z</time>
      </trkpt>
      <trkpt lat="45.07346" lon="5.25353">
        <ele>203.3</ele>
        <time>2022-10-16T11:00:35.000Z</time>
      </trkpt>
      <trkpt lat="45.07344" lon="5.25349">
        <ele>203.4</ele>
        <time>2022-10-16T11:00:36.000Z</time>
      </trkpt>
      <trkpt lat="45.07343" lon="5.25345">
        <ele>203.6</ele>
        <time>2022-10-16T11:00:37.000Z</time>
      </trkpt>
      <trkpt lat="45.07342" lon="5.25341">
        <ele>203.7</ele>
        <time>2022-10-16T11:00:38.000Z</time>
      </trkpt>
      <trkpt lat="45.07341" lon="5.25336">
        <ele>203.9</ele>
        <time>2022-10-16T11:00:39.000Z</time>
      </trkpt>
      <trkpt lat="45.0734" lon="5.25331">
        <ele>204</ele>
        <time>2022-10-16T11:00:40.000Z</time>
      </trkpt>
      <trkpt lat="45.07339" lon="5.25326">
        <ele>204</ele>
        <time>2022-10-16T11:00:41.000Z</time>
      </trkpt>
      <trkpt lat="45.07337" lon="5.25322">
        <ele>204</ele>
        <time>2022-10-16T11:00:42.000Z</time>
      </trkpt>
      <trkpt lat="45.07336" lon="5.25317">
        <ele>204</ele>
        <time>2022-10-16T11:00:43.000Z</time>
      </trkpt>
      <trkpt lat="45.07335" lon="5.25311">
        <ele>204</ele>
        <time>2022-10-16T11:00:44.000Z</time>
      </trkpt>
      <trkpt lat="45.07333" lon="5.25306">
        <ele>204</ele>
        <time>2022-10-16T11:00:45.000Z</time>
      </trkpt>
      <trkpt lat="45.07332" lon="5.25301">
        <ele>204</ele>
        <time>2022-10-16T11:00:46.000Z</time>
      </trkpt>
      <trkpt lat="45.07331" lon="5.25296">
        <ele>204</ele>
        <time>2022-10-16T11:00:47.000Z</time>
      </trkpt>
      <trkpt lat="45.07329" lon="5.2529">
        <ele>204</ele>
        <time>2022-10-16T11:00:48.000Z</time>
      </trkpt>
      <trkpt lat="45.07327" lon="5.25285">
        <ele>204</ele>
        <time>2022-10-16T11:00:49.000Z</time>
      </trkpt>
      <trkpt lat="45.07325" lon="5.25279">
        <ele>204</ele>
        <time>2022-10-16T11:00:50.000Z</time>
      </trkpt>
      <trkpt lat="45.07323" lon="5.25274">
        <ele>204</ele>
        <time>2022-10-16T11:00:51.000Z</time>
      </trkpt>
      <trkpt lat="45.07322" lon="5.25267">
        <ele>204</ele>
        <time>2022-10-16T11:00:52.000Z</time>
      </trkpt>
      <trkpt lat="45.0732" lon="5.25261">
        <ele>204</ele>
        <time>2022-10-16T11:00:53.000Z</time>
      </trkpt>
      <trkpt lat="45.07318" lon="5.25255">
        <ele>204</ele>
        <time>2022-10-16T11:00:54.000Z</time>
      </trkpt>
      <trkpt lat="45.07316" lon="5.2525">
        <ele>204</ele>
        <time>2022-10-16T11:00:55.000Z</time>
      </trkpt>
      <trkpt lat="45.07314" lon="5.25245">
        <ele>204</ele>
        <time>2022-10-16T11:00:56.000Z</time>
      </trkpt>
      <trkpt lat="45.07313" lon="5.2524">
        <ele>204</ele>
        <time>2022-10-16T11:00:57.000Z</time>
      </trkpt>
      <trkpt lat="45.07311" lon="5.25234">
        <ele>204</ele>
        <time>2022-10-16T11:00:58.000Z</time>
      </trkpt>
      <trkpt lat="45.0731" lon="5.25228">
        <ele>204</ele>
        <time>2022-10-16T11:00:59.000Z</time>
      </trkpt>
      <trkpt lat="45.07308" lon="5.25223">
        <ele>204</ele>
        <time>2022-10-16T11:01:00.000Z</time>
      </trkpt>
      <trkpt lat="45.07306" lon="5.25218">
        <ele>204</ele>
        <time>2022-10-16T11:01:01.000Z</time>
      </trkpt>
      <trkpt lat="45.07304" lon="5.25213">
        <ele>204</ele>
        <time>2022-10-16T11:01:02.000Z</time>
      </trkpt>
      <trkpt lat="45.07303" lon="5.25208">
        <ele>204</ele>
        <time>2022-10-16T11:01:03.000Z</time>
      </trkpt>
      <trkpt lat="45.07301" lon="5.25202">
        <ele>204</ele>
        <time>2022-10-16T11:01:04.000Z</time>
      </trkpt>
      <trkpt lat="45.07299" lon="5.25197">
        <ele>204</ele>
        <time>2022-10-16T11:01:05.000Z</time>
      </trkpt>
      <trkpt lat="45.07297" lon="5.25191">
        <ele>204</ele>
        <time>2022-10-16T11:01:06.000Z</time>
      </trkpt>
      <trkpt lat="45.07295" lon="5.25185">
        <ele>204</ele>
        <time>2022-10-16T11:01:07.000Z</time>
      </trkpt>
      <trkpt lat="45.07292" lon="5.25179">
        <ele>204</ele>
        <time>2022-10-16T11:01:08.000Z</time>
      </trkpt>
      <trkpt lat="45.0729" lon="5.25172">
        <ele>204</ele>
        <time>2022-10-16T11:01:09.000Z</time>
      </trkpt>
      <trkpt lat="45.07287" lon="5.25166">
        <ele>204</ele>
        <time>2022-10-16T11:01:10.000Z</time>
      </trkpt>
      <trkpt lat="45.07284" lon="5.25161">
        <ele>204</ele>
        <time>2022-10-16T11:01:11.000Z</time>
      </trkpt>
      <trkpt lat="45.07281" lon="5.25155">
        <ele>204</ele>
        <time>2022-10-16T11:01:12.000Z</time>
      </trkpt>
      <trkpt lat="45.07279" lon="5.2515">
        <ele>204</ele>
        <time>2022-10-16T11:01:13.000Z</time>
      </trkpt>
      <trkpt lat="45.07277" lon="5.25144">
        <ele>204</ele>
        <time>2022-10-16T11:01:14.000Z</time>
      </trkpt>
      <trkpt lat="45.07275" lon="5.25139">
        <ele>204</ele>
        <time>2022-10-16T11:01:15.000Z</time>
      </trkpt>
      <trkpt lat="45.07273" lon="5.25134">
        <ele>204</ele>
        <time>2022-10-16T11:01:16.000Z</time>
      </trkpt>
      <trkpt lat="45.07271" lon="5.25129">
        <ele>204</ele>
        <time>2022-10-16T11:01:17.000Z</time>
      </trkpt>
      <trkpt lat="45.07268" lon="5.25124">
        <ele>204</ele>
        <time>2022-10-16T11:01:18.000Z</time>
      </trkpt>
      <trkpt lat="45.07266" lon="5.25119">
        <ele>204</ele>
        <time>2022-10-16T11:01:19.000Z</time>
      </trkpt>
      <trkpt lat="45.07263" lon="5.25114">
        <ele>204</ele>
        <time>2022-10-16T11:01:20.000Z</time>
      </trkpt>
      <trkpt lat="45.07261" lon="5.25109">
        <ele>204</ele>
        <time>2022-10-16T11:01:21.000Z</time>
      </trkpt>
      <trkpt lat="45.07258" lon="5.25104">
        <ele>204.1</ele>
        <time>2022-10-16T11:01:22.000Z</time>
      </trkpt>
      <trkpt lat="45.07255" lon="5.251">
        <ele>204.1</ele>
        <time>2022-10-16T11:01:23.000Z</time>
      </trkpt>
      <trkpt lat="45.07253" lon="5.25095">
        <ele>204.1</ele>
        <time>2022-10-16T11:01:24.000Z</time>
      </trkpt>
      <trkpt lat="45.0725" lon="5.25091">
        <ele>204</ele>
        <time>2022-10-16T11:01:25.000Z</time>
      </trkpt>
      <trkpt lat="45.07248" lon="5.25086">
        <ele>204</ele>
        <time>2022-10-16T11:01:26.000Z</time>
      </trkpt>
      <trkpt lat="45.07246" lon="5.25082">
        <ele>204</ele>
        <time>2022-10-16T11:01:27.000Z</time>
      </trkpt>
      <trkpt lat="45.07243" lon="5.25078">
        <ele>204</ele>
        <time>2022-10-16T11:01:28.000Z</time>
      </trkpt>
      <trkpt lat="45.0724" lon="5.25074">
        <ele>204</ele>
        <time>2022-10-16T11:01:29.000Z</time>
      </trkpt>
      <trkpt lat="45.07238" lon="5.25071">
        <ele>204</ele>
        <time>2022-10-16T11:01:30.000Z</time>
      </trkpt>
      <trkpt lat="45.07236" lon="5.25067">
        <ele>204</ele>
        <time>2022-10-16T11:01:31.000Z</time>
      </trkpt>
      <trkpt lat="45.07234" lon="5.25063">
        <ele>204</ele>
        <time>2022-10-16T11:01:32.000Z</time>
      </trkpt>
      <trkpt lat="45.07232" lon="5.2506">
        <ele>204</ele>
        <time>2022-10-16T11:01:33.000Z</time>
      </trkpt>
      <trkpt lat="45.0723" lon="5.25057">
        <ele>204</ele>
        <time>2022-10-16T11:01:34.000Z</time>
      </trkpt>
      <trkpt lat="45.07229" lon="5.25054">
        <ele>204</ele>
        <time>2022-10-16T11:01:35.000Z</time>
      </trkpt>
      <trkpt lat="45.07226" lon="5.25051">
        <ele>204</ele>
        <time>2022-10-16T11:01:36.000Z</time>
      </trkpt>
      <trkpt lat="45.07225" lon="5.25048">
        <ele>204</ele>
        <time>2022-10-16T11:01:37.000Z</time>
      </trkpt>
      <trkpt lat="45.07227" lon="5.25041">
        <ele>204</ele>
        <time>2022-10-16T11:01:38.000Z</time>
      </trkpt>
      <trkpt lat="45.07229" lon="5.25036">
        <ele>204</ele>
        <time>2022-10-16T11:01:39.000Z</time>
      </trkpt>
      <trkpt lat="45.0723" lon="5.25032">
        <ele>204</ele>
        <time>2022-10-16T11:01:40.000Z</time>
      </trkpt>
      <trkpt lat="45.07229" lon="5.25029">
        <ele>204</ele>
        <time>2022-10-16T11:01:41.000Z</time>
      </trkpt>
      <trkpt lat="45.07225" lon="5.25026">
        <ele>204</ele>
        <time>2022-10-16T11:01:42.000Z</time>
      </trkpt>
      <trkpt lat="45.07223" lon="5.25027">
        <ele>204</ele>
        <time>2022-10-16T11:01:43.000Z</time>
      </trkpt>
      <trkpt lat="45.0722" lon="5.25025">
        <ele>204</ele>
        <time>2022-10-16T11:01:44.000Z</time>
      </trkpt>
      <trkpt lat="45.07219" lon="5.2502">
        <ele>204</ele>
        <time>2022-10-16T11:01:45.000Z</time>
      </trkpt>
      <trkpt lat="45.07218" lon="5.25015">
        <ele>204</ele>
        <time>2022-10-16T11:01:46.000Z</time>
      </trkpt>
      <trkpt lat="45.07218" lon="5.25009">
        <ele>204</ele>
        <time>2022-10-16T11:01:47.000Z</time>
      </trkpt>
      <trkpt lat="45.07219" lon="5.25003">
        <ele>204</ele>
        <time>2022-10-16T11:01:48.000Z</time>
      </trkpt>
      <trkpt lat="45.07219" lon="5.24996">
        <ele>204</ele>
        <time>2022-10-16T11:01:49.000Z</time>
      </trkpt>
      <trkpt lat="45.07219" lon="5.2499">
        <ele>204</ele>
        <time>2022-10-16T11:01:50.000Z</time>
      </trkpt>
      <trkpt lat="45.07218" lon="5.24984">
        <ele>204</ele>
        <time>2022-10-16T11:01:51.000Z</time>
      </trkpt>
      <trkpt lat="45.07218" lon="5.24978">
        <ele>204</ele>
        <time>2022-10-16T11:01:52.000Z</time>
      </trkpt>
      <trkpt lat="45.07217" lon="5.24972">
        <ele>204</ele>
        <time>2022-10-16T11:01:53.000Z</time>
      </trkpt>
      <trkpt lat="45.07217" lon="5.24966">
        <ele>204</ele>
        <time>2022-10-16T11:01:54.000Z</time>
      </trkpt>
      <trkpt lat="45.07216" lon="5.24959">
        <ele>204</ele>
        <time>2022-10-16T11:01:55.000Z</time>
      </trkpt>
      <trkpt lat="45.07215" lon="5.24952">
        <ele>204</ele>
        <time>2022-10-16T11:01:56.000Z</time>
      </trkpt>
      <trkpt lat="45.07215" lon="5.24946">
        <ele>204</ele>
        <time>2022-10-16T11:01:57.000Z</time>
      </trkpt>
      <trkpt lat="45.07214" lon="5.2494">
        <ele>204</ele>
        <time>2022-10-16T11:01:58.000Z</time>
      </trkpt>
      <trkpt lat="45.07213" lon="5.24933">
        <ele>204</ele>
        <time>2022-10-16T11:01:59.000Z</time>
      </trkpt>
      <trkpt lat="45.07212" lon="5.24926">
        <ele>204</ele>
        <time>2022-10-16T11:02:00.000Z</time>
      </trkpt>
      <trkpt lat="45.07212" lon="5.2492">
        <ele>204</ele>
        <time>2022-10-16T11:02:01.000Z</time>
      </trkpt>
      <trkpt lat="45.07211" lon="5.24913">
        <ele>204</ele>
        <time>2022-10-16T11:02:02.000Z</time>
      </trkpt>
      <trkpt lat="45.0721" lon="5.24906">
        <ele>204</ele>
        <time>2022-10-16T11:02:03.000Z</time>
      </trkpt>
      <trkpt lat="45.07209" lon="5.24899">
        <ele>204</ele>
        <time>2022-10-16T11:02:04.000Z</time>
      </trkpt>
      <trkpt lat="45.07208" lon="5.24893">
        <ele>204</ele>
        <time>2022-10-16T11:02:05.000Z</time>
      </trkpt>
      <trkpt lat="45.07207" lon="5.24887">
        <ele>204</ele>
        <time>2022-10-16T11:02:06.000Z</time>
      </trkpt>
      <trkpt lat="45.07206" lon="5.2488">
        <ele>204.2</ele>
        <time>2022-10-16T11:02:07.000Z</time>
      </trkpt>
      <trkpt lat="45.07205" lon="5.24874">
        <ele>204.3</ele>
        <time>2022-10-16T11:02:08.000Z</time>
      </trkpt>
      <trkpt lat="45.07205" lon="5.24868">
        <ele>204.5</ele>
        <time>2022-10-16T11:02:09.000Z</time>
      </trkpt>
      <trkpt lat="45.07204" lon="5.24862">
        <ele>204.6</ele>
        <time>2022-10-16T11:02:10.000Z</time>
      </trkpt>
      <trkpt lat="45.07203" lon="5.24856">
        <ele>204.6</ele>
        <time>2022-10-16T11:02:11.000Z</time>
      </trkpt>
      <trkpt lat="45.07203" lon="5.2485">
        <ele>204.6</ele>
        <time>2022-10-16T11:02:12.000Z</time>
      </trkpt>
      <trkpt lat="45.07202" lon="5.24844">
        <ele>204.6</ele>
        <time>2022-10-16T11:02:13.000Z</time>
      </trkpt>
      <trkpt lat="45.07202" lon="5.24838">
        <ele>204.5</ele>
        <time>2022-10-16T11:02:14.000Z</time>
      </trkpt>
      <trkpt lat="45.07201" lon="5.24832">
        <ele>204.5</ele>
        <time>2022-10-16T11:02:15.000Z</time>
      </trkpt>
      <trkpt lat="45.072" lon="5.24826">
        <ele>204.5</ele>
        <time>2022-10-16T11:02:16.000Z</time>
      </trkpt>
      <trkpt lat="45.072" lon="5.2482">
        <ele>204.5</ele>
        <time>2022-10-16T11:02:17.000Z</time>
      </trkpt>
      <trkpt lat="45.07199" lon="5.24815">
        <ele>204.6</ele>
        <time>2022-10-16T11:02:18.000Z</time>
      </trkpt>
      <trkpt lat="45.07198" lon="5.24809">
        <ele>204.6</ele>
        <time>2022-10-16T11:02:19.000Z</time>
      </trkpt>
      <trkpt lat="45.07197" lon="5.24803">
        <ele>204.6</ele>
        <time>2022-10-16T11:02:20.000Z</time>
      </trkpt>
      <trkpt lat="45.07197" lon="5.24798">
        <ele>204.5</ele>
        <time>2022-10-16T11:02:21.000Z</time>
      </trkpt>
      <trkpt lat="45.07196" lon="5.24792">
        <ele>204.4</ele>
        <time>2022-10-16T11:02:22.000Z</time>
      </trkpt>
      <trkpt lat="45.07195" lon="5.24785">
        <ele>204.2</ele>
        <time>2022-10-16T11:02:23.000Z</time>
      </trkpt>
      <trkpt lat="45.07194" lon="5.24779">
        <ele>204.1</ele>
        <time>2022-10-16T11:02:24.000Z</time>
      </trkpt>
      <trkpt lat="45.07193" lon="5.24773">
        <ele>204</ele>
        <time>2022-10-16T11:02:25.000Z</time>
      </trkpt>
      <trkpt lat="45.07192" lon="5.24767">
        <ele>204</ele>
        <time>2022-10-16T11:02:26.000Z</time>
      </trkpt>
      <trkpt lat="45.07191" lon="5.24762">
        <ele>203.9</ele>
        <time>2022-10-16T11:02:27.000Z</time>
      </trkpt>
      <trkpt lat="45.0719" lon="5.24757">
        <ele>203.9</ele>
        <time>2022-10-16T11:02:28.000Z</time>
      </trkpt>
      <trkpt lat="45.07188" lon="5.24752">
        <ele>203.8</ele>
        <time>2022-10-16T11:02:29.000Z</time>
      </trkpt>
      <trkpt lat="45.07186" lon="5.24746">
        <ele>203.5</ele>
        <time>2022-10-16T11:02:30.000Z</time>
      </trkpt>
      <trkpt lat="45.07184" lon="5.24741">
        <ele>203.1</ele>
        <time>2022-10-16T11:02:31.000Z</time>
      </trkpt>
      <trkpt lat="45.07181" lon="5.24736">
        <ele>202.7</ele>
        <time>2022-10-16T11:02:32.000Z</time>
      </trkpt>
      <trkpt lat="45.07179" lon="5.2473">
        <ele>202.4</ele>
        <time>2022-10-16T11:02:33.000Z</time>
      </trkpt>
      <trkpt lat="45.07177" lon="5.24723">
        <ele>202</ele>
        <time>2022-10-16T11:02:34.000Z</time>
      </trkpt>
      <trkpt lat="45.07176" lon="5.24716">
        <ele>202</ele>
        <time>2022-10-16T11:02:35.000Z</time>
      </trkpt>
      <trkpt lat="45.07176" lon="5.2471">
        <ele>202</ele>
        <time>2022-10-16T11:02:36.000Z</time>
      </trkpt>
      <trkpt lat="45.07178" lon="5.24703">
        <ele>202</ele>
        <time>2022-10-16T11:02:37.000Z</time>
      </trkpt>
      <trkpt lat="45.07181" lon="5.24696">
        <ele>202</ele>
        <time>2022-10-16T11:02:38.000Z</time>
      </trkpt>
      <trkpt lat="45.07184" lon="5.24691">
        <ele>202</ele>
        <time>2022-10-16T11:02:39.000Z</time>
      </trkpt>
      <trkpt lat="45.07189" lon="5.24689">
        <ele>202</ele>
        <time>2022-10-16T11:02:40.000Z</time>
      </trkpt>
      <trkpt lat="45.07194" lon="5.24687">
        <ele>202</ele>
        <time>2022-10-16T11:02:41.000Z</time>
      </trkpt>
      <trkpt lat="45.07199" lon="5.24686">
        <ele>202.1</ele>
        <time>2022-10-16T11:02:42.000Z</time>
      </trkpt>
      <trkpt lat="45.07204" lon="5.24683">
        <ele>202.2</ele>
        <time>2022-10-16T11:02:43.000Z</time>
      </trkpt>
      <trkpt lat="45.07208" lon="5.24681">
        <ele>202.2</ele>
        <time>2022-10-16T11:02:44.000Z</time>
      </trkpt>
      <trkpt lat="45.07211" lon="5.24678">
        <ele>202.3</ele>
        <time>2022-10-16T11:02:45.000Z</time>
      </trkpt>
      <trkpt lat="45.07215" lon="5.24677">
        <ele>202.3</ele>
        <time>2022-10-16T11:02:46.000Z</time>
      </trkpt>
      <trkpt lat="45.07219" lon="5.24676">
        <ele>202.3</ele>
        <time>2022-10-16T11:02:47.000Z</time>
      </trkpt>
      <trkpt lat="45.07223" lon="5.24674">
        <ele>202.3</ele>
        <time>2022-10-16T11:02:48.000Z</time>
      </trkpt>
      <trkpt lat="45.07227" lon="5.24672">
        <ele>202.3</ele>
        <time>2022-10-16T11:02:49.000Z</time>
      </trkpt>
      <trkpt lat="45.0723" lon="5.24669">
        <ele>202.3</ele>
        <time>2022-10-16T11:02:50.000Z</time>
      </trkpt>
      <trkpt lat="45.07233" lon="5.24666">
        <ele>202.4</ele>
        <time>2022-10-16T11:02:51.000Z</time>
      </trkpt>
      <trkpt lat="45.07237" lon="5.24664">
        <ele>202.5</ele>
        <time>2022-10-16T11:02:52.000Z</time>
      </trkpt>
      <trkpt lat="45.0724" lon="5.2466">
        <ele>202.6</ele>
        <time>2022-10-16T11:02:53.000Z</time>
      </trkpt>
      <trkpt lat="45.07242" lon="5.24657">
        <ele>202.7</ele>
        <time>2022-10-16T11:02:54.000Z</time>
      </trkpt>
      <trkpt lat="45.07245" lon="5.24653">
        <ele>202.8</ele>
        <time>2022-10-16T11:02:55.000Z</time>
      </trkpt>
      <trkpt lat="45.07249" lon="5.2465">
        <ele>202.9</ele>
        <time>2022-10-16T11:02:56.000Z</time>
      </trkpt>
      <trkpt lat="45.07252" lon="5.24646">
        <ele>202.9</ele>
        <time>2022-10-16T11:02:57.000Z</time>
      </trkpt>
      <trkpt lat="45.07255" lon="5.24642">
        <ele>202.8</ele>
        <time>2022-10-16T11:02:58.000Z</time>
      </trkpt>
      <trkpt lat="45.07258" lon="5.24638">
        <ele>202.7</ele>
        <time>2022-10-16T11:02:59.000Z</time>
      </trkpt>
      <trkpt lat="45.07261" lon="5.24633">
        <ele>202.5</ele>
        <time>2022-10-16T11:03:00.000Z</time>
      </trkpt>
      <trkpt lat="45.07263" lon="5.24628">
        <ele>202.3</ele>
        <time>2022-10-16T11:03:01.000Z</time>
      </trkpt>
      <trkpt lat="45.07265" lon="5.24622">
        <ele>202.2</ele>
        <time>2022-10-16T11:03:02.000Z</time>
      </trkpt>
      <trkpt lat="45.07265" lon="5.24617">
        <ele>202.1</ele>
        <time>2022-10-16T11:03:03.000Z</time>
      </trkpt>
      <trkpt lat="45.07266" lon="5.24612">
        <ele>202</ele>
        <time>2022-10-16T11:03:04.000Z</time>
      </trkpt>
      <trkpt lat="45.07267" lon="5.24607">
        <ele>202</ele>
        <time>2022-10-16T11:03:05.000Z</time>
      </trkpt>
      <trkpt lat="45.07269" lon="5.24602">
        <ele>202</ele>
        <time>2022-10-16T11:03:06.000Z</time>
      </trkpt>
      <trkpt lat="45.0727" lon="5.24597">
        <ele>202</ele>
        <time>2022-10-16T11:03:07.000Z</time>
      </trkpt>
      <trkpt lat="45.07272" lon="5.24592">
        <ele>202</ele>
        <time>2022-10-16T11:03:08.000Z</time>
      </trkpt>
      <trkpt lat="45.07275" lon="5.24587">
        <ele>202</ele>
        <time>2022-10-16T11:03:09.000Z</time>
      </trkpt>
      <trkpt lat="45.07276" lon="5.24582">
        <ele>202</ele>
        <time>2022-10-16T11:03:10.000Z</time>
      </trkpt>
      <trkpt lat="45.07277" lon="5.24577">
        <ele>202</ele>
        <time>2022-10-16T11:03:11.000Z</time>
      </trkpt>
      <trkpt lat="45.07279" lon="5.24572">
        <ele>202</ele>
        <time>2022-10-16T11:03:12.000Z</time>
      </trkpt>
      <trkpt lat="45.0728" lon="5.24567">
        <ele>202.1</ele>
        <time>2022-10-16T11:03:13.000Z</time>
      </trkpt>
      <trkpt lat="45.07282" lon="5.24563">
        <ele>202.1</ele>
        <time>2022-10-16T11:03:14.000Z</time>
      </trkpt>
      <trkpt lat="45.07283" lon="5.24558">
        <ele>202.2</ele>
        <time>2022-10-16T11:03:15.000Z</time>
      </trkpt>
      <trkpt lat="45.07284" lon="5.24554">
        <ele>202.3</ele>
        <time>2022-10-16T11:03:16.000Z</time>
      </trkpt>
      <trkpt lat="45.07285" lon="5.24549">
        <ele>202.4</ele>
        <time>2022-10-16T11:03:17.000Z</time>
      </trkpt>
      <trkpt lat="45.07286" lon="5.24544">
        <ele>202.6</ele>
        <time>2022-10-16T11:03:18.000Z</time>
      </trkpt>
      <trkpt lat="45.07287" lon="5.24539">
        <ele>202.7</ele>
        <time>2022-10-16T11:03:19.000Z</time>
      </trkpt>
      <trkpt lat="45.07288" lon="5.24534">
        <ele>202.9</ele>
        <time>2022-10-16T11:03:20.000Z</time>
      </trkpt>
      <trkpt lat="45.07289" lon="5.24529">
        <ele>203</ele>
        <time>2022-10-16T11:03:21.000Z</time>
      </trkpt>
      <trkpt lat="45.07291" lon="5.24524">
        <ele>203</ele>
        <time>2022-10-16T11:03:22.000Z</time>
      </trkpt>
      <trkpt lat="45.07292" lon="5.24519">
        <ele>203</ele>
        <time>2022-10-16T11:03:23.000Z</time>
      </trkpt>
      <trkpt lat="45.07294" lon="5.24514">
        <ele>203</ele>
        <time>2022-10-16T11:03:24.000Z</time>
      </trkpt>
      <trkpt lat="45.07296" lon="5.24509">
        <ele>203</ele>
        <time>2022-10-16T11:03:25.000Z</time>
      </trkpt>
      <trkpt lat="45.07298" lon="5.24504">
        <ele>203</ele>
        <time>2022-10-16T11:03:26.000Z</time>
      </trkpt>
      <trkpt lat="45.073" lon="5.245">
        <ele>203</ele>
        <time>2022-10-16T11:03:27.000Z</time>
      </trkpt>
      <trkpt lat="45.07302" lon="5.24495">
        <ele>203</ele>
        <time>2022-10-16T11:03:28.000Z</time>
      </trkpt>
      <trkpt lat="45.07304" lon="5.24491">
        <ele>203</ele>
        <time>2022-10-16T11:03:29.000Z</time>
      </trkpt>
      <trkpt lat="45.07306" lon="5.24487">
        <ele>203</ele>
        <time>2022-10-16T11:03:30.000Z</time>
      </trkpt>
      <trkpt lat="45.07308" lon="5.24484">
        <ele>203</ele>
        <time>2022-10-16T11:03:31.000Z</time>
      </trkpt>
      <trkpt lat="45.0731" lon="5.2448">
        <ele>203</ele>
        <time>2022-10-16T11:03:32.000Z</time>
      </trkpt>
      <trkpt lat="45.07311" lon="5.24478">
        <ele>203</ele>
        <time>2022-10-16T11:03:33.000Z</time>
      </trkpt>
      <trkpt lat="45.07313" lon="5.24475">
        <ele>203</ele>
        <time>2022-10-16T11:03:34.000Z</time>
      </trkpt>
      <trkpt lat="45.07314" lon="5.24471">
        <ele>203</ele>
        <time>2022-10-16T11:03:35.000Z</time>
      </trkpt>
      <trkpt lat="45.07314" lon="5.24468">
        <ele>203</ele>
        <time>2022-10-16T11:03:36.000Z</time>
      </trkpt>
      <trkpt lat="45.07315" lon="5.24466">
        <ele>203</ele>
        <time>2022-10-16T11:03:37.000Z</time>
      </trkpt>
      <trkpt lat="45.07316" lon="5.24459">
        <ele>203</ele>
        <time>2022-10-16T11:03:39.000Z</time>
      </trkpt>
      <trkpt lat="45.07316" lon="5.24456">
        <ele>203</ele>
        <time>2022-10-16T11:03:40.000Z</time>
      </trkpt>
      <trkpt lat="45.07317" lon="5.24452">
        <ele>203</ele>
        <time>2022-10-16T11:03:41.000Z</time>
      </trkpt>
      <trkpt lat="45.07317" lon="5.24448">
        <ele>203</ele>
        <time>2022-10-16T11:03:42.000Z</time>
      </trkpt>
      <trkpt lat="45.07318" lon="5.24443">
        <ele>203</ele>
        <time>2022-10-16T11:03:43.000Z</time>
      </trkpt>
      <trkpt lat="45.0732" lon="5.24439">
        <ele>203.1</ele>
        <time>2022-10-16T11:03:44.000Z</time>
      </trkpt>
      <trkpt lat="45.07322" lon="5.24435">
        <ele>203.2</ele>
        <time>2022-10-16T11:03:45.000Z</time>
      </trkpt>
      <trkpt lat="45.07324" lon="5.24429">
        <ele>203.4</ele>
        <time>2022-10-16T11:03:46.000Z</time>
      </trkpt>
      <trkpt lat="45.07325" lon="5.24424">
        <ele>203.5</ele>
        <time>2022-10-16T11:03:47.000Z</time>
      </trkpt>
      <trkpt lat="45.07327" lon="5.24418">
        <ele>203.7</ele>
        <time>2022-10-16T11:03:48.000Z</time>
      </trkpt>
      <trkpt lat="45.07329" lon="5.24413">
        <ele>203.8</ele>
        <time>2022-10-16T11:03:49.000Z</time>
      </trkpt>
      <trkpt lat="45.07331" lon="5.24408">
        <ele>203.9</ele>
        <time>2022-10-16T11:03:50.000Z</time>
      </trkpt>
      <trkpt lat="45.07333" lon="5.24402">
        <ele>204</ele>
        <time>2022-10-16T11:03:51.000Z</time>
      </trkpt>
      <trkpt lat="45.07335" lon="5.24396">
        <ele>203.9</ele>
        <time>2022-10-16T11:03:52.000Z</time>
      </trkpt>
      <trkpt lat="45.07337" lon="5.2439">
        <ele>203.9</ele>
        <time>2022-10-16T11:03:53.000Z</time>
      </trkpt>
      <trkpt lat="45.0734" lon="5.24383">
        <ele>203.6</ele>
        <time>2022-10-16T11:03:54.000Z</time>
      </trkpt>
      <trkpt lat="45.07342" lon="5.24377">
        <ele>203.4</ele>
        <time>2022-10-16T11:03:55.000Z</time>
      </trkpt>
      <trkpt lat="45.07343" lon="5.24371">
        <ele>203.2</ele>
        <time>2022-10-16T11:03:56.000Z</time>
      </trkpt>
      <trkpt lat="45.07346" lon="5.24364">
        <ele>203.1</ele>
        <time>2022-10-16T11:03:57.000Z</time>
      </trkpt>
      <trkpt lat="45.07348" lon="5.24358">
        <ele>203</ele>
        <time>2022-10-16T11:03:58.000Z</time>
      </trkpt>
      <trkpt lat="45.0735" lon="5.24351">
        <ele>203</ele>
        <time>2022-10-16T11:03:59.000Z</time>
      </trkpt>
      <trkpt lat="45.07352" lon="5.24345">
        <ele>203</ele>
        <time>2022-10-16T11:04:00.000Z</time>
      </trkpt>
      <trkpt lat="45.07354" lon="5.24338">
        <ele>203</ele>
        <time>2022-10-16T11:04:01.000Z</time>
      </trkpt>
      <trkpt lat="45.07356" lon="5.24331">
        <ele>203</ele>
        <time>2022-10-16T11:04:02.000Z</time>
      </trkpt>
      <trkpt lat="45.07358" lon="5.24324">
        <ele>203</ele>
        <time>2022-10-16T11:04:03.000Z</time>
      </trkpt>
      <trkpt lat="45.0736" lon="5.24318">
        <ele>203</ele>
        <time>2022-10-16T11:04:04.000Z</time>
      </trkpt>
      <trkpt lat="45.07362" lon="5.24311">
        <ele>203</ele>
        <time>2022-10-16T11:04:05.000Z</time>
      </trkpt>
      <trkpt lat="45.07364" lon="5.24305">
        <ele>203</ele>
        <time>2022-10-16T11:04:06.000Z</time>
      </trkpt>
      <trkpt lat="45.07366" lon="5.24298">
        <ele>203</ele>
        <time>2022-10-16T11:04:07.000Z</time>
      </trkpt>
      <trkpt lat="45.07368" lon="5.24292">
        <ele>203.1</ele>
        <time>2022-10-16T11:04:08.000Z</time>
      </trkpt>
      <trkpt lat="45.0737" lon="5.24286">
        <ele>203.2</ele>
        <time>2022-10-16T11:04:09.000Z</time>
      </trkpt>
      <trkpt lat="45.07372" lon="5.2428">
        <ele>203.4</ele>
        <time>2022-10-16T11:04:10.000Z</time>
      </trkpt>
      <trkpt lat="45.07374" lon="5.24276">
        <ele>203.5</ele>
        <time>2022-10-16T11:04:11.000Z</time>
      </trkpt>
      <trkpt lat="45.07377" lon="5.24273">
        <ele>203.6</ele>
        <time>2022-10-16T11:04:12.000Z</time>
      </trkpt>
      <trkpt lat="45.07381" lon="5.24273">
        <ele>203.6</ele>
        <time>2022-10-16T11:04:13.000Z</time>
      </trkpt>
      <trkpt lat="45.07384" lon="5.24276">
        <ele>203.8</ele>
        <time>2022-10-16T11:04:14.000Z</time>
      </trkpt>
      <trkpt lat="45.07387" lon="5.24279">
        <ele>203.9</ele>
        <time>2022-10-16T11:04:15.000Z</time>
      </trkpt>
      <trkpt lat="45.07391" lon="5.24284">
        <ele>203.7</ele>
        <time>2022-10-16T11:04:16.000Z</time>
      </trkpt>
      <trkpt lat="45.07394" lon="5.24287">
        <ele>203.5</ele>
        <time>2022-10-16T11:04:17.000Z</time>
      </trkpt>
      <trkpt lat="45.07398" lon="5.24291">
        <ele>203.3</ele>
        <time>2022-10-16T11:04:18.000Z</time>
      </trkpt>
      <trkpt lat="45.07402" lon="5.24296">
        <ele>203.2</ele>
        <time>2022-10-16T11:04:19.000Z</time>
      </trkpt>
      <trkpt lat="45.07406" lon="5.243">
        <ele>203.1</ele>
        <time>2022-10-16T11:04:20.000Z</time>
      </trkpt>
      <trkpt lat="45.0741" lon="5.24304">
        <ele>203</ele>
        <time>2022-10-16T11:04:21.000Z</time>
      </trkpt>
      <trkpt lat="45.07413" lon="5.24309">
        <ele>203.1</ele>
        <time>2022-10-16T11:04:22.000Z</time>
      </trkpt>
      <trkpt lat="45.07417" lon="5.24313">
        <ele>203.3</ele>
        <time>2022-10-16T11:04:23.000Z</time>
      </trkpt>
      <trkpt lat="45.07421" lon="5.24317">
        <ele>203.4</ele>
        <time>2022-10-16T11:04:24.000Z</time>
      </trkpt>
      <trkpt lat="45.07424" lon="5.24321">
        <ele>203.4</ele>
        <time>2022-10-16T11:04:25.000Z</time>
      </trkpt>
      <trkpt lat="45.07428" lon="5.24326">
        <ele>203.4</ele>
        <time>2022-10-16T11:04:26.000Z</time>
      </trkpt>
      <trkpt lat="45.07431" lon="5.2433">
        <ele>203.4</ele>
        <time>2022-10-16T11:04:27.000Z</time>
      </trkpt>
      <trkpt lat="45.07434" lon="5.24334">
        <ele>203.4</ele>
        <time>2022-10-16T11:04:28.000Z</time>
      </trkpt>
      <trkpt lat="45.07436" lon="5.24338">
        <ele>203.4</ele>
        <time>2022-10-16T11:04:29.000Z</time>
      </trkpt>
      <trkpt lat="45.07439" lon="5.24343">
        <ele>203.4</ele>
        <time>2022-10-16T11:04:30.000Z</time>
      </trkpt>
      <trkpt lat="45.07443" lon="5.24347">
        <ele>203.5</ele>
        <time>2022-10-16T11:04:31.000Z</time>
      </trkpt>
      <trkpt lat="45.07446" lon="5.24351">
        <ele>203.6</ele>
        <time>2022-10-16T11:04:32.000Z</time>
      </trkpt>
      <trkpt lat="45.07449" lon="5.24355">
        <ele>203.6</ele>
        <time>2022-10-16T11:04:33.000Z</time>
      </trkpt>
      <trkpt lat="45.07453" lon="5.24359">
        <ele>203.7</ele>
        <time>2022-10-16T11:04:34.000Z</time>
      </trkpt>
      <trkpt lat="45.07456" lon="5.24364">
        <ele>203.6</ele>
        <time>2022-10-16T11:04:35.000Z</time>
      </trkpt>
      <trkpt lat="45.0746" lon="5.24368">
        <ele>203.6</ele>
        <time>2022-10-16T11:04:36.000Z</time>
      </trkpt>
      <trkpt lat="45.07463" lon="5.24372">
        <ele>203.6</ele>
        <time>2022-10-16T11:04:37.000Z</time>
      </trkpt>
      <trkpt lat="45.07467" lon="5.24377">
        <ele>203.6</ele>
        <time>2022-10-16T11:04:38.000Z</time>
      </trkpt>
      <trkpt lat="45.0747" lon="5.24381">
        <ele>203.7</ele>
        <time>2022-10-16T11:04:39.000Z</time>
      </trkpt>
      <trkpt lat="45.07474" lon="5.24385">
        <ele>203.8</ele>
        <time>2022-10-16T11:04:40.000Z</time>
      </trkpt>
      <trkpt lat="45.07478" lon="5.24388">
        <ele>203.8</ele>
        <time>2022-10-16T11:04:41.000Z</time>
      </trkpt>
      <trkpt lat="45.07481" lon="5.24392">
        <ele>203.7</ele>
        <time>2022-10-16T11:04:42.000Z</time>
      </trkpt>
      <trkpt lat="45.07485" lon="5.24395">
        <ele>203.7</ele>
        <time>2022-10-16T11:04:43.000Z</time>
      </trkpt>
      <trkpt lat="45.07489" lon="5.24398">
        <ele>203.6</ele>
        <time>2022-10-16T11:04:44.000Z</time>
      </trkpt>
      <trkpt lat="45.07493" lon="5.24401">
        <ele>203.6</ele>
        <time>2022-10-16T11:04:45.000Z</time>
      </trkpt>
      <trkpt lat="45.07496" lon="5.24404">
        <ele>203.6</ele>
        <time>2022-10-16T11:04:46.000Z</time>
      </trkpt>
      <trkpt lat="45.07501" lon="5.24407">
        <ele>203.7</ele>
        <time>2022-10-16T11:04:47.000Z</time>
      </trkpt>
      <trkpt lat="45.07505" lon="5.2441">
        <ele>203.8</ele>
        <time>2022-10-16T11:04:48.000Z</time>
      </trkpt>
      <trkpt lat="45.07509" lon="5.24413">
        <ele>203.9</ele>
        <time>2022-10-16T11:04:49.000Z</time>
      </trkpt>
      <trkpt lat="45.07514" lon="5.24416">
        <ele>204</ele>
        <time>2022-10-16T11:04:50.000Z</time>
      </trkpt>
      <trkpt lat="45.07518" lon="5.24418">
        <ele>204</ele>
        <time>2022-10-16T11:04:51.000Z</time>
      </trkpt>
      <trkpt lat="45.07521" lon="5.24421">
        <ele>204</ele>
        <time>2022-10-16T11:04:52.000Z</time>
      </trkpt>
      <trkpt lat="45.07525" lon="5.24423">
        <ele>204</ele>
        <time>2022-10-16T11:04:53.000Z</time>
      </trkpt>
      <trkpt lat="45.0753" lon="5.24425">
        <ele>204</ele>
        <time>2022-10-16T11:04:54.000Z</time>
      </trkpt>
      <trkpt lat="45.07534" lon="5.24426">
        <ele>203.9</ele>
        <time>2022-10-16T11:04:55.000Z</time>
      </trkpt>
      <trkpt lat="45.07538" lon="5.24428">
        <ele>203.8</ele>
        <time>2022-10-16T11:04:56.000Z</time>
      </trkpt>
      <trkpt lat="45.07542" lon="5.2443">
        <ele>203.7</ele>
        <time>2022-10-16T11:04:57.000Z</time>
      </trkpt>
      <trkpt lat="45.07545" lon="5.24431">
        <ele>203.7</ele>
        <time>2022-10-16T11:04:58.000Z</time>
      </trkpt>
      <trkpt lat="45.07549" lon="5.24433">
        <ele>203.7</ele>
        <time>2022-10-16T11:04:59.000Z</time>
      </trkpt>
      <trkpt lat="45.07553" lon="5.24435">
        <ele>203.7</ele>
        <time>2022-10-16T11:05:00.000Z</time>
      </trkpt>
      <trkpt lat="45.07556" lon="5.24437">
        <ele>203.7</ele>
        <time>2022-10-16T11:05:01.000Z</time>
      </trkpt>
      <trkpt lat="45.0756" lon="5.24438">
        <ele>203.8</ele>
        <time>2022-10-16T11:05:02.000Z</time>
      </trkpt>
      <trkpt lat="45.07563" lon="5.2444">
        <ele>203.9</ele>
        <time>2022-10-16T11:05:03.000Z</time>
      </trkpt>
      <trkpt lat="45.07567" lon="5.24441">
        <ele>203.9</ele>
        <time>2022-10-16T11:05:04.000Z</time>
      </trkpt>
      <trkpt lat="45.0757" lon="5.24442">
        <ele>204</ele>
        <time>2022-10-16T11:05:05.000Z</time>
      </trkpt>
      <trkpt lat="45.07574" lon="5.24443">
        <ele>204</ele>
        <time>2022-10-16T11:05:06.000Z</time>
      </trkpt>
      <trkpt lat="45.07577" lon="5.24443">
        <ele>204</ele>
        <time>2022-10-16T11:05:07.000Z</time>
      </trkpt>
      <trkpt lat="45.0758" lon="5.24442">
        <ele>204</ele>
        <time>2022-10-16T11:05:08.000Z</time>
      </trkpt>
      <trkpt lat="45.07583" lon="5.2444">
        <ele>204</ele>
        <time>2022-10-16T11:05:09.000Z</time>
      </trkpt>
      <trkpt lat="45.07585" lon="5.24436">
        <ele>204</ele>
        <time>2022-10-16T11:05:10.000Z</time>
      </trkpt>
      <trkpt lat="45.07587" lon="5.24431">
        <ele>204</ele>
        <time>2022-10-16T11:05:11.000Z</time>
      </trkpt>
      <trkpt lat="45.07588" lon="5.24426">
        <ele>204</ele>
        <time>2022-10-16T11:05:12.000Z</time>
      </trkpt>
      <trkpt lat="45.07588" lon="5.2442">
        <ele>204</ele>
        <time>2022-10-16T11:05:13.000Z</time>
      </trkpt>
      <trkpt lat="45.07589" lon="5.24415">
        <ele>204</ele>
        <time>2022-10-16T11:05:14.000Z</time>
      </trkpt>
      <trkpt lat="45.07589" lon="5.24409">
        <ele>204</ele>
        <time>2022-10-16T11:05:15.000Z</time>
      </trkpt>
      <trkpt lat="45.07589" lon="5.24404">
        <ele>204</ele>
        <time>2022-10-16T11:05:16.000Z</time>
      </trkpt>
      <trkpt lat="45.07589" lon="5.24399">
        <ele>204</ele>
        <time>2022-10-16T11:05:17.000Z</time>
      </trkpt>
      <trkpt lat="45.07589" lon="5.24393">
        <ele>204</ele>
        <time>2022-10-16T11:05:18.000Z</time>
      </trkpt>
      <trkpt lat="45.07589" lon="5.24387">
        <ele>204</ele>
        <time>2022-10-16T11:05:19.000Z</time>
      </trkpt>
      <trkpt lat="45.07589" lon="5.24381">
        <ele>204</ele>
        <time>2022-10-16T11:05:20.000Z</time>
      </trkpt>
      <trkpt lat="45.07589" lon="5.24375">
        <ele>204</ele>
        <time>2022-10-16T11:05:21.000Z</time>
      </trkpt>
      <trkpt lat="45.0759" lon="5.2437">
        <ele>204</ele>
        <time>2022-10-16T11:05:22.000Z</time>
      </trkpt>
      <trkpt lat="45.0759" lon="5.24364">
        <ele>204</ele>
        <time>2022-10-16T11:05:23.000Z</time>
      </trkpt>
      <trkpt lat="45.0759" lon="5.24357">
        <ele>204</ele>
        <time>2022-10-16T11:05:24.000Z</time>
      </trkpt>
      <trkpt lat="45.07591" lon="5.24351">
        <ele>204</ele>
        <time>2022-10-16T11:05:25.000Z</time>
      </trkpt>
      <trkpt lat="45.07592" lon="5.24345">
        <ele>204</ele>
        <time>2022-10-16T11:05:26.000Z</time>
      </trkpt>
      <trkpt lat="45.07593" lon="5.24338">
        <ele>204</ele>
        <time>2022-10-16T11:05:27.000Z</time>
      </trkpt>
      <trkpt lat="45.07595" lon="5.24332">
        <ele>204</ele>
        <time>2022-10-16T11:05:28.000Z</time>
      </trkpt>
      <trkpt lat="45.07596" lon="5.24326">
        <ele>204</ele>
        <time>2022-10-16T11:05:29.000Z</time>
      </trkpt>
      <trkpt lat="45.07598" lon="5.2432">
        <ele>204</ele>
        <time>2022-10-16T11:05:30.000Z</time>
      </trkpt>
      <trkpt lat="45.07599" lon="5.24315">
        <ele>204</ele>
        <time>2022-10-16T11:05:31.000Z</time>
      </trkpt>
      <trkpt lat="45.07601" lon="5.2431">
        <ele>204</ele>
        <time>2022-10-16T11:05:32.000Z</time>
      </trkpt>
      <trkpt lat="45.07603" lon="5.24305">
        <ele>204</ele>
        <time>2022-10-16T11:05:33.000Z</time>
      </trkpt>
      <trkpt lat="45.07604" lon="5.243">
        <ele>204</ele>
        <time>2022-10-16T11:05:34.000Z</time>
      </trkpt>
      <trkpt lat="45.07606" lon="5.24296">
        <ele>203.9</ele>
        <time>2022-10-16T11:05:35.000Z</time>
      </trkpt>
      <trkpt lat="45.07608" lon="5.24291">
        <ele>203.9</ele>
        <time>2022-10-16T11:05:36.000Z</time>
      </trkpt>
      <trkpt lat="45.07609" lon="5.24285">
        <ele>203.9</ele>
        <time>2022-10-16T11:05:37.000Z</time>
      </trkpt>
      <trkpt lat="45.07611" lon="5.24279">
        <ele>204</ele>
        <time>2022-10-16T11:05:38.000Z</time>
      </trkpt>
      <trkpt lat="45.07613" lon="5.24274">
        <ele>204</ele>
        <time>2022-10-16T11:05:39.000Z</time>
      </trkpt>
      <trkpt lat="45.07615" lon="5.24269">
        <ele>204</ele>
        <time>2022-10-16T11:05:40.000Z</time>
      </trkpt>
      <trkpt lat="45.07617" lon="5.24263">
        <ele>204</ele>
        <time>2022-10-16T11:05:41.000Z</time>
      </trkpt>
      <trkpt lat="45.0762" lon="5.24258">
        <ele>204</ele>
        <time>2022-10-16T11:05:42.000Z</time>
      </trkpt>
      <trkpt lat="45.07622" lon="5.24253">
        <ele>204</ele>
        <time>2022-10-16T11:05:43.000Z</time>
      </trkpt>
      <trkpt lat="45.07624" lon="5.24247">
        <ele>203.9</ele>
        <time>2022-10-16T11:05:44.000Z</time>
      </trkpt>
      <trkpt lat="45.07626" lon="5.24242">
        <ele>203.9</ele>
        <time>2022-10-16T11:05:45.000Z</time>
      </trkpt>
      <trkpt lat="45.07628" lon="5.24236">
        <ele>203.8</ele>
        <time>2022-10-16T11:05:46.000Z</time>
      </trkpt>
      <trkpt lat="45.0763" lon="5.24231">
        <ele>203.8</ele>
        <time>2022-10-16T11:05:47.000Z</time>
      </trkpt>
      <trkpt lat="45.07632" lon="5.24226">
        <ele>203.8</ele>
        <time>2022-10-16T11:05:48.000Z</time>
      </trkpt>
      <trkpt lat="45.07634" lon="5.24221">
        <ele>203.8</ele>
        <time>2022-10-16T11:05:49.000Z</time>
      </trkpt>
      <trkpt lat="45.07635" lon="5.24216">
        <ele>203.9</ele>
        <time>2022-10-16T11:05:50.000Z</time>
      </trkpt>
      <trkpt lat="45.07636" lon="5.24211">
        <ele>203.9</ele>
        <time>2022-10-16T11:05:51.000Z</time>
      </trkpt>
      <trkpt lat="45.07637" lon="5.24206">
        <ele>203.9</ele>
        <time>2022-10-16T11:05:52.000Z</time>
      </trkpt>
      <trkpt lat="45.07639" lon="5.24201">
        <ele>204</ele>
        <time>2022-10-16T11:05:53.000Z</time>
      </trkpt>
      <trkpt lat="45.0764" lon="5.24196">
        <ele>204</ele>
        <time>2022-10-16T11:05:54.000Z</time>
      </trkpt>
      <trkpt lat="45.07642" lon="5.2419">
        <ele>204</ele>
        <time>2022-10-16T11:05:55.000Z</time>
      </trkpt>
      <trkpt lat="45.07643" lon="5.24185">
        <ele>204.1</ele>
        <time>2022-10-16T11:05:56.000Z</time>
      </trkpt>
      <trkpt lat="45.07645" lon="5.2418">
        <ele>204.1</ele>
        <time>2022-10-16T11:05:57.000Z</time>
      </trkpt>
      <trkpt lat="45.07647" lon="5.24175">
        <ele>204.2</ele>
        <time>2022-10-16T11:05:58.000Z</time>
      </trkpt>
      <trkpt lat="45.07649" lon="5.24169">
        <ele>204.3</ele>
        <time>2022-10-16T11:05:59.000Z</time>
      </trkpt>
      <trkpt lat="45.07651" lon="5.24164">
        <ele>204.4</ele>
        <time>2022-10-16T11:06:00.000Z</time>
      </trkpt>
      <trkpt lat="45.07654" lon="5.24158">
        <ele>204.4</ele>
        <time>2022-10-16T11:06:01.000Z</time>
      </trkpt>
      <trkpt lat="45.07656" lon="5.24153">
        <ele>204.4</ele>
        <time>2022-10-16T11:06:02.000Z</time>
      </trkpt>
      <trkpt lat="45.07658" lon="5.24148">
        <ele>204.5</ele>
        <time>2022-10-16T11:06:03.000Z</time>
      </trkpt>
      <trkpt lat="45.0766" lon="5.24143">
        <ele>204.6</ele>
        <time>2022-10-16T11:06:04.000Z</time>
      </trkpt>
      <trkpt lat="45.07663" lon="5.24137">
        <ele>204.7</ele>
        <time>2022-10-16T11:06:05.000Z</time>
      </trkpt>
      <trkpt lat="45.07665" lon="5.24132">
        <ele>204.9</ele>
        <time>2022-10-16T11:06:06.000Z</time>
      </trkpt>
      <trkpt lat="45.07667" lon="5.24128">
        <ele>205</ele>
        <time>2022-10-16T11:06:07.000Z</time>
      </trkpt>
      <trkpt lat="45.07669" lon="5.24123">
        <ele>205</ele>
        <time>2022-10-16T11:06:08.000Z</time>
      </trkpt>
      <trkpt lat="45.07671" lon="5.24119">
        <ele>205.1</ele>
        <time>2022-10-16T11:06:09.000Z</time>
      </trkpt>
      <trkpt lat="45.07673" lon="5.24114">
        <ele>205.2</ele>
        <time>2022-10-16T11:06:10.000Z</time>
      </trkpt>
      <trkpt lat="45.07674" lon="5.2411">
        <ele>205.2</ele>
        <time>2022-10-16T11:06:11.000Z</time>
      </trkpt>
      <trkpt lat="45.07676" lon="5.24106">
        <ele>205.2</ele>
        <time>2022-10-16T11:06:12.000Z</time>
      </trkpt>
      <trkpt lat="45.07678" lon="5.24102">
        <ele>205.2</ele>
        <time>2022-10-16T11:06:13.000Z</time>
      </trkpt>
      <trkpt lat="45.07679" lon="5.24098">
        <ele>205.2</ele>
        <time>2022-10-16T11:06:14.000Z</time>
      </trkpt>
      <trkpt lat="45.0768" lon="5.24094">
        <ele>205.2</ele>
        <time>2022-10-16T11:06:15.000Z</time>
      </trkpt>
      <trkpt lat="45.07681" lon="5.24089">
        <ele>205.1</ele>
        <time>2022-10-16T11:06:16.000Z</time>
      </trkpt>
      <trkpt lat="45.07682" lon="5.24085">
        <ele>205.1</ele>
        <time>2022-10-16T11:06:17.000Z</time>
      </trkpt>
      <trkpt lat="45.07683" lon="5.2408">
        <ele>205.2</ele>
        <time>2022-10-16T11:06:18.000Z</time>
      </trkpt>
      <trkpt lat="45.07684" lon="5.24075">
        <ele>205.3</ele>
        <time>2022-10-16T11:06:19.000Z</time>
      </trkpt>
      <trkpt lat="45.07686" lon="5.2407">
        <ele>205.4</ele>
        <time>2022-10-16T11:06:20.000Z</time>
      </trkpt>
      <trkpt lat="45.07688" lon="5.24066">
        <ele>205.6</ele>
        <time>2022-10-16T11:06:21.000Z</time>
      </trkpt>
      <trkpt lat="45.0769" lon="5.24061">
        <ele>205.7</ele>
        <time>2022-10-16T11:06:22.000Z</time>
      </trkpt>
      <trkpt lat="45.07691" lon="5.24056">
        <ele>205.8</ele>
        <time>2022-10-16T11:06:23.000Z</time>
      </trkpt>
      <trkpt lat="45.07693" lon="5.24052">
        <ele>205.7</ele>
        <time>2022-10-16T11:06:24.000Z</time>
      </trkpt>
      <trkpt lat="45.07694" lon="5.24047">
        <ele>205.7</ele>
        <time>2022-10-16T11:06:25.000Z</time>
      </trkpt>
      <trkpt lat="45.07695" lon="5.24043">
        <ele>205.5</ele>
        <time>2022-10-16T11:06:26.000Z</time>
      </trkpt>
      <trkpt lat="45.07696" lon="5.24038">
        <ele>205.4</ele>
        <time>2022-10-16T11:06:27.000Z</time>
      </trkpt>
      <trkpt lat="45.07697" lon="5.24034">
        <ele>205.3</ele>
        <time>2022-10-16T11:06:28.000Z</time>
      </trkpt>
      <trkpt lat="45.07698" lon="5.24029">
        <ele>205.2</ele>
        <time>2022-10-16T11:06:29.000Z</time>
      </trkpt>
      <trkpt lat="45.077" lon="5.24025">
        <ele>205.2</ele>
        <time>2022-10-16T11:06:30.000Z</time>
      </trkpt>
      <trkpt lat="45.07701" lon="5.24022">
        <ele>205.2</ele>
        <time>2022-10-16T11:06:31.000Z</time>
      </trkpt>
      <trkpt lat="45.07702" lon="5.24018">
        <ele>205.2</ele>
        <time>2022-10-16T11:06:32.000Z</time>
      </trkpt>
      <trkpt lat="45.07703" lon="5.24014">
        <ele>205.1</ele>
        <time>2022-10-16T11:06:33.000Z</time>
      </trkpt>
      <trkpt lat="45.07704" lon="5.24011">
        <ele>205.1</ele>
        <time>2022-10-16T11:06:34.000Z</time>
      </trkpt>
      <trkpt lat="45.07706" lon="5.24007">
        <ele>205.1</ele>
        <time>2022-10-16T11:06:35.000Z</time>
      </trkpt>
      <trkpt lat="45.07708" lon="5.24003">
        <ele>205</ele>
        <time>2022-10-16T11:06:36.000Z</time>
      </trkpt>
      <trkpt lat="45.0771" lon="5.23999">
        <ele>205</ele>
        <time>2022-10-16T11:06:37.000Z</time>
      </trkpt>
      <trkpt lat="45.07711" lon="5.23994">
        <ele>205</ele>
        <time>2022-10-16T11:06:38.000Z</time>
      </trkpt>
      <trkpt lat="45.07713" lon="5.23989">
        <ele>205.1</ele>
        <time>2022-10-16T11:06:39.000Z</time>
      </trkpt>
      <trkpt lat="45.07715" lon="5.23984">
        <ele>205.3</ele>
        <time>2022-10-16T11:06:40.000Z</time>
      </trkpt>
      <trkpt lat="45.07716" lon="5.23979">
        <ele>205.4</ele>
        <time>2022-10-16T11:06:41.000Z</time>
      </trkpt>
      <trkpt lat="45.07718" lon="5.23974">
        <ele>205.7</ele>
        <time>2022-10-16T11:06:42.000Z</time>
      </trkpt>
      <trkpt lat="45.0772" lon="5.23969">
        <ele>205.7</ele>
        <time>2022-10-16T11:06:43.000Z</time>
      </trkpt>
      <trkpt lat="45.07722" lon="5.23963">
        <ele>205.6</ele>
        <time>2022-10-16T11:06:44.000Z</time>
      </trkpt>
      <trkpt lat="45.07723" lon="5.23958">
        <ele>205.5</ele>
        <time>2022-10-16T11:06:45.000Z</time>
      </trkpt>
      <trkpt lat="45.07725" lon="5.23952">
        <ele>205.3</ele>
        <time>2022-10-16T11:06:46.000Z</time>
      </trkpt>
      <trkpt lat="45.07726" lon="5.23947">
        <ele>205.2</ele>
        <time>2022-10-16T11:06:47.000Z</time>
      </trkpt>
      <trkpt lat="45.07728" lon="5.23941">
        <ele>205.2</ele>
        <time>2022-10-16T11:06:48.000Z</time>
      </trkpt>
      <trkpt lat="45.07729" lon="5.23936">
        <ele>205.2</ele>
        <time>2022-10-16T11:06:49.000Z</time>
      </trkpt>
      <trkpt lat="45.07731" lon="5.2393">
        <ele>205.1</ele>
        <time>2022-10-16T11:06:50.000Z</time>
      </trkpt>
      <trkpt lat="45.07732" lon="5.23924">
        <ele>205.1</ele>
        <time>2022-10-16T11:06:51.000Z</time>
      </trkpt>
      <trkpt lat="45.07734" lon="5.23919">
        <ele>205</ele>
        <time>2022-10-16T11:06:52.000Z</time>
      </trkpt>
      <trkpt lat="45.07735" lon="5.23913">
        <ele>204.9</ele>
        <time>2022-10-16T11:06:53.000Z</time>
      </trkpt>
      <trkpt lat="45.07737" lon="5.23908">
        <ele>204.8</ele>
        <time>2022-10-16T11:06:54.000Z</time>
      </trkpt>
      <trkpt lat="45.07739" lon="5.23902">
        <ele>204.8</ele>
        <time>2022-10-16T11:06:55.000Z</time>
      </trkpt>
      <trkpt lat="45.0774" lon="5.23896">
        <ele>204.7</ele>
        <time>2022-10-16T11:06:56.000Z</time>
      </trkpt>
      <trkpt lat="45.07742" lon="5.2389">
        <ele>204.7</ele>
        <time>2022-10-16T11:06:57.000Z</time>
      </trkpt>
      <trkpt lat="45.07744" lon="5.23884">
        <ele>204.9</ele>
        <time>2022-10-16T11:06:58.000Z</time>
      </trkpt>
      <trkpt lat="45.07746" lon="5.23878">
        <ele>205.2</ele>
        <time>2022-10-16T11:06:59.000Z</time>
      </trkpt>
      <trkpt lat="45.07748" lon="5.23871">
        <ele>205.5</ele>
        <time>2022-10-16T11:07:00.000Z</time>
      </trkpt>
      <trkpt lat="45.07749" lon="5.23865">
        <ele>205.8</ele>
        <time>2022-10-16T11:07:01.000Z</time>
      </trkpt>
      <trkpt lat="45.07751" lon="5.2386">
        <ele>205.9</ele>
        <time>2022-10-16T11:07:02.000Z</time>
      </trkpt>
      <trkpt lat="45.07752" lon="5.23854">
        <ele>205.7</ele>
        <time>2022-10-16T11:07:03.000Z</time>
      </trkpt>
      <trkpt lat="45.07754" lon="5.23849">
        <ele>205.5</ele>
        <time>2022-10-16T11:07:04.000Z</time>
      </trkpt>
      <trkpt lat="45.07755" lon="5.23843">
        <ele>205.3</ele>
        <time>2022-10-16T11:07:05.000Z</time>
      </trkpt>
      <trkpt lat="45.07757" lon="5.23838">
        <ele>205.1</ele>
        <time>2022-10-16T11:07:06.000Z</time>
      </trkpt>
      <trkpt lat="45.07759" lon="5.23832">
        <ele>205</ele>
        <time>2022-10-16T11:07:07.000Z</time>
      </trkpt>
      <trkpt lat="45.0776" lon="5.23826">
        <ele>205</ele>
        <time>2022-10-16T11:07:08.000Z</time>
      </trkpt>
      <trkpt lat="45.07762" lon="5.2382">
        <ele>205</ele>
        <time>2022-10-16T11:07:09.000Z</time>
      </trkpt>
      <trkpt lat="45.07764" lon="5.23814">
        <ele>205</ele>
        <time>2022-10-16T11:07:10.000Z</time>
      </trkpt>
      <trkpt lat="45.07766" lon="5.23807">
        <ele>205</ele>
        <time>2022-10-16T11:07:11.000Z</time>
      </trkpt>
      <trkpt lat="45.07767" lon="5.23801">
        <ele>204.9</ele>
        <time>2022-10-16T11:07:12.000Z</time>
      </trkpt>
      <trkpt lat="45.07769" lon="5.23795">
        <ele>204.9</ele>
        <time>2022-10-16T11:07:13.000Z</time>
      </trkpt>
      <trkpt lat="45.07771" lon="5.2379">
        <ele>204.9</ele>
        <time>2022-10-16T11:07:14.000Z</time>
      </trkpt>
      <trkpt lat="45.07772" lon="5.23784">
        <ele>204.8</ele>
        <time>2022-10-16T11:07:15.000Z</time>
      </trkpt>
      <trkpt lat="45.07774" lon="5.23778">
        <ele>204.9</ele>
        <time>2022-10-16T11:07:16.000Z</time>
      </trkpt>
      <trkpt lat="45.07776" lon="5.23772">
        <ele>205.1</ele>
        <time>2022-10-16T11:07:17.000Z</time>
      </trkpt>
      <trkpt lat="45.07777" lon="5.23766">
        <ele>205.4</ele>
        <time>2022-10-16T11:07:18.000Z</time>
      </trkpt>
      <trkpt lat="45.07779" lon="5.2376">
        <ele>205.7</ele>
        <time>2022-10-16T11:07:19.000Z</time>
      </trkpt>
      <trkpt lat="45.07781" lon="5.23753">
        <ele>205.9</ele>
        <time>2022-10-16T11:07:20.000Z</time>
      </trkpt>
      <trkpt lat="45.07783" lon="5.23746">
        <ele>205.9</ele>
        <time>2022-10-16T11:07:21.000Z</time>
      </trkpt>
      <trkpt lat="45.07784" lon="5.2374">
        <ele>205.7</ele>
        <time>2022-10-16T11:07:22.000Z</time>
      </trkpt>
      <trkpt lat="45.07786" lon="5.23733">
        <ele>205.6</ele>
        <time>2022-10-16T11:07:23.000Z</time>
      </trkpt>
      <trkpt lat="45.07788" lon="5.23728">
        <ele>205.5</ele>
        <time>2022-10-16T11:07:24.000Z</time>
      </trkpt>
      <trkpt lat="45.0779" lon="5.23722">
        <ele>205.4</ele>
        <time>2022-10-16T11:07:25.000Z</time>
      </trkpt>
      <trkpt lat="45.07792" lon="5.23717">
        <ele>205.4</ele>
        <time>2022-10-16T11:07:26.000Z</time>
      </trkpt>
      <trkpt lat="45.07793" lon="5.23712">
        <ele>205.4</ele>
        <time>2022-10-16T11:07:27.000Z</time>
      </trkpt>
      <trkpt lat="45.07795" lon="5.23707">
        <ele>205.4</ele>
        <time>2022-10-16T11:07:28.000Z</time>
      </trkpt>
      <trkpt lat="45.07796" lon="5.23702">
        <ele>205.4</ele>
        <time>2022-10-16T11:07:29.000Z</time>
      </trkpt>
      <trkpt lat="45.07798" lon="5.23697">
        <ele>205.5</ele>
        <time>2022-10-16T11:07:30.000Z</time>
      </trkpt>
      <trkpt lat="45.078" lon="5.23691">
        <ele>205.6</ele>
        <time>2022-10-16T11:07:31.000Z</time>
      </trkpt>
      <trkpt lat="45.07801" lon="5.23686">
        <ele>205.7</ele>
        <time>2022-10-16T11:07:32.000Z</time>
      </trkpt>
      <trkpt lat="45.07803" lon="5.2368">
        <ele>205.8</ele>
        <time>2022-10-16T11:07:33.000Z</time>
      </trkpt>
      <trkpt lat="45.07805" lon="5.23675">
        <ele>205.9</ele>
        <time>2022-10-16T11:07:34.000Z</time>
      </trkpt>
      <trkpt lat="45.07806" lon="5.23669">
        <ele>206</ele>
        <time>2022-10-16T11:07:35.000Z</time>
      </trkpt>
      <trkpt lat="45.07808" lon="5.23664">
        <ele>205.8</ele>
        <time>2022-10-16T11:07:36.000Z</time>
      </trkpt>
      <trkpt lat="45.0781" lon="5.23658">
        <ele>205.5</ele>
        <time>2022-10-16T11:07:37.000Z</time>
      </trkpt>
      <trkpt lat="45.07812" lon="5.23652">
        <ele>205.2</ele>
        <time>2022-10-16T11:07:38.000Z</time>
      </trkpt>
      <trkpt lat="45.07813" lon="5.23647">
        <ele>205</ele>
        <time>2022-10-16T11:07:39.000Z</time>
      </trkpt>
      <trkpt lat="45.07815" lon="5.23641">
        <ele>204.8</ele>
        <time>2022-10-16T11:07:40.000Z</time>
      </trkpt>
      <trkpt lat="45.07817" lon="5.23635">
        <ele>204.8</ele>
        <time>2022-10-16T11:07:41.000Z</time>
      </trkpt>
      <trkpt lat="45.07818" lon="5.2363">
        <ele>204.9</ele>
        <time>2022-10-16T11:07:42.000Z</time>
      </trkpt>
      <trkpt lat="45.0782" lon="5.23624">
        <ele>205.1</ele>
        <time>2022-10-16T11:07:43.000Z</time>
      </trkpt>
      <trkpt lat="45.07822" lon="5.23618">
        <ele>205.2</ele>
        <time>2022-10-16T11:07:44.000Z</time>
      </trkpt>
      <trkpt lat="45.07824" lon="5.23613">
        <ele>205.3</ele>
        <time>2022-10-16T11:07:45.000Z</time>
      </trkpt>
      <trkpt lat="45.07825" lon="5.23608">
        <ele>205.4</ele>
        <time>2022-10-16T11:07:46.000Z</time>
      </trkpt>
      <trkpt lat="45.07827" lon="5.23602">
        <ele>205.5</ele>
        <time>2022-10-16T11:07:47.000Z</time>
      </trkpt>
      <trkpt lat="45.07828" lon="5.23597">
        <ele>205.6</ele>
        <time>2022-10-16T11:07:48.000Z</time>
      </trkpt>
      <trkpt lat="45.07829" lon="5.23591">
        <ele>205.7</ele>
        <time>2022-10-16T11:07:49.000Z</time>
      </trkpt>
      <trkpt lat="45.07831" lon="5.23586">
        <ele>205.8</ele>
        <time>2022-10-16T11:07:50.000Z</time>
      </trkpt>
      <trkpt lat="45.07833" lon="5.2358">
        <ele>205.9</ele>
        <time>2022-10-16T11:07:51.000Z</time>
      </trkpt>
      <trkpt lat="45.07834" lon="5.23574">
        <ele>206</ele>
        <time>2022-10-16T11:07:52.000Z</time>
      </trkpt>
      <trkpt lat="45.07836" lon="5.23568">
        <ele>206</ele>
        <time>2022-10-16T11:07:53.000Z</time>
      </trkpt>
      <trkpt lat="45.07837" lon="5.23561">
        <ele>206</ele>
        <time>2022-10-16T11:07:54.000Z</time>
      </trkpt>
      <trkpt lat="45.07839" lon="5.23555">
        <ele>206</ele>
        <time>2022-10-16T11:07:55.000Z</time>
      </trkpt>
      <trkpt lat="45.0784" lon="5.23549">
        <ele>205.8</ele>
        <time>2022-10-16T11:07:56.000Z</time>
      </trkpt>
      <trkpt lat="45.07842" lon="5.23542">
        <ele>205.7</ele>
        <time>2022-10-16T11:07:57.000Z</time>
      </trkpt>
      <trkpt lat="45.07843" lon="5.23536">
        <ele>205.5</ele>
        <time>2022-10-16T11:07:58.000Z</time>
      </trkpt>
      <trkpt lat="45.07845" lon="5.2353">
        <ele>205.4</ele>
        <time>2022-10-16T11:07:59.000Z</time>
      </trkpt>
      <trkpt lat="45.07846" lon="5.23525">
        <ele>205.4</ele>
        <time>2022-10-16T11:08:00.000Z</time>
      </trkpt>
      <trkpt lat="45.07848" lon="5.23519">
        <ele>205.4</ele>
        <time>2022-10-16T11:08:01.000Z</time>
      </trkpt>
      <trkpt lat="45.0785" lon="5.23513">
        <ele>205.4</ele>
        <time>2022-10-16T11:08:02.000Z</time>
      </trkpt>
      <trkpt lat="45.07851" lon="5.23507">
        <ele>205.4</ele>
        <time>2022-10-16T11:08:03.000Z</time>
      </trkpt>
      <trkpt lat="45.07852" lon="5.23501">
        <ele>205.4</ele>
        <time>2022-10-16T11:08:04.000Z</time>
      </trkpt>
      <trkpt lat="45.07853" lon="5.23496">
        <ele>205.4</ele>
        <time>2022-10-16T11:08:05.000Z</time>
      </trkpt>
      <trkpt lat="45.07855" lon="5.23491">
        <ele>205.4</ele>
        <time>2022-10-16T11:08:06.000Z</time>
      </trkpt>
      <trkpt lat="45.07856" lon="5.23486">
        <ele>205.5</ele>
        <time>2022-10-16T11:08:07.000Z</time>
      </trkpt>
      <trkpt lat="45.07857" lon="5.23481">
        <ele>205.6</ele>
        <time>2022-10-16T11:08:08.000Z</time>
      </trkpt>
      <trkpt lat="45.07859" lon="5.23476">
        <ele>205.8</ele>
        <time>2022-10-16T11:08:09.000Z</time>
      </trkpt>
      <trkpt lat="45.07861" lon="5.23471">
        <ele>206</ele>
        <time>2022-10-16T11:08:10.000Z</time>
      </trkpt>
      <trkpt lat="45.07862" lon="5.23465">
        <ele>206</ele>
        <time>2022-10-16T11:08:11.000Z</time>
      </trkpt>
      <trkpt lat="45.07864" lon="5.23459">
        <ele>206</ele>
        <time>2022-10-16T11:08:12.000Z</time>
      </trkpt>
      <trkpt lat="45.07865" lon="5.23454">
        <ele>206</ele>
        <time>2022-10-16T11:08:13.000Z</time>
      </trkpt>
      <trkpt lat="45.07866" lon="5.23448">
        <ele>206</ele>
        <time>2022-10-16T11:08:14.000Z</time>
      </trkpt>
      <trkpt lat="45.07868" lon="5.23442">
        <ele>205.8</ele>
        <time>2022-10-16T11:08:15.000Z</time>
      </trkpt>
      <trkpt lat="45.0787" lon="5.23436">
        <ele>205.4</ele>
        <time>2022-10-16T11:08:16.000Z</time>
      </trkpt>
      <trkpt lat="45.07872" lon="5.23431">
        <ele>205.1</ele>
        <time>2022-10-16T11:08:17.000Z</time>
      </trkpt>
      <trkpt lat="45.07874" lon="5.23425">
        <ele>204.9</ele>
        <time>2022-10-16T11:08:18.000Z</time>
      </trkpt>
      <trkpt lat="45.07876" lon="5.23419">
        <ele>204.7</ele>
        <time>2022-10-16T11:08:19.000Z</time>
      </trkpt>
      <trkpt lat="45.07878" lon="5.23413">
        <ele>204.8</ele>
        <time>2022-10-16T11:08:20.000Z</time>
      </trkpt>
      <trkpt lat="45.0788" lon="5.23407">
        <ele>205.1</ele>
        <time>2022-10-16T11:08:21.000Z</time>
      </trkpt>
      <trkpt lat="45.07883" lon="5.23402">
        <ele>205.4</ele>
        <time>2022-10-16T11:08:22.000Z</time>
      </trkpt>
      <trkpt lat="45.07886" lon="5.23396">
        <ele>205.7</ele>
        <time>2022-10-16T11:08:23.000Z</time>
      </trkpt>
      <trkpt lat="45.07889" lon="5.2339">
        <ele>206</ele>
        <time>2022-10-16T11:08:24.000Z</time>
      </trkpt>
      <trkpt lat="45.07892" lon="5.23384">
        <ele>205.8</ele>
        <time>2022-10-16T11:08:25.000Z</time>
      </trkpt>
      <trkpt lat="45.07895" lon="5.23379">
        <ele>205.6</ele>
        <time>2022-10-16T11:08:26.000Z</time>
      </trkpt>
      <trkpt lat="45.07897" lon="5.23373">
        <ele>205.4</ele>
        <time>2022-10-16T11:08:27.000Z</time>
      </trkpt>
      <trkpt lat="45.079" lon="5.23368">
        <ele>205.2</ele>
        <time>2022-10-16T11:08:28.000Z</time>
      </trkpt>
      <trkpt lat="45.07904" lon="5.23362">
        <ele>205</ele>
        <time>2022-10-16T11:08:29.000Z</time>
      </trkpt>
      <trkpt lat="45.07907" lon="5.23357">
        <ele>204.9</ele>
        <time>2022-10-16T11:08:30.000Z</time>
      </trkpt>
      <trkpt lat="45.07909" lon="5.23352">
        <ele>204.8</ele>
        <time>2022-10-16T11:08:31.000Z</time>
      </trkpt>
      <trkpt lat="45.07912" lon="5.23347">
        <ele>204.8</ele>
        <time>2022-10-16T11:08:32.000Z</time>
      </trkpt>
      <trkpt lat="45.07914" lon="5.23342">
        <ele>204.9</ele>
        <time>2022-10-16T11:08:33.000Z</time>
      </trkpt>
      <trkpt lat="45.07916" lon="5.23337">
        <ele>205</ele>
        <time>2022-10-16T11:08:34.000Z</time>
      </trkpt>
      <trkpt lat="45.07919" lon="5.23332">
        <ele>205</ele>
        <time>2022-10-16T11:08:35.000Z</time>
      </trkpt>
      <trkpt lat="45.07921" lon="5.23328">
        <ele>204.9</ele>
        <time>2022-10-16T11:08:36.000Z</time>
      </trkpt>
      <trkpt lat="45.07924" lon="5.23324">
        <ele>204.8</ele>
        <time>2022-10-16T11:08:37.000Z</time>
      </trkpt>
      <trkpt lat="45.07926" lon="5.23319">
        <ele>204.8</ele>
        <time>2022-10-16T11:08:38.000Z</time>
      </trkpt>
      <trkpt lat="45.07929" lon="5.23315">
        <ele>204.9</ele>
        <time>2022-10-16T11:08:39.000Z</time>
      </trkpt>
      <trkpt lat="45.07932" lon="5.23311">
        <ele>205.1</ele>
        <time>2022-10-16T11:08:40.000Z</time>
      </trkpt>
      <trkpt lat="45.07934" lon="5.23307">
        <ele>205.2</ele>
        <time>2022-10-16T11:08:41.000Z</time>
      </trkpt>
      <trkpt lat="45.07936" lon="5.23303">
        <ele>205.3</ele>
        <time>2022-10-16T11:08:42.000Z</time>
      </trkpt>
      <trkpt lat="45.07939" lon="5.23298">
        <ele>205.4</ele>
        <time>2022-10-16T11:08:43.000Z</time>
      </trkpt>
      <trkpt lat="45.07941" lon="5.23293">
        <ele>205.3</ele>
        <time>2022-10-16T11:08:44.000Z</time>
      </trkpt>
      <trkpt lat="45.07943" lon="5.23288">
        <ele>205.3</ele>
        <time>2022-10-16T11:08:45.000Z</time>
      </trkpt>
      <trkpt lat="45.07945" lon="5.23284">
        <ele>205.2</ele>
        <time>2022-10-16T11:08:46.000Z</time>
      </trkpt>
      <trkpt lat="45.07947" lon="5.23279">
        <ele>205.1</ele>
        <time>2022-10-16T11:08:47.000Z</time>
      </trkpt>
      <trkpt lat="45.07949" lon="5.23274">
        <ele>205.2</ele>
        <time>2022-10-16T11:08:48.000Z</time>
      </trkpt>
      <trkpt lat="45.07951" lon="5.23269">
        <ele>205.2</ele>
        <time>2022-10-16T11:08:49.000Z</time>
      </trkpt>
      <trkpt lat="45.07953" lon="5.23263">
        <ele>205.3</ele>
        <time>2022-10-16T11:08:50.000Z</time>
      </trkpt>
      <trkpt lat="45.07955" lon="5.23258">
        <ele>205.4</ele>
        <time>2022-10-16T11:08:51.000Z</time>
      </trkpt>
      <trkpt lat="45.07956" lon="5.23253">
        <ele>205.4</ele>
        <time>2022-10-16T11:08:52.000Z</time>
      </trkpt>
      <trkpt lat="45.07957" lon="5.23248">
        <ele>205.4</ele>
        <time>2022-10-16T11:08:53.000Z</time>
      </trkpt>
      <trkpt lat="45.07959" lon="5.23242">
        <ele>205.2</ele>
        <time>2022-10-16T11:08:54.000Z</time>
      </trkpt>
      <trkpt lat="45.07961" lon="5.23237">
        <ele>205.1</ele>
        <time>2022-10-16T11:08:55.000Z</time>
      </trkpt>
      <trkpt lat="45.07962" lon="5.23231">
        <ele>205</ele>
        <time>2022-10-16T11:08:56.000Z</time>
      </trkpt>
      <trkpt lat="45.07964" lon="5.23225">
        <ele>204.8</ele>
        <time>2022-10-16T11:08:57.000Z</time>
      </trkpt>
      <trkpt lat="45.07966" lon="5.2322">
        <ele>204.8</ele>
        <time>2022-10-16T11:08:58.000Z</time>
      </trkpt>
      <trkpt lat="45.07967" lon="5.23214">
        <ele>205</ele>
        <time>2022-10-16T11:08:59.000Z</time>
      </trkpt>
      <trkpt lat="45.07969" lon="5.23208">
        <ele>205.3</ele>
        <time>2022-10-16T11:09:00.000Z</time>
      </trkpt>
      <trkpt lat="45.07971" lon="5.23202">
        <ele>205.6</ele>
        <time>2022-10-16T11:09:01.000Z</time>
      </trkpt>
      <trkpt lat="45.07973" lon="5.23197">
        <ele>205.9</ele>
        <time>2022-10-16T11:09:02.000Z</time>
      </trkpt>
      <trkpt lat="45.07975" lon="5.23191">
        <ele>205.8</ele>
        <time>2022-10-16T11:09:03.000Z</time>
      </trkpt>
      <trkpt lat="45.07978" lon="5.23186">
        <ele>205.6</ele>
        <time>2022-10-16T11:09:04.000Z</time>
      </trkpt>
      <trkpt lat="45.0798" lon="5.23181">
        <ele>205.4</ele>
        <time>2022-10-16T11:09:05.000Z</time>
      </trkpt>
      <trkpt lat="45.07982" lon="5.23175">
        <ele>205.2</ele>
        <time>2022-10-16T11:09:06.000Z</time>
      </trkpt>
      <trkpt lat="45.07984" lon="5.23168">
        <ele>205</ele>
        <time>2022-10-16T11:09:07.000Z</time>
      </trkpt>
      <trkpt lat="45.07986" lon="5.23162">
        <ele>204.9</ele>
        <time>2022-10-16T11:09:08.000Z</time>
      </trkpt>
      <trkpt lat="45.07988" lon="5.23155">
        <ele>204.8</ele>
        <time>2022-10-16T11:09:09.000Z</time>
      </trkpt>
      <trkpt lat="45.0799" lon="5.23149">
        <ele>204.8</ele>
        <time>2022-10-16T11:09:10.000Z</time>
      </trkpt>
      <trkpt lat="45.07992" lon="5.23142">
        <ele>204.8</ele>
        <time>2022-10-16T11:09:11.000Z</time>
      </trkpt>
      <trkpt lat="45.07995" lon="5.23135">
        <ele>204.7</ele>
        <time>2022-10-16T11:09:12.000Z</time>
      </trkpt>
      <trkpt lat="45.07997" lon="5.23128">
        <ele>204.8</ele>
        <time>2022-10-16T11:09:13.000Z</time>
      </trkpt>
      <trkpt lat="45.07999" lon="5.23122">
        <ele>204.9</ele>
        <time>2022-10-16T11:09:14.000Z</time>
      </trkpt>
      <trkpt lat="45.08001" lon="5.23115">
        <ele>205</ele>
        <time>2022-10-16T11:09:15.000Z</time>
      </trkpt>
      <trkpt lat="45.08003" lon="5.23109">
        <ele>204.7</ele>
        <time>2022-10-16T11:09:16.000Z</time>
      </trkpt>
      <trkpt lat="45.08005" lon="5.23102">
        <ele>204.3</ele>
        <time>2022-10-16T11:09:17.000Z</time>
      </trkpt>
      <trkpt lat="45.08007" lon="5.23096">
        <ele>203.9</ele>
        <time>2022-10-16T11:09:18.000Z</time>
      </trkpt>
      <trkpt lat="45.08009" lon="5.2309">
        <ele>203.6</ele>
        <time>2022-10-16T11:09:19.000Z</time>
      </trkpt>
      <trkpt lat="45.08011" lon="5.23084">
        <ele>203.4</ele>
        <time>2022-10-16T11:09:20.000Z</time>
      </trkpt>
      <trkpt lat="45.08013" lon="5.23077">
        <ele>203.4</ele>
        <time>2022-10-16T11:09:21.000Z</time>
      </trkpt>
      <trkpt lat="45.08016" lon="5.2307">
        <ele>203.4</ele>
        <time>2022-10-16T11:09:22.000Z</time>
      </trkpt>
      <trkpt lat="45.08018" lon="5.23063">
        <ele>203.4</ele>
        <time>2022-10-16T11:09:23.000Z</time>
      </trkpt>
      <trkpt lat="45.0802" lon="5.23056">
        <ele>203.5</ele>
        <time>2022-10-16T11:09:24.000Z</time>
      </trkpt>
      <trkpt lat="45.08023" lon="5.23049">
        <ele>203.6</ele>
        <time>2022-10-16T11:09:25.000Z</time>
      </trkpt>
      <trkpt lat="45.08025" lon="5.23041">
        <ele>203.7</ele>
        <time>2022-10-16T11:09:26.000Z</time>
      </trkpt>
      <trkpt lat="45.08027" lon="5.23034">
        <ele>203.9</ele>
        <time>2022-10-16T11:09:27.000Z</time>
      </trkpt>
      <trkpt lat="45.08029" lon="5.23026">
        <ele>203.9</ele>
        <time>2022-10-16T11:09:28.000Z</time>
      </trkpt>
      <trkpt lat="45.08031" lon="5.23019">
        <ele>203.7</ele>
        <time>2022-10-16T11:09:29.000Z</time>
      </trkpt>
      <trkpt lat="45.08033" lon="5.23012">
        <ele>203.5</ele>
        <time>2022-10-16T11:09:30.000Z</time>
      </trkpt>
      <trkpt lat="45.08034" lon="5.23004">
        <ele>203.3</ele>
        <time>2022-10-16T11:09:31.000Z</time>
      </trkpt>
      <trkpt lat="45.08034" lon="5.22997">
        <ele>203.2</ele>
        <time>2022-10-16T11:09:32.000Z</time>
      </trkpt>
      <trkpt lat="45.08035" lon="5.2299">
        <ele>203</ele>
        <time>2022-10-16T11:09:33.000Z</time>
      </trkpt>
      <trkpt lat="45.08036" lon="5.22983">
        <ele>202.9</ele>
        <time>2022-10-16T11:09:34.000Z</time>
      </trkpt>
      <trkpt lat="45.08037" lon="5.22976">
        <ele>202.7</ele>
        <time>2022-10-16T11:09:35.000Z</time>
      </trkpt>
      <trkpt lat="45.08037" lon="5.22969">
        <ele>202.6</ele>
        <time>2022-10-16T11:09:36.000Z</time>
      </trkpt>
      <trkpt lat="45.08038" lon="5.22962">
        <ele>202.6</ele>
        <time>2022-10-16T11:09:37.000Z</time>
      </trkpt>
      <trkpt lat="45.08039" lon="5.22954">
        <ele>202.6</ele>
        <time>2022-10-16T11:09:38.000Z</time>
      </trkpt>
      <trkpt lat="45.0804" lon="5.22947">
        <ele>202.5</ele>
        <time>2022-10-16T11:09:39.000Z</time>
      </trkpt>
      <trkpt lat="45.08042" lon="5.22939">
        <ele>202.4</ele>
        <time>2022-10-16T11:09:40.000Z</time>
      </trkpt>
      <trkpt lat="45.08043" lon="5.22931">
        <ele>202.3</ele>
        <time>2022-10-16T11:09:41.000Z</time>
      </trkpt>
      <trkpt lat="45.08045" lon="5.22924">
        <ele>202.3</ele>
        <time>2022-10-16T11:09:42.000Z</time>
      </trkpt>
      <trkpt lat="45.08047" lon="5.22916">
        <ele>202.4</ele>
        <time>2022-10-16T11:09:43.000Z</time>
      </trkpt>
      <trkpt lat="45.0805" lon="5.22909">
        <ele>202.3</ele>
        <time>2022-10-16T11:09:44.000Z</time>
      </trkpt>
      <trkpt lat="45.08052" lon="5.22902">
        <ele>202.2</ele>
        <time>2022-10-16T11:09:45.000Z</time>
      </trkpt>
      <trkpt lat="45.08055" lon="5.22895">
        <ele>202.2</ele>
        <time>2022-10-16T11:09:46.000Z</time>
      </trkpt>
      <trkpt lat="45.08058" lon="5.22888">
        <ele>202.1</ele>
        <time>2022-10-16T11:09:47.000Z</time>
      </trkpt>
      <trkpt lat="45.0806" lon="5.22881">
        <ele>201.8</ele>
        <time>2022-10-16T11:09:48.000Z</time>
      </trkpt>
      <trkpt lat="45.08063" lon="5.22875">
        <ele>201.6</ele>
        <time>2022-10-16T11:09:49.000Z</time>
      </trkpt>
      <trkpt lat="45.08065" lon="5.22868">
        <ele>201.4</ele>
        <time>2022-10-16T11:09:50.000Z</time>
      </trkpt>
      <trkpt lat="45.08068" lon="5.22861">
        <ele>201.3</ele>
        <time>2022-10-16T11:09:51.000Z</time>
      </trkpt>
      <trkpt lat="45.08071" lon="5.22854">
        <ele>201.4</ele>
        <time>2022-10-16T11:09:52.000Z</time>
      </trkpt>
      <trkpt lat="45.08073" lon="5.22848">
        <ele>201.4</ele>
        <time>2022-10-16T11:09:53.000Z</time>
      </trkpt>
      <trkpt lat="45.08076" lon="5.22841">
        <ele>201.5</ele>
        <time>2022-10-16T11:09:54.000Z</time>
      </trkpt>
      <trkpt lat="45.08078" lon="5.22835">
        <ele>201.5</ele>
        <time>2022-10-16T11:09:55.000Z</time>
      </trkpt>
      <trkpt lat="45.08081" lon="5.2283">
        <ele>201.6</ele>
        <time>2022-10-16T11:09:56.000Z</time>
      </trkpt>
      <trkpt lat="45.08083" lon="5.22824">
        <ele>201.6</ele>
        <time>2022-10-16T11:09:57.000Z</time>
      </trkpt>
      <trkpt lat="45.08085" lon="5.22818">
        <ele>201.6</ele>
        <time>2022-10-16T11:09:58.000Z</time>
      </trkpt>
      <trkpt lat="45.08088" lon="5.22813">
        <ele>201.6</ele>
        <time>2022-10-16T11:09:59.000Z</time>
      </trkpt>
      <trkpt lat="45.0809" lon="5.22807">
        <ele>201.5</ele>
        <time>2022-10-16T11:10:00.000Z</time>
      </trkpt>
      <trkpt lat="45.08093" lon="5.22801">
        <ele>201.3</ele>
        <time>2022-10-16T11:10:01.000Z</time>
      </trkpt>
      <trkpt lat="45.08096" lon="5.22795">
        <ele>201.1</ele>
        <time>2022-10-16T11:10:02.000Z</time>
      </trkpt>
      <trkpt lat="45.08099" lon="5.22789">
        <ele>201</ele>
        <time>2022-10-16T11:10:03.000Z</time>
      </trkpt>
      <trkpt lat="45.08101" lon="5.22783">
        <ele>200.9</ele>
        <time>2022-10-16T11:10:04.000Z</time>
      </trkpt>
      <trkpt lat="45.08104" lon="5.22776">
        <ele>200.8</ele>
        <time>2022-10-16T11:10:05.000Z</time>
      </trkpt>
      <trkpt lat="45.08107" lon="5.22769">
        <ele>200.7</ele>
        <time>2022-10-16T11:10:06.000Z</time>
      </trkpt>
      <trkpt lat="45.0811" lon="5.22763">
        <ele>200.7</ele>
        <time>2022-10-16T11:10:07.000Z</time>
      </trkpt>
      <trkpt lat="45.08114" lon="5.22756">
        <ele>200.7</ele>
        <time>2022-10-16T11:10:08.000Z</time>
      </trkpt>
      <trkpt lat="45.08118" lon="5.2275">
        <ele>200.7</ele>
        <time>2022-10-16T11:10:09.000Z</time>
      </trkpt>
      <trkpt lat="45.08122" lon="5.22744">
        <ele>200</ele>
        <time>2022-10-16T11:10:10.000Z</time>
      </trkpt>
      <trkpt lat="45.08126" lon="5.22737">
        <ele>199.3</ele>
        <time>2022-10-16T11:10:11.000Z</time>
      </trkpt>
      <trkpt lat="45.08131" lon="5.22732">
        <ele>198.8</ele>
        <time>2022-10-16T11:10:12.000Z</time>
      </trkpt>
      <trkpt lat="45.08135" lon="5.22724">
        <ele>198</ele>
        <time>2022-10-16T11:10:13.000Z</time>
      </trkpt>
      <trkpt lat="45.08141" lon="5.22718">
        <ele>198</ele>
        <time>2022-10-16T11:10:14.000Z</time>
      </trkpt>
      <trkpt lat="45.08146" lon="5.22711">
        <ele>198.5</ele>
        <time>2022-10-16T11:10:15.000Z</time>
      </trkpt>
      <trkpt lat="45.08151" lon="5.22703">
        <ele>198.7</ele>
        <time>2022-10-16T11:10:16.000Z</time>
      </trkpt>
      <trkpt lat="45.08157" lon="5.22696">
        <ele>198.7</ele>
        <time>2022-10-16T11:10:17.000Z</time>
      </trkpt>
      <trkpt lat="45.08162" lon="5.22688">
        <ele>198.5</ele>
        <time>2022-10-16T11:10:18.000Z</time>
      </trkpt>
      <trkpt lat="45.08168" lon="5.22681">
        <ele>198.2</ele>
        <time>2022-10-16T11:10:19.000Z</time>
      </trkpt>
      <trkpt lat="45.08173" lon="5.22674">
        <ele>197.9</ele>
        <time>2022-10-16T11:10:20.000Z</time>
      </trkpt>
      <trkpt lat="45.08179" lon="5.22667">
        <ele>197.8</ele>
        <time>2022-10-16T11:10:21.000Z</time>
      </trkpt>
      <trkpt lat="45.08185" lon="5.2266">
        <ele>197.6</ele>
        <time>2022-10-16T11:10:22.000Z</time>
      </trkpt>
      <trkpt lat="45.08191" lon="5.22653">
        <ele>197.2</ele>
        <time>2022-10-16T11:10:23.000Z</time>
      </trkpt>
      <trkpt lat="45.08197" lon="5.22646">
        <ele>196.5</ele>
        <time>2022-10-16T11:10:24.000Z</time>
      </trkpt>
      <trkpt lat="45.08202" lon="5.22638">
        <ele>196</ele>
        <time>2022-10-16T11:10:25.000Z</time>
      </trkpt>
      <trkpt lat="45.08208" lon="5.22629">
        <ele>195.7</ele>
        <time>2022-10-16T11:10:26.000Z</time>
      </trkpt>
      <trkpt lat="45.08214" lon="5.2262">
        <ele>195.3</ele>
        <time>2022-10-16T11:10:27.000Z</time>
      </trkpt>
      <trkpt lat="45.08219" lon="5.22612">
        <ele>194.8</ele>
        <time>2022-10-16T11:10:28.000Z</time>
      </trkpt>
      <trkpt lat="45.08225" lon="5.22604">
        <ele>194.6</ele>
        <time>2022-10-16T11:10:29.000Z</time>
      </trkpt>
      <trkpt lat="45.08231" lon="5.22597">
        <ele>194.4</ele>
        <time>2022-10-16T11:10:30.000Z</time>
      </trkpt>
      <trkpt lat="45.08236" lon="5.22589">
        <ele>194</ele>
        <time>2022-10-16T11:10:31.000Z</time>
      </trkpt>
      <trkpt lat="45.08241" lon="5.22581">
        <ele>193.6</ele>
        <time>2022-10-16T11:10:32.000Z</time>
      </trkpt>
      <trkpt lat="45.08247" lon="5.22573">
        <ele>193.5</ele>
        <time>2022-10-16T11:10:33.000Z</time>
      </trkpt>
      <trkpt lat="45.08252" lon="5.22566">
        <ele>193.5</ele>
        <time>2022-10-16T11:10:34.000Z</time>
      </trkpt>
      <trkpt lat="45.08257" lon="5.22559">
        <ele>193.4</ele>
        <time>2022-10-16T11:10:35.000Z</time>
      </trkpt>
      <trkpt lat="45.08261" lon="5.22551">
        <ele>193.1</ele>
        <time>2022-10-16T11:10:36.000Z</time>
      </trkpt>
      <trkpt lat="45.08266" lon="5.22544">
        <ele>192.7</ele>
        <time>2022-10-16T11:10:37.000Z</time>
      </trkpt>
      <trkpt lat="45.08271" lon="5.22537">
        <ele>192.4</ele>
        <time>2022-10-16T11:10:38.000Z</time>
      </trkpt>
      <trkpt lat="45.08276" lon="5.22531">
        <ele>192.2</ele>
        <time>2022-10-16T11:10:39.000Z</time>
      </trkpt>
      <trkpt lat="45.0828" lon="5.22525">
        <ele>192.1</ele>
        <time>2022-10-16T11:10:40.000Z</time>
      </trkpt>
      <trkpt lat="45.08284" lon="5.22519">
        <ele>192.2</ele>
        <time>2022-10-16T11:10:41.000Z</time>
      </trkpt>
      <trkpt lat="45.08288" lon="5.22513">
        <ele>192.4</ele>
        <time>2022-10-16T11:10:42.000Z</time>
      </trkpt>
      <trkpt lat="45.08291" lon="5.22507">
        <ele>192.5</ele>
        <time>2022-10-16T11:10:43.000Z</time>
      </trkpt>
      <trkpt lat="45.08294" lon="5.22501">
        <ele>192.6</ele>
        <time>2022-10-16T11:10:44.000Z</time>
      </trkpt>
      <trkpt lat="45.08297" lon="5.22495">
        <ele>192.7</ele>
        <time>2022-10-16T11:10:45.000Z</time>
      </trkpt>
      <trkpt lat="45.08299" lon="5.22488">
        <ele>192.8</ele>
        <time>2022-10-16T11:10:46.000Z</time>
      </trkpt>
      <trkpt lat="45.08302" lon="5.22482">
        <ele>192.9</ele>
        <time>2022-10-16T11:10:47.000Z</time>
      </trkpt>
      <trkpt lat="45.08304" lon="5.22476">
        <ele>193</ele>
        <time>2022-10-16T11:10:48.000Z</time>
      </trkpt>
      <trkpt lat="45.08307" lon="5.22471">
        <ele>193</ele>
        <time>2022-10-16T11:10:49.000Z</time>
      </trkpt>
      <trkpt lat="45.08309" lon="5.22465">
        <ele>193</ele>
        <time>2022-10-16T11:10:50.000Z</time>
      </trkpt>
      <trkpt lat="45.08311" lon="5.22459">
        <ele>193</ele>
        <time>2022-10-16T11:10:51.000Z</time>
      </trkpt>
      <trkpt lat="45.08313" lon="5.22452">
        <ele>193</ele>
        <time>2022-10-16T11:10:52.000Z</time>
      </trkpt>
      <trkpt lat="45.08314" lon="5.22446">
        <ele>193</ele>
        <time>2022-10-16T11:10:53.000Z</time>
      </trkpt>
      <trkpt lat="45.08316" lon="5.2244">
        <ele>192.9</ele>
        <time>2022-10-16T11:10:54.000Z</time>
      </trkpt>
      <trkpt lat="45.08317" lon="5.22434">
        <ele>192.8</ele>
        <time>2022-10-16T11:10:55.000Z</time>
      </trkpt>
      <trkpt lat="45.08318" lon="5.22429">
        <ele>192.7</ele>
        <time>2022-10-16T11:10:56.000Z</time>
      </trkpt>
      <trkpt lat="45.0832" lon="5.22423">
        <ele>192.6</ele>
        <time>2022-10-16T11:10:57.000Z</time>
      </trkpt>
      <trkpt lat="45.08321" lon="5.22417">
        <ele>192.6</ele>
        <time>2022-10-16T11:10:58.000Z</time>
      </trkpt>
      <trkpt lat="45.08322" lon="5.22411">
        <ele>192.6</ele>
        <time>2022-10-16T11:10:59.000Z</time>
      </trkpt>
      <trkpt lat="45.08323" lon="5.22405">
        <ele>192.6</ele>
        <time>2022-10-16T11:11:00.000Z</time>
      </trkpt>
      <trkpt lat="45.08325" lon="5.22399">
        <ele>192.7</ele>
        <time>2022-10-16T11:11:01.000Z</time>
      </trkpt>
      <trkpt lat="45.08326" lon="5.22393">
        <ele>192.7</ele>
        <time>2022-10-16T11:11:02.000Z</time>
      </trkpt>
      <trkpt lat="45.08326" lon="5.22387">
        <ele>192.8</ele>
        <time>2022-10-16T11:11:03.000Z</time>
      </trkpt>
      <trkpt lat="45.08327" lon="5.2238">
        <ele>192.8</ele>
        <time>2022-10-16T11:11:04.000Z</time>
      </trkpt>
      <trkpt lat="45.08328" lon="5.22374">
        <ele>192.9</ele>
        <time>2022-10-16T11:11:05.000Z</time>
      </trkpt>
      <trkpt lat="45.08329" lon="5.22368">
        <ele>193</ele>
        <time>2022-10-16T11:11:06.000Z</time>
      </trkpt>
      <trkpt lat="45.08329" lon="5.22361">
        <ele>193</ele>
        <time>2022-10-16T11:11:07.000Z</time>
      </trkpt>
      <trkpt lat="45.0833" lon="5.22355">
        <ele>193</ele>
        <time>2022-10-16T11:11:08.000Z</time>
      </trkpt>
      <trkpt lat="45.08331" lon="5.22349">
        <ele>193</ele>
        <time>2022-10-16T11:11:09.000Z</time>
      </trkpt>
      <trkpt lat="45.08331" lon="5.22342">
        <ele>193</ele>
        <time>2022-10-16T11:11:10.000Z</time>
      </trkpt>
      <trkpt lat="45.08331" lon="5.22336">
        <ele>193</ele>
        <time>2022-10-16T11:11:11.000Z</time>
      </trkpt>
      <trkpt lat="45.08332" lon="5.2233">
        <ele>193.1</ele>
        <time>2022-10-16T11:11:12.000Z</time>
      </trkpt>
      <trkpt lat="45.08332" lon="5.22323">
        <ele>193.4</ele>
        <time>2022-10-16T11:11:13.000Z</time>
      </trkpt>
      <trkpt lat="45.08333" lon="5.22317">
        <ele>193.6</ele>
        <time>2022-10-16T11:11:14.000Z</time>
      </trkpt>
      <trkpt lat="45.08334" lon="5.2231">
        <ele>193.8</ele>
        <time>2022-10-16T11:11:15.000Z</time>
      </trkpt>
      <trkpt lat="45.08334" lon="5.22303">
        <ele>193.9</ele>
        <time>2022-10-16T11:11:16.000Z</time>
      </trkpt>
      <trkpt lat="45.08335" lon="5.22295">
        <ele>193.6</ele>
        <time>2022-10-16T11:11:17.000Z</time>
      </trkpt>
      <trkpt lat="45.08336" lon="5.22288">
        <ele>193.3</ele>
        <time>2022-10-16T11:11:18.000Z</time>
      </trkpt>
      <trkpt lat="45.08338" lon="5.2228">
        <ele>193.1</ele>
        <time>2022-10-16T11:11:19.000Z</time>
      </trkpt>
      <trkpt lat="45.08339" lon="5.22273">
        <ele>192.9</ele>
        <time>2022-10-16T11:11:20.000Z</time>
      </trkpt>
      <trkpt lat="45.08341" lon="5.22266">
        <ele>192.7</ele>
        <time>2022-10-16T11:11:21.000Z</time>
      </trkpt>
      <trkpt lat="45.08343" lon="5.22258">
        <ele>192.5</ele>
        <time>2022-10-16T11:11:22.000Z</time>
      </trkpt>
      <trkpt lat="45.08345" lon="5.22251">
        <ele>192.5</ele>
        <time>2022-10-16T11:11:23.000Z</time>
      </trkpt>
      <trkpt lat="45.08347" lon="5.22245">
        <ele>192.5</ele>
        <time>2022-10-16T11:11:24.000Z</time>
      </trkpt>
      <trkpt lat="45.08349" lon="5.22238">
        <ele>192.6</ele>
        <time>2022-10-16T11:11:25.000Z</time>
      </trkpt>
      <trkpt lat="45.08351" lon="5.22232">
        <ele>192.6</ele>
        <time>2022-10-16T11:11:26.000Z</time>
      </trkpt>
      <trkpt lat="45.08353" lon="5.22226">
        <ele>192.7</ele>
        <time>2022-10-16T11:11:27.000Z</time>
      </trkpt>
      <trkpt lat="45.08355" lon="5.2222">
        <ele>192.8</ele>
        <time>2022-10-16T11:11:28.000Z</time>
      </trkpt>
      <trkpt lat="45.08358" lon="5.22215">
        <ele>193.1</ele>
        <time>2022-10-16T11:11:29.000Z</time>
      </trkpt>
      <trkpt lat="45.08359" lon="5.22209">
        <ele>193.4</ele>
        <time>2022-10-16T11:11:30.000Z</time>
      </trkpt>
      <trkpt lat="45.08361" lon="5.22203">
        <ele>193.7</ele>
        <time>2022-10-16T11:11:31.000Z</time>
      </trkpt>
      <trkpt lat="45.08364" lon="5.22197">
        <ele>193.9</ele>
        <time>2022-10-16T11:11:32.000Z</time>
      </trkpt>
      <trkpt lat="45.08366" lon="5.22191">
        <ele>194</ele>
        <time>2022-10-16T11:11:33.000Z</time>
      </trkpt>
      <trkpt lat="45.08368" lon="5.22185">
        <ele>194</ele>
        <time>2022-10-16T11:11:34.000Z</time>
      </trkpt>
      <trkpt lat="45.0837" lon="5.2218">
        <ele>194</ele>
        <time>2022-10-16T11:11:35.000Z</time>
      </trkpt>
      <trkpt lat="45.08372" lon="5.22174">
        <ele>194</ele>
        <time>2022-10-16T11:11:36.000Z</time>
      </trkpt>
      <trkpt lat="45.08375" lon="5.22168">
        <ele>194</ele>
        <time>2022-10-16T11:11:37.000Z</time>
      </trkpt>
      <trkpt lat="45.08377" lon="5.22162">
        <ele>194.1</ele>
        <time>2022-10-16T11:11:38.000Z</time>
      </trkpt>
      <trkpt lat="45.0838" lon="5.22157">
        <ele>194.1</ele>
        <time>2022-10-16T11:11:39.000Z</time>
      </trkpt>
      <trkpt lat="45.08383" lon="5.22152">
        <ele>194.1</ele>
        <time>2022-10-16T11:11:40.000Z</time>
      </trkpt>
      <trkpt lat="45.08385" lon="5.22147">
        <ele>194.1</ele>
        <time>2022-10-16T11:11:41.000Z</time>
      </trkpt>
      <trkpt lat="45.08388" lon="5.22141">
        <ele>194</ele>
        <time>2022-10-16T11:11:42.000Z</time>
      </trkpt>
      <trkpt lat="45.08391" lon="5.22136">
        <ele>194.1</ele>
        <time>2022-10-16T11:11:43.000Z</time>
      </trkpt>
      <trkpt lat="45.08395" lon="5.22131">
        <ele>194.2</ele>
        <time>2022-10-16T11:11:44.000Z</time>
      </trkpt>
      <trkpt lat="45.08398" lon="5.22125">
        <ele>194.3</ele>
        <time>2022-10-16T11:11:45.000Z</time>
      </trkpt>
      <trkpt lat="45.08402" lon="5.2212">
        <ele>194.4</ele>
        <time>2022-10-16T11:11:46.000Z</time>
      </trkpt>
      <trkpt lat="45.08405" lon="5.22114">
        <ele>194.4</ele>
        <time>2022-10-16T11:11:47.000Z</time>
      </trkpt>
      <trkpt lat="45.08409" lon="5.22109">
        <ele>194.3</ele>
        <time>2022-10-16T11:11:48.000Z</time>
      </trkpt>
      <trkpt lat="45.08412" lon="5.22104">
        <ele>194.1</ele>
        <time>2022-10-16T11:11:49.000Z</time>
      </trkpt>
      <trkpt lat="45.08416" lon="5.22099">
        <ele>194</ele>
        <time>2022-10-16T11:11:50.000Z</time>
      </trkpt>
      <trkpt lat="45.08419" lon="5.22094">
        <ele>194</ele>
        <time>2022-10-16T11:11:51.000Z</time>
      </trkpt>
      <trkpt lat="45.08423" lon="5.22089">
        <ele>194</ele>
        <time>2022-10-16T11:11:52.000Z</time>
      </trkpt>
      <trkpt lat="45.08426" lon="5.22085">
        <ele>194</ele>
        <time>2022-10-16T11:11:53.000Z</time>
      </trkpt>
      <trkpt lat="45.08429" lon="5.2208">
        <ele>193.9</ele>
        <time>2022-10-16T11:11:54.000Z</time>
      </trkpt>
      <trkpt lat="45.08433" lon="5.22075">
        <ele>193.9</ele>
        <time>2022-10-16T11:11:55.000Z</time>
      </trkpt>
      <trkpt lat="45.08436" lon="5.22071">
        <ele>193.9</ele>
        <time>2022-10-16T11:11:56.000Z</time>
      </trkpt>
      <trkpt lat="45.08439" lon="5.22066">
        <ele>193.9</ele>
        <time>2022-10-16T11:11:57.000Z</time>
      </trkpt>
      <trkpt lat="45.08442" lon="5.22061">
        <ele>193.9</ele>
        <time>2022-10-16T11:11:58.000Z</time>
      </trkpt>
      <trkpt lat="45.08445" lon="5.22055">
        <ele>194</ele>
        <time>2022-10-16T11:11:59.000Z</time>
      </trkpt>
      <trkpt lat="45.08447" lon="5.2205">
        <ele>193.7</ele>
        <time>2022-10-16T11:12:00.000Z</time>
      </trkpt>
      <trkpt lat="45.0845" lon="5.22044">
        <ele>193.5</ele>
        <time>2022-10-16T11:12:01.000Z</time>
      </trkpt>
      <trkpt lat="45.08453" lon="5.22037">
        <ele>193.2</ele>
        <time>2022-10-16T11:12:02.000Z</time>
      </trkpt>
      <trkpt lat="45.08456" lon="5.22032">
        <ele>193.1</ele>
        <time>2022-10-16T11:12:03.000Z</time>
      </trkpt>
      <trkpt lat="45.08459" lon="5.22026">
        <ele>193</ele>
        <time>2022-10-16T11:12:04.000Z</time>
      </trkpt>
      <trkpt lat="45.08461" lon="5.22021">
        <ele>193.2</ele>
        <time>2022-10-16T11:12:05.000Z</time>
      </trkpt>
      <trkpt lat="45.08464" lon="5.22015">
        <ele>193.3</ele>
        <time>2022-10-16T11:12:06.000Z</time>
      </trkpt>
      <trkpt lat="45.08467" lon="5.22009">
        <ele>193.5</ele>
        <time>2022-10-16T11:12:07.000Z</time>
      </trkpt>
      <trkpt lat="45.08469" lon="5.22003">
        <ele>193.8</ele>
        <time>2022-10-16T11:12:08.000Z</time>
      </trkpt>
      <trkpt lat="45.08471" lon="5.21997">
        <ele>193.9</ele>
        <time>2022-10-16T11:12:09.000Z</time>
      </trkpt>
      <trkpt lat="45.08473" lon="5.21992">
        <ele>193.7</ele>
        <time>2022-10-16T11:12:10.000Z</time>
      </trkpt>
      <trkpt lat="45.08476" lon="5.21986">
        <ele>193.4</ele>
        <time>2022-10-16T11:12:11.000Z</time>
      </trkpt>
      <trkpt lat="45.08478" lon="5.2198">
        <ele>193.1</ele>
        <time>2022-10-16T11:12:12.000Z</time>
      </trkpt>
      <trkpt lat="45.0848" lon="5.21976">
        <ele>192.8</ele>
        <time>2022-10-16T11:12:13.000Z</time>
      </trkpt>
      <trkpt lat="45.08481" lon="5.2197">
        <ele>192.7</ele>
        <time>2022-10-16T11:12:14.000Z</time>
      </trkpt>
      <trkpt lat="45.08483" lon="5.21965">
        <ele>192.6</ele>
        <time>2022-10-16T11:12:15.000Z</time>
      </trkpt>
      <trkpt lat="45.08485" lon="5.21959">
        <ele>192.6</ele>
        <time>2022-10-16T11:12:16.000Z</time>
      </trkpt>
      <trkpt lat="45.08487" lon="5.21953">
        <ele>192.5</ele>
        <time>2022-10-16T11:12:17.000Z</time>
      </trkpt>
      <trkpt lat="45.08489" lon="5.21946">
        <ele>192.4</ele>
        <time>2022-10-16T11:12:18.000Z</time>
      </trkpt>
      <trkpt lat="45.08492" lon="5.2194">
        <ele>192.3</ele>
        <time>2022-10-16T11:12:19.000Z</time>
      </trkpt>
      <trkpt lat="45.08494" lon="5.21934">
        <ele>192.2</ele>
        <time>2022-10-16T11:12:20.000Z</time>
      </trkpt>
      <trkpt lat="45.08497" lon="5.21927">
        <ele>192.1</ele>
        <time>2022-10-16T11:12:21.000Z</time>
      </trkpt>
      <trkpt lat="45.08499" lon="5.21921">
        <ele>192</ele>
        <time>2022-10-16T11:12:22.000Z</time>
      </trkpt>
      <trkpt lat="45.08501" lon="5.21914">
        <ele>192</ele>
        <time>2022-10-16T11:12:23.000Z</time>
      </trkpt>
      <trkpt lat="45.08503" lon="5.21907">
        <ele>192</ele>
        <time>2022-10-16T11:12:24.000Z</time>
      </trkpt>
      <trkpt lat="45.08506" lon="5.21901">
        <ele>192</ele>
        <time>2022-10-16T11:12:25.000Z</time>
      </trkpt>
      <trkpt lat="45.08509" lon="5.21894">
        <ele>192</ele>
        <time>2022-10-16T11:12:26.000Z</time>
      </trkpt>
      <trkpt lat="45.08511" lon="5.21888">
        <ele>192</ele>
        <time>2022-10-16T11:12:27.000Z</time>
      </trkpt>
      <trkpt lat="45.08513" lon="5.21882">
        <ele>191.9</ele>
        <time>2022-10-16T11:12:28.000Z</time>
      </trkpt>
      <trkpt lat="45.08514" lon="5.21875">
        <ele>191.8</ele>
        <time>2022-10-16T11:12:29.000Z</time>
      </trkpt>
      <trkpt lat="45.08517" lon="5.21869">
        <ele>191.7</ele>
        <time>2022-10-16T11:12:30.000Z</time>
      </trkpt>
      <trkpt lat="45.08519" lon="5.21864">
        <ele>191.7</ele>
        <time>2022-10-16T11:12:31.000Z</time>
      </trkpt>
      <trkpt lat="45.08521" lon="5.21858">
        <ele>191.8</ele>
        <time>2022-10-16T11:12:32.000Z</time>
      </trkpt>
      <trkpt lat="45.08521" lon="5.21852">
        <ele>191.8</ele>
        <time>2022-10-16T11:12:33.000Z</time>
      </trkpt>
      <trkpt lat="45.0852" lon="5.21847">
        <ele>191.7</ele>
        <time>2022-10-16T11:12:34.000Z</time>
      </trkpt>
      <trkpt lat="45.08517" lon="5.21842">
        <ele>191.6</ele>
        <time>2022-10-16T11:12:35.000Z</time>
      </trkpt>
      <trkpt lat="45.08514" lon="5.2184">
        <ele>191.5</ele>
        <time>2022-10-16T11:12:36.000Z</time>
      </trkpt>
      <trkpt lat="45.08509" lon="5.21838">
        <ele>191.3</ele>
        <time>2022-10-16T11:12:37.000Z</time>
      </trkpt>
      <trkpt lat="45.08504" lon="5.21837">
        <ele>191.2</ele>
        <time>2022-10-16T11:12:38.000Z</time>
      </trkpt>
      <trkpt lat="45.085" lon="5.21835">
        <ele>191</ele>
        <time>2022-10-16T11:12:39.000Z</time>
      </trkpt>
      <trkpt lat="45.08496" lon="5.21832">
        <ele>191.1</ele>
        <time>2022-10-16T11:12:40.000Z</time>
      </trkpt>
      <trkpt lat="45.08492" lon="5.21829">
        <ele>191.2</ele>
        <time>2022-10-16T11:12:41.000Z</time>
      </trkpt>
      <trkpt lat="45.08489" lon="5.21825">
        <ele>191.3</ele>
        <time>2022-10-16T11:12:42.000Z</time>
      </trkpt>
      <trkpt lat="45.08486" lon="5.21822">
        <ele>191.3</ele>
        <time>2022-10-16T11:12:43.000Z</time>
      </trkpt>
      <trkpt lat="45.08483" lon="5.2182">
        <ele>191.3</ele>
        <time>2022-10-16T11:12:44.000Z</time>
      </trkpt>
      <trkpt lat="45.0848" lon="5.21818">
        <ele>191.3</ele>
        <time>2022-10-16T11:12:45.000Z</time>
      </trkpt>
      <trkpt lat="45.08476" lon="5.21815">
        <ele>191.3</ele>
        <time>2022-10-16T11:12:46.000Z</time>
      </trkpt>
      <trkpt lat="45.08473" lon="5.21813">
        <ele>191.3</ele>
        <time>2022-10-16T11:12:47.000Z</time>
      </trkpt>
      <trkpt lat="45.08469" lon="5.2181">
        <ele>191.3</ele>
        <time>2022-10-16T11:12:48.000Z</time>
      </trkpt>
      <trkpt lat="45.08466" lon="5.21807">
        <ele>191.3</ele>
        <time>2022-10-16T11:12:49.000Z</time>
      </trkpt>
      <trkpt lat="45.08462" lon="5.21804">
        <ele>191.3</ele>
        <time>2022-10-16T11:12:50.000Z</time>
      </trkpt>
      <trkpt lat="45.08458" lon="5.21802">
        <ele>191.4</ele>
        <time>2022-10-16T11:12:51.000Z</time>
      </trkpt>
      <trkpt lat="45.08454" lon="5.21799">
        <ele>191.6</ele>
        <time>2022-10-16T11:12:52.000Z</time>
      </trkpt>
      <trkpt lat="45.08451" lon="5.21796">
        <ele>191.7</ele>
        <time>2022-10-16T11:12:53.000Z</time>
      </trkpt>
      <trkpt lat="45.08448" lon="5.21794">
        <ele>191.8</ele>
        <time>2022-10-16T11:12:54.000Z</time>
      </trkpt>
      <trkpt lat="45.08445" lon="5.21791">
        <ele>192</ele>
        <time>2022-10-16T11:12:55.000Z</time>
      </trkpt>
      <trkpt lat="45.08442" lon="5.21789">
        <ele>192</ele>
        <time>2022-10-16T11:12:56.000Z</time>
      </trkpt>
      <trkpt lat="45.0844" lon="5.21786">
        <ele>192</ele>
        <time>2022-10-16T11:12:57.000Z</time>
      </trkpt>
      <trkpt lat="45.08437" lon="5.21782">
        <ele>192</ele>
        <time>2022-10-16T11:12:58.000Z</time>
      </trkpt>
      <trkpt lat="45.08435" lon="5.21778">
        <ele>192</ele>
        <time>2022-10-16T11:12:59.000Z</time>
      </trkpt>
      <trkpt lat="45.08433" lon="5.21774">
        <ele>191.8</ele>
        <time>2022-10-16T11:13:00.000Z</time>
      </trkpt>
      <trkpt lat="45.08432" lon="5.2177">
        <ele>191.6</ele>
        <time>2022-10-16T11:13:01.000Z</time>
      </trkpt>
      <trkpt lat="45.08431" lon="5.21765">
        <ele>191.3</ele>
        <time>2022-10-16T11:13:02.000Z</time>
      </trkpt>
      <trkpt lat="45.08431" lon="5.2176">
        <ele>191</ele>
        <time>2022-10-16T11:13:03.000Z</time>
      </trkpt>
      <trkpt lat="45.08432" lon="5.21755">
        <ele>190.7</ele>
        <time>2022-10-16T11:13:04.000Z</time>
      </trkpt>
      <trkpt lat="45.08433" lon="5.21748">
        <ele>190.3</ele>
        <time>2022-10-16T11:13:05.000Z</time>
      </trkpt>
      <trkpt lat="45.08433" lon="5.21741">
        <ele>189.8</ele>
        <time>2022-10-16T11:13:06.000Z</time>
      </trkpt>
      <trkpt lat="45.08432" lon="5.21734">
        <ele>189.3</ele>
        <time>2022-10-16T11:13:07.000Z</time>
      </trkpt>
      <trkpt lat="45.08432" lon="5.21725">
        <ele>188.7</ele>
        <time>2022-10-16T11:13:08.000Z</time>
      </trkpt>
      <trkpt lat="45.08431" lon="5.21715">
        <ele>187.8</ele>
        <time>2022-10-16T11:13:09.000Z</time>
      </trkpt>
      <trkpt lat="45.08428" lon="5.21705">
        <ele>186.6</ele>
        <time>2022-10-16T11:13:10.000Z</time>
      </trkpt>
      <trkpt lat="45.08425" lon="5.21694">
        <ele>185.3</ele>
        <time>2022-10-16T11:13:11.000Z</time>
      </trkpt>
      <trkpt lat="45.08422" lon="5.21682">
        <ele>184.8</ele>
        <time>2022-10-16T11:13:12.000Z</time>
      </trkpt>
      <trkpt lat="45.08418" lon="5.21669">
        <ele>184.2</ele>
        <time>2022-10-16T11:13:13.000Z</time>
      </trkpt>
      <trkpt lat="45.08414" lon="5.21657">
        <ele>183.5</ele>
        <time>2022-10-16T11:13:14.000Z</time>
      </trkpt>
      <trkpt lat="45.0841" lon="5.21645">
        <ele>183</ele>
        <time>2022-10-16T11:13:15.000Z</time>
      </trkpt>
      <trkpt lat="45.08406" lon="5.21634">
        <ele>182.4</ele>
        <time>2022-10-16T11:13:16.000Z</time>
      </trkpt>
      <trkpt lat="45.08401" lon="5.21625">
        <ele>181.9</ele>
        <time>2022-10-16T11:13:17.000Z</time>
      </trkpt>
      <trkpt lat="45.08394" lon="5.21618">
        <ele>181.4</ele>
        <time>2022-10-16T11:13:18.000Z</time>
      </trkpt>
      <trkpt lat="45.08387" lon="5.21614">
        <ele>181</ele>
        <time>2022-10-16T11:13:19.000Z</time>
      </trkpt>
      <trkpt lat="45.0838" lon="5.2161">
        <ele>180.9</ele>
        <time>2022-10-16T11:13:20.000Z</time>
      </trkpt>
      <trkpt lat="45.08373" lon="5.21605">
        <ele>180.9</ele>
        <time>2022-10-16T11:13:21.000Z</time>
      </trkpt>
      <trkpt lat="45.08367" lon="5.21599">
        <ele>180.7</ele>
        <time>2022-10-16T11:13:22.000Z</time>
      </trkpt>
      <trkpt lat="45.08362" lon="5.21591">
        <ele>180.2</ele>
        <time>2022-10-16T11:13:23.000Z</time>
      </trkpt>
      <trkpt lat="45.08359" lon="5.21583">
        <ele>179.9</ele>
        <time>2022-10-16T11:13:24.000Z</time>
      </trkpt>
      <trkpt lat="45.08357" lon="5.21575">
        <ele>179.8</ele>
        <time>2022-10-16T11:13:25.000Z</time>
      </trkpt>
      <trkpt lat="45.08357" lon="5.21567">
        <ele>179.8</ele>
        <time>2022-10-16T11:13:26.000Z</time>
      </trkpt>
      <trkpt lat="45.08359" lon="5.21559">
        <ele>179.8</ele>
        <time>2022-10-16T11:13:27.000Z</time>
      </trkpt>
      <trkpt lat="45.0836" lon="5.21551">
        <ele>179.8</ele>
        <time>2022-10-16T11:13:28.000Z</time>
      </trkpt>
      <trkpt lat="45.08362" lon="5.21544">
        <ele>179.8</ele>
        <time>2022-10-16T11:13:29.000Z</time>
      </trkpt>
      <trkpt lat="45.08365" lon="5.21537">
        <ele>180.1</ele>
        <time>2022-10-16T11:13:30.000Z</time>
      </trkpt>
      <trkpt lat="45.08368" lon="5.2153">
        <ele>180.2</ele>
        <time>2022-10-16T11:13:31.000Z</time>
      </trkpt>
      <trkpt lat="45.08372" lon="5.21524">
        <ele>180.4</ele>
        <time>2022-10-16T11:13:32.000Z</time>
      </trkpt>
      <trkpt lat="45.08375" lon="5.21518">
        <ele>180.5</ele>
        <time>2022-10-16T11:13:33.000Z</time>
      </trkpt>
      <trkpt lat="45.08378" lon="5.21513">
        <ele>180.5</ele>
        <time>2022-10-16T11:13:34.000Z</time>
      </trkpt>
      <trkpt lat="45.08381" lon="5.21508">
        <ele>180.3</ele>
        <time>2022-10-16T11:13:35.000Z</time>
      </trkpt>
      <trkpt lat="45.08383" lon="5.21502">
        <ele>180</ele>
        <time>2022-10-16T11:13:36.000Z</time>
      </trkpt>
      <trkpt lat="45.08383" lon="5.21496">
        <ele>179.6</ele>
        <time>2022-10-16T11:13:37.000Z</time>
      </trkpt>
      <trkpt lat="45.08383" lon="5.2149">
        <ele>179.4</ele>
        <time>2022-10-16T11:13:38.000Z</time>
      </trkpt>
      <trkpt lat="45.08383" lon="5.21484">
        <ele>179.2</ele>
        <time>2022-10-16T11:13:39.000Z</time>
      </trkpt>
      <trkpt lat="45.08382" lon="5.21479">
        <ele>179</ele>
        <time>2022-10-16T11:13:40.000Z</time>
      </trkpt>
      <trkpt lat="45.08381" lon="5.21473">
        <ele>178.8</ele>
        <time>2022-10-16T11:13:41.000Z</time>
      </trkpt>
      <trkpt lat="45.08381" lon="5.21468">
        <ele>178.7</ele>
        <time>2022-10-16T11:13:42.000Z</time>
      </trkpt>
      <trkpt lat="45.0838" lon="5.21462">
        <ele>178.6</ele>
        <time>2022-10-16T11:13:43.000Z</time>
      </trkpt>
      <trkpt lat="45.08381" lon="5.21455">
        <ele>178.5</ele>
        <time>2022-10-16T11:13:44.000Z</time>
      </trkpt>
      <trkpt lat="45.08382" lon="5.21449">
        <ele>178.6</ele>
        <time>2022-10-16T11:13:45.000Z</time>
      </trkpt>
      <trkpt lat="45.08384" lon="5.21443">
        <ele>178.6</ele>
        <time>2022-10-16T11:13:46.000Z</time>
      </trkpt>
      <trkpt lat="45.08387" lon="5.21438">
        <ele>178.6</ele>
        <time>2022-10-16T11:13:47.000Z</time>
      </trkpt>
      <trkpt lat="45.08389" lon="5.21432">
        <ele>178.6</ele>
        <time>2022-10-16T11:13:48.000Z</time>
      </trkpt>
      <trkpt lat="45.08392" lon="5.21427">
        <ele>178.6</ele>
        <time>2022-10-16T11:13:49.000Z</time>
      </trkpt>
      <trkpt lat="45.08395" lon="5.21422">
        <ele>178.7</ele>
        <time>2022-10-16T11:13:50.000Z</time>
      </trkpt>
      <trkpt lat="45.08397" lon="5.21418">
        <ele>178.8</ele>
        <time>2022-10-16T11:13:51.000Z</time>
      </trkpt>
      <trkpt lat="45.08398" lon="5.21413">
        <ele>178.8</ele>
        <time>2022-10-16T11:13:52.000Z</time>
      </trkpt>
      <trkpt lat="45.08401" lon="5.21408">
        <ele>178.8</ele>
        <time>2022-10-16T11:13:53.000Z</time>
      </trkpt>
      <trkpt lat="45.08403" lon="5.21405">
        <ele>178.9</ele>
        <time>2022-10-16T11:13:54.000Z</time>
      </trkpt>
      <trkpt lat="45.08405" lon="5.21401">
        <ele>178.8</ele>
        <time>2022-10-16T11:13:55.000Z</time>
      </trkpt>
      <trkpt lat="45.08406" lon="5.21397">
        <ele>178.7</ele>
        <time>2022-10-16T11:13:56.000Z</time>
      </trkpt>
      <trkpt lat="45.08408" lon="5.21392">
        <ele>178.6</ele>
        <time>2022-10-16T11:13:57.000Z</time>
      </trkpt>
      <trkpt lat="45.08409" lon="5.21388">
        <ele>178.4</ele>
        <time>2022-10-16T11:13:58.000Z</time>
      </trkpt>
      <trkpt lat="45.08411" lon="5.21383">
        <ele>178.3</ele>
        <time>2022-10-16T11:13:59.000Z</time>
      </trkpt>
      <trkpt lat="45.08413" lon="5.21379">
        <ele>178.3</ele>
        <time>2022-10-16T11:14:00.000Z</time>
      </trkpt>
      <trkpt lat="45.08415" lon="5.21374">
        <ele>178.3</ele>
        <time>2022-10-16T11:14:01.000Z</time>
      </trkpt>
      <trkpt lat="45.08417" lon="5.2137">
        <ele>178.3</ele>
        <time>2022-10-16T11:14:02.000Z</time>
      </trkpt>
      <trkpt lat="45.08419" lon="5.21365">
        <ele>178.3</ele>
        <time>2022-10-16T11:14:03.000Z</time>
      </trkpt>
      <trkpt lat="45.0842" lon="5.2136">
        <ele>178.3</ele>
        <time>2022-10-16T11:14:04.000Z</time>
      </trkpt>
      <trkpt lat="45.08422" lon="5.21355">
        <ele>178.3</ele>
        <time>2022-10-16T11:14:05.000Z</time>
      </trkpt>
      <trkpt lat="45.08423" lon="5.2135">
        <ele>178.4</ele>
        <time>2022-10-16T11:14:06.000Z</time>
      </trkpt>
      <trkpt lat="45.08424" lon="5.21346">
        <ele>178.4</ele>
        <time>2022-10-16T11:14:07.000Z</time>
      </trkpt>
      <trkpt lat="45.08426" lon="5.2134">
        <ele>178.4</ele>
        <time>2022-10-16T11:14:08.000Z</time>
      </trkpt>
      <trkpt lat="45.08427" lon="5.21335">
        <ele>178.4</ele>
        <time>2022-10-16T11:14:09.000Z</time>
      </trkpt>
      <trkpt lat="45.08428" lon="5.21328">
        <ele>177.9</ele>
        <time>2022-10-16T11:14:10.000Z</time>
      </trkpt>
      <trkpt lat="45.08428" lon="5.21322">
        <ele>177.3</ele>
        <time>2022-10-16T11:14:11.000Z</time>
      </trkpt>
      <trkpt lat="45.08429" lon="5.21315">
        <ele>176.7</ele>
        <time>2022-10-16T11:14:12.000Z</time>
      </trkpt>
      <trkpt lat="45.08431" lon="5.21308">
        <ele>176.2</ele>
        <time>2022-10-16T11:14:13.000Z</time>
      </trkpt>
      <trkpt lat="45.08432" lon="5.21299">
        <ele>175.6</ele>
        <time>2022-10-16T11:14:14.000Z</time>
      </trkpt>
      <trkpt lat="45.08434" lon="5.2129">
        <ele>174.9</ele>
        <time>2022-10-16T11:14:15.000Z</time>
      </trkpt>
      <trkpt lat="45.08436" lon="5.2128">
        <ele>174.3</ele>
        <time>2022-10-16T11:14:16.000Z</time>
      </trkpt>
      <trkpt lat="45.08439" lon="5.2127">
        <ele>173.7</ele>
        <time>2022-10-16T11:14:17.000Z</time>
      </trkpt>
      <trkpt lat="45.08443" lon="5.2126">
        <ele>173.5</ele>
        <time>2022-10-16T11:14:18.000Z</time>
      </trkpt>
      <trkpt lat="45.08447" lon="5.21251">
        <ele>173.6</ele>
        <time>2022-10-16T11:14:19.000Z</time>
      </trkpt>
      <trkpt lat="45.08452" lon="5.21242">
        <ele>173.3</ele>
        <time>2022-10-16T11:14:20.000Z</time>
      </trkpt>
      <trkpt lat="45.08456" lon="5.21233">
        <ele>172.9</ele>
        <time>2022-10-16T11:14:21.000Z</time>
      </trkpt>
      <trkpt lat="45.0846" lon="5.21224">
        <ele>172.5</ele>
        <time>2022-10-16T11:14:22.000Z</time>
      </trkpt>
      <trkpt lat="45.08464" lon="5.21216">
        <ele>172.1</ele>
        <time>2022-10-16T11:14:23.000Z</time>
      </trkpt>
      <trkpt lat="45.08467" lon="5.21208">
        <ele>171.9</ele>
        <time>2022-10-16T11:14:24.000Z</time>
      </trkpt>
      <trkpt lat="45.08469" lon="5.21201">
        <ele>171.8</ele>
        <time>2022-10-16T11:14:25.000Z</time>
      </trkpt>
      <trkpt lat="45.0847" lon="5.21195">
        <ele>171.5</ele>
        <time>2022-10-16T11:14:26.000Z</time>
      </trkpt>
      <trkpt lat="45.08471" lon="5.21189">
        <ele>171.4</ele>
        <time>2022-10-16T11:14:27.000Z</time>
      </trkpt>
      <trkpt lat="45.08472" lon="5.21184">
        <ele>171.2</ele>
        <time>2022-10-16T11:14:28.000Z</time>
      </trkpt>
      <trkpt lat="45.08474" lon="5.21178">
        <ele>171.2</ele>
        <time>2022-10-16T11:14:29.000Z</time>
      </trkpt>
      <trkpt lat="45.08476" lon="5.21173">
        <ele>171.3</ele>
        <time>2022-10-16T11:14:30.000Z</time>
      </trkpt>
      <trkpt lat="45.08479" lon="5.21166">
        <ele>171.4</ele>
        <time>2022-10-16T11:14:31.000Z</time>
      </trkpt>
      <trkpt lat="45.0848" lon="5.21159">
        <ele>171</ele>
        <time>2022-10-16T11:14:32.000Z</time>
      </trkpt>
      <trkpt lat="45.08482" lon="5.21151">
        <ele>170.6</ele>
        <time>2022-10-16T11:14:33.000Z</time>
      </trkpt>
      <trkpt lat="45.08483" lon="5.21144">
        <ele>170.1</ele>
        <time>2022-10-16T11:14:34.000Z</time>
      </trkpt>
      <trkpt lat="45.08486" lon="5.21136">
        <ele>169.4</ele>
        <time>2022-10-16T11:14:35.000Z</time>
      </trkpt>
      <trkpt lat="45.08489" lon="5.21128">
        <ele>168.7</ele>
        <time>2022-10-16T11:14:36.000Z</time>
      </trkpt>
      <trkpt lat="45.08492" lon="5.21119">
        <ele>168</ele>
        <time>2022-10-16T11:14:37.000Z</time>
      </trkpt>
      <trkpt lat="45.08494" lon="5.21111">
        <ele>167.6</ele>
        <time>2022-10-16T11:14:38.000Z</time>
      </trkpt>
      <trkpt lat="45.08497" lon="5.21103">
        <ele>167.9</ele>
        <time>2022-10-16T11:14:39.000Z</time>
      </trkpt>
      <trkpt lat="45.085" lon="5.21095">
        <ele>168.3</ele>
        <time>2022-10-16T11:14:40.000Z</time>
      </trkpt>
      <trkpt lat="45.08502" lon="5.21086">
        <ele>168.8</ele>
        <time>2022-10-16T11:14:41.000Z</time>
      </trkpt>
      <trkpt lat="45.08505" lon="5.21077">
        <ele>168.9</ele>
        <time>2022-10-16T11:14:42.000Z</time>
      </trkpt>
      <trkpt lat="45.08508" lon="5.21068">
        <ele>168.8</ele>
        <time>2022-10-16T11:14:43.000Z</time>
      </trkpt>
      <trkpt lat="45.0851" lon="5.2106">
        <ele>168.7</ele>
        <time>2022-10-16T11:14:44.000Z</time>
      </trkpt>
      <trkpt lat="45.08513" lon="5.21051">
        <ele>168.5</ele>
        <time>2022-10-16T11:14:45.000Z</time>
      </trkpt>
      <trkpt lat="45.08515" lon="5.21042">
        <ele>168.2</ele>
        <time>2022-10-16T11:14:46.000Z</time>
      </trkpt>
      <trkpt lat="45.08518" lon="5.21033">
        <ele>167.6</ele>
        <time>2022-10-16T11:14:47.000Z</time>
      </trkpt>
      <trkpt lat="45.0852" lon="5.21024">
        <ele>166.8</ele>
        <time>2022-10-16T11:14:48.000Z</time>
      </trkpt>
      <trkpt lat="45.08521" lon="5.21014">
        <ele>165.9</ele>
        <time>2022-10-16T11:14:49.000Z</time>
      </trkpt>
      <trkpt lat="45.08522" lon="5.21003">
        <ele>164.8</ele>
        <time>2022-10-16T11:14:50.000Z</time>
      </trkpt>
      <trkpt lat="45.08523" lon="5.20993">
        <ele>163.9</ele>
        <time>2022-10-16T11:14:51.000Z</time>
      </trkpt>
      <trkpt lat="45.08523" lon="5.20982">
        <ele>163.1</ele>
        <time>2022-10-16T11:14:52.000Z</time>
      </trkpt>
      <trkpt lat="45.08523" lon="5.20971">
        <ele>162.3</ele>
        <time>2022-10-16T11:14:53.000Z</time>
      </trkpt>
      <trkpt lat="45.08523" lon="5.20959">
        <ele>161</ele>
        <time>2022-10-16T11:14:54.000Z</time>
      </trkpt>
      <trkpt lat="45.08524" lon="5.20948">
        <ele>159.7</ele>
        <time>2022-10-16T11:14:55.000Z</time>
      </trkpt>
      <trkpt lat="45.08523" lon="5.20937">
        <ele>157.2</ele>
        <time>2022-10-16T11:14:56.000Z</time>
      </trkpt>
      <trkpt lat="45.08523" lon="5.20926">
        <ele>154.3</ele>
        <time>2022-10-16T11:14:57.000Z</time>
      </trkpt>
      <trkpt lat="45.08523" lon="5.20916">
        <ele>151.9</ele>
        <time>2022-10-16T11:14:58.000Z</time>
      </trkpt>
      <trkpt lat="45.08523" lon="5.20906">
        <ele>153.3</ele>
        <time>2022-10-16T11:14:59.000Z</time>
      </trkpt>
      <trkpt lat="45.08523" lon="5.20896">
        <ele>154.5</ele>
        <time>2022-10-16T11:15:00.000Z</time>
      </trkpt>
      <trkpt lat="45.08523" lon="5.20887">
        <ele>155.7</ele>
        <time>2022-10-16T11:15:01.000Z</time>
      </trkpt>
      <trkpt lat="45.08523" lon="5.20879">
        <ele>157.3</ele>
        <time>2022-10-16T11:15:02.000Z</time>
      </trkpt>
      <trkpt lat="45.08523" lon="5.20871">
        <ele>158.8</ele>
        <time>2022-10-16T11:15:03.000Z</time>
      </trkpt>
      <trkpt lat="45.08523" lon="5.20863">
        <ele>160.3</ele>
        <time>2022-10-16T11:15:04.000Z</time>
      </trkpt>
      <trkpt lat="45.08523" lon="5.20856">
        <ele>160.7</ele>
        <time>2022-10-16T11:15:05.000Z</time>
      </trkpt>
      <trkpt lat="45.08523" lon="5.2085">
        <ele>160.9</ele>
        <time>2022-10-16T11:15:06.000Z</time>
      </trkpt>
      <trkpt lat="45.08524" lon="5.20843">
        <ele>160.9</ele>
        <time>2022-10-16T11:15:07.000Z</time>
      </trkpt>
      <trkpt lat="45.08523" lon="5.20835">
        <ele>160.8</ele>
        <time>2022-10-16T11:15:08.000Z</time>
      </trkpt>
      <trkpt lat="45.08524" lon="5.20828">
        <ele>161.1</ele>
        <time>2022-10-16T11:15:09.000Z</time>
      </trkpt>
      <trkpt lat="45.08524" lon="5.20822">
        <ele>161.3</ele>
        <time>2022-10-16T11:15:10.000Z</time>
      </trkpt>
      <trkpt lat="45.08524" lon="5.20815">
        <ele>161.5</ele>
        <time>2022-10-16T11:15:11.000Z</time>
      </trkpt>
      <trkpt lat="45.08523" lon="5.20807">
        <ele>161.6</ele>
        <time>2022-10-16T11:15:12.000Z</time>
      </trkpt>
      <trkpt lat="45.08523" lon="5.208">
        <ele>162.2</ele>
        <time>2022-10-16T11:15:13.000Z</time>
      </trkpt>
      <trkpt lat="45.08523" lon="5.20793">
        <ele>162.8</ele>
        <time>2022-10-16T11:15:14.000Z</time>
      </trkpt>
      <trkpt lat="45.08523" lon="5.20786">
        <ele>163.4</ele>
        <time>2022-10-16T11:15:15.000Z</time>
      </trkpt>
      <trkpt lat="45.08522" lon="5.20778">
        <ele>164</ele>
        <time>2022-10-16T11:15:16.000Z</time>
      </trkpt>
      <trkpt lat="45.08522" lon="5.20771">
        <ele>164.6</ele>
        <time>2022-10-16T11:15:17.000Z</time>
      </trkpt>
      <trkpt lat="45.08523" lon="5.20765">
        <ele>165.3</ele>
        <time>2022-10-16T11:15:18.000Z</time>
      </trkpt>
      <trkpt lat="45.08522" lon="5.20758">
        <ele>165.9</ele>
        <time>2022-10-16T11:15:19.000Z</time>
      </trkpt>
      <trkpt lat="45.08522" lon="5.20751">
        <ele>166.4</ele>
        <time>2022-10-16T11:15:20.000Z</time>
      </trkpt>
      <trkpt lat="45.08522" lon="5.20744">
        <ele>166.1</ele>
        <time>2022-10-16T11:15:21.000Z</time>
      </trkpt>
      <trkpt lat="45.08521" lon="5.20737">
        <ele>165.6</ele>
        <time>2022-10-16T11:15:22.000Z</time>
      </trkpt>
      <trkpt lat="45.08521" lon="5.2073">
        <ele>165.1</ele>
        <time>2022-10-16T11:15:23.000Z</time>
      </trkpt>
      <trkpt lat="45.0852" lon="5.20724">
        <ele>164.6</ele>
        <time>2022-10-16T11:15:24.000Z</time>
      </trkpt>
      <trkpt lat="45.0852" lon="5.20717">
        <ele>164.3</ele>
        <time>2022-10-16T11:15:25.000Z</time>
      </trkpt>
      <trkpt lat="45.0852" lon="5.20711">
        <ele>163.9</ele>
        <time>2022-10-16T11:15:26.000Z</time>
      </trkpt>
      <trkpt lat="45.0852" lon="5.20704">
        <ele>163.6</ele>
        <time>2022-10-16T11:15:27.000Z</time>
      </trkpt>
      <trkpt lat="45.0852" lon="5.20698">
        <ele>163.4</ele>
        <time>2022-10-16T11:15:28.000Z</time>
      </trkpt>
      <trkpt lat="45.0852" lon="5.20692">
        <ele>163.4</ele>
        <time>2022-10-16T11:15:29.000Z</time>
      </trkpt>
      <trkpt lat="45.0852" lon="5.20685">
        <ele>163.7</ele>
        <time>2022-10-16T11:15:30.000Z</time>
      </trkpt>
      <trkpt lat="45.0852" lon="5.20679">
        <ele>163.9</ele>
        <time>2022-10-16T11:15:31.000Z</time>
      </trkpt>
      <trkpt lat="45.0852" lon="5.20673">
        <ele>164.1</ele>
        <time>2022-10-16T11:15:32.000Z</time>
      </trkpt>
      <trkpt lat="45.0852" lon="5.20666">
        <ele>164.3</ele>
        <time>2022-10-16T11:15:33.000Z</time>
      </trkpt>
      <trkpt lat="45.08519" lon="5.2066">
        <ele>164.3</ele>
        <time>2022-10-16T11:15:34.000Z</time>
      </trkpt>
      <trkpt lat="45.08519" lon="5.20654">
        <ele>164.4</ele>
        <time>2022-10-16T11:15:35.000Z</time>
      </trkpt>
      <trkpt lat="45.08519" lon="5.20648">
        <ele>164.6</ele>
        <time>2022-10-16T11:15:36.000Z</time>
      </trkpt>
      <trkpt lat="45.08519" lon="5.20641">
        <ele>164.8</ele>
        <time>2022-10-16T11:15:37.000Z</time>
      </trkpt>
      <trkpt lat="45.08519" lon="5.20635">
        <ele>164.8</ele>
        <time>2022-10-16T11:15:38.000Z</time>
      </trkpt>
      <trkpt lat="45.08519" lon="5.20628">
        <ele>164.7</ele>
        <time>2022-10-16T11:15:39.000Z</time>
      </trkpt>
      <trkpt lat="45.08519" lon="5.20622">
        <ele>164.7</ele>
        <time>2022-10-16T11:15:40.000Z</time>
      </trkpt>
      <trkpt lat="45.08519" lon="5.20615">
        <ele>164.7</ele>
        <time>2022-10-16T11:15:41.000Z</time>
      </trkpt>
      <trkpt lat="45.08519" lon="5.20609">
        <ele>164.7</ele>
        <time>2022-10-16T11:15:42.000Z</time>
      </trkpt>
      <trkpt lat="45.08519" lon="5.20602">
        <ele>164.7</ele>
        <time>2022-10-16T11:15:43.000Z</time>
      </trkpt>
      <trkpt lat="45.08519" lon="5.20595">
        <ele>164.7</ele>
        <time>2022-10-16T11:15:44.000Z</time>
      </trkpt>
      <trkpt lat="45.08519" lon="5.20589">
        <ele>164.7</ele>
        <time>2022-10-16T11:15:45.000Z</time>
      </trkpt>
      <trkpt lat="45.08518" lon="5.20582">
        <ele>164.6</ele>
        <time>2022-10-16T11:15:46.000Z</time>
      </trkpt>
      <trkpt lat="45.08518" lon="5.20575">
        <ele>164.4</ele>
        <time>2022-10-16T11:15:47.000Z</time>
      </trkpt>
      <trkpt lat="45.08518" lon="5.20568">
        <ele>164.2</ele>
        <time>2022-10-16T11:15:48.000Z</time>
      </trkpt>
      <trkpt lat="45.08518" lon="5.20561">
        <ele>164.1</ele>
        <time>2022-10-16T11:15:49.000Z</time>
      </trkpt>
      <trkpt lat="45.08518" lon="5.20554">
        <ele>163.9</ele>
        <time>2022-10-16T11:15:50.000Z</time>
      </trkpt>
      <trkpt lat="45.08518" lon="5.20547">
        <ele>163.9</ele>
        <time>2022-10-16T11:15:51.000Z</time>
      </trkpt>
      <trkpt lat="45.08518" lon="5.2054">
        <ele>163.9</ele>
        <time>2022-10-16T11:15:52.000Z</time>
      </trkpt>
      <trkpt lat="45.08518" lon="5.20533">
        <ele>163.8</ele>
        <time>2022-10-16T11:15:53.000Z</time>
      </trkpt>
      <trkpt lat="45.08518" lon="5.20526">
        <ele>163.8</ele>
        <time>2022-10-16T11:15:54.000Z</time>
      </trkpt>
      <trkpt lat="45.08518" lon="5.20518">
        <ele>163.5</ele>
        <time>2022-10-16T11:15:55.000Z</time>
      </trkpt>
      <trkpt lat="45.08517" lon="5.20511">
        <ele>163.3</ele>
        <time>2022-10-16T11:15:56.000Z</time>
      </trkpt>
      <trkpt lat="45.08517" lon="5.20504">
        <ele>163</ele>
        <time>2022-10-16T11:15:57.000Z</time>
      </trkpt>
      <trkpt lat="45.08517" lon="5.20496">
        <ele>162.6</ele>
        <time>2022-10-16T11:15:58.000Z</time>
      </trkpt>
      <trkpt lat="45.08517" lon="5.20489">
        <ele>162.2</ele>
        <time>2022-10-16T11:15:59.000Z</time>
      </trkpt>
      <trkpt lat="45.08517" lon="5.20482">
        <ele>161.9</ele>
        <time>2022-10-16T11:16:00.000Z</time>
      </trkpt>
      <trkpt lat="45.08517" lon="5.20474">
        <ele>161.4</ele>
        <time>2022-10-16T11:16:01.000Z</time>
      </trkpt>
      <trkpt lat="45.08517" lon="5.20467">
        <ele>161.6</ele>
        <time>2022-10-16T11:16:02.000Z</time>
      </trkpt>
      <trkpt lat="45.08516" lon="5.20459">
        <ele>161.9</ele>
        <time>2022-10-16T11:16:03.000Z</time>
      </trkpt>
      <trkpt lat="45.08516" lon="5.20452">
        <ele>162.2</ele>
        <time>2022-10-16T11:16:04.000Z</time>
      </trkpt>
      <trkpt lat="45.08516" lon="5.20444">
        <ele>162.5</ele>
        <time>2022-10-16T11:16:05.000Z</time>
      </trkpt>
      <trkpt lat="45.08516" lon="5.20437">
        <ele>162.9</ele>
        <time>2022-10-16T11:16:06.000Z</time>
      </trkpt>
      <trkpt lat="45.08515" lon="5.20429">
        <ele>163.3</ele>
        <time>2022-10-16T11:16:07.000Z</time>
      </trkpt>
      <trkpt lat="45.08515" lon="5.20422">
        <ele>163.8</ele>
        <time>2022-10-16T11:16:08.000Z</time>
      </trkpt>
      <trkpt lat="45.08515" lon="5.20414">
        <ele>164</ele>
        <time>2022-10-16T11:16:09.000Z</time>
      </trkpt>
      <trkpt lat="45.08514" lon="5.20406">
        <ele>163.6</ele>
        <time>2022-10-16T11:16:10.000Z</time>
      </trkpt>
      <trkpt lat="45.08514" lon="5.20399">
        <ele>163.4</ele>
        <time>2022-10-16T11:16:11.000Z</time>
      </trkpt>
      <trkpt lat="45.08514" lon="5.20391">
        <ele>163.1</ele>
        <time>2022-10-16T11:16:12.000Z</time>
      </trkpt>
      <trkpt lat="45.08514" lon="5.20383">
        <ele>163</ele>
        <time>2022-10-16T11:16:13.000Z</time>
      </trkpt>
      <trkpt lat="45.08514" lon="5.20376">
        <ele>163</ele>
        <time>2022-10-16T11:16:14.000Z</time>
      </trkpt>
      <trkpt lat="45.08514" lon="5.20368">
        <ele>163</ele>
        <time>2022-10-16T11:16:15.000Z</time>
      </trkpt>
      <trkpt lat="45.08514" lon="5.2036">
        <ele>163</ele>
        <time>2022-10-16T11:16:16.000Z</time>
      </trkpt>
      <trkpt lat="45.08514" lon="5.20352">
        <ele>163</ele>
        <time>2022-10-16T11:16:17.000Z</time>
      </trkpt>
      <trkpt lat="45.08514" lon="5.20344">
        <ele>163</ele>
        <time>2022-10-16T11:16:18.000Z</time>
      </trkpt>
      <trkpt lat="45.08514" lon="5.20337">
        <ele>163</ele>
        <time>2022-10-16T11:16:19.000Z</time>
      </trkpt>
      <trkpt lat="45.08514" lon="5.20329">
        <ele>162.9</ele>
        <time>2022-10-16T11:16:20.000Z</time>
      </trkpt>
      <trkpt lat="45.08514" lon="5.20322">
        <ele>162.6</ele>
        <time>2022-10-16T11:16:21.000Z</time>
      </trkpt>
      <trkpt lat="45.08514" lon="5.20315">
        <ele>162.4</ele>
        <time>2022-10-16T11:16:22.000Z</time>
      </trkpt>
      <trkpt lat="45.08514" lon="5.20308">
        <ele>162.1</ele>
        <time>2022-10-16T11:16:23.000Z</time>
      </trkpt>
      <trkpt lat="45.08514" lon="5.20302">
        <ele>162</ele>
        <time>2022-10-16T11:16:24.000Z</time>
      </trkpt>
      <trkpt lat="45.08513" lon="5.20295">
        <ele>162.1</ele>
        <time>2022-10-16T11:16:25.000Z</time>
      </trkpt>
      <trkpt lat="45.08513" lon="5.20289">
        <ele>162.2</ele>
        <time>2022-10-16T11:16:26.000Z</time>
      </trkpt>
      <trkpt lat="45.08513" lon="5.20283">
        <ele>162.3</ele>
        <time>2022-10-16T11:16:27.000Z</time>
      </trkpt>
      <trkpt lat="45.08513" lon="5.20276">
        <ele>162.4</ele>
        <time>2022-10-16T11:16:28.000Z</time>
      </trkpt>
      <trkpt lat="45.08513" lon="5.2027">
        <ele>162.2</ele>
        <time>2022-10-16T11:16:29.000Z</time>
      </trkpt>
      <trkpt lat="45.08513" lon="5.20264">
        <ele>162.2</ele>
        <time>2022-10-16T11:16:30.000Z</time>
      </trkpt>
      <trkpt lat="45.08513" lon="5.20258">
        <ele>162</ele>
        <time>2022-10-16T11:16:31.000Z</time>
      </trkpt>
      <trkpt lat="45.08513" lon="5.20251">
        <ele>161.9</ele>
        <time>2022-10-16T11:16:32.000Z</time>
      </trkpt>
      <trkpt lat="45.08513" lon="5.20244">
        <ele>162</ele>
        <time>2022-10-16T11:16:33.000Z</time>
      </trkpt>
      <trkpt lat="45.08513" lon="5.20237">
        <ele>162.2</ele>
        <time>2022-10-16T11:16:34.000Z</time>
      </trkpt>
      <trkpt lat="45.08513" lon="5.2023">
        <ele>162.3</ele>
        <time>2022-10-16T11:16:35.000Z</time>
      </trkpt>
      <trkpt lat="45.08513" lon="5.20222">
        <ele>162.5</ele>
        <time>2022-10-16T11:16:36.000Z</time>
      </trkpt>
      <trkpt lat="45.08514" lon="5.20214">
        <ele>162.5</ele>
        <time>2022-10-16T11:16:37.000Z</time>
      </trkpt>
      <trkpt lat="45.08514" lon="5.20206">
        <ele>162.5</ele>
        <time>2022-10-16T11:16:38.000Z</time>
      </trkpt>
      <trkpt lat="45.08514" lon="5.20199">
        <ele>162.5</ele>
        <time>2022-10-16T11:16:39.000Z</time>
      </trkpt>
      <trkpt lat="45.08514" lon="5.20191">
        <ele>162.5</ele>
        <time>2022-10-16T11:16:40.000Z</time>
      </trkpt>
      <trkpt lat="45.08514" lon="5.20183">
        <ele>162.5</ele>
        <time>2022-10-16T11:16:41.000Z</time>
      </trkpt>
      <trkpt lat="45.08513" lon="5.20175">
        <ele>162.5</ele>
        <time>2022-10-16T11:16:42.000Z</time>
      </trkpt>
      <trkpt lat="45.08513" lon="5.20167">
        <ele>162.5</ele>
        <time>2022-10-16T11:16:43.000Z</time>
      </trkpt>
      <trkpt lat="45.08513" lon="5.20159">
        <ele>162.6</ele>
        <time>2022-10-16T11:16:44.000Z</time>
      </trkpt>
      <trkpt lat="45.08512" lon="5.20151">
        <ele>162.7</ele>
        <time>2022-10-16T11:16:45.000Z</time>
      </trkpt>
      <trkpt lat="45.08512" lon="5.20144">
        <ele>162.8</ele>
        <time>2022-10-16T11:16:46.000Z</time>
      </trkpt>
      <trkpt lat="45.08511" lon="5.20137">
        <ele>162.8</ele>
        <time>2022-10-16T11:16:47.000Z</time>
      </trkpt>
      <trkpt lat="45.08511" lon="5.2013">
        <ele>162.8</ele>
        <time>2022-10-16T11:16:48.000Z</time>
      </trkpt>
      <trkpt lat="45.08511" lon="5.20123">
        <ele>162.8</ele>
        <time>2022-10-16T11:16:49.000Z</time>
      </trkpt>
      <trkpt lat="45.08511" lon="5.20116">
        <ele>162.8</ele>
        <time>2022-10-16T11:16:50.000Z</time>
      </trkpt>
      <trkpt lat="45.08511" lon="5.2011">
        <ele>162.8</ele>
        <time>2022-10-16T11:16:51.000Z</time>
      </trkpt>
      <trkpt lat="45.0851" lon="5.20104">
        <ele>162.8</ele>
        <time>2022-10-16T11:16:52.000Z</time>
      </trkpt>
      <trkpt lat="45.0851" lon="5.20098">
        <ele>162.9</ele>
        <time>2022-10-16T11:16:53.000Z</time>
      </trkpt>
      <trkpt lat="45.0851" lon="5.20091">
        <ele>163</ele>
        <time>2022-10-16T11:16:54.000Z</time>
      </trkpt>
      <trkpt lat="45.0851" lon="5.20085">
        <ele>163.1</ele>
        <time>2022-10-16T11:16:55.000Z</time>
      </trkpt>
      <trkpt lat="45.0851" lon="5.20079">
        <ele>162.9</ele>
        <time>2022-10-16T11:16:56.000Z</time>
      </trkpt>
      <trkpt lat="45.0851" lon="5.20072">
        <ele>162.8</ele>
        <time>2022-10-16T11:16:57.000Z</time>
      </trkpt>
      <trkpt lat="45.0851" lon="5.20065">
        <ele>162.6</ele>
        <time>2022-10-16T11:16:58.000Z</time>
      </trkpt>
      <trkpt lat="45.0851" lon="5.20059">
        <ele>162.5</ele>
        <time>2022-10-16T11:16:59.000Z</time>
      </trkpt>
      <trkpt lat="45.0851" lon="5.20052">
        <ele>162.4</ele>
        <time>2022-10-16T11:17:00.000Z</time>
      </trkpt>
      <trkpt lat="45.0851" lon="5.20046">
        <ele>162.4</ele>
        <time>2022-10-16T11:17:01.000Z</time>
      </trkpt>
      <trkpt lat="45.0851" lon="5.20039">
        <ele>162.4</ele>
        <time>2022-10-16T11:17:02.000Z</time>
      </trkpt>
      <trkpt lat="45.08509" lon="5.20032">
        <ele>162.3</ele>
        <time>2022-10-16T11:17:03.000Z</time>
      </trkpt>
      <trkpt lat="45.08509" lon="5.20026">
        <ele>162.3</ele>
        <time>2022-10-16T11:17:04.000Z</time>
      </trkpt>
      <trkpt lat="45.08509" lon="5.20019">
        <ele>162.2</ele>
        <time>2022-10-16T11:17:05.000Z</time>
      </trkpt>
      <trkpt lat="45.08509" lon="5.20012">
        <ele>162.1</ele>
        <time>2022-10-16T11:17:06.000Z</time>
      </trkpt>
      <trkpt lat="45.08509" lon="5.20006">
        <ele>162</ele>
        <time>2022-10-16T11:17:07.000Z</time>
      </trkpt>
      <trkpt lat="45.0851" lon="5.20001">
        <ele>162</ele>
        <time>2022-10-16T11:17:08.000Z</time>
      </trkpt>
      <trkpt lat="45.08509" lon="5.19994">
        <ele>161.8</ele>
        <time>2022-10-16T11:17:09.000Z</time>
      </trkpt>
      <trkpt lat="45.08509" lon="5.19987">
        <ele>161.7</ele>
        <time>2022-10-16T11:17:10.000Z</time>
      </trkpt>
      <trkpt lat="45.08509" lon="5.19981">
        <ele>161.5</ele>
        <time>2022-10-16T11:17:11.000Z</time>
      </trkpt>
      <trkpt lat="45.08509" lon="5.19974">
        <ele>161.3</ele>
        <time>2022-10-16T11:17:12.000Z</time>
      </trkpt>
      <trkpt lat="45.08509" lon="5.19968">
        <ele>161.5</ele>
        <time>2022-10-16T11:17:13.000Z</time>
      </trkpt>
      <trkpt lat="45.08509" lon="5.19961">
        <ele>161.9</ele>
        <time>2022-10-16T11:17:14.000Z</time>
      </trkpt>
      <trkpt lat="45.08509" lon="5.19954">
        <ele>162.3</ele>
        <time>2022-10-16T11:17:15.000Z</time>
      </trkpt>
      <trkpt lat="45.08508" lon="5.19948">
        <ele>162.7</ele>
        <time>2022-10-16T11:17:16.000Z</time>
      </trkpt>
      <trkpt lat="45.08508" lon="5.1994">
        <ele>162.9</ele>
        <time>2022-10-16T11:17:17.000Z</time>
      </trkpt>
      <trkpt lat="45.08508" lon="5.19933">
        <ele>162.9</ele>
        <time>2022-10-16T11:17:18.000Z</time>
      </trkpt>
      <trkpt lat="45.08508" lon="5.19926">
        <ele>162.9</ele>
        <time>2022-10-16T11:17:19.000Z</time>
      </trkpt>
      <trkpt lat="45.08509" lon="5.19919">
        <ele>162.9</ele>
        <time>2022-10-16T11:17:20.000Z</time>
      </trkpt>
      <trkpt lat="45.08509" lon="5.19911">
        <ele>162.9</ele>
        <time>2022-10-16T11:17:21.000Z</time>
      </trkpt>
      <trkpt lat="45.08509" lon="5.19903">
        <ele>162.8</ele>
        <time>2022-10-16T11:17:22.000Z</time>
      </trkpt>
      <trkpt lat="45.08509" lon="5.19896">
        <ele>162.8</ele>
        <time>2022-10-16T11:17:23.000Z</time>
      </trkpt>
      <trkpt lat="45.08509" lon="5.19887">
        <ele>162.7</ele>
        <time>2022-10-16T11:17:24.000Z</time>
      </trkpt>
      <trkpt lat="45.08509" lon="5.19879">
        <ele>162.5</ele>
        <time>2022-10-16T11:17:25.000Z</time>
      </trkpt>
      <trkpt lat="45.08509" lon="5.19871">
        <ele>162.4</ele>
        <time>2022-10-16T11:17:26.000Z</time>
      </trkpt>
      <trkpt lat="45.08509" lon="5.19863">
        <ele>162.3</ele>
        <time>2022-10-16T11:17:27.000Z</time>
      </trkpt>
      <trkpt lat="45.08509" lon="5.19856">
        <ele>162.3</ele>
        <time>2022-10-16T11:17:28.000Z</time>
      </trkpt>
      <trkpt lat="45.08509" lon="5.19848">
        <ele>162.3</ele>
        <time>2022-10-16T11:17:29.000Z</time>
      </trkpt>
      <trkpt lat="45.08509" lon="5.19841">
        <ele>162.3</ele>
        <time>2022-10-16T11:17:30.000Z</time>
      </trkpt>
      <trkpt lat="45.08509" lon="5.19833">
        <ele>162.3</ele>
        <time>2022-10-16T11:17:31.000Z</time>
      </trkpt>
      <trkpt lat="45.08509" lon="5.19825">
        <ele>162.2</ele>
        <time>2022-10-16T11:17:32.000Z</time>
      </trkpt>
      <trkpt lat="45.08509" lon="5.19818">
        <ele>162.2</ele>
        <time>2022-10-16T11:17:33.000Z</time>
      </trkpt>
      <trkpt lat="45.0851" lon="5.1981">
        <ele>162.1</ele>
        <time>2022-10-16T11:17:34.000Z</time>
      </trkpt>
      <trkpt lat="45.0851" lon="5.19803">
        <ele>162</ele>
        <time>2022-10-16T11:17:35.000Z</time>
      </trkpt>
      <trkpt lat="45.0851" lon="5.19795">
        <ele>161.9</ele>
        <time>2022-10-16T11:17:36.000Z</time>
      </trkpt>
      <trkpt lat="45.0851" lon="5.19787">
        <ele>161.7</ele>
        <time>2022-10-16T11:17:37.000Z</time>
      </trkpt>
      <trkpt lat="45.0851" lon="5.19779">
        <ele>161.5</ele>
        <time>2022-10-16T11:17:38.000Z</time>
      </trkpt>
      <trkpt lat="45.08511" lon="5.19771">
        <ele>161.3</ele>
        <time>2022-10-16T11:17:39.000Z</time>
      </trkpt>
      <trkpt lat="45.08511" lon="5.19763">
        <ele>161</ele>
        <time>2022-10-16T11:17:40.000Z</time>
      </trkpt>
      <trkpt lat="45.08511" lon="5.19754">
        <ele>160.7</ele>
        <time>2022-10-16T11:17:41.000Z</time>
      </trkpt>
      <trkpt lat="45.08511" lon="5.19746">
        <ele>160.6</ele>
        <time>2022-10-16T11:17:42.000Z</time>
      </trkpt>
      <trkpt lat="45.08511" lon="5.19738">
        <ele>160.4</ele>
        <time>2022-10-16T11:17:43.000Z</time>
      </trkpt>
      <trkpt lat="45.08511" lon="5.19729">
        <ele>160.3</ele>
        <time>2022-10-16T11:17:44.000Z</time>
      </trkpt>
      <trkpt lat="45.08511" lon="5.19721">
        <ele>160.2</ele>
        <time>2022-10-16T11:17:45.000Z</time>
      </trkpt>
      <trkpt lat="45.08511" lon="5.19713">
        <ele>160</ele>
        <time>2022-10-16T11:17:46.000Z</time>
      </trkpt>
      <trkpt lat="45.08511" lon="5.19704">
        <ele>159.8</ele>
        <time>2022-10-16T11:17:47.000Z</time>
      </trkpt>
      <trkpt lat="45.08511" lon="5.19696">
        <ele>159.6</ele>
        <time>2022-10-16T11:17:48.000Z</time>
      </trkpt>
      <trkpt lat="45.08511" lon="5.19687">
        <ele>159.8</ele>
        <time>2022-10-16T11:17:49.000Z</time>
      </trkpt>
      <trkpt lat="45.08512" lon="5.19679">
        <ele>160</ele>
        <time>2022-10-16T11:17:50.000Z</time>
      </trkpt>
      <trkpt lat="45.08512" lon="5.19671">
        <ele>160.2</ele>
        <time>2022-10-16T11:17:51.000Z</time>
      </trkpt>
      <trkpt lat="45.08512" lon="5.19663">
        <ele>160.2</ele>
        <time>2022-10-16T11:17:52.000Z</time>
      </trkpt>
      <trkpt lat="45.08512" lon="5.19655">
        <ele>160.1</ele>
        <time>2022-10-16T11:17:53.000Z</time>
      </trkpt>
      <trkpt lat="45.08512" lon="5.19647">
        <ele>160</ele>
        <time>2022-10-16T11:17:54.000Z</time>
      </trkpt>
      <trkpt lat="45.08512" lon="5.1964">
        <ele>159.9</ele>
        <time>2022-10-16T11:17:55.000Z</time>
      </trkpt>
      <trkpt lat="45.08512" lon="5.19633">
        <ele>159.9</ele>
        <time>2022-10-16T11:17:56.000Z</time>
      </trkpt>
      <trkpt lat="45.08512" lon="5.19626">
        <ele>159.9</ele>
        <time>2022-10-16T11:17:57.000Z</time>
      </trkpt>
      <trkpt lat="45.08512" lon="5.19618">
        <ele>159.9</ele>
        <time>2022-10-16T11:17:58.000Z</time>
      </trkpt>
      <trkpt lat="45.08513" lon="5.19611">
        <ele>159.9</ele>
        <time>2022-10-16T11:17:59.000Z</time>
      </trkpt>
      <trkpt lat="45.08513" lon="5.19603">
        <ele>159.9</ele>
        <time>2022-10-16T11:18:00.000Z</time>
      </trkpt>
      <trkpt lat="45.08513" lon="5.19596">
        <ele>159.9</ele>
        <time>2022-10-16T11:18:01.000Z</time>
      </trkpt>
      <trkpt lat="45.08512" lon="5.19588">
        <ele>159.9</ele>
        <time>2022-10-16T11:18:02.000Z</time>
      </trkpt>
      <trkpt lat="45.08512" lon="5.19581">
        <ele>159.8</ele>
        <time>2022-10-16T11:18:03.000Z</time>
      </trkpt>
      <trkpt lat="45.08512" lon="5.19574">
        <ele>159.7</ele>
        <time>2022-10-16T11:18:04.000Z</time>
      </trkpt>
      <trkpt lat="45.08513" lon="5.19566">
        <ele>159.6</ele>
        <time>2022-10-16T11:18:05.000Z</time>
      </trkpt>
      <trkpt lat="45.08513" lon="5.19558">
        <ele>159.5</ele>
        <time>2022-10-16T11:18:06.000Z</time>
      </trkpt>
      <trkpt lat="45.08513" lon="5.1955">
        <ele>159.2</ele>
        <time>2022-10-16T11:18:07.000Z</time>
      </trkpt>
      <trkpt lat="45.08513" lon="5.19543">
        <ele>159</ele>
        <time>2022-10-16T11:18:08.000Z</time>
      </trkpt>
      <trkpt lat="45.08514" lon="5.19535">
        <ele>158.7</ele>
        <time>2022-10-16T11:18:09.000Z</time>
      </trkpt>
      <trkpt lat="45.08514" lon="5.19527">
        <ele>158.5</ele>
        <time>2022-10-16T11:18:10.000Z</time>
      </trkpt>
      <trkpt lat="45.08515" lon="5.1952">
        <ele>158.3</ele>
        <time>2022-10-16T11:18:11.000Z</time>
      </trkpt>
      <trkpt lat="45.08516" lon="5.19513">
        <ele>158.2</ele>
        <time>2022-10-16T11:18:12.000Z</time>
      </trkpt>
      <trkpt lat="45.08518" lon="5.19507">
        <ele>158.2</ele>
        <time>2022-10-16T11:18:13.000Z</time>
      </trkpt>
      <trkpt lat="45.08518" lon="5.19499">
        <ele>157.9</ele>
        <time>2022-10-16T11:18:14.000Z</time>
      </trkpt>
      <trkpt lat="45.08519" lon="5.19491">
        <ele>157.5</ele>
        <time>2022-10-16T11:18:15.000Z</time>
      </trkpt>
      <trkpt lat="45.0852" lon="5.19483">
        <ele>157.1</ele>
        <time>2022-10-16T11:18:16.000Z</time>
      </trkpt>
      <trkpt lat="45.0852" lon="5.19475">
        <ele>156.6</ele>
        <time>2022-10-16T11:18:17.000Z</time>
      </trkpt>
      <trkpt lat="45.08521" lon="5.19467">
        <ele>156.4</ele>
        <time>2022-10-16T11:18:18.000Z</time>
      </trkpt>
      <trkpt lat="45.08521" lon="5.19459">
        <ele>156.4</ele>
        <time>2022-10-16T11:18:19.000Z</time>
      </trkpt>
      <trkpt lat="45.08522" lon="5.1945">
        <ele>156.4</ele>
        <time>2022-10-16T11:18:20.000Z</time>
      </trkpt>
      <trkpt lat="45.08522" lon="5.19442">
        <ele>156.4</ele>
        <time>2022-10-16T11:18:21.000Z</time>
      </trkpt>
      <trkpt lat="45.08523" lon="5.19434">
        <ele>156.4</ele>
        <time>2022-10-16T11:18:22.000Z</time>
      </trkpt>
      <trkpt lat="45.08523" lon="5.19425">
        <ele>156.5</ele>
        <time>2022-10-16T11:18:23.000Z</time>
      </trkpt>
      <trkpt lat="45.08523" lon="5.19417">
        <ele>156.5</ele>
        <time>2022-10-16T11:18:24.000Z</time>
      </trkpt>
      <trkpt lat="45.08524" lon="5.19408">
        <ele>156.3</ele>
        <time>2022-10-16T11:18:25.000Z</time>
      </trkpt>
      <trkpt lat="45.08524" lon="5.194">
        <ele>156</ele>
        <time>2022-10-16T11:18:26.000Z</time>
      </trkpt>
      <trkpt lat="45.08525" lon="5.19392">
        <ele>155.8</ele>
        <time>2022-10-16T11:18:27.000Z</time>
      </trkpt>
      <trkpt lat="45.08525" lon="5.19383">
        <ele>155.5</ele>
        <time>2022-10-16T11:18:28.000Z</time>
      </trkpt>
      <trkpt lat="45.08526" lon="5.19375">
        <ele>155.3</ele>
        <time>2022-10-16T11:18:29.000Z</time>
      </trkpt>
      <trkpt lat="45.08526" lon="5.19367">
        <ele>155.1</ele>
        <time>2022-10-16T11:18:30.000Z</time>
      </trkpt>
      <trkpt lat="45.08527" lon="5.19358">
        <ele>154.9</ele>
        <time>2022-10-16T11:18:31.000Z</time>
      </trkpt>
      <trkpt lat="45.08528" lon="5.1935">
        <ele>155</ele>
        <time>2022-10-16T11:18:32.000Z</time>
      </trkpt>
      <trkpt lat="45.08528" lon="5.19342">
        <ele>155.1</ele>
        <time>2022-10-16T11:18:33.000Z</time>
      </trkpt>
      <trkpt lat="45.08529" lon="5.19334">
        <ele>155.1</ele>
        <time>2022-10-16T11:18:34.000Z</time>
      </trkpt>
      <trkpt lat="45.0853" lon="5.19327">
        <ele>155</ele>
        <time>2022-10-16T11:18:35.000Z</time>
      </trkpt>
      <trkpt lat="45.08531" lon="5.1932">
        <ele>154.8</ele>
        <time>2022-10-16T11:18:36.000Z</time>
      </trkpt>
      <trkpt lat="45.08531" lon="5.19312">
        <ele>154.6</ele>
        <time>2022-10-16T11:18:37.000Z</time>
      </trkpt>
      <trkpt lat="45.08532" lon="5.19305">
        <ele>154.5</ele>
        <time>2022-10-16T11:18:38.000Z</time>
      </trkpt>
      <trkpt lat="45.08533" lon="5.19297">
        <ele>154.5</ele>
        <time>2022-10-16T11:18:39.000Z</time>
      </trkpt>
      <trkpt lat="45.08533" lon="5.1929">
        <ele>154.5</ele>
        <time>2022-10-16T11:18:40.000Z</time>
      </trkpt>
      <trkpt lat="45.08534" lon="5.19282">
        <ele>154.4</ele>
        <time>2022-10-16T11:18:41.000Z</time>
      </trkpt>
      <trkpt lat="45.08534" lon="5.19274">
        <ele>154.5</ele>
        <time>2022-10-16T11:18:42.000Z</time>
      </trkpt>
      <trkpt lat="45.08535" lon="5.19267">
        <ele>154.5</ele>
        <time>2022-10-16T11:18:43.000Z</time>
      </trkpt>
      <trkpt lat="45.08536" lon="5.19259">
        <ele>154.6</ele>
        <time>2022-10-16T11:18:44.000Z</time>
      </trkpt>
      <trkpt lat="45.08536" lon="5.19252">
        <ele>154.6</ele>
        <time>2022-10-16T11:18:45.000Z</time>
      </trkpt>
      <trkpt lat="45.08537" lon="5.19244">
        <ele>154.5</ele>
        <time>2022-10-16T11:18:46.000Z</time>
      </trkpt>
      <trkpt lat="45.08537" lon="5.19237">
        <ele>154.3</ele>
        <time>2022-10-16T11:18:47.000Z</time>
      </trkpt>
      <trkpt lat="45.08538" lon="5.19229">
        <ele>154.2</ele>
        <time>2022-10-16T11:18:48.000Z</time>
      </trkpt>
      <trkpt lat="45.08538" lon="5.19222">
        <ele>154.1</ele>
        <time>2022-10-16T11:18:49.000Z</time>
      </trkpt>
      <trkpt lat="45.08539" lon="5.19214">
        <ele>154.2</ele>
        <time>2022-10-16T11:18:50.000Z</time>
      </trkpt>
      <trkpt lat="45.0854" lon="5.19208">
        <ele>154.3</ele>
        <time>2022-10-16T11:18:51.000Z</time>
      </trkpt>
      <trkpt lat="45.0854" lon="5.192">
        <ele>154.3</ele>
        <time>2022-10-16T11:18:52.000Z</time>
      </trkpt>
      <trkpt lat="45.08541" lon="5.19193">
        <ele>154.3</ele>
        <time>2022-10-16T11:18:53.000Z</time>
      </trkpt>
      <trkpt lat="45.08541" lon="5.19187">
        <ele>154.2</ele>
        <time>2022-10-16T11:18:54.000Z</time>
      </trkpt>
      <trkpt lat="45.08542" lon="5.1918">
        <ele>154</ele>
        <time>2022-10-16T11:18:55.000Z</time>
      </trkpt>
      <trkpt lat="45.08542" lon="5.19174">
        <ele>153.8</ele>
        <time>2022-10-16T11:18:56.000Z</time>
      </trkpt>
      <trkpt lat="45.08543" lon="5.19168">
        <ele>153.6</ele>
        <time>2022-10-16T11:18:57.000Z</time>
      </trkpt>
      <trkpt lat="45.08543" lon="5.19161">
        <ele>153.6</ele>
        <time>2022-10-16T11:18:58.000Z</time>
      </trkpt>
      <trkpt lat="45.08544" lon="5.19155">
        <ele>153.6</ele>
        <time>2022-10-16T11:18:59.000Z</time>
      </trkpt>
      <trkpt lat="45.08544" lon="5.19149">
        <ele>153.6</ele>
        <time>2022-10-16T11:19:00.000Z</time>
      </trkpt>
      <trkpt lat="45.08545" lon="5.19143">
        <ele>153.6</ele>
        <time>2022-10-16T11:19:01.000Z</time>
      </trkpt>
      <trkpt lat="45.08545" lon="5.19136">
        <ele>153.6</ele>
        <time>2022-10-16T11:19:02.000Z</time>
      </trkpt>
      <trkpt lat="45.08545" lon="5.1913">
        <ele>153.7</ele>
        <time>2022-10-16T11:19:03.000Z</time>
      </trkpt>
      <trkpt lat="45.08546" lon="5.19124">
        <ele>153.8</ele>
        <time>2022-10-16T11:19:04.000Z</time>
      </trkpt>
      <trkpt lat="45.08546" lon="5.19117">
        <ele>153.9</ele>
        <time>2022-10-16T11:19:05.000Z</time>
      </trkpt>
      <trkpt lat="45.08547" lon="5.1911">
        <ele>154.1</ele>
        <time>2022-10-16T11:19:06.000Z</time>
      </trkpt>
      <trkpt lat="45.08547" lon="5.19104">
        <ele>154.1</ele>
        <time>2022-10-16T11:19:07.000Z</time>
      </trkpt>
      <trkpt lat="45.08548" lon="5.19097">
        <ele>154.2</ele>
        <time>2022-10-16T11:19:08.000Z</time>
      </trkpt>
      <trkpt lat="45.08549" lon="5.1909">
        <ele>154.3</ele>
        <time>2022-10-16T11:19:09.000Z</time>
      </trkpt>
      <trkpt lat="45.08549" lon="5.19083">
        <ele>154.3</ele>
        <time>2022-10-16T11:19:10.000Z</time>
      </trkpt>
      <trkpt lat="45.08549" lon="5.19076">
        <ele>154.1</ele>
        <time>2022-10-16T11:19:11.000Z</time>
      </trkpt>
      <trkpt lat="45.0855" lon="5.19069">
        <ele>154</ele>
        <time>2022-10-16T11:19:12.000Z</time>
      </trkpt>
      <trkpt lat="45.08551" lon="5.19062">
        <ele>153.8</ele>
        <time>2022-10-16T11:19:13.000Z</time>
      </trkpt>
      <trkpt lat="45.08551" lon="5.19055">
        <ele>153.7</ele>
        <time>2022-10-16T11:19:14.000Z</time>
      </trkpt>
      <trkpt lat="45.08552" lon="5.19048">
        <ele>153.5</ele>
        <time>2022-10-16T11:19:15.000Z</time>
      </trkpt>
      <trkpt lat="45.08552" lon="5.19041">
        <ele>153.3</ele>
        <time>2022-10-16T11:19:16.000Z</time>
      </trkpt>
      <trkpt lat="45.08553" lon="5.19034">
        <ele>153.1</ele>
        <time>2022-10-16T11:19:17.000Z</time>
      </trkpt>
      <trkpt lat="45.08553" lon="5.19026">
        <ele>152.9</ele>
        <time>2022-10-16T11:19:18.000Z</time>
      </trkpt>
      <trkpt lat="45.08553" lon="5.19019">
        <ele>152.9</ele>
        <time>2022-10-16T11:19:19.000Z</time>
      </trkpt>
      <trkpt lat="45.08554" lon="5.19012">
        <ele>152.9</ele>
        <time>2022-10-16T11:19:20.000Z</time>
      </trkpt>
      <trkpt lat="45.08554" lon="5.19005">
        <ele>152.9</ele>
        <time>2022-10-16T11:19:21.000Z</time>
      </trkpt>
      <trkpt lat="45.08554" lon="5.18999">
        <ele>153</ele>
        <time>2022-10-16T11:19:22.000Z</time>
      </trkpt>
      <trkpt lat="45.08555" lon="5.18993">
        <ele>153</ele>
        <time>2022-10-16T11:19:23.000Z</time>
      </trkpt>
      <trkpt lat="45.08555" lon="5.18987">
        <ele>153</ele>
        <time>2022-10-16T11:19:24.000Z</time>
      </trkpt>
      <trkpt lat="45.08556" lon="5.18981">
        <ele>153</ele>
        <time>2022-10-16T11:19:25.000Z</time>
      </trkpt>
      <trkpt lat="45.08556" lon="5.18975">
        <ele>153</ele>
        <time>2022-10-16T11:19:26.000Z</time>
      </trkpt>
      <trkpt lat="45.08557" lon="5.18969">
        <ele>153</ele>
        <time>2022-10-16T11:19:27.000Z</time>
      </trkpt>
      <trkpt lat="45.08557" lon="5.18963">
        <ele>153.1</ele>
        <time>2022-10-16T11:19:28.000Z</time>
      </trkpt>
      <trkpt lat="45.08558" lon="5.18956">
        <ele>153.1</ele>
        <time>2022-10-16T11:19:29.000Z</time>
      </trkpt>
      <trkpt lat="45.08558" lon="5.1895">
        <ele>153.1</ele>
        <time>2022-10-16T11:19:30.000Z</time>
      </trkpt>
      <trkpt lat="45.08559" lon="5.18943">
        <ele>153.1</ele>
        <time>2022-10-16T11:19:31.000Z</time>
      </trkpt>
      <trkpt lat="45.08559" lon="5.18937">
        <ele>153.1</ele>
        <time>2022-10-16T11:19:32.000Z</time>
      </trkpt>
      <trkpt lat="45.08561" lon="5.18931">
        <ele>153.1</ele>
        <time>2022-10-16T11:19:33.000Z</time>
      </trkpt>
      <trkpt lat="45.08561" lon="5.18925">
        <ele>153.1</ele>
        <time>2022-10-16T11:19:34.000Z</time>
      </trkpt>
      <trkpt lat="45.08561" lon="5.18918">
        <ele>153</ele>
        <time>2022-10-16T11:19:35.000Z</time>
      </trkpt>
      <trkpt lat="45.08562" lon="5.18911">
        <ele>153</ele>
        <time>2022-10-16T11:19:36.000Z</time>
      </trkpt>
      <trkpt lat="45.08562" lon="5.18904">
        <ele>153</ele>
        <time>2022-10-16T11:19:37.000Z</time>
      </trkpt>
      <trkpt lat="45.08563" lon="5.18897">
        <ele>153</ele>
        <time>2022-10-16T11:19:38.000Z</time>
      </trkpt>
      <trkpt lat="45.08563" lon="5.1889">
        <ele>153</ele>
        <time>2022-10-16T11:19:39.000Z</time>
      </trkpt>
      <trkpt lat="45.08564" lon="5.18883">
        <ele>153.1</ele>
        <time>2022-10-16T11:19:40.000Z</time>
      </trkpt>
      <trkpt lat="45.08564" lon="5.18876">
        <ele>153.1</ele>
        <time>2022-10-16T11:19:41.000Z</time>
      </trkpt>
      <trkpt lat="45.08565" lon="5.1887">
        <ele>153.2</ele>
        <time>2022-10-16T11:19:42.000Z</time>
      </trkpt>
      <trkpt lat="45.08565" lon="5.18864">
        <ele>153.3</ele>
        <time>2022-10-16T11:19:43.000Z</time>
      </trkpt>
      <trkpt lat="45.08565" lon="5.18858">
        <ele>153.4</ele>
        <time>2022-10-16T11:19:44.000Z</time>
      </trkpt>
      <trkpt lat="45.08565" lon="5.18852">
        <ele>153.4</ele>
        <time>2022-10-16T11:19:45.000Z</time>
      </trkpt>
      <trkpt lat="45.08565" lon="5.18846">
        <ele>153.3</ele>
        <time>2022-10-16T11:19:46.000Z</time>
      </trkpt>
      <trkpt lat="45.08564" lon="5.1884">
        <ele>153.3</ele>
        <time>2022-10-16T11:19:47.000Z</time>
      </trkpt>
      <trkpt lat="45.08564" lon="5.18833">
        <ele>153.3</ele>
        <time>2022-10-16T11:19:48.000Z</time>
      </trkpt>
      <trkpt lat="45.08564" lon="5.18827">
        <ele>153.2</ele>
        <time>2022-10-16T11:19:49.000Z</time>
      </trkpt>
      <trkpt lat="45.08565" lon="5.18821">
        <ele>153.2</ele>
        <time>2022-10-16T11:19:50.000Z</time>
      </trkpt>
      <trkpt lat="45.08566" lon="5.18815">
        <ele>153.1</ele>
        <time>2022-10-16T11:19:51.000Z</time>
      </trkpt>
      <trkpt lat="45.08567" lon="5.18809">
        <ele>153.1</ele>
        <time>2022-10-16T11:19:52.000Z</time>
      </trkpt>
      <trkpt lat="45.08568" lon="5.18803">
        <ele>153</ele>
        <time>2022-10-16T11:19:53.000Z</time>
      </trkpt>
      <trkpt lat="45.08568" lon="5.18798">
        <ele>153</ele>
        <time>2022-10-16T11:19:54.000Z</time>
      </trkpt>
      <trkpt lat="45.08566" lon="5.18793">
        <ele>153</ele>
        <time>2022-10-16T11:19:55.000Z</time>
      </trkpt>
      <trkpt lat="45.08563" lon="5.18789">
        <ele>153</ele>
        <time>2022-10-16T11:19:56.000Z</time>
      </trkpt>
      <trkpt lat="45.0856" lon="5.18786">
        <ele>153</ele>
        <time>2022-10-16T11:19:57.000Z</time>
      </trkpt>
      <trkpt lat="45.08557" lon="5.18785">
        <ele>153</ele>
        <time>2022-10-16T11:19:58.000Z</time>
      </trkpt>
      <trkpt lat="45.08553" lon="5.18784">
        <ele>152.8</ele>
        <time>2022-10-16T11:19:59.000Z</time>
      </trkpt>
      <trkpt lat="45.0855" lon="5.18783">
        <ele>152.6</ele>
        <time>2022-10-16T11:20:00.000Z</time>
      </trkpt>
      <trkpt lat="45.08546" lon="5.1878">
        <ele>152.3</ele>
        <time>2022-10-16T11:20:01.000Z</time>
      </trkpt>
      <trkpt lat="45.08544" lon="5.18776">
        <ele>152.1</ele>
        <time>2022-10-16T11:20:02.000Z</time>
      </trkpt>
      <trkpt lat="45.08542" lon="5.18772">
        <ele>151.8</ele>
        <time>2022-10-16T11:20:03.000Z</time>
      </trkpt>
      <trkpt lat="45.08541" lon="5.18767">
        <ele>151.6</ele>
        <time>2022-10-16T11:20:04.000Z</time>
      </trkpt>
      <trkpt lat="45.08542" lon="5.18761">
        <ele>151.4</ele>
        <time>2022-10-16T11:20:05.000Z</time>
      </trkpt>
      <trkpt lat="45.08543" lon="5.18755">
        <ele>151.3</ele>
        <time>2022-10-16T11:20:06.000Z</time>
      </trkpt>
      <trkpt lat="45.08546" lon="5.1875">
        <ele>151.3</ele>
        <time>2022-10-16T11:20:07.000Z</time>
      </trkpt>
      <trkpt lat="45.08548" lon="5.18746">
        <ele>151.5</ele>
        <time>2022-10-16T11:20:08.000Z</time>
      </trkpt>
      <trkpt lat="45.08551" lon="5.18741">
        <ele>151.7</ele>
        <time>2022-10-16T11:20:09.000Z</time>
      </trkpt>
      <trkpt lat="45.08554" lon="5.18736">
        <ele>151.9</ele>
        <time>2022-10-16T11:20:10.000Z</time>
      </trkpt>
      <trkpt lat="45.08556" lon="5.18731">
        <ele>152</ele>
        <time>2022-10-16T11:20:11.000Z</time>
      </trkpt>
      <trkpt lat="45.08559" lon="5.18725">
        <ele>152</ele>
        <time>2022-10-16T11:20:12.000Z</time>
      </trkpt>
      <trkpt lat="45.0856" lon="5.1872">
        <ele>152</ele>
        <time>2022-10-16T11:20:13.000Z</time>
      </trkpt>
      <trkpt lat="45.08562" lon="5.18714">
        <ele>152</ele>
        <time>2022-10-16T11:20:14.000Z</time>
      </trkpt>
      <trkpt lat="45.08563" lon="5.18708">
        <ele>152</ele>
        <time>2022-10-16T11:20:15.000Z</time>
      </trkpt>
      <trkpt lat="45.08564" lon="5.18702">
        <ele>152</ele>
        <time>2022-10-16T11:20:16.000Z</time>
      </trkpt>
      <trkpt lat="45.08564" lon="5.18695">
        <ele>152</ele>
        <time>2022-10-16T11:20:17.000Z</time>
      </trkpt>
      <trkpt lat="45.08564" lon="5.18688">
        <ele>151.8</ele>
        <time>2022-10-16T11:20:18.000Z</time>
      </trkpt>
      <trkpt lat="45.08564" lon="5.18681">
        <ele>151.7</ele>
        <time>2022-10-16T11:20:19.000Z</time>
      </trkpt>
      <trkpt lat="45.08564" lon="5.18673">
        <ele>151.5</ele>
        <time>2022-10-16T11:20:20.000Z</time>
      </trkpt>
      <trkpt lat="45.08562" lon="5.18666">
        <ele>151.2</ele>
        <time>2022-10-16T11:20:21.000Z</time>
      </trkpt>
      <trkpt lat="45.08561" lon="5.18661">
        <ele>151.4</ele>
        <time>2022-10-16T11:20:22.000Z</time>
      </trkpt>
      <trkpt lat="45.08561" lon="5.18656">
        <ele>151.5</ele>
        <time>2022-10-16T11:20:23.000Z</time>
      </trkpt>
      <trkpt lat="45.08562" lon="5.18651">
        <ele>151.7</ele>
        <time>2022-10-16T11:20:24.000Z</time>
      </trkpt>
      <trkpt lat="45.08562" lon="5.18646">
        <ele>151.8</ele>
        <time>2022-10-16T11:20:25.000Z</time>
      </trkpt>
      <trkpt lat="45.08562" lon="5.18641">
        <ele>151.9</ele>
        <time>2022-10-16T11:20:26.000Z</time>
      </trkpt>
      <trkpt lat="45.08561" lon="5.18637">
        <ele>151.9</ele>
        <time>2022-10-16T11:20:27.000Z</time>
      </trkpt>
      <trkpt lat="45.08561" lon="5.18633">
        <ele>151.8</ele>
        <time>2022-10-16T11:20:28.000Z</time>
      </trkpt>
      <trkpt lat="45.08561" lon="5.18629">
        <ele>151.7</ele>
        <time>2022-10-16T11:20:29.000Z</time>
      </trkpt>
      <trkpt lat="45.08561" lon="5.18625">
        <ele>151.6</ele>
        <time>2022-10-16T11:20:30.000Z</time>
      </trkpt>
      <trkpt lat="45.08561" lon="5.18622">
        <ele>151.5</ele>
        <time>2022-10-16T11:20:31.000Z</time>
      </trkpt>
      <trkpt lat="45.08561" lon="5.18618">
        <ele>151.4</ele>
        <time>2022-10-16T11:20:33.000Z</time>
      </trkpt>
      <trkpt lat="45.08565" lon="5.1861">
        <ele>151.4</ele>
        <time>2022-10-16T11:21:23.000Z</time>
      </trkpt>
      <trkpt lat="45.08568" lon="5.1861">
        <ele>151.5</ele>
        <time>2022-10-16T11:21:24.000Z</time>
      </trkpt>
      <trkpt lat="45.08564" lon="5.18613">
        <ele>151.4</ele>
        <time>2022-10-16T11:21:26.000Z</time>
      </trkpt>
      <trkpt lat="45.08566" lon="5.18613">
        <ele>151.4</ele>
        <time>2022-10-16T11:21:27.000Z</time>
      </trkpt>
      <trkpt lat="45.08566" lon="5.18613">
        <ele>151.4</ele>
        <time>2022-10-16T11:40:28.000Z</time>
      </trkpt>
      <trkpt lat="45.0856" lon="5.18614">
        <ele>151.2</ele>
        <time>2022-10-16T11:40:38.000Z</time>
      </trkpt>
      <trkpt lat="45.08567" lon="5.1862">
        <ele>151.6</ele>
        <time>2022-10-16T11:40:38.000Z</time>
      </trkpt>
      <trkpt lat="45.08568" lon="5.18619">
        <ele>151.6</ele>
        <time>2022-10-16T11:40:39.000Z</time>
      </trkpt>
      <trkpt lat="45.08566" lon="5.18618">
        <ele>151.5</ele>
        <time>2022-10-16T11:40:41.000Z</time>
      </trkpt>
      <trkpt lat="45.08565" lon="5.18623">
        <ele>151.6</ele>
        <time>2022-10-16T11:40:48.000Z</time>
      </trkpt>
      <trkpt lat="45.08565" lon="5.18627">
        <ele>151.7</ele>
        <time>2022-10-16T11:40:50.000Z</time>
      </trkpt>
      <trkpt lat="45.08565" lon="5.18631">
        <ele>151.8</ele>
        <time>2022-10-16T11:40:53.000Z</time>
      </trkpt>
      <trkpt lat="45.08565" lon="5.18636">
        <ele>151.9</ele>
        <time>2022-10-16T11:40:55.000Z</time>
      </trkpt>
      <trkpt lat="45.08566" lon="5.1864">
        <ele>152</ele>
        <time>2022-10-16T11:40:57.000Z</time>
      </trkpt>
      <trkpt lat="45.08568" lon="5.18643">
        <ele>151.9</ele>
        <time>2022-10-16T11:40:59.000Z</time>
      </trkpt>
      <trkpt lat="45.08569" lon="5.1864">
        <ele>152</ele>
        <time>2022-10-16T11:41:01.000Z</time>
      </trkpt>
      <trkpt lat="45.08571" lon="5.18637">
        <ele>152</ele>
        <time>2022-10-16T11:41:03.000Z</time>
      </trkpt>
      <trkpt lat="45.08574" lon="5.18635">
        <ele>152</ele>
        <time>2022-10-16T11:41:05.000Z</time>
      </trkpt>
      <trkpt lat="45.08576" lon="5.18634">
        <ele>152</ele>
        <time>2022-10-16T11:41:06.000Z</time>
      </trkpt>
      <trkpt lat="45.08577" lon="5.18629">
        <ele>151.9</ele>
        <time>2022-10-16T11:41:08.000Z</time>
      </trkpt>
      <trkpt lat="45.08577" lon="5.18626">
        <ele>151.9</ele>
        <time>2022-10-16T11:41:09.000Z</time>
      </trkpt>
      <trkpt lat="45.08577" lon="5.18623">
        <ele>151.9</ele>
        <time>2022-10-16T11:41:10.000Z</time>
      </trkpt>
      <trkpt lat="45.08577" lon="5.18618">
        <ele>151.8</ele>
        <time>2022-10-16T11:41:11.000Z</time>
      </trkpt>
      <trkpt lat="45.08578" lon="5.18614">
        <ele>151.8</ele>
        <time>2022-10-16T11:41:12.000Z</time>
      </trkpt>
      <trkpt lat="45.08578" lon="5.18609">
        <ele>151.8</ele>
        <time>2022-10-16T11:41:13.000Z</time>
      </trkpt>
      <trkpt lat="45.08577" lon="5.18604">
        <ele>151.8</ele>
        <time>2022-10-16T11:41:14.000Z</time>
      </trkpt>
      <trkpt lat="45.08577" lon="5.186">
        <ele>151.9</ele>
        <time>2022-10-16T11:41:15.000Z</time>
      </trkpt>
      <trkpt lat="45.08577" lon="5.18595">
        <ele>151.9</ele>
        <time>2022-10-16T11:41:16.000Z</time>
      </trkpt>
      <trkpt lat="45.08577" lon="5.18589">
        <ele>151.9</ele>
        <time>2022-10-16T11:41:17.000Z</time>
      </trkpt>
      <trkpt lat="45.08576" lon="5.18582">
        <ele>152</ele>
        <time>2022-10-16T11:41:18.000Z</time>
      </trkpt>
      <trkpt lat="45.08576" lon="5.18576">
        <ele>151.9</ele>
        <time>2022-10-16T11:41:19.000Z</time>
      </trkpt>
      <trkpt lat="45.08575" lon="5.1857">
        <ele>151.9</ele>
        <time>2022-10-16T11:41:20.000Z</time>
      </trkpt>
      <trkpt lat="45.08575" lon="5.18564">
        <ele>151.8</ele>
        <time>2022-10-16T11:41:21.000Z</time>
      </trkpt>
      <trkpt lat="45.08574" lon="5.18558">
        <ele>151.7</ele>
        <time>2022-10-16T11:41:22.000Z</time>
      </trkpt>
      <trkpt lat="45.08574" lon="5.18553">
        <ele>151.7</ele>
        <time>2022-10-16T11:41:23.000Z</time>
      </trkpt>
      <trkpt lat="45.08574" lon="5.18548">
        <ele>151.7</ele>
        <time>2022-10-16T11:41:24.000Z</time>
      </trkpt>
      <trkpt lat="45.08574" lon="5.18542">
        <ele>151.6</ele>
        <time>2022-10-16T11:41:25.000Z</time>
      </trkpt>
      <trkpt lat="45.08573" lon="5.18536">
        <ele>151.6</ele>
        <time>2022-10-16T11:41:26.000Z</time>
      </trkpt>
      <trkpt lat="45.08573" lon="5.1853">
        <ele>151.6</ele>
        <time>2022-10-16T11:41:27.000Z</time>
      </trkpt>
      <trkpt lat="45.08572" lon="5.18524">
        <ele>151.7</ele>
        <time>2022-10-16T11:41:28.000Z</time>
      </trkpt>
      <trkpt lat="45.08571" lon="5.18518">
        <ele>151.7</ele>
        <time>2022-10-16T11:41:29.000Z</time>
      </trkpt>
      <trkpt lat="45.08571" lon="5.18513">
        <ele>151.8</ele>
        <time>2022-10-16T11:41:30.000Z</time>
      </trkpt>
      <trkpt lat="45.08571" lon="5.18507">
        <ele>151.9</ele>
        <time>2022-10-16T11:41:31.000Z</time>
      </trkpt>
      <trkpt lat="45.08572" lon="5.18502">
        <ele>152</ele>
        <time>2022-10-16T11:41:32.000Z</time>
      </trkpt>
      <trkpt lat="45.08572" lon="5.18497">
        <ele>152.2</ele>
        <time>2022-10-16T11:41:33.000Z</time>
      </trkpt>
      <trkpt lat="45.08573" lon="5.18492">
        <ele>152.5</ele>
        <time>2022-10-16T11:41:34.000Z</time>
      </trkpt>
      <trkpt lat="45.08573" lon="5.18487">
        <ele>152.9</ele>
        <time>2022-10-16T11:41:35.000Z</time>
      </trkpt>
      <trkpt lat="45.08574" lon="5.18481">
        <ele>153.4</ele>
        <time>2022-10-16T11:41:36.000Z</time>
      </trkpt>
      <trkpt lat="45.08574" lon="5.18476">
        <ele>153.8</ele>
        <time>2022-10-16T11:41:37.000Z</time>
      </trkpt>
      <trkpt lat="45.08575" lon="5.18471">
        <ele>154.1</ele>
        <time>2022-10-16T11:41:38.000Z</time>
      </trkpt>
      <trkpt lat="45.08576" lon="5.18467">
        <ele>154.4</ele>
        <time>2022-10-16T11:41:39.000Z</time>
      </trkpt>
      <trkpt lat="45.08577" lon="5.18462">
        <ele>154.6</ele>
        <time>2022-10-16T11:41:40.000Z</time>
      </trkpt>
      <trkpt lat="45.08578" lon="5.18458">
        <ele>154.8</ele>
        <time>2022-10-16T11:41:41.000Z</time>
      </trkpt>
      <trkpt lat="45.08579" lon="5.18453">
        <ele>155.1</ele>
        <time>2022-10-16T11:41:42.000Z</time>
      </trkpt>
      <trkpt lat="45.0858" lon="5.1845">
        <ele>155.3</ele>
        <time>2022-10-16T11:41:43.000Z</time>
      </trkpt>
      <trkpt lat="45.08581" lon="5.18447">
        <ele>155.5</ele>
        <time>2022-10-16T11:41:44.000Z</time>
      </trkpt>
      <trkpt lat="45.08581" lon="5.18443">
        <ele>155.8</ele>
        <time>2022-10-16T11:41:45.000Z</time>
      </trkpt>
      <trkpt lat="45.08581" lon="5.18438">
        <ele>156.1</ele>
        <time>2022-10-16T11:41:46.000Z</time>
      </trkpt>
      <trkpt lat="45.08582" lon="5.18435">
        <ele>156.4</ele>
        <time>2022-10-16T11:41:47.000Z</time>
      </trkpt>
      <trkpt lat="45.08582" lon="5.18432">
        <ele>156.8</ele>
        <time>2022-10-16T11:41:48.000Z</time>
      </trkpt>
      <trkpt lat="45.08583" lon="5.18428">
        <ele>157.1</ele>
        <time>2022-10-16T11:41:49.000Z</time>
      </trkpt>
      <trkpt lat="45.08583" lon="5.18424">
        <ele>157.5</ele>
        <time>2022-10-16T11:41:50.000Z</time>
      </trkpt>
      <trkpt lat="45.08583" lon="5.1842">
        <ele>157.8</ele>
        <time>2022-10-16T11:41:51.000Z</time>
      </trkpt>
      <trkpt lat="45.08584" lon="5.18417">
        <ele>158.1</ele>
        <time>2022-10-16T11:41:52.000Z</time>
      </trkpt>
      <trkpt lat="45.08585" lon="5.18413">
        <ele>158.1</ele>
        <time>2022-10-16T11:41:53.000Z</time>
      </trkpt>
      <trkpt lat="45.08586" lon="5.18411">
        <ele>158.3</ele>
        <time>2022-10-16T11:41:54.000Z</time>
      </trkpt>
      <trkpt lat="45.08586" lon="5.18407">
        <ele>158.2</ele>
        <time>2022-10-16T11:41:55.000Z</time>
      </trkpt>
      <trkpt lat="45.08585" lon="5.18403">
        <ele>158.2</ele>
        <time>2022-10-16T11:41:56.000Z</time>
      </trkpt>
      <trkpt lat="45.08584" lon="5.18399">
        <ele>158.1</ele>
        <time>2022-10-16T11:41:57.000Z</time>
      </trkpt>
      <trkpt lat="45.08583" lon="5.18395">
        <ele>158</ele>
        <time>2022-10-16T11:41:58.000Z</time>
      </trkpt>
      <trkpt lat="45.08583" lon="5.1839">
        <ele>157.9</ele>
        <time>2022-10-16T11:41:59.000Z</time>
      </trkpt>
      <trkpt lat="45.08582" lon="5.18386">
        <ele>157.9</ele>
        <time>2022-10-16T11:42:00.000Z</time>
      </trkpt>
      <trkpt lat="45.08582" lon="5.18383">
        <ele>158</ele>
        <time>2022-10-16T11:42:01.000Z</time>
      </trkpt>
      <trkpt lat="45.08584" lon="5.18381">
        <ele>158.4</ele>
        <time>2022-10-16T11:42:02.000Z</time>
      </trkpt>
      <trkpt lat="45.08583" lon="5.18378">
        <ele>158.3</ele>
        <time>2022-10-16T11:42:03.000Z</time>
      </trkpt>
      <trkpt lat="45.08582" lon="5.18374">
        <ele>158.3</ele>
        <time>2022-10-16T11:42:04.000Z</time>
      </trkpt>
      <trkpt lat="45.08583" lon="5.18372">
        <ele>158.5</ele>
        <time>2022-10-16T11:42:05.000Z</time>
      </trkpt>
      <trkpt lat="45.08583" lon="5.18368">
        <ele>158.7</ele>
        <time>2022-10-16T11:42:06.000Z</time>
      </trkpt>
      <trkpt lat="45.08583" lon="5.18365">
        <ele>158.9</ele>
        <time>2022-10-16T11:42:07.000Z</time>
      </trkpt>
      <trkpt lat="45.08584" lon="5.18362">
        <ele>159</ele>
        <time>2022-10-16T11:42:08.000Z</time>
      </trkpt>
      <trkpt lat="45.08584" lon="5.18359">
        <ele>159.2</ele>
        <time>2022-10-16T11:42:09.000Z</time>
      </trkpt>
      <trkpt lat="45.08584" lon="5.18355">
        <ele>159.4</ele>
        <time>2022-10-16T11:42:10.000Z</time>
      </trkpt>
      <trkpt lat="45.08585" lon="5.18352">
        <ele>159.6</ele>
        <time>2022-10-16T11:42:11.000Z</time>
      </trkpt>
      <trkpt lat="45.08585" lon="5.18348">
        <ele>159.8</ele>
        <time>2022-10-16T11:42:12.000Z</time>
      </trkpt>
      <trkpt lat="45.08585" lon="5.18344">
        <ele>160</ele>
        <time>2022-10-16T11:42:13.000Z</time>
      </trkpt>
      <trkpt lat="45.08585" lon="5.18341">
        <ele>160.1</ele>
        <time>2022-10-16T11:42:14.000Z</time>
      </trkpt>
      <trkpt lat="45.08586" lon="5.18338">
        <ele>160.4</ele>
        <time>2022-10-16T11:42:15.000Z</time>
      </trkpt>
      <trkpt lat="45.08586" lon="5.18334">
        <ele>160.5</ele>
        <time>2022-10-16T11:42:16.000Z</time>
      </trkpt>
      <trkpt lat="45.08586" lon="5.18331">
        <ele>160.8</ele>
        <time>2022-10-16T11:42:17.000Z</time>
      </trkpt>
      <trkpt lat="45.08586" lon="5.18328">
        <ele>161</ele>
        <time>2022-10-16T11:42:18.000Z</time>
      </trkpt>
      <trkpt lat="45.08586" lon="5.18325">
        <ele>161.2</ele>
        <time>2022-10-16T11:42:19.000Z</time>
      </trkpt>
      <trkpt lat="45.08585" lon="5.18322">
        <ele>161.1</ele>
        <time>2022-10-16T11:42:20.000Z</time>
      </trkpt>
      <trkpt lat="45.08584" lon="5.18319">
        <ele>161.1</ele>
        <time>2022-10-16T11:42:21.000Z</time>
      </trkpt>
      <trkpt lat="45.08583" lon="5.18315">
        <ele>161.2</ele>
        <time>2022-10-16T11:42:22.000Z</time>
      </trkpt>
      <trkpt lat="45.08583" lon="5.18312">
        <ele>161.4</ele>
        <time>2022-10-16T11:42:23.000Z</time>
      </trkpt>
      <trkpt lat="45.08582" lon="5.18309">
        <ele>161.4</ele>
        <time>2022-10-16T11:42:24.000Z</time>
      </trkpt>
      <trkpt lat="45.08581" lon="5.18306">
        <ele>161.4</ele>
        <time>2022-10-16T11:42:25.000Z</time>
      </trkpt>
      <trkpt lat="45.08579" lon="5.18302">
        <ele>161.2</ele>
        <time>2022-10-16T11:42:26.000Z</time>
      </trkpt>
      <trkpt lat="45.08577" lon="5.18299">
        <ele>161.1</ele>
        <time>2022-10-16T11:42:27.000Z</time>
      </trkpt>
      <trkpt lat="45.08576" lon="5.18296">
        <ele>161.1</ele>
        <time>2022-10-16T11:42:28.000Z</time>
      </trkpt>
      <trkpt lat="45.08575" lon="5.18293">
        <ele>161.2</ele>
        <time>2022-10-16T11:42:29.000Z</time>
      </trkpt>
      <trkpt lat="45.08575" lon="5.18289">
        <ele>161.3</ele>
        <time>2022-10-16T11:42:30.000Z</time>
      </trkpt>
      <trkpt lat="45.08574" lon="5.18286">
        <ele>161.4</ele>
        <time>2022-10-16T11:42:31.000Z</time>
      </trkpt>
      <trkpt lat="45.08573" lon="5.18282">
        <ele>161.4</ele>
        <time>2022-10-16T11:42:32.000Z</time>
      </trkpt>
      <trkpt lat="45.08571" lon="5.18278">
        <ele>161.4</ele>
        <time>2022-10-16T11:42:33.000Z</time>
      </trkpt>
      <trkpt lat="45.08571" lon="5.18274">
        <ele>161.7</ele>
        <time>2022-10-16T11:42:34.000Z</time>
      </trkpt>
      <trkpt lat="45.08571" lon="5.18271">
        <ele>162</ele>
        <time>2022-10-16T11:42:35.000Z</time>
      </trkpt>
      <trkpt lat="45.08571" lon="5.18267">
        <ele>162.2</ele>
        <time>2022-10-16T11:42:36.000Z</time>
      </trkpt>
      <trkpt lat="45.0857" lon="5.18263">
        <ele>162.3</ele>
        <time>2022-10-16T11:42:37.000Z</time>
      </trkpt>
      <trkpt lat="45.08569" lon="5.1826">
        <ele>162.4</ele>
        <time>2022-10-16T11:42:38.000Z</time>
      </trkpt>
      <trkpt lat="45.08568" lon="5.18257">
        <ele>162.5</ele>
        <time>2022-10-16T11:42:39.000Z</time>
      </trkpt>
      <trkpt lat="45.08567" lon="5.18253">
        <ele>162.6</ele>
        <time>2022-10-16T11:42:40.000Z</time>
      </trkpt>
      <trkpt lat="45.08566" lon="5.18249">
        <ele>162.6</ele>
        <time>2022-10-16T11:42:41.000Z</time>
      </trkpt>
      <trkpt lat="45.08565" lon="5.18245">
        <ele>162.8</ele>
        <time>2022-10-16T11:42:42.000Z</time>
      </trkpt>
      <trkpt lat="45.08564" lon="5.18242">
        <ele>163</ele>
        <time>2022-10-16T11:42:43.000Z</time>
      </trkpt>
      <trkpt lat="45.08563" lon="5.18238">
        <ele>163.1</ele>
        <time>2022-10-16T11:42:44.000Z</time>
      </trkpt>
      <trkpt lat="45.08562" lon="5.18234">
        <ele>163.2</ele>
        <time>2022-10-16T11:42:45.000Z</time>
      </trkpt>
      <trkpt lat="45.0856" lon="5.1823">
        <ele>163.4</ele>
        <time>2022-10-16T11:42:46.000Z</time>
      </trkpt>
      <trkpt lat="45.08559" lon="5.18227">
        <ele>163.4</ele>
        <time>2022-10-16T11:42:47.000Z</time>
      </trkpt>
      <trkpt lat="45.08558" lon="5.18224">
        <ele>163.5</ele>
        <time>2022-10-16T11:42:48.000Z</time>
      </trkpt>
      <trkpt lat="45.08557" lon="5.18221">
        <ele>163.6</ele>
        <time>2022-10-16T11:42:49.000Z</time>
      </trkpt>
      <trkpt lat="45.08556" lon="5.18218">
        <ele>163.8</ele>
        <time>2022-10-16T11:42:50.000Z</time>
      </trkpt>
      <trkpt lat="45.08555" lon="5.18215">
        <ele>163.9</ele>
        <time>2022-10-16T11:42:51.000Z</time>
      </trkpt>
      <trkpt lat="45.08554" lon="5.18212">
        <ele>164.1</ele>
        <time>2022-10-16T11:42:52.000Z</time>
      </trkpt>
      <trkpt lat="45.08553" lon="5.18208">
        <ele>164.3</ele>
        <time>2022-10-16T11:42:53.000Z</time>
      </trkpt>
      <trkpt lat="45.08552" lon="5.18204">
        <ele>164.5</ele>
        <time>2022-10-16T11:42:54.000Z</time>
      </trkpt>
      <trkpt lat="45.08551" lon="5.182">
        <ele>164.7</ele>
        <time>2022-10-16T11:42:55.000Z</time>
      </trkpt>
      <trkpt lat="45.08549" lon="5.18197">
        <ele>164.9</ele>
        <time>2022-10-16T11:42:56.000Z</time>
      </trkpt>
      <trkpt lat="45.08548" lon="5.18193">
        <ele>165.1</ele>
        <time>2022-10-16T11:42:57.000Z</time>
      </trkpt>
      <trkpt lat="45.08547" lon="5.18189">
        <ele>165.1</ele>
        <time>2022-10-16T11:42:58.000Z</time>
      </trkpt>
      <trkpt lat="45.08546" lon="5.18187">
        <ele>165</ele>
        <time>2022-10-16T11:42:59.000Z</time>
      </trkpt>
      <trkpt lat="45.08545" lon="5.18184">
        <ele>164.9</ele>
        <time>2022-10-16T11:43:00.000Z</time>
      </trkpt>
      <trkpt lat="45.08544" lon="5.18181">
        <ele>164.8</ele>
        <time>2022-10-16T11:43:01.000Z</time>
      </trkpt>
      <trkpt lat="45.08543" lon="5.18179">
        <ele>164.7</ele>
        <time>2022-10-16T11:43:02.000Z</time>
      </trkpt>
      <trkpt lat="45.08543" lon="5.18176">
        <ele>164.6</ele>
        <time>2022-10-16T11:43:03.000Z</time>
      </trkpt>
      <trkpt lat="45.08541" lon="5.18174">
        <ele>164.3</ele>
        <time>2022-10-16T11:43:04.000Z</time>
      </trkpt>
      <trkpt lat="45.0854" lon="5.1817">
        <ele>164.2</ele>
        <time>2022-10-16T11:43:05.000Z</time>
      </trkpt>
      <trkpt lat="45.08539" lon="5.18167">
        <ele>163.9</ele>
        <time>2022-10-16T11:43:06.000Z</time>
      </trkpt>
      <trkpt lat="45.08537" lon="5.18163">
        <ele>163.9</ele>
        <time>2022-10-16T11:43:07.000Z</time>
      </trkpt>
      <trkpt lat="45.08537" lon="5.1816">
        <ele>164.2</ele>
        <time>2022-10-16T11:43:08.000Z</time>
      </trkpt>
      <trkpt lat="45.08535" lon="5.18156">
        <ele>164.2</ele>
        <time>2022-10-16T11:43:09.000Z</time>
      </trkpt>
      <trkpt lat="45.08534" lon="5.18152">
        <ele>164.3</ele>
        <time>2022-10-16T11:43:10.000Z</time>
      </trkpt>
      <trkpt lat="45.08533" lon="5.18148">
        <ele>164.4</ele>
        <time>2022-10-16T11:43:11.000Z</time>
      </trkpt>
      <trkpt lat="45.08532" lon="5.18144">
        <ele>164.6</ele>
        <time>2022-10-16T11:43:12.000Z</time>
      </trkpt>
      <trkpt lat="45.0853" lon="5.1814">
        <ele>164.7</ele>
        <time>2022-10-16T11:43:13.000Z</time>
      </trkpt>
      <trkpt lat="45.08529" lon="5.18135">
        <ele>164.5</ele>
        <time>2022-10-16T11:43:14.000Z</time>
      </trkpt>
      <trkpt lat="45.08528" lon="5.18131">
        <ele>164.3</ele>
        <time>2022-10-16T11:43:15.000Z</time>
      </trkpt>
      <trkpt lat="45.08526" lon="5.18126">
        <ele>164.2</ele>
        <time>2022-10-16T11:43:16.000Z</time>
      </trkpt>
      <trkpt lat="45.08525" lon="5.18121">
        <ele>164.1</ele>
        <time>2022-10-16T11:43:17.000Z</time>
      </trkpt>
      <trkpt lat="45.08524" lon="5.18116">
        <ele>164.2</ele>
        <time>2022-10-16T11:43:18.000Z</time>
      </trkpt>
      <trkpt lat="45.08524" lon="5.18112">
        <ele>164.3</ele>
        <time>2022-10-16T11:43:19.000Z</time>
      </trkpt>
      <trkpt lat="45.08523" lon="5.18107">
        <ele>164.1</ele>
        <time>2022-10-16T11:43:20.000Z</time>
      </trkpt>
      <trkpt lat="45.08522" lon="5.18103">
        <ele>164</ele>
        <time>2022-10-16T11:43:21.000Z</time>
      </trkpt>
      <trkpt lat="45.0852" lon="5.18098">
        <ele>163.8</ele>
        <time>2022-10-16T11:43:22.000Z</time>
      </trkpt>
      <trkpt lat="45.08519" lon="5.18094">
        <ele>163.6</ele>
        <time>2022-10-16T11:43:23.000Z</time>
      </trkpt>
      <trkpt lat="45.08518" lon="5.18089">
        <ele>163.6</ele>
        <time>2022-10-16T11:43:24.000Z</time>
      </trkpt>
      <trkpt lat="45.08517" lon="5.18084">
        <ele>163.4</ele>
        <time>2022-10-16T11:43:25.000Z</time>
      </trkpt>
      <trkpt lat="45.08515" lon="5.1808">
        <ele>164.3</ele>
        <time>2022-10-16T11:43:26.000Z</time>
      </trkpt>
      <trkpt lat="45.08514" lon="5.18075">
        <ele>165.3</ele>
        <time>2022-10-16T11:43:27.000Z</time>
      </trkpt>
      <trkpt lat="45.08513" lon="5.18071">
        <ele>166.4</ele>
        <time>2022-10-16T11:43:28.000Z</time>
      </trkpt>
      <trkpt lat="45.08511" lon="5.18066">
        <ele>167.2</ele>
        <time>2022-10-16T11:43:29.000Z</time>
      </trkpt>
      <trkpt lat="45.08509" lon="5.18063">
        <ele>167.5</ele>
        <time>2022-10-16T11:43:30.000Z</time>
      </trkpt>
      <trkpt lat="45.08508" lon="5.18059">
        <ele>168</ele>
        <time>2022-10-16T11:43:31.000Z</time>
      </trkpt>
      <trkpt lat="45.08507" lon="5.18056">
        <ele>168.3</ele>
        <time>2022-10-16T11:43:32.000Z</time>
      </trkpt>
      <trkpt lat="45.08505" lon="5.18052">
        <ele>168.9</ele>
        <time>2022-10-16T11:43:33.000Z</time>
      </trkpt>
      <trkpt lat="45.08504" lon="5.18048">
        <ele>169.6</ele>
        <time>2022-10-16T11:43:34.000Z</time>
      </trkpt>
      <trkpt lat="45.08503" lon="5.18045">
        <ele>170.1</ele>
        <time>2022-10-16T11:43:35.000Z</time>
      </trkpt>
      <trkpt lat="45.08502" lon="5.18041">
        <ele>170.9</ele>
        <time>2022-10-16T11:43:36.000Z</time>
      </trkpt>
      <trkpt lat="45.085" lon="5.18036">
        <ele>171.6</ele>
        <time>2022-10-16T11:43:37.000Z</time>
      </trkpt>
      <trkpt lat="45.08498" lon="5.18033">
        <ele>171.8</ele>
        <time>2022-10-16T11:43:38.000Z</time>
      </trkpt>
      <trkpt lat="45.08496" lon="5.18029">
        <ele>171.9</ele>
        <time>2022-10-16T11:43:39.000Z</time>
      </trkpt>
      <trkpt lat="45.08494" lon="5.18025">
        <ele>172</ele>
        <time>2022-10-16T11:43:40.000Z</time>
      </trkpt>
      <trkpt lat="45.08492" lon="5.18021">
        <ele>171.5</ele>
        <time>2022-10-16T11:43:41.000Z</time>
      </trkpt>
      <trkpt lat="45.0849" lon="5.18018">
        <ele>171.3</ele>
        <time>2022-10-16T11:43:42.000Z</time>
      </trkpt>
      <trkpt lat="45.08488" lon="5.18015">
        <ele>170.8</ele>
        <time>2022-10-16T11:43:43.000Z</time>
      </trkpt>
      <trkpt lat="45.08486" lon="5.18012">
        <ele>170.5</ele>
        <time>2022-10-16T11:43:44.000Z</time>
      </trkpt>
      <trkpt lat="45.08484" lon="5.18008">
        <ele>170.1</ele>
        <time>2022-10-16T11:43:45.000Z</time>
      </trkpt>
      <trkpt lat="45.08482" lon="5.18004">
        <ele>169.6</ele>
        <time>2022-10-16T11:43:46.000Z</time>
      </trkpt>
      <trkpt lat="45.08479" lon="5.18001">
        <ele>168.9</ele>
        <time>2022-10-16T11:43:47.000Z</time>
      </trkpt>
      <trkpt lat="45.08477" lon="5.17998">
        <ele>168.4</ele>
        <time>2022-10-16T11:43:48.000Z</time>
      </trkpt>
      <trkpt lat="45.08476" lon="5.17994">
        <ele>168.2</ele>
        <time>2022-10-16T11:43:49.000Z</time>
      </trkpt>
      <trkpt lat="45.08473" lon="5.1799">
        <ele>167.7</ele>
        <time>2022-10-16T11:43:50.000Z</time>
      </trkpt>
      <trkpt lat="45.08472" lon="5.17986">
        <ele>167.8</ele>
        <time>2022-10-16T11:43:51.000Z</time>
      </trkpt>
      <trkpt lat="45.0847" lon="5.17982">
        <ele>168.2</ele>
        <time>2022-10-16T11:43:52.000Z</time>
      </trkpt>
      <trkpt lat="45.08469" lon="5.17977">
        <ele>169</ele>
        <time>2022-10-16T11:43:53.000Z</time>
      </trkpt>
      <trkpt lat="45.08468" lon="5.17972">
        <ele>169.4</ele>
        <time>2022-10-16T11:43:54.000Z</time>
      </trkpt>
      <trkpt lat="45.08466" lon="5.17969">
        <ele>169.9</ele>
        <time>2022-10-16T11:43:55.000Z</time>
      </trkpt>
      <trkpt lat="45.08465" lon="5.17965">
        <ele>170.5</ele>
        <time>2022-10-16T11:43:56.000Z</time>
      </trkpt>
      <trkpt lat="45.08463" lon="5.17961">
        <ele>170.7</ele>
        <time>2022-10-16T11:43:57.000Z</time>
      </trkpt>
      <trkpt lat="45.08461" lon="5.17958">
        <ele>170.8</ele>
        <time>2022-10-16T11:43:58.000Z</time>
      </trkpt>
      <trkpt lat="45.08458" lon="5.17955">
        <ele>170.7</ele>
        <time>2022-10-16T11:43:59.000Z</time>
      </trkpt>
      <trkpt lat="45.08456" lon="5.17951">
        <ele>170.7</ele>
        <time>2022-10-16T11:44:00.000Z</time>
      </trkpt>
      <trkpt lat="45.08455" lon="5.17948">
        <ele>170.8</ele>
        <time>2022-10-16T11:44:01.000Z</time>
      </trkpt>
      <trkpt lat="45.08453" lon="5.17945">
        <ele>170.9</ele>
        <time>2022-10-16T11:44:02.000Z</time>
      </trkpt>
      <trkpt lat="45.08452" lon="5.1794">
        <ele>171.7</ele>
        <time>2022-10-16T11:44:03.000Z</time>
      </trkpt>
      <trkpt lat="45.08451" lon="5.17936">
        <ele>172.2</ele>
        <time>2022-10-16T11:44:04.000Z</time>
      </trkpt>
      <trkpt lat="45.08449" lon="5.17932">
        <ele>172.5</ele>
        <time>2022-10-16T11:44:05.000Z</time>
      </trkpt>
      <trkpt lat="45.08447" lon="5.17928">
        <ele>172.9</ele>
        <time>2022-10-16T11:44:06.000Z</time>
      </trkpt>
      <trkpt lat="45.08446" lon="5.17924">
        <ele>173.4</ele>
        <time>2022-10-16T11:44:07.000Z</time>
      </trkpt>
      <trkpt lat="45.08445" lon="5.17921">
        <ele>173.9</ele>
        <time>2022-10-16T11:44:08.000Z</time>
      </trkpt>
      <trkpt lat="45.08443" lon="5.17918">
        <ele>173.8</ele>
        <time>2022-10-16T11:44:09.000Z</time>
      </trkpt>
      <trkpt lat="45.08441" lon="5.17915">
        <ele>174.1</ele>
        <time>2022-10-16T11:44:10.000Z</time>
      </trkpt>
      <trkpt lat="45.0844" lon="5.17912">
        <ele>174.3</ele>
        <time>2022-10-16T11:44:11.000Z</time>
      </trkpt>
      <trkpt lat="45.08438" lon="5.17908">
        <ele>174.4</ele>
        <time>2022-10-16T11:44:12.000Z</time>
      </trkpt>
      <trkpt lat="45.08436" lon="5.17904">
        <ele>174.4</ele>
        <time>2022-10-16T11:44:13.000Z</time>
      </trkpt>
      <trkpt lat="45.08434" lon="5.179">
        <ele>174.1</ele>
        <time>2022-10-16T11:44:14.000Z</time>
      </trkpt>
      <trkpt lat="45.08431" lon="5.17897">
        <ele>173.7</ele>
        <time>2022-10-16T11:44:15.000Z</time>
      </trkpt>
      <trkpt lat="45.08428" lon="5.17892">
        <ele>173.1</ele>
        <time>2022-10-16T11:44:16.000Z</time>
      </trkpt>
      <trkpt lat="45.08425" lon="5.17888">
        <ele>172.3</ele>
        <time>2022-10-16T11:44:17.000Z</time>
      </trkpt>
      <trkpt lat="45.08423" lon="5.17885">
        <ele>172.2</ele>
        <time>2022-10-16T11:44:18.000Z</time>
      </trkpt>
      <trkpt lat="45.08421" lon="5.17882">
        <ele>172.2</ele>
        <time>2022-10-16T11:44:19.000Z</time>
      </trkpt>
      <trkpt lat="45.08419" lon="5.17879">
        <ele>172.2</ele>
        <time>2022-10-16T11:44:20.000Z</time>
      </trkpt>
      <trkpt lat="45.08418" lon="5.17875">
        <ele>172.7</ele>
        <time>2022-10-16T11:44:21.000Z</time>
      </trkpt>
      <trkpt lat="45.08417" lon="5.17872">
        <ele>172.9</ele>
        <time>2022-10-16T11:44:22.000Z</time>
      </trkpt>
      <trkpt lat="45.08415" lon="5.17868">
        <ele>173.5</ele>
        <time>2022-10-16T11:44:23.000Z</time>
      </trkpt>
      <trkpt lat="45.08414" lon="5.17865">
        <ele>173.9</ele>
        <time>2022-10-16T11:44:24.000Z</time>
      </trkpt>
      <trkpt lat="45.08412" lon="5.17861">
        <ele>174.3</ele>
        <time>2022-10-16T11:44:25.000Z</time>
      </trkpt>
      <trkpt lat="45.0841" lon="5.17857">
        <ele>174.6</ele>
        <time>2022-10-16T11:44:26.000Z</time>
      </trkpt>
      <trkpt lat="45.08408" lon="5.17854">
        <ele>174.6</ele>
        <time>2022-10-16T11:44:27.000Z</time>
      </trkpt>
      <trkpt lat="45.08406" lon="5.1785">
        <ele>174.7</ele>
        <time>2022-10-16T11:44:28.000Z</time>
      </trkpt>
      <trkpt lat="45.08405" lon="5.17847">
        <ele>174.8</ele>
        <time>2022-10-16T11:44:29.000Z</time>
      </trkpt>
      <trkpt lat="45.08403" lon="5.17844">
        <ele>174.6</ele>
        <time>2022-10-16T11:44:30.000Z</time>
      </trkpt>
      <trkpt lat="45.084" lon="5.17841">
        <ele>174.3</ele>
        <time>2022-10-16T11:44:31.000Z</time>
      </trkpt>
      <trkpt lat="45.08398" lon="5.17838">
        <ele>174.2</ele>
        <time>2022-10-16T11:44:32.000Z</time>
      </trkpt>
      <trkpt lat="45.08396" lon="5.17834">
        <ele>174.1</ele>
        <time>2022-10-16T11:44:33.000Z</time>
      </trkpt>
      <trkpt lat="45.08394" lon="5.1783">
        <ele>174.6</ele>
        <time>2022-10-16T11:44:34.000Z</time>
      </trkpt>
      <trkpt lat="45.08392" lon="5.17827">
        <ele>174.9</ele>
        <time>2022-10-16T11:44:35.000Z</time>
      </trkpt>
      <trkpt lat="45.08389" lon="5.17824">
        <ele>174.7</ele>
        <time>2022-10-16T11:44:36.000Z</time>
      </trkpt>
      <trkpt lat="45.08386" lon="5.1782">
        <ele>174.7</ele>
        <time>2022-10-16T11:44:37.000Z</time>
      </trkpt>
      <trkpt lat="45.08384" lon="5.17817">
        <ele>174.7</ele>
        <time>2022-10-16T11:44:38.000Z</time>
      </trkpt>
      <trkpt lat="45.08381" lon="5.17815">
        <ele>174.3</ele>
        <time>2022-10-16T11:44:39.000Z</time>
      </trkpt>
      <trkpt lat="45.08378" lon="5.17812">
        <ele>174.1</ele>
        <time>2022-10-16T11:44:40.000Z</time>
      </trkpt>
      <trkpt lat="45.08376" lon="5.1781">
        <ele>173.7</ele>
        <time>2022-10-16T11:44:41.000Z</time>
      </trkpt>
      <trkpt lat="45.08372" lon="5.17807">
        <ele>172.9</ele>
        <time>2022-10-16T11:44:42.000Z</time>
      </trkpt>
      <trkpt lat="45.0837" lon="5.17804">
        <ele>172.3</ele>
        <time>2022-10-16T11:44:43.000Z</time>
      </trkpt>
      <trkpt lat="45.08367" lon="5.17801">
        <ele>172</ele>
        <time>2022-10-16T11:44:44.000Z</time>
      </trkpt>
      <trkpt lat="45.08365" lon="5.17798">
        <ele>171.5</ele>
        <time>2022-10-16T11:44:45.000Z</time>
      </trkpt>
      <trkpt lat="45.08362" lon="5.17796">
        <ele>171.1</ele>
        <time>2022-10-16T11:44:46.000Z</time>
      </trkpt>
      <trkpt lat="45.08359" lon="5.17793">
        <ele>171</ele>
        <time>2022-10-16T11:44:47.000Z</time>
      </trkpt>
      <trkpt lat="45.08357" lon="5.1779">
        <ele>171.3</ele>
        <time>2022-10-16T11:44:48.000Z</time>
      </trkpt>
      <trkpt lat="45.08354" lon="5.17788">
        <ele>171.3</ele>
        <time>2022-10-16T11:44:49.000Z</time>
      </trkpt>
      <trkpt lat="45.08352" lon="5.17786">
        <ele>171.3</ele>
        <time>2022-10-16T11:44:50.000Z</time>
      </trkpt>
      <trkpt lat="45.0835" lon="5.17783">
        <ele>171.3</ele>
        <time>2022-10-16T11:44:51.000Z</time>
      </trkpt>
      <trkpt lat="45.08347" lon="5.17781">
        <ele>171.3</ele>
        <time>2022-10-16T11:44:52.000Z</time>
      </trkpt>
      <trkpt lat="45.08344" lon="5.17778">
        <ele>171.2</ele>
        <time>2022-10-16T11:44:53.000Z</time>
      </trkpt>
      <trkpt lat="45.08342" lon="5.17775">
        <ele>171.3</ele>
        <time>2022-10-16T11:44:54.000Z</time>
      </trkpt>
      <trkpt lat="45.08339" lon="5.17773">
        <ele>171.2</ele>
        <time>2022-10-16T11:44:55.000Z</time>
      </trkpt>
      <trkpt lat="45.08337" lon="5.17771">
        <ele>171.1</ele>
        <time>2022-10-16T11:44:56.000Z</time>
      </trkpt>
      <trkpt lat="45.08333" lon="5.17769">
        <ele>170.9</ele>
        <time>2022-10-16T11:44:57.000Z</time>
      </trkpt>
      <trkpt lat="45.08331" lon="5.17765">
        <ele>171.4</ele>
        <time>2022-10-16T11:44:58.000Z</time>
      </trkpt>
      <trkpt lat="45.08328" lon="5.17762">
        <ele>171.5</ele>
        <time>2022-10-16T11:44:59.000Z</time>
      </trkpt>
      <trkpt lat="45.08325" lon="5.17758">
        <ele>171.7</ele>
        <time>2022-10-16T11:45:00.000Z</time>
      </trkpt>
      <trkpt lat="45.08323" lon="5.17755">
        <ele>172</ele>
        <time>2022-10-16T11:45:01.000Z</time>
      </trkpt>
      <trkpt lat="45.0832" lon="5.17752">
        <ele>172.1</ele>
        <time>2022-10-16T11:45:02.000Z</time>
      </trkpt>
      <trkpt lat="45.08318" lon="5.17749">
        <ele>172.2</ele>
        <time>2022-10-16T11:45:03.000Z</time>
      </trkpt>
      <trkpt lat="45.08316" lon="5.17746">
        <ele>172.2</ele>
        <time>2022-10-16T11:45:04.000Z</time>
      </trkpt>
      <trkpt lat="45.08313" lon="5.17743">
        <ele>171.7</ele>
        <time>2022-10-16T11:45:05.000Z</time>
      </trkpt>
      <trkpt lat="45.0831" lon="5.1774">
        <ele>171.2</ele>
        <time>2022-10-16T11:45:06.000Z</time>
      </trkpt>
      <trkpt lat="45.08306" lon="5.17737">
        <ele>170.5</ele>
        <time>2022-10-16T11:45:07.000Z</time>
      </trkpt>
      <trkpt lat="45.08304" lon="5.17735">
        <ele>170.2</ele>
        <time>2022-10-16T11:45:08.000Z</time>
      </trkpt>
      <trkpt lat="45.08301" lon="5.17732">
        <ele>170.2</ele>
        <time>2022-10-16T11:45:09.000Z</time>
      </trkpt>
      <trkpt lat="45.08299" lon="5.17729">
        <ele>170.1</ele>
        <time>2022-10-16T11:45:10.000Z</time>
      </trkpt>
      <trkpt lat="45.08296" lon="5.17727">
        <ele>170.1</ele>
        <time>2022-10-16T11:45:11.000Z</time>
      </trkpt>
      <trkpt lat="45.08293" lon="5.17723">
        <ele>170.1</ele>
        <time>2022-10-16T11:45:12.000Z</time>
      </trkpt>
      <trkpt lat="45.08291" lon="5.1772">
        <ele>170.4</ele>
        <time>2022-10-16T11:45:13.000Z</time>
      </trkpt>
      <trkpt lat="45.08288" lon="5.17716">
        <ele>170.7</ele>
        <time>2022-10-16T11:45:14.000Z</time>
      </trkpt>
      <trkpt lat="45.08285" lon="5.17712">
        <ele>170.7</ele>
        <time>2022-10-16T11:45:15.000Z</time>
      </trkpt>
      <trkpt lat="45.08282" lon="5.17709">
        <ele>170.4</ele>
        <time>2022-10-16T11:45:16.000Z</time>
      </trkpt>
      <trkpt lat="45.08279" lon="5.17705">
        <ele>170</ele>
        <time>2022-10-16T11:45:17.000Z</time>
      </trkpt>
      <trkpt lat="45.08276" lon="5.17702">
        <ele>169.5</ele>
        <time>2022-10-16T11:45:18.000Z</time>
      </trkpt>
      <trkpt lat="45.08273" lon="5.17698">
        <ele>169.2</ele>
        <time>2022-10-16T11:45:19.000Z</time>
      </trkpt>
      <trkpt lat="45.08271" lon="5.17695">
        <ele>169.2</ele>
        <time>2022-10-16T11:45:20.000Z</time>
      </trkpt>
      <trkpt lat="45.08268" lon="5.17691">
        <ele>169.8</ele>
        <time>2022-10-16T11:45:21.000Z</time>
      </trkpt>
      <trkpt lat="45.08266" lon="5.17687">
        <ele>170.3</ele>
        <time>2022-10-16T11:45:22.000Z</time>
      </trkpt>
      <trkpt lat="45.08264" lon="5.17683">
        <ele>170.6</ele>
        <time>2022-10-16T11:45:23.000Z</time>
      </trkpt>
      <trkpt lat="45.08262" lon="5.17679">
        <ele>170.8</ele>
        <time>2022-10-16T11:45:24.000Z</time>
      </trkpt>
      <trkpt lat="45.08259" lon="5.17676">
        <ele>170.7</ele>
        <time>2022-10-16T11:45:25.000Z</time>
      </trkpt>
      <trkpt lat="45.08257" lon="5.17673">
        <ele>170.7</ele>
        <time>2022-10-16T11:45:26.000Z</time>
      </trkpt>
      <trkpt lat="45.08255" lon="5.1767">
        <ele>170.3</ele>
        <time>2022-10-16T11:45:27.000Z</time>
      </trkpt>
      <trkpt lat="45.08253" lon="5.17666">
        <ele>170.3</ele>
        <time>2022-10-16T11:45:28.000Z</time>
      </trkpt>
      <trkpt lat="45.08251" lon="5.17662">
        <ele>171.1</ele>
        <time>2022-10-16T11:45:29.000Z</time>
      </trkpt>
      <trkpt lat="45.08249" lon="5.17659">
        <ele>171.7</ele>
        <time>2022-10-16T11:45:30.000Z</time>
      </trkpt>
      <trkpt lat="45.08246" lon="5.17656">
        <ele>172</ele>
        <time>2022-10-16T11:45:31.000Z</time>
      </trkpt>
      <trkpt lat="45.08244" lon="5.17653">
        <ele>172.4</ele>
        <time>2022-10-16T11:45:32.000Z</time>
      </trkpt>
      <trkpt lat="45.08241" lon="5.17649">
        <ele>172.6</ele>
        <time>2022-10-16T11:45:33.000Z</time>
      </trkpt>
      <trkpt lat="45.08238" lon="5.17646">
        <ele>172.9</ele>
        <time>2022-10-16T11:45:34.000Z</time>
      </trkpt>
      <trkpt lat="45.08235" lon="5.17642">
        <ele>173.1</ele>
        <time>2022-10-16T11:45:35.000Z</time>
      </trkpt>
      <trkpt lat="45.08232" lon="5.17639">
        <ele>173</ele>
        <time>2022-10-16T11:45:36.000Z</time>
      </trkpt>
      <trkpt lat="45.0823" lon="5.17635">
        <ele>173.1</ele>
        <time>2022-10-16T11:45:37.000Z</time>
      </trkpt>
      <trkpt lat="45.08228" lon="5.17632">
        <ele>173.1</ele>
        <time>2022-10-16T11:45:38.000Z</time>
      </trkpt>
      <trkpt lat="45.08225" lon="5.17629">
        <ele>172.7</ele>
        <time>2022-10-16T11:45:39.000Z</time>
      </trkpt>
      <trkpt lat="45.08222" lon="5.17625">
        <ele>172</ele>
        <time>2022-10-16T11:45:40.000Z</time>
      </trkpt>
      <trkpt lat="45.0822" lon="5.17621">
        <ele>172.1</ele>
        <time>2022-10-16T11:45:41.000Z</time>
      </trkpt>
      <trkpt lat="45.08218" lon="5.17617">
        <ele>172.5</ele>
        <time>2022-10-16T11:45:42.000Z</time>
      </trkpt>
      <trkpt lat="45.08217" lon="5.17614">
        <ele>172.8</ele>
        <time>2022-10-16T11:45:43.000Z</time>
      </trkpt>
      <trkpt lat="45.08214" lon="5.17611">
        <ele>172.9</ele>
        <time>2022-10-16T11:45:44.000Z</time>
      </trkpt>
      <trkpt lat="45.08212" lon="5.17608">
        <ele>172.8</ele>
        <time>2022-10-16T11:45:45.000Z</time>
      </trkpt>
      <trkpt lat="45.08209" lon="5.17605">
        <ele>172.7</ele>
        <time>2022-10-16T11:45:46.000Z</time>
      </trkpt>
      <trkpt lat="45.08206" lon="5.17602">
        <ele>172.3</ele>
        <time>2022-10-16T11:45:47.000Z</time>
      </trkpt>
      <trkpt lat="45.08204" lon="5.17599">
        <ele>172</ele>
        <time>2022-10-16T11:45:48.000Z</time>
      </trkpt>
      <trkpt lat="45.08202" lon="5.17596">
        <ele>171.7</ele>
        <time>2022-10-16T11:45:49.000Z</time>
      </trkpt>
      <trkpt lat="45.08199" lon="5.17592">
        <ele>171.3</ele>
        <time>2022-10-16T11:45:50.000Z</time>
      </trkpt>
      <trkpt lat="45.08197" lon="5.17588">
        <ele>170.6</ele>
        <time>2022-10-16T11:45:51.000Z</time>
      </trkpt>
      <trkpt lat="45.08194" lon="5.17585">
        <ele>169.8</ele>
        <time>2022-10-16T11:45:52.000Z</time>
      </trkpt>
      <trkpt lat="45.08191" lon="5.17581">
        <ele>170.2</ele>
        <time>2022-10-16T11:45:53.000Z</time>
      </trkpt>
      <trkpt lat="45.08189" lon="5.17578">
        <ele>171.2</ele>
        <time>2022-10-16T11:45:54.000Z</time>
      </trkpt>
      <trkpt lat="45.08186" lon="5.17575">
        <ele>171.6</ele>
        <time>2022-10-16T11:45:55.000Z</time>
      </trkpt>
      <trkpt lat="45.08183" lon="5.17573">
        <ele>171.6</ele>
        <time>2022-10-16T11:45:56.000Z</time>
      </trkpt>
      <trkpt lat="45.0818" lon="5.1757">
        <ele>171.6</ele>
        <time>2022-10-16T11:45:57.000Z</time>
      </trkpt>
      <trkpt lat="45.08178" lon="5.17567">
        <ele>172</ele>
        <time>2022-10-16T11:45:58.000Z</time>
      </trkpt>
      <trkpt lat="45.08176" lon="5.17564">
        <ele>172.1</ele>
        <time>2022-10-16T11:45:59.000Z</time>
      </trkpt>
      <trkpt lat="45.08173" lon="5.17561">
        <ele>172</ele>
        <time>2022-10-16T11:46:00.000Z</time>
      </trkpt>
      <trkpt lat="45.0817" lon="5.17557">
        <ele>172.1</ele>
        <time>2022-10-16T11:46:01.000Z</time>
      </trkpt>
      <trkpt lat="45.08168" lon="5.17554">
        <ele>171.9</ele>
        <time>2022-10-16T11:46:02.000Z</time>
      </trkpt>
      <trkpt lat="45.08165" lon="5.17551">
        <ele>171.8</ele>
        <time>2022-10-16T11:46:03.000Z</time>
      </trkpt>
      <trkpt lat="45.08163" lon="5.17547">
        <ele>172.3</ele>
        <time>2022-10-16T11:46:04.000Z</time>
      </trkpt>
      <trkpt lat="45.08161" lon="5.17543">
        <ele>172.6</ele>
        <time>2022-10-16T11:46:05.000Z</time>
      </trkpt>
      <trkpt lat="45.08159" lon="5.1754">
        <ele>172.9</ele>
        <time>2022-10-16T11:46:06.000Z</time>
      </trkpt>
      <trkpt lat="45.08156" lon="5.17537">
        <ele>173.3</ele>
        <time>2022-10-16T11:46:07.000Z</time>
      </trkpt>
      <trkpt lat="45.08154" lon="5.17534">
        <ele>173.5</ele>
        <time>2022-10-16T11:46:08.000Z</time>
      </trkpt>
      <trkpt lat="45.08151" lon="5.17531">
        <ele>173.8</ele>
        <time>2022-10-16T11:46:09.000Z</time>
      </trkpt>
      <trkpt lat="45.08149" lon="5.17527">
        <ele>174.4</ele>
        <time>2022-10-16T11:46:10.000Z</time>
      </trkpt>
      <trkpt lat="45.08147" lon="5.17524">
        <ele>175.1</ele>
        <time>2022-10-16T11:46:11.000Z</time>
      </trkpt>
      <trkpt lat="45.08145" lon="5.1752">
        <ele>175.2</ele>
        <time>2022-10-16T11:46:12.000Z</time>
      </trkpt>
      <trkpt lat="45.08143" lon="5.17517">
        <ele>174.9</ele>
        <time>2022-10-16T11:46:13.000Z</time>
      </trkpt>
      <trkpt lat="45.08141" lon="5.17514">
        <ele>174.2</ele>
        <time>2022-10-16T11:46:14.000Z</time>
      </trkpt>
      <trkpt lat="45.08139" lon="5.17511">
        <ele>173.2</ele>
        <time>2022-10-16T11:46:15.000Z</time>
      </trkpt>
      <trkpt lat="45.08137" lon="5.17507">
        <ele>172.8</ele>
        <time>2022-10-16T11:46:16.000Z</time>
      </trkpt>
      <trkpt lat="45.08134" lon="5.17504">
        <ele>172.4</ele>
        <time>2022-10-16T11:46:17.000Z</time>
      </trkpt>
      <trkpt lat="45.08132" lon="5.17501">
        <ele>172.3</ele>
        <time>2022-10-16T11:46:18.000Z</time>
      </trkpt>
      <trkpt lat="45.08129" lon="5.17498">
        <ele>172.9</ele>
        <time>2022-10-16T11:46:19.000Z</time>
      </trkpt>
      <trkpt lat="45.08127" lon="5.17495">
        <ele>173.6</ele>
        <time>2022-10-16T11:46:20.000Z</time>
      </trkpt>
      <trkpt lat="45.08125" lon="5.17491">
        <ele>174.3</ele>
        <time>2022-10-16T11:46:21.000Z</time>
      </trkpt>
      <trkpt lat="45.08124" lon="5.17488">
        <ele>174.9</ele>
        <time>2022-10-16T11:46:22.000Z</time>
      </trkpt>
      <trkpt lat="45.08122" lon="5.17484">
        <ele>175.5</ele>
        <time>2022-10-16T11:46:23.000Z</time>
      </trkpt>
      <trkpt lat="45.0812" lon="5.17481">
        <ele>175.4</ele>
        <time>2022-10-16T11:46:24.000Z</time>
      </trkpt>
      <trkpt lat="45.08119" lon="5.17478">
        <ele>175.7</ele>
        <time>2022-10-16T11:46:25.000Z</time>
      </trkpt>
      <trkpt lat="45.08117" lon="5.17475">
        <ele>175.5</ele>
        <time>2022-10-16T11:46:26.000Z</time>
      </trkpt>
      <trkpt lat="45.08115" lon="5.17471">
        <ele>175.5</ele>
        <time>2022-10-16T11:46:27.000Z</time>
      </trkpt>
      <trkpt lat="45.08114" lon="5.17468">
        <ele>175.6</ele>
        <time>2022-10-16T11:46:28.000Z</time>
      </trkpt>
      <trkpt lat="45.08112" lon="5.17465">
        <ele>175.2</ele>
        <time>2022-10-16T11:46:29.000Z</time>
      </trkpt>
      <trkpt lat="45.08111" lon="5.17462">
        <ele>175.1</ele>
        <time>2022-10-16T11:46:30.000Z</time>
      </trkpt>
      <trkpt lat="45.08109" lon="5.17459">
        <ele>175</ele>
        <time>2022-10-16T11:46:31.000Z</time>
      </trkpt>
      <trkpt lat="45.08107" lon="5.17456">
        <ele>175.1</ele>
        <time>2022-10-16T11:46:32.000Z</time>
      </trkpt>
      <trkpt lat="45.08106" lon="5.17453">
        <ele>175.4</ele>
        <time>2022-10-16T11:46:33.000Z</time>
      </trkpt>
      <trkpt lat="45.08104" lon="5.1745">
        <ele>175.7</ele>
        <time>2022-10-16T11:46:34.000Z</time>
      </trkpt>
      <trkpt lat="45.08102" lon="5.17446">
        <ele>176.1</ele>
        <time>2022-10-16T11:46:35.000Z</time>
      </trkpt>
      <trkpt lat="45.08101" lon="5.17442">
        <ele>176.9</ele>
        <time>2022-10-16T11:46:36.000Z</time>
      </trkpt>
      <trkpt lat="45.08099" lon="5.17439">
        <ele>177.9</ele>
        <time>2022-10-16T11:46:37.000Z</time>
      </trkpt>
      <trkpt lat="45.08097" lon="5.17435">
        <ele>178.2</ele>
        <time>2022-10-16T11:46:38.000Z</time>
      </trkpt>
      <trkpt lat="45.08095" lon="5.17431">
        <ele>178.7</ele>
        <time>2022-10-16T11:46:39.000Z</time>
      </trkpt>
      <trkpt lat="45.08093" lon="5.17427">
        <ele>179</ele>
        <time>2022-10-16T11:46:40.000Z</time>
      </trkpt>
      <trkpt lat="45.08091" lon="5.17423">
        <ele>179.1</ele>
        <time>2022-10-16T11:46:41.000Z</time>
      </trkpt>
      <trkpt lat="45.08089" lon="5.17419">
        <ele>178.8</ele>
        <time>2022-10-16T11:46:42.000Z</time>
      </trkpt>
      <trkpt lat="45.08087" lon="5.17416">
        <ele>178.3</ele>
        <time>2022-10-16T11:46:43.000Z</time>
      </trkpt>
      <trkpt lat="45.08085" lon="5.17412">
        <ele>177.9</ele>
        <time>2022-10-16T11:46:44.000Z</time>
      </trkpt>
      <trkpt lat="45.08083" lon="5.17408">
        <ele>177.7</ele>
        <time>2022-10-16T11:46:45.000Z</time>
      </trkpt>
      <trkpt lat="45.0808" lon="5.17405">
        <ele>177.5</ele>
        <time>2022-10-16T11:46:46.000Z</time>
      </trkpt>
      <trkpt lat="45.08078" lon="5.17402">
        <ele>177.5</ele>
        <time>2022-10-16T11:46:47.000Z</time>
      </trkpt>
      <trkpt lat="45.08076" lon="5.17398">
        <ele>177.4</ele>
        <time>2022-10-16T11:46:48.000Z</time>
      </trkpt>
      <trkpt lat="45.08074" lon="5.17395">
        <ele>177.4</ele>
        <time>2022-10-16T11:46:49.000Z</time>
      </trkpt>
      <trkpt lat="45.08072" lon="5.17391">
        <ele>177.7</ele>
        <time>2022-10-16T11:46:50.000Z</time>
      </trkpt>
      <trkpt lat="45.0807" lon="5.17387">
        <ele>177.9</ele>
        <time>2022-10-16T11:46:51.000Z</time>
      </trkpt>
      <trkpt lat="45.08069" lon="5.17383">
        <ele>178.6</ele>
        <time>2022-10-16T11:46:52.000Z</time>
      </trkpt>
      <trkpt lat="45.08067" lon="5.17379">
        <ele>178.6</ele>
        <time>2022-10-16T11:46:53.000Z</time>
      </trkpt>
      <trkpt lat="45.08065" lon="5.17375">
        <ele>178.7</ele>
        <time>2022-10-16T11:46:54.000Z</time>
      </trkpt>
      <trkpt lat="45.08064" lon="5.17372">
        <ele>178.5</ele>
        <time>2022-10-16T11:46:55.000Z</time>
      </trkpt>
      <trkpt lat="45.08062" lon="5.17368">
        <ele>178.5</ele>
        <time>2022-10-16T11:46:56.000Z</time>
      </trkpt>
      <trkpt lat="45.0806" lon="5.17365">
        <ele>178</ele>
        <time>2022-10-16T11:46:57.000Z</time>
      </trkpt>
      <trkpt lat="45.08058" lon="5.17361">
        <ele>176.8</ele>
        <time>2022-10-16T11:46:58.000Z</time>
      </trkpt>
      <trkpt lat="45.08056" lon="5.17357">
        <ele>176.5</ele>
        <time>2022-10-16T11:46:59.000Z</time>
      </trkpt>
      <trkpt lat="45.08054" lon="5.17354">
        <ele>177</ele>
        <time>2022-10-16T11:47:00.000Z</time>
      </trkpt>
      <trkpt lat="45.08051" lon="5.17351">
        <ele>176.9</ele>
        <time>2022-10-16T11:47:01.000Z</time>
      </trkpt>
      <trkpt lat="45.08049" lon="5.17348">
        <ele>177.2</ele>
        <time>2022-10-16T11:47:02.000Z</time>
      </trkpt>
      <trkpt lat="45.08046" lon="5.17345">
        <ele>177.5</ele>
        <time>2022-10-16T11:47:03.000Z</time>
      </trkpt>
      <trkpt lat="45.08044" lon="5.17342">
        <ele>177.7</ele>
        <time>2022-10-16T11:47:04.000Z</time>
      </trkpt>
      <trkpt lat="45.08041" lon="5.17339">
        <ele>178.1</ele>
        <time>2022-10-16T11:47:05.000Z</time>
      </trkpt>
      <trkpt lat="45.08039" lon="5.17336">
        <ele>178.6</ele>
        <time>2022-10-16T11:47:06.000Z</time>
      </trkpt>
      <trkpt lat="45.08037" lon="5.17333">
        <ele>178.9</ele>
        <time>2022-10-16T11:47:07.000Z</time>
      </trkpt>
      <trkpt lat="45.08035" lon="5.1733">
        <ele>178.9</ele>
        <time>2022-10-16T11:47:08.000Z</time>
      </trkpt>
      <trkpt lat="45.08033" lon="5.17327">
        <ele>178.9</ele>
        <time>2022-10-16T11:47:09.000Z</time>
      </trkpt>
      <trkpt lat="45.08032" lon="5.17324">
        <ele>179.1</ele>
        <time>2022-10-16T11:47:10.000Z</time>
      </trkpt>
      <trkpt lat="45.0803" lon="5.17322">
        <ele>179.2</ele>
        <time>2022-10-16T11:47:11.000Z</time>
      </trkpt>
      <trkpt lat="45.08029" lon="5.1732">
        <ele>179.2</ele>
        <time>2022-10-16T11:47:12.000Z</time>
      </trkpt>
      <trkpt lat="45.08027" lon="5.17318">
        <ele>179.3</ele>
        <time>2022-10-16T11:47:13.000Z</time>
      </trkpt>
      <trkpt lat="45.08025" lon="5.17316">
        <ele>179.3</ele>
        <time>2022-10-16T11:47:14.000Z</time>
      </trkpt>
      <trkpt lat="45.08023" lon="5.17313">
        <ele>179.4</ele>
        <time>2022-10-16T11:47:15.000Z</time>
      </trkpt>
      <trkpt lat="45.08021" lon="5.17311">
        <ele>179.7</ele>
        <time>2022-10-16T11:47:16.000Z</time>
      </trkpt>
      <trkpt lat="45.08019" lon="5.17309">
        <ele>179.8</ele>
        <time>2022-10-16T11:47:17.000Z</time>
      </trkpt>
      <trkpt lat="45.08018" lon="5.17307">
        <ele>180.1</ele>
        <time>2022-10-16T11:47:18.000Z</time>
      </trkpt>
      <trkpt lat="45.08016" lon="5.17305">
        <ele>180.2</ele>
        <time>2022-10-16T11:47:19.000Z</time>
      </trkpt>
      <trkpt lat="45.08014" lon="5.17302">
        <ele>180.2</ele>
        <time>2022-10-16T11:47:20.000Z</time>
      </trkpt>
      <trkpt lat="45.08013" lon="5.17301">
        <ele>180.1</ele>
        <time>2022-10-16T11:47:21.000Z</time>
      </trkpt>
      <trkpt lat="45.08011" lon="5.17298">
        <ele>180.1</ele>
        <time>2022-10-16T11:47:22.000Z</time>
      </trkpt>
      <trkpt lat="45.08009" lon="5.17296">
        <ele>180</ele>
        <time>2022-10-16T11:47:23.000Z</time>
      </trkpt>
      <trkpt lat="45.08006" lon="5.17294">
        <ele>179.9</ele>
        <time>2022-10-16T11:47:24.000Z</time>
      </trkpt>
      <trkpt lat="45.08004" lon="5.17292">
        <ele>179.8</ele>
        <time>2022-10-16T11:47:25.000Z</time>
      </trkpt>
      <trkpt lat="45.08002" lon="5.1729">
        <ele>179.8</ele>
        <time>2022-10-16T11:47:26.000Z</time>
      </trkpt>
      <trkpt lat="45.08" lon="5.17288">
        <ele>179.9</ele>
        <time>2022-10-16T11:47:27.000Z</time>
      </trkpt>
      <trkpt lat="45.07999" lon="5.17286">
        <ele>180</ele>
        <time>2022-10-16T11:47:28.000Z</time>
      </trkpt>
      <trkpt lat="45.07997" lon="5.17284">
        <ele>180</ele>
        <time>2022-10-16T11:47:29.000Z</time>
      </trkpt>
      <trkpt lat="45.07995" lon="5.17281">
        <ele>180</ele>
        <time>2022-10-16T11:47:30.000Z</time>
      </trkpt>
      <trkpt lat="45.07993" lon="5.1728">
        <ele>180</ele>
        <time>2022-10-16T11:47:31.000Z</time>
      </trkpt>
      <trkpt lat="45.07991" lon="5.17277">
        <ele>180.2</ele>
        <time>2022-10-16T11:47:32.000Z</time>
      </trkpt>
      <trkpt lat="45.0799" lon="5.17274">
        <ele>180.2</ele>
        <time>2022-10-16T11:47:33.000Z</time>
      </trkpt>
      <trkpt lat="45.07987" lon="5.17272">
        <ele>180.1</ele>
        <time>2022-10-16T11:47:34.000Z</time>
      </trkpt>
      <trkpt lat="45.07985" lon="5.1727">
        <ele>180</ele>
        <time>2022-10-16T11:47:35.000Z</time>
      </trkpt>
      <trkpt lat="45.07983" lon="5.17268">
        <ele>179.9</ele>
        <time>2022-10-16T11:47:36.000Z</time>
      </trkpt>
      <trkpt lat="45.07981" lon="5.17266">
        <ele>179.9</ele>
        <time>2022-10-16T11:47:37.000Z</time>
      </trkpt>
      <trkpt lat="45.07979" lon="5.17264">
        <ele>179.8</ele>
        <time>2022-10-16T11:47:38.000Z</time>
      </trkpt>
      <trkpt lat="45.07978" lon="5.17261">
        <ele>180</ele>
        <time>2022-10-16T11:47:39.000Z</time>
      </trkpt>
      <trkpt lat="45.07976" lon="5.17258">
        <ele>180.1</ele>
        <time>2022-10-16T11:47:40.000Z</time>
      </trkpt>
      <trkpt lat="45.07974" lon="5.17256">
        <ele>180.3</ele>
        <time>2022-10-16T11:47:41.000Z</time>
      </trkpt>
      <trkpt lat="45.07972" lon="5.17254">
        <ele>180.3</ele>
        <time>2022-10-16T11:47:42.000Z</time>
      </trkpt>
      <trkpt lat="45.0797" lon="5.17252">
        <ele>180.5</ele>
        <time>2022-10-16T11:47:43.000Z</time>
      </trkpt>
      <trkpt lat="45.07969" lon="5.1725">
        <ele>180.7</ele>
        <time>2022-10-16T11:47:44.000Z</time>
      </trkpt>
      <trkpt lat="45.07968" lon="5.17248">
        <ele>180.9</ele>
        <time>2022-10-16T11:47:45.000Z</time>
      </trkpt>
      <trkpt lat="45.07966" lon="5.17246">
        <ele>181</ele>
        <time>2022-10-16T11:47:46.000Z</time>
      </trkpt>
      <trkpt lat="45.07965" lon="5.17243">
        <ele>181.3</ele>
        <time>2022-10-16T11:47:47.000Z</time>
      </trkpt>
      <trkpt lat="45.07963" lon="5.17241">
        <ele>181.4</ele>
        <time>2022-10-16T11:47:48.000Z</time>
      </trkpt>
      <trkpt lat="45.07962" lon="5.17239">
        <ele>181.6</ele>
        <time>2022-10-16T11:47:49.000Z</time>
      </trkpt>
      <trkpt lat="45.0796" lon="5.17236">
        <ele>181.9</ele>
        <time>2022-10-16T11:47:50.000Z</time>
      </trkpt>
      <trkpt lat="45.07959" lon="5.17233">
        <ele>182.1</ele>
        <time>2022-10-16T11:47:51.000Z</time>
      </trkpt>
      <trkpt lat="45.07957" lon="5.1723">
        <ele>182.5</ele>
        <time>2022-10-16T11:47:52.000Z</time>
      </trkpt>
      <trkpt lat="45.07956" lon="5.17227">
        <ele>182.8</ele>
        <time>2022-10-16T11:47:53.000Z</time>
      </trkpt>
      <trkpt lat="45.07954" lon="5.17223">
        <ele>183.2</ele>
        <time>2022-10-16T11:47:54.000Z</time>
      </trkpt>
      <trkpt lat="45.07952" lon="5.17221">
        <ele>183.3</ele>
        <time>2022-10-16T11:47:55.000Z</time>
      </trkpt>
      <trkpt lat="45.07951" lon="5.17218">
        <ele>183.3</ele>
        <time>2022-10-16T11:47:56.000Z</time>
      </trkpt>
      <trkpt lat="45.0795" lon="5.17215">
        <ele>183.3</ele>
        <time>2022-10-16T11:47:57.000Z</time>
      </trkpt>
      <trkpt lat="45.07948" lon="5.17212">
        <ele>183.2</ele>
        <time>2022-10-16T11:47:58.000Z</time>
      </trkpt>
      <trkpt lat="45.07947" lon="5.17208">
        <ele>183.2</ele>
        <time>2022-10-16T11:47:59.000Z</time>
      </trkpt>
      <trkpt lat="45.07946" lon="5.17205">
        <ele>183.1</ele>
        <time>2022-10-16T11:48:00.000Z</time>
      </trkpt>
      <trkpt lat="45.07944" lon="5.17202">
        <ele>183</ele>
        <time>2022-10-16T11:48:01.000Z</time>
      </trkpt>
      <trkpt lat="45.07942" lon="5.17199">
        <ele>183</ele>
        <time>2022-10-16T11:48:02.000Z</time>
      </trkpt>
      <trkpt lat="45.07941" lon="5.17196">
        <ele>183</ele>
        <time>2022-10-16T11:48:03.000Z</time>
      </trkpt>
      <trkpt lat="45.07939" lon="5.17192">
        <ele>183.2</ele>
        <time>2022-10-16T11:48:04.000Z</time>
      </trkpt>
      <trkpt lat="45.07938" lon="5.17189">
        <ele>183.5</ele>
        <time>2022-10-16T11:48:05.000Z</time>
      </trkpt>
      <trkpt lat="45.07936" lon="5.17185">
        <ele>183.8</ele>
        <time>2022-10-16T11:48:06.000Z</time>
      </trkpt>
      <trkpt lat="45.07935" lon="5.17182">
        <ele>184</ele>
        <time>2022-10-16T11:48:07.000Z</time>
      </trkpt>
      <trkpt lat="45.07933" lon="5.1718">
        <ele>184.2</ele>
        <time>2022-10-16T11:48:08.000Z</time>
      </trkpt>
      <trkpt lat="45.07931" lon="5.17177">
        <ele>184.3</ele>
        <time>2022-10-16T11:48:09.000Z</time>
      </trkpt>
      <trkpt lat="45.0793" lon="5.17174">
        <ele>184.5</ele>
        <time>2022-10-16T11:48:10.000Z</time>
      </trkpt>
      <trkpt lat="45.07929" lon="5.1717">
        <ele>184.6</ele>
        <time>2022-10-16T11:48:11.000Z</time>
      </trkpt>
      <trkpt lat="45.07927" lon="5.17167">
        <ele>184.7</ele>
        <time>2022-10-16T11:48:12.000Z</time>
      </trkpt>
      <trkpt lat="45.07924" lon="5.17164">
        <ele>184.6</ele>
        <time>2022-10-16T11:48:13.000Z</time>
      </trkpt>
      <trkpt lat="45.07923" lon="5.17161">
        <ele>184.6</ele>
        <time>2022-10-16T11:48:14.000Z</time>
      </trkpt>
      <trkpt lat="45.07921" lon="5.17158">
        <ele>184.6</ele>
        <time>2022-10-16T11:48:15.000Z</time>
      </trkpt>
      <trkpt lat="45.0792" lon="5.17154">
        <ele>184.6</ele>
        <time>2022-10-16T11:48:16.000Z</time>
      </trkpt>
      <trkpt lat="45.07918" lon="5.17151">
        <ele>184.6</ele>
        <time>2022-10-16T11:48:17.000Z</time>
      </trkpt>
      <trkpt lat="45.07917" lon="5.17148">
        <ele>184.7</ele>
        <time>2022-10-16T11:48:18.000Z</time>
      </trkpt>
      <trkpt lat="45.07916" lon="5.17145">
        <ele>184.7</ele>
        <time>2022-10-16T11:48:19.000Z</time>
      </trkpt>
      <trkpt lat="45.07914" lon="5.17142">
        <ele>184.8</ele>
        <time>2022-10-16T11:48:20.000Z</time>
      </trkpt>
      <trkpt lat="45.07913" lon="5.17139">
        <ele>184.9</ele>
        <time>2022-10-16T11:48:21.000Z</time>
      </trkpt>
      <trkpt lat="45.07911" lon="5.17136">
        <ele>184.8</ele>
        <time>2022-10-16T11:48:22.000Z</time>
      </trkpt>
      <trkpt lat="45.0791" lon="5.17133">
        <ele>184.8</ele>
        <time>2022-10-16T11:48:23.000Z</time>
      </trkpt>
      <trkpt lat="45.07908" lon="5.17131">
        <ele>184.8</ele>
        <time>2022-10-16T11:48:24.000Z</time>
      </trkpt>
      <trkpt lat="45.07906" lon="5.17128">
        <ele>184.8</ele>
        <time>2022-10-16T11:48:25.000Z</time>
      </trkpt>
      <trkpt lat="45.07905" lon="5.17125">
        <ele>184.8</ele>
        <time>2022-10-16T11:48:26.000Z</time>
      </trkpt>
      <trkpt lat="45.07903" lon="5.17123">
        <ele>184.8</ele>
        <time>2022-10-16T11:48:27.000Z</time>
      </trkpt>
      <trkpt lat="45.07901" lon="5.1712">
        <ele>184.8</ele>
        <time>2022-10-16T11:48:28.000Z</time>
      </trkpt>
      <trkpt lat="45.079" lon="5.17116">
        <ele>184.9</ele>
        <time>2022-10-16T11:48:29.000Z</time>
      </trkpt>
      <trkpt lat="45.07898" lon="5.17112">
        <ele>185</ele>
        <time>2022-10-16T11:48:30.000Z</time>
      </trkpt>
      <trkpt lat="45.07897" lon="5.17109">
        <ele>185.1</ele>
        <time>2022-10-16T11:48:31.000Z</time>
      </trkpt>
      <trkpt lat="45.07895" lon="5.17105">
        <ele>185.1</ele>
        <time>2022-10-16T11:48:32.000Z</time>
      </trkpt>
      <trkpt lat="45.07893" lon="5.17102">
        <ele>185.1</ele>
        <time>2022-10-16T11:48:33.000Z</time>
      </trkpt>
      <trkpt lat="45.07892" lon="5.17098">
        <ele>185.1</ele>
        <time>2022-10-16T11:48:34.000Z</time>
      </trkpt>
      <trkpt lat="45.0789" lon="5.17094">
        <ele>185</ele>
        <time>2022-10-16T11:48:35.000Z</time>
      </trkpt>
      <trkpt lat="45.07888" lon="5.17091">
        <ele>185</ele>
        <time>2022-10-16T11:48:36.000Z</time>
      </trkpt>
      <trkpt lat="45.07887" lon="5.17087">
        <ele>184.9</ele>
        <time>2022-10-16T11:48:37.000Z</time>
      </trkpt>
      <trkpt lat="45.07885" lon="5.17084">
        <ele>184.9</ele>
        <time>2022-10-16T11:48:38.000Z</time>
      </trkpt>
      <trkpt lat="45.07884" lon="5.1708">
        <ele>184.9</ele>
        <time>2022-10-16T11:48:39.000Z</time>
      </trkpt>
      <trkpt lat="45.07882" lon="5.17077">
        <ele>185</ele>
        <time>2022-10-16T11:48:40.000Z</time>
      </trkpt>
      <trkpt lat="45.0788" lon="5.17073">
        <ele>185.1</ele>
        <time>2022-10-16T11:48:41.000Z</time>
      </trkpt>
      <trkpt lat="45.07878" lon="5.1707">
        <ele>185.1</ele>
        <time>2022-10-16T11:48:42.000Z</time>
      </trkpt>
      <trkpt lat="45.07876" lon="5.17067">
        <ele>185.1</ele>
        <time>2022-10-16T11:48:43.000Z</time>
      </trkpt>
      <trkpt lat="45.07875" lon="5.17064">
        <ele>185.2</ele>
        <time>2022-10-16T11:48:44.000Z</time>
      </trkpt>
      <trkpt lat="45.07874" lon="5.17059">
        <ele>185.3</ele>
        <time>2022-10-16T11:48:45.000Z</time>
      </trkpt>
      <trkpt lat="45.07873" lon="5.17055">
        <ele>185.4</ele>
        <time>2022-10-16T11:48:46.000Z</time>
      </trkpt>
      <trkpt lat="45.07872" lon="5.17052">
        <ele>185.4</ele>
        <time>2022-10-16T11:48:47.000Z</time>
      </trkpt>
      <trkpt lat="45.0787" lon="5.1705">
        <ele>185.3</ele>
        <time>2022-10-16T11:48:48.000Z</time>
      </trkpt>
      <trkpt lat="45.07869" lon="5.17047">
        <ele>185.3</ele>
        <time>2022-10-16T11:48:50.000Z</time>
      </trkpt>
      <trkpt lat="45.07868" lon="5.17043">
        <ele>185.3</ele>
        <time>2022-10-16T11:48:51.000Z</time>
      </trkpt>
      <trkpt lat="45.07867" lon="5.17039">
        <ele>185.2</ele>
        <time>2022-10-16T11:48:52.000Z</time>
      </trkpt>
      <trkpt lat="45.07866" lon="5.17035">
        <ele>185.2</ele>
        <time>2022-10-16T11:48:53.000Z</time>
      </trkpt>
      <trkpt lat="45.07864" lon="5.17032">
        <ele>185.1</ele>
        <time>2022-10-16T11:48:54.000Z</time>
      </trkpt>
      <trkpt lat="45.07862" lon="5.17029">
        <ele>185</ele>
        <time>2022-10-16T11:48:55.000Z</time>
      </trkpt>
      <trkpt lat="45.0786" lon="5.17025">
        <ele>185.1</ele>
        <time>2022-10-16T11:48:56.000Z</time>
      </trkpt>
      <trkpt lat="45.07858" lon="5.17022">
        <ele>185.1</ele>
        <time>2022-10-16T11:48:57.000Z</time>
      </trkpt>
      <trkpt lat="45.07857" lon="5.17019">
        <ele>185.2</ele>
        <time>2022-10-16T11:48:58.000Z</time>
      </trkpt>
      <trkpt lat="45.07856" lon="5.17015">
        <ele>185.3</ele>
        <time>2022-10-16T11:48:59.000Z</time>
      </trkpt>
      <trkpt lat="45.07855" lon="5.17011">
        <ele>185.4</ele>
        <time>2022-10-16T11:49:00.000Z</time>
      </trkpt>
      <trkpt lat="45.07854" lon="5.17007">
        <ele>185.5</ele>
        <time>2022-10-16T11:49:01.000Z</time>
      </trkpt>
      <trkpt lat="45.07853" lon="5.17004">
        <ele>185.6</ele>
        <time>2022-10-16T11:49:02.000Z</time>
      </trkpt>
      <trkpt lat="45.07852" lon="5.17001">
        <ele>185.6</ele>
        <time>2022-10-16T11:49:03.000Z</time>
      </trkpt>
      <trkpt lat="45.07851" lon="5.16997">
        <ele>185.6</ele>
        <time>2022-10-16T11:49:04.000Z</time>
      </trkpt>
      <trkpt lat="45.0785" lon="5.16993">
        <ele>185.6</ele>
        <time>2022-10-16T11:49:05.000Z</time>
      </trkpt>
      <trkpt lat="45.07849" lon="5.16989">
        <ele>185.6</ele>
        <time>2022-10-16T11:49:06.000Z</time>
      </trkpt>
      <trkpt lat="45.07848" lon="5.16985">
        <ele>185.5</ele>
        <time>2022-10-16T11:49:07.000Z</time>
      </trkpt>
      <trkpt lat="45.07847" lon="5.16981">
        <ele>185.5</ele>
        <time>2022-10-16T11:49:08.000Z</time>
      </trkpt>
      <trkpt lat="45.07846" lon="5.16977">
        <ele>185.4</ele>
        <time>2022-10-16T11:49:09.000Z</time>
      </trkpt>
      <trkpt lat="45.07845" lon="5.16973">
        <ele>185.4</ele>
        <time>2022-10-16T11:49:10.000Z</time>
      </trkpt>
      <trkpt lat="45.07843" lon="5.16969">
        <ele>185.4</ele>
        <time>2022-10-16T11:49:11.000Z</time>
      </trkpt>
      <trkpt lat="45.07842" lon="5.16965">
        <ele>185.5</ele>
        <time>2022-10-16T11:49:12.000Z</time>
      </trkpt>
      <trkpt lat="45.0784" lon="5.16961">
        <ele>185.6</ele>
        <time>2022-10-16T11:49:13.000Z</time>
      </trkpt>
      <trkpt lat="45.07838" lon="5.16956">
        <ele>185.7</ele>
        <time>2022-10-16T11:49:14.000Z</time>
      </trkpt>
      <trkpt lat="45.07837" lon="5.16952">
        <ele>185.8</ele>
        <time>2022-10-16T11:49:15.000Z</time>
      </trkpt>
      <trkpt lat="45.07835" lon="5.16948">
        <ele>185.9</ele>
        <time>2022-10-16T11:49:16.000Z</time>
      </trkpt>
      <trkpt lat="45.07834" lon="5.16944">
        <ele>186</ele>
        <time>2022-10-16T11:49:17.000Z</time>
      </trkpt>
      <trkpt lat="45.07832" lon="5.16941">
        <ele>186</ele>
        <time>2022-10-16T11:49:18.000Z</time>
      </trkpt>
      <trkpt lat="45.07831" lon="5.16936">
        <ele>185.9</ele>
        <time>2022-10-16T11:49:19.000Z</time>
      </trkpt>
      <trkpt lat="45.07829" lon="5.16932">
        <ele>185.8</ele>
        <time>2022-10-16T11:49:20.000Z</time>
      </trkpt>
      <trkpt lat="45.07827" lon="5.16928">
        <ele>185.8</ele>
        <time>2022-10-16T11:49:21.000Z</time>
      </trkpt>
      <trkpt lat="45.07824" lon="5.16925">
        <ele>185.7</ele>
        <time>2022-10-16T11:49:22.000Z</time>
      </trkpt>
      <trkpt lat="45.07823" lon="5.16922">
        <ele>185.6</ele>
        <time>2022-10-16T11:49:23.000Z</time>
      </trkpt>
      <trkpt lat="45.07822" lon="5.16918">
        <ele>185.6</ele>
        <time>2022-10-16T11:49:24.000Z</time>
      </trkpt>
      <trkpt lat="45.07821" lon="5.16915">
        <ele>185.6</ele>
        <time>2022-10-16T11:49:25.000Z</time>
      </trkpt>
      <trkpt lat="45.0782" lon="5.16912">
        <ele>185.6</ele>
        <time>2022-10-16T11:49:26.000Z</time>
      </trkpt>
      <trkpt lat="45.07819" lon="5.16908">
        <ele>185.6</ele>
        <time>2022-10-16T11:49:27.000Z</time>
      </trkpt>
      <trkpt lat="45.07818" lon="5.16904">
        <ele>185.7</ele>
        <time>2022-10-16T11:49:28.000Z</time>
      </trkpt>
      <trkpt lat="45.07818" lon="5.169">
        <ele>185.8</ele>
        <time>2022-10-16T11:49:29.000Z</time>
      </trkpt>
      <trkpt lat="45.07817" lon="5.16896">
        <ele>185.8</ele>
        <time>2022-10-16T11:49:30.000Z</time>
      </trkpt>
      <trkpt lat="45.07816" lon="5.16892">
        <ele>185.9</ele>
        <time>2022-10-16T11:49:31.000Z</time>
      </trkpt>
      <trkpt lat="45.07814" lon="5.16888">
        <ele>186</ele>
        <time>2022-10-16T11:49:32.000Z</time>
      </trkpt>
      <trkpt lat="45.07812" lon="5.16884">
        <ele>186</ele>
        <time>2022-10-16T11:49:33.000Z</time>
      </trkpt>
      <trkpt lat="45.07811" lon="5.1688">
        <ele>186.1</ele>
        <time>2022-10-16T11:49:34.000Z</time>
      </trkpt>
      <trkpt lat="45.07811" lon="5.16876">
        <ele>186.1</ele>
        <time>2022-10-16T11:49:35.000Z</time>
      </trkpt>
      <trkpt lat="45.07811" lon="5.16872">
        <ele>186.1</ele>
        <time>2022-10-16T11:49:36.000Z</time>
      </trkpt>
      <trkpt lat="45.07812" lon="5.16869">
        <ele>186.2</ele>
        <time>2022-10-16T11:49:37.000Z</time>
      </trkpt>
      <trkpt lat="45.07812" lon="5.16865">
        <ele>186.2</ele>
        <time>2022-10-16T11:49:38.000Z</time>
      </trkpt>
      <trkpt lat="45.07813" lon="5.16862">
        <ele>186.3</ele>
        <time>2022-10-16T11:49:39.000Z</time>
      </trkpt>
      <trkpt lat="45.07814" lon="5.1686">
        <ele>186.3</ele>
        <time>2022-10-16T11:49:40.000Z</time>
      </trkpt>
      <trkpt lat="45.07815" lon="5.16856">
        <ele>186.3</ele>
        <time>2022-10-16T11:49:41.000Z</time>
      </trkpt>
      <trkpt lat="45.07815" lon="5.16853">
        <ele>186.3</ele>
        <time>2022-10-16T11:49:42.000Z</time>
      </trkpt>
      <trkpt lat="45.07814" lon="5.1685">
        <ele>186.3</ele>
        <time>2022-10-16T11:49:43.000Z</time>
      </trkpt>
      <trkpt lat="45.07814" lon="5.16846">
        <ele>186.3</ele>
        <time>2022-10-16T11:49:44.000Z</time>
      </trkpt>
      <trkpt lat="45.07814" lon="5.16843">
        <ele>186.3</ele>
        <time>2022-10-16T11:49:45.000Z</time>
      </trkpt>
      <trkpt lat="45.07814" lon="5.1684">
        <ele>186.3</ele>
        <time>2022-10-16T11:49:46.000Z</time>
      </trkpt>
      <trkpt lat="45.07814" lon="5.16837">
        <ele>186.3</ele>
        <time>2022-10-16T11:49:47.000Z</time>
      </trkpt>
      <trkpt lat="45.07814" lon="5.16834">
        <ele>186.3</ele>
        <time>2022-10-16T11:49:48.000Z</time>
      </trkpt>
      <trkpt lat="45.07813" lon="5.1683">
        <ele>186.3</ele>
        <time>2022-10-16T11:49:49.000Z</time>
      </trkpt>
      <trkpt lat="45.07812" lon="5.16827">
        <ele>186.2</ele>
        <time>2022-10-16T11:49:50.000Z</time>
      </trkpt>
      <trkpt lat="45.07811" lon="5.16823">
        <ele>186.2</ele>
        <time>2022-10-16T11:49:51.000Z</time>
      </trkpt>
      <trkpt lat="45.07811" lon="5.1682">
        <ele>186.2</ele>
        <time>2022-10-16T11:49:52.000Z</time>
      </trkpt>
      <trkpt lat="45.0781" lon="5.16816">
        <ele>186.2</ele>
        <time>2022-10-16T11:49:53.000Z</time>
      </trkpt>
      <trkpt lat="45.07809" lon="5.16811">
        <ele>186.1</ele>
        <time>2022-10-16T11:49:54.000Z</time>
      </trkpt>
      <trkpt lat="45.07808" lon="5.16806">
        <ele>186.1</ele>
        <time>2022-10-16T11:49:55.000Z</time>
      </trkpt>
      <trkpt lat="45.07806" lon="5.16801">
        <ele>185.9</ele>
        <time>2022-10-16T11:49:56.000Z</time>
      </trkpt>
      <trkpt lat="45.07805" lon="5.16796">
        <ele>185.7</ele>
        <time>2022-10-16T11:49:57.000Z</time>
      </trkpt>
      <trkpt lat="45.07805" lon="5.16791">
        <ele>185.5</ele>
        <time>2022-10-16T11:49:58.000Z</time>
      </trkpt>
      <trkpt lat="45.07804" lon="5.16785">
        <ele>185.4</ele>
        <time>2022-10-16T11:49:59.000Z</time>
      </trkpt>
      <trkpt lat="45.07804" lon="5.1678">
        <ele>185.2</ele>
        <time>2022-10-16T11:50:00.000Z</time>
      </trkpt>
      <trkpt lat="45.07804" lon="5.16775">
        <ele>185.1</ele>
        <time>2022-10-16T11:50:01.000Z</time>
      </trkpt>
      <trkpt lat="45.07804" lon="5.16771">
        <ele>185.1</ele>
        <time>2022-10-16T11:50:02.000Z</time>
      </trkpt>
      <trkpt lat="45.07805" lon="5.16766">
        <ele>185</ele>
        <time>2022-10-16T11:50:03.000Z</time>
      </trkpt>
      <trkpt lat="45.07806" lon="5.16761">
        <ele>185</ele>
        <time>2022-10-16T11:50:04.000Z</time>
      </trkpt>
      <trkpt lat="45.07807" lon="5.16757">
        <ele>185.1</ele>
        <time>2022-10-16T11:50:05.000Z</time>
      </trkpt>
      <trkpt lat="45.07808" lon="5.16753">
        <ele>185.2</ele>
        <time>2022-10-16T11:50:06.000Z</time>
      </trkpt>
      <trkpt lat="45.07808" lon="5.1675">
        <ele>185.3</ele>
        <time>2022-10-16T11:50:07.000Z</time>
      </trkpt>
      <trkpt lat="45.07808" lon="5.16746">
        <ele>185.5</ele>
        <time>2022-10-16T11:50:08.000Z</time>
      </trkpt>
      <trkpt lat="45.07807" lon="5.1674">
        <ele>185.9</ele>
        <time>2022-10-16T11:50:09.000Z</time>
      </trkpt>
      <trkpt lat="45.07806" lon="5.16735">
        <ele>186.1</ele>
        <time>2022-10-16T11:50:10.000Z</time>
      </trkpt>
      <trkpt lat="45.07805" lon="5.1673">
        <ele>186.4</ele>
        <time>2022-10-16T11:50:11.000Z</time>
      </trkpt>
      <trkpt lat="45.07804" lon="5.16726">
        <ele>186.7</ele>
        <time>2022-10-16T11:50:12.000Z</time>
      </trkpt>
      <trkpt lat="45.07803" lon="5.16721">
        <ele>186.9</ele>
        <time>2022-10-16T11:50:13.000Z</time>
      </trkpt>
      <trkpt lat="45.07803" lon="5.16717">
        <ele>186.9</ele>
        <time>2022-10-16T11:50:14.000Z</time>
      </trkpt>
      <trkpt lat="45.07802" lon="5.16713">
        <ele>186.9</ele>
        <time>2022-10-16T11:50:15.000Z</time>
      </trkpt>
      <trkpt lat="45.07802" lon="5.1671">
        <ele>186.9</ele>
        <time>2022-10-16T11:50:16.000Z</time>
      </trkpt>
      <trkpt lat="45.07802" lon="5.16705">
        <ele>186.9</ele>
        <time>2022-10-16T11:50:17.000Z</time>
      </trkpt>
      <trkpt lat="45.07802" lon="5.16701">
        <ele>186.9</ele>
        <time>2022-10-16T11:50:18.000Z</time>
      </trkpt>
      <trkpt lat="45.07801" lon="5.16696">
        <ele>186.8</ele>
        <time>2022-10-16T11:50:19.000Z</time>
      </trkpt>
      <trkpt lat="45.07801" lon="5.16691">
        <ele>186.8</ele>
        <time>2022-10-16T11:50:20.000Z</time>
      </trkpt>
      <trkpt lat="45.078" lon="5.16687">
        <ele>186.8</ele>
        <time>2022-10-16T11:50:21.000Z</time>
      </trkpt>
      <trkpt lat="45.07799" lon="5.16683">
        <ele>186.8</ele>
        <time>2022-10-16T11:50:22.000Z</time>
      </trkpt>
      <trkpt lat="45.07799" lon="5.16679">
        <ele>186.8</ele>
        <time>2022-10-16T11:50:23.000Z</time>
      </trkpt>
      <trkpt lat="45.07799" lon="5.16675">
        <ele>186.7</ele>
        <time>2022-10-16T11:50:24.000Z</time>
      </trkpt>
      <trkpt lat="45.07799" lon="5.16671">
        <ele>186.8</ele>
        <time>2022-10-16T11:50:25.000Z</time>
      </trkpt>
      <trkpt lat="45.078" lon="5.16667">
        <ele>186.8</ele>
        <time>2022-10-16T11:50:26.000Z</time>
      </trkpt>
      <trkpt lat="45.07802" lon="5.16663">
        <ele>186.8</ele>
        <time>2022-10-16T11:50:27.000Z</time>
      </trkpt>
      <trkpt lat="45.07803" lon="5.1666">
        <ele>186.7</ele>
        <time>2022-10-16T11:50:28.000Z</time>
      </trkpt>
      <trkpt lat="45.07805" lon="5.16656">
        <ele>186.6</ele>
        <time>2022-10-16T11:50:29.000Z</time>
      </trkpt>
      <trkpt lat="45.07806" lon="5.16654">
        <ele>186.6</ele>
        <time>2022-10-16T11:50:30.000Z</time>
      </trkpt>
      <trkpt lat="45.07808" lon="5.16653">
        <ele>186.5</ele>
        <time>2022-10-16T11:50:31.000Z</time>
      </trkpt>
      <trkpt lat="45.07809" lon="5.1665">
        <ele>186.4</ele>
        <time>2022-10-16T11:50:32.000Z</time>
      </trkpt>
      <trkpt lat="45.0781" lon="5.16646">
        <ele>186.3</ele>
        <time>2022-10-16T11:50:33.000Z</time>
      </trkpt>
      <trkpt lat="45.0781" lon="5.16643">
        <ele>186.2</ele>
        <time>2022-10-16T11:50:34.000Z</time>
      </trkpt>
      <trkpt lat="45.0781" lon="5.16639">
        <ele>186</ele>
        <time>2022-10-16T11:50:35.000Z</time>
      </trkpt>
      <trkpt lat="45.0781" lon="5.16635">
        <ele>186.1</ele>
        <time>2022-10-16T11:50:36.000Z</time>
      </trkpt>
      <trkpt lat="45.0781" lon="5.16632">
        <ele>186.3</ele>
        <time>2022-10-16T11:50:37.000Z</time>
      </trkpt>
      <trkpt lat="45.0781" lon="5.16629">
        <ele>186.4</ele>
        <time>2022-10-16T11:50:38.000Z</time>
      </trkpt>
      <trkpt lat="45.0781" lon="5.16625">
        <ele>186.6</ele>
        <time>2022-10-16T11:50:39.000Z</time>
      </trkpt>
      <trkpt lat="45.0781" lon="5.16621">
        <ele>186.7</ele>
        <time>2022-10-16T11:50:40.000Z</time>
      </trkpt>
      <trkpt lat="45.07809" lon="5.16617">
        <ele>186.9</ele>
        <time>2022-10-16T11:50:41.000Z</time>
      </trkpt>
      <trkpt lat="45.07809" lon="5.16613">
        <ele>187</ele>
        <time>2022-10-16T11:50:42.000Z</time>
      </trkpt>
      <trkpt lat="45.07808" lon="5.16609">
        <ele>187.1</ele>
        <time>2022-10-16T11:50:43.000Z</time>
      </trkpt>
      <trkpt lat="45.07807" lon="5.16606">
        <ele>187.1</ele>
        <time>2022-10-16T11:50:44.000Z</time>
      </trkpt>
      <trkpt lat="45.07807" lon="5.16602">
        <ele>187</ele>
        <time>2022-10-16T11:50:45.000Z</time>
      </trkpt>
      <trkpt lat="45.07806" lon="5.16599">
        <ele>187</ele>
        <time>2022-10-16T11:50:46.000Z</time>
      </trkpt>
      <trkpt lat="45.07805" lon="5.16596">
        <ele>187</ele>
        <time>2022-10-16T11:50:47.000Z</time>
      </trkpt>
      <trkpt lat="45.07804" lon="5.16593">
        <ele>187</ele>
        <time>2022-10-16T11:50:48.000Z</time>
      </trkpt>
      <trkpt lat="45.07803" lon="5.16589">
        <ele>187.1</ele>
        <time>2022-10-16T11:50:49.000Z</time>
      </trkpt>
      <trkpt lat="45.07802" lon="5.16586">
        <ele>187.1</ele>
        <time>2022-10-16T11:50:50.000Z</time>
      </trkpt>
      <trkpt lat="45.07802" lon="5.16582">
        <ele>187.2</ele>
        <time>2022-10-16T11:50:51.000Z</time>
      </trkpt>
      <trkpt lat="45.07801" lon="5.16579">
        <ele>187.5</ele>
        <time>2022-10-16T11:50:52.000Z</time>
      </trkpt>
      <trkpt lat="45.07799" lon="5.16575">
        <ele>187.7</ele>
        <time>2022-10-16T11:50:53.000Z</time>
      </trkpt>
      <trkpt lat="45.07799" lon="5.16572">
        <ele>187.9</ele>
        <time>2022-10-16T11:50:54.000Z</time>
      </trkpt>
      <trkpt lat="45.07798" lon="5.16569">
        <ele>188</ele>
        <time>2022-10-16T11:50:55.000Z</time>
      </trkpt>
      <trkpt lat="45.07798" lon="5.16565">
        <ele>188.2</ele>
        <time>2022-10-16T11:50:56.000Z</time>
      </trkpt>
      <trkpt lat="45.07797" lon="5.16562">
        <ele>188.4</ele>
        <time>2022-10-16T11:50:57.000Z</time>
      </trkpt>
      <trkpt lat="45.07797" lon="5.16559">
        <ele>188.5</ele>
        <time>2022-10-16T11:50:58.000Z</time>
      </trkpt>
      <trkpt lat="45.07797" lon="5.16555">
        <ele>188.7</ele>
        <time>2022-10-16T11:50:59.000Z</time>
      </trkpt>
      <trkpt lat="45.07797" lon="5.16552">
        <ele>188.7</ele>
        <time>2022-10-16T11:51:00.000Z</time>
      </trkpt>
      <trkpt lat="45.07797" lon="5.16549">
        <ele>188.7</ele>
        <time>2022-10-16T11:51:01.000Z</time>
      </trkpt>
      <trkpt lat="45.07797" lon="5.16546">
        <ele>188.7</ele>
        <time>2022-10-16T11:51:02.000Z</time>
      </trkpt>
      <trkpt lat="45.07797" lon="5.16543">
        <ele>188.7</ele>
        <time>2022-10-16T11:51:03.000Z</time>
      </trkpt>
      <trkpt lat="45.07797" lon="5.16539">
        <ele>188.7</ele>
        <time>2022-10-16T11:51:04.000Z</time>
      </trkpt>
      <trkpt lat="45.07797" lon="5.16536">
        <ele>188.7</ele>
        <time>2022-10-16T11:51:05.000Z</time>
      </trkpt>
      <trkpt lat="45.07797" lon="5.16532">
        <ele>188.7</ele>
        <time>2022-10-16T11:51:06.000Z</time>
      </trkpt>
      <trkpt lat="45.07798" lon="5.16527">
        <ele>188.7</ele>
        <time>2022-10-16T11:51:07.000Z</time>
      </trkpt>
      <trkpt lat="45.07798" lon="5.16524">
        <ele>188.7</ele>
        <time>2022-10-16T11:51:08.000Z</time>
      </trkpt>
      <trkpt lat="45.07799" lon="5.1652">
        <ele>188.8</ele>
        <time>2022-10-16T11:51:09.000Z</time>
      </trkpt>
      <trkpt lat="45.07799" lon="5.16516">
        <ele>188.8</ele>
        <time>2022-10-16T11:51:10.000Z</time>
      </trkpt>
      <trkpt lat="45.07799" lon="5.16513">
        <ele>188.8</ele>
        <time>2022-10-16T11:51:11.000Z</time>
      </trkpt>
      <trkpt lat="45.07799" lon="5.16509">
        <ele>188.8</ele>
        <time>2022-10-16T11:51:12.000Z</time>
      </trkpt>
      <trkpt lat="45.07799" lon="5.16505">
        <ele>188.8</ele>
        <time>2022-10-16T11:51:13.000Z</time>
      </trkpt>
      <trkpt lat="45.07798" lon="5.16501">
        <ele>188.7</ele>
        <time>2022-10-16T11:51:14.000Z</time>
      </trkpt>
      <trkpt lat="45.07798" lon="5.16498">
        <ele>188.8</ele>
        <time>2022-10-16T11:51:15.000Z</time>
      </trkpt>
      <trkpt lat="45.07798" lon="5.16494">
        <ele>188.9</ele>
        <time>2022-10-16T11:51:16.000Z</time>
      </trkpt>
      <trkpt lat="45.07798" lon="5.16491">
        <ele>189.1</ele>
        <time>2022-10-16T11:51:17.000Z</time>
      </trkpt>
      <trkpt lat="45.07798" lon="5.16487">
        <ele>189.2</ele>
        <time>2022-10-16T11:51:18.000Z</time>
      </trkpt>
      <trkpt lat="45.07799" lon="5.16483">
        <ele>189.4</ele>
        <time>2022-10-16T11:51:19.000Z</time>
      </trkpt>
      <trkpt lat="45.07799" lon="5.16479">
        <ele>189.5</ele>
        <time>2022-10-16T11:51:20.000Z</time>
      </trkpt>
      <trkpt lat="45.07799" lon="5.16475">
        <ele>189.7</ele>
        <time>2022-10-16T11:51:21.000Z</time>
      </trkpt>
      <trkpt lat="45.078" lon="5.16471">
        <ele>189.8</ele>
        <time>2022-10-16T11:51:22.000Z</time>
      </trkpt>
      <trkpt lat="45.078" lon="5.16467">
        <ele>189.8</ele>
        <time>2022-10-16T11:51:23.000Z</time>
      </trkpt>
      <trkpt lat="45.07799" lon="5.16463">
        <ele>189.8</ele>
        <time>2022-10-16T11:51:24.000Z</time>
      </trkpt>
      <trkpt lat="45.07799" lon="5.16458">
        <ele>189.8</ele>
        <time>2022-10-16T11:51:25.000Z</time>
      </trkpt>
      <trkpt lat="45.07799" lon="5.16454">
        <ele>189.7</ele>
        <time>2022-10-16T11:51:26.000Z</time>
      </trkpt>
      <trkpt lat="45.07799" lon="5.16449">
        <ele>189.7</ele>
        <time>2022-10-16T11:51:27.000Z</time>
      </trkpt>
      <trkpt lat="45.07799" lon="5.16445">
        <ele>189.7</ele>
        <time>2022-10-16T11:51:28.000Z</time>
      </trkpt>
      <trkpt lat="45.07799" lon="5.16441">
        <ele>189.9</ele>
        <time>2022-10-16T11:51:29.000Z</time>
      </trkpt>
      <trkpt lat="45.07799" lon="5.16437">
        <ele>190</ele>
        <time>2022-10-16T11:51:30.000Z</time>
      </trkpt>
      <trkpt lat="45.07799" lon="5.16432">
        <ele>190.2</ele>
        <time>2022-10-16T11:51:31.000Z</time>
      </trkpt>
      <trkpt lat="45.07798" lon="5.16429">
        <ele>190.3</ele>
        <time>2022-10-16T11:51:32.000Z</time>
      </trkpt>
      <trkpt lat="45.07798" lon="5.16425">
        <ele>190.4</ele>
        <time>2022-10-16T11:51:33.000Z</time>
      </trkpt>
      <trkpt lat="45.07798" lon="5.1642">
        <ele>190.6</ele>
        <time>2022-10-16T11:51:34.000Z</time>
      </trkpt>
      <trkpt lat="45.07798" lon="5.16416">
        <ele>190.7</ele>
        <time>2022-10-16T11:51:35.000Z</time>
      </trkpt>
      <trkpt lat="45.07798" lon="5.16413">
        <ele>190.7</ele>
        <time>2022-10-16T11:51:36.000Z</time>
      </trkpt>
      <trkpt lat="45.07798" lon="5.16408">
        <ele>190.7</ele>
        <time>2022-10-16T11:51:37.000Z</time>
      </trkpt>
      <trkpt lat="45.07797" lon="5.16403">
        <ele>190.7</ele>
        <time>2022-10-16T11:51:38.000Z</time>
      </trkpt>
      <trkpt lat="45.07797" lon="5.16399">
        <ele>190.7</ele>
        <time>2022-10-16T11:51:39.000Z</time>
      </trkpt>
      <trkpt lat="45.07797" lon="5.16396">
        <ele>190.7</ele>
        <time>2022-10-16T11:51:40.000Z</time>
      </trkpt>
      <trkpt lat="45.07796" lon="5.16392">
        <ele>190.7</ele>
        <time>2022-10-16T11:51:41.000Z</time>
      </trkpt>
      <trkpt lat="45.07796" lon="5.16388">
        <ele>190.7</ele>
        <time>2022-10-16T11:51:42.000Z</time>
      </trkpt>
      <trkpt lat="45.07797" lon="5.16384">
        <ele>190.8</ele>
        <time>2022-10-16T11:51:43.000Z</time>
      </trkpt>
      <trkpt lat="45.07797" lon="5.1638">
        <ele>190.9</ele>
        <time>2022-10-16T11:51:44.000Z</time>
      </trkpt>
      <trkpt lat="45.07796" lon="5.16377">
        <ele>191</ele>
        <time>2022-10-16T11:51:45.000Z</time>
      </trkpt>
      <trkpt lat="45.07797" lon="5.16373">
        <ele>191.1</ele>
        <time>2022-10-16T11:51:46.000Z</time>
      </trkpt>
      <trkpt lat="45.07797" lon="5.1637">
        <ele>191.2</ele>
        <time>2022-10-16T11:51:47.000Z</time>
      </trkpt>
      <trkpt lat="45.07797" lon="5.16366">
        <ele>191.2</ele>
        <time>2022-10-16T11:51:48.000Z</time>
      </trkpt>
      <trkpt lat="45.07797" lon="5.16362">
        <ele>191.3</ele>
        <time>2022-10-16T11:51:49.000Z</time>
      </trkpt>
      <trkpt lat="45.07797" lon="5.16357">
        <ele>191.3</ele>
        <time>2022-10-16T11:51:50.000Z</time>
      </trkpt>
      <trkpt lat="45.07796" lon="5.16353">
        <ele>191.3</ele>
        <time>2022-10-16T11:51:51.000Z</time>
      </trkpt>
      <trkpt lat="45.07796" lon="5.16348">
        <ele>191.3</ele>
        <time>2022-10-16T11:51:52.000Z</time>
      </trkpt>
      <trkpt lat="45.07797" lon="5.16343">
        <ele>191.3</ele>
        <time>2022-10-16T11:51:53.000Z</time>
      </trkpt>
      <trkpt lat="45.07797" lon="5.16339">
        <ele>191.3</ele>
        <time>2022-10-16T11:51:54.000Z</time>
      </trkpt>
      <trkpt lat="45.07797" lon="5.16335">
        <ele>191.4</ele>
        <time>2022-10-16T11:51:55.000Z</time>
      </trkpt>
      <trkpt lat="45.07797" lon="5.16331">
        <ele>191.4</ele>
        <time>2022-10-16T11:51:56.000Z</time>
      </trkpt>
      <trkpt lat="45.07798" lon="5.16327">
        <ele>191.4</ele>
        <time>2022-10-16T11:51:57.000Z</time>
      </trkpt>
      <trkpt lat="45.07798" lon="5.16323">
        <ele>191.4</ele>
        <time>2022-10-16T11:51:58.000Z</time>
      </trkpt>
      <trkpt lat="45.07798" lon="5.16318">
        <ele>191.4</ele>
        <time>2022-10-16T11:51:59.000Z</time>
      </trkpt>
      <trkpt lat="45.07798" lon="5.16313">
        <ele>191.4</ele>
        <time>2022-10-16T11:52:00.000Z</time>
      </trkpt>
      <trkpt lat="45.07797" lon="5.16308">
        <ele>191.4</ele>
        <time>2022-10-16T11:52:01.000Z</time>
      </trkpt>
      <trkpt lat="45.07797" lon="5.16303">
        <ele>191.4</ele>
        <time>2022-10-16T11:52:02.000Z</time>
      </trkpt>
      <trkpt lat="45.07797" lon="5.16298">
        <ele>191.6</ele>
        <time>2022-10-16T11:52:03.000Z</time>
      </trkpt>
      <trkpt lat="45.07796" lon="5.16293">
        <ele>191.6</ele>
        <time>2022-10-16T11:52:04.000Z</time>
      </trkpt>
      <trkpt lat="45.07796" lon="5.16289">
        <ele>191.7</ele>
        <time>2022-10-16T11:52:05.000Z</time>
      </trkpt>
      <trkpt lat="45.07796" lon="5.16284">
        <ele>191.8</ele>
        <time>2022-10-16T11:52:06.000Z</time>
      </trkpt>
      <trkpt lat="45.07796" lon="5.16279">
        <ele>191.9</ele>
        <time>2022-10-16T11:52:07.000Z</time>
      </trkpt>
      <trkpt lat="45.07796" lon="5.16275">
        <ele>192.1</ele>
        <time>2022-10-16T11:52:08.000Z</time>
      </trkpt>
      <trkpt lat="45.07796" lon="5.1627">
        <ele>192.3</ele>
        <time>2022-10-16T11:52:09.000Z</time>
      </trkpt>
      <trkpt lat="45.07795" lon="5.16265">
        <ele>192.4</ele>
        <time>2022-10-16T11:52:10.000Z</time>
      </trkpt>
      <trkpt lat="45.07795" lon="5.16261">
        <ele>192.6</ele>
        <time>2022-10-16T11:52:11.000Z</time>
      </trkpt>
      <trkpt lat="45.07795" lon="5.16255">
        <ele>192.8</ele>
        <time>2022-10-16T11:52:12.000Z</time>
      </trkpt>
      <trkpt lat="45.07794" lon="5.1625">
        <ele>192.9</ele>
        <time>2022-10-16T11:52:13.000Z</time>
      </trkpt>
      <trkpt lat="45.07793" lon="5.16245">
        <ele>192.8</ele>
        <time>2022-10-16T11:52:14.000Z</time>
      </trkpt>
      <trkpt lat="45.07792" lon="5.16241">
        <ele>192.6</ele>
        <time>2022-10-16T11:52:15.000Z</time>
      </trkpt>
      <trkpt lat="45.07792" lon="5.16236">
        <ele>192.5</ele>
        <time>2022-10-16T11:52:16.000Z</time>
      </trkpt>
      <trkpt lat="45.07791" lon="5.16231">
        <ele>192.4</ele>
        <time>2022-10-16T11:52:17.000Z</time>
      </trkpt>
      <trkpt lat="45.0779" lon="5.16226">
        <ele>192.3</ele>
        <time>2022-10-16T11:52:18.000Z</time>
      </trkpt>
      <trkpt lat="45.0779" lon="5.16221">
        <ele>192.3</ele>
        <time>2022-10-16T11:52:19.000Z</time>
      </trkpt>
      <trkpt lat="45.07789" lon="5.16215">
        <ele>192.3</ele>
        <time>2022-10-16T11:52:20.000Z</time>
      </trkpt>
      <trkpt lat="45.07789" lon="5.1621">
        <ele>192.3</ele>
        <time>2022-10-16T11:52:21.000Z</time>
      </trkpt>
      <trkpt lat="45.07788" lon="5.16205">
        <ele>192.3</ele>
        <time>2022-10-16T11:52:22.000Z</time>
      </trkpt>
      <trkpt lat="45.07788" lon="5.16199">
        <ele>192.4</ele>
        <time>2022-10-16T11:52:23.000Z</time>
      </trkpt>
      <trkpt lat="45.07787" lon="5.16194">
        <ele>192.3</ele>
        <time>2022-10-16T11:52:24.000Z</time>
      </trkpt>
      <trkpt lat="45.07786" lon="5.16189">
        <ele>192.4</ele>
        <time>2022-10-16T11:52:25.000Z</time>
      </trkpt>
      <trkpt lat="45.07786" lon="5.16183">
        <ele>192.6</ele>
        <time>2022-10-16T11:52:26.000Z</time>
      </trkpt>
      <trkpt lat="45.07786" lon="5.16178">
        <ele>192.7</ele>
        <time>2022-10-16T11:52:27.000Z</time>
      </trkpt>
      <trkpt lat="45.07785" lon="5.16173">
        <ele>192.8</ele>
        <time>2022-10-16T11:52:28.000Z</time>
      </trkpt>
      <trkpt lat="45.07784" lon="5.16168">
        <ele>192.9</ele>
        <time>2022-10-16T11:52:29.000Z</time>
      </trkpt>
      <trkpt lat="45.07783" lon="5.16163">
        <ele>192.8</ele>
        <time>2022-10-16T11:52:30.000Z</time>
      </trkpt>
      <trkpt lat="45.07782" lon="5.16158">
        <ele>192.8</ele>
        <time>2022-10-16T11:52:31.000Z</time>
      </trkpt>
      <trkpt lat="45.0778" lon="5.16154">
        <ele>192.8</ele>
        <time>2022-10-16T11:52:32.000Z</time>
      </trkpt>
      <trkpt lat="45.07779" lon="5.16148">
        <ele>192.9</ele>
        <time>2022-10-16T11:52:33.000Z</time>
      </trkpt>
      <trkpt lat="45.07778" lon="5.16143">
        <ele>192.8</ele>
        <time>2022-10-16T11:52:34.000Z</time>
      </trkpt>
      <trkpt lat="45.07777" lon="5.16138">
        <ele>192.9</ele>
        <time>2022-10-16T11:52:35.000Z</time>
      </trkpt>
      <trkpt lat="45.07776" lon="5.16133">
        <ele>192.8</ele>
        <time>2022-10-16T11:52:36.000Z</time>
      </trkpt>
      <trkpt lat="45.07774" lon="5.16128">
        <ele>192.7</ele>
        <time>2022-10-16T11:52:37.000Z</time>
      </trkpt>
      <trkpt lat="45.07773" lon="5.16123">
        <ele>192.6</ele>
        <time>2022-10-16T11:52:38.000Z</time>
      </trkpt>
      <trkpt lat="45.07772" lon="5.16118">
        <ele>192.5</ele>
        <time>2022-10-16T11:52:39.000Z</time>
      </trkpt>
      <trkpt lat="45.07772" lon="5.16113">
        <ele>192.5</ele>
        <time>2022-10-16T11:52:40.000Z</time>
      </trkpt>
      <trkpt lat="45.07772" lon="5.16109">
        <ele>192.6</ele>
        <time>2022-10-16T11:52:41.000Z</time>
      </trkpt>
      <trkpt lat="45.07773" lon="5.16105">
        <ele>192.6</ele>
        <time>2022-10-16T11:52:42.000Z</time>
      </trkpt>
      <trkpt lat="45.07774" lon="5.16102">
        <ele>192.7</ele>
        <time>2022-10-16T11:52:43.000Z</time>
      </trkpt>
      <trkpt lat="45.07775" lon="5.16098">
        <ele>192.8</ele>
        <time>2022-10-16T11:52:44.000Z</time>
      </trkpt>
      <trkpt lat="45.07776" lon="5.16095">
        <ele>192.8</ele>
        <time>2022-10-16T11:52:45.000Z</time>
      </trkpt>
      <trkpt lat="45.07777" lon="5.16091">
        <ele>192.9</ele>
        <time>2022-10-16T11:52:46.000Z</time>
      </trkpt>
      <trkpt lat="45.07778" lon="5.16087">
        <ele>193.1</ele>
        <time>2022-10-16T11:52:47.000Z</time>
      </trkpt>
      <trkpt lat="45.0778" lon="5.16084">
        <ele>193.3</ele>
        <time>2022-10-16T11:52:48.000Z</time>
      </trkpt>
      <trkpt lat="45.07781" lon="5.1608">
        <ele>193.6</ele>
        <time>2022-10-16T11:52:49.000Z</time>
      </trkpt>
      <trkpt lat="45.07782" lon="5.16076">
        <ele>194</ele>
        <time>2022-10-16T11:52:50.000Z</time>
      </trkpt>
      <trkpt lat="45.07784" lon="5.16073">
        <ele>194.3</ele>
        <time>2022-10-16T11:52:51.000Z</time>
      </trkpt>
      <trkpt lat="45.07785" lon="5.16069">
        <ele>194.6</ele>
        <time>2022-10-16T11:52:52.000Z</time>
      </trkpt>
      <trkpt lat="45.07786" lon="5.16065">
        <ele>194.9</ele>
        <time>2022-10-16T11:52:53.000Z</time>
      </trkpt>
      <trkpt lat="45.07786" lon="5.16062">
        <ele>195.1</ele>
        <time>2022-10-16T11:52:54.000Z</time>
      </trkpt>
      <trkpt lat="45.07787" lon="5.16059">
        <ele>195.3</ele>
        <time>2022-10-16T11:52:55.000Z</time>
      </trkpt>
      <trkpt lat="45.07788" lon="5.16056">
        <ele>195.4</ele>
        <time>2022-10-16T11:52:56.000Z</time>
      </trkpt>
      <trkpt lat="45.07789" lon="5.16052">
        <ele>195.6</ele>
        <time>2022-10-16T11:52:57.000Z</time>
      </trkpt>
      <trkpt lat="45.0779" lon="5.16048">
        <ele>195.7</ele>
        <time>2022-10-16T11:52:58.000Z</time>
      </trkpt>
      <trkpt lat="45.07791" lon="5.16044">
        <ele>195.9</ele>
        <time>2022-10-16T11:52:59.000Z</time>
      </trkpt>
      <trkpt lat="45.07792" lon="5.1604">
        <ele>196</ele>
        <time>2022-10-16T11:53:00.000Z</time>
      </trkpt>
      <trkpt lat="45.07793" lon="5.16036">
        <ele>196.2</ele>
        <time>2022-10-16T11:53:01.000Z</time>
      </trkpt>
      <trkpt lat="45.07794" lon="5.16031">
        <ele>196.4</ele>
        <time>2022-10-16T11:53:02.000Z</time>
      </trkpt>
      <trkpt lat="45.07795" lon="5.16028">
        <ele>196.5</ele>
        <time>2022-10-16T11:53:03.000Z</time>
      </trkpt>
      <trkpt lat="45.07796" lon="5.16024">
        <ele>196.7</ele>
        <time>2022-10-16T11:53:04.000Z</time>
      </trkpt>
      <trkpt lat="45.07798" lon="5.1602">
        <ele>196.8</ele>
        <time>2022-10-16T11:53:05.000Z</time>
      </trkpt>
      <trkpt lat="45.07799" lon="5.16016">
        <ele>197.1</ele>
        <time>2022-10-16T11:53:06.000Z</time>
      </trkpt>
      <trkpt lat="45.078" lon="5.16012">
        <ele>197.2</ele>
        <time>2022-10-16T11:53:07.000Z</time>
      </trkpt>
      <trkpt lat="45.078" lon="5.16008">
        <ele>197.2</ele>
        <time>2022-10-16T11:53:08.000Z</time>
      </trkpt>
      <trkpt lat="45.07801" lon="5.16003">
        <ele>197.3</ele>
        <time>2022-10-16T11:53:09.000Z</time>
      </trkpt>
      <trkpt lat="45.07802" lon="5.15999">
        <ele>197.4</ele>
        <time>2022-10-16T11:53:10.000Z</time>
      </trkpt>
      <trkpt lat="45.07803" lon="5.15995">
        <ele>197.4</ele>
        <time>2022-10-16T11:53:11.000Z</time>
      </trkpt>
      <trkpt lat="45.07804" lon="5.15991">
        <ele>197.4</ele>
        <time>2022-10-16T11:53:12.000Z</time>
      </trkpt>
      <trkpt lat="45.07805" lon="5.15988">
        <ele>197.5</ele>
        <time>2022-10-16T11:53:13.000Z</time>
      </trkpt>
      <trkpt lat="45.07807" lon="5.15985">
        <ele>197.6</ele>
        <time>2022-10-16T11:53:14.000Z</time>
      </trkpt>
      <trkpt lat="45.07808" lon="5.15981">
        <ele>197.6</ele>
        <time>2022-10-16T11:53:15.000Z</time>
      </trkpt>
      <trkpt lat="45.0781" lon="5.15977">
        <ele>197.6</ele>
        <time>2022-10-16T11:53:16.000Z</time>
      </trkpt>
      <trkpt lat="45.07811" lon="5.15972">
        <ele>197.6</ele>
        <time>2022-10-16T11:53:17.000Z</time>
      </trkpt>
      <trkpt lat="45.07812" lon="5.15968">
        <ele>197.4</ele>
        <time>2022-10-16T11:53:18.000Z</time>
      </trkpt>
      <trkpt lat="45.07813" lon="5.15963">
        <ele>197.3</ele>
        <time>2022-10-16T11:53:19.000Z</time>
      </trkpt>
      <trkpt lat="45.07814" lon="5.15958">
        <ele>197.1</ele>
        <time>2022-10-16T11:53:20.000Z</time>
      </trkpt>
      <trkpt lat="45.07815" lon="5.15954">
        <ele>196.9</ele>
        <time>2022-10-16T11:53:21.000Z</time>
      </trkpt>
      <trkpt lat="45.07816" lon="5.15949">
        <ele>196.7</ele>
        <time>2022-10-16T11:53:22.000Z</time>
      </trkpt>
      <trkpt lat="45.07817" lon="5.15944">
        <ele>196.6</ele>
        <time>2022-10-16T11:53:23.000Z</time>
      </trkpt>
      <trkpt lat="45.07818" lon="5.15939">
        <ele>196.8</ele>
        <time>2022-10-16T11:53:24.000Z</time>
      </trkpt>
      <trkpt lat="45.0782" lon="5.15935">
        <ele>197</ele>
        <time>2022-10-16T11:53:25.000Z</time>
      </trkpt>
      <trkpt lat="45.07821" lon="5.1593">
        <ele>197.2</ele>
        <time>2022-10-16T11:53:26.000Z</time>
      </trkpt>
      <trkpt lat="45.07822" lon="5.15926">
        <ele>197.3</ele>
        <time>2022-10-16T11:53:27.000Z</time>
      </trkpt>
      <trkpt lat="45.07823" lon="5.15922">
        <ele>197.5</ele>
        <time>2022-10-16T11:53:28.000Z</time>
      </trkpt>
      <trkpt lat="45.07824" lon="5.15917">
        <ele>197.6</ele>
        <time>2022-10-16T11:53:29.000Z</time>
      </trkpt>
      <trkpt lat="45.07825" lon="5.15912">
        <ele>197.6</ele>
        <time>2022-10-16T11:53:30.000Z</time>
      </trkpt>
      <trkpt lat="45.07826" lon="5.15908">
        <ele>197.6</ele>
        <time>2022-10-16T11:53:31.000Z</time>
      </trkpt>
      <trkpt lat="45.07826" lon="5.15903">
        <ele>197.6</ele>
        <time>2022-10-16T11:53:32.000Z</time>
      </trkpt>
      <trkpt lat="45.07827" lon="5.15899">
        <ele>197.6</ele>
        <time>2022-10-16T11:53:33.000Z</time>
      </trkpt>
      <trkpt lat="45.07829" lon="5.15894">
        <ele>197.6</ele>
        <time>2022-10-16T11:53:34.000Z</time>
      </trkpt>
      <trkpt lat="45.0783" lon="5.15889">
        <ele>197.6</ele>
        <time>2022-10-16T11:53:35.000Z</time>
      </trkpt>
      <trkpt lat="45.07831" lon="5.15884">
        <ele>197.8</ele>
        <time>2022-10-16T11:53:36.000Z</time>
      </trkpt>
      <trkpt lat="45.07833" lon="5.1588">
        <ele>197.9</ele>
        <time>2022-10-16T11:53:37.000Z</time>
      </trkpt>
      <trkpt lat="45.07834" lon="5.15875">
        <ele>198.1</ele>
        <time>2022-10-16T11:53:38.000Z</time>
      </trkpt>
      <trkpt lat="45.07835" lon="5.15871">
        <ele>198.2</ele>
        <time>2022-10-16T11:53:39.000Z</time>
      </trkpt>
      <trkpt lat="45.07835" lon="5.15865">
        <ele>198.2</ele>
        <time>2022-10-16T11:53:40.000Z</time>
      </trkpt>
      <trkpt lat="45.07835" lon="5.1586">
        <ele>198.1</ele>
        <time>2022-10-16T11:53:41.000Z</time>
      </trkpt>
      <trkpt lat="45.07836" lon="5.15855">
        <ele>197.7</ele>
        <time>2022-10-16T11:53:42.000Z</time>
      </trkpt>
      <trkpt lat="45.07837" lon="5.15851">
        <ele>197.4</ele>
        <time>2022-10-16T11:53:43.000Z</time>
      </trkpt>
      <trkpt lat="45.07838" lon="5.15847">
        <ele>197.1</ele>
        <time>2022-10-16T11:53:44.000Z</time>
      </trkpt>
      <trkpt lat="45.07841" lon="5.15842">
        <ele>196.9</ele>
        <time>2022-10-16T11:53:45.000Z</time>
      </trkpt>
      <trkpt lat="45.07844" lon="5.15839">
        <ele>197</ele>
        <time>2022-10-16T11:53:46.000Z</time>
      </trkpt>
      <trkpt lat="45.07845" lon="5.15835">
        <ele>196.9</ele>
        <time>2022-10-16T11:53:47.000Z</time>
      </trkpt>
      <trkpt lat="45.07846" lon="5.15833">
        <ele>196.9</ele>
        <time>2022-10-16T11:53:48.000Z</time>
      </trkpt>
      <trkpt lat="45.07848" lon="5.1583">
        <ele>197</ele>
        <time>2022-10-16T11:53:49.000Z</time>
      </trkpt>
      <trkpt lat="45.07845" lon="5.15816">
        <ele>196.7</ele>
        <time>2022-10-16T11:53:50.000Z</time>
      </trkpt>
      <trkpt lat="45.07847" lon="5.15812">
        <ele>196.9</ele>
        <time>2022-10-16T11:53:51.000Z</time>
      </trkpt>
      <trkpt lat="45.07847" lon="5.15809">
        <ele>196.9</ele>
        <time>2022-10-16T11:53:52.000Z</time>
      </trkpt>
      <trkpt lat="45.07842" lon="5.15805">
        <ele>196.3</ele>
        <time>2022-10-16T11:53:53.000Z</time>
      </trkpt>
      <trkpt lat="45.07843" lon="5.15801">
        <ele>196.5</ele>
        <time>2022-10-16T11:53:54.000Z</time>
      </trkpt>
      <trkpt lat="45.07844" lon="5.15798">
        <ele>196.7</ele>
        <time>2022-10-16T11:53:55.000Z</time>
      </trkpt>
      <trkpt lat="45.07845" lon="5.15794">
        <ele>197</ele>
        <time>2022-10-16T11:53:56.000Z</time>
      </trkpt>
      <trkpt lat="45.07848" lon="5.1579">
        <ele>197.3</ele>
        <time>2022-10-16T11:53:57.000Z</time>
      </trkpt>
      <trkpt lat="45.0785" lon="5.15787">
        <ele>197.6</ele>
        <time>2022-10-16T11:53:58.000Z</time>
      </trkpt>
      <trkpt lat="45.07852" lon="5.15783">
        <ele>197.9</ele>
        <time>2022-10-16T11:53:59.000Z</time>
      </trkpt>
      <trkpt lat="45.07855" lon="5.15778">
        <ele>198.4</ele>
        <time>2022-10-16T11:54:00.000Z</time>
      </trkpt>
      <trkpt lat="45.07858" lon="5.15774">
        <ele>198.5</ele>
        <time>2022-10-16T11:54:01.000Z</time>
      </trkpt>
      <trkpt lat="45.0786" lon="5.15771">
        <ele>198.6</ele>
        <time>2022-10-16T11:54:02.000Z</time>
      </trkpt>
      <trkpt lat="45.07861" lon="5.15768">
        <ele>198.6</ele>
        <time>2022-10-16T11:54:03.000Z</time>
      </trkpt>
      <trkpt lat="45.07863" lon="5.15764">
        <ele>198.8</ele>
        <time>2022-10-16T11:54:05.000Z</time>
      </trkpt>
      <trkpt lat="45.07865" lon="5.15761">
        <ele>198.8</ele>
        <time>2022-10-16T11:54:06.000Z</time>
      </trkpt>
      <trkpt lat="45.07866" lon="5.15757">
        <ele>198.9</ele>
        <time>2022-10-16T11:54:07.000Z</time>
      </trkpt>
      <trkpt lat="45.07867" lon="5.15753">
        <ele>199</ele>
        <time>2022-10-16T11:54:08.000Z</time>
      </trkpt>
      <trkpt lat="45.07868" lon="5.15749">
        <ele>199</ele>
        <time>2022-10-16T11:54:09.000Z</time>
      </trkpt>
      <trkpt lat="45.07869" lon="5.15745">
        <ele>199</ele>
        <time>2022-10-16T11:54:10.000Z</time>
      </trkpt>
      <trkpt lat="45.0787" lon="5.15741">
        <ele>199</ele>
        <time>2022-10-16T11:54:11.000Z</time>
      </trkpt>
      <trkpt lat="45.0787" lon="5.15737">
        <ele>199</ele>
        <time>2022-10-16T11:54:12.000Z</time>
      </trkpt>
      <trkpt lat="45.07872" lon="5.15733">
        <ele>199</ele>
        <time>2022-10-16T11:54:13.000Z</time>
      </trkpt>
      <trkpt lat="45.07872" lon="5.15729">
        <ele>199</ele>
        <time>2022-10-16T11:54:14.000Z</time>
      </trkpt>
      <trkpt lat="45.07874" lon="5.15724">
        <ele>199</ele>
        <time>2022-10-16T11:54:15.000Z</time>
      </trkpt>
      <trkpt lat="45.07875" lon="5.15721">
        <ele>198.9</ele>
        <time>2022-10-16T11:54:16.000Z</time>
      </trkpt>
      <trkpt lat="45.07876" lon="5.15717">
        <ele>198.9</ele>
        <time>2022-10-16T11:54:17.000Z</time>
      </trkpt>
      <trkpt lat="45.07876" lon="5.15713">
        <ele>198.9</ele>
        <time>2022-10-16T11:54:18.000Z</time>
      </trkpt>
      <trkpt lat="45.07877" lon="5.15708">
        <ele>198.9</ele>
        <time>2022-10-16T11:54:19.000Z</time>
      </trkpt>
      <trkpt lat="45.07877" lon="5.15704">
        <ele>198.9</ele>
        <time>2022-10-16T11:54:20.000Z</time>
      </trkpt>
      <trkpt lat="45.07878" lon="5.157">
        <ele>198.9</ele>
        <time>2022-10-16T11:54:21.000Z</time>
      </trkpt>
      <trkpt lat="45.07878" lon="5.15697">
        <ele>198.9</ele>
        <time>2022-10-16T11:54:22.000Z</time>
      </trkpt>
      <trkpt lat="45.07879" lon="5.15693">
        <ele>198.9</ele>
        <time>2022-10-16T11:54:23.000Z</time>
      </trkpt>
      <trkpt lat="45.07879" lon="5.15689">
        <ele>198.9</ele>
        <time>2022-10-16T11:54:24.000Z</time>
      </trkpt>
      <trkpt lat="45.0788" lon="5.15685">
        <ele>199</ele>
        <time>2022-10-16T11:54:25.000Z</time>
      </trkpt>
      <trkpt lat="45.0788" lon="5.15681">
        <ele>199</ele>
        <time>2022-10-16T11:54:26.000Z</time>
      </trkpt>
      <trkpt lat="45.07881" lon="5.15677">
        <ele>199.1</ele>
        <time>2022-10-16T11:54:27.000Z</time>
      </trkpt>
      <trkpt lat="45.07881" lon="5.15673">
        <ele>199.1</ele>
        <time>2022-10-16T11:54:28.000Z</time>
      </trkpt>
      <trkpt lat="45.07882" lon="5.15669">
        <ele>199.2</ele>
        <time>2022-10-16T11:54:29.000Z</time>
      </trkpt>
      <trkpt lat="45.07882" lon="5.15665">
        <ele>199.3</ele>
        <time>2022-10-16T11:54:30.000Z</time>
      </trkpt>
      <trkpt lat="45.07883" lon="5.15662">
        <ele>199.4</ele>
        <time>2022-10-16T11:54:31.000Z</time>
      </trkpt>
      <trkpt lat="45.07883" lon="5.15658">
        <ele>199.5</ele>
        <time>2022-10-16T11:54:32.000Z</time>
      </trkpt>
      <trkpt lat="45.07884" lon="5.15654">
        <ele>199.5</ele>
        <time>2022-10-16T11:54:33.000Z</time>
      </trkpt>
      <trkpt lat="45.07884" lon="5.1565">
        <ele>199.6</ele>
        <time>2022-10-16T11:54:34.000Z</time>
      </trkpt>
      <trkpt lat="45.07884" lon="5.15646">
        <ele>199.6</ele>
        <time>2022-10-16T11:54:35.000Z</time>
      </trkpt>
      <trkpt lat="45.07885" lon="5.15642">
        <ele>199.7</ele>
        <time>2022-10-16T11:54:36.000Z</time>
      </trkpt>
      <trkpt lat="45.07886" lon="5.15638">
        <ele>199.8</ele>
        <time>2022-10-16T11:54:37.000Z</time>
      </trkpt>
      <trkpt lat="45.07886" lon="5.15634">
        <ele>200</ele>
        <time>2022-10-16T11:54:38.000Z</time>
      </trkpt>
      <trkpt lat="45.07887" lon="5.15631">
        <ele>200.1</ele>
        <time>2022-10-16T11:54:39.000Z</time>
      </trkpt>
      <trkpt lat="45.07887" lon="5.15627">
        <ele>200.3</ele>
        <time>2022-10-16T11:54:40.000Z</time>
      </trkpt>
      <trkpt lat="45.07888" lon="5.15625">
        <ele>200.4</ele>
        <time>2022-10-16T11:54:41.000Z</time>
      </trkpt>
      <trkpt lat="45.07888" lon="5.15622">
        <ele>200.5</ele>
        <time>2022-10-16T11:54:42.000Z</time>
      </trkpt>
      <trkpt lat="45.07888" lon="5.15618">
        <ele>200.7</ele>
        <time>2022-10-16T11:54:43.000Z</time>
      </trkpt>
      <trkpt lat="45.07888" lon="5.15615">
        <ele>200.8</ele>
        <time>2022-10-16T11:54:44.000Z</time>
      </trkpt>
      <trkpt lat="45.07889" lon="5.15611">
        <ele>201</ele>
        <time>2022-10-16T11:54:45.000Z</time>
      </trkpt>
      <trkpt lat="45.07889" lon="5.15607">
        <ele>201</ele>
        <time>2022-10-16T11:54:46.000Z</time>
      </trkpt>
      <trkpt lat="45.0789" lon="5.15604">
        <ele>201</ele>
        <time>2022-10-16T11:54:47.000Z</time>
      </trkpt>
      <trkpt lat="45.0789" lon="5.156">
        <ele>201.1</ele>
        <time>2022-10-16T11:54:48.000Z</time>
      </trkpt>
      <trkpt lat="45.07891" lon="5.15596">
        <ele>201.1</ele>
        <time>2022-10-16T11:54:49.000Z</time>
      </trkpt>
      <trkpt lat="45.07892" lon="5.15592">
        <ele>201.1</ele>
        <time>2022-10-16T11:54:50.000Z</time>
      </trkpt>
      <trkpt lat="45.07892" lon="5.15588">
        <ele>201.1</ele>
        <time>2022-10-16T11:54:51.000Z</time>
      </trkpt>
      <trkpt lat="45.07893" lon="5.15585">
        <ele>201.2</ele>
        <time>2022-10-16T11:54:52.000Z</time>
      </trkpt>
      <trkpt lat="45.07894" lon="5.15581">
        <ele>201.1</ele>
        <time>2022-10-16T11:54:53.000Z</time>
      </trkpt>
      <trkpt lat="45.07895" lon="5.15577">
        <ele>201.1</ele>
        <time>2022-10-16T11:54:54.000Z</time>
      </trkpt>
      <trkpt lat="45.07896" lon="5.15573">
        <ele>201.1</ele>
        <time>2022-10-16T11:54:55.000Z</time>
      </trkpt>
      <trkpt lat="45.07897" lon="5.15569">
        <ele>201.1</ele>
        <time>2022-10-16T11:54:56.000Z</time>
      </trkpt>
      <trkpt lat="45.07898" lon="5.15565">
        <ele>201.1</ele>
        <time>2022-10-16T11:54:57.000Z</time>
      </trkpt>
      <trkpt lat="45.07899" lon="5.15561">
        <ele>201.1</ele>
        <time>2022-10-16T11:54:58.000Z</time>
      </trkpt>
      <trkpt lat="45.079" lon="5.15557">
        <ele>201.2</ele>
        <time>2022-10-16T11:54:59.000Z</time>
      </trkpt>
      <trkpt lat="45.07901" lon="5.15553">
        <ele>201.3</ele>
        <time>2022-10-16T11:55:00.000Z</time>
      </trkpt>
      <trkpt lat="45.07902" lon="5.15548">
        <ele>201.4</ele>
        <time>2022-10-16T11:55:01.000Z</time>
      </trkpt>
      <trkpt lat="45.07903" lon="5.15544">
        <ele>201.5</ele>
        <time>2022-10-16T11:55:02.000Z</time>
      </trkpt>
      <trkpt lat="45.07904" lon="5.15539">
        <ele>201.7</ele>
        <time>2022-10-16T11:55:03.000Z</time>
      </trkpt>
      <trkpt lat="45.07906" lon="5.15535">
        <ele>201.8</ele>
        <time>2022-10-16T11:55:04.000Z</time>
      </trkpt>
      <trkpt lat="45.07907" lon="5.1553">
        <ele>201.9</ele>
        <time>2022-10-16T11:55:05.000Z</time>
      </trkpt>
      <trkpt lat="45.07908" lon="5.15524">
        <ele>202.1</ele>
        <time>2022-10-16T11:55:06.000Z</time>
      </trkpt>
      <trkpt lat="45.07909" lon="5.15519">
        <ele>202.2</ele>
        <time>2022-10-16T11:55:07.000Z</time>
      </trkpt>
      <trkpt lat="45.07911" lon="5.15514">
        <ele>202.4</ele>
        <time>2022-10-16T11:55:08.000Z</time>
      </trkpt>
      <trkpt lat="45.07912" lon="5.15508">
        <ele>202.5</ele>
        <time>2022-10-16T11:55:09.000Z</time>
      </trkpt>
      <trkpt lat="45.07913" lon="5.15503">
        <ele>202.6</ele>
        <time>2022-10-16T11:55:10.000Z</time>
      </trkpt>
      <trkpt lat="45.07915" lon="5.15498">
        <ele>202.8</ele>
        <time>2022-10-16T11:55:11.000Z</time>
      </trkpt>
      <trkpt lat="45.07917" lon="5.15492">
        <ele>203</ele>
        <time>2022-10-16T11:55:12.000Z</time>
      </trkpt>
      <trkpt lat="45.07918" lon="5.15486">
        <ele>203</ele>
        <time>2022-10-16T11:55:13.000Z</time>
      </trkpt>
      <trkpt lat="45.0792" lon="5.1548">
        <ele>203.1</ele>
        <time>2022-10-16T11:55:14.000Z</time>
      </trkpt>
      <trkpt lat="45.07921" lon="5.15474">
        <ele>203.1</ele>
        <time>2022-10-16T11:55:15.000Z</time>
      </trkpt>
      <trkpt lat="45.07922" lon="5.15468">
        <ele>203.1</ele>
        <time>2022-10-16T11:55:16.000Z</time>
      </trkpt>
      <trkpt lat="45.07923" lon="5.15463">
        <ele>203</ele>
        <time>2022-10-16T11:55:17.000Z</time>
      </trkpt>
      <trkpt lat="45.07924" lon="5.15457">
        <ele>202.9</ele>
        <time>2022-10-16T11:55:18.000Z</time>
      </trkpt>
      <trkpt lat="45.07926" lon="5.1545">
        <ele>202.8</ele>
        <time>2022-10-16T11:55:19.000Z</time>
      </trkpt>
      <trkpt lat="45.07927" lon="5.15444">
        <ele>202.7</ele>
        <time>2022-10-16T11:55:20.000Z</time>
      </trkpt>
      <trkpt lat="45.07928" lon="5.15438">
        <ele>202.8</ele>
        <time>2022-10-16T11:55:21.000Z</time>
      </trkpt>
      <trkpt lat="45.0793" lon="5.15433">
        <ele>202.9</ele>
        <time>2022-10-16T11:55:22.000Z</time>
      </trkpt>
      <trkpt lat="45.07931" lon="5.15428">
        <ele>203</ele>
        <time>2022-10-16T11:55:23.000Z</time>
      </trkpt>
      <trkpt lat="45.07933" lon="5.15424">
        <ele>203.2</ele>
        <time>2022-10-16T11:55:24.000Z</time>
      </trkpt>
      <trkpt lat="45.07934" lon="5.1542">
        <ele>203.3</ele>
        <time>2022-10-16T11:55:25.000Z</time>
      </trkpt>
      <trkpt lat="45.07936" lon="5.15415">
        <ele>203.3</ele>
        <time>2022-10-16T11:55:26.000Z</time>
      </trkpt>
      <trkpt lat="45.07937" lon="5.1541">
        <ele>203.3</ele>
        <time>2022-10-16T11:55:27.000Z</time>
      </trkpt>
      <trkpt lat="45.07938" lon="5.15405">
        <ele>203.3</ele>
        <time>2022-10-16T11:55:28.000Z</time>
      </trkpt>
      <trkpt lat="45.07938" lon="5.15399">
        <ele>203.2</ele>
        <time>2022-10-16T11:55:29.000Z</time>
      </trkpt>
      <trkpt lat="45.07939" lon="5.15394">
        <ele>203.1</ele>
        <time>2022-10-16T11:55:30.000Z</time>
      </trkpt>
      <trkpt lat="45.07941" lon="5.15389">
        <ele>203</ele>
        <time>2022-10-16T11:55:31.000Z</time>
      </trkpt>
      <trkpt lat="45.07943" lon="5.15384">
        <ele>202.8</ele>
        <time>2022-10-16T11:55:32.000Z</time>
      </trkpt>
      <trkpt lat="45.07945" lon="5.15379">
        <ele>202.6</ele>
        <time>2022-10-16T11:55:33.000Z</time>
      </trkpt>
      <trkpt lat="45.07946" lon="5.15374">
        <ele>202.5</ele>
        <time>2022-10-16T11:55:34.000Z</time>
      </trkpt>
      <trkpt lat="45.07947" lon="5.15369">
        <ele>202.4</ele>
        <time>2022-10-16T11:55:35.000Z</time>
      </trkpt>
      <trkpt lat="45.07949" lon="5.15364">
        <ele>202.2</ele>
        <time>2022-10-16T11:55:36.000Z</time>
      </trkpt>
      <trkpt lat="45.0795" lon="5.15359">
        <ele>202.1</ele>
        <time>2022-10-16T11:55:37.000Z</time>
      </trkpt>
      <trkpt lat="45.07951" lon="5.15354">
        <ele>202</ele>
        <time>2022-10-16T11:55:38.000Z</time>
      </trkpt>
      <trkpt lat="45.07952" lon="5.15349">
        <ele>201.9</ele>
        <time>2022-10-16T11:55:39.000Z</time>
      </trkpt>
      <trkpt lat="45.07953" lon="5.15344">
        <ele>201.8</ele>
        <time>2022-10-16T11:55:40.000Z</time>
      </trkpt>
      <trkpt lat="45.07954" lon="5.15339">
        <ele>201.8</ele>
        <time>2022-10-16T11:55:41.000Z</time>
      </trkpt>
      <trkpt lat="45.07955" lon="5.15334">
        <ele>201.8</ele>
        <time>2022-10-16T11:55:42.000Z</time>
      </trkpt>
      <trkpt lat="45.07956" lon="5.1533">
        <ele>201.9</ele>
        <time>2022-10-16T11:55:43.000Z</time>
      </trkpt>
      <trkpt lat="45.07958" lon="5.15324">
        <ele>202</ele>
        <time>2022-10-16T11:55:44.000Z</time>
      </trkpt>
      <trkpt lat="45.07959" lon="5.15319">
        <ele>202</ele>
        <time>2022-10-16T11:55:45.000Z</time>
      </trkpt>
      <trkpt lat="45.07961" lon="5.15314">
        <ele>202.2</ele>
        <time>2022-10-16T11:55:46.000Z</time>
      </trkpt>
      <trkpt lat="45.07962" lon="5.1531">
        <ele>202.2</ele>
        <time>2022-10-16T11:55:47.000Z</time>
      </trkpt>
      <trkpt lat="45.07963" lon="5.15305">
        <ele>202.3</ele>
        <time>2022-10-16T11:55:48.000Z</time>
      </trkpt>
      <trkpt lat="45.07964" lon="5.153">
        <ele>202.2</ele>
        <time>2022-10-16T11:55:49.000Z</time>
      </trkpt>
      <trkpt lat="45.07966" lon="5.15296">
        <ele>202.2</ele>
        <time>2022-10-16T11:55:50.000Z</time>
      </trkpt>
      <trkpt lat="45.07968" lon="5.15291">
        <ele>202.1</ele>
        <time>2022-10-16T11:55:51.000Z</time>
      </trkpt>
      <trkpt lat="45.07969" lon="5.15287">
        <ele>202.1</ele>
        <time>2022-10-16T11:55:52.000Z</time>
      </trkpt>
      <trkpt lat="45.0797" lon="5.15283">
        <ele>202</ele>
        <time>2022-10-16T11:55:53.000Z</time>
      </trkpt>
      <trkpt lat="45.07971" lon="5.15278">
        <ele>201.9</ele>
        <time>2022-10-16T11:55:54.000Z</time>
      </trkpt>
      <trkpt lat="45.07972" lon="5.15274">
        <ele>202</ele>
        <time>2022-10-16T11:55:55.000Z</time>
      </trkpt>
      <trkpt lat="45.07973" lon="5.1527">
        <ele>202.1</ele>
        <time>2022-10-16T11:55:56.000Z</time>
      </trkpt>
      <trkpt lat="45.07974" lon="5.15266">
        <ele>202.2</ele>
        <time>2022-10-16T11:55:57.000Z</time>
      </trkpt>
      <trkpt lat="45.07975" lon="5.15262">
        <ele>202.3</ele>
        <time>2022-10-16T11:55:58.000Z</time>
      </trkpt>
      <trkpt lat="45.07976" lon="5.15258">
        <ele>202.4</ele>
        <time>2022-10-16T11:55:59.000Z</time>
      </trkpt>
      <trkpt lat="45.07977" lon="5.15254">
        <ele>202.5</ele>
        <time>2022-10-16T11:56:00.000Z</time>
      </trkpt>
      <trkpt lat="45.07977" lon="5.1525">
        <ele>202.5</ele>
        <time>2022-10-16T11:56:01.000Z</time>
      </trkpt>
      <trkpt lat="45.07977" lon="5.15247">
        <ele>202.4</ele>
        <time>2022-10-16T11:56:02.000Z</time>
      </trkpt>
      <trkpt lat="45.07977" lon="5.15243">
        <ele>202.3</ele>
        <time>2022-10-16T11:56:03.000Z</time>
      </trkpt>
      <trkpt lat="45.07978" lon="5.1524">
        <ele>202.3</ele>
        <time>2022-10-16T11:56:04.000Z</time>
      </trkpt>
      <trkpt lat="45.07979" lon="5.15236">
        <ele>202.3</ele>
        <time>2022-10-16T11:56:05.000Z</time>
      </trkpt>
      <trkpt lat="45.07979" lon="5.15232">
        <ele>202.2</ele>
        <time>2022-10-16T11:56:06.000Z</time>
      </trkpt>
      <trkpt lat="45.07979" lon="5.15228">
        <ele>202.1</ele>
        <time>2022-10-16T11:56:07.000Z</time>
      </trkpt>
      <trkpt lat="45.0798" lon="5.15223">
        <ele>202.1</ele>
        <time>2022-10-16T11:56:08.000Z</time>
      </trkpt>
      <trkpt lat="45.0798" lon="5.15219">
        <ele>202</ele>
        <time>2022-10-16T11:56:09.000Z</time>
      </trkpt>
      <trkpt lat="45.0798" lon="5.15214">
        <ele>201.9</ele>
        <time>2022-10-16T11:56:10.000Z</time>
      </trkpt>
      <trkpt lat="45.07981" lon="5.1521">
        <ele>201.8</ele>
        <time>2022-10-16T11:56:11.000Z</time>
      </trkpt>
      <trkpt lat="45.07982" lon="5.15205">
        <ele>201.8</ele>
        <time>2022-10-16T11:56:12.000Z</time>
      </trkpt>
      <trkpt lat="45.07983" lon="5.15201">
        <ele>201.7</ele>
        <time>2022-10-16T11:56:13.000Z</time>
      </trkpt>
      <trkpt lat="45.07983" lon="5.15196">
        <ele>201.6</ele>
        <time>2022-10-16T11:56:14.000Z</time>
      </trkpt>
      <trkpt lat="45.07983" lon="5.15192">
        <ele>201.6</ele>
        <time>2022-10-16T11:56:15.000Z</time>
      </trkpt>
      <trkpt lat="45.07984" lon="5.15188">
        <ele>201.7</ele>
        <time>2022-10-16T11:56:16.000Z</time>
      </trkpt>
      <trkpt lat="45.07984" lon="5.15184">
        <ele>201.7</ele>
        <time>2022-10-16T11:56:17.000Z</time>
      </trkpt>
      <trkpt lat="45.07984" lon="5.1518">
        <ele>201.7</ele>
        <time>2022-10-16T11:56:18.000Z</time>
      </trkpt>
      <trkpt lat="45.07985" lon="5.15176">
        <ele>201.8</ele>
        <time>2022-10-16T11:56:19.000Z</time>
      </trkpt>
      <trkpt lat="45.07985" lon="5.15173">
        <ele>201.8</ele>
        <time>2022-10-16T11:56:20.000Z</time>
      </trkpt>
      <trkpt lat="45.07985" lon="5.1517">
        <ele>201.8</ele>
        <time>2022-10-16T11:56:21.000Z</time>
      </trkpt>
      <trkpt lat="45.07985" lon="5.15168">
        <ele>201.8</ele>
        <time>2022-10-16T11:56:22.000Z</time>
      </trkpt>
      <trkpt lat="45.07985" lon="5.15164">
        <ele>201.8</ele>
        <time>2022-10-16T11:56:23.000Z</time>
      </trkpt>
      <trkpt lat="45.07985" lon="5.15161">
        <ele>201.8</ele>
        <time>2022-10-16T11:56:24.000Z</time>
      </trkpt>
      <trkpt lat="45.07985" lon="5.15156">
        <ele>201.8</ele>
        <time>2022-10-16T11:56:25.000Z</time>
      </trkpt>
      <trkpt lat="45.07985" lon="5.15152">
        <ele>201.8</ele>
        <time>2022-10-16T11:56:26.000Z</time>
      </trkpt>
      <trkpt lat="45.07986" lon="5.15147">
        <ele>201.9</ele>
        <time>2022-10-16T11:56:27.000Z</time>
      </trkpt>
      <trkpt lat="45.07986" lon="5.15142">
        <ele>202</ele>
        <time>2022-10-16T11:56:28.000Z</time>
      </trkpt>
      <trkpt lat="45.07987" lon="5.15137">
        <ele>202.1</ele>
        <time>2022-10-16T11:56:29.000Z</time>
      </trkpt>
      <trkpt lat="45.07987" lon="5.15133">
        <ele>202.2</ele>
        <time>2022-10-16T11:56:30.000Z</time>
      </trkpt>
      <trkpt lat="45.07988" lon="5.15128">
        <ele>202.2</ele>
        <time>2022-10-16T11:56:31.000Z</time>
      </trkpt>
      <trkpt lat="45.07989" lon="5.15123">
        <ele>202.3</ele>
        <time>2022-10-16T11:56:32.000Z</time>
      </trkpt>
      <trkpt lat="45.07989" lon="5.15118">
        <ele>202.5</ele>
        <time>2022-10-16T11:56:33.000Z</time>
      </trkpt>
      <trkpt lat="45.0799" lon="5.15113">
        <ele>202.6</ele>
        <time>2022-10-16T11:56:34.000Z</time>
      </trkpt>
      <trkpt lat="45.07991" lon="5.15109">
        <ele>202.7</ele>
        <time>2022-10-16T11:56:35.000Z</time>
      </trkpt>
      <trkpt lat="45.07992" lon="5.15104">
        <ele>202.9</ele>
        <time>2022-10-16T11:56:36.000Z</time>
      </trkpt>
      <trkpt lat="45.07993" lon="5.151">
        <ele>203</ele>
        <time>2022-10-16T11:56:37.000Z</time>
      </trkpt>
      <trkpt lat="45.07994" lon="5.15096">
        <ele>203.2</ele>
        <time>2022-10-16T11:56:38.000Z</time>
      </trkpt>
      <trkpt lat="45.07994" lon="5.15092">
        <ele>203.3</ele>
        <time>2022-10-16T11:56:39.000Z</time>
      </trkpt>
      <trkpt lat="45.07995" lon="5.15088">
        <ele>203.4</ele>
        <time>2022-10-16T11:56:40.000Z</time>
      </trkpt>
      <trkpt lat="45.07996" lon="5.15084">
        <ele>203.5</ele>
        <time>2022-10-16T11:56:41.000Z</time>
      </trkpt>
      <trkpt lat="45.07996" lon="5.15081">
        <ele>203.5</ele>
        <time>2022-10-16T11:56:42.000Z</time>
      </trkpt>
      <trkpt lat="45.07998" lon="5.15077">
        <ele>203.5</ele>
        <time>2022-10-16T11:56:43.000Z</time>
      </trkpt>
      <trkpt lat="45.07999" lon="5.15073">
        <ele>203.5</ele>
        <time>2022-10-16T11:56:44.000Z</time>
      </trkpt>
      <trkpt lat="45.08" lon="5.15069">
        <ele>203.5</ele>
        <time>2022-10-16T11:56:45.000Z</time>
      </trkpt>
      <trkpt lat="45.08001" lon="5.15064">
        <ele>203.3</ele>
        <time>2022-10-16T11:56:46.000Z</time>
      </trkpt>
      <trkpt lat="45.08002" lon="5.1506">
        <ele>203.2</ele>
        <time>2022-10-16T11:56:47.000Z</time>
      </trkpt>
      <trkpt lat="45.08003" lon="5.15055">
        <ele>203.1</ele>
        <time>2022-10-16T11:56:48.000Z</time>
      </trkpt>
      <trkpt lat="45.08004" lon="5.1505">
        <ele>203</ele>
        <time>2022-10-16T11:56:49.000Z</time>
      </trkpt>
      <trkpt lat="45.08005" lon="5.15045">
        <ele>202.9</ele>
        <time>2022-10-16T11:56:50.000Z</time>
      </trkpt>
      <trkpt lat="45.08007" lon="5.15041">
        <ele>202.8</ele>
        <time>2022-10-16T11:56:51.000Z</time>
      </trkpt>
      <trkpt lat="45.08008" lon="5.15036">
        <ele>202.8</ele>
        <time>2022-10-16T11:56:52.000Z</time>
      </trkpt>
      <trkpt lat="45.0801" lon="5.1503">
        <ele>202.8</ele>
        <time>2022-10-16T11:56:53.000Z</time>
      </trkpt>
      <trkpt lat="45.08011" lon="5.15025">
        <ele>202.6</ele>
        <time>2022-10-16T11:56:54.000Z</time>
      </trkpt>
      <trkpt lat="45.08012" lon="5.1502">
        <ele>202.4</ele>
        <time>2022-10-16T11:56:55.000Z</time>
      </trkpt>
      <trkpt lat="45.08013" lon="5.15014">
        <ele>202.2</ele>
        <time>2022-10-16T11:56:56.000Z</time>
      </trkpt>
      <trkpt lat="45.08015" lon="5.15008">
        <ele>202</ele>
        <time>2022-10-16T11:56:57.000Z</time>
      </trkpt>
      <trkpt lat="45.08016" lon="5.15003">
        <ele>201.9</ele>
        <time>2022-10-16T11:56:58.000Z</time>
      </trkpt>
      <trkpt lat="45.08017" lon="5.14996">
        <ele>201.7</ele>
        <time>2022-10-16T11:56:59.000Z</time>
      </trkpt>
      <trkpt lat="45.08019" lon="5.1499">
        <ele>201.7</ele>
        <time>2022-10-16T11:57:00.000Z</time>
      </trkpt>
      <trkpt lat="45.08021" lon="5.14985">
        <ele>201.7</ele>
        <time>2022-10-16T11:57:01.000Z</time>
      </trkpt>
      <trkpt lat="45.08022" lon="5.14978">
        <ele>201.6</ele>
        <time>2022-10-16T11:57:02.000Z</time>
      </trkpt>
      <trkpt lat="45.08023" lon="5.14972">
        <ele>201.5</ele>
        <time>2022-10-16T11:57:03.000Z</time>
      </trkpt>
      <trkpt lat="45.08025" lon="5.14966">
        <ele>201.3</ele>
        <time>2022-10-16T11:57:04.000Z</time>
      </trkpt>
      <trkpt lat="45.08027" lon="5.14959">
        <ele>201</ele>
        <time>2022-10-16T11:57:05.000Z</time>
      </trkpt>
      <trkpt lat="45.08029" lon="5.14952">
        <ele>200.7</ele>
        <time>2022-10-16T11:57:06.000Z</time>
      </trkpt>
      <trkpt lat="45.0803" lon="5.14946">
        <ele>200.4</ele>
        <time>2022-10-16T11:57:07.000Z</time>
      </trkpt>
      <trkpt lat="45.08032" lon="5.1494">
        <ele>200.4</ele>
        <time>2022-10-16T11:57:08.000Z</time>
      </trkpt>
      <trkpt lat="45.08034" lon="5.14933">
        <ele>200.3</ele>
        <time>2022-10-16T11:57:09.000Z</time>
      </trkpt>
      <trkpt lat="45.08035" lon="5.14927">
        <ele>200.3</ele>
        <time>2022-10-16T11:57:10.000Z</time>
      </trkpt>
      <trkpt lat="45.08037" lon="5.1492">
        <ele>200.1</ele>
        <time>2022-10-16T11:57:11.000Z</time>
      </trkpt>
      <trkpt lat="45.08038" lon="5.14913">
        <ele>199.9</ele>
        <time>2022-10-16T11:57:12.000Z</time>
      </trkpt>
      <trkpt lat="45.0804" lon="5.14907">
        <ele>199.7</ele>
        <time>2022-10-16T11:57:13.000Z</time>
      </trkpt>
      <trkpt lat="45.08042" lon="5.14901">
        <ele>199.6</ele>
        <time>2022-10-16T11:57:14.000Z</time>
      </trkpt>
      <trkpt lat="45.08043" lon="5.14894">
        <ele>199.5</ele>
        <time>2022-10-16T11:57:15.000Z</time>
      </trkpt>
      <trkpt lat="45.08045" lon="5.14888">
        <ele>199.5</ele>
        <time>2022-10-16T11:57:16.000Z</time>
      </trkpt>
      <trkpt lat="45.08047" lon="5.14883">
        <ele>199.5</ele>
        <time>2022-10-16T11:57:17.000Z</time>
      </trkpt>
      <trkpt lat="45.08048" lon="5.14877">
        <ele>199.5</ele>
        <time>2022-10-16T11:57:18.000Z</time>
      </trkpt>
      <trkpt lat="45.08049" lon="5.14872">
        <ele>199.5</ele>
        <time>2022-10-16T11:57:19.000Z</time>
      </trkpt>
      <trkpt lat="45.08051" lon="5.14867">
        <ele>199.5</ele>
        <time>2022-10-16T11:57:20.000Z</time>
      </trkpt>
      <trkpt lat="45.08053" lon="5.1486">
        <ele>199.5</ele>
        <time>2022-10-16T11:57:21.000Z</time>
      </trkpt>
      <trkpt lat="45.08054" lon="5.14854">
        <ele>199.3</ele>
        <time>2022-10-16T11:57:22.000Z</time>
      </trkpt>
      <trkpt lat="45.08055" lon="5.14848">
        <ele>199</ele>
        <time>2022-10-16T11:57:23.000Z</time>
      </trkpt>
      <trkpt lat="45.08056" lon="5.14843">
        <ele>198.7</ele>
        <time>2022-10-16T11:57:24.000Z</time>
      </trkpt>
      <trkpt lat="45.08057" lon="5.14837">
        <ele>198.5</ele>
        <time>2022-10-16T11:57:25.000Z</time>
      </trkpt>
      <trkpt lat="45.08059" lon="5.14832">
        <ele>198.4</ele>
        <time>2022-10-16T11:57:26.000Z</time>
      </trkpt>
      <trkpt lat="45.08061" lon="5.14828">
        <ele>198.5</ele>
        <time>2022-10-16T11:57:27.000Z</time>
      </trkpt>
      <trkpt lat="45.08062" lon="5.14823">
        <ele>198.6</ele>
        <time>2022-10-16T11:57:28.000Z</time>
      </trkpt>
      <trkpt lat="45.08064" lon="5.14819">
        <ele>198.7</ele>
        <time>2022-10-16T11:57:29.000Z</time>
      </trkpt>
      <trkpt lat="45.08066" lon="5.14815">
        <ele>198.9</ele>
        <time>2022-10-16T11:57:30.000Z</time>
      </trkpt>
      <trkpt lat="45.08068" lon="5.1481">
        <ele>198.9</ele>
        <time>2022-10-16T11:57:31.000Z</time>
      </trkpt>
      <trkpt lat="45.0807" lon="5.14807">
        <ele>199.1</ele>
        <time>2022-10-16T11:57:32.000Z</time>
      </trkpt>
      <trkpt lat="45.08071" lon="5.14803">
        <ele>199.2</ele>
        <time>2022-10-16T11:57:33.000Z</time>
      </trkpt>
      <trkpt lat="45.08073" lon="5.14799">
        <ele>199.2</ele>
        <time>2022-10-16T11:57:34.000Z</time>
      </trkpt>
      <trkpt lat="45.08074" lon="5.14794">
        <ele>199.2</ele>
        <time>2022-10-16T11:57:35.000Z</time>
      </trkpt>
      <trkpt lat="45.08074" lon="5.14791">
        <ele>199.2</ele>
        <time>2022-10-16T11:57:36.000Z</time>
      </trkpt>
      <trkpt lat="45.08076" lon="5.14787">
        <ele>199.3</ele>
        <time>2022-10-16T11:57:37.000Z</time>
      </trkpt>
      <trkpt lat="45.08078" lon="5.14784">
        <ele>199.4</ele>
        <time>2022-10-16T11:57:38.000Z</time>
      </trkpt>
      <trkpt lat="45.08079" lon="5.1478">
        <ele>199.5</ele>
        <time>2022-10-16T11:57:39.000Z</time>
      </trkpt>
      <trkpt lat="45.0808" lon="5.14777">
        <ele>199.5</ele>
        <time>2022-10-16T11:57:40.000Z</time>
      </trkpt>
      <trkpt lat="45.08082" lon="5.14774">
        <ele>199.6</ele>
        <time>2022-10-16T11:57:41.000Z</time>
      </trkpt>
      <trkpt lat="45.08083" lon="5.14771">
        <ele>199.7</ele>
        <time>2022-10-16T11:57:42.000Z</time>
      </trkpt>
      <trkpt lat="45.08084" lon="5.14768">
        <ele>199.7</ele>
        <time>2022-10-16T11:57:43.000Z</time>
      </trkpt>
      <trkpt lat="45.08085" lon="5.14765">
        <ele>199.8</ele>
        <time>2022-10-16T11:57:44.000Z</time>
      </trkpt>
      <trkpt lat="45.08086" lon="5.14762">
        <ele>199.7</ele>
        <time>2022-10-16T11:57:45.000Z</time>
      </trkpt>
      <trkpt lat="45.08087" lon="5.14759">
        <ele>199.8</ele>
        <time>2022-10-16T11:57:46.000Z</time>
      </trkpt>
      <trkpt lat="45.08088" lon="5.14756">
        <ele>199.7</ele>
        <time>2022-10-16T11:57:47.000Z</time>
      </trkpt>
      <trkpt lat="45.08089" lon="5.14752">
        <ele>199.7</ele>
        <time>2022-10-16T11:57:48.000Z</time>
      </trkpt>
      <trkpt lat="45.0809" lon="5.14749">
        <ele>199.7</ele>
        <time>2022-10-16T11:57:49.000Z</time>
      </trkpt>
      <trkpt lat="45.08091" lon="5.14746">
        <ele>199.7</ele>
        <time>2022-10-16T11:57:50.000Z</time>
      </trkpt>
      <trkpt lat="45.08093" lon="5.14743">
        <ele>199.7</ele>
        <time>2022-10-16T11:57:51.000Z</time>
      </trkpt>
      <trkpt lat="45.08094" lon="5.14739">
        <ele>199.8</ele>
        <time>2022-10-16T11:57:52.000Z</time>
      </trkpt>
      <trkpt lat="45.08096" lon="5.14736">
        <ele>199.9</ele>
        <time>2022-10-16T11:57:53.000Z</time>
      </trkpt>
      <trkpt lat="45.08097" lon="5.14732">
        <ele>199.9</ele>
        <time>2022-10-16T11:57:54.000Z</time>
      </trkpt>
      <trkpt lat="45.08099" lon="5.14729">
        <ele>199.9</ele>
        <time>2022-10-16T11:57:55.000Z</time>
      </trkpt>
      <trkpt lat="45.081" lon="5.14725">
        <ele>199.9</ele>
        <time>2022-10-16T11:57:56.000Z</time>
      </trkpt>
      <trkpt lat="45.08101" lon="5.14722">
        <ele>199.9</ele>
        <time>2022-10-16T11:57:57.000Z</time>
      </trkpt>
      <trkpt lat="45.08102" lon="5.14719">
        <ele>199.9</ele>
        <time>2022-10-16T11:57:58.000Z</time>
      </trkpt>
      <trkpt lat="45.08103" lon="5.14717">
        <ele>200</ele>
        <time>2022-10-16T11:57:59.000Z</time>
      </trkpt>
      <trkpt lat="45.08104" lon="5.14714">
        <ele>200</ele>
        <time>2022-10-16T11:58:00.000Z</time>
      </trkpt>
      <trkpt lat="45.08106" lon="5.14712">
        <ele>200.1</ele>
        <time>2022-10-16T11:58:01.000Z</time>
      </trkpt>
      <trkpt lat="45.08107" lon="5.14709">
        <ele>200.1</ele>
        <time>2022-10-16T11:58:02.000Z</time>
      </trkpt>
      <trkpt lat="45.08108" lon="5.14706">
        <ele>200.1</ele>
        <time>2022-10-16T11:58:03.000Z</time>
      </trkpt>
      <trkpt lat="45.08109" lon="5.14702">
        <ele>200.1</ele>
        <time>2022-10-16T11:58:04.000Z</time>
      </trkpt>
      <trkpt lat="45.0811" lon="5.14698">
        <ele>200</ele>
        <time>2022-10-16T11:58:05.000Z</time>
      </trkpt>
      <trkpt lat="45.08111" lon="5.14695">
        <ele>200</ele>
        <time>2022-10-16T11:58:06.000Z</time>
      </trkpt>
      <trkpt lat="45.08112" lon="5.14691">
        <ele>199.9</ele>
        <time>2022-10-16T11:58:07.000Z</time>
      </trkpt>
      <trkpt lat="45.08113" lon="5.14688">
        <ele>199.9</ele>
        <time>2022-10-16T11:58:08.000Z</time>
      </trkpt>
      <trkpt lat="45.08113" lon="5.14685">
        <ele>199.9</ele>
        <time>2022-10-16T11:58:09.000Z</time>
      </trkpt>
      <trkpt lat="45.08114" lon="5.14681">
        <ele>199.9</ele>
        <time>2022-10-16T11:58:10.000Z</time>
      </trkpt>
      <trkpt lat="45.08116" lon="5.14678">
        <ele>200</ele>
        <time>2022-10-16T11:58:11.000Z</time>
      </trkpt>
      <trkpt lat="45.08117" lon="5.14676">
        <ele>200.1</ele>
        <time>2022-10-16T11:58:12.000Z</time>
      </trkpt>
      <trkpt lat="45.08118" lon="5.14673">
        <ele>200.1</ele>
        <time>2022-10-16T11:58:13.000Z</time>
      </trkpt>
      <trkpt lat="45.08119" lon="5.1467">
        <ele>200.2</ele>
        <time>2022-10-16T11:58:14.000Z</time>
      </trkpt>
      <trkpt lat="45.0812" lon="5.14667">
        <ele>200.3</ele>
        <time>2022-10-16T11:58:15.000Z</time>
      </trkpt>
      <trkpt lat="45.08122" lon="5.14664">
        <ele>200.5</ele>
        <time>2022-10-16T11:58:16.000Z</time>
      </trkpt>
      <trkpt lat="45.08123" lon="5.1466">
        <ele>200.6</ele>
        <time>2022-10-16T11:58:17.000Z</time>
      </trkpt>
      <trkpt lat="45.08124" lon="5.14657">
        <ele>200.7</ele>
        <time>2022-10-16T11:58:18.000Z</time>
      </trkpt>
      <trkpt lat="45.08125" lon="5.14654">
        <ele>200.8</ele>
        <time>2022-10-16T11:58:19.000Z</time>
      </trkpt>
      <trkpt lat="45.08127" lon="5.14652">
        <ele>200.9</ele>
        <time>2022-10-16T11:58:20.000Z</time>
      </trkpt>
      <trkpt lat="45.08128" lon="5.14649">
        <ele>201.1</ele>
        <time>2022-10-16T11:58:21.000Z</time>
      </trkpt>
      <trkpt lat="45.0813" lon="5.14645">
        <ele>201.1</ele>
        <time>2022-10-16T11:58:22.000Z</time>
      </trkpt>
      <trkpt lat="45.08131" lon="5.14642">
        <ele>201.2</ele>
        <time>2022-10-16T11:58:23.000Z</time>
      </trkpt>
      <trkpt lat="45.08132" lon="5.14639">
        <ele>201.3</ele>
        <time>2022-10-16T11:58:24.000Z</time>
      </trkpt>
      <trkpt lat="45.08134" lon="5.14636">
        <ele>201.3</ele>
        <time>2022-10-16T11:58:25.000Z</time>
      </trkpt>
      <trkpt lat="45.08135" lon="5.14633">
        <ele>201.4</ele>
        <time>2022-10-16T11:58:26.000Z</time>
      </trkpt>
      <trkpt lat="45.08136" lon="5.1463">
        <ele>201.4</ele>
        <time>2022-10-16T11:58:27.000Z</time>
      </trkpt>
      <trkpt lat="45.08137" lon="5.14626">
        <ele>201.3</ele>
        <time>2022-10-16T11:58:28.000Z</time>
      </trkpt>
      <trkpt lat="45.08138" lon="5.14623">
        <ele>201.3</ele>
        <time>2022-10-16T11:58:29.000Z</time>
      </trkpt>
      <trkpt lat="45.08139" lon="5.14619">
        <ele>201.3</ele>
        <time>2022-10-16T11:58:30.000Z</time>
      </trkpt>
      <trkpt lat="45.0814" lon="5.14615">
        <ele>201.3</ele>
        <time>2022-10-16T11:58:31.000Z</time>
      </trkpt>
      <trkpt lat="45.08141" lon="5.1461">
        <ele>201.3</ele>
        <time>2022-10-16T11:58:32.000Z</time>
      </trkpt>
      <trkpt lat="45.08142" lon="5.14606">
        <ele>201.3</ele>
        <time>2022-10-16T11:58:33.000Z</time>
      </trkpt>
      <trkpt lat="45.08144" lon="5.14602">
        <ele>201.4</ele>
        <time>2022-10-16T11:58:34.000Z</time>
      </trkpt>
      <trkpt lat="45.08145" lon="5.14598">
        <ele>201.4</ele>
        <time>2022-10-16T11:58:35.000Z</time>
      </trkpt>
      <trkpt lat="45.08147" lon="5.14593">
        <ele>201.5</ele>
        <time>2022-10-16T11:58:36.000Z</time>
      </trkpt>
      <trkpt lat="45.08148" lon="5.14589">
        <ele>201.5</ele>
        <time>2022-10-16T11:58:37.000Z</time>
      </trkpt>
      <trkpt lat="45.08149" lon="5.14585">
        <ele>201.6</ele>
        <time>2022-10-16T11:58:38.000Z</time>
      </trkpt>
      <trkpt lat="45.0815" lon="5.14581">
        <ele>201.6</ele>
        <time>2022-10-16T11:58:39.000Z</time>
      </trkpt>
      <trkpt lat="45.08151" lon="5.14577">
        <ele>201.7</ele>
        <time>2022-10-16T11:58:40.000Z</time>
      </trkpt>
      <trkpt lat="45.08153" lon="5.14573">
        <ele>201.8</ele>
        <time>2022-10-16T11:58:41.000Z</time>
      </trkpt>
      <trkpt lat="45.08154" lon="5.14569">
        <ele>201.9</ele>
        <time>2022-10-16T11:58:42.000Z</time>
      </trkpt>
      <trkpt lat="45.08155" lon="5.14565">
        <ele>201.9</ele>
        <time>2022-10-16T11:58:43.000Z</time>
      </trkpt>
      <trkpt lat="45.08156" lon="5.14561">
        <ele>202</ele>
        <time>2022-10-16T11:58:44.000Z</time>
      </trkpt>
      <trkpt lat="45.08158" lon="5.14557">
        <ele>202.1</ele>
        <time>2022-10-16T11:58:45.000Z</time>
      </trkpt>
      <trkpt lat="45.08159" lon="5.14552">
        <ele>202.2</ele>
        <time>2022-10-16T11:58:46.000Z</time>
      </trkpt>
      <trkpt lat="45.08161" lon="5.14547">
        <ele>202.4</ele>
        <time>2022-10-16T11:58:47.000Z</time>
      </trkpt>
      <trkpt lat="45.08162" lon="5.14542">
        <ele>202.6</ele>
        <time>2022-10-16T11:58:48.000Z</time>
      </trkpt>
      <trkpt lat="45.08164" lon="5.14538">
        <ele>202.8</ele>
        <time>2022-10-16T11:58:49.000Z</time>
      </trkpt>
      <trkpt lat="45.08165" lon="5.14533">
        <ele>202.9</ele>
        <time>2022-10-16T11:58:50.000Z</time>
      </trkpt>
      <trkpt lat="45.08167" lon="5.14528">
        <ele>203</ele>
        <time>2022-10-16T11:58:51.000Z</time>
      </trkpt>
      <trkpt lat="45.08168" lon="5.14524">
        <ele>203.2</ele>
        <time>2022-10-16T11:58:52.000Z</time>
      </trkpt>
      <trkpt lat="45.0817" lon="5.1452">
        <ele>203.4</ele>
        <time>2022-10-16T11:58:53.000Z</time>
      </trkpt>
      <trkpt lat="45.08171" lon="5.14516">
        <ele>203.5</ele>
        <time>2022-10-16T11:58:54.000Z</time>
      </trkpt>
      <trkpt lat="45.08172" lon="5.14513">
        <ele>203.6</ele>
        <time>2022-10-16T11:58:55.000Z</time>
      </trkpt>
      <trkpt lat="45.08173" lon="5.1451">
        <ele>203.7</ele>
        <time>2022-10-16T11:58:56.000Z</time>
      </trkpt>
      <trkpt lat="45.08173" lon="5.14507">
        <ele>203.8</ele>
        <time>2022-10-16T11:58:57.000Z</time>
      </trkpt>
      <trkpt lat="45.08174" lon="5.14504">
        <ele>203.9</ele>
        <time>2022-10-16T11:58:58.000Z</time>
      </trkpt>
      <trkpt lat="45.08175" lon="5.145">
        <ele>204</ele>
        <time>2022-10-16T11:58:59.000Z</time>
      </trkpt>
      <trkpt lat="45.08175" lon="5.14495">
        <ele>203.7</ele>
        <time>2022-10-16T11:59:00.000Z</time>
      </trkpt>
      <trkpt lat="45.08176" lon="5.1449">
        <ele>203.4</ele>
        <time>2022-10-16T11:59:01.000Z</time>
      </trkpt>
      <trkpt lat="45.08177" lon="5.14486">
        <ele>203.2</ele>
        <time>2022-10-16T11:59:02.000Z</time>
      </trkpt>
      <trkpt lat="45.08178" lon="5.14482">
        <ele>203</ele>
        <time>2022-10-16T11:59:03.000Z</time>
      </trkpt>
      <trkpt lat="45.08179" lon="5.14478">
        <ele>202.7</ele>
        <time>2022-10-16T11:59:04.000Z</time>
      </trkpt>
      <trkpt lat="45.08181" lon="5.14473">
        <ele>202.5</ele>
        <time>2022-10-16T11:59:05.000Z</time>
      </trkpt>
      <trkpt lat="45.08183" lon="5.14467">
        <ele>202.5</ele>
        <time>2022-10-16T11:59:06.000Z</time>
      </trkpt>
      <trkpt lat="45.08185" lon="5.14462">
        <ele>202.5</ele>
        <time>2022-10-16T11:59:07.000Z</time>
      </trkpt>
      <trkpt lat="45.08185" lon="5.14457">
        <ele>202.5</ele>
        <time>2022-10-16T11:59:08.000Z</time>
      </trkpt>
      <trkpt lat="45.08187" lon="5.14452">
        <ele>202.5</ele>
        <time>2022-10-16T11:59:09.000Z</time>
      </trkpt>
      <trkpt lat="45.08188" lon="5.14446">
        <ele>202.6</ele>
        <time>2022-10-16T11:59:10.000Z</time>
      </trkpt>
      <trkpt lat="45.0819" lon="5.14441">
        <ele>202.7</ele>
        <time>2022-10-16T11:59:11.000Z</time>
      </trkpt>
      <trkpt lat="45.08192" lon="5.14436">
        <ele>202.8</ele>
        <time>2022-10-16T11:59:12.000Z</time>
      </trkpt>
      <trkpt lat="45.08194" lon="5.14431">
        <ele>202.9</ele>
        <time>2022-10-16T11:59:13.000Z</time>
      </trkpt>
      <trkpt lat="45.08195" lon="5.14427">
        <ele>203</ele>
        <time>2022-10-16T11:59:14.000Z</time>
      </trkpt>
      <trkpt lat="45.08197" lon="5.14422">
        <ele>203.1</ele>
        <time>2022-10-16T11:59:15.000Z</time>
      </trkpt>
      <trkpt lat="45.08198" lon="5.14418">
        <ele>203.1</ele>
        <time>2022-10-16T11:59:16.000Z</time>
      </trkpt>
      <trkpt lat="45.08199" lon="5.14414">
        <ele>202.9</ele>
        <time>2022-10-16T11:59:17.000Z</time>
      </trkpt>
      <trkpt lat="45.082" lon="5.14409">
        <ele>202.6</ele>
        <time>2022-10-16T11:59:18.000Z</time>
      </trkpt>
      <trkpt lat="45.08201" lon="5.14404">
        <ele>202.2</ele>
        <time>2022-10-16T11:59:19.000Z</time>
      </trkpt>
      <trkpt lat="45.08203" lon="5.144">
        <ele>202.1</ele>
        <time>2022-10-16T11:59:20.000Z</time>
      </trkpt>
      <trkpt lat="45.08205" lon="5.14396">
        <ele>202</ele>
        <time>2022-10-16T11:59:21.000Z</time>
      </trkpt>
      <trkpt lat="45.08207" lon="5.14392">
        <ele>202</ele>
        <time>2022-10-16T11:59:22.000Z</time>
      </trkpt>
      <trkpt lat="45.08209" lon="5.14388">
        <ele>202.1</ele>
        <time>2022-10-16T11:59:23.000Z</time>
      </trkpt>
      <trkpt lat="45.0821" lon="5.14383">
        <ele>202.1</ele>
        <time>2022-10-16T11:59:24.000Z</time>
      </trkpt>
      <trkpt lat="45.08211" lon="5.14379">
        <ele>202.2</ele>
        <time>2022-10-16T11:59:25.000Z</time>
      </trkpt>
      <trkpt lat="45.08213" lon="5.14375">
        <ele>202.4</ele>
        <time>2022-10-16T11:59:26.000Z</time>
      </trkpt>
      <trkpt lat="45.08215" lon="5.14372">
        <ele>202.5</ele>
        <time>2022-10-16T11:59:27.000Z</time>
      </trkpt>
      <trkpt lat="45.08216" lon="5.14368">
        <ele>202.5</ele>
        <time>2022-10-16T11:59:28.000Z</time>
      </trkpt>
      <trkpt lat="45.08218" lon="5.14364">
        <ele>202.6</ele>
        <time>2022-10-16T11:59:29.000Z</time>
      </trkpt>
      <trkpt lat="45.0822" lon="5.14361">
        <ele>202.7</ele>
        <time>2022-10-16T11:59:30.000Z</time>
      </trkpt>
      <trkpt lat="45.08221" lon="5.14358">
        <ele>202.9</ele>
        <time>2022-10-16T11:59:31.000Z</time>
      </trkpt>
      <trkpt lat="45.08223" lon="5.14354">
        <ele>203</ele>
        <time>2022-10-16T11:59:32.000Z</time>
      </trkpt>
      <trkpt lat="45.08224" lon="5.1435">
        <ele>203.1</ele>
        <time>2022-10-16T11:59:33.000Z</time>
      </trkpt>
      <trkpt lat="45.08224" lon="5.14346">
        <ele>203.1</ele>
        <time>2022-10-16T11:59:34.000Z</time>
      </trkpt>
      <trkpt lat="45.08225" lon="5.14343">
        <ele>203.1</ele>
        <time>2022-10-16T11:59:35.000Z</time>
      </trkpt>
      <trkpt lat="45.08226" lon="5.1434">
        <ele>203.1</ele>
        <time>2022-10-16T11:59:36.000Z</time>
      </trkpt>
      <trkpt lat="45.08227" lon="5.14337">
        <ele>203.2</ele>
        <time>2022-10-16T11:59:37.000Z</time>
      </trkpt>
      <trkpt lat="45.08228" lon="5.14333">
        <ele>203.2</ele>
        <time>2022-10-16T11:59:38.000Z</time>
      </trkpt>
      <trkpt lat="45.08229" lon="5.14329">
        <ele>203</ele>
        <time>2022-10-16T11:59:39.000Z</time>
      </trkpt>
      <trkpt lat="45.0823" lon="5.14325">
        <ele>202.9</ele>
        <time>2022-10-16T11:59:40.000Z</time>
      </trkpt>
      <trkpt lat="45.08231" lon="5.14322">
        <ele>202.8</ele>
        <time>2022-10-16T11:59:41.000Z</time>
      </trkpt>
      <trkpt lat="45.08232" lon="5.14318">
        <ele>202.6</ele>
        <time>2022-10-16T11:59:42.000Z</time>
      </trkpt>
      <trkpt lat="45.08234" lon="5.14314">
        <ele>202.6</ele>
        <time>2022-10-16T11:59:43.000Z</time>
      </trkpt>
      <trkpt lat="45.08235" lon="5.14311">
        <ele>202.6</ele>
        <time>2022-10-16T11:59:44.000Z</time>
      </trkpt>
      <trkpt lat="45.08237" lon="5.14307">
        <ele>202.6</ele>
        <time>2022-10-16T11:59:45.000Z</time>
      </trkpt>
      <trkpt lat="45.08238" lon="5.14304">
        <ele>202.5</ele>
        <time>2022-10-16T11:59:46.000Z</time>
      </trkpt>
      <trkpt lat="45.08239" lon="5.143">
        <ele>202.4</ele>
        <time>2022-10-16T11:59:47.000Z</time>
      </trkpt>
      <trkpt lat="45.0824" lon="5.14297">
        <ele>202.4</ele>
        <time>2022-10-16T11:59:48.000Z</time>
      </trkpt>
      <trkpt lat="45.08242" lon="5.14295">
        <ele>202.3</ele>
        <time>2022-10-16T11:59:49.000Z</time>
      </trkpt>
      <trkpt lat="45.08243" lon="5.14292">
        <ele>202.3</ele>
        <time>2022-10-16T11:59:50.000Z</time>
      </trkpt>
      <trkpt lat="45.08245" lon="5.14288">
        <ele>202.1</ele>
        <time>2022-10-16T11:59:51.000Z</time>
      </trkpt>
      <trkpt lat="45.08246" lon="5.14283">
        <ele>202</ele>
        <time>2022-10-16T11:59:52.000Z</time>
      </trkpt>
      <trkpt lat="45.08248" lon="5.14278">
        <ele>201.8</ele>
        <time>2022-10-16T11:59:53.000Z</time>
      </trkpt>
      <trkpt lat="45.0825" lon="5.14274">
        <ele>202</ele>
        <time>2022-10-16T11:59:54.000Z</time>
      </trkpt>
      <trkpt lat="45.08251" lon="5.14269">
        <ele>202</ele>
        <time>2022-10-16T11:59:55.000Z</time>
      </trkpt>
      <trkpt lat="45.08253" lon="5.14265">
        <ele>202</ele>
        <time>2022-10-16T11:59:56.000Z</time>
      </trkpt>
      <trkpt lat="45.08254" lon="5.14259">
        <ele>201.9</ele>
        <time>2022-10-16T11:59:57.000Z</time>
      </trkpt>
      <trkpt lat="45.08256" lon="5.14254">
        <ele>201.7</ele>
        <time>2022-10-16T11:59:58.000Z</time>
      </trkpt>
      <trkpt lat="45.08257" lon="5.14249">
        <ele>201.4</ele>
        <time>2022-10-16T11:59:59.000Z</time>
      </trkpt>
      <trkpt lat="45.08259" lon="5.14245">
        <ele>201.1</ele>
        <time>2022-10-16T12:00:00.000Z</time>
      </trkpt>
      <trkpt lat="45.0826" lon="5.1424">
        <ele>200.8</ele>
        <time>2022-10-16T12:00:01.000Z</time>
      </trkpt>
      <trkpt lat="45.08262" lon="5.14235">
        <ele>200.5</ele>
        <time>2022-10-16T12:00:02.000Z</time>
      </trkpt>
      <trkpt lat="45.08263" lon="5.1423">
        <ele>200.3</ele>
        <time>2022-10-16T12:00:03.000Z</time>
      </trkpt>
      <trkpt lat="45.08265" lon="5.14225">
        <ele>200.1</ele>
        <time>2022-10-16T12:00:04.000Z</time>
      </trkpt>
      <trkpt lat="45.08266" lon="5.1422">
        <ele>199.9</ele>
        <time>2022-10-16T12:00:05.000Z</time>
      </trkpt>
      <trkpt lat="45.08268" lon="5.14214">
        <ele>199.7</ele>
        <time>2022-10-16T12:00:06.000Z</time>
      </trkpt>
      <trkpt lat="45.0827" lon="5.14208">
        <ele>199.6</ele>
        <time>2022-10-16T12:00:07.000Z</time>
      </trkpt>
      <trkpt lat="45.08272" lon="5.14203">
        <ele>199.6</ele>
        <time>2022-10-16T12:00:08.000Z</time>
      </trkpt>
      <trkpt lat="45.08274" lon="5.14198">
        <ele>199.6</ele>
        <time>2022-10-16T12:00:09.000Z</time>
      </trkpt>
      <trkpt lat="45.08276" lon="5.14192">
        <ele>199.8</ele>
        <time>2022-10-16T12:00:10.000Z</time>
      </trkpt>
      <trkpt lat="45.08278" lon="5.14186">
        <ele>200</ele>
        <time>2022-10-16T12:00:11.000Z</time>
      </trkpt>
      <trkpt lat="45.08279" lon="5.1418">
        <ele>200</ele>
        <time>2022-10-16T12:00:12.000Z</time>
      </trkpt>
      <trkpt lat="45.08281" lon="5.14174">
        <ele>199.9</ele>
        <time>2022-10-16T12:00:13.000Z</time>
      </trkpt>
      <trkpt lat="45.08283" lon="5.14169">
        <ele>199.8</ele>
        <time>2022-10-16T12:00:14.000Z</time>
      </trkpt>
      <trkpt lat="45.08284" lon="5.14163">
        <ele>199.7</ele>
        <time>2022-10-16T12:00:15.000Z</time>
      </trkpt>
      <trkpt lat="45.08286" lon="5.14157">
        <ele>199.5</ele>
        <time>2022-10-16T12:00:16.000Z</time>
      </trkpt>
      <trkpt lat="45.08287" lon="5.14151">
        <ele>199.3</ele>
        <time>2022-10-16T12:00:17.000Z</time>
      </trkpt>
      <trkpt lat="45.08289" lon="5.14144">
        <ele>199.1</ele>
        <time>2022-10-16T12:00:18.000Z</time>
      </trkpt>
      <trkpt lat="45.0829" lon="5.14138">
        <ele>199</ele>
        <time>2022-10-16T12:00:19.000Z</time>
      </trkpt>
      <trkpt lat="45.08291" lon="5.14133">
        <ele>198.8</ele>
        <time>2022-10-16T12:00:20.000Z</time>
      </trkpt>
      <trkpt lat="45.08293" lon="5.14127">
        <ele>198.6</ele>
        <time>2022-10-16T12:00:21.000Z</time>
      </trkpt>
      <trkpt lat="45.08295" lon="5.14121">
        <ele>198.5</ele>
        <time>2022-10-16T12:00:22.000Z</time>
      </trkpt>
      <trkpt lat="45.08296" lon="5.14115">
        <ele>198.4</ele>
        <time>2022-10-16T12:00:23.000Z</time>
      </trkpt>
      <trkpt lat="45.08298" lon="5.14109">
        <ele>198.4</ele>
        <time>2022-10-16T12:00:24.000Z</time>
      </trkpt>
      <trkpt lat="45.083" lon="5.14104">
        <ele>198.5</ele>
        <time>2022-10-16T12:00:25.000Z</time>
      </trkpt>
      <trkpt lat="45.08301" lon="5.14098">
        <ele>198.6</ele>
        <time>2022-10-16T12:00:26.000Z</time>
      </trkpt>
      <trkpt lat="45.08303" lon="5.14093">
        <ele>198.8</ele>
        <time>2022-10-16T12:00:27.000Z</time>
      </trkpt>
      <trkpt lat="45.08305" lon="5.14087">
        <ele>198.9</ele>
        <time>2022-10-16T12:00:28.000Z</time>
      </trkpt>
      <trkpt lat="45.08306" lon="5.14081">
        <ele>199</ele>
        <time>2022-10-16T12:00:29.000Z</time>
      </trkpt>
      <trkpt lat="45.08308" lon="5.14075">
        <ele>199</ele>
        <time>2022-10-16T12:00:30.000Z</time>
      </trkpt>
      <trkpt lat="45.0831" lon="5.14068">
        <ele>198.9</ele>
        <time>2022-10-16T12:00:31.000Z</time>
      </trkpt>
      <trkpt lat="45.08311" lon="5.14063">
        <ele>198.8</ele>
        <time>2022-10-16T12:00:32.000Z</time>
      </trkpt>
      <trkpt lat="45.08313" lon="5.14057">
        <ele>198.7</ele>
        <time>2022-10-16T12:00:33.000Z</time>
      </trkpt>
      <trkpt lat="45.08315" lon="5.14052">
        <ele>198.5</ele>
        <time>2022-10-16T12:00:34.000Z</time>
      </trkpt>
      <trkpt lat="45.08316" lon="5.14046">
        <ele>198.2</ele>
        <time>2022-10-16T12:00:35.000Z</time>
      </trkpt>
      <trkpt lat="45.08318" lon="5.14041">
        <ele>198</ele>
        <time>2022-10-16T12:00:36.000Z</time>
      </trkpt>
      <trkpt lat="45.0832" lon="5.14035">
        <ele>197.8</ele>
        <time>2022-10-16T12:00:37.000Z</time>
      </trkpt>
      <trkpt lat="45.08322" lon="5.14029">
        <ele>197.6</ele>
        <time>2022-10-16T12:00:38.000Z</time>
      </trkpt>
      <trkpt lat="45.08323" lon="5.14023">
        <ele>197.6</ele>
        <time>2022-10-16T12:00:39.000Z</time>
      </trkpt>
      <trkpt lat="45.08325" lon="5.14017">
        <ele>197.6</ele>
        <time>2022-10-16T12:00:40.000Z</time>
      </trkpt>
      <trkpt lat="45.08327" lon="5.14011">
        <ele>197.6</ele>
        <time>2022-10-16T12:00:41.000Z</time>
      </trkpt>
      <trkpt lat="45.08328" lon="5.14006">
        <ele>197.6</ele>
        <time>2022-10-16T12:00:42.000Z</time>
      </trkpt>
      <trkpt lat="45.0833" lon="5.14">
        <ele>197.7</ele>
        <time>2022-10-16T12:00:43.000Z</time>
      </trkpt>
      <trkpt lat="45.08331" lon="5.13994">
        <ele>198</ele>
        <time>2022-10-16T12:00:44.000Z</time>
      </trkpt>
      <trkpt lat="45.08332" lon="5.13989">
        <ele>198.3</ele>
        <time>2022-10-16T12:00:45.000Z</time>
      </trkpt>
      <trkpt lat="45.08334" lon="5.13984">
        <ele>198.6</ele>
        <time>2022-10-16T12:00:46.000Z</time>
      </trkpt>
      <trkpt lat="45.08335" lon="5.13979">
        <ele>198.8</ele>
        <time>2022-10-16T12:00:47.000Z</time>
      </trkpt>
      <trkpt lat="45.08336" lon="5.13974">
        <ele>198.9</ele>
        <time>2022-10-16T12:00:48.000Z</time>
      </trkpt>
      <trkpt lat="45.08337" lon="5.13969">
        <ele>199</ele>
        <time>2022-10-16T12:00:49.000Z</time>
      </trkpt>
      <trkpt lat="45.08338" lon="5.13965">
        <ele>199</ele>
        <time>2022-10-16T12:00:50.000Z</time>
      </trkpt>
      <trkpt lat="45.0834" lon="5.13961">
        <ele>199</ele>
        <time>2022-10-16T12:00:51.000Z</time>
      </trkpt>
      <trkpt lat="45.08341" lon="5.13957">
        <ele>199</ele>
        <time>2022-10-16T12:00:52.000Z</time>
      </trkpt>
      <trkpt lat="45.08342" lon="5.13952">
        <ele>199</ele>
        <time>2022-10-16T12:00:53.000Z</time>
      </trkpt>
      <trkpt lat="45.08344" lon="5.13948">
        <ele>199</ele>
        <time>2022-10-16T12:00:54.000Z</time>
      </trkpt>
      <trkpt lat="45.08345" lon="5.13944">
        <ele>199</ele>
        <time>2022-10-16T12:00:55.000Z</time>
      </trkpt>
      <trkpt lat="45.08347" lon="5.13939">
        <ele>198.8</ele>
        <time>2022-10-16T12:00:56.000Z</time>
      </trkpt>
      <trkpt lat="45.08348" lon="5.13935">
        <ele>198.7</ele>
        <time>2022-10-16T12:00:57.000Z</time>
      </trkpt>
      <trkpt lat="45.0835" lon="5.1393">
        <ele>198.6</ele>
        <time>2022-10-16T12:00:58.000Z</time>
      </trkpt>
      <trkpt lat="45.08351" lon="5.13925">
        <ele>198.5</ele>
        <time>2022-10-16T12:00:59.000Z</time>
      </trkpt>
      <trkpt lat="45.08353" lon="5.13921">
        <ele>198.5</ele>
        <time>2022-10-16T12:01:00.000Z</time>
      </trkpt>
      <trkpt lat="45.08354" lon="5.13916">
        <ele>198.5</ele>
        <time>2022-10-16T12:01:01.000Z</time>
      </trkpt>
      <trkpt lat="45.08356" lon="5.13912">
        <ele>198.8</ele>
        <time>2022-10-16T12:01:02.000Z</time>
      </trkpt>
      <trkpt lat="45.08358" lon="5.13908">
        <ele>199</ele>
        <time>2022-10-16T12:01:03.000Z</time>
      </trkpt>
      <trkpt lat="45.08359" lon="5.13904">
        <ele>199.3</ele>
        <time>2022-10-16T12:01:04.000Z</time>
      </trkpt>
      <trkpt lat="45.08361" lon="5.13899">
        <ele>199.6</ele>
        <time>2022-10-16T12:01:05.000Z</time>
      </trkpt>
      <trkpt lat="45.08362" lon="5.13895">
        <ele>199.8</ele>
        <time>2022-10-16T12:01:06.000Z</time>
      </trkpt>
      <trkpt lat="45.08364" lon="5.13891">
        <ele>199.9</ele>
        <time>2022-10-16T12:01:07.000Z</time>
      </trkpt>
      <trkpt lat="45.08366" lon="5.13887">
        <ele>199.9</ele>
        <time>2022-10-16T12:01:08.000Z</time>
      </trkpt>
      <trkpt lat="45.08367" lon="5.13883">
        <ele>199.7</ele>
        <time>2022-10-16T12:01:09.000Z</time>
      </trkpt>
      <trkpt lat="45.08369" lon="5.13879">
        <ele>199.5</ele>
        <time>2022-10-16T12:01:10.000Z</time>
      </trkpt>
      <trkpt lat="45.08371" lon="5.13875">
        <ele>199.4</ele>
        <time>2022-10-16T12:01:11.000Z</time>
      </trkpt>
      <trkpt lat="45.08373" lon="5.13871">
        <ele>199.3</ele>
        <time>2022-10-16T12:01:12.000Z</time>
      </trkpt>
      <trkpt lat="45.08375" lon="5.13868">
        <ele>199.3</ele>
        <time>2022-10-16T12:01:13.000Z</time>
      </trkpt>
      <trkpt lat="45.08378" lon="5.13864">
        <ele>199.3</ele>
        <time>2022-10-16T12:01:14.000Z</time>
      </trkpt>
      <trkpt lat="45.0838" lon="5.1386">
        <ele>199.4</ele>
        <time>2022-10-16T12:01:15.000Z</time>
      </trkpt>
      <trkpt lat="45.08383" lon="5.13857">
        <ele>199.6</ele>
        <time>2022-10-16T12:01:16.000Z</time>
      </trkpt>
      <trkpt lat="45.08385" lon="5.13853">
        <ele>199.7</ele>
        <time>2022-10-16T12:01:17.000Z</time>
      </trkpt>
      <trkpt lat="45.08388" lon="5.1385">
        <ele>199.9</ele>
        <time>2022-10-16T12:01:18.000Z</time>
      </trkpt>
      <trkpt lat="45.08391" lon="5.13846">
        <ele>200</ele>
        <time>2022-10-16T12:01:19.000Z</time>
      </trkpt>
      <trkpt lat="45.08393" lon="5.13842">
        <ele>200.1</ele>
        <time>2022-10-16T12:01:20.000Z</time>
      </trkpt>
      <trkpt lat="45.08396" lon="5.13838">
        <ele>200.2</ele>
        <time>2022-10-16T12:01:21.000Z</time>
      </trkpt>
      <trkpt lat="45.08398" lon="5.13835">
        <ele>200.3</ele>
        <time>2022-10-16T12:01:22.000Z</time>
      </trkpt>
      <trkpt lat="45.08401" lon="5.13831">
        <ele>200.3</ele>
        <time>2022-10-16T12:01:23.000Z</time>
      </trkpt>
      <trkpt lat="45.08403" lon="5.13828">
        <ele>200.3</ele>
        <time>2022-10-16T12:01:24.000Z</time>
      </trkpt>
      <trkpt lat="45.08405" lon="5.13824">
        <ele>200.2</ele>
        <time>2022-10-16T12:01:25.000Z</time>
      </trkpt>
      <trkpt lat="45.08407" lon="5.13821">
        <ele>200.2</ele>
        <time>2022-10-16T12:01:26.000Z</time>
      </trkpt>
      <trkpt lat="45.0841" lon="5.13818">
        <ele>200.2</ele>
        <time>2022-10-16T12:01:27.000Z</time>
      </trkpt>
      <trkpt lat="45.08412" lon="5.13816">
        <ele>200.2</ele>
        <time>2022-10-16T12:01:28.000Z</time>
      </trkpt>
      <trkpt lat="45.08415" lon="5.13813">
        <ele>200.2</ele>
        <time>2022-10-16T12:01:29.000Z</time>
      </trkpt>
      <trkpt lat="45.08417" lon="5.13811">
        <ele>200.2</ele>
        <time>2022-10-16T12:01:30.000Z</time>
      </trkpt>
      <trkpt lat="45.08419" lon="5.13808">
        <ele>200.2</ele>
        <time>2022-10-16T12:01:31.000Z</time>
      </trkpt>
      <trkpt lat="45.08421" lon="5.13805">
        <ele>200.2</ele>
        <time>2022-10-16T12:01:32.000Z</time>
      </trkpt>
      <trkpt lat="45.08423" lon="5.13803">
        <ele>200.1</ele>
        <time>2022-10-16T12:01:33.000Z</time>
      </trkpt>
      <trkpt lat="45.08425" lon="5.138">
        <ele>200.1</ele>
        <time>2022-10-16T12:01:34.000Z</time>
      </trkpt>
      <trkpt lat="45.08427" lon="5.13797">
        <ele>200.1</ele>
        <time>2022-10-16T12:01:35.000Z</time>
      </trkpt>
      <trkpt lat="45.08429" lon="5.13794">
        <ele>200</ele>
        <time>2022-10-16T12:01:36.000Z</time>
      </trkpt>
      <trkpt lat="45.08431" lon="5.13792">
        <ele>200</ele>
        <time>2022-10-16T12:01:37.000Z</time>
      </trkpt>
      <trkpt lat="45.08433" lon="5.13789">
        <ele>200</ele>
        <time>2022-10-16T12:01:38.000Z</time>
      </trkpt>
      <trkpt lat="45.08435" lon="5.13787">
        <ele>200</ele>
        <time>2022-10-16T12:01:39.000Z</time>
      </trkpt>
      <trkpt lat="45.08437" lon="5.13784">
        <ele>200</ele>
        <time>2022-10-16T12:01:40.000Z</time>
      </trkpt>
      <trkpt lat="45.08439" lon="5.13781">
        <ele>199.9</ele>
        <time>2022-10-16T12:01:41.000Z</time>
      </trkpt>
      <trkpt lat="45.08441" lon="5.13778">
        <ele>199.9</ele>
        <time>2022-10-16T12:01:42.000Z</time>
      </trkpt>
      <trkpt lat="45.08444" lon="5.13775">
        <ele>199.9</ele>
        <time>2022-10-16T12:01:43.000Z</time>
      </trkpt>
      <trkpt lat="45.08447" lon="5.13771">
        <ele>199.9</ele>
        <time>2022-10-16T12:01:44.000Z</time>
      </trkpt>
      <trkpt lat="45.0845" lon="5.13767">
        <ele>199.9</ele>
        <time>2022-10-16T12:01:45.000Z</time>
      </trkpt>
      <trkpt lat="45.08452" lon="5.13764">
        <ele>199.9</ele>
        <time>2022-10-16T12:01:46.000Z</time>
      </trkpt>
      <trkpt lat="45.08455" lon="5.13761">
        <ele>200</ele>
        <time>2022-10-16T12:01:47.000Z</time>
      </trkpt>
      <trkpt lat="45.08458" lon="5.13758">
        <ele>200.1</ele>
        <time>2022-10-16T12:01:48.000Z</time>
      </trkpt>
      <trkpt lat="45.0846" lon="5.13755">
        <ele>200.2</ele>
        <time>2022-10-16T12:01:49.000Z</time>
      </trkpt>
      <trkpt lat="45.08463" lon="5.13753">
        <ele>200.3</ele>
        <time>2022-10-16T12:01:50.000Z</time>
      </trkpt>
      <trkpt lat="45.08465" lon="5.13749">
        <ele>200.4</ele>
        <time>2022-10-16T12:01:51.000Z</time>
      </trkpt>
      <trkpt lat="45.08467" lon="5.13747">
        <ele>200.4</ele>
        <time>2022-10-16T12:01:52.000Z</time>
      </trkpt>
      <trkpt lat="45.0847" lon="5.13744">
        <ele>200.4</ele>
        <time>2022-10-16T12:01:53.000Z</time>
      </trkpt>
      <trkpt lat="45.08472" lon="5.13741">
        <ele>200.3</ele>
        <time>2022-10-16T12:01:54.000Z</time>
      </trkpt>
      <trkpt lat="45.08474" lon="5.13738">
        <ele>200.2</ele>
        <time>2022-10-16T12:01:55.000Z</time>
      </trkpt>
      <trkpt lat="45.08477" lon="5.13735">
        <ele>200.2</ele>
        <time>2022-10-16T12:01:56.000Z</time>
      </trkpt>
      <trkpt lat="45.08479" lon="5.13731">
        <ele>200.1</ele>
        <time>2022-10-16T12:01:57.000Z</time>
      </trkpt>
      <trkpt lat="45.08482" lon="5.13728">
        <ele>200</ele>
        <time>2022-10-16T12:01:58.000Z</time>
      </trkpt>
      <trkpt lat="45.08485" lon="5.13725">
        <ele>200</ele>
        <time>2022-10-16T12:01:59.000Z</time>
      </trkpt>
      <trkpt lat="45.08487" lon="5.13721">
        <ele>200</ele>
        <time>2022-10-16T12:02:00.000Z</time>
      </trkpt>
      <trkpt lat="45.0849" lon="5.13717">
        <ele>200.1</ele>
        <time>2022-10-16T12:02:01.000Z</time>
      </trkpt>
      <trkpt lat="45.08492" lon="5.13714">
        <ele>200.1</ele>
        <time>2022-10-16T12:02:02.000Z</time>
      </trkpt>
      <trkpt lat="45.08494" lon="5.13711">
        <ele>200.2</ele>
        <time>2022-10-16T12:02:03.000Z</time>
      </trkpt>
      <trkpt lat="45.08497" lon="5.13707">
        <ele>200.2</ele>
        <time>2022-10-16T12:02:04.000Z</time>
      </trkpt>
      <trkpt lat="45.08499" lon="5.13704">
        <ele>200.2</ele>
        <time>2022-10-16T12:02:05.000Z</time>
      </trkpt>
      <trkpt lat="45.08501" lon="5.137">
        <ele>200.3</ele>
        <time>2022-10-16T12:02:06.000Z</time>
      </trkpt>
      <trkpt lat="45.08503" lon="5.13697">
        <ele>200.3</ele>
        <time>2022-10-16T12:02:07.000Z</time>
      </trkpt>
      <trkpt lat="45.08505" lon="5.13693">
        <ele>200.3</ele>
        <time>2022-10-16T12:02:08.000Z</time>
      </trkpt>
      <trkpt lat="45.08508" lon="5.1369">
        <ele>200.2</ele>
        <time>2022-10-16T12:02:09.000Z</time>
      </trkpt>
      <trkpt lat="45.08511" lon="5.13687">
        <ele>200.2</ele>
        <time>2022-10-16T12:02:10.000Z</time>
      </trkpt>
      <trkpt lat="45.08514" lon="5.13683">
        <ele>200.2</ele>
        <time>2022-10-16T12:02:11.000Z</time>
      </trkpt>
      <trkpt lat="45.08516" lon="5.1368">
        <ele>200.1</ele>
        <time>2022-10-16T12:02:12.000Z</time>
      </trkpt>
      <trkpt lat="45.08519" lon="5.13677">
        <ele>200.1</ele>
        <time>2022-10-16T12:02:13.000Z</time>
      </trkpt>
      <trkpt lat="45.08521" lon="5.13674">
        <ele>200</ele>
        <time>2022-10-16T12:02:14.000Z</time>
      </trkpt>
      <trkpt lat="45.08524" lon="5.1367">
        <ele>200</ele>
        <time>2022-10-16T12:02:15.000Z</time>
      </trkpt>
      <trkpt lat="45.08527" lon="5.13667">
        <ele>199.9</ele>
        <time>2022-10-16T12:02:16.000Z</time>
      </trkpt>
      <trkpt lat="45.08529" lon="5.13664">
        <ele>199.9</ele>
        <time>2022-10-16T12:02:17.000Z</time>
      </trkpt>
      <trkpt lat="45.08532" lon="5.1366">
        <ele>199.8</ele>
        <time>2022-10-16T12:02:18.000Z</time>
      </trkpt>
      <trkpt lat="45.08535" lon="5.13657">
        <ele>199.8</ele>
        <time>2022-10-16T12:02:19.000Z</time>
      </trkpt>
      <trkpt lat="45.08537" lon="5.13653">
        <ele>199.7</ele>
        <time>2022-10-16T12:02:20.000Z</time>
      </trkpt>
      <trkpt lat="45.0854" lon="5.13649">
        <ele>199.6</ele>
        <time>2022-10-16T12:02:21.000Z</time>
      </trkpt>
      <trkpt lat="45.08542" lon="5.13645">
        <ele>199.5</ele>
        <time>2022-10-16T12:02:22.000Z</time>
      </trkpt>
      <trkpt lat="45.08545" lon="5.13642">
        <ele>199.4</ele>
        <time>2022-10-16T12:02:23.000Z</time>
      </trkpt>
      <trkpt lat="45.08547" lon="5.13639">
        <ele>199.4</ele>
        <time>2022-10-16T12:02:24.000Z</time>
      </trkpt>
      <trkpt lat="45.0855" lon="5.13636">
        <ele>199.5</ele>
        <time>2022-10-16T12:02:25.000Z</time>
      </trkpt>
      <trkpt lat="45.08552" lon="5.13633">
        <ele>199.6</ele>
        <time>2022-10-16T12:02:26.000Z</time>
      </trkpt>
      <trkpt lat="45.08555" lon="5.1363">
        <ele>199.6</ele>
        <time>2022-10-16T12:02:27.000Z</time>
      </trkpt>
      <trkpt lat="45.08558" lon="5.13626">
        <ele>199.6</ele>
        <time>2022-10-16T12:02:28.000Z</time>
      </trkpt>
      <trkpt lat="45.0856" lon="5.13623">
        <ele>199.6</ele>
        <time>2022-10-16T12:02:29.000Z</time>
      </trkpt>
      <trkpt lat="45.08562" lon="5.1362">
        <ele>199.6</ele>
        <time>2022-10-16T12:02:30.000Z</time>
      </trkpt>
      <trkpt lat="45.08565" lon="5.13618">
        <ele>199.6</ele>
        <time>2022-10-16T12:02:31.000Z</time>
      </trkpt>
      <trkpt lat="45.08567" lon="5.13615">
        <ele>199.6</ele>
        <time>2022-10-16T12:02:32.000Z</time>
      </trkpt>
      <trkpt lat="45.08569" lon="5.13612">
        <ele>199.5</ele>
        <time>2022-10-16T12:02:33.000Z</time>
      </trkpt>
      <trkpt lat="45.08571" lon="5.13609">
        <ele>199.5</ele>
        <time>2022-10-16T12:02:34.000Z</time>
      </trkpt>
      <trkpt lat="45.08572" lon="5.13606">
        <ele>199.5</ele>
        <time>2022-10-16T12:02:35.000Z</time>
      </trkpt>
      <trkpt lat="45.08574" lon="5.13604">
        <ele>199.6</ele>
        <time>2022-10-16T12:02:36.000Z</time>
      </trkpt>
      <trkpt lat="45.08576" lon="5.13602">
        <ele>199.6</ele>
        <time>2022-10-16T12:02:37.000Z</time>
      </trkpt>
      <trkpt lat="45.08578" lon="5.13599">
        <ele>199.7</ele>
        <time>2022-10-16T12:02:38.000Z</time>
      </trkpt>
      <trkpt lat="45.08579" lon="5.13596">
        <ele>199.8</ele>
        <time>2022-10-16T12:02:39.000Z</time>
      </trkpt>
      <trkpt lat="45.08581" lon="5.13593">
        <ele>199.9</ele>
        <time>2022-10-16T12:02:40.000Z</time>
      </trkpt>
      <trkpt lat="45.08583" lon="5.1359">
        <ele>200</ele>
        <time>2022-10-16T12:02:41.000Z</time>
      </trkpt>
      <trkpt lat="45.08586" lon="5.13587">
        <ele>199.9</ele>
        <time>2022-10-16T12:02:42.000Z</time>
      </trkpt>
      <trkpt lat="45.08587" lon="5.13584">
        <ele>199.9</ele>
        <time>2022-10-16T12:02:43.000Z</time>
      </trkpt>
      <trkpt lat="45.08589" lon="5.13582">
        <ele>199.7</ele>
        <time>2022-10-16T12:02:44.000Z</time>
      </trkpt>
      <trkpt lat="45.08591" lon="5.13579">
        <ele>199.6</ele>
        <time>2022-10-16T12:02:45.000Z</time>
      </trkpt>
      <trkpt lat="45.08592" lon="5.13576">
        <ele>199.5</ele>
        <time>2022-10-16T12:02:46.000Z</time>
      </trkpt>
      <trkpt lat="45.08594" lon="5.13573">
        <ele>199.4</ele>
        <time>2022-10-16T12:02:47.000Z</time>
      </trkpt>
      <trkpt lat="45.08595" lon="5.1357">
        <ele>199.3</ele>
        <time>2022-10-16T12:02:48.000Z</time>
      </trkpt>
      <trkpt lat="45.08597" lon="5.13567">
        <ele>199.2</ele>
        <time>2022-10-16T12:02:49.000Z</time>
      </trkpt>
      <trkpt lat="45.08598" lon="5.13564">
        <ele>199.1</ele>
        <time>2022-10-16T12:02:50.000Z</time>
      </trkpt>
      <trkpt lat="45.086" lon="5.13561">
        <ele>199.1</ele>
        <time>2022-10-16T12:02:51.000Z</time>
      </trkpt>
      <trkpt lat="45.08601" lon="5.13558">
        <ele>199</ele>
        <time>2022-10-16T12:02:52.000Z</time>
      </trkpt>
      <trkpt lat="45.08602" lon="5.13555">
        <ele>199</ele>
        <time>2022-10-16T12:02:53.000Z</time>
      </trkpt>
      <trkpt lat="45.08603" lon="5.13552">
        <ele>199</ele>
        <time>2022-10-16T12:02:54.000Z</time>
      </trkpt>
      <trkpt lat="45.08604" lon="5.13549">
        <ele>198.9</ele>
        <time>2022-10-16T12:02:55.000Z</time>
      </trkpt>
      <trkpt lat="45.08605" lon="5.13546">
        <ele>198.9</ele>
        <time>2022-10-16T12:02:56.000Z</time>
      </trkpt>
      <trkpt lat="45.08606" lon="5.13543">
        <ele>198.9</ele>
        <time>2022-10-16T12:02:57.000Z</time>
      </trkpt>
      <trkpt lat="45.08608" lon="5.1354">
        <ele>198.9</ele>
        <time>2022-10-16T12:02:58.000Z</time>
      </trkpt>
      <trkpt lat="45.08609" lon="5.13536">
        <ele>198.9</ele>
        <time>2022-10-16T12:02:59.000Z</time>
      </trkpt>
      <trkpt lat="45.0861" lon="5.13532">
        <ele>199</ele>
        <time>2022-10-16T12:03:00.000Z</time>
      </trkpt>
      <trkpt lat="45.08612" lon="5.13528">
        <ele>199</ele>
        <time>2022-10-16T12:03:01.000Z</time>
      </trkpt>
      <trkpt lat="45.08614" lon="5.13524">
        <ele>199</ele>
        <time>2022-10-16T12:03:02.000Z</time>
      </trkpt>
      <trkpt lat="45.08616" lon="5.1352">
        <ele>199</ele>
        <time>2022-10-16T12:03:03.000Z</time>
      </trkpt>
      <trkpt lat="45.08618" lon="5.13517">
        <ele>199</ele>
        <time>2022-10-16T12:03:04.000Z</time>
      </trkpt>
      <trkpt lat="45.08619" lon="5.13513">
        <ele>199</ele>
        <time>2022-10-16T12:03:05.000Z</time>
      </trkpt>
      <trkpt lat="45.0862" lon="5.13509">
        <ele>199</ele>
        <time>2022-10-16T12:03:06.000Z</time>
      </trkpt>
      <trkpt lat="45.08621" lon="5.13506">
        <ele>199</ele>
        <time>2022-10-16T12:03:07.000Z</time>
      </trkpt>
      <trkpt lat="45.08623" lon="5.13503">
        <ele>199</ele>
        <time>2022-10-16T12:03:08.000Z</time>
      </trkpt>
      <trkpt lat="45.08625" lon="5.13501">
        <ele>199</ele>
        <time>2022-10-16T12:03:09.000Z</time>
      </trkpt>
      <trkpt lat="45.08626" lon="5.13498">
        <ele>199.1</ele>
        <time>2022-10-16T12:03:10.000Z</time>
      </trkpt>
      <trkpt lat="45.08628" lon="5.13495">
        <ele>199.2</ele>
        <time>2022-10-16T12:03:11.000Z</time>
      </trkpt>
      <trkpt lat="45.0863" lon="5.13491">
        <ele>199.3</ele>
        <time>2022-10-16T12:03:12.000Z</time>
      </trkpt>
      <trkpt lat="45.08632" lon="5.13487">
        <ele>199.5</ele>
        <time>2022-10-16T12:03:13.000Z</time>
      </trkpt>
      <trkpt lat="45.08634" lon="5.13483">
        <ele>199.6</ele>
        <time>2022-10-16T12:03:14.000Z</time>
      </trkpt>
      <trkpt lat="45.08635" lon="5.13479">
        <ele>199.8</ele>
        <time>2022-10-16T12:03:15.000Z</time>
      </trkpt>
      <trkpt lat="45.08636" lon="5.13475">
        <ele>199.9</ele>
        <time>2022-10-16T12:03:16.000Z</time>
      </trkpt>
      <trkpt lat="45.08637" lon="5.1347">
        <ele>200</ele>
        <time>2022-10-16T12:03:17.000Z</time>
      </trkpt>
      <trkpt lat="45.08639" lon="5.13466">
        <ele>200</ele>
        <time>2022-10-16T12:03:18.000Z</time>
      </trkpt>
      <trkpt lat="45.0864" lon="5.13462">
        <ele>200</ele>
        <time>2022-10-16T12:03:19.000Z</time>
      </trkpt>
      <trkpt lat="45.08641" lon="5.13458">
        <ele>200</ele>
        <time>2022-10-16T12:03:20.000Z</time>
      </trkpt>
      <trkpt lat="45.08643" lon="5.13455">
        <ele>200</ele>
        <time>2022-10-16T12:03:21.000Z</time>
      </trkpt>
      <trkpt lat="45.08644" lon="5.13452">
        <ele>200</ele>
        <time>2022-10-16T12:03:22.000Z</time>
      </trkpt>
      <trkpt lat="45.08646" lon="5.13449">
        <ele>200</ele>
        <time>2022-10-16T12:03:23.000Z</time>
      </trkpt>
      <trkpt lat="45.08647" lon="5.13446">
        <ele>200</ele>
        <time>2022-10-16T12:03:24.000Z</time>
      </trkpt>
      <trkpt lat="45.08648" lon="5.13442">
        <ele>199.9</ele>
        <time>2022-10-16T12:03:25.000Z</time>
      </trkpt>
      <trkpt lat="45.08649" lon="5.13439">
        <ele>199.9</ele>
        <time>2022-10-16T12:03:26.000Z</time>
      </trkpt>
      <trkpt lat="45.0865" lon="5.13437">
        <ele>199.8</ele>
        <time>2022-10-16T12:03:27.000Z</time>
      </trkpt>
      <trkpt lat="45.08651" lon="5.13434">
        <ele>199.8</ele>
        <time>2022-10-16T12:03:28.000Z</time>
      </trkpt>
      <trkpt lat="45.08652" lon="5.13431">
        <ele>199.7</ele>
        <time>2022-10-16T12:03:29.000Z</time>
      </trkpt>
      <trkpt lat="45.08653" lon="5.13428">
        <ele>199.7</ele>
        <time>2022-10-16T12:03:30.000Z</time>
      </trkpt>
      <trkpt lat="45.08655" lon="5.13425">
        <ele>199.7</ele>
        <time>2022-10-16T12:03:31.000Z</time>
      </trkpt>
      <trkpt lat="45.08656" lon="5.13422">
        <ele>199.7</ele>
        <time>2022-10-16T12:03:32.000Z</time>
      </trkpt>
      <trkpt lat="45.08657" lon="5.13419">
        <ele>199.7</ele>
        <time>2022-10-16T12:03:33.000Z</time>
      </trkpt>
      <trkpt lat="45.08658" lon="5.13416">
        <ele>199.7</ele>
        <time>2022-10-16T12:03:34.000Z</time>
      </trkpt>
      <trkpt lat="45.0866" lon="5.13413">
        <ele>199.7</ele>
        <time>2022-10-16T12:03:35.000Z</time>
      </trkpt>
      <trkpt lat="45.08661" lon="5.1341">
        <ele>199.8</ele>
        <time>2022-10-16T12:03:36.000Z</time>
      </trkpt>
      <trkpt lat="45.08662" lon="5.13406">
        <ele>199.8</ele>
        <time>2022-10-16T12:03:37.000Z</time>
      </trkpt>
      <trkpt lat="45.08664" lon="5.13403">
        <ele>199.9</ele>
        <time>2022-10-16T12:03:38.000Z</time>
      </trkpt>
      <trkpt lat="45.08665" lon="5.134">
        <ele>199.9</ele>
        <time>2022-10-16T12:03:39.000Z</time>
      </trkpt>
      <trkpt lat="45.08666" lon="5.13398">
        <ele>200</ele>
        <time>2022-10-16T12:03:40.000Z</time>
      </trkpt>
      <trkpt lat="45.08667" lon="5.13395">
        <ele>200</ele>
        <time>2022-10-16T12:03:41.000Z</time>
      </trkpt>
      <trkpt lat="45.08668" lon="5.13393">
        <ele>200</ele>
        <time>2022-10-16T12:03:42.000Z</time>
      </trkpt>
      <trkpt lat="45.08669" lon="5.1339">
        <ele>200</ele>
        <time>2022-10-16T12:03:43.000Z</time>
      </trkpt>
      <trkpt lat="45.08671" lon="5.13386">
        <ele>200</ele>
        <time>2022-10-16T12:03:44.000Z</time>
      </trkpt>
      <trkpt lat="45.08672" lon="5.13382">
        <ele>200</ele>
        <time>2022-10-16T12:03:45.000Z</time>
      </trkpt>
      <trkpt lat="45.08674" lon="5.13378">
        <ele>200</ele>
        <time>2022-10-16T12:03:46.000Z</time>
      </trkpt>
      <trkpt lat="45.08675" lon="5.13374">
        <ele>200</ele>
        <time>2022-10-16T12:03:47.000Z</time>
      </trkpt>
      <trkpt lat="45.08676" lon="5.1337">
        <ele>200</ele>
        <time>2022-10-16T12:03:48.000Z</time>
      </trkpt>
      <trkpt lat="45.08678" lon="5.13366">
        <ele>200</ele>
        <time>2022-10-16T12:03:49.000Z</time>
      </trkpt>
      <trkpt lat="45.0868" lon="5.13363">
        <ele>200</ele>
        <time>2022-10-16T12:03:50.000Z</time>
      </trkpt>
      <trkpt lat="45.08681" lon="5.13359">
        <ele>200</ele>
        <time>2022-10-16T12:03:51.000Z</time>
      </trkpt>
      <trkpt lat="45.08683" lon="5.13356">
        <ele>199.9</ele>
        <time>2022-10-16T12:03:52.000Z</time>
      </trkpt>
      <trkpt lat="45.08684" lon="5.13353">
        <ele>199.9</ele>
        <time>2022-10-16T12:03:53.000Z</time>
      </trkpt>
      <trkpt lat="45.08686" lon="5.13349">
        <ele>199.9</ele>
        <time>2022-10-16T12:03:54.000Z</time>
      </trkpt>
      <trkpt lat="45.08687" lon="5.13346">
        <ele>199.9</ele>
        <time>2022-10-16T12:03:55.000Z</time>
      </trkpt>
      <trkpt lat="45.08689" lon="5.13343">
        <ele>199.9</ele>
        <time>2022-10-16T12:03:56.000Z</time>
      </trkpt>
      <trkpt lat="45.0869" lon="5.1334">
        <ele>199.9</ele>
        <time>2022-10-16T12:03:57.000Z</time>
      </trkpt>
      <trkpt lat="45.08691" lon="5.13337">
        <ele>199.9</ele>
        <time>2022-10-16T12:03:58.000Z</time>
      </trkpt>
      <trkpt lat="45.08693" lon="5.13333">
        <ele>199.9</ele>
        <time>2022-10-16T12:03:59.000Z</time>
      </trkpt>
      <trkpt lat="45.08695" lon="5.13329">
        <ele>199.8</ele>
        <time>2022-10-16T12:04:00.000Z</time>
      </trkpt>
      <trkpt lat="45.08696" lon="5.13324">
        <ele>199.7</ele>
        <time>2022-10-16T12:04:01.000Z</time>
      </trkpt>
      <trkpt lat="45.08698" lon="5.1332">
        <ele>199.6</ele>
        <time>2022-10-16T12:04:02.000Z</time>
      </trkpt>
      <trkpt lat="45.087" lon="5.13317">
        <ele>199.5</ele>
        <time>2022-10-16T12:04:03.000Z</time>
      </trkpt>
      <trkpt lat="45.08702" lon="5.13314">
        <ele>199.5</ele>
        <time>2022-10-16T12:04:04.000Z</time>
      </trkpt>
      <trkpt lat="45.08703" lon="5.13311">
        <ele>199.4</ele>
        <time>2022-10-16T12:04:05.000Z</time>
      </trkpt>
      <trkpt lat="45.08704" lon="5.13308">
        <ele>199.4</ele>
        <time>2022-10-16T12:04:06.000Z</time>
      </trkpt>
      <trkpt lat="45.08706" lon="5.13306">
        <ele>199.4</ele>
        <time>2022-10-16T12:04:07.000Z</time>
      </trkpt>
      <trkpt lat="45.08707" lon="5.13303">
        <ele>199.4</ele>
        <time>2022-10-16T12:04:08.000Z</time>
      </trkpt>
      <trkpt lat="45.08708" lon="5.133">
        <ele>199.4</ele>
        <time>2022-10-16T12:04:09.000Z</time>
      </trkpt>
      <trkpt lat="45.0871" lon="5.13297">
        <ele>199.4</ele>
        <time>2022-10-16T12:04:10.000Z</time>
      </trkpt>
      <trkpt lat="45.08712" lon="5.13294">
        <ele>199.4</ele>
        <time>2022-10-16T12:04:11.000Z</time>
      </trkpt>
      <trkpt lat="45.08713" lon="5.1329">
        <ele>199.3</ele>
        <time>2022-10-16T12:04:12.000Z</time>
      </trkpt>
      <trkpt lat="45.08715" lon="5.13287">
        <ele>199.2</ele>
        <time>2022-10-16T12:04:13.000Z</time>
      </trkpt>
      <trkpt lat="45.08716" lon="5.13283">
        <ele>199.2</ele>
        <time>2022-10-16T12:04:14.000Z</time>
      </trkpt>
      <trkpt lat="45.08718" lon="5.1328">
        <ele>199.1</ele>
        <time>2022-10-16T12:04:15.000Z</time>
      </trkpt>
      <trkpt lat="45.08719" lon="5.13276">
        <ele>199</ele>
        <time>2022-10-16T12:04:16.000Z</time>
      </trkpt>
      <trkpt lat="45.08721" lon="5.13273">
        <ele>199</ele>
        <time>2022-10-16T12:04:17.000Z</time>
      </trkpt>
      <trkpt lat="45.08722" lon="5.1327">
        <ele>199</ele>
        <time>2022-10-16T12:04:18.000Z</time>
      </trkpt>
      <trkpt lat="45.08724" lon="5.13266">
        <ele>199</ele>
        <time>2022-10-16T12:04:19.000Z</time>
      </trkpt>
      <trkpt lat="45.08725" lon="5.13263">
        <ele>199.1</ele>
        <time>2022-10-16T12:04:20.000Z</time>
      </trkpt>
      <trkpt lat="45.08726" lon="5.1326">
        <ele>199.1</ele>
        <time>2022-10-16T12:04:21.000Z</time>
      </trkpt>
      <trkpt lat="45.08728" lon="5.13257">
        <ele>199.1</ele>
        <time>2022-10-16T12:04:22.000Z</time>
      </trkpt>
      <trkpt lat="45.08729" lon="5.13253">
        <ele>199.2</ele>
        <time>2022-10-16T12:04:23.000Z</time>
      </trkpt>
      <trkpt lat="45.0873" lon="5.13251">
        <ele>199.3</ele>
        <time>2022-10-16T12:04:24.000Z</time>
      </trkpt>
      <trkpt lat="45.08731" lon="5.13247">
        <ele>199.3</ele>
        <time>2022-10-16T12:04:25.000Z</time>
      </trkpt>
      <trkpt lat="45.08733" lon="5.13244">
        <ele>199.3</ele>
        <time>2022-10-16T12:04:26.000Z</time>
      </trkpt>
      <trkpt lat="45.08735" lon="5.1324">
        <ele>199.3</ele>
        <time>2022-10-16T12:04:27.000Z</time>
      </trkpt>
      <trkpt lat="45.08737" lon="5.13237">
        <ele>199.3</ele>
        <time>2022-10-16T12:04:28.000Z</time>
      </trkpt>
      <trkpt lat="45.08739" lon="5.13233">
        <ele>199.2</ele>
        <time>2022-10-16T12:04:29.000Z</time>
      </trkpt>
      <trkpt lat="45.08741" lon="5.13229">
        <ele>199.2</ele>
        <time>2022-10-16T12:04:30.000Z</time>
      </trkpt>
      <trkpt lat="45.08743" lon="5.13224">
        <ele>199.1</ele>
        <time>2022-10-16T12:04:31.000Z</time>
      </trkpt>
      <trkpt lat="45.08745" lon="5.13221">
        <ele>199</ele>
        <time>2022-10-16T12:04:32.000Z</time>
      </trkpt>
      <trkpt lat="45.08747" lon="5.13218">
        <ele>199</ele>
        <time>2022-10-16T12:04:33.000Z</time>
      </trkpt>
      <trkpt lat="45.08749" lon="5.13214">
        <ele>199</ele>
        <time>2022-10-16T12:04:34.000Z</time>
      </trkpt>
      <trkpt lat="45.08751" lon="5.1321">
        <ele>199</ele>
        <time>2022-10-16T12:04:35.000Z</time>
      </trkpt>
      <trkpt lat="45.08752" lon="5.13207">
        <ele>199.1</ele>
        <time>2022-10-16T12:04:36.000Z</time>
      </trkpt>
      <trkpt lat="45.08753" lon="5.13203">
        <ele>199.1</ele>
        <time>2022-10-16T12:04:37.000Z</time>
      </trkpt>
      <trkpt lat="45.08755" lon="5.132">
        <ele>199.2</ele>
        <time>2022-10-16T12:04:38.000Z</time>
      </trkpt>
      <trkpt lat="45.08757" lon="5.13196">
        <ele>199.2</ele>
        <time>2022-10-16T12:04:39.000Z</time>
      </trkpt>
      <trkpt lat="45.08758" lon="5.13193">
        <ele>199.3</ele>
        <time>2022-10-16T12:04:40.000Z</time>
      </trkpt>
      <trkpt lat="45.0876" lon="5.1319">
        <ele>199.3</ele>
        <time>2022-10-16T12:04:41.000Z</time>
      </trkpt>
      <trkpt lat="45.08761" lon="5.13187">
        <ele>199.4</ele>
        <time>2022-10-16T12:04:42.000Z</time>
      </trkpt>
      <trkpt lat="45.08762" lon="5.13185">
        <ele>199.4</ele>
        <time>2022-10-16T12:04:43.000Z</time>
      </trkpt>
      <trkpt lat="45.08763" lon="5.13183">
        <ele>199.5</ele>
        <time>2022-10-16T12:04:44.000Z</time>
      </trkpt>
      <trkpt lat="45.08764" lon="5.13181">
        <ele>199.5</ele>
        <time>2022-10-16T12:04:45.000Z</time>
      </trkpt>
      <trkpt lat="45.08766" lon="5.13178">
        <ele>199.6</ele>
        <time>2022-10-16T12:04:46.000Z</time>
      </trkpt>
      <trkpt lat="45.08767" lon="5.13176">
        <ele>199.6</ele>
        <time>2022-10-16T12:04:47.000Z</time>
      </trkpt>
      <trkpt lat="45.08769" lon="5.13172">
        <ele>199.7</ele>
        <time>2022-10-16T12:04:49.000Z</time>
      </trkpt>
      <trkpt lat="45.08771" lon="5.1317">
        <ele>199.7</ele>
        <time>2022-10-16T12:04:50.000Z</time>
      </trkpt>
      <trkpt lat="45.08773" lon="5.13167">
        <ele>199.8</ele>
        <time>2022-10-16T12:04:52.000Z</time>
      </trkpt>
      <trkpt lat="45.08776" lon="5.13164">
        <ele>199.8</ele>
        <time>2022-10-16T12:04:54.000Z</time>
      </trkpt>
      <trkpt lat="45.08777" lon="5.13161">
        <ele>199.8</ele>
        <time>2022-10-16T12:04:55.000Z</time>
      </trkpt>
      <trkpt lat="45.08779" lon="5.13158">
        <ele>199.7</ele>
        <time>2022-10-16T12:04:56.000Z</time>
      </trkpt>
      <trkpt lat="45.0878" lon="5.13154">
        <ele>199.6</ele>
        <time>2022-10-16T12:04:57.000Z</time>
      </trkpt>
      <trkpt lat="45.08781" lon="5.1315">
        <ele>199.5</ele>
        <time>2022-10-16T12:04:58.000Z</time>
      </trkpt>
      <trkpt lat="45.08782" lon="5.13146">
        <ele>199.4</ele>
        <time>2022-10-16T12:04:59.000Z</time>
      </trkpt>
      <trkpt lat="45.08784" lon="5.13143">
        <ele>199.3</ele>
        <time>2022-10-16T12:05:00.000Z</time>
      </trkpt>
      <trkpt lat="45.08785" lon="5.13141">
        <ele>199.3</ele>
        <time>2022-10-16T12:05:01.000Z</time>
      </trkpt>
      <trkpt lat="45.08786" lon="5.13138">
        <ele>199.3</ele>
        <time>2022-10-16T12:05:02.000Z</time>
      </trkpt>
      <trkpt lat="45.08787" lon="5.13136">
        <ele>199.3</ele>
        <time>2022-10-16T12:05:03.000Z</time>
      </trkpt>
      <trkpt lat="45.08788" lon="5.13133">
        <ele>199.4</ele>
        <time>2022-10-16T12:05:04.000Z</time>
      </trkpt>
      <trkpt lat="45.08789" lon="5.1313">
        <ele>199.4</ele>
        <time>2022-10-16T12:05:05.000Z</time>
      </trkpt>
      <trkpt lat="45.0879" lon="5.13127">
        <ele>199.4</ele>
        <time>2022-10-16T12:05:06.000Z</time>
      </trkpt>
      <trkpt lat="45.08791" lon="5.13125">
        <ele>199.5</ele>
        <time>2022-10-16T12:05:07.000Z</time>
      </trkpt>
      <trkpt lat="45.08792" lon="5.13123">
        <ele>199.5</ele>
        <time>2022-10-16T12:05:08.000Z</time>
      </trkpt>
      <trkpt lat="45.08792" lon="5.1312">
        <ele>199.5</ele>
        <time>2022-10-16T12:05:09.000Z</time>
      </trkpt>
      <trkpt lat="45.08793" lon="5.13116">
        <ele>199.5</ele>
        <time>2022-10-16T12:05:10.000Z</time>
      </trkpt>
      <trkpt lat="45.08793" lon="5.13112">
        <ele>199.6</ele>
        <time>2022-10-16T12:05:11.000Z</time>
      </trkpt>
      <trkpt lat="45.08794" lon="5.13108">
        <ele>199.5</ele>
        <time>2022-10-16T12:05:12.000Z</time>
      </trkpt>
      <trkpt lat="45.08795" lon="5.13104">
        <ele>199.5</ele>
        <time>2022-10-16T12:05:13.000Z</time>
      </trkpt>
      <trkpt lat="45.08795" lon="5.13101">
        <ele>199.4</ele>
        <time>2022-10-16T12:05:14.000Z</time>
      </trkpt>
      <trkpt lat="45.08796" lon="5.13097">
        <ele>199.3</ele>
        <time>2022-10-16T12:05:15.000Z</time>
      </trkpt>
      <trkpt lat="45.08797" lon="5.13094">
        <ele>199.3</ele>
        <time>2022-10-16T12:05:16.000Z</time>
      </trkpt>
      <trkpt lat="45.08798" lon="5.1309">
        <ele>199.2</ele>
        <time>2022-10-16T12:05:17.000Z</time>
      </trkpt>
      <trkpt lat="45.08799" lon="5.13087">
        <ele>199.1</ele>
        <time>2022-10-16T12:05:18.000Z</time>
      </trkpt>
      <trkpt lat="45.088" lon="5.13084">
        <ele>199</ele>
        <time>2022-10-16T12:05:19.000Z</time>
      </trkpt>
      <trkpt lat="45.08801" lon="5.1308">
        <ele>199</ele>
        <time>2022-10-16T12:05:20.000Z</time>
      </trkpt>
      <trkpt lat="45.08802" lon="5.13077">
        <ele>199</ele>
        <time>2022-10-16T12:05:21.000Z</time>
      </trkpt>
      <trkpt lat="45.08803" lon="5.13073">
        <ele>199</ele>
        <time>2022-10-16T12:05:22.000Z</time>
      </trkpt>
      <trkpt lat="45.08805" lon="5.13069">
        <ele>199</ele>
        <time>2022-10-16T12:05:23.000Z</time>
      </trkpt>
      <trkpt lat="45.08806" lon="5.13066">
        <ele>199</ele>
        <time>2022-10-16T12:05:24.000Z</time>
      </trkpt>
      <trkpt lat="45.08807" lon="5.13062">
        <ele>199</ele>
        <time>2022-10-16T12:05:25.000Z</time>
      </trkpt>
      <trkpt lat="45.08807" lon="5.13058">
        <ele>199.1</ele>
        <time>2022-10-16T12:05:26.000Z</time>
      </trkpt>
      <trkpt lat="45.08808" lon="5.13055">
        <ele>199.1</ele>
        <time>2022-10-16T12:05:27.000Z</time>
      </trkpt>
      <trkpt lat="45.08808" lon="5.1305">
        <ele>199.1</ele>
        <time>2022-10-16T12:05:28.000Z</time>
      </trkpt>
      <trkpt lat="45.08808" lon="5.13045">
        <ele>199.1</ele>
        <time>2022-10-16T12:05:29.000Z</time>
      </trkpt>
      <trkpt lat="45.08808" lon="5.13041">
        <ele>199.2</ele>
        <time>2022-10-16T12:05:30.000Z</time>
      </trkpt>
      <trkpt lat="45.08808" lon="5.13036">
        <ele>199.2</ele>
        <time>2022-10-16T12:05:31.000Z</time>
      </trkpt>
      <trkpt lat="45.08807" lon="5.13032">
        <ele>199.1</ele>
        <time>2022-10-16T12:05:32.000Z</time>
      </trkpt>
      <trkpt lat="45.08807" lon="5.13028">
        <ele>199.1</ele>
        <time>2022-10-16T12:05:33.000Z</time>
      </trkpt>
      <trkpt lat="45.08806" lon="5.13024">
        <ele>199.2</ele>
        <time>2022-10-16T12:05:34.000Z</time>
      </trkpt>
      <trkpt lat="45.08807" lon="5.1302">
        <ele>199.4</ele>
        <time>2022-10-16T12:05:35.000Z</time>
      </trkpt>
      <trkpt lat="45.08807" lon="5.13016">
        <ele>199.5</ele>
        <time>2022-10-16T12:05:36.000Z</time>
      </trkpt>
      <trkpt lat="45.08806" lon="5.13012">
        <ele>199.6</ele>
        <time>2022-10-16T12:05:37.000Z</time>
      </trkpt>
      <trkpt lat="45.08806" lon="5.13008">
        <ele>199.8</ele>
        <time>2022-10-16T12:05:38.000Z</time>
      </trkpt>
      <trkpt lat="45.08807" lon="5.13004">
        <ele>199.9</ele>
        <time>2022-10-16T12:05:39.000Z</time>
      </trkpt>
      <trkpt lat="45.08807" lon="5.13">
        <ele>200.1</ele>
        <time>2022-10-16T12:05:40.000Z</time>
      </trkpt>
      <trkpt lat="45.08806" lon="5.12995">
        <ele>200.2</ele>
        <time>2022-10-16T12:05:41.000Z</time>
      </trkpt>
      <trkpt lat="45.08806" lon="5.12991">
        <ele>200.3</ele>
        <time>2022-10-16T12:05:42.000Z</time>
      </trkpt>
      <trkpt lat="45.08806" lon="5.12987">
        <ele>200.5</ele>
        <time>2022-10-16T12:05:43.000Z</time>
      </trkpt>
      <trkpt lat="45.08806" lon="5.12984">
        <ele>200.6</ele>
        <time>2022-10-16T12:05:44.000Z</time>
      </trkpt>
      <trkpt lat="45.08805" lon="5.12979">
        <ele>200.7</ele>
        <time>2022-10-16T12:05:45.000Z</time>
      </trkpt>
      <trkpt lat="45.08804" lon="5.12974">
        <ele>200.9</ele>
        <time>2022-10-16T12:05:46.000Z</time>
      </trkpt>
      <trkpt lat="45.08804" lon="5.12968">
        <ele>200.7</ele>
        <time>2022-10-16T12:05:47.000Z</time>
      </trkpt>
      <trkpt lat="45.08804" lon="5.12964">
        <ele>200.6</ele>
        <time>2022-10-16T12:05:48.000Z</time>
      </trkpt>
      <trkpt lat="45.08804" lon="5.1296">
        <ele>200.5</ele>
        <time>2022-10-16T12:05:49.000Z</time>
      </trkpt>
      <trkpt lat="45.08804" lon="5.12957">
        <ele>200.4</ele>
        <time>2022-10-16T12:05:50.000Z</time>
      </trkpt>
      <trkpt lat="45.08804" lon="5.12953">
        <ele>200.2</ele>
        <time>2022-10-16T12:05:51.000Z</time>
      </trkpt>
      <trkpt lat="45.08804" lon="5.1295">
        <ele>200.1</ele>
        <time>2022-10-16T12:05:52.000Z</time>
      </trkpt>
      <trkpt lat="45.08804" lon="5.12946">
        <ele>200</ele>
        <time>2022-10-16T12:05:53.000Z</time>
      </trkpt>
      <trkpt lat="45.08805" lon="5.12943">
        <ele>200</ele>
        <time>2022-10-16T12:05:54.000Z</time>
      </trkpt>
      <trkpt lat="45.08805" lon="5.12939">
        <ele>200.2</ele>
        <time>2022-10-16T12:05:55.000Z</time>
      </trkpt>
      <trkpt lat="45.08806" lon="5.12936">
        <ele>200.4</ele>
        <time>2022-10-16T12:05:56.000Z</time>
      </trkpt>
      <trkpt lat="45.08808" lon="5.12932">
        <ele>200.7</ele>
        <time>2022-10-16T12:05:57.000Z</time>
      </trkpt>
      <trkpt lat="45.08809" lon="5.12929">
        <ele>200.9</ele>
        <time>2022-10-16T12:05:58.000Z</time>
      </trkpt>
      <trkpt lat="45.08809" lon="5.12925">
        <ele>201.1</ele>
        <time>2022-10-16T12:05:59.000Z</time>
      </trkpt>
      <trkpt lat="45.0881" lon="5.12921">
        <ele>201.3</ele>
        <time>2022-10-16T12:06:00.000Z</time>
      </trkpt>
      <trkpt lat="45.08811" lon="5.12917">
        <ele>201.5</ele>
        <time>2022-10-16T12:06:01.000Z</time>
      </trkpt>
      <trkpt lat="45.08811" lon="5.12913">
        <ele>201.7</ele>
        <time>2022-10-16T12:06:02.000Z</time>
      </trkpt>
      <trkpt lat="45.08812" lon="5.12908">
        <ele>201.7</ele>
        <time>2022-10-16T12:06:03.000Z</time>
      </trkpt>
      <trkpt lat="45.08811" lon="5.12903">
        <ele>201.7</ele>
        <time>2022-10-16T12:06:04.000Z</time>
      </trkpt>
      <trkpt lat="45.08812" lon="5.12898">
        <ele>201.8</ele>
        <time>2022-10-16T12:06:05.000Z</time>
      </trkpt>
      <trkpt lat="45.08812" lon="5.12893">
        <ele>201.8</ele>
        <time>2022-10-16T12:06:06.000Z</time>
      </trkpt>
      <trkpt lat="45.08812" lon="5.12888">
        <ele>201.9</ele>
        <time>2022-10-16T12:06:07.000Z</time>
      </trkpt>
      <trkpt lat="45.08812" lon="5.12883">
        <ele>201.9</ele>
        <time>2022-10-16T12:06:08.000Z</time>
      </trkpt>
      <trkpt lat="45.08812" lon="5.12878">
        <ele>202</ele>
        <time>2022-10-16T12:06:09.000Z</time>
      </trkpt>
      <trkpt lat="45.08813" lon="5.12873">
        <ele>202.1</ele>
        <time>2022-10-16T12:06:10.000Z</time>
      </trkpt>
      <trkpt lat="45.08814" lon="5.12869">
        <ele>202.1</ele>
        <time>2022-10-16T12:06:11.000Z</time>
      </trkpt>
      <trkpt lat="45.08815" lon="5.12864">
        <ele>202.3</ele>
        <time>2022-10-16T12:06:12.000Z</time>
      </trkpt>
      <trkpt lat="45.08815" lon="5.12859">
        <ele>202.4</ele>
        <time>2022-10-16T12:06:13.000Z</time>
      </trkpt>
      <trkpt lat="45.08816" lon="5.12853">
        <ele>202.4</ele>
        <time>2022-10-16T12:06:14.000Z</time>
      </trkpt>
      <trkpt lat="45.08817" lon="5.12848">
        <ele>202.4</ele>
        <time>2022-10-16T12:06:15.000Z</time>
      </trkpt>
      <trkpt lat="45.08818" lon="5.12842">
        <ele>202.4</ele>
        <time>2022-10-16T12:06:16.000Z</time>
      </trkpt>
      <trkpt lat="45.08818" lon="5.12837">
        <ele>202.4</ele>
        <time>2022-10-16T12:06:17.000Z</time>
      </trkpt>
      <trkpt lat="45.08819" lon="5.12832">
        <ele>202.4</ele>
        <time>2022-10-16T12:06:18.000Z</time>
      </trkpt>
      <trkpt lat="45.08819" lon="5.12829">
        <ele>202.6</ele>
        <time>2022-10-16T12:06:19.000Z</time>
      </trkpt>
      <trkpt lat="45.08821" lon="5.12825">
        <ele>202.8</ele>
        <time>2022-10-16T12:06:20.000Z</time>
      </trkpt>
      <trkpt lat="45.08822" lon="5.12822">
        <ele>203</ele>
        <time>2022-10-16T12:06:21.000Z</time>
      </trkpt>
      <trkpt lat="45.08823" lon="5.12819">
        <ele>203.3</ele>
        <time>2022-10-16T12:06:22.000Z</time>
      </trkpt>
      <trkpt lat="45.08824" lon="5.12816">
        <ele>203.4</ele>
        <time>2022-10-16T12:06:23.000Z</time>
      </trkpt>
      <trkpt lat="45.08825" lon="5.12812">
        <ele>203.6</ele>
        <time>2022-10-16T12:06:24.000Z</time>
      </trkpt>
      <trkpt lat="45.08826" lon="5.12809">
        <ele>203.8</ele>
        <time>2022-10-16T12:06:25.000Z</time>
      </trkpt>
      <trkpt lat="45.08826" lon="5.12806">
        <ele>204</ele>
        <time>2022-10-16T12:06:26.000Z</time>
      </trkpt>
      <trkpt lat="45.08827" lon="5.12803">
        <ele>204</ele>
        <time>2022-10-16T12:06:27.000Z</time>
      </trkpt>
      <trkpt lat="45.08827" lon="5.12799">
        <ele>203.9</ele>
        <time>2022-10-16T12:06:28.000Z</time>
      </trkpt>
      <trkpt lat="45.08828" lon="5.12795">
        <ele>204</ele>
        <time>2022-10-16T12:06:29.000Z</time>
      </trkpt>
      <trkpt lat="45.08829" lon="5.12791">
        <ele>204</ele>
        <time>2022-10-16T12:06:30.000Z</time>
      </trkpt>
      <trkpt lat="45.0883" lon="5.12787">
        <ele>203.9</ele>
        <time>2022-10-16T12:06:31.000Z</time>
      </trkpt>
      <trkpt lat="45.0883" lon="5.12783">
        <ele>203.8</ele>
        <time>2022-10-16T12:06:32.000Z</time>
      </trkpt>
      <trkpt lat="45.08831" lon="5.1278">
        <ele>203.8</ele>
        <time>2022-10-16T12:06:33.000Z</time>
      </trkpt>
      <trkpt lat="45.08833" lon="5.12776">
        <ele>203.9</ele>
        <time>2022-10-16T12:06:34.000Z</time>
      </trkpt>
      <trkpt lat="45.08835" lon="5.12772">
        <ele>203.9</ele>
        <time>2022-10-16T12:06:35.000Z</time>
      </trkpt>
      <trkpt lat="45.08836" lon="5.12767">
        <ele>203.9</ele>
        <time>2022-10-16T12:06:36.000Z</time>
      </trkpt>
      <trkpt lat="45.08838" lon="5.12763">
        <ele>203.9</ele>
        <time>2022-10-16T12:06:37.000Z</time>
      </trkpt>
      <trkpt lat="45.0884" lon="5.12759">
        <ele>203.9</ele>
        <time>2022-10-16T12:06:38.000Z</time>
      </trkpt>
      <trkpt lat="45.08841" lon="5.12755">
        <ele>203.9</ele>
        <time>2022-10-16T12:06:39.000Z</time>
      </trkpt>
      <trkpt lat="45.08842" lon="5.12751">
        <ele>203.9</ele>
        <time>2022-10-16T12:06:40.000Z</time>
      </trkpt>
      <trkpt lat="45.08843" lon="5.12748">
        <ele>204</ele>
        <time>2022-10-16T12:06:41.000Z</time>
      </trkpt>
      <trkpt lat="45.08843" lon="5.12746">
        <ele>204.1</ele>
        <time>2022-10-16T12:06:42.000Z</time>
      </trkpt>
      <trkpt lat="45.08844" lon="5.12743">
        <ele>204.2</ele>
        <time>2022-10-16T12:06:43.000Z</time>
      </trkpt>
      <trkpt lat="45.08845" lon="5.1274">
        <ele>204.3</ele>
        <time>2022-10-16T12:06:44.000Z</time>
      </trkpt>
      <trkpt lat="45.08846" lon="5.12737">
        <ele>204.4</ele>
        <time>2022-10-16T12:06:45.000Z</time>
      </trkpt>
      <trkpt lat="45.08847" lon="5.12733">
        <ele>204.5</ele>
        <time>2022-10-16T12:06:46.000Z</time>
      </trkpt>
      <trkpt lat="45.08848" lon="5.1273">
        <ele>204.6</ele>
        <time>2022-10-16T12:06:47.000Z</time>
      </trkpt>
      <trkpt lat="45.08849" lon="5.12727">
        <ele>204.7</ele>
        <time>2022-10-16T12:06:48.000Z</time>
      </trkpt>
      <trkpt lat="45.0885" lon="5.12723">
        <ele>204.8</ele>
        <time>2022-10-16T12:06:49.000Z</time>
      </trkpt>
      <trkpt lat="45.08851" lon="5.12719">
        <ele>204.8</ele>
        <time>2022-10-16T12:06:50.000Z</time>
      </trkpt>
      <trkpt lat="45.08853" lon="5.12715">
        <ele>204.8</ele>
        <time>2022-10-16T12:06:51.000Z</time>
      </trkpt>
      <trkpt lat="45.08854" lon="5.12711">
        <ele>204.8</ele>
        <time>2022-10-16T12:06:52.000Z</time>
      </trkpt>
      <trkpt lat="45.08855" lon="5.12707">
        <ele>204.8</ele>
        <time>2022-10-16T12:06:53.000Z</time>
      </trkpt>
      <trkpt lat="45.08856" lon="5.12704">
        <ele>204.8</ele>
        <time>2022-10-16T12:06:54.000Z</time>
      </trkpt>
      <trkpt lat="45.08857" lon="5.127">
        <ele>204.7</ele>
        <time>2022-10-16T12:06:55.000Z</time>
      </trkpt>
      <trkpt lat="45.08857" lon="5.12695">
        <ele>204.6</ele>
        <time>2022-10-16T12:06:56.000Z</time>
      </trkpt>
      <trkpt lat="45.08858" lon="5.12691">
        <ele>204.6</ele>
        <time>2022-10-16T12:06:57.000Z</time>
      </trkpt>
      <trkpt lat="45.08859" lon="5.12687">
        <ele>204.5</ele>
        <time>2022-10-16T12:06:58.000Z</time>
      </trkpt>
      <trkpt lat="45.08861" lon="5.12682">
        <ele>204.5</ele>
        <time>2022-10-16T12:06:59.000Z</time>
      </trkpt>
      <trkpt lat="45.08862" lon="5.12678">
        <ele>204.5</ele>
        <time>2022-10-16T12:07:00.000Z</time>
      </trkpt>
      <trkpt lat="45.08863" lon="5.12674">
        <ele>204.4</ele>
        <time>2022-10-16T12:07:01.000Z</time>
      </trkpt>
      <trkpt lat="45.08864" lon="5.12669">
        <ele>204.3</ele>
        <time>2022-10-16T12:07:02.000Z</time>
      </trkpt>
      <trkpt lat="45.08865" lon="5.12665">
        <ele>204.3</ele>
        <time>2022-10-16T12:07:03.000Z</time>
      </trkpt>
      <trkpt lat="45.08867" lon="5.12661">
        <ele>204.2</ele>
        <time>2022-10-16T12:07:04.000Z</time>
      </trkpt>
      <trkpt lat="45.08868" lon="5.12657">
        <ele>204.2</ele>
        <time>2022-10-16T12:07:05.000Z</time>
      </trkpt>
      <trkpt lat="45.08869" lon="5.12652">
        <ele>204.2</ele>
        <time>2022-10-16T12:07:06.000Z</time>
      </trkpt>
      <trkpt lat="45.0887" lon="5.12649">
        <ele>204.2</ele>
        <time>2022-10-16T12:07:07.000Z</time>
      </trkpt>
      <trkpt lat="45.08871" lon="5.12645">
        <ele>204.2</ele>
        <time>2022-10-16T12:07:08.000Z</time>
      </trkpt>
      <trkpt lat="45.08872" lon="5.12642">
        <ele>204.2</ele>
        <time>2022-10-16T12:07:09.000Z</time>
      </trkpt>
      <trkpt lat="45.08873" lon="5.12639">
        <ele>204.3</ele>
        <time>2022-10-16T12:07:10.000Z</time>
      </trkpt>
      <trkpt lat="45.08874" lon="5.12636">
        <ele>204.3</ele>
        <time>2022-10-16T12:07:11.000Z</time>
      </trkpt>
      <trkpt lat="45.08875" lon="5.12633">
        <ele>204.3</ele>
        <time>2022-10-16T12:07:12.000Z</time>
      </trkpt>
      <trkpt lat="45.08877" lon="5.1263">
        <ele>204.3</ele>
        <time>2022-10-16T12:07:13.000Z</time>
      </trkpt>
      <trkpt lat="45.08878" lon="5.12626">
        <ele>204.3</ele>
        <time>2022-10-16T12:07:14.000Z</time>
      </trkpt>
      <trkpt lat="45.08879" lon="5.12623">
        <ele>204.3</ele>
        <time>2022-10-16T12:07:15.000Z</time>
      </trkpt>
      <trkpt lat="45.0888" lon="5.12619">
        <ele>204.4</ele>
        <time>2022-10-16T12:07:16.000Z</time>
      </trkpt>
      <trkpt lat="45.08882" lon="5.12616">
        <ele>204.4</ele>
        <time>2022-10-16T12:07:17.000Z</time>
      </trkpt>
      <trkpt lat="45.08884" lon="5.12611">
        <ele>204.4</ele>
        <time>2022-10-16T12:07:18.000Z</time>
      </trkpt>
      <trkpt lat="45.08885" lon="5.12607">
        <ele>204.6</ele>
        <time>2022-10-16T12:07:19.000Z</time>
      </trkpt>
      <trkpt lat="45.08886" lon="5.12604">
        <ele>204.7</ele>
        <time>2022-10-16T12:07:20.000Z</time>
      </trkpt>
      <trkpt lat="45.08888" lon="5.126">
        <ele>204.9</ele>
        <time>2022-10-16T12:07:21.000Z</time>
      </trkpt>
      <trkpt lat="45.08889" lon="5.12598">
        <ele>205</ele>
        <time>2022-10-16T12:07:22.000Z</time>
      </trkpt>
      <trkpt lat="45.0889" lon="5.12595">
        <ele>205</ele>
        <time>2022-10-16T12:07:23.000Z</time>
      </trkpt>
      <trkpt lat="45.08891" lon="5.12593">
        <ele>205</ele>
        <time>2022-10-16T12:07:24.000Z</time>
      </trkpt>
      <trkpt lat="45.08892" lon="5.1259">
        <ele>205</ele>
        <time>2022-10-16T12:07:25.000Z</time>
      </trkpt>
      <trkpt lat="45.08893" lon="5.12587">
        <ele>205</ele>
        <time>2022-10-16T12:07:26.000Z</time>
      </trkpt>
      <trkpt lat="45.08894" lon="5.12584">
        <ele>205</ele>
        <time>2022-10-16T12:07:27.000Z</time>
      </trkpt>
      <trkpt lat="45.08896" lon="5.12581">
        <ele>204.9</ele>
        <time>2022-10-16T12:07:28.000Z</time>
      </trkpt>
      <trkpt lat="45.08897" lon="5.12577">
        <ele>204.7</ele>
        <time>2022-10-16T12:07:29.000Z</time>
      </trkpt>
      <trkpt lat="45.08899" lon="5.12573">
        <ele>204.5</ele>
        <time>2022-10-16T12:07:30.000Z</time>
      </trkpt>
      <trkpt lat="45.08901" lon="5.1257">
        <ele>204.4</ele>
        <time>2022-10-16T12:07:31.000Z</time>
      </trkpt>
      <trkpt lat="45.08902" lon="5.12566">
        <ele>204.3</ele>
        <time>2022-10-16T12:07:32.000Z</time>
      </trkpt>
      <trkpt lat="45.08903" lon="5.12563">
        <ele>204.3</ele>
        <time>2022-10-16T12:07:33.000Z</time>
      </trkpt>
      <trkpt lat="45.08904" lon="5.1256">
        <ele>204.3</ele>
        <time>2022-10-16T12:07:34.000Z</time>
      </trkpt>
      <trkpt lat="45.08906" lon="5.12557">
        <ele>204.2</ele>
        <time>2022-10-16T12:07:35.000Z</time>
      </trkpt>
      <trkpt lat="45.08906" lon="5.12555">
        <ele>204.3</ele>
        <time>2022-10-16T12:07:36.000Z</time>
      </trkpt>
      <trkpt lat="45.08907" lon="5.12552">
        <ele>204.3</ele>
        <time>2022-10-16T12:07:37.000Z</time>
      </trkpt>
      <trkpt lat="45.08908" lon="5.12548">
        <ele>204.4</ele>
        <time>2022-10-16T12:07:38.000Z</time>
      </trkpt>
      <trkpt lat="45.08909" lon="5.12544">
        <ele>204.4</ele>
        <time>2022-10-16T12:07:39.000Z</time>
      </trkpt>
      <trkpt lat="45.0891" lon="5.1254">
        <ele>204.5</ele>
        <time>2022-10-16T12:07:40.000Z</time>
      </trkpt>
      <trkpt lat="45.08911" lon="5.12536">
        <ele>204.6</ele>
        <time>2022-10-16T12:07:41.000Z</time>
      </trkpt>
      <trkpt lat="45.08912" lon="5.12532">
        <ele>204.7</ele>
        <time>2022-10-16T12:07:42.000Z</time>
      </trkpt>
      <trkpt lat="45.08913" lon="5.12528">
        <ele>204.7</ele>
        <time>2022-10-16T12:07:43.000Z</time>
      </trkpt>
      <trkpt lat="45.08914" lon="5.12524">
        <ele>204.6</ele>
        <time>2022-10-16T12:07:44.000Z</time>
      </trkpt>
      <trkpt lat="45.08915" lon="5.1252">
        <ele>204.5</ele>
        <time>2022-10-16T12:07:45.000Z</time>
      </trkpt>
      <trkpt lat="45.08915" lon="5.12515">
        <ele>204.5</ele>
        <time>2022-10-16T12:07:46.000Z</time>
      </trkpt>
      <trkpt lat="45.08916" lon="5.12511">
        <ele>204.4</ele>
        <time>2022-10-16T12:07:47.000Z</time>
      </trkpt>
      <trkpt lat="45.08917" lon="5.12507">
        <ele>204.3</ele>
        <time>2022-10-16T12:07:48.000Z</time>
      </trkpt>
      <trkpt lat="45.08918" lon="5.12503">
        <ele>204.1</ele>
        <time>2022-10-16T12:07:49.000Z</time>
      </trkpt>
      <trkpt lat="45.08918" lon="5.12499">
        <ele>204</ele>
        <time>2022-10-16T12:07:50.000Z</time>
      </trkpt>
      <trkpt lat="45.08919" lon="5.12495">
        <ele>204</ele>
        <time>2022-10-16T12:07:51.000Z</time>
      </trkpt>
      <trkpt lat="45.08919" lon="5.1249">
        <ele>204</ele>
        <time>2022-10-16T12:07:52.000Z</time>
      </trkpt>
      <trkpt lat="45.0892" lon="5.12486">
        <ele>204</ele>
        <time>2022-10-16T12:07:53.000Z</time>
      </trkpt>
      <trkpt lat="45.0892" lon="5.12482">
        <ele>204</ele>
        <time>2022-10-16T12:07:54.000Z</time>
      </trkpt>
      <trkpt lat="45.08921" lon="5.12477">
        <ele>204</ele>
        <time>2022-10-16T12:07:55.000Z</time>
      </trkpt>
      <trkpt lat="45.08921" lon="5.12473">
        <ele>204</ele>
        <time>2022-10-16T12:07:56.000Z</time>
      </trkpt>
      <trkpt lat="45.08921" lon="5.12469">
        <ele>204</ele>
        <time>2022-10-16T12:07:57.000Z</time>
      </trkpt>
      <trkpt lat="45.08922" lon="5.12464">
        <ele>203.9</ele>
        <time>2022-10-16T12:07:58.000Z</time>
      </trkpt>
      <trkpt lat="45.08922" lon="5.1246">
        <ele>203.9</ele>
        <time>2022-10-16T12:07:59.000Z</time>
      </trkpt>
      <trkpt lat="45.08923" lon="5.12455">
        <ele>203.9</ele>
        <time>2022-10-16T12:08:00.000Z</time>
      </trkpt>
      <trkpt lat="45.08923" lon="5.1245">
        <ele>203.8</ele>
        <time>2022-10-16T12:08:01.000Z</time>
      </trkpt>
      <trkpt lat="45.08922" lon="5.12445">
        <ele>203.8</ele>
        <time>2022-10-16T12:08:02.000Z</time>
      </trkpt>
      <trkpt lat="45.08922" lon="5.1244">
        <ele>203.6</ele>
        <time>2022-10-16T12:08:03.000Z</time>
      </trkpt>
      <trkpt lat="45.08922" lon="5.12434">
        <ele>203.4</ele>
        <time>2022-10-16T12:08:04.000Z</time>
      </trkpt>
      <trkpt lat="45.08921" lon="5.12429">
        <ele>203.3</ele>
        <time>2022-10-16T12:08:05.000Z</time>
      </trkpt>
      <trkpt lat="45.08921" lon="5.12423">
        <ele>203.1</ele>
        <time>2022-10-16T12:08:06.000Z</time>
      </trkpt>
      <trkpt lat="45.08921" lon="5.12417">
        <ele>202.9</ele>
        <time>2022-10-16T12:08:07.000Z</time>
      </trkpt>
      <trkpt lat="45.0892" lon="5.12411">
        <ele>202.7</ele>
        <time>2022-10-16T12:08:08.000Z</time>
      </trkpt>
      <trkpt lat="45.0892" lon="5.12405">
        <ele>202.4</ele>
        <time>2022-10-16T12:08:09.000Z</time>
      </trkpt>
      <trkpt lat="45.0892" lon="5.12399">
        <ele>202.2</ele>
        <time>2022-10-16T12:08:10.000Z</time>
      </trkpt>
      <trkpt lat="45.0892" lon="5.12393">
        <ele>202</ele>
        <time>2022-10-16T12:08:11.000Z</time>
      </trkpt>
      <trkpt lat="45.08919" lon="5.12387">
        <ele>201.8</ele>
        <time>2022-10-16T12:08:12.000Z</time>
      </trkpt>
      <trkpt lat="45.08919" lon="5.1238">
        <ele>201.6</ele>
        <time>2022-10-16T12:08:13.000Z</time>
      </trkpt>
      <trkpt lat="45.08918" lon="5.12373">
        <ele>201.4</ele>
        <time>2022-10-16T12:08:14.000Z</time>
      </trkpt>
      <trkpt lat="45.08918" lon="5.12367">
        <ele>201.2</ele>
        <time>2022-10-16T12:08:15.000Z</time>
      </trkpt>
      <trkpt lat="45.08917" lon="5.12361">
        <ele>201</ele>
        <time>2022-10-16T12:08:16.000Z</time>
      </trkpt>
      <trkpt lat="45.08917" lon="5.12355">
        <ele>200.8</ele>
        <time>2022-10-16T12:08:17.000Z</time>
      </trkpt>
      <trkpt lat="45.08917" lon="5.12349">
        <ele>200.5</ele>
        <time>2022-10-16T12:08:18.000Z</time>
      </trkpt>
      <trkpt lat="45.08917" lon="5.12343">
        <ele>200.3</ele>
        <time>2022-10-16T12:08:19.000Z</time>
      </trkpt>
      <trkpt lat="45.08917" lon="5.12336">
        <ele>200.1</ele>
        <time>2022-10-16T12:08:20.000Z</time>
      </trkpt>
      <trkpt lat="45.08917" lon="5.1233">
        <ele>200</ele>
        <time>2022-10-16T12:08:21.000Z</time>
      </trkpt>
      <trkpt lat="45.08917" lon="5.12325">
        <ele>200</ele>
        <time>2022-10-16T12:08:22.000Z</time>
      </trkpt>
      <trkpt lat="45.08917" lon="5.12319">
        <ele>200</ele>
        <time>2022-10-16T12:08:23.000Z</time>
      </trkpt>
      <trkpt lat="45.08917" lon="5.12313">
        <ele>200</ele>
        <time>2022-10-16T12:08:24.000Z</time>
      </trkpt>
      <trkpt lat="45.08917" lon="5.12307">
        <ele>200</ele>
        <time>2022-10-16T12:08:25.000Z</time>
      </trkpt>
      <trkpt lat="45.08917" lon="5.12301">
        <ele>200</ele>
        <time>2022-10-16T12:08:26.000Z</time>
      </trkpt>
      <trkpt lat="45.08917" lon="5.12295">
        <ele>200</ele>
        <time>2022-10-16T12:08:27.000Z</time>
      </trkpt>
      <trkpt lat="45.08917" lon="5.12289">
        <ele>200</ele>
        <time>2022-10-16T12:08:28.000Z</time>
      </trkpt>
      <trkpt lat="45.08917" lon="5.12283">
        <ele>200</ele>
        <time>2022-10-16T12:08:29.000Z</time>
      </trkpt>
      <trkpt lat="45.08917" lon="5.12277">
        <ele>200</ele>
        <time>2022-10-16T12:08:30.000Z</time>
      </trkpt>
      <trkpt lat="45.08917" lon="5.12271">
        <ele>200</ele>
        <time>2022-10-16T12:08:31.000Z</time>
      </trkpt>
      <trkpt lat="45.08918" lon="5.12265">
        <ele>200</ele>
        <time>2022-10-16T12:08:32.000Z</time>
      </trkpt>
      <trkpt lat="45.08918" lon="5.12258">
        <ele>200</ele>
        <time>2022-10-16T12:08:33.000Z</time>
      </trkpt>
      <trkpt lat="45.08918" lon="5.12252">
        <ele>200</ele>
        <time>2022-10-16T12:08:34.000Z</time>
      </trkpt>
      <trkpt lat="45.08917" lon="5.12246">
        <ele>199.8</ele>
        <time>2022-10-16T12:08:35.000Z</time>
      </trkpt>
      <trkpt lat="45.08917" lon="5.12241">
        <ele>199.7</ele>
        <time>2022-10-16T12:08:36.000Z</time>
      </trkpt>
      <trkpt lat="45.08917" lon="5.12236">
        <ele>199.5</ele>
        <time>2022-10-16T12:08:37.000Z</time>
      </trkpt>
      <trkpt lat="45.08916" lon="5.1223">
        <ele>199.3</ele>
        <time>2022-10-16T12:08:38.000Z</time>
      </trkpt>
      <trkpt lat="45.08916" lon="5.12225">
        <ele>199.1</ele>
        <time>2022-10-16T12:08:39.000Z</time>
      </trkpt>
      <trkpt lat="45.08916" lon="5.1222">
        <ele>198.9</ele>
        <time>2022-10-16T12:08:40.000Z</time>
      </trkpt>
      <trkpt lat="45.08915" lon="5.12215">
        <ele>198.9</ele>
        <time>2022-10-16T12:08:41.000Z</time>
      </trkpt>
      <trkpt lat="45.08915" lon="5.1221">
        <ele>198.9</ele>
        <time>2022-10-16T12:08:42.000Z</time>
      </trkpt>
      <trkpt lat="45.08914" lon="5.12205">
        <ele>198.8</ele>
        <time>2022-10-16T12:08:43.000Z</time>
      </trkpt>
      <trkpt lat="45.08914" lon="5.122">
        <ele>198.8</ele>
        <time>2022-10-16T12:08:44.000Z</time>
      </trkpt>
      <trkpt lat="45.08914" lon="5.12194">
        <ele>198.8</ele>
        <time>2022-10-16T12:08:45.000Z</time>
      </trkpt>
      <trkpt lat="45.08914" lon="5.12189">
        <ele>198.6</ele>
        <time>2022-10-16T12:08:46.000Z</time>
      </trkpt>
      <trkpt lat="45.08913" lon="5.12183">
        <ele>198.4</ele>
        <time>2022-10-16T12:08:47.000Z</time>
      </trkpt>
      <trkpt lat="45.08913" lon="5.12178">
        <ele>198.2</ele>
        <time>2022-10-16T12:08:48.000Z</time>
      </trkpt>
      <trkpt lat="45.08913" lon="5.12174">
        <ele>198.1</ele>
        <time>2022-10-16T12:08:49.000Z</time>
      </trkpt>
      <trkpt lat="45.08913" lon="5.12169">
        <ele>197.9</ele>
        <time>2022-10-16T12:08:50.000Z</time>
      </trkpt>
      <trkpt lat="45.08913" lon="5.12165">
        <ele>197.8</ele>
        <time>2022-10-16T12:08:51.000Z</time>
      </trkpt>
      <trkpt lat="45.08912" lon="5.1216">
        <ele>197.6</ele>
        <time>2022-10-16T12:08:52.000Z</time>
      </trkpt>
      <trkpt lat="45.08912" lon="5.12156">
        <ele>197.5</ele>
        <time>2022-10-16T12:08:53.000Z</time>
      </trkpt>
      <trkpt lat="45.08912" lon="5.12152">
        <ele>197.4</ele>
        <time>2022-10-16T12:08:54.000Z</time>
      </trkpt>
      <trkpt lat="45.08911" lon="5.12148">
        <ele>197.2</ele>
        <time>2022-10-16T12:08:55.000Z</time>
      </trkpt>
      <trkpt lat="45.08911" lon="5.12143">
        <ele>197.1</ele>
        <time>2022-10-16T12:08:56.000Z</time>
      </trkpt>
      <trkpt lat="45.0891" lon="5.12138">
        <ele>197</ele>
        <time>2022-10-16T12:08:57.000Z</time>
      </trkpt>
      <trkpt lat="45.0891" lon="5.12133">
        <ele>197</ele>
        <time>2022-10-16T12:08:58.000Z</time>
      </trkpt>
      <trkpt lat="45.08909" lon="5.12127">
        <ele>197</ele>
        <time>2022-10-16T12:08:59.000Z</time>
      </trkpt>
      <trkpt lat="45.08908" lon="5.12122">
        <ele>197</ele>
        <time>2022-10-16T12:09:00.000Z</time>
      </trkpt>
      <trkpt lat="45.08908" lon="5.12116">
        <ele>197</ele>
        <time>2022-10-16T12:09:01.000Z</time>
      </trkpt>
      <trkpt lat="45.08907" lon="5.12111">
        <ele>197</ele>
        <time>2022-10-16T12:09:02.000Z</time>
      </trkpt>
      <trkpt lat="45.08907" lon="5.12106">
        <ele>197</ele>
        <time>2022-10-16T12:09:03.000Z</time>
      </trkpt>
      <trkpt lat="45.08906" lon="5.12101">
        <ele>197</ele>
        <time>2022-10-16T12:09:04.000Z</time>
      </trkpt>
      <trkpt lat="45.08905" lon="5.12096">
        <ele>197</ele>
        <time>2022-10-16T12:09:05.000Z</time>
      </trkpt>
      <trkpt lat="45.08905" lon="5.1209">
        <ele>197</ele>
        <time>2022-10-16T12:09:06.000Z</time>
      </trkpt>
      <trkpt lat="45.08904" lon="5.12085">
        <ele>197</ele>
        <time>2022-10-16T12:09:07.000Z</time>
      </trkpt>
      <trkpt lat="45.08903" lon="5.12079">
        <ele>197</ele>
        <time>2022-10-16T12:09:08.000Z</time>
      </trkpt>
      <trkpt lat="45.08903" lon="5.12074">
        <ele>197</ele>
        <time>2022-10-16T12:09:09.000Z</time>
      </trkpt>
      <trkpt lat="45.08903" lon="5.12069">
        <ele>197</ele>
        <time>2022-10-16T12:09:10.000Z</time>
      </trkpt>
      <trkpt lat="45.08902" lon="5.12064">
        <ele>197</ele>
        <time>2022-10-16T12:09:11.000Z</time>
      </trkpt>
      <trkpt lat="45.08902" lon="5.1206">
        <ele>197</ele>
        <time>2022-10-16T12:09:12.000Z</time>
      </trkpt>
      <trkpt lat="45.08902" lon="5.12056">
        <ele>197</ele>
        <time>2022-10-16T12:09:13.000Z</time>
      </trkpt>
      <trkpt lat="45.08901" lon="5.12051">
        <ele>196.9</ele>
        <time>2022-10-16T12:09:14.000Z</time>
      </trkpt>
      <trkpt lat="45.08901" lon="5.12047">
        <ele>196.9</ele>
        <time>2022-10-16T12:09:15.000Z</time>
      </trkpt>
      <trkpt lat="45.08901" lon="5.12042">
        <ele>196.8</ele>
        <time>2022-10-16T12:09:16.000Z</time>
      </trkpt>
      <trkpt lat="45.08901" lon="5.12037">
        <ele>196.7</ele>
        <time>2022-10-16T12:09:17.000Z</time>
      </trkpt>
      <trkpt lat="45.089" lon="5.12032">
        <ele>196.6</ele>
        <time>2022-10-16T12:09:18.000Z</time>
      </trkpt>
      <trkpt lat="45.089" lon="5.12026">
        <ele>196.6</ele>
        <time>2022-10-16T12:09:19.000Z</time>
      </trkpt>
      <trkpt lat="45.089" lon="5.12021">
        <ele>196.6</ele>
        <time>2022-10-16T12:09:20.000Z</time>
      </trkpt>
      <trkpt lat="45.08899" lon="5.12016">
        <ele>196.6</ele>
        <time>2022-10-16T12:09:21.000Z</time>
      </trkpt>
      <trkpt lat="45.08899" lon="5.12011">
        <ele>196.6</ele>
        <time>2022-10-16T12:09:22.000Z</time>
      </trkpt>
      <trkpt lat="45.08898" lon="5.12007">
        <ele>196.7</ele>
        <time>2022-10-16T12:09:23.000Z</time>
      </trkpt>
      <trkpt lat="45.08898" lon="5.12002">
        <ele>196.7</ele>
        <time>2022-10-16T12:09:24.000Z</time>
      </trkpt>
      <trkpt lat="45.08897" lon="5.11998">
        <ele>196.8</ele>
        <time>2022-10-16T12:09:25.000Z</time>
      </trkpt>
      <trkpt lat="45.08897" lon="5.11993">
        <ele>196.9</ele>
        <time>2022-10-16T12:09:26.000Z</time>
      </trkpt>
      <trkpt lat="45.08896" lon="5.11988">
        <ele>197</ele>
        <time>2022-10-16T12:09:27.000Z</time>
      </trkpt>
      <trkpt lat="45.08896" lon="5.11983">
        <ele>197.2</ele>
        <time>2022-10-16T12:09:28.000Z</time>
      </trkpt>
      <trkpt lat="45.08896" lon="5.11978">
        <ele>197.4</ele>
        <time>2022-10-16T12:09:29.000Z</time>
      </trkpt>
      <trkpt lat="45.08896" lon="5.11972">
        <ele>197.5</ele>
        <time>2022-10-16T12:09:30.000Z</time>
      </trkpt>
      <trkpt lat="45.08895" lon="5.11967">
        <ele>197.4</ele>
        <time>2022-10-16T12:09:31.000Z</time>
      </trkpt>
      <trkpt lat="45.08895" lon="5.11961">
        <ele>197.3</ele>
        <time>2022-10-16T12:09:32.000Z</time>
      </trkpt>
      <trkpt lat="45.08895" lon="5.11956">
        <ele>197.1</ele>
        <time>2022-10-16T12:09:33.000Z</time>
      </trkpt>
      <trkpt lat="45.08895" lon="5.11951">
        <ele>197</ele>
        <time>2022-10-16T12:09:34.000Z</time>
      </trkpt>
      <trkpt lat="45.08894" lon="5.11946">
        <ele>196.8</ele>
        <time>2022-10-16T12:09:35.000Z</time>
      </trkpt>
      <trkpt lat="45.08894" lon="5.11941">
        <ele>196.8</ele>
        <time>2022-10-16T12:09:36.000Z</time>
      </trkpt>
      <trkpt lat="45.08893" lon="5.11937">
        <ele>196.8</ele>
        <time>2022-10-16T12:09:37.000Z</time>
      </trkpt>
      <trkpt lat="45.08893" lon="5.11932">
        <ele>196.9</ele>
        <time>2022-10-16T12:09:38.000Z</time>
      </trkpt>
      <trkpt lat="45.08893" lon="5.11928">
        <ele>196.9</ele>
        <time>2022-10-16T12:09:39.000Z</time>
      </trkpt>
      <trkpt lat="45.08893" lon="5.11923">
        <ele>196.9</ele>
        <time>2022-10-16T12:09:40.000Z</time>
      </trkpt>
      <trkpt lat="45.08893" lon="5.11918">
        <ele>196.9</ele>
        <time>2022-10-16T12:09:41.000Z</time>
      </trkpt>
      <trkpt lat="45.08892" lon="5.11912">
        <ele>196.7</ele>
        <time>2022-10-16T12:09:42.000Z</time>
      </trkpt>
      <trkpt lat="45.08892" lon="5.11906">
        <ele>196.6</ele>
        <time>2022-10-16T12:09:43.000Z</time>
      </trkpt>
      <trkpt lat="45.08891" lon="5.11901">
        <ele>196.4</ele>
        <time>2022-10-16T12:09:44.000Z</time>
      </trkpt>
      <trkpt lat="45.08891" lon="5.11895">
        <ele>196.2</ele>
        <time>2022-10-16T12:09:45.000Z</time>
      </trkpt>
      <trkpt lat="45.0889" lon="5.11889">
        <ele>196</ele>
        <time>2022-10-16T12:09:46.000Z</time>
      </trkpt>
      <trkpt lat="45.0889" lon="5.11884">
        <ele>196</ele>
        <time>2022-10-16T12:09:47.000Z</time>
      </trkpt>
      <trkpt lat="45.0889" lon="5.11879">
        <ele>196</ele>
        <time>2022-10-16T12:09:48.000Z</time>
      </trkpt>
      <trkpt lat="45.0889" lon="5.11873">
        <ele>196</ele>
        <time>2022-10-16T12:09:49.000Z</time>
      </trkpt>
      <trkpt lat="45.08889" lon="5.11868">
        <ele>196</ele>
        <time>2022-10-16T12:09:50.000Z</time>
      </trkpt>
      <trkpt lat="45.08889" lon="5.11864">
        <ele>196</ele>
        <time>2022-10-16T12:09:51.000Z</time>
      </trkpt>
      <trkpt lat="45.08888" lon="5.1186">
        <ele>196</ele>
        <time>2022-10-16T12:09:52.000Z</time>
      </trkpt>
      <trkpt lat="45.08889" lon="5.11856">
        <ele>196</ele>
        <time>2022-10-16T12:09:53.000Z</time>
      </trkpt>
      <trkpt lat="45.08888" lon="5.11853">
        <ele>196</ele>
        <time>2022-10-16T12:09:54.000Z</time>
      </trkpt>
      <trkpt lat="45.08888" lon="5.11848">
        <ele>196</ele>
        <time>2022-10-16T12:09:55.000Z</time>
      </trkpt>
      <trkpt lat="45.08887" lon="5.11844">
        <ele>195.9</ele>
        <time>2022-10-16T12:09:56.000Z</time>
      </trkpt>
      <trkpt lat="45.08887" lon="5.1184">
        <ele>195.9</ele>
        <time>2022-10-16T12:09:57.000Z</time>
      </trkpt>
      <trkpt lat="45.08887" lon="5.11835">
        <ele>195.9</ele>
        <time>2022-10-16T12:09:58.000Z</time>
      </trkpt>
      <trkpt lat="45.08887" lon="5.1183">
        <ele>195.8</ele>
        <time>2022-10-16T12:09:59.000Z</time>
      </trkpt>
      <trkpt lat="45.08887" lon="5.11826">
        <ele>195.7</ele>
        <time>2022-10-16T12:10:00.000Z</time>
      </trkpt>
      <trkpt lat="45.08886" lon="5.11821">
        <ele>195.5</ele>
        <time>2022-10-16T12:10:01.000Z</time>
      </trkpt>
      <trkpt lat="45.08886" lon="5.11815">
        <ele>195.3</ele>
        <time>2022-10-16T12:10:02.000Z</time>
      </trkpt>
      <trkpt lat="45.08886" lon="5.1181">
        <ele>195.1</ele>
        <time>2022-10-16T12:10:03.000Z</time>
      </trkpt>
      <trkpt lat="45.08885" lon="5.11805">
        <ele>195</ele>
        <time>2022-10-16T12:10:04.000Z</time>
      </trkpt>
      <trkpt lat="45.08885" lon="5.118">
        <ele>195</ele>
        <time>2022-10-16T12:10:05.000Z</time>
      </trkpt>
      <trkpt lat="45.08885" lon="5.11795">
        <ele>195</ele>
        <time>2022-10-16T12:10:06.000Z</time>
      </trkpt>
      <trkpt lat="45.08884" lon="5.11791">
        <ele>195</ele>
        <time>2022-10-16T12:10:07.000Z</time>
      </trkpt>
      <trkpt lat="45.08884" lon="5.11786">
        <ele>195</ele>
        <time>2022-10-16T12:10:08.000Z</time>
      </trkpt>
      <trkpt lat="45.08884" lon="5.11782">
        <ele>195</ele>
        <time>2022-10-16T12:10:09.000Z</time>
      </trkpt>
      <trkpt lat="45.08883" lon="5.11777">
        <ele>195</ele>
        <time>2022-10-16T12:10:10.000Z</time>
      </trkpt>
      <trkpt lat="45.08883" lon="5.11773">
        <ele>195</ele>
        <time>2022-10-16T12:10:11.000Z</time>
      </trkpt>
      <trkpt lat="45.08882" lon="5.11768">
        <ele>195</ele>
        <time>2022-10-16T12:10:12.000Z</time>
      </trkpt>
      <trkpt lat="45.08882" lon="5.11764">
        <ele>195</ele>
        <time>2022-10-16T12:10:13.000Z</time>
      </trkpt>
      <trkpt lat="45.08882" lon="5.11759">
        <ele>195</ele>
        <time>2022-10-16T12:10:14.000Z</time>
      </trkpt>
      <trkpt lat="45.08882" lon="5.11754">
        <ele>195</ele>
        <time>2022-10-16T12:10:15.000Z</time>
      </trkpt>
      <trkpt lat="45.08881" lon="5.11749">
        <ele>195</ele>
        <time>2022-10-16T12:10:16.000Z</time>
      </trkpt>
      <trkpt lat="45.08881" lon="5.11743">
        <ele>195</ele>
        <time>2022-10-16T12:10:17.000Z</time>
      </trkpt>
      <trkpt lat="45.08881" lon="5.11737">
        <ele>195</ele>
        <time>2022-10-16T12:10:18.000Z</time>
      </trkpt>
      <trkpt lat="45.08881" lon="5.11731">
        <ele>195</ele>
        <time>2022-10-16T12:10:19.000Z</time>
      </trkpt>
      <trkpt lat="45.0888" lon="5.11725">
        <ele>195</ele>
        <time>2022-10-16T12:10:20.000Z</time>
      </trkpt>
      <trkpt lat="45.0888" lon="5.1172">
        <ele>195</ele>
        <time>2022-10-16T12:10:21.000Z</time>
      </trkpt>
      <trkpt lat="45.0888" lon="5.11716">
        <ele>195.2</ele>
        <time>2022-10-16T12:10:22.000Z</time>
      </trkpt>
      <trkpt lat="45.0888" lon="5.11712">
        <ele>195.3</ele>
        <time>2022-10-16T12:10:23.000Z</time>
      </trkpt>
      <trkpt lat="45.0888" lon="5.11707">
        <ele>195.4</ele>
        <time>2022-10-16T12:10:24.000Z</time>
      </trkpt>
      <trkpt lat="45.08879" lon="5.11704">
        <ele>195.4</ele>
        <time>2022-10-16T12:10:25.000Z</time>
      </trkpt>
      <trkpt lat="45.08878" lon="5.117">
        <ele>195.5</ele>
        <time>2022-10-16T12:10:26.000Z</time>
      </trkpt>
      <trkpt lat="45.08877" lon="5.11697">
        <ele>195.5</ele>
        <time>2022-10-16T12:10:27.000Z</time>
      </trkpt>
      <trkpt lat="45.08877" lon="5.11693">
        <ele>195.5</ele>
        <time>2022-10-16T12:10:28.000Z</time>
      </trkpt>
      <trkpt lat="45.08877" lon="5.11689">
        <ele>195.4</ele>
        <time>2022-10-16T12:10:29.000Z</time>
      </trkpt>
      <trkpt lat="45.08877" lon="5.11685">
        <ele>195.4</ele>
        <time>2022-10-16T12:10:30.000Z</time>
      </trkpt>
      <trkpt lat="45.08876" lon="5.1168">
        <ele>195.3</ele>
        <time>2022-10-16T12:10:31.000Z</time>
      </trkpt>
      <trkpt lat="45.08876" lon="5.11676">
        <ele>195.2</ele>
        <time>2022-10-16T12:10:32.000Z</time>
      </trkpt>
      <trkpt lat="45.08875" lon="5.11671">
        <ele>195.1</ele>
        <time>2022-10-16T12:10:33.000Z</time>
      </trkpt>
      <trkpt lat="45.08875" lon="5.11667">
        <ele>195</ele>
        <time>2022-10-16T12:10:34.000Z</time>
      </trkpt>
      <trkpt lat="45.08874" lon="5.11662">
        <ele>195</ele>
        <time>2022-10-16T12:10:35.000Z</time>
      </trkpt>
      <trkpt lat="45.08874" lon="5.11657">
        <ele>195</ele>
        <time>2022-10-16T12:10:36.000Z</time>
      </trkpt>
      <trkpt lat="45.08873" lon="5.11653">
        <ele>195.1</ele>
        <time>2022-10-16T12:10:37.000Z</time>
      </trkpt>
      <trkpt lat="45.08873" lon="5.11648">
        <ele>195.1</ele>
        <time>2022-10-16T12:10:38.000Z</time>
      </trkpt>
      <trkpt lat="45.08873" lon="5.11644">
        <ele>195.1</ele>
        <time>2022-10-16T12:10:39.000Z</time>
      </trkpt>
      <trkpt lat="45.08873" lon="5.1164">
        <ele>195.2</ele>
        <time>2022-10-16T12:10:40.000Z</time>
      </trkpt>
      <trkpt lat="45.08872" lon="5.11636">
        <ele>195.2</ele>
        <time>2022-10-16T12:10:41.000Z</time>
      </trkpt>
      <trkpt lat="45.08872" lon="5.11631">
        <ele>195.2</ele>
        <time>2022-10-16T12:10:42.000Z</time>
      </trkpt>
      <trkpt lat="45.08872" lon="5.11627">
        <ele>195.2</ele>
        <time>2022-10-16T12:10:43.000Z</time>
      </trkpt>
      <trkpt lat="45.08872" lon="5.11622">
        <ele>195.2</ele>
        <time>2022-10-16T12:10:44.000Z</time>
      </trkpt>
      <trkpt lat="45.08872" lon="5.11618">
        <ele>195.3</ele>
        <time>2022-10-16T12:10:45.000Z</time>
      </trkpt>
      <trkpt lat="45.08872" lon="5.11613">
        <ele>195.3</ele>
        <time>2022-10-16T12:10:46.000Z</time>
      </trkpt>
      <trkpt lat="45.08871" lon="5.11607">
        <ele>195.5</ele>
        <time>2022-10-16T12:10:47.000Z</time>
      </trkpt>
      <trkpt lat="45.08872" lon="5.11602">
        <ele>195.7</ele>
        <time>2022-10-16T12:10:48.000Z</time>
      </trkpt>
      <trkpt lat="45.08872" lon="5.11598">
        <ele>195.9</ele>
        <time>2022-10-16T12:10:49.000Z</time>
      </trkpt>
      <trkpt lat="45.08871" lon="5.11593">
        <ele>196.2</ele>
        <time>2022-10-16T12:10:50.000Z</time>
      </trkpt>
      <trkpt lat="45.08871" lon="5.11589">
        <ele>196.4</ele>
        <time>2022-10-16T12:10:51.000Z</time>
      </trkpt>
      <trkpt lat="45.08871" lon="5.11585">
        <ele>196.6</ele>
        <time>2022-10-16T12:10:52.000Z</time>
      </trkpt>
      <trkpt lat="45.0887" lon="5.11581">
        <ele>196.6</ele>
        <time>2022-10-16T12:10:53.000Z</time>
      </trkpt>
      <trkpt lat="45.08869" lon="5.11577">
        <ele>196.5</ele>
        <time>2022-10-16T12:10:54.000Z</time>
      </trkpt>
      <trkpt lat="45.08869" lon="5.11572">
        <ele>196.3</ele>
        <time>2022-10-16T12:10:55.000Z</time>
      </trkpt>
      <trkpt lat="45.08868" lon="5.11567">
        <ele>196.2</ele>
        <time>2022-10-16T12:10:56.000Z</time>
      </trkpt>
      <trkpt lat="45.08868" lon="5.11563">
        <ele>196</ele>
        <time>2022-10-16T12:10:57.000Z</time>
      </trkpt>
      <trkpt lat="45.08867" lon="5.11557">
        <ele>195.8</ele>
        <time>2022-10-16T12:10:58.000Z</time>
      </trkpt>
      <trkpt lat="45.08866" lon="5.11551">
        <ele>195.8</ele>
        <time>2022-10-16T12:10:59.000Z</time>
      </trkpt>
      <trkpt lat="45.08866" lon="5.11546">
        <ele>195.8</ele>
        <time>2022-10-16T12:11:00.000Z</time>
      </trkpt>
      <trkpt lat="45.08865" lon="5.1154">
        <ele>195.8</ele>
        <time>2022-10-16T12:11:01.000Z</time>
      </trkpt>
      <trkpt lat="45.08865" lon="5.11535">
        <ele>195.8</ele>
        <time>2022-10-16T12:11:02.000Z</time>
      </trkpt>
      <trkpt lat="45.08864" lon="5.11529">
        <ele>195.8</ele>
        <time>2022-10-16T12:11:03.000Z</time>
      </trkpt>
      <trkpt lat="45.08864" lon="5.11524">
        <ele>195.7</ele>
        <time>2022-10-16T12:11:04.000Z</time>
      </trkpt>
      <trkpt lat="45.08863" lon="5.11518">
        <ele>195.5</ele>
        <time>2022-10-16T12:11:05.000Z</time>
      </trkpt>
      <trkpt lat="45.08863" lon="5.11513">
        <ele>195.4</ele>
        <time>2022-10-16T12:11:06.000Z</time>
      </trkpt>
      <trkpt lat="45.08862" lon="5.11508">
        <ele>195.2</ele>
        <time>2022-10-16T12:11:07.000Z</time>
      </trkpt>
      <trkpt lat="45.08861" lon="5.11503">
        <ele>195.1</ele>
        <time>2022-10-16T12:11:08.000Z</time>
      </trkpt>
      <trkpt lat="45.08861" lon="5.11498">
        <ele>195</ele>
        <time>2022-10-16T12:11:09.000Z</time>
      </trkpt>
      <trkpt lat="45.0886" lon="5.11493">
        <ele>195</ele>
        <time>2022-10-16T12:11:10.000Z</time>
      </trkpt>
      <trkpt lat="45.0886" lon="5.11487">
        <ele>195</ele>
        <time>2022-10-16T12:11:11.000Z</time>
      </trkpt>
      <trkpt lat="45.0886" lon="5.11482">
        <ele>194.9</ele>
        <time>2022-10-16T12:11:12.000Z</time>
      </trkpt>
      <trkpt lat="45.08859" lon="5.11478">
        <ele>194.9</ele>
        <time>2022-10-16T12:11:13.000Z</time>
      </trkpt>
      <trkpt lat="45.08859" lon="5.11473">
        <ele>194.9</ele>
        <time>2022-10-16T12:11:14.000Z</time>
      </trkpt>
      <trkpt lat="45.08859" lon="5.11468">
        <ele>194.9</ele>
        <time>2022-10-16T12:11:15.000Z</time>
      </trkpt>
      <trkpt lat="45.08859" lon="5.11463">
        <ele>194.9</ele>
        <time>2022-10-16T12:11:16.000Z</time>
      </trkpt>
      <trkpt lat="45.08858" lon="5.11458">
        <ele>194.9</ele>
        <time>2022-10-16T12:11:17.000Z</time>
      </trkpt>
      <trkpt lat="45.08858" lon="5.11454">
        <ele>194.9</ele>
        <time>2022-10-16T12:11:18.000Z</time>
      </trkpt>
      <trkpt lat="45.08858" lon="5.11449">
        <ele>194.9</ele>
        <time>2022-10-16T12:11:19.000Z</time>
      </trkpt>
      <trkpt lat="45.08857" lon="5.11444">
        <ele>194.8</ele>
        <time>2022-10-16T12:11:20.000Z</time>
      </trkpt>
      <trkpt lat="45.08857" lon="5.11439">
        <ele>194.7</ele>
        <time>2022-10-16T12:11:21.000Z</time>
      </trkpt>
      <trkpt lat="45.08857" lon="5.11434">
        <ele>194.6</ele>
        <time>2022-10-16T12:11:22.000Z</time>
      </trkpt>
      <trkpt lat="45.08856" lon="5.11429">
        <ele>194.5</ele>
        <time>2022-10-16T12:11:23.000Z</time>
      </trkpt>
      <trkpt lat="45.08856" lon="5.11424">
        <ele>194.4</ele>
        <time>2022-10-16T12:11:24.000Z</time>
      </trkpt>
      <trkpt lat="45.08856" lon="5.1142">
        <ele>194.3</ele>
        <time>2022-10-16T12:11:25.000Z</time>
      </trkpt>
      <trkpt lat="45.08856" lon="5.11415">
        <ele>194.2</ele>
        <time>2022-10-16T12:11:26.000Z</time>
      </trkpt>
      <trkpt lat="45.08855" lon="5.1141">
        <ele>194.2</ele>
        <time>2022-10-16T12:11:27.000Z</time>
      </trkpt>
      <trkpt lat="45.08855" lon="5.11406">
        <ele>194.1</ele>
        <time>2022-10-16T12:11:28.000Z</time>
      </trkpt>
      <trkpt lat="45.08855" lon="5.114">
        <ele>194.1</ele>
        <time>2022-10-16T12:11:29.000Z</time>
      </trkpt>
      <trkpt lat="45.08854" lon="5.11395">
        <ele>194.1</ele>
        <time>2022-10-16T12:11:30.000Z</time>
      </trkpt>
      <trkpt lat="45.08853" lon="5.1139">
        <ele>194</ele>
        <time>2022-10-16T12:11:31.000Z</time>
      </trkpt>
      <trkpt lat="45.08852" lon="5.11384">
        <ele>194</ele>
        <time>2022-10-16T12:11:32.000Z</time>
      </trkpt>
      <trkpt lat="45.08852" lon="5.11379">
        <ele>194</ele>
        <time>2022-10-16T12:11:33.000Z</time>
      </trkpt>
      <trkpt lat="45.08851" lon="5.11374">
        <ele>194</ele>
        <time>2022-10-16T12:11:34.000Z</time>
      </trkpt>
      <trkpt lat="45.08851" lon="5.11368">
        <ele>194</ele>
        <time>2022-10-16T12:11:35.000Z</time>
      </trkpt>
      <trkpt lat="45.0885" lon="5.11362">
        <ele>194</ele>
        <time>2022-10-16T12:11:36.000Z</time>
      </trkpt>
      <trkpt lat="45.08849" lon="5.11356">
        <ele>193.9</ele>
        <time>2022-10-16T12:11:37.000Z</time>
      </trkpt>
      <trkpt lat="45.08849" lon="5.1135">
        <ele>193.8</ele>
        <time>2022-10-16T12:11:38.000Z</time>
      </trkpt>
      <trkpt lat="45.08849" lon="5.11345">
        <ele>193.7</ele>
        <time>2022-10-16T12:11:39.000Z</time>
      </trkpt>
      <trkpt lat="45.08848" lon="5.11339">
        <ele>193.6</ele>
        <time>2022-10-16T12:11:40.000Z</time>
      </trkpt>
      <trkpt lat="45.08847" lon="5.11333">
        <ele>193.5</ele>
        <time>2022-10-16T12:11:41.000Z</time>
      </trkpt>
      <trkpt lat="45.08847" lon="5.11327">
        <ele>193.5</ele>
        <time>2022-10-16T12:11:42.000Z</time>
      </trkpt>
      <trkpt lat="45.08846" lon="5.11322">
        <ele>193.5</ele>
        <time>2022-10-16T12:11:43.000Z</time>
      </trkpt>
      <trkpt lat="45.08846" lon="5.11317">
        <ele>193.6</ele>
        <time>2022-10-16T12:11:44.000Z</time>
      </trkpt>
      <trkpt lat="45.08845" lon="5.11312">
        <ele>193.6</ele>
        <time>2022-10-16T12:11:45.000Z</time>
      </trkpt>
      <trkpt lat="45.08845" lon="5.11307">
        <ele>193.6</ele>
        <time>2022-10-16T12:11:46.000Z</time>
      </trkpt>
      <trkpt lat="45.08844" lon="5.11302">
        <ele>193.6</ele>
        <time>2022-10-16T12:11:47.000Z</time>
      </trkpt>
      <trkpt lat="45.08844" lon="5.11297">
        <ele>193.6</ele>
        <time>2022-10-16T12:11:48.000Z</time>
      </trkpt>
      <trkpt lat="45.08843" lon="5.11293">
        <ele>193.6</ele>
        <time>2022-10-16T12:11:49.000Z</time>
      </trkpt>
      <trkpt lat="45.08843" lon="5.11289">
        <ele>193.7</ele>
        <time>2022-10-16T12:11:50.000Z</time>
      </trkpt>
      <trkpt lat="45.08842" lon="5.11285">
        <ele>193.7</ele>
        <time>2022-10-16T12:11:51.000Z</time>
      </trkpt>
      <trkpt lat="45.08842" lon="5.11281">
        <ele>193.7</ele>
        <time>2022-10-16T12:11:52.000Z</time>
      </trkpt>
      <trkpt lat="45.08842" lon="5.11277">
        <ele>193.7</ele>
        <time>2022-10-16T12:11:53.000Z</time>
      </trkpt>
      <trkpt lat="45.08842" lon="5.11272">
        <ele>193.7</ele>
        <time>2022-10-16T12:11:54.000Z</time>
      </trkpt>
      <trkpt lat="45.08842" lon="5.11268">
        <ele>193.7</ele>
        <time>2022-10-16T12:11:55.000Z</time>
      </trkpt>
      <trkpt lat="45.08842" lon="5.11263">
        <ele>193.7</ele>
        <time>2022-10-16T12:11:56.000Z</time>
      </trkpt>
      <trkpt lat="45.08841" lon="5.11258">
        <ele>193.7</ele>
        <time>2022-10-16T12:11:57.000Z</time>
      </trkpt>
      <trkpt lat="45.08841" lon="5.11252">
        <ele>193.7</ele>
        <time>2022-10-16T12:11:58.000Z</time>
      </trkpt>
      <trkpt lat="45.0884" lon="5.11246">
        <ele>193.8</ele>
        <time>2022-10-16T12:11:59.000Z</time>
      </trkpt>
      <trkpt lat="45.0884" lon="5.1124">
        <ele>193.8</ele>
        <time>2022-10-16T12:12:00.000Z</time>
      </trkpt>
      <trkpt lat="45.0884" lon="5.11234">
        <ele>193.8</ele>
        <time>2022-10-16T12:12:01.000Z</time>
      </trkpt>
      <trkpt lat="45.08839" lon="5.11228">
        <ele>193.8</ele>
        <time>2022-10-16T12:12:02.000Z</time>
      </trkpt>
      <trkpt lat="45.08839" lon="5.11223">
        <ele>193.8</ele>
        <time>2022-10-16T12:12:03.000Z</time>
      </trkpt>
      <trkpt lat="45.08839" lon="5.11218">
        <ele>193.7</ele>
        <time>2022-10-16T12:12:04.000Z</time>
      </trkpt>
      <trkpt lat="45.08838" lon="5.11213">
        <ele>193.6</ele>
        <time>2022-10-16T12:12:05.000Z</time>
      </trkpt>
      <trkpt lat="45.08838" lon="5.11209">
        <ele>193.4</ele>
        <time>2022-10-16T12:12:06.000Z</time>
      </trkpt>
      <trkpt lat="45.08837" lon="5.11205">
        <ele>193.3</ele>
        <time>2022-10-16T12:12:07.000Z</time>
      </trkpt>
      <trkpt lat="45.08837" lon="5.11201">
        <ele>193.2</ele>
        <time>2022-10-16T12:12:08.000Z</time>
      </trkpt>
      <trkpt lat="45.08836" lon="5.11197">
        <ele>193.1</ele>
        <time>2022-10-16T12:12:09.000Z</time>
      </trkpt>
      <trkpt lat="45.08835" lon="5.11192">
        <ele>193</ele>
        <time>2022-10-16T12:12:10.000Z</time>
      </trkpt>
      <trkpt lat="45.08835" lon="5.11187">
        <ele>193</ele>
        <time>2022-10-16T12:12:11.000Z</time>
      </trkpt>
      <trkpt lat="45.08834" lon="5.11182">
        <ele>193</ele>
        <time>2022-10-16T12:12:12.000Z</time>
      </trkpt>
      <trkpt lat="45.08833" lon="5.11176">
        <ele>193</ele>
        <time>2022-10-16T12:12:13.000Z</time>
      </trkpt>
      <trkpt lat="45.08833" lon="5.11171">
        <ele>193</ele>
        <time>2022-10-16T12:12:14.000Z</time>
      </trkpt>
      <trkpt lat="45.08832" lon="5.11165">
        <ele>192.9</ele>
        <time>2022-10-16T12:12:15.000Z</time>
      </trkpt>
      <trkpt lat="45.08831" lon="5.1116">
        <ele>192.9</ele>
        <time>2022-10-16T12:12:16.000Z</time>
      </trkpt>
      <trkpt lat="45.0883" lon="5.11155">
        <ele>192.9</ele>
        <time>2022-10-16T12:12:17.000Z</time>
      </trkpt>
      <trkpt lat="45.08828" lon="5.1115">
        <ele>192.9</ele>
        <time>2022-10-16T12:12:18.000Z</time>
      </trkpt>
      <trkpt lat="45.08827" lon="5.11144">
        <ele>193</ele>
        <time>2022-10-16T12:12:19.000Z</time>
      </trkpt>
      <trkpt lat="45.08826" lon="5.11139">
        <ele>193</ele>
        <time>2022-10-16T12:12:20.000Z</time>
      </trkpt>
      <trkpt lat="45.08826" lon="5.11134">
        <ele>192.8</ele>
        <time>2022-10-16T12:12:21.000Z</time>
      </trkpt>
      <trkpt lat="45.08825" lon="5.11128">
        <ele>192.6</ele>
        <time>2022-10-16T12:12:22.000Z</time>
      </trkpt>
      <trkpt lat="45.08824" lon="5.11123">
        <ele>192.4</ele>
        <time>2022-10-16T12:12:23.000Z</time>
      </trkpt>
      <trkpt lat="45.08823" lon="5.11118">
        <ele>192.2</ele>
        <time>2022-10-16T12:12:24.000Z</time>
      </trkpt>
      <trkpt lat="45.08822" lon="5.11113">
        <ele>192.1</ele>
        <time>2022-10-16T12:12:25.000Z</time>
      </trkpt>
      <trkpt lat="45.08821" lon="5.11108">
        <ele>192</ele>
        <time>2022-10-16T12:12:26.000Z</time>
      </trkpt>
      <trkpt lat="45.0882" lon="5.11104">
        <ele>192</ele>
        <time>2022-10-16T12:12:27.000Z</time>
      </trkpt>
      <trkpt lat="45.0882" lon="5.111">
        <ele>192</ele>
        <time>2022-10-16T12:12:28.000Z</time>
      </trkpt>
      <trkpt lat="45.08819" lon="5.11095">
        <ele>192</ele>
        <time>2022-10-16T12:12:29.000Z</time>
      </trkpt>
      <trkpt lat="45.08818" lon="5.11091">
        <ele>192</ele>
        <time>2022-10-16T12:12:30.000Z</time>
      </trkpt>
      <trkpt lat="45.08817" lon="5.11086">
        <ele>192</ele>
        <time>2022-10-16T12:12:31.000Z</time>
      </trkpt>
      <trkpt lat="45.08816" lon="5.11082">
        <ele>192</ele>
        <time>2022-10-16T12:12:32.000Z</time>
      </trkpt>
      <trkpt lat="45.08815" lon="5.11078">
        <ele>192</ele>
        <time>2022-10-16T12:12:33.000Z</time>
      </trkpt>
      <trkpt lat="45.08814" lon="5.11072">
        <ele>192</ele>
        <time>2022-10-16T12:12:34.000Z</time>
      </trkpt>
      <trkpt lat="45.08812" lon="5.11067">
        <ele>192</ele>
        <time>2022-10-16T12:12:35.000Z</time>
      </trkpt>
      <trkpt lat="45.08811" lon="5.11062">
        <ele>192</ele>
        <time>2022-10-16T12:12:36.000Z</time>
      </trkpt>
      <trkpt lat="45.08811" lon="5.11057">
        <ele>192</ele>
        <time>2022-10-16T12:12:37.000Z</time>
      </trkpt>
      <trkpt lat="45.08809" lon="5.11052">
        <ele>192</ele>
        <time>2022-10-16T12:12:38.000Z</time>
      </trkpt>
      <trkpt lat="45.08808" lon="5.11047">
        <ele>192</ele>
        <time>2022-10-16T12:12:39.000Z</time>
      </trkpt>
      <trkpt lat="45.08807" lon="5.11043">
        <ele>192</ele>
        <time>2022-10-16T12:12:40.000Z</time>
      </trkpt>
      <trkpt lat="45.08807" lon="5.11038">
        <ele>192</ele>
        <time>2022-10-16T12:12:41.000Z</time>
      </trkpt>
      <trkpt lat="45.08806" lon="5.11034">
        <ele>192</ele>
        <time>2022-10-16T12:12:42.000Z</time>
      </trkpt>
      <trkpt lat="45.08805" lon="5.1103">
        <ele>192</ele>
        <time>2022-10-16T12:12:43.000Z</time>
      </trkpt>
      <trkpt lat="45.08805" lon="5.11025">
        <ele>192</ele>
        <time>2022-10-16T12:12:44.000Z</time>
      </trkpt>
      <trkpt lat="45.08804" lon="5.1102">
        <ele>191.9</ele>
        <time>2022-10-16T12:12:45.000Z</time>
      </trkpt>
      <trkpt lat="45.08803" lon="5.11016">
        <ele>191.9</ele>
        <time>2022-10-16T12:12:46.000Z</time>
      </trkpt>
      <trkpt lat="45.08803" lon="5.11011">
        <ele>191.9</ele>
        <time>2022-10-16T12:12:47.000Z</time>
      </trkpt>
      <trkpt lat="45.08802" lon="5.11007">
        <ele>191.9</ele>
        <time>2022-10-16T12:12:48.000Z</time>
      </trkpt>
      <trkpt lat="45.08801" lon="5.11002">
        <ele>191.8</ele>
        <time>2022-10-16T12:12:49.000Z</time>
      </trkpt>
      <trkpt lat="45.088" lon="5.10997">
        <ele>191.7</ele>
        <time>2022-10-16T12:12:50.000Z</time>
      </trkpt>
      <trkpt lat="45.08799" lon="5.10992">
        <ele>191.5</ele>
        <time>2022-10-16T12:12:51.000Z</time>
      </trkpt>
      <trkpt lat="45.08798" lon="5.10987">
        <ele>191.4</ele>
        <time>2022-10-16T12:12:52.000Z</time>
      </trkpt>
      <trkpt lat="45.08797" lon="5.10982">
        <ele>191.2</ele>
        <time>2022-10-16T12:12:53.000Z</time>
      </trkpt>
      <trkpt lat="45.08797" lon="5.10977">
        <ele>191.1</ele>
        <time>2022-10-16T12:12:54.000Z</time>
      </trkpt>
      <trkpt lat="45.08796" lon="5.10973">
        <ele>191</ele>
        <time>2022-10-16T12:12:55.000Z</time>
      </trkpt>
      <trkpt lat="45.08795" lon="5.10969">
        <ele>191</ele>
        <time>2022-10-16T12:12:56.000Z</time>
      </trkpt>
      <trkpt lat="45.08795" lon="5.10964">
        <ele>191</ele>
        <time>2022-10-16T12:12:57.000Z</time>
      </trkpt>
      <trkpt lat="45.08794" lon="5.1096">
        <ele>191</ele>
        <time>2022-10-16T12:12:58.000Z</time>
      </trkpt>
      <trkpt lat="45.08794" lon="5.10955">
        <ele>191</ele>
        <time>2022-10-16T12:12:59.000Z</time>
      </trkpt>
      <trkpt lat="45.08793" lon="5.1095">
        <ele>191</ele>
        <time>2022-10-16T12:13:00.000Z</time>
      </trkpt>
      <trkpt lat="45.08793" lon="5.10946">
        <ele>191</ele>
        <time>2022-10-16T12:13:01.000Z</time>
      </trkpt>
      <trkpt lat="45.08793" lon="5.10942">
        <ele>191</ele>
        <time>2022-10-16T12:13:02.000Z</time>
      </trkpt>
      <trkpt lat="45.08792" lon="5.10937">
        <ele>191</ele>
        <time>2022-10-16T12:13:03.000Z</time>
      </trkpt>
      <trkpt lat="45.08792" lon="5.10933">
        <ele>191</ele>
        <time>2022-10-16T12:13:04.000Z</time>
      </trkpt>
      <trkpt lat="45.08792" lon="5.10929">
        <ele>191</ele>
        <time>2022-10-16T12:13:05.000Z</time>
      </trkpt>
      <trkpt lat="45.08792" lon="5.10925">
        <ele>191</ele>
        <time>2022-10-16T12:13:06.000Z</time>
      </trkpt>
      <trkpt lat="45.08791" lon="5.1092">
        <ele>191</ele>
        <time>2022-10-16T12:13:07.000Z</time>
      </trkpt>
      <trkpt lat="45.08791" lon="5.10916">
        <ele>191</ele>
        <time>2022-10-16T12:13:08.000Z</time>
      </trkpt>
      <trkpt lat="45.08791" lon="5.10911">
        <ele>191</ele>
        <time>2022-10-16T12:13:09.000Z</time>
      </trkpt>
      <trkpt lat="45.08791" lon="5.10907">
        <ele>191</ele>
        <time>2022-10-16T12:13:10.000Z</time>
      </trkpt>
      <trkpt lat="45.08791" lon="5.10903">
        <ele>191</ele>
        <time>2022-10-16T12:13:11.000Z</time>
      </trkpt>
      <trkpt lat="45.0879" lon="5.109">
        <ele>191</ele>
        <time>2022-10-16T12:13:12.000Z</time>
      </trkpt>
      <trkpt lat="45.0879" lon="5.10897">
        <ele>191</ele>
        <time>2022-10-16T12:13:13.000Z</time>
      </trkpt>
      <trkpt lat="45.0879" lon="5.10893">
        <ele>191</ele>
        <time>2022-10-16T12:13:14.000Z</time>
      </trkpt>
      <trkpt lat="45.0879" lon="5.10889">
        <ele>191</ele>
        <time>2022-10-16T12:13:15.000Z</time>
      </trkpt>
      <trkpt lat="45.08789" lon="5.10884">
        <ele>191.1</ele>
        <time>2022-10-16T12:13:16.000Z</time>
      </trkpt>
      <trkpt lat="45.08789" lon="5.1088">
        <ele>191.1</ele>
        <time>2022-10-16T12:13:17.000Z</time>
      </trkpt>
      <trkpt lat="45.08789" lon="5.10875">
        <ele>191.2</ele>
        <time>2022-10-16T12:13:18.000Z</time>
      </trkpt>
      <trkpt lat="45.08788" lon="5.1087">
        <ele>191.3</ele>
        <time>2022-10-16T12:13:19.000Z</time>
      </trkpt>
      <trkpt lat="45.08789" lon="5.10866">
        <ele>191.3</ele>
        <time>2022-10-16T12:13:20.000Z</time>
      </trkpt>
      <trkpt lat="45.08789" lon="5.1086">
        <ele>191.4</ele>
        <time>2022-10-16T12:13:21.000Z</time>
      </trkpt>
      <trkpt lat="45.08789" lon="5.10855">
        <ele>191.4</ele>
        <time>2022-10-16T12:13:22.000Z</time>
      </trkpt>
      <trkpt lat="45.08788" lon="5.1085">
        <ele>191.4</ele>
        <time>2022-10-16T12:13:23.000Z</time>
      </trkpt>
      <trkpt lat="45.08788" lon="5.10844">
        <ele>191.4</ele>
        <time>2022-10-16T12:13:24.000Z</time>
      </trkpt>
      <trkpt lat="45.08788" lon="5.10838">
        <ele>191.4</ele>
        <time>2022-10-16T12:13:25.000Z</time>
      </trkpt>
      <trkpt lat="45.08787" lon="5.10833">
        <ele>191.4</ele>
        <time>2022-10-16T12:13:26.000Z</time>
      </trkpt>
      <trkpt lat="45.08787" lon="5.10827">
        <ele>191.5</ele>
        <time>2022-10-16T12:13:27.000Z</time>
      </trkpt>
      <trkpt lat="45.08787" lon="5.10823">
        <ele>191.6</ele>
        <time>2022-10-16T12:13:28.000Z</time>
      </trkpt>
      <trkpt lat="45.08787" lon="5.10818">
        <ele>191.7</ele>
        <time>2022-10-16T12:13:29.000Z</time>
      </trkpt>
      <trkpt lat="45.08787" lon="5.10815">
        <ele>191.8</ele>
        <time>2022-10-16T12:13:30.000Z</time>
      </trkpt>
      <trkpt lat="45.08788" lon="5.10811">
        <ele>191.9</ele>
        <time>2022-10-16T12:13:31.000Z</time>
      </trkpt>
      <trkpt lat="45.08788" lon="5.10806">
        <ele>192</ele>
        <time>2022-10-16T12:13:32.000Z</time>
      </trkpt>
      <trkpt lat="45.08788" lon="5.10802">
        <ele>192</ele>
        <time>2022-10-16T12:13:33.000Z</time>
      </trkpt>
      <trkpt lat="45.08788" lon="5.10798">
        <ele>192</ele>
        <time>2022-10-16T12:13:34.000Z</time>
      </trkpt>
      <trkpt lat="45.08788" lon="5.10794">
        <ele>192</ele>
        <time>2022-10-16T12:13:35.000Z</time>
      </trkpt>
      <trkpt lat="45.08788" lon="5.10789">
        <ele>192</ele>
        <time>2022-10-16T12:13:36.000Z</time>
      </trkpt>
      <trkpt lat="45.08788" lon="5.10785">
        <ele>192</ele>
        <time>2022-10-16T12:13:37.000Z</time>
      </trkpt>
      <trkpt lat="45.08787" lon="5.10781">
        <ele>192</ele>
        <time>2022-10-16T12:13:38.000Z</time>
      </trkpt>
      <trkpt lat="45.08787" lon="5.10778">
        <ele>192</ele>
        <time>2022-10-16T12:13:39.000Z</time>
      </trkpt>
      <trkpt lat="45.08787" lon="5.10775">
        <ele>192</ele>
        <time>2022-10-16T12:13:40.000Z</time>
      </trkpt>
      <trkpt lat="45.08787" lon="5.10771">
        <ele>192</ele>
        <time>2022-10-16T12:13:41.000Z</time>
      </trkpt>
      <trkpt lat="45.08787" lon="5.10769">
        <ele>192</ele>
        <time>2022-10-16T12:13:42.000Z</time>
      </trkpt>
      <trkpt lat="45.08787" lon="5.10766">
        <ele>192</ele>
        <time>2022-10-16T12:13:43.000Z</time>
      </trkpt>
      <trkpt lat="45.08787" lon="5.10762">
        <ele>192</ele>
        <time>2022-10-16T12:13:44.000Z</time>
      </trkpt>
      <trkpt lat="45.08787" lon="5.10758">
        <ele>192</ele>
        <time>2022-10-16T12:13:45.000Z</time>
      </trkpt>
      <trkpt lat="45.08787" lon="5.10754">
        <ele>192</ele>
        <time>2022-10-16T12:13:46.000Z</time>
      </trkpt>
      <trkpt lat="45.08786" lon="5.1075">
        <ele>192</ele>
        <time>2022-10-16T12:13:47.000Z</time>
      </trkpt>
      <trkpt lat="45.08786" lon="5.10746">
        <ele>192</ele>
        <time>2022-10-16T12:13:48.000Z</time>
      </trkpt>
      <trkpt lat="45.08785" lon="5.10743">
        <ele>192</ele>
        <time>2022-10-16T12:13:49.000Z</time>
      </trkpt>
      <trkpt lat="45.08785" lon="5.1074">
        <ele>192</ele>
        <time>2022-10-16T12:13:50.000Z</time>
      </trkpt>
      <trkpt lat="45.08785" lon="5.10737">
        <ele>192</ele>
        <time>2022-10-16T12:13:51.000Z</time>
      </trkpt>
      <trkpt lat="45.08784" lon="5.10734">
        <ele>192</ele>
        <time>2022-10-16T12:13:52.000Z</time>
      </trkpt>
      <trkpt lat="45.08784" lon="5.10731">
        <ele>192</ele>
        <time>2022-10-16T12:13:53.000Z</time>
      </trkpt>
      <trkpt lat="45.08783" lon="5.10727">
        <ele>192</ele>
        <time>2022-10-16T12:13:54.000Z</time>
      </trkpt>
      <trkpt lat="45.08783" lon="5.10723">
        <ele>192</ele>
        <time>2022-10-16T12:13:55.000Z</time>
      </trkpt>
      <trkpt lat="45.08782" lon="5.10719">
        <ele>192</ele>
        <time>2022-10-16T12:13:56.000Z</time>
      </trkpt>
      <trkpt lat="45.08782" lon="5.10715">
        <ele>192</ele>
        <time>2022-10-16T12:13:57.000Z</time>
      </trkpt>
      <trkpt lat="45.08781" lon="5.1071">
        <ele>192.1</ele>
        <time>2022-10-16T12:13:58.000Z</time>
      </trkpt>
      <trkpt lat="45.08781" lon="5.10706">
        <ele>192.1</ele>
        <time>2022-10-16T12:13:59.000Z</time>
      </trkpt>
      <trkpt lat="45.0878" lon="5.10702">
        <ele>192.1</ele>
        <time>2022-10-16T12:14:00.000Z</time>
      </trkpt>
      <trkpt lat="45.0878" lon="5.10698">
        <ele>192.1</ele>
        <time>2022-10-16T12:14:01.000Z</time>
      </trkpt>
      <trkpt lat="45.08779" lon="5.10694">
        <ele>192.1</ele>
        <time>2022-10-16T12:14:02.000Z</time>
      </trkpt>
      <trkpt lat="45.08779" lon="5.10691">
        <ele>192</ele>
        <time>2022-10-16T12:14:03.000Z</time>
      </trkpt>
      <trkpt lat="45.08778" lon="5.10687">
        <ele>192</ele>
        <time>2022-10-16T12:14:04.000Z</time>
      </trkpt>
      <trkpt lat="45.08778" lon="5.10683">
        <ele>192</ele>
        <time>2022-10-16T12:14:05.000Z</time>
      </trkpt>
      <trkpt lat="45.08777" lon="5.10679">
        <ele>192</ele>
        <time>2022-10-16T12:14:06.000Z</time>
      </trkpt>
      <trkpt lat="45.08776" lon="5.10675">
        <ele>191.9</ele>
        <time>2022-10-16T12:14:07.000Z</time>
      </trkpt>
      <trkpt lat="45.08776" lon="5.10671">
        <ele>191.9</ele>
        <time>2022-10-16T12:14:08.000Z</time>
      </trkpt>
      <trkpt lat="45.08775" lon="5.10667">
        <ele>191.9</ele>
        <time>2022-10-16T12:14:09.000Z</time>
      </trkpt>
      <trkpt lat="45.08775" lon="5.10662">
        <ele>191.9</ele>
        <time>2022-10-16T12:14:10.000Z</time>
      </trkpt>
      <trkpt lat="45.08774" lon="5.10658">
        <ele>191.8</ele>
        <time>2022-10-16T12:14:11.000Z</time>
      </trkpt>
      <trkpt lat="45.08773" lon="5.10654">
        <ele>191.8</ele>
        <time>2022-10-16T12:14:12.000Z</time>
      </trkpt>
      <trkpt lat="45.08772" lon="5.1065">
        <ele>191.8</ele>
        <time>2022-10-16T12:14:13.000Z</time>
      </trkpt>
      <trkpt lat="45.08771" lon="5.10646">
        <ele>191.7</ele>
        <time>2022-10-16T12:14:14.000Z</time>
      </trkpt>
      <trkpt lat="45.0877" lon="5.10643">
        <ele>191.7</ele>
        <time>2022-10-16T12:14:15.000Z</time>
      </trkpt>
      <trkpt lat="45.08769" lon="5.10639">
        <ele>191.7</ele>
        <time>2022-10-16T12:14:16.000Z</time>
      </trkpt>
      <trkpt lat="45.08768" lon="5.10635">
        <ele>191.6</ele>
        <time>2022-10-16T12:14:17.000Z</time>
      </trkpt>
      <trkpt lat="45.08767" lon="5.1063">
        <ele>191.4</ele>
        <time>2022-10-16T12:14:18.000Z</time>
      </trkpt>
      <trkpt lat="45.08766" lon="5.10626">
        <ele>191.3</ele>
        <time>2022-10-16T12:14:19.000Z</time>
      </trkpt>
      <trkpt lat="45.08765" lon="5.10622">
        <ele>191.2</ele>
        <time>2022-10-16T12:14:20.000Z</time>
      </trkpt>
      <trkpt lat="45.08764" lon="5.10618">
        <ele>191.1</ele>
        <time>2022-10-16T12:14:21.000Z</time>
      </trkpt>
      <trkpt lat="45.08763" lon="5.10614">
        <ele>191</ele>
        <time>2022-10-16T12:14:22.000Z</time>
      </trkpt>
      <trkpt lat="45.08762" lon="5.1061">
        <ele>191</ele>
        <time>2022-10-16T12:14:23.000Z</time>
      </trkpt>
      <trkpt lat="45.08761" lon="5.10606">
        <ele>191.1</ele>
        <time>2022-10-16T12:14:24.000Z</time>
      </trkpt>
      <trkpt lat="45.0876" lon="5.10602">
        <ele>191.2</ele>
        <time>2022-10-16T12:14:25.000Z</time>
      </trkpt>
      <trkpt lat="45.0876" lon="5.10598">
        <ele>191.3</ele>
        <time>2022-10-16T12:14:26.000Z</time>
      </trkpt>
      <trkpt lat="45.08759" lon="5.10595">
        <ele>191.4</ele>
        <time>2022-10-16T12:14:27.000Z</time>
      </trkpt>
      <trkpt lat="45.08758" lon="5.10592">
        <ele>191.5</ele>
        <time>2022-10-16T12:14:28.000Z</time>
      </trkpt>
      <trkpt lat="45.08756" lon="5.10589">
        <ele>191.6</ele>
        <time>2022-10-16T12:14:29.000Z</time>
      </trkpt>
      <trkpt lat="45.08755" lon="5.10585">
        <ele>191.8</ele>
        <time>2022-10-16T12:14:30.000Z</time>
      </trkpt>
      <trkpt lat="45.08754" lon="5.10581">
        <ele>191.8</ele>
        <time>2022-10-16T12:14:31.000Z</time>
      </trkpt>
      <trkpt lat="45.08753" lon="5.10575">
        <ele>191.6</ele>
        <time>2022-10-16T12:14:32.000Z</time>
      </trkpt>
      <trkpt lat="45.08752" lon="5.1057">
        <ele>191.5</ele>
        <time>2022-10-16T12:14:33.000Z</time>
      </trkpt>
      <trkpt lat="45.08751" lon="5.10564">
        <ele>191.3</ele>
        <time>2022-10-16T12:14:34.000Z</time>
      </trkpt>
      <trkpt lat="45.08749" lon="5.10558">
        <ele>191.1</ele>
        <time>2022-10-16T12:14:35.000Z</time>
      </trkpt>
      <trkpt lat="45.08748" lon="5.10552">
        <ele>190.9</ele>
        <time>2022-10-16T12:14:36.000Z</time>
      </trkpt>
      <trkpt lat="45.08747" lon="5.10547">
        <ele>190.9</ele>
        <time>2022-10-16T12:14:37.000Z</time>
      </trkpt>
      <trkpt lat="45.08745" lon="5.10542">
        <ele>190.9</ele>
        <time>2022-10-16T12:14:38.000Z</time>
      </trkpt>
      <trkpt lat="45.08744" lon="5.10538">
        <ele>190.9</ele>
        <time>2022-10-16T12:14:39.000Z</time>
      </trkpt>
      <trkpt lat="45.08743" lon="5.10533">
        <ele>190.9</ele>
        <time>2022-10-16T12:14:40.000Z</time>
      </trkpt>
      <trkpt lat="45.08742" lon="5.10529">
        <ele>191</ele>
        <time>2022-10-16T12:14:41.000Z</time>
      </trkpt>
      <trkpt lat="45.0874" lon="5.10524">
        <ele>191</ele>
        <time>2022-10-16T12:14:42.000Z</time>
      </trkpt>
      <trkpt lat="45.08739" lon="5.1052">
        <ele>191.1</ele>
        <time>2022-10-16T12:14:43.000Z</time>
      </trkpt>
      <trkpt lat="45.08738" lon="5.10515">
        <ele>191.2</ele>
        <time>2022-10-16T12:14:44.000Z</time>
      </trkpt>
      <trkpt lat="45.08737" lon="5.1051">
        <ele>191.3</ele>
        <time>2022-10-16T12:14:45.000Z</time>
      </trkpt>
      <trkpt lat="45.08735" lon="5.10506">
        <ele>191.4</ele>
        <time>2022-10-16T12:14:46.000Z</time>
      </trkpt>
      <trkpt lat="45.08734" lon="5.10501">
        <ele>191.6</ele>
        <time>2022-10-16T12:14:47.000Z</time>
      </trkpt>
      <trkpt lat="45.08733" lon="5.10497">
        <ele>191.7</ele>
        <time>2022-10-16T12:14:48.000Z</time>
      </trkpt>
      <trkpt lat="45.08732" lon="5.10492">
        <ele>191.9</ele>
        <time>2022-10-16T12:14:49.000Z</time>
      </trkpt>
      <trkpt lat="45.0873" lon="5.10487">
        <ele>192</ele>
        <time>2022-10-16T12:14:50.000Z</time>
      </trkpt>
      <trkpt lat="45.08729" lon="5.10482">
        <ele>192.2</ele>
        <time>2022-10-16T12:14:51.000Z</time>
      </trkpt>
      <trkpt lat="45.08728" lon="5.10478">
        <ele>192.4</ele>
        <time>2022-10-16T12:14:52.000Z</time>
      </trkpt>
      <trkpt lat="45.08727" lon="5.10473">
        <ele>192.6</ele>
        <time>2022-10-16T12:14:53.000Z</time>
      </trkpt>
      <trkpt lat="45.08726" lon="5.10468">
        <ele>192.6</ele>
        <time>2022-10-16T12:14:54.000Z</time>
      </trkpt>
      <trkpt lat="45.08724" lon="5.10463">
        <ele>192.6</ele>
        <time>2022-10-16T12:14:55.000Z</time>
      </trkpt>
      <trkpt lat="45.08723" lon="5.10459">
        <ele>192.5</ele>
        <time>2022-10-16T12:14:56.000Z</time>
      </trkpt>
      <trkpt lat="45.08722" lon="5.10454">
        <ele>192.3</ele>
        <time>2022-10-16T12:14:57.000Z</time>
      </trkpt>
      <trkpt lat="45.08721" lon="5.1045">
        <ele>192.1</ele>
        <time>2022-10-16T12:14:58.000Z</time>
      </trkpt>
      <trkpt lat="45.08719" lon="5.10445">
        <ele>191.8</ele>
        <time>2022-10-16T12:14:59.000Z</time>
      </trkpt>
      <trkpt lat="45.08718" lon="5.10441">
        <ele>191.9</ele>
        <time>2022-10-16T12:15:00.000Z</time>
      </trkpt>
      <trkpt lat="45.08717" lon="5.10436">
        <ele>192</ele>
        <time>2022-10-16T12:15:01.000Z</time>
      </trkpt>
      <trkpt lat="45.08716" lon="5.10432">
        <ele>192.1</ele>
        <time>2022-10-16T12:15:02.000Z</time>
      </trkpt>
      <trkpt lat="45.08715" lon="5.10427">
        <ele>192.3</ele>
        <time>2022-10-16T12:15:03.000Z</time>
      </trkpt>
      <trkpt lat="45.08713" lon="5.10422">
        <ele>192.4</ele>
        <time>2022-10-16T12:15:04.000Z</time>
      </trkpt>
      <trkpt lat="45.08712" lon="5.10417">
        <ele>192.6</ele>
        <time>2022-10-16T12:15:05.000Z</time>
      </trkpt>
      <trkpt lat="45.08711" lon="5.10412">
        <ele>192.5</ele>
        <time>2022-10-16T12:15:06.000Z</time>
      </trkpt>
      <trkpt lat="45.08709" lon="5.10407">
        <ele>192.3</ele>
        <time>2022-10-16T12:15:07.000Z</time>
      </trkpt>
      <trkpt lat="45.08708" lon="5.10402">
        <ele>192.2</ele>
        <time>2022-10-16T12:15:08.000Z</time>
      </trkpt>
      <trkpt lat="45.08706" lon="5.10397">
        <ele>192.2</ele>
        <time>2022-10-16T12:15:09.000Z</time>
      </trkpt>
      <trkpt lat="45.08705" lon="5.10391">
        <ele>192.3</ele>
        <time>2022-10-16T12:15:10.000Z</time>
      </trkpt>
      <trkpt lat="45.08703" lon="5.10386">
        <ele>192.3</ele>
        <time>2022-10-16T12:15:11.000Z</time>
      </trkpt>
      <trkpt lat="45.08701" lon="5.10381">
        <ele>192.3</ele>
        <time>2022-10-16T12:15:12.000Z</time>
      </trkpt>
      <trkpt lat="45.087" lon="5.10375">
        <ele>192.2</ele>
        <time>2022-10-16T12:15:13.000Z</time>
      </trkpt>
      <trkpt lat="45.08698" lon="5.1037">
        <ele>192.2</ele>
        <time>2022-10-16T12:15:14.000Z</time>
      </trkpt>
      <trkpt lat="45.08697" lon="5.10365">
        <ele>192</ele>
        <time>2022-10-16T12:15:15.000Z</time>
      </trkpt>
      <trkpt lat="45.08695" lon="5.10359">
        <ele>191.9</ele>
        <time>2022-10-16T12:15:16.000Z</time>
      </trkpt>
      <trkpt lat="45.08693" lon="5.10354">
        <ele>191.7</ele>
        <time>2022-10-16T12:15:17.000Z</time>
      </trkpt>
      <trkpt lat="45.08692" lon="5.10349">
        <ele>191.4</ele>
        <time>2022-10-16T12:15:18.000Z</time>
      </trkpt>
      <trkpt lat="45.0869" lon="5.10343">
        <ele>191.2</ele>
        <time>2022-10-16T12:15:19.000Z</time>
      </trkpt>
      <trkpt lat="45.08688" lon="5.10338">
        <ele>191.1</ele>
        <time>2022-10-16T12:15:20.000Z</time>
      </trkpt>
      <trkpt lat="45.08686" lon="5.10333">
        <ele>191</ele>
        <time>2022-10-16T12:15:21.000Z</time>
      </trkpt>
      <trkpt lat="45.08685" lon="5.10328">
        <ele>191.3</ele>
        <time>2022-10-16T12:15:22.000Z</time>
      </trkpt>
      <trkpt lat="45.08683" lon="5.10323">
        <ele>191.5</ele>
        <time>2022-10-16T12:15:23.000Z</time>
      </trkpt>
      <trkpt lat="45.08682" lon="5.10318">
        <ele>191.8</ele>
        <time>2022-10-16T12:15:24.000Z</time>
      </trkpt>
      <trkpt lat="45.0868" lon="5.10313">
        <ele>192.1</ele>
        <time>2022-10-16T12:15:25.000Z</time>
      </trkpt>
      <trkpt lat="45.08678" lon="5.10307">
        <ele>192.5</ele>
        <time>2022-10-16T12:15:26.000Z</time>
      </trkpt>
      <trkpt lat="45.08677" lon="5.10302">
        <ele>192.7</ele>
        <time>2022-10-16T12:15:27.000Z</time>
      </trkpt>
      <trkpt lat="45.08675" lon="5.10297">
        <ele>192.9</ele>
        <time>2022-10-16T12:15:28.000Z</time>
      </trkpt>
      <trkpt lat="45.08674" lon="5.10292">
        <ele>193.1</ele>
        <time>2022-10-16T12:15:29.000Z</time>
      </trkpt>
      <trkpt lat="45.08672" lon="5.10287">
        <ele>193.3</ele>
        <time>2022-10-16T12:15:30.000Z</time>
      </trkpt>
      <trkpt lat="45.08671" lon="5.10281">
        <ele>193.6</ele>
        <time>2022-10-16T12:15:31.000Z</time>
      </trkpt>
      <trkpt lat="45.08669" lon="5.10276">
        <ele>193.8</ele>
        <time>2022-10-16T12:15:32.000Z</time>
      </trkpt>
      <trkpt lat="45.08668" lon="5.10271">
        <ele>193.9</ele>
        <time>2022-10-16T12:15:33.000Z</time>
      </trkpt>
      <trkpt lat="45.08667" lon="5.10265">
        <ele>194</ele>
        <time>2022-10-16T12:15:34.000Z</time>
      </trkpt>
      <trkpt lat="45.08666" lon="5.1026">
        <ele>193.9</ele>
        <time>2022-10-16T12:15:35.000Z</time>
      </trkpt>
      <trkpt lat="45.08664" lon="5.10255">
        <ele>193.7</ele>
        <time>2022-10-16T12:15:36.000Z</time>
      </trkpt>
      <trkpt lat="45.08663" lon="5.10249">
        <ele>193.6</ele>
        <time>2022-10-16T12:15:37.000Z</time>
      </trkpt>
      <trkpt lat="45.08662" lon="5.10244">
        <ele>193.5</ele>
        <time>2022-10-16T12:15:38.000Z</time>
      </trkpt>
      <trkpt lat="45.0866" lon="5.10238">
        <ele>193.5</ele>
        <time>2022-10-16T12:15:39.000Z</time>
      </trkpt>
      <trkpt lat="45.08659" lon="5.10232">
        <ele>193.5</ele>
        <time>2022-10-16T12:15:40.000Z</time>
      </trkpt>
      <trkpt lat="45.08658" lon="5.10227">
        <ele>193.6</ele>
        <time>2022-10-16T12:15:41.000Z</time>
      </trkpt>
      <trkpt lat="45.08657" lon="5.10221">
        <ele>193.7</ele>
        <time>2022-10-16T12:15:42.000Z</time>
      </trkpt>
      <trkpt lat="45.08656" lon="5.10216">
        <ele>194</ele>
        <time>2022-10-16T12:15:43.000Z</time>
      </trkpt>
      <trkpt lat="45.08655" lon="5.1021">
        <ele>194.3</ele>
        <time>2022-10-16T12:15:44.000Z</time>
      </trkpt>
      <trkpt lat="45.08654" lon="5.10204">
        <ele>194.5</ele>
        <time>2022-10-16T12:15:45.000Z</time>
      </trkpt>
      <trkpt lat="45.08653" lon="5.10199">
        <ele>194.8</ele>
        <time>2022-10-16T12:15:46.000Z</time>
      </trkpt>
      <trkpt lat="45.08651" lon="5.10194">
        <ele>194.9</ele>
        <time>2022-10-16T12:15:47.000Z</time>
      </trkpt>
      <trkpt lat="45.08651" lon="5.10189">
        <ele>194.9</ele>
        <time>2022-10-16T12:15:48.000Z</time>
      </trkpt>
      <trkpt lat="45.08649" lon="5.10184">
        <ele>194.8</ele>
        <time>2022-10-16T12:15:49.000Z</time>
      </trkpt>
      <trkpt lat="45.08648" lon="5.10179">
        <ele>194.9</ele>
        <time>2022-10-16T12:15:50.000Z</time>
      </trkpt>
      <trkpt lat="45.08647" lon="5.10174">
        <ele>194.9</ele>
        <time>2022-10-16T12:15:51.000Z</time>
      </trkpt>
      <trkpt lat="45.08646" lon="5.10169">
        <ele>195</ele>
        <time>2022-10-16T12:15:52.000Z</time>
      </trkpt>
      <trkpt lat="45.08645" lon="5.10163">
        <ele>195</ele>
        <time>2022-10-16T12:15:53.000Z</time>
      </trkpt>
      <trkpt lat="45.08643" lon="5.10158">
        <ele>195</ele>
        <time>2022-10-16T12:15:54.000Z</time>
      </trkpt>
      <trkpt lat="45.08642" lon="5.10151">
        <ele>195</ele>
        <time>2022-10-16T12:15:55.000Z</time>
      </trkpt>
      <trkpt lat="45.08641" lon="5.10145">
        <ele>195</ele>
        <time>2022-10-16T12:15:56.000Z</time>
      </trkpt>
      <trkpt lat="45.08639" lon="5.10138">
        <ele>195</ele>
        <time>2022-10-16T12:15:57.000Z</time>
      </trkpt>
      <trkpt lat="45.08638" lon="5.10131">
        <ele>194.6</ele>
        <time>2022-10-16T12:15:58.000Z</time>
      </trkpt>
      <trkpt lat="45.08636" lon="5.10124">
        <ele>194.2</ele>
        <time>2022-10-16T12:15:59.000Z</time>
      </trkpt>
      <trkpt lat="45.08635" lon="5.10118">
        <ele>193.8</ele>
        <time>2022-10-16T12:16:00.000Z</time>
      </trkpt>
      <trkpt lat="45.08633" lon="5.10111">
        <ele>193.4</ele>
        <time>2022-10-16T12:16:01.000Z</time>
      </trkpt>
      <trkpt lat="45.08632" lon="5.10105">
        <ele>193.3</ele>
        <time>2022-10-16T12:16:02.000Z</time>
      </trkpt>
      <trkpt lat="45.0863" lon="5.10099">
        <ele>193.2</ele>
        <time>2022-10-16T12:16:03.000Z</time>
      </trkpt>
      <trkpt lat="45.08629" lon="5.10093">
        <ele>193.2</ele>
        <time>2022-10-16T12:16:04.000Z</time>
      </trkpt>
      <trkpt lat="45.08628" lon="5.10088">
        <ele>193.2</ele>
        <time>2022-10-16T12:16:05.000Z</time>
      </trkpt>
      <trkpt lat="45.08627" lon="5.10083">
        <ele>193.1</ele>
        <time>2022-10-16T12:16:06.000Z</time>
      </trkpt>
      <trkpt lat="45.08625" lon="5.10078">
        <ele>193.1</ele>
        <time>2022-10-16T12:16:07.000Z</time>
      </trkpt>
      <trkpt lat="45.08624" lon="5.10072">
        <ele>193.1</ele>
        <time>2022-10-16T12:16:08.000Z</time>
      </trkpt>
      <trkpt lat="45.08623" lon="5.10067">
        <ele>193.2</ele>
        <time>2022-10-16T12:16:09.000Z</time>
      </trkpt>
      <trkpt lat="45.08622" lon="5.10062">
        <ele>193.2</ele>
        <time>2022-10-16T12:16:10.000Z</time>
      </trkpt>
      <trkpt lat="45.0862" lon="5.10056">
        <ele>193.3</ele>
        <time>2022-10-16T12:16:11.000Z</time>
      </trkpt>
      <trkpt lat="45.08619" lon="5.1005">
        <ele>193.2</ele>
        <time>2022-10-16T12:16:12.000Z</time>
      </trkpt>
      <trkpt lat="45.08617" lon="5.10044">
        <ele>193.1</ele>
        <time>2022-10-16T12:16:13.000Z</time>
      </trkpt>
      <trkpt lat="45.08615" lon="5.10038">
        <ele>193.1</ele>
        <time>2022-10-16T12:16:14.000Z</time>
      </trkpt>
      <trkpt lat="45.08614" lon="5.1003">
        <ele>193</ele>
        <time>2022-10-16T12:16:15.000Z</time>
      </trkpt>
      <trkpt lat="45.08612" lon="5.10023">
        <ele>192.8</ele>
        <time>2022-10-16T12:16:16.000Z</time>
      </trkpt>
      <trkpt lat="45.0861" lon="5.10016">
        <ele>192.4</ele>
        <time>2022-10-16T12:16:17.000Z</time>
      </trkpt>
      <trkpt lat="45.08608" lon="5.10009">
        <ele>192</ele>
        <time>2022-10-16T12:16:18.000Z</time>
      </trkpt>
      <trkpt lat="45.08606" lon="5.10003">
        <ele>191.7</ele>
        <time>2022-10-16T12:16:19.000Z</time>
      </trkpt>
      <trkpt lat="45.08604" lon="5.09996">
        <ele>191.5</ele>
        <time>2022-10-16T12:16:20.000Z</time>
      </trkpt>
      <trkpt lat="45.08602" lon="5.0999">
        <ele>191.5</ele>
        <time>2022-10-16T12:16:21.000Z</time>
      </trkpt>
      <trkpt lat="45.086" lon="5.09983">
        <ele>191.5</ele>
        <time>2022-10-16T12:16:22.000Z</time>
      </trkpt>
      <trkpt lat="45.08599" lon="5.09976">
        <ele>191.5</ele>
        <time>2022-10-16T12:16:23.000Z</time>
      </trkpt>
      <trkpt lat="45.08597" lon="5.09969">
        <ele>191.5</ele>
        <time>2022-10-16T12:16:24.000Z</time>
      </trkpt>
      <trkpt lat="45.08595" lon="5.09962">
        <ele>191.6</ele>
        <time>2022-10-16T12:16:25.000Z</time>
      </trkpt>
      <trkpt lat="45.08593" lon="5.09956">
        <ele>191.7</ele>
        <time>2022-10-16T12:16:26.000Z</time>
      </trkpt>
      <trkpt lat="45.08592" lon="5.09951">
        <ele>191.8</ele>
        <time>2022-10-16T12:16:27.000Z</time>
      </trkpt>
      <trkpt lat="45.08591" lon="5.09945">
        <ele>192</ele>
        <time>2022-10-16T12:16:28.000Z</time>
      </trkpt>
      <trkpt lat="45.08589" lon="5.09939">
        <ele>192</ele>
        <time>2022-10-16T12:16:29.000Z</time>
      </trkpt>
      <trkpt lat="45.08588" lon="5.09934">
        <ele>192</ele>
        <time>2022-10-16T12:16:30.000Z</time>
      </trkpt>
      <trkpt lat="45.08586" lon="5.09928">
        <ele>192</ele>
        <time>2022-10-16T12:16:31.000Z</time>
      </trkpt>
      <trkpt lat="45.08585" lon="5.09923">
        <ele>192</ele>
        <time>2022-10-16T12:16:32.000Z</time>
      </trkpt>
      <trkpt lat="45.08584" lon="5.09919">
        <ele>192</ele>
        <time>2022-10-16T12:16:33.000Z</time>
      </trkpt>
      <trkpt lat="45.08578" lon="5.09896">
        <ele>191.6</ele>
        <time>2022-10-16T12:16:34.000Z</time>
      </trkpt>
      <trkpt lat="45.08577" lon="5.0989">
        <ele>191.5</ele>
        <time>2022-10-16T12:16:35.000Z</time>
      </trkpt>
      <trkpt lat="45.08576" lon="5.09886">
        <ele>191.6</ele>
        <time>2022-10-16T12:16:36.000Z</time>
      </trkpt>
      <trkpt lat="45.08575" lon="5.09883">
        <ele>191.6</ele>
        <time>2022-10-16T12:16:37.000Z</time>
      </trkpt>
      <trkpt lat="45.08575" lon="5.09879">
        <ele>191.7</ele>
        <time>2022-10-16T12:16:38.000Z</time>
      </trkpt>
      <trkpt lat="45.08574" lon="5.09876">
        <ele>191.8</ele>
        <time>2022-10-16T12:16:39.000Z</time>
      </trkpt>
      <trkpt lat="45.08573" lon="5.09873">
        <ele>191.8</ele>
        <time>2022-10-16T12:16:40.000Z</time>
      </trkpt>
      <trkpt lat="45.08572" lon="5.09868">
        <ele>192</ele>
        <time>2022-10-16T12:16:41.000Z</time>
      </trkpt>
      <trkpt lat="45.08571" lon="5.09863">
        <ele>192</ele>
        <time>2022-10-16T12:16:42.000Z</time>
      </trkpt>
      <trkpt lat="45.08569" lon="5.09858">
        <ele>192.1</ele>
        <time>2022-10-16T12:16:43.000Z</time>
      </trkpt>
      <trkpt lat="45.08568" lon="5.09853">
        <ele>192.2</ele>
        <time>2022-10-16T12:16:44.000Z</time>
      </trkpt>
      <trkpt lat="45.08567" lon="5.09848">
        <ele>192.3</ele>
        <time>2022-10-16T12:16:45.000Z</time>
      </trkpt>
      <trkpt lat="45.08565" lon="5.09843">
        <ele>192.3</ele>
        <time>2022-10-16T12:16:46.000Z</time>
      </trkpt>
      <trkpt lat="45.08563" lon="5.09838">
        <ele>192.4</ele>
        <time>2022-10-16T12:16:47.000Z</time>
      </trkpt>
      <trkpt lat="45.08561" lon="5.09833">
        <ele>192.4</ele>
        <time>2022-10-16T12:16:48.000Z</time>
      </trkpt>
      <trkpt lat="45.0856" lon="5.09828">
        <ele>192.5</ele>
        <time>2022-10-16T12:16:49.000Z</time>
      </trkpt>
      <trkpt lat="45.08558" lon="5.09824">
        <ele>192.5</ele>
        <time>2022-10-16T12:16:50.000Z</time>
      </trkpt>
      <trkpt lat="45.08557" lon="5.09819">
        <ele>192.6</ele>
        <time>2022-10-16T12:16:51.000Z</time>
      </trkpt>
      <trkpt lat="45.08555" lon="5.09814">
        <ele>192.7</ele>
        <time>2022-10-16T12:16:52.000Z</time>
      </trkpt>
      <trkpt lat="45.08555" lon="5.09809">
        <ele>192.8</ele>
        <time>2022-10-16T12:16:53.000Z</time>
      </trkpt>
      <trkpt lat="45.08553" lon="5.09804">
        <ele>192.9</ele>
        <time>2022-10-16T12:16:54.000Z</time>
      </trkpt>
      <trkpt lat="45.08552" lon="5.098">
        <ele>192.9</ele>
        <time>2022-10-16T12:16:55.000Z</time>
      </trkpt>
      <trkpt lat="45.08551" lon="5.09795">
        <ele>193</ele>
        <time>2022-10-16T12:16:56.000Z</time>
      </trkpt>
      <trkpt lat="45.08549" lon="5.0979">
        <ele>193</ele>
        <time>2022-10-16T12:16:57.000Z</time>
      </trkpt>
      <trkpt lat="45.08547" lon="5.09785">
        <ele>192.9</ele>
        <time>2022-10-16T12:16:58.000Z</time>
      </trkpt>
      <trkpt lat="45.08546" lon="5.0978">
        <ele>192.9</ele>
        <time>2022-10-16T12:16:59.000Z</time>
      </trkpt>
      <trkpt lat="45.08545" lon="5.09775">
        <ele>192.8</ele>
        <time>2022-10-16T12:17:00.000Z</time>
      </trkpt>
      <trkpt lat="45.08543" lon="5.09771">
        <ele>192.8</ele>
        <time>2022-10-16T12:17:01.000Z</time>
      </trkpt>
      <trkpt lat="45.08542" lon="5.09766">
        <ele>192.7</ele>
        <time>2022-10-16T12:17:02.000Z</time>
      </trkpt>
      <trkpt lat="45.0854" lon="5.09762">
        <ele>192.7</ele>
        <time>2022-10-16T12:17:03.000Z</time>
      </trkpt>
      <trkpt lat="45.08539" lon="5.09758">
        <ele>192.6</ele>
        <time>2022-10-16T12:17:04.000Z</time>
      </trkpt>
      <trkpt lat="45.08538" lon="5.09755">
        <ele>192.6</ele>
        <time>2022-10-16T12:17:05.000Z</time>
      </trkpt>
      <trkpt lat="45.08537" lon="5.09751">
        <ele>192.6</ele>
        <time>2022-10-16T12:17:06.000Z</time>
      </trkpt>
      <trkpt lat="45.08535" lon="5.09747">
        <ele>192.5</ele>
        <time>2022-10-16T12:17:07.000Z</time>
      </trkpt>
      <trkpt lat="45.08534" lon="5.09743">
        <ele>192.4</ele>
        <time>2022-10-16T12:17:08.000Z</time>
      </trkpt>
      <trkpt lat="45.08532" lon="5.0974">
        <ele>192.3</ele>
        <time>2022-10-16T12:17:09.000Z</time>
      </trkpt>
      <trkpt lat="45.0853" lon="5.09735">
        <ele>192.2</ele>
        <time>2022-10-16T12:17:10.000Z</time>
      </trkpt>
      <trkpt lat="45.08529" lon="5.09731">
        <ele>192.1</ele>
        <time>2022-10-16T12:17:11.000Z</time>
      </trkpt>
      <trkpt lat="45.08527" lon="5.09726">
        <ele>191.9</ele>
        <time>2022-10-16T12:17:12.000Z</time>
      </trkpt>
      <trkpt lat="45.08525" lon="5.09721">
        <ele>191.7</ele>
        <time>2022-10-16T12:17:13.000Z</time>
      </trkpt>
      <trkpt lat="45.08523" lon="5.09715">
        <ele>191.7</ele>
        <time>2022-10-16T12:17:14.000Z</time>
      </trkpt>
      <trkpt lat="45.08521" lon="5.0971">
        <ele>191.6</ele>
        <time>2022-10-16T12:17:15.000Z</time>
      </trkpt>
      <trkpt lat="45.08519" lon="5.09704">
        <ele>191.5</ele>
        <time>2022-10-16T12:17:16.000Z</time>
      </trkpt>
      <trkpt lat="45.08517" lon="5.09698">
        <ele>191.3</ele>
        <time>2022-10-16T12:17:17.000Z</time>
      </trkpt>
      <trkpt lat="45.08515" lon="5.09692">
        <ele>191.2</ele>
        <time>2022-10-16T12:17:18.000Z</time>
      </trkpt>
      <trkpt lat="45.08513" lon="5.09686">
        <ele>191.2</ele>
        <time>2022-10-16T12:17:19.000Z</time>
      </trkpt>
      <trkpt lat="45.08511" lon="5.0968">
        <ele>191.2</ele>
        <time>2022-10-16T12:17:20.000Z</time>
      </trkpt>
      <trkpt lat="45.08508" lon="5.09675">
        <ele>191.2</ele>
        <time>2022-10-16T12:17:21.000Z</time>
      </trkpt>
      <trkpt lat="45.08506" lon="5.09669">
        <ele>191.3</ele>
        <time>2022-10-16T12:17:22.000Z</time>
      </trkpt>
      <trkpt lat="45.08504" lon="5.09664">
        <ele>191.4</ele>
        <time>2022-10-16T12:17:23.000Z</time>
      </trkpt>
      <trkpt lat="45.08502" lon="5.09659">
        <ele>191.4</ele>
        <time>2022-10-16T12:17:24.000Z</time>
      </trkpt>
      <trkpt lat="45.085" lon="5.09654">
        <ele>191.4</ele>
        <time>2022-10-16T12:17:25.000Z</time>
      </trkpt>
      <trkpt lat="45.08498" lon="5.0965">
        <ele>191.3</ele>
        <time>2022-10-16T12:17:26.000Z</time>
      </trkpt>
      <trkpt lat="45.08496" lon="5.09645">
        <ele>191.2</ele>
        <time>2022-10-16T12:17:27.000Z</time>
      </trkpt>
      <trkpt lat="45.08494" lon="5.09641">
        <ele>191</ele>
        <time>2022-10-16T12:17:28.000Z</time>
      </trkpt>
      <trkpt lat="45.08492" lon="5.09637">
        <ele>190.9</ele>
        <time>2022-10-16T12:17:29.000Z</time>
      </trkpt>
      <trkpt lat="45.0849" lon="5.09633">
        <ele>190.7</ele>
        <time>2022-10-16T12:17:30.000Z</time>
      </trkpt>
      <trkpt lat="45.08489" lon="5.09629">
        <ele>190.6</ele>
        <time>2022-10-16T12:17:31.000Z</time>
      </trkpt>
      <trkpt lat="45.08487" lon="5.09625">
        <ele>190.6</ele>
        <time>2022-10-16T12:17:32.000Z</time>
      </trkpt>
      <trkpt lat="45.08485" lon="5.09621">
        <ele>190.6</ele>
        <time>2022-10-16T12:17:33.000Z</time>
      </trkpt>
      <trkpt lat="45.08484" lon="5.09617">
        <ele>190.6</ele>
        <time>2022-10-16T12:17:34.000Z</time>
      </trkpt>
      <trkpt lat="45.08483" lon="5.09613">
        <ele>190.7</ele>
        <time>2022-10-16T12:17:35.000Z</time>
      </trkpt>
      <trkpt lat="45.08481" lon="5.09609">
        <ele>190.7</ele>
        <time>2022-10-16T12:17:36.000Z</time>
      </trkpt>
      <trkpt lat="45.0848" lon="5.09605">
        <ele>190.7</ele>
        <time>2022-10-16T12:17:37.000Z</time>
      </trkpt>
      <trkpt lat="45.08479" lon="5.096">
        <ele>190.8</ele>
        <time>2022-10-16T12:17:38.000Z</time>
      </trkpt>
      <trkpt lat="45.08477" lon="5.09596">
        <ele>190.8</ele>
        <time>2022-10-16T12:17:39.000Z</time>
      </trkpt>
      <trkpt lat="45.08475" lon="5.09591">
        <ele>190.9</ele>
        <time>2022-10-16T12:17:40.000Z</time>
      </trkpt>
      <trkpt lat="45.08474" lon="5.09587">
        <ele>191</ele>
        <time>2022-10-16T12:17:41.000Z</time>
      </trkpt>
      <trkpt lat="45.08472" lon="5.09582">
        <ele>191</ele>
        <time>2022-10-16T12:17:42.000Z</time>
      </trkpt>
      <trkpt lat="45.0847" lon="5.09579">
        <ele>190.8</ele>
        <time>2022-10-16T12:17:43.000Z</time>
      </trkpt>
      <trkpt lat="45.08467" lon="5.09576">
        <ele>190.6</ele>
        <time>2022-10-16T12:17:44.000Z</time>
      </trkpt>
      <trkpt lat="45.08465" lon="5.09572">
        <ele>190.5</ele>
        <time>2022-10-16T12:17:45.000Z</time>
      </trkpt>
      <trkpt lat="45.08463" lon="5.09567">
        <ele>190.4</ele>
        <time>2022-10-16T12:17:46.000Z</time>
      </trkpt>
      <trkpt lat="45.08461" lon="5.09563">
        <ele>190.2</ele>
        <time>2022-10-16T12:17:47.000Z</time>
      </trkpt>
      <trkpt lat="45.0846" lon="5.09557">
        <ele>190.1</ele>
        <time>2022-10-16T12:17:48.000Z</time>
      </trkpt>
      <trkpt lat="45.08459" lon="5.09551">
        <ele>190.1</ele>
        <time>2022-10-16T12:17:49.000Z</time>
      </trkpt>
      <trkpt lat="45.08458" lon="5.09545">
        <ele>190.1</ele>
        <time>2022-10-16T12:17:50.000Z</time>
      </trkpt>
      <trkpt lat="45.08455" lon="5.09541">
        <ele>190.1</ele>
        <time>2022-10-16T12:17:51.000Z</time>
      </trkpt>
      <trkpt lat="45.08453" lon="5.09538">
        <ele>190</ele>
        <time>2022-10-16T12:17:52.000Z</time>
      </trkpt>
      <trkpt lat="45.0845" lon="5.09534">
        <ele>190</ele>
        <time>2022-10-16T12:17:53.000Z</time>
      </trkpt>
      <trkpt lat="45.08447" lon="5.09531">
        <ele>190</ele>
        <time>2022-10-16T12:17:54.000Z</time>
      </trkpt>
      <trkpt lat="45.08443" lon="5.09528">
        <ele>189.8</ele>
        <time>2022-10-16T12:17:55.000Z</time>
      </trkpt>
      <trkpt lat="45.08438" lon="5.09525">
        <ele>189.2</ele>
        <time>2022-10-16T12:17:56.000Z</time>
      </trkpt>
      <trkpt lat="45.08433" lon="5.09522">
        <ele>188.6</ele>
        <time>2022-10-16T12:17:57.000Z</time>
      </trkpt>
      <trkpt lat="45.08428" lon="5.09518">
        <ele>188.1</ele>
        <time>2022-10-16T12:17:58.000Z</time>
      </trkpt>
      <trkpt lat="45.08423" lon="5.09514">
        <ele>187.8</ele>
        <time>2022-10-16T12:17:59.000Z</time>
      </trkpt>
      <trkpt lat="45.08418" lon="5.09509">
        <ele>187.7</ele>
        <time>2022-10-16T12:18:00.000Z</time>
      </trkpt>
      <trkpt lat="45.08413" lon="5.09505">
        <ele>187.6</ele>
        <time>2022-10-16T12:18:01.000Z</time>
      </trkpt>
      <trkpt lat="45.08409" lon="5.09499">
        <ele>187.4</ele>
        <time>2022-10-16T12:18:02.000Z</time>
      </trkpt>
      <trkpt lat="45.08404" lon="5.09494">
        <ele>187.1</ele>
        <time>2022-10-16T12:18:03.000Z</time>
      </trkpt>
      <trkpt lat="45.084" lon="5.09488">
        <ele>186.9</ele>
        <time>2022-10-16T12:18:04.000Z</time>
      </trkpt>
      <trkpt lat="45.08396" lon="5.09482">
        <ele>186.8</ele>
        <time>2022-10-16T12:18:05.000Z</time>
      </trkpt>
      <trkpt lat="45.08391" lon="5.09477">
        <ele>186.9</ele>
        <time>2022-10-16T12:18:06.000Z</time>
      </trkpt>
      <trkpt lat="45.08387" lon="5.09471">
        <ele>186.8</ele>
        <time>2022-10-16T12:18:07.000Z</time>
      </trkpt>
      <trkpt lat="45.08383" lon="5.09466">
        <ele>186.4</ele>
        <time>2022-10-16T12:18:08.000Z</time>
      </trkpt>
      <trkpt lat="45.08379" lon="5.09461">
        <ele>186.2</ele>
        <time>2022-10-16T12:18:09.000Z</time>
      </trkpt>
      <trkpt lat="45.08374" lon="5.09456">
        <ele>186</ele>
        <time>2022-10-16T12:18:10.000Z</time>
      </trkpt>
      <trkpt lat="45.0837" lon="5.09451">
        <ele>185.9</ele>
        <time>2022-10-16T12:18:11.000Z</time>
      </trkpt>
      <trkpt lat="45.08366" lon="5.09445">
        <ele>186</ele>
        <time>2022-10-16T12:18:12.000Z</time>
      </trkpt>
      <trkpt lat="45.08362" lon="5.0944">
        <ele>186</ele>
        <time>2022-10-16T12:18:13.000Z</time>
      </trkpt>
      <trkpt lat="45.08359" lon="5.09436">
        <ele>185.9</ele>
        <time>2022-10-16T12:18:14.000Z</time>
      </trkpt>
      <trkpt lat="45.08355" lon="5.09431">
        <ele>185.9</ele>
        <time>2022-10-16T12:18:15.000Z</time>
      </trkpt>
      <trkpt lat="45.08351" lon="5.09427">
        <ele>185.9</ele>
        <time>2022-10-16T12:18:16.000Z</time>
      </trkpt>
      <trkpt lat="45.08347" lon="5.09423">
        <ele>185.9</ele>
        <time>2022-10-16T12:18:17.000Z</time>
      </trkpt>
      <trkpt lat="45.08344" lon="5.09419">
        <ele>186</ele>
        <time>2022-10-16T12:18:18.000Z</time>
      </trkpt>
      <trkpt lat="45.0834" lon="5.09414">
        <ele>186</ele>
        <time>2022-10-16T12:18:19.000Z</time>
      </trkpt>
      <trkpt lat="45.08337" lon="5.0941">
        <ele>186</ele>
        <time>2022-10-16T12:18:20.000Z</time>
      </trkpt>
      <trkpt lat="45.08334" lon="5.09406">
        <ele>186</ele>
        <time>2022-10-16T12:18:21.000Z</time>
      </trkpt>
      <trkpt lat="45.08331" lon="5.09401">
        <ele>185.9</ele>
        <time>2022-10-16T12:18:22.000Z</time>
      </trkpt>
      <trkpt lat="45.08328" lon="5.09397">
        <ele>185.8</ele>
        <time>2022-10-16T12:18:23.000Z</time>
      </trkpt>
      <trkpt lat="45.08325" lon="5.09393">
        <ele>185.7</ele>
        <time>2022-10-16T12:18:24.000Z</time>
      </trkpt>
      <trkpt lat="45.08323" lon="5.0939">
        <ele>185.6</ele>
        <time>2022-10-16T12:18:25.000Z</time>
      </trkpt>
      <trkpt lat="45.0832" lon="5.09386">
        <ele>185.5</ele>
        <time>2022-10-16T12:18:26.000Z</time>
      </trkpt>
      <trkpt lat="45.08317" lon="5.09382">
        <ele>185.3</ele>
        <time>2022-10-16T12:18:27.000Z</time>
      </trkpt>
      <trkpt lat="45.08315" lon="5.09379">
        <ele>185.2</ele>
        <time>2022-10-16T12:18:28.000Z</time>
      </trkpt>
      <trkpt lat="45.08313" lon="5.09375">
        <ele>185.1</ele>
        <time>2022-10-16T12:18:29.000Z</time>
      </trkpt>
      <trkpt lat="45.0831" lon="5.09371">
        <ele>185.1</ele>
        <time>2022-10-16T12:18:30.000Z</time>
      </trkpt>
      <trkpt lat="45.08308" lon="5.09367">
        <ele>185</ele>
        <time>2022-10-16T12:18:31.000Z</time>
      </trkpt>
      <trkpt lat="45.08306" lon="5.09363">
        <ele>185</ele>
        <time>2022-10-16T12:18:32.000Z</time>
      </trkpt>
      <trkpt lat="45.08304" lon="5.09358">
        <ele>185</ele>
        <time>2022-10-16T12:18:33.000Z</time>
      </trkpt>
      <trkpt lat="45.08301" lon="5.09353">
        <ele>185</ele>
        <time>2022-10-16T12:18:34.000Z</time>
      </trkpt>
      <trkpt lat="45.08299" lon="5.09347">
        <ele>185</ele>
        <time>2022-10-16T12:18:35.000Z</time>
      </trkpt>
      <trkpt lat="45.08297" lon="5.09341">
        <ele>185</ele>
        <time>2022-10-16T12:18:36.000Z</time>
      </trkpt>
      <trkpt lat="45.08295" lon="5.09336">
        <ele>185</ele>
        <time>2022-10-16T12:18:37.000Z</time>
      </trkpt>
      <trkpt lat="45.08292" lon="5.0933">
        <ele>185.1</ele>
        <time>2022-10-16T12:18:38.000Z</time>
      </trkpt>
      <trkpt lat="45.0829" lon="5.09326">
        <ele>185.1</ele>
        <time>2022-10-16T12:18:39.000Z</time>
      </trkpt>
      <trkpt lat="45.08288" lon="5.09322">
        <ele>185.3</ele>
        <time>2022-10-16T12:18:40.000Z</time>
      </trkpt>
      <trkpt lat="45.08286" lon="5.09317">
        <ele>185.4</ele>
        <time>2022-10-16T12:18:41.000Z</time>
      </trkpt>
      <trkpt lat="45.08284" lon="5.09312">
        <ele>185.6</ele>
        <time>2022-10-16T12:18:42.000Z</time>
      </trkpt>
      <trkpt lat="45.08282" lon="5.09308">
        <ele>185.8</ele>
        <time>2022-10-16T12:18:43.000Z</time>
      </trkpt>
      <trkpt lat="45.0828" lon="5.09303">
        <ele>185.8</ele>
        <time>2022-10-16T12:18:44.000Z</time>
      </trkpt>
      <trkpt lat="45.08279" lon="5.09298">
        <ele>185.7</ele>
        <time>2022-10-16T12:18:45.000Z</time>
      </trkpt>
      <trkpt lat="45.08277" lon="5.09293">
        <ele>185.5</ele>
        <time>2022-10-16T12:18:46.000Z</time>
      </trkpt>
      <trkpt lat="45.08275" lon="5.09288">
        <ele>185.3</ele>
        <time>2022-10-16T12:18:47.000Z</time>
      </trkpt>
      <trkpt lat="45.08274" lon="5.09282">
        <ele>185.1</ele>
        <time>2022-10-16T12:18:48.000Z</time>
      </trkpt>
      <trkpt lat="45.08272" lon="5.09276">
        <ele>185</ele>
        <time>2022-10-16T12:18:49.000Z</time>
      </trkpt>
      <trkpt lat="45.0827" lon="5.09271">
        <ele>185.1</ele>
        <time>2022-10-16T12:18:50.000Z</time>
      </trkpt>
      <trkpt lat="45.08268" lon="5.09265">
        <ele>185.2</ele>
        <time>2022-10-16T12:18:51.000Z</time>
      </trkpt>
      <trkpt lat="45.08266" lon="5.09259">
        <ele>185.3</ele>
        <time>2022-10-16T12:18:52.000Z</time>
      </trkpt>
      <trkpt lat="45.08265" lon="5.09254">
        <ele>185.4</ele>
        <time>2022-10-16T12:18:53.000Z</time>
      </trkpt>
      <trkpt lat="45.08263" lon="5.09248">
        <ele>185.5</ele>
        <time>2022-10-16T12:18:54.000Z</time>
      </trkpt>
      <trkpt lat="45.08261" lon="5.09241">
        <ele>185.6</ele>
        <time>2022-10-16T12:18:55.000Z</time>
      </trkpt>
      <trkpt lat="45.08259" lon="5.09235">
        <ele>185.7</ele>
        <time>2022-10-16T12:18:56.000Z</time>
      </trkpt>
      <trkpt lat="45.08257" lon="5.09229">
        <ele>185.8</ele>
        <time>2022-10-16T12:18:57.000Z</time>
      </trkpt>
      <trkpt lat="45.08255" lon="5.09222">
        <ele>185.8</ele>
        <time>2022-10-16T12:18:58.000Z</time>
      </trkpt>
      <trkpt lat="45.08254" lon="5.09216">
        <ele>185.7</ele>
        <time>2022-10-16T12:18:59.000Z</time>
      </trkpt>
      <trkpt lat="45.08252" lon="5.0921">
        <ele>185.5</ele>
        <time>2022-10-16T12:19:00.000Z</time>
      </trkpt>
      <trkpt lat="45.08251" lon="5.09203">
        <ele>185.3</ele>
        <time>2022-10-16T12:19:01.000Z</time>
      </trkpt>
      <trkpt lat="45.0825" lon="5.09197">
        <ele>185.1</ele>
        <time>2022-10-16T12:19:02.000Z</time>
      </trkpt>
      <trkpt lat="45.08249" lon="5.09191">
        <ele>185</ele>
        <time>2022-10-16T12:19:03.000Z</time>
      </trkpt>
      <trkpt lat="45.08248" lon="5.09186">
        <ele>185</ele>
        <time>2022-10-16T12:19:04.000Z</time>
      </trkpt>
      <trkpt lat="45.08247" lon="5.0918">
        <ele>185</ele>
        <time>2022-10-16T12:19:05.000Z</time>
      </trkpt>
      <trkpt lat="45.08246" lon="5.09174">
        <ele>185</ele>
        <time>2022-10-16T12:19:06.000Z</time>
      </trkpt>
      <trkpt lat="45.08245" lon="5.09169">
        <ele>185</ele>
        <time>2022-10-16T12:19:07.000Z</time>
      </trkpt>
      <trkpt lat="45.08244" lon="5.09163">
        <ele>185</ele>
        <time>2022-10-16T12:19:08.000Z</time>
      </trkpt>
      <trkpt lat="45.08244" lon="5.09156">
        <ele>185</ele>
        <time>2022-10-16T12:19:09.000Z</time>
      </trkpt>
      <trkpt lat="45.08243" lon="5.0915">
        <ele>185</ele>
        <time>2022-10-16T12:19:10.000Z</time>
      </trkpt>
      <trkpt lat="45.08242" lon="5.09144">
        <ele>185</ele>
        <time>2022-10-16T12:19:11.000Z</time>
      </trkpt>
      <trkpt lat="45.08241" lon="5.09138">
        <ele>185</ele>
        <time>2022-10-16T12:19:12.000Z</time>
      </trkpt>
      <trkpt lat="45.0824" lon="5.09132">
        <ele>185</ele>
        <time>2022-10-16T12:19:13.000Z</time>
      </trkpt>
      <trkpt lat="45.0824" lon="5.09127">
        <ele>185</ele>
        <time>2022-10-16T12:19:14.000Z</time>
      </trkpt>
      <trkpt lat="45.08239" lon="5.09122">
        <ele>185</ele>
        <time>2022-10-16T12:19:15.000Z</time>
      </trkpt>
      <trkpt lat="45.08238" lon="5.09117">
        <ele>185</ele>
        <time>2022-10-16T12:19:16.000Z</time>
      </trkpt>
      <trkpt lat="45.08238" lon="5.09112">
        <ele>185</ele>
        <time>2022-10-16T12:19:17.000Z</time>
      </trkpt>
      <trkpt lat="45.08238" lon="5.09108">
        <ele>185</ele>
        <time>2022-10-16T12:19:18.000Z</time>
      </trkpt>
      <trkpt lat="45.08238" lon="5.09103">
        <ele>185</ele>
        <time>2022-10-16T12:19:19.000Z</time>
      </trkpt>
      <trkpt lat="45.08237" lon="5.09098">
        <ele>185</ele>
        <time>2022-10-16T12:19:20.000Z</time>
      </trkpt>
      <trkpt lat="45.08237" lon="5.09093">
        <ele>185</ele>
        <time>2022-10-16T12:19:21.000Z</time>
      </trkpt>
      <trkpt lat="45.08236" lon="5.09089">
        <ele>185</ele>
        <time>2022-10-16T12:19:22.000Z</time>
      </trkpt>
      <trkpt lat="45.08235" lon="5.09084">
        <ele>185</ele>
        <time>2022-10-16T12:19:23.000Z</time>
      </trkpt>
      <trkpt lat="45.08235" lon="5.0908">
        <ele>185</ele>
        <time>2022-10-16T12:19:24.000Z</time>
      </trkpt>
      <trkpt lat="45.08235" lon="5.09076">
        <ele>185</ele>
        <time>2022-10-16T12:19:25.000Z</time>
      </trkpt>
      <trkpt lat="45.08235" lon="5.09072">
        <ele>185</ele>
        <time>2022-10-16T12:19:26.000Z</time>
      </trkpt>
      <trkpt lat="45.08235" lon="5.09067">
        <ele>185</ele>
        <time>2022-10-16T12:19:27.000Z</time>
      </trkpt>
      <trkpt lat="45.08235" lon="5.09061">
        <ele>185</ele>
        <time>2022-10-16T12:19:28.000Z</time>
      </trkpt>
      <trkpt lat="45.08234" lon="5.09057">
        <ele>185</ele>
        <time>2022-10-16T12:19:29.000Z</time>
      </trkpt>
      <trkpt lat="45.08233" lon="5.09052">
        <ele>185</ele>
        <time>2022-10-16T12:19:30.000Z</time>
      </trkpt>
      <trkpt lat="45.08232" lon="5.09047">
        <ele>185</ele>
        <time>2022-10-16T12:19:31.000Z</time>
      </trkpt>
      <trkpt lat="45.08232" lon="5.09042">
        <ele>185</ele>
        <time>2022-10-16T12:19:32.000Z</time>
      </trkpt>
      <trkpt lat="45.08231" lon="5.09035">
        <ele>185</ele>
        <time>2022-10-16T12:19:33.000Z</time>
      </trkpt>
      <trkpt lat="45.08231" lon="5.09029">
        <ele>185</ele>
        <time>2022-10-16T12:19:34.000Z</time>
      </trkpt>
      <trkpt lat="45.08232" lon="5.09023">
        <ele>185</ele>
        <time>2022-10-16T12:19:35.000Z</time>
      </trkpt>
      <trkpt lat="45.08232" lon="5.09017">
        <ele>185</ele>
        <time>2022-10-16T12:19:36.000Z</time>
      </trkpt>
      <trkpt lat="45.08232" lon="5.09012">
        <ele>185</ele>
        <time>2022-10-16T12:19:37.000Z</time>
      </trkpt>
      <trkpt lat="45.08231" lon="5.09007">
        <ele>185</ele>
        <time>2022-10-16T12:19:38.000Z</time>
      </trkpt>
      <trkpt lat="45.08231" lon="5.09001">
        <ele>185</ele>
        <time>2022-10-16T12:19:39.000Z</time>
      </trkpt>
      <trkpt lat="45.08231" lon="5.08996">
        <ele>185</ele>
        <time>2022-10-16T12:19:40.000Z</time>
      </trkpt>
      <trkpt lat="45.08231" lon="5.08991">
        <ele>185</ele>
        <time>2022-10-16T12:19:41.000Z</time>
      </trkpt>
      <trkpt lat="45.08231" lon="5.08986">
        <ele>185</ele>
        <time>2022-10-16T12:19:42.000Z</time>
      </trkpt>
      <trkpt lat="45.08231" lon="5.08979">
        <ele>185</ele>
        <time>2022-10-16T12:19:43.000Z</time>
      </trkpt>
      <trkpt lat="45.0823" lon="5.08972">
        <ele>185</ele>
        <time>2022-10-16T12:19:44.000Z</time>
      </trkpt>
      <trkpt lat="45.08229" lon="5.08966">
        <ele>185</ele>
        <time>2022-10-16T12:19:45.000Z</time>
      </trkpt>
      <trkpt lat="45.08229" lon="5.0896">
        <ele>185</ele>
        <time>2022-10-16T12:19:46.000Z</time>
      </trkpt>
      <trkpt lat="45.08228" lon="5.08953">
        <ele>185</ele>
        <time>2022-10-16T12:19:47.000Z</time>
      </trkpt>
      <trkpt lat="45.08227" lon="5.08947">
        <ele>185</ele>
        <time>2022-10-16T12:19:48.000Z</time>
      </trkpt>
      <trkpt lat="45.08227" lon="5.08941">
        <ele>185</ele>
        <time>2022-10-16T12:19:49.000Z</time>
      </trkpt>
      <trkpt lat="45.08226" lon="5.08935">
        <ele>185</ele>
        <time>2022-10-16T12:19:50.000Z</time>
      </trkpt>
      <trkpt lat="45.08225" lon="5.08928">
        <ele>185</ele>
        <time>2022-10-16T12:19:51.000Z</time>
      </trkpt>
      <trkpt lat="45.08224" lon="5.08922">
        <ele>185</ele>
        <time>2022-10-16T12:19:52.000Z</time>
      </trkpt>
      <trkpt lat="45.08224" lon="5.08915">
        <ele>185</ele>
        <time>2022-10-16T12:19:53.000Z</time>
      </trkpt>
      <trkpt lat="45.08224" lon="5.08908">
        <ele>185</ele>
        <time>2022-10-16T12:19:54.000Z</time>
      </trkpt>
      <trkpt lat="45.08224" lon="5.08901">
        <ele>185</ele>
        <time>2022-10-16T12:19:55.000Z</time>
      </trkpt>
      <trkpt lat="45.08224" lon="5.08894">
        <ele>185</ele>
        <time>2022-10-16T12:19:56.000Z</time>
      </trkpt>
      <trkpt lat="45.08224" lon="5.08888">
        <ele>185</ele>
        <time>2022-10-16T12:19:57.000Z</time>
      </trkpt>
      <trkpt lat="45.08224" lon="5.08881">
        <ele>185</ele>
        <time>2022-10-16T12:19:58.000Z</time>
      </trkpt>
      <trkpt lat="45.08223" lon="5.08875">
        <ele>185</ele>
        <time>2022-10-16T12:19:59.000Z</time>
      </trkpt>
      <trkpt lat="45.08223" lon="5.08869">
        <ele>185</ele>
        <time>2022-10-16T12:20:00.000Z</time>
      </trkpt>
      <trkpt lat="45.08223" lon="5.08862">
        <ele>185</ele>
        <time>2022-10-16T12:20:01.000Z</time>
      </trkpt>
      <trkpt lat="45.08223" lon="5.08856">
        <ele>185.2</ele>
        <time>2022-10-16T12:20:02.000Z</time>
      </trkpt>
      <trkpt lat="45.08223" lon="5.0885">
        <ele>185.4</ele>
        <time>2022-10-16T12:20:03.000Z</time>
      </trkpt>
      <trkpt lat="45.08223" lon="5.08844">
        <ele>185.6</ele>
        <time>2022-10-16T12:20:04.000Z</time>
      </trkpt>
      <trkpt lat="45.08223" lon="5.08838">
        <ele>185.8</ele>
        <time>2022-10-16T12:20:05.000Z</time>
      </trkpt>
      <trkpt lat="45.08222" lon="5.08832">
        <ele>186</ele>
        <time>2022-10-16T12:20:06.000Z</time>
      </trkpt>
      <trkpt lat="45.08222" lon="5.08826">
        <ele>186</ele>
        <time>2022-10-16T12:20:07.000Z</time>
      </trkpt>
      <trkpt lat="45.08221" lon="5.0882">
        <ele>185.9</ele>
        <time>2022-10-16T12:20:08.000Z</time>
      </trkpt>
      <trkpt lat="45.08221" lon="5.08814">
        <ele>185.9</ele>
        <time>2022-10-16T12:20:09.000Z</time>
      </trkpt>
      <trkpt lat="45.08221" lon="5.08808">
        <ele>185.9</ele>
        <time>2022-10-16T12:20:10.000Z</time>
      </trkpt>
      <trkpt lat="45.08221" lon="5.08802">
        <ele>185.9</ele>
        <time>2022-10-16T12:20:11.000Z</time>
      </trkpt>
      <trkpt lat="45.08221" lon="5.08796">
        <ele>185.9</ele>
        <time>2022-10-16T12:20:12.000Z</time>
      </trkpt>
      <trkpt lat="45.0822" lon="5.08791">
        <ele>185.9</ele>
        <time>2022-10-16T12:20:13.000Z</time>
      </trkpt>
      <trkpt lat="45.0822" lon="5.08785">
        <ele>185.9</ele>
        <time>2022-10-16T12:20:14.000Z</time>
      </trkpt>
      <trkpt lat="45.08219" lon="5.0878">
        <ele>185.9</ele>
        <time>2022-10-16T12:20:15.000Z</time>
      </trkpt>
      <trkpt lat="45.08219" lon="5.08774">
        <ele>185.9</ele>
        <time>2022-10-16T12:20:16.000Z</time>
      </trkpt>
      <trkpt lat="45.08218" lon="5.0877">
        <ele>185.9</ele>
        <time>2022-10-16T12:20:17.000Z</time>
      </trkpt>
      <trkpt lat="45.08217" lon="5.08765">
        <ele>185.9</ele>
        <time>2022-10-16T12:20:18.000Z</time>
      </trkpt>
      <trkpt lat="45.08216" lon="5.08761">
        <ele>185.9</ele>
        <time>2022-10-16T12:20:19.000Z</time>
      </trkpt>
      <trkpt lat="45.08215" lon="5.08756">
        <ele>185.9</ele>
        <time>2022-10-16T12:20:20.000Z</time>
      </trkpt>
      <trkpt lat="45.08214" lon="5.0875">
        <ele>186</ele>
        <time>2022-10-16T12:20:21.000Z</time>
      </trkpt>
      <trkpt lat="45.08212" lon="5.08745">
        <ele>186.1</ele>
        <time>2022-10-16T12:20:22.000Z</time>
      </trkpt>
      <trkpt lat="45.08211" lon="5.08739">
        <ele>186.2</ele>
        <time>2022-10-16T12:20:23.000Z</time>
      </trkpt>
      <trkpt lat="45.0821" lon="5.08734">
        <ele>186.3</ele>
        <time>2022-10-16T12:20:24.000Z</time>
      </trkpt>
      <trkpt lat="45.08208" lon="5.08728">
        <ele>186.4</ele>
        <time>2022-10-16T12:20:25.000Z</time>
      </trkpt>
      <trkpt lat="45.08207" lon="5.08723">
        <ele>186.4</ele>
        <time>2022-10-16T12:20:26.000Z</time>
      </trkpt>
      <trkpt lat="45.08205" lon="5.08718">
        <ele>186.2</ele>
        <time>2022-10-16T12:20:27.000Z</time>
      </trkpt>
      <trkpt lat="45.08203" lon="5.08713">
        <ele>185.9</ele>
        <time>2022-10-16T12:20:28.000Z</time>
      </trkpt>
      <trkpt lat="45.082" lon="5.08709">
        <ele>185.6</ele>
        <time>2022-10-16T12:20:29.000Z</time>
      </trkpt>
      <trkpt lat="45.08198" lon="5.08705">
        <ele>185.4</ele>
        <time>2022-10-16T12:20:30.000Z</time>
      </trkpt>
      <trkpt lat="45.08196" lon="5.087">
        <ele>185.2</ele>
        <time>2022-10-16T12:20:31.000Z</time>
      </trkpt>
      <trkpt lat="45.08194" lon="5.08695">
        <ele>185</ele>
        <time>2022-10-16T12:20:32.000Z</time>
      </trkpt>
      <trkpt lat="45.08193" lon="5.08688">
        <ele>184.7</ele>
        <time>2022-10-16T12:20:33.000Z</time>
      </trkpt>
      <trkpt lat="45.08192" lon="5.08681">
        <ele>184.5</ele>
        <time>2022-10-16T12:20:34.000Z</time>
      </trkpt>
      <trkpt lat="45.08191" lon="5.08673">
        <ele>184.2</ele>
        <time>2022-10-16T12:20:35.000Z</time>
      </trkpt>
      <trkpt lat="45.0819" lon="5.08666">
        <ele>184</ele>
        <time>2022-10-16T12:20:36.000Z</time>
      </trkpt>
      <trkpt lat="45.08189" lon="5.08658">
        <ele>183.9</ele>
        <time>2022-10-16T12:20:37.000Z</time>
      </trkpt>
      <trkpt lat="45.08188" lon="5.08651">
        <ele>183.9</ele>
        <time>2022-10-16T12:20:38.000Z</time>
      </trkpt>
      <trkpt lat="45.08186" lon="5.08645">
        <ele>183.8</ele>
        <time>2022-10-16T12:20:39.000Z</time>
      </trkpt>
      <trkpt lat="45.08185" lon="5.08638">
        <ele>183.7</ele>
        <time>2022-10-16T12:20:40.000Z</time>
      </trkpt>
      <trkpt lat="45.08184" lon="5.08631">
        <ele>183.6</ele>
        <time>2022-10-16T12:20:41.000Z</time>
      </trkpt>
      <trkpt lat="45.08183" lon="5.08625">
        <ele>183.6</ele>
        <time>2022-10-16T12:20:42.000Z</time>
      </trkpt>
      <trkpt lat="45.08182" lon="5.08619">
        <ele>183.5</ele>
        <time>2022-10-16T12:20:43.000Z</time>
      </trkpt>
      <trkpt lat="45.08181" lon="5.08613">
        <ele>183.5</ele>
        <time>2022-10-16T12:20:44.000Z</time>
      </trkpt>
      <trkpt lat="45.08181" lon="5.08607">
        <ele>183.5</ele>
        <time>2022-10-16T12:20:45.000Z</time>
      </trkpt>
      <trkpt lat="45.0818" lon="5.08602">
        <ele>183.5</ele>
        <time>2022-10-16T12:20:46.000Z</time>
      </trkpt>
      <trkpt lat="45.08179" lon="5.08596">
        <ele>183.4</ele>
        <time>2022-10-16T12:20:47.000Z</time>
      </trkpt>
      <trkpt lat="45.08178" lon="5.0859">
        <ele>183.4</ele>
        <time>2022-10-16T12:20:48.000Z</time>
      </trkpt>
      <trkpt lat="45.08178" lon="5.08584">
        <ele>183.4</ele>
        <time>2022-10-16T12:20:49.000Z</time>
      </trkpt>
      <trkpt lat="45.08177" lon="5.08578">
        <ele>183.4</ele>
        <time>2022-10-16T12:20:50.000Z</time>
      </trkpt>
      <trkpt lat="45.08176" lon="5.08573">
        <ele>183.3</ele>
        <time>2022-10-16T12:20:51.000Z</time>
      </trkpt>
      <trkpt lat="45.08175" lon="5.08567">
        <ele>183.3</ele>
        <time>2022-10-16T12:20:52.000Z</time>
      </trkpt>
      <trkpt lat="45.08173" lon="5.08561">
        <ele>183.2</ele>
        <time>2022-10-16T12:20:53.000Z</time>
      </trkpt>
      <trkpt lat="45.08173" lon="5.08555">
        <ele>183.2</ele>
        <time>2022-10-16T12:20:54.000Z</time>
      </trkpt>
      <trkpt lat="45.08172" lon="5.08549">
        <ele>183.4</ele>
        <time>2022-10-16T12:20:55.000Z</time>
      </trkpt>
      <trkpt lat="45.08171" lon="5.08543">
        <ele>183.6</ele>
        <time>2022-10-16T12:20:56.000Z</time>
      </trkpt>
      <trkpt lat="45.0817" lon="5.08537">
        <ele>183.8</ele>
        <time>2022-10-16T12:20:57.000Z</time>
      </trkpt>
      <trkpt lat="45.08169" lon="5.08532">
        <ele>183.9</ele>
        <time>2022-10-16T12:20:58.000Z</time>
      </trkpt>
      <trkpt lat="45.08168" lon="5.08525">
        <ele>184</ele>
        <time>2022-10-16T12:20:59.000Z</time>
      </trkpt>
      <trkpt lat="45.08167" lon="5.0852">
        <ele>184</ele>
        <time>2022-10-16T12:21:00.000Z</time>
      </trkpt>
      <trkpt lat="45.08167" lon="5.08514">
        <ele>184</ele>
        <time>2022-10-16T12:21:01.000Z</time>
      </trkpt>
      <trkpt lat="45.08166" lon="5.08508">
        <ele>184</ele>
        <time>2022-10-16T12:21:02.000Z</time>
      </trkpt>
      <trkpt lat="45.08164" lon="5.08502">
        <ele>183.9</ele>
        <time>2022-10-16T12:21:03.000Z</time>
      </trkpt>
      <trkpt lat="45.08163" lon="5.08497">
        <ele>184</ele>
        <time>2022-10-16T12:21:04.000Z</time>
      </trkpt>
      <trkpt lat="45.08162" lon="5.08491">
        <ele>184.1</ele>
        <time>2022-10-16T12:21:05.000Z</time>
      </trkpt>
      <trkpt lat="45.08162" lon="5.08485">
        <ele>184.2</ele>
        <time>2022-10-16T12:21:06.000Z</time>
      </trkpt>
      <trkpt lat="45.08161" lon="5.0848">
        <ele>184.4</ele>
        <time>2022-10-16T12:21:07.000Z</time>
      </trkpt>
      <trkpt lat="45.0816" lon="5.08475">
        <ele>184.5</ele>
        <time>2022-10-16T12:21:08.000Z</time>
      </trkpt>
      <trkpt lat="45.08159" lon="5.0847">
        <ele>184.5</ele>
        <time>2022-10-16T12:21:09.000Z</time>
      </trkpt>
      <trkpt lat="45.08158" lon="5.08464">
        <ele>184.5</ele>
        <time>2022-10-16T12:21:10.000Z</time>
      </trkpt>
      <trkpt lat="45.08158" lon="5.08459">
        <ele>184.5</ele>
        <time>2022-10-16T12:21:11.000Z</time>
      </trkpt>
      <trkpt lat="45.08157" lon="5.08454">
        <ele>184.5</ele>
        <time>2022-10-16T12:21:12.000Z</time>
      </trkpt>
      <trkpt lat="45.08156" lon="5.08448">
        <ele>184.6</ele>
        <time>2022-10-16T12:21:13.000Z</time>
      </trkpt>
      <trkpt lat="45.08156" lon="5.08442">
        <ele>184.6</ele>
        <time>2022-10-16T12:21:14.000Z</time>
      </trkpt>
      <trkpt lat="45.08155" lon="5.08437">
        <ele>184.6</ele>
        <time>2022-10-16T12:21:15.000Z</time>
      </trkpt>
      <trkpt lat="45.08155" lon="5.08431">
        <ele>184.6</ele>
        <time>2022-10-16T12:21:16.000Z</time>
      </trkpt>
      <trkpt lat="45.08155" lon="5.08425">
        <ele>184.6</ele>
        <time>2022-10-16T12:21:17.000Z</time>
      </trkpt>
      <trkpt lat="45.08154" lon="5.08419">
        <ele>184.6</ele>
        <time>2022-10-16T12:21:18.000Z</time>
      </trkpt>
      <trkpt lat="45.08154" lon="5.08413">
        <ele>184.6</ele>
        <time>2022-10-16T12:21:19.000Z</time>
      </trkpt>
      <trkpt lat="45.08154" lon="5.08407">
        <ele>184.5</ele>
        <time>2022-10-16T12:21:20.000Z</time>
      </trkpt>
      <trkpt lat="45.08153" lon="5.08401">
        <ele>184.5</ele>
        <time>2022-10-16T12:21:21.000Z</time>
      </trkpt>
      <trkpt lat="45.08152" lon="5.08394">
        <ele>184.5</ele>
        <time>2022-10-16T12:21:22.000Z</time>
      </trkpt>
      <trkpt lat="45.08152" lon="5.08387">
        <ele>184.5</ele>
        <time>2022-10-16T12:21:23.000Z</time>
      </trkpt>
      <trkpt lat="45.08152" lon="5.08381">
        <ele>184.5</ele>
        <time>2022-10-16T12:21:24.000Z</time>
      </trkpt>
      <trkpt lat="45.08151" lon="5.08375">
        <ele>184.4</ele>
        <time>2022-10-16T12:21:25.000Z</time>
      </trkpt>
      <trkpt lat="45.0815" lon="5.08368">
        <ele>184.4</ele>
        <time>2022-10-16T12:21:26.000Z</time>
      </trkpt>
      <trkpt lat="45.0815" lon="5.08362">
        <ele>184.4</ele>
        <time>2022-10-16T12:21:27.000Z</time>
      </trkpt>
      <trkpt lat="45.08149" lon="5.08355">
        <ele>184.5</ele>
        <time>2022-10-16T12:21:28.000Z</time>
      </trkpt>
      <trkpt lat="45.08148" lon="5.08348">
        <ele>184.7</ele>
        <time>2022-10-16T12:21:29.000Z</time>
      </trkpt>
      <trkpt lat="45.08147" lon="5.08341">
        <ele>184.8</ele>
        <time>2022-10-16T12:21:30.000Z</time>
      </trkpt>
      <trkpt lat="45.08146" lon="5.08335">
        <ele>185</ele>
        <time>2022-10-16T12:21:31.000Z</time>
      </trkpt>
      <trkpt lat="45.08144" lon="5.08329">
        <ele>185</ele>
        <time>2022-10-16T12:21:32.000Z</time>
      </trkpt>
      <trkpt lat="45.08143" lon="5.08323">
        <ele>185</ele>
        <time>2022-10-16T12:21:33.000Z</time>
      </trkpt>
      <trkpt lat="45.08142" lon="5.08319">
        <ele>185</ele>
        <time>2022-10-16T12:21:34.000Z</time>
      </trkpt>
      <trkpt lat="45.08142" lon="5.08314">
        <ele>185</ele>
        <time>2022-10-16T12:21:35.000Z</time>
      </trkpt>
      <trkpt lat="45.08141" lon="5.08309">
        <ele>185</ele>
        <time>2022-10-16T12:21:36.000Z</time>
      </trkpt>
      <trkpt lat="45.08139" lon="5.08304">
        <ele>185</ele>
        <time>2022-10-16T12:21:37.000Z</time>
      </trkpt>
      <trkpt lat="45.08138" lon="5.08299">
        <ele>185</ele>
        <time>2022-10-16T12:21:38.000Z</time>
      </trkpt>
      <trkpt lat="45.08136" lon="5.08294">
        <ele>184.9</ele>
        <time>2022-10-16T12:21:39.000Z</time>
      </trkpt>
      <trkpt lat="45.08135" lon="5.08288">
        <ele>184.9</ele>
        <time>2022-10-16T12:21:40.000Z</time>
      </trkpt>
      <trkpt lat="45.08133" lon="5.08283">
        <ele>184.8</ele>
        <time>2022-10-16T12:21:41.000Z</time>
      </trkpt>
      <trkpt lat="45.08131" lon="5.08278">
        <ele>184.7</ele>
        <time>2022-10-16T12:21:42.000Z</time>
      </trkpt>
      <trkpt lat="45.08129" lon="5.08273">
        <ele>184.8</ele>
        <time>2022-10-16T12:21:43.000Z</time>
      </trkpt>
      <trkpt lat="45.08127" lon="5.08268">
        <ele>184.9</ele>
        <time>2022-10-16T12:21:44.000Z</time>
      </trkpt>
      <trkpt lat="45.08125" lon="5.08262">
        <ele>185.1</ele>
        <time>2022-10-16T12:21:45.000Z</time>
      </trkpt>
      <trkpt lat="45.08124" lon="5.08257">
        <ele>185.2</ele>
        <time>2022-10-16T12:21:46.000Z</time>
      </trkpt>
      <trkpt lat="45.08122" lon="5.08251">
        <ele>185.4</ele>
        <time>2022-10-16T12:21:47.000Z</time>
      </trkpt>
      <trkpt lat="45.08121" lon="5.08246">
        <ele>185.4</ele>
        <time>2022-10-16T12:21:48.000Z</time>
      </trkpt>
      <trkpt lat="45.08119" lon="5.08242">
        <ele>185.5</ele>
        <time>2022-10-16T12:21:49.000Z</time>
      </trkpt>
      <trkpt lat="45.08116" lon="5.08238">
        <ele>185.5</ele>
        <time>2022-10-16T12:21:50.000Z</time>
      </trkpt>
      <trkpt lat="45.08113" lon="5.08235">
        <ele>185.6</ele>
        <time>2022-10-16T12:21:51.000Z</time>
      </trkpt>
      <trkpt lat="45.08111" lon="5.08232">
        <ele>185.7</ele>
        <time>2022-10-16T12:21:52.000Z</time>
      </trkpt>
      <trkpt lat="45.08109" lon="5.08227">
        <ele>185.7</ele>
        <time>2022-10-16T12:21:53.000Z</time>
      </trkpt>
      <trkpt lat="45.08108" lon="5.08222">
        <ele>185.8</ele>
        <time>2022-10-16T12:21:54.000Z</time>
      </trkpt>
      <trkpt lat="45.08106" lon="5.08217">
        <ele>185.7</ele>
        <time>2022-10-16T12:21:55.000Z</time>
      </trkpt>
      <trkpt lat="45.08104" lon="5.08212">
        <ele>185.6</ele>
        <time>2022-10-16T12:21:56.000Z</time>
      </trkpt>
      <trkpt lat="45.08102" lon="5.08208">
        <ele>185.5</ele>
        <time>2022-10-16T12:21:57.000Z</time>
      </trkpt>
      <trkpt lat="45.08099" lon="5.08204">
        <ele>185.4</ele>
        <time>2022-10-16T12:21:58.000Z</time>
      </trkpt>
      <trkpt lat="45.08097" lon="5.08199">
        <ele>185.4</ele>
        <time>2022-10-16T12:21:59.000Z</time>
      </trkpt>
      <trkpt lat="45.08095" lon="5.08194">
        <ele>185.4</ele>
        <time>2022-10-16T12:22:00.000Z</time>
      </trkpt>
      <trkpt lat="45.08093" lon="5.0819">
        <ele>185.6</ele>
        <time>2022-10-16T12:22:01.000Z</time>
      </trkpt>
      <trkpt lat="45.08091" lon="5.08185">
        <ele>185.8</ele>
        <time>2022-10-16T12:22:02.000Z</time>
      </trkpt>
      <trkpt lat="45.08088" lon="5.08181">
        <ele>186</ele>
        <time>2022-10-16T12:22:03.000Z</time>
      </trkpt>
      <trkpt lat="45.08085" lon="5.08177">
        <ele>186.3</ele>
        <time>2022-10-16T12:22:04.000Z</time>
      </trkpt>
      <trkpt lat="45.08082" lon="5.08173">
        <ele>186.5</ele>
        <time>2022-10-16T12:22:05.000Z</time>
      </trkpt>
      <trkpt lat="45.0808" lon="5.08168">
        <ele>186.5</ele>
        <time>2022-10-16T12:22:06.000Z</time>
      </trkpt>
      <trkpt lat="45.08077" lon="5.08164">
        <ele>186.4</ele>
        <time>2022-10-16T12:22:07.000Z</time>
      </trkpt>
      <trkpt lat="45.08075" lon="5.08161">
        <ele>186.2</ele>
        <time>2022-10-16T12:22:08.000Z</time>
      </trkpt>
      <trkpt lat="45.08072" lon="5.08157">
        <ele>186</ele>
        <time>2022-10-16T12:22:09.000Z</time>
      </trkpt>
      <trkpt lat="45.08068" lon="5.08154">
        <ele>185.9</ele>
        <time>2022-10-16T12:22:10.000Z</time>
      </trkpt>
      <trkpt lat="45.08065" lon="5.08151">
        <ele>185.8</ele>
        <time>2022-10-16T12:22:11.000Z</time>
      </trkpt>
      <trkpt lat="45.08062" lon="5.08147">
        <ele>185.8</ele>
        <time>2022-10-16T12:22:12.000Z</time>
      </trkpt>
      <trkpt lat="45.08058" lon="5.08144">
        <ele>185.8</ele>
        <time>2022-10-16T12:22:13.000Z</time>
      </trkpt>
      <trkpt lat="45.08055" lon="5.08139">
        <ele>185.9</ele>
        <time>2022-10-16T12:22:14.000Z</time>
      </trkpt>
      <trkpt lat="45.08051" lon="5.08136">
        <ele>185.7</ele>
        <time>2022-10-16T12:22:15.000Z</time>
      </trkpt>
      <trkpt lat="45.08048" lon="5.08132">
        <ele>185.5</ele>
        <time>2022-10-16T12:22:16.000Z</time>
      </trkpt>
      <trkpt lat="45.08044" lon="5.08129">
        <ele>185.3</ele>
        <time>2022-10-16T12:22:17.000Z</time>
      </trkpt>
      <trkpt lat="45.08041" lon="5.08126">
        <ele>185.2</ele>
        <time>2022-10-16T12:22:18.000Z</time>
      </trkpt>
      <trkpt lat="45.08038" lon="5.08123">
        <ele>185.1</ele>
        <time>2022-10-16T12:22:19.000Z</time>
      </trkpt>
      <trkpt lat="45.08035" lon="5.08119">
        <ele>185</ele>
        <time>2022-10-16T12:22:20.000Z</time>
      </trkpt>
      <trkpt lat="45.08032" lon="5.08116">
        <ele>185</ele>
        <time>2022-10-16T12:22:21.000Z</time>
      </trkpt>
      <trkpt lat="45.08029" lon="5.08112">
        <ele>185</ele>
        <time>2022-10-16T12:22:22.000Z</time>
      </trkpt>
      <trkpt lat="45.08026" lon="5.08109">
        <ele>184.9</ele>
        <time>2022-10-16T12:22:23.000Z</time>
      </trkpt>
      <trkpt lat="45.08023" lon="5.08107">
        <ele>184.7</ele>
        <time>2022-10-16T12:22:24.000Z</time>
      </trkpt>
      <trkpt lat="45.0802" lon="5.08104">
        <ele>184.6</ele>
        <time>2022-10-16T12:22:25.000Z</time>
      </trkpt>
      <trkpt lat="45.08017" lon="5.08101">
        <ele>184.5</ele>
        <time>2022-10-16T12:22:26.000Z</time>
      </trkpt>
      <trkpt lat="45.08014" lon="5.08098">
        <ele>184.5</ele>
        <time>2022-10-16T12:22:27.000Z</time>
      </trkpt>
      <trkpt lat="45.08012" lon="5.08096">
        <ele>184.5</ele>
        <time>2022-10-16T12:22:28.000Z</time>
      </trkpt>
      <trkpt lat="45.08009" lon="5.08093">
        <ele>184.5</ele>
        <time>2022-10-16T12:22:29.000Z</time>
      </trkpt>
      <trkpt lat="45.08007" lon="5.08091">
        <ele>184.6</ele>
        <time>2022-10-16T12:22:30.000Z</time>
      </trkpt>
      <trkpt lat="45.08004" lon="5.08088">
        <ele>184.7</ele>
        <time>2022-10-16T12:22:31.000Z</time>
      </trkpt>
      <trkpt lat="45.08002" lon="5.08085">
        <ele>184.9</ele>
        <time>2022-10-16T12:22:32.000Z</time>
      </trkpt>
      <trkpt lat="45.08001" lon="5.08082">
        <ele>185</ele>
        <time>2022-10-16T12:22:33.000Z</time>
      </trkpt>
      <trkpt lat="45.07999" lon="5.0808">
        <ele>184.9</ele>
        <time>2022-10-16T12:22:34.000Z</time>
      </trkpt>
      <trkpt lat="45.07997" lon="5.08077">
        <ele>184.7</ele>
        <time>2022-10-16T12:22:35.000Z</time>
      </trkpt>
      <trkpt lat="45.07995" lon="5.08075">
        <ele>184.6</ele>
        <time>2022-10-16T12:22:36.000Z</time>
      </trkpt>
      <trkpt lat="45.07993" lon="5.08072">
        <ele>184.4</ele>
        <time>2022-10-16T12:22:37.000Z</time>
      </trkpt>
      <trkpt lat="45.0799" lon="5.0807">
        <ele>184.3</ele>
        <time>2022-10-16T12:22:38.000Z</time>
      </trkpt>
      <trkpt lat="45.07987" lon="5.08067">
        <ele>184.1</ele>
        <time>2022-10-16T12:22:39.000Z</time>
      </trkpt>
      <trkpt lat="45.07985" lon="5.08064">
        <ele>184.1</ele>
        <time>2022-10-16T12:22:40.000Z</time>
      </trkpt>
      <trkpt lat="45.07982" lon="5.08062">
        <ele>184.1</ele>
        <time>2022-10-16T12:22:41.000Z</time>
      </trkpt>
      <trkpt lat="45.0798" lon="5.08058">
        <ele>184.1</ele>
        <time>2022-10-16T12:22:42.000Z</time>
      </trkpt>
      <trkpt lat="45.07978" lon="5.08055">
        <ele>184.2</ele>
        <time>2022-10-16T12:22:43.000Z</time>
      </trkpt>
      <trkpt lat="45.07975" lon="5.08051">
        <ele>184.1</ele>
        <time>2022-10-16T12:22:44.000Z</time>
      </trkpt>
      <trkpt lat="45.07973" lon="5.08047">
        <ele>184</ele>
        <time>2022-10-16T12:22:45.000Z</time>
      </trkpt>
      <trkpt lat="45.07971" lon="5.08044">
        <ele>183.9</ele>
        <time>2022-10-16T12:22:46.000Z</time>
      </trkpt>
      <trkpt lat="45.07969" lon="5.08041">
        <ele>183.8</ele>
        <time>2022-10-16T12:22:47.000Z</time>
      </trkpt>
      <trkpt lat="45.07967" lon="5.08037">
        <ele>183.7</ele>
        <time>2022-10-16T12:22:48.000Z</time>
      </trkpt>
      <trkpt lat="45.07965" lon="5.08035">
        <ele>183.7</ele>
        <time>2022-10-16T12:22:49.000Z</time>
      </trkpt>
      <trkpt lat="45.07963" lon="5.08032">
        <ele>183.6</ele>
        <time>2022-10-16T12:22:50.000Z</time>
      </trkpt>
      <trkpt lat="45.07961" lon="5.0803">
        <ele>183.6</ele>
        <time>2022-10-16T12:22:51.000Z</time>
      </trkpt>
      <trkpt lat="45.07959" lon="5.08026">
        <ele>183.5</ele>
        <time>2022-10-16T12:22:52.000Z</time>
      </trkpt>
      <trkpt lat="45.07957" lon="5.08023">
        <ele>183.4</ele>
        <time>2022-10-16T12:22:53.000Z</time>
      </trkpt>
      <trkpt lat="45.07954" lon="5.0802">
        <ele>183.3</ele>
        <time>2022-10-16T12:22:54.000Z</time>
      </trkpt>
      <trkpt lat="45.07951" lon="5.08016">
        <ele>183.2</ele>
        <time>2022-10-16T12:22:55.000Z</time>
      </trkpt>
      <trkpt lat="45.07948" lon="5.08013">
        <ele>183.1</ele>
        <time>2022-10-16T12:22:56.000Z</time>
      </trkpt>
      <trkpt lat="45.07946" lon="5.0801">
        <ele>183</ele>
        <time>2022-10-16T12:22:57.000Z</time>
      </trkpt>
      <trkpt lat="45.07943" lon="5.08006">
        <ele>182.9</ele>
        <time>2022-10-16T12:22:58.000Z</time>
      </trkpt>
      <trkpt lat="45.0794" lon="5.08003">
        <ele>182.7</ele>
        <time>2022-10-16T12:22:59.000Z</time>
      </trkpt>
      <trkpt lat="45.07937" lon="5.07999">
        <ele>182.5</ele>
        <time>2022-10-16T12:23:00.000Z</time>
      </trkpt>
      <trkpt lat="45.07935" lon="5.07996">
        <ele>182.4</ele>
        <time>2022-10-16T12:23:01.000Z</time>
      </trkpt>
      <trkpt lat="45.07932" lon="5.07993">
        <ele>182.3</ele>
        <time>2022-10-16T12:23:02.000Z</time>
      </trkpt>
      <trkpt lat="45.07929" lon="5.07989">
        <ele>182.3</ele>
        <time>2022-10-16T12:23:03.000Z</time>
      </trkpt>
      <trkpt lat="45.07927" lon="5.07986">
        <ele>182.4</ele>
        <time>2022-10-16T12:23:04.000Z</time>
      </trkpt>
      <trkpt lat="45.07924" lon="5.07982">
        <ele>182.5</ele>
        <time>2022-10-16T12:23:05.000Z</time>
      </trkpt>
      <trkpt lat="45.07921" lon="5.07979">
        <ele>182.6</ele>
        <time>2022-10-16T12:23:06.000Z</time>
      </trkpt>
      <trkpt lat="45.07919" lon="5.07975">
        <ele>182.8</ele>
        <time>2022-10-16T12:23:07.000Z</time>
      </trkpt>
      <trkpt lat="45.07917" lon="5.07972">
        <ele>183</ele>
        <time>2022-10-16T12:23:08.000Z</time>
      </trkpt>
      <trkpt lat="45.07915" lon="5.07968">
        <ele>182.9</ele>
        <time>2022-10-16T12:23:09.000Z</time>
      </trkpt>
      <trkpt lat="45.07914" lon="5.07965">
        <ele>182.8</ele>
        <time>2022-10-16T12:23:10.000Z</time>
      </trkpt>
      <trkpt lat="45.07912" lon="5.07962">
        <ele>182.7</ele>
        <time>2022-10-16T12:23:11.000Z</time>
      </trkpt>
      <trkpt lat="45.0791" lon="5.07958">
        <ele>182.7</ele>
        <time>2022-10-16T12:23:12.000Z</time>
      </trkpt>
      <trkpt lat="45.07908" lon="5.07955">
        <ele>182.6</ele>
        <time>2022-10-16T12:23:13.000Z</time>
      </trkpt>
      <trkpt lat="45.07906" lon="5.07951">
        <ele>182.5</ele>
        <time>2022-10-16T12:23:14.000Z</time>
      </trkpt>
      <trkpt lat="45.07904" lon="5.07948">
        <ele>182.5</ele>
        <time>2022-10-16T12:23:15.000Z</time>
      </trkpt>
      <trkpt lat="45.07902" lon="5.07944">
        <ele>182.5</ele>
        <time>2022-10-16T12:23:16.000Z</time>
      </trkpt>
      <trkpt lat="45.07899" lon="5.0794">
        <ele>182.5</ele>
        <time>2022-10-16T12:23:17.000Z</time>
      </trkpt>
      <trkpt lat="45.07897" lon="5.07937">
        <ele>182.5</ele>
        <time>2022-10-16T12:23:18.000Z</time>
      </trkpt>
      <trkpt lat="45.07894" lon="5.07933">
        <ele>182.6</ele>
        <time>2022-10-16T12:23:19.000Z</time>
      </trkpt>
      <trkpt lat="45.07891" lon="5.07929">
        <ele>182.6</ele>
        <time>2022-10-16T12:23:20.000Z</time>
      </trkpt>
      <trkpt lat="45.07888" lon="5.07925">
        <ele>182.6</ele>
        <time>2022-10-16T12:23:21.000Z</time>
      </trkpt>
      <trkpt lat="45.07885" lon="5.07921">
        <ele>182.5</ele>
        <time>2022-10-16T12:23:22.000Z</time>
      </trkpt>
      <trkpt lat="45.07882" lon="5.07917">
        <ele>182.5</ele>
        <time>2022-10-16T12:23:23.000Z</time>
      </trkpt>
      <trkpt lat="45.07879" lon="5.07914">
        <ele>182.3</ele>
        <time>2022-10-16T12:23:24.000Z</time>
      </trkpt>
      <trkpt lat="45.07877" lon="5.07911">
        <ele>182.2</ele>
        <time>2022-10-16T12:23:25.000Z</time>
      </trkpt>
      <trkpt lat="45.07875" lon="5.07906">
        <ele>182.2</ele>
        <time>2022-10-16T12:23:26.000Z</time>
      </trkpt>
      <trkpt lat="45.07872" lon="5.07903">
        <ele>182.1</ele>
        <time>2022-10-16T12:23:27.000Z</time>
      </trkpt>
      <trkpt lat="45.0787" lon="5.07899">
        <ele>182.1</ele>
        <time>2022-10-16T12:23:28.000Z</time>
      </trkpt>
      <trkpt lat="45.07867" lon="5.07895">
        <ele>182</ele>
        <time>2022-10-16T12:23:29.000Z</time>
      </trkpt>
      <trkpt lat="45.07865" lon="5.07891">
        <ele>182.1</ele>
        <time>2022-10-16T12:23:30.000Z</time>
      </trkpt>
      <trkpt lat="45.07862" lon="5.07888">
        <ele>182</ele>
        <time>2022-10-16T12:23:31.000Z</time>
      </trkpt>
      <trkpt lat="45.0786" lon="5.07884">
        <ele>181.9</ele>
        <time>2022-10-16T12:23:32.000Z</time>
      </trkpt>
      <trkpt lat="45.07858" lon="5.0788">
        <ele>181.8</ele>
        <time>2022-10-16T12:23:33.000Z</time>
      </trkpt>
      <trkpt lat="45.07856" lon="5.07876">
        <ele>181.7</ele>
        <time>2022-10-16T12:23:34.000Z</time>
      </trkpt>
      <trkpt lat="45.07853" lon="5.07873">
        <ele>181.6</ele>
        <time>2022-10-16T12:23:35.000Z</time>
      </trkpt>
      <trkpt lat="45.0785" lon="5.07869">
        <ele>181.5</ele>
        <time>2022-10-16T12:23:36.000Z</time>
      </trkpt>
      <trkpt lat="45.07848" lon="5.07866">
        <ele>181.4</ele>
        <time>2022-10-16T12:23:37.000Z</time>
      </trkpt>
      <trkpt lat="45.07846" lon="5.07863">
        <ele>181.4</ele>
        <time>2022-10-16T12:23:38.000Z</time>
      </trkpt>
      <trkpt lat="45.07844" lon="5.0786">
        <ele>181.4</ele>
        <time>2022-10-16T12:23:39.000Z</time>
      </trkpt>
      <trkpt lat="45.07842" lon="5.07856">
        <ele>181.3</ele>
        <time>2022-10-16T12:23:40.000Z</time>
      </trkpt>
      <trkpt lat="45.0784" lon="5.07853">
        <ele>181.2</ele>
        <time>2022-10-16T12:23:41.000Z</time>
      </trkpt>
      <trkpt lat="45.07838" lon="5.07849">
        <ele>181.2</ele>
        <time>2022-10-16T12:23:42.000Z</time>
      </trkpt>
      <trkpt lat="45.07836" lon="5.07846">
        <ele>181.1</ele>
        <time>2022-10-16T12:23:43.000Z</time>
      </trkpt>
      <trkpt lat="45.07834" lon="5.07843">
        <ele>181</ele>
        <time>2022-10-16T12:23:44.000Z</time>
      </trkpt>
      <trkpt lat="45.07831" lon="5.0784">
        <ele>180.9</ele>
        <time>2022-10-16T12:23:45.000Z</time>
      </trkpt>
      <trkpt lat="45.07829" lon="5.07837">
        <ele>180.8</ele>
        <time>2022-10-16T12:23:46.000Z</time>
      </trkpt>
      <trkpt lat="45.07827" lon="5.07834">
        <ele>180.8</ele>
        <time>2022-10-16T12:23:47.000Z</time>
      </trkpt>
      <trkpt lat="45.07826" lon="5.0783">
        <ele>180.7</ele>
        <time>2022-10-16T12:23:48.000Z</time>
      </trkpt>
      <trkpt lat="45.07824" lon="5.07827">
        <ele>180.7</ele>
        <time>2022-10-16T12:23:49.000Z</time>
      </trkpt>
      <trkpt lat="45.07822" lon="5.07824">
        <ele>180.7</ele>
        <time>2022-10-16T12:23:50.000Z</time>
      </trkpt>
      <trkpt lat="45.07819" lon="5.07821">
        <ele>180.7</ele>
        <time>2022-10-16T12:23:51.000Z</time>
      </trkpt>
      <trkpt lat="45.07817" lon="5.07817">
        <ele>180.8</ele>
        <time>2022-10-16T12:23:52.000Z</time>
      </trkpt>
      <trkpt lat="45.07815" lon="5.07814">
        <ele>180.8</ele>
        <time>2022-10-16T12:23:53.000Z</time>
      </trkpt>
      <trkpt lat="45.07812" lon="5.07811">
        <ele>180.8</ele>
        <time>2022-10-16T12:23:54.000Z</time>
      </trkpt>
      <trkpt lat="45.0781" lon="5.07808">
        <ele>180.9</ele>
        <time>2022-10-16T12:23:55.000Z</time>
      </trkpt>
      <trkpt lat="45.07807" lon="5.07804">
        <ele>181</ele>
        <time>2022-10-16T12:23:56.000Z</time>
      </trkpt>
      <trkpt lat="45.07805" lon="5.07801">
        <ele>181</ele>
        <time>2022-10-16T12:23:57.000Z</time>
      </trkpt>
      <trkpt lat="45.07803" lon="5.07798">
        <ele>180.9</ele>
        <time>2022-10-16T12:23:58.000Z</time>
      </trkpt>
      <trkpt lat="45.07801" lon="5.07795">
        <ele>180.9</ele>
        <time>2022-10-16T12:23:59.000Z</time>
      </trkpt>
      <trkpt lat="45.07799" lon="5.07792">
        <ele>180.9</ele>
        <time>2022-10-16T12:24:00.000Z</time>
      </trkpt>
      <trkpt lat="45.07797" lon="5.07789">
        <ele>180.9</ele>
        <time>2022-10-16T12:24:01.000Z</time>
      </trkpt>
      <trkpt lat="45.07795" lon="5.07785">
        <ele>180.9</ele>
        <time>2022-10-16T12:24:02.000Z</time>
      </trkpt>
      <trkpt lat="45.07793" lon="5.07781">
        <ele>180.9</ele>
        <time>2022-10-16T12:24:03.000Z</time>
      </trkpt>
      <trkpt lat="45.07791" lon="5.07778">
        <ele>181</ele>
        <time>2022-10-16T12:24:04.000Z</time>
      </trkpt>
      <trkpt lat="45.07789" lon="5.07775">
        <ele>181.1</ele>
        <time>2022-10-16T12:24:05.000Z</time>
      </trkpt>
      <trkpt lat="45.07786" lon="5.07771">
        <ele>181.2</ele>
        <time>2022-10-16T12:24:06.000Z</time>
      </trkpt>
      <trkpt lat="45.07784" lon="5.07768">
        <ele>181.4</ele>
        <time>2022-10-16T12:24:07.000Z</time>
      </trkpt>
      <trkpt lat="45.07782" lon="5.07764">
        <ele>181.5</ele>
        <time>2022-10-16T12:24:08.000Z</time>
      </trkpt>
      <trkpt lat="45.0778" lon="5.07761">
        <ele>181.6</ele>
        <time>2022-10-16T12:24:09.000Z</time>
      </trkpt>
      <trkpt lat="45.07778" lon="5.07757">
        <ele>181.7</ele>
        <time>2022-10-16T12:24:10.000Z</time>
      </trkpt>
      <trkpt lat="45.07776" lon="5.07754">
        <ele>181.8</ele>
        <time>2022-10-16T12:24:11.000Z</time>
      </trkpt>
      <trkpt lat="45.07774" lon="5.0775">
        <ele>181.8</ele>
        <time>2022-10-16T12:24:12.000Z</time>
      </trkpt>
      <trkpt lat="45.07772" lon="5.07747">
        <ele>181.9</ele>
        <time>2022-10-16T12:24:13.000Z</time>
      </trkpt>
      <trkpt lat="45.07771" lon="5.07743">
        <ele>182</ele>
        <time>2022-10-16T12:24:14.000Z</time>
      </trkpt>
      <trkpt lat="45.07769" lon="5.0774">
        <ele>182.2</ele>
        <time>2022-10-16T12:24:15.000Z</time>
      </trkpt>
      <trkpt lat="45.07768" lon="5.07737">
        <ele>182.3</ele>
        <time>2022-10-16T12:24:16.000Z</time>
      </trkpt>
      <trkpt lat="45.07766" lon="5.07733">
        <ele>182.4</ele>
        <time>2022-10-16T12:24:17.000Z</time>
      </trkpt>
      <trkpt lat="45.07764" lon="5.0773">
        <ele>182.6</ele>
        <time>2022-10-16T12:24:18.000Z</time>
      </trkpt>
      <trkpt lat="45.07763" lon="5.07727">
        <ele>182.7</ele>
        <time>2022-10-16T12:24:19.000Z</time>
      </trkpt>
      <trkpt lat="45.07761" lon="5.07724">
        <ele>182.9</ele>
        <time>2022-10-16T12:24:20.000Z</time>
      </trkpt>
      <trkpt lat="45.07759" lon="5.07721">
        <ele>183</ele>
        <time>2022-10-16T12:24:21.000Z</time>
      </trkpt>
      <trkpt lat="45.07757" lon="5.07718">
        <ele>182.9</ele>
        <time>2022-10-16T12:24:22.000Z</time>
      </trkpt>
      <trkpt lat="45.07756" lon="5.07714">
        <ele>182.8</ele>
        <time>2022-10-16T12:24:23.000Z</time>
      </trkpt>
      <trkpt lat="45.07755" lon="5.07711">
        <ele>182.7</ele>
        <time>2022-10-16T12:24:24.000Z</time>
      </trkpt>
      <trkpt lat="45.07754" lon="5.07707">
        <ele>182.5</ele>
        <time>2022-10-16T12:24:25.000Z</time>
      </trkpt>
      <trkpt lat="45.07752" lon="5.07703">
        <ele>182.4</ele>
        <time>2022-10-16T12:24:26.000Z</time>
      </trkpt>
      <trkpt lat="45.07751" lon="5.07699">
        <ele>182.2</ele>
        <time>2022-10-16T12:24:27.000Z</time>
      </trkpt>
      <trkpt lat="45.0775" lon="5.07696">
        <ele>182</ele>
        <time>2022-10-16T12:24:28.000Z</time>
      </trkpt>
      <trkpt lat="45.07749" lon="5.07692">
        <ele>181.9</ele>
        <time>2022-10-16T12:24:29.000Z</time>
      </trkpt>
      <trkpt lat="45.07748" lon="5.07689">
        <ele>181.9</ele>
        <time>2022-10-16T12:24:30.000Z</time>
      </trkpt>
      <trkpt lat="45.07747" lon="5.07685">
        <ele>181.9</ele>
        <time>2022-10-16T12:24:31.000Z</time>
      </trkpt>
      <trkpt lat="45.07745" lon="5.07682">
        <ele>181.8</ele>
        <time>2022-10-16T12:24:32.000Z</time>
      </trkpt>
      <trkpt lat="45.07744" lon="5.07679">
        <ele>181.8</ele>
        <time>2022-10-16T12:24:33.000Z</time>
      </trkpt>
      <trkpt lat="45.07743" lon="5.07676">
        <ele>181.7</ele>
        <time>2022-10-16T12:24:34.000Z</time>
      </trkpt>
      <trkpt lat="45.07743" lon="5.07673">
        <ele>181.7</ele>
        <time>2022-10-16T12:24:35.000Z</time>
      </trkpt>
      <trkpt lat="45.07742" lon="5.0767">
        <ele>181.7</ele>
        <time>2022-10-16T12:24:36.000Z</time>
      </trkpt>
      <trkpt lat="45.07741" lon="5.07666">
        <ele>181.7</ele>
        <time>2022-10-16T12:24:37.000Z</time>
      </trkpt>
      <trkpt lat="45.0774" lon="5.07663">
        <ele>181.6</ele>
        <time>2022-10-16T12:24:38.000Z</time>
      </trkpt>
      <trkpt lat="45.07739" lon="5.0766">
        <ele>181.6</ele>
        <time>2022-10-16T12:24:39.000Z</time>
      </trkpt>
      <trkpt lat="45.07738" lon="5.07656">
        <ele>181.6</ele>
        <time>2022-10-16T12:24:40.000Z</time>
      </trkpt>
      <trkpt lat="45.07737" lon="5.07652">
        <ele>181.5</ele>
        <time>2022-10-16T12:24:41.000Z</time>
      </trkpt>
      <trkpt lat="45.07736" lon="5.07647">
        <ele>181.5</ele>
        <time>2022-10-16T12:24:42.000Z</time>
      </trkpt>
      <trkpt lat="45.07734" lon="5.07642">
        <ele>181.4</ele>
        <time>2022-10-16T12:24:43.000Z</time>
      </trkpt>
      <trkpt lat="45.07733" lon="5.07637">
        <ele>181.4</ele>
        <time>2022-10-16T12:24:44.000Z</time>
      </trkpt>
      <trkpt lat="45.07732" lon="5.07632">
        <ele>181.4</ele>
        <time>2022-10-16T12:24:45.000Z</time>
      </trkpt>
      <trkpt lat="45.07731" lon="5.07628">
        <ele>181.3</ele>
        <time>2022-10-16T12:24:46.000Z</time>
      </trkpt>
      <trkpt lat="45.0773" lon="5.07623">
        <ele>181.3</ele>
        <time>2022-10-16T12:24:47.000Z</time>
      </trkpt>
      <trkpt lat="45.07728" lon="5.07619">
        <ele>181.2</ele>
        <time>2022-10-16T12:24:48.000Z</time>
      </trkpt>
      <trkpt lat="45.07728" lon="5.07614">
        <ele>181.2</ele>
        <time>2022-10-16T12:24:49.000Z</time>
      </trkpt>
      <trkpt lat="45.07727" lon="5.07611">
        <ele>181.2</ele>
        <time>2022-10-16T12:24:50.000Z</time>
      </trkpt>
      <trkpt lat="45.07726" lon="5.07607">
        <ele>181.1</ele>
        <time>2022-10-16T12:24:51.000Z</time>
      </trkpt>
      <trkpt lat="45.07726" lon="5.07603">
        <ele>181.1</ele>
        <time>2022-10-16T12:24:52.000Z</time>
      </trkpt>
      <trkpt lat="45.07725" lon="5.07599">
        <ele>181.1</ele>
        <time>2022-10-16T12:24:53.000Z</time>
      </trkpt>
      <trkpt lat="45.07723" lon="5.07595">
        <ele>181</ele>
        <time>2022-10-16T12:24:54.000Z</time>
      </trkpt>
      <trkpt lat="45.07722" lon="5.07591">
        <ele>181</ele>
        <time>2022-10-16T12:24:55.000Z</time>
      </trkpt>
      <trkpt lat="45.07721" lon="5.07587">
        <ele>180.9</ele>
        <time>2022-10-16T12:24:56.000Z</time>
      </trkpt>
      <trkpt lat="45.0772" lon="5.07583">
        <ele>180.8</ele>
        <time>2022-10-16T12:24:57.000Z</time>
      </trkpt>
      <trkpt lat="45.07718" lon="5.07579">
        <ele>180.7</ele>
        <time>2022-10-16T12:24:58.000Z</time>
      </trkpt>
      <trkpt lat="45.07717" lon="5.07575">
        <ele>180.7</ele>
        <time>2022-10-16T12:24:59.000Z</time>
      </trkpt>
      <trkpt lat="45.07716" lon="5.0757">
        <ele>180.7</ele>
        <time>2022-10-16T12:25:00.000Z</time>
      </trkpt>
      <trkpt lat="45.07715" lon="5.07566">
        <ele>180.6</ele>
        <time>2022-10-16T12:25:01.000Z</time>
      </trkpt>
      <trkpt lat="45.07713" lon="5.07562">
        <ele>180.6</ele>
        <time>2022-10-16T12:25:02.000Z</time>
      </trkpt>
      <trkpt lat="45.07712" lon="5.07558">
        <ele>180.6</ele>
        <time>2022-10-16T12:25:03.000Z</time>
      </trkpt>
      <trkpt lat="45.07711" lon="5.07554">
        <ele>180.7</ele>
        <time>2022-10-16T12:25:04.000Z</time>
      </trkpt>
      <trkpt lat="45.0771" lon="5.0755">
        <ele>180.8</ele>
        <time>2022-10-16T12:25:05.000Z</time>
      </trkpt>
      <trkpt lat="45.07708" lon="5.07546">
        <ele>180.9</ele>
        <time>2022-10-16T12:25:06.000Z</time>
      </trkpt>
      <trkpt lat="45.07707" lon="5.07541">
        <ele>181</ele>
        <time>2022-10-16T12:25:07.000Z</time>
      </trkpt>
      <trkpt lat="45.07706" lon="5.07538">
        <ele>181</ele>
        <time>2022-10-16T12:25:08.000Z</time>
      </trkpt>
      <trkpt lat="45.07704" lon="5.07535">
        <ele>181.1</ele>
        <time>2022-10-16T12:25:09.000Z</time>
      </trkpt>
      <trkpt lat="45.07703" lon="5.07531">
        <ele>181.2</ele>
        <time>2022-10-16T12:25:10.000Z</time>
      </trkpt>
      <trkpt lat="45.07701" lon="5.07527">
        <ele>181.2</ele>
        <time>2022-10-16T12:25:11.000Z</time>
      </trkpt>
      <trkpt lat="45.07699" lon="5.07524">
        <ele>181.2</ele>
        <time>2022-10-16T12:25:12.000Z</time>
      </trkpt>
      <trkpt lat="45.07697" lon="5.07521">
        <ele>181.1</ele>
        <time>2022-10-16T12:25:13.000Z</time>
      </trkpt>
      <trkpt lat="45.07695" lon="5.07517">
        <ele>181</ele>
        <time>2022-10-16T12:25:14.000Z</time>
      </trkpt>
      <trkpt lat="45.07694" lon="5.07513">
        <ele>181</ele>
        <time>2022-10-16T12:25:15.000Z</time>
      </trkpt>
      <trkpt lat="45.07692" lon="5.0751">
        <ele>180.9</ele>
        <time>2022-10-16T12:25:16.000Z</time>
      </trkpt>
      <trkpt lat="45.07691" lon="5.07506">
        <ele>180.8</ele>
        <time>2022-10-16T12:25:17.000Z</time>
      </trkpt>
      <trkpt lat="45.0769" lon="5.07503">
        <ele>180.7</ele>
        <time>2022-10-16T12:25:19.000Z</time>
      </trkpt>
      <trkpt lat="45.07686" lon="5.07497">
        <ele>180.4</ele>
        <time>2022-10-16T12:25:21.000Z</time>
      </trkpt>
      <trkpt lat="45.07683" lon="5.07491">
        <ele>180.3</ele>
        <time>2022-10-16T12:25:22.000Z</time>
      </trkpt>
      <trkpt lat="45.0768" lon="5.07485">
        <ele>180.2</ele>
        <time>2022-10-16T12:25:23.000Z</time>
      </trkpt>
      <trkpt lat="45.07677" lon="5.07479">
        <ele>180.2</ele>
        <time>2022-10-16T12:25:24.000Z</time>
      </trkpt>
      <trkpt lat="45.07673" lon="5.07474">
        <ele>180.2</ele>
        <time>2022-10-16T12:25:25.000Z</time>
      </trkpt>
      <trkpt lat="45.07671" lon="5.07469">
        <ele>180.1</ele>
        <time>2022-10-16T12:25:26.000Z</time>
      </trkpt>
      <trkpt lat="45.07668" lon="5.07465">
        <ele>180</ele>
        <time>2022-10-16T12:25:27.000Z</time>
      </trkpt>
      <trkpt lat="45.07666" lon="5.07461">
        <ele>180</ele>
        <time>2022-10-16T12:25:28.000Z</time>
      </trkpt>
      <trkpt lat="45.07664" lon="5.07456">
        <ele>179.9</ele>
        <time>2022-10-16T12:25:29.000Z</time>
      </trkpt>
      <trkpt lat="45.07663" lon="5.07452">
        <ele>179.9</ele>
        <time>2022-10-16T12:25:30.000Z</time>
      </trkpt>
      <trkpt lat="45.0766" lon="5.07447">
        <ele>179.8</ele>
        <time>2022-10-16T12:25:31.000Z</time>
      </trkpt>
      <trkpt lat="45.07658" lon="5.07444">
        <ele>179.7</ele>
        <time>2022-10-16T12:25:32.000Z</time>
      </trkpt>
      <trkpt lat="45.07656" lon="5.0744">
        <ele>179.8</ele>
        <time>2022-10-16T12:25:33.000Z</time>
      </trkpt>
      <trkpt lat="45.07654" lon="5.07437">
        <ele>180</ele>
        <time>2022-10-16T12:25:34.000Z</time>
      </trkpt>
      <trkpt lat="45.07652" lon="5.07433">
        <ele>180.1</ele>
        <time>2022-10-16T12:25:35.000Z</time>
      </trkpt>
      <trkpt lat="45.07651" lon="5.0743">
        <ele>180.3</ele>
        <time>2022-10-16T12:25:36.000Z</time>
      </trkpt>
      <trkpt lat="45.07649" lon="5.07426">
        <ele>180.4</ele>
        <time>2022-10-16T12:25:37.000Z</time>
      </trkpt>
      <trkpt lat="45.07648" lon="5.07424">
        <ele>180.6</ele>
        <time>2022-10-16T12:25:38.000Z</time>
      </trkpt>
      <trkpt lat="45.07647" lon="5.07421">
        <ele>180.7</ele>
        <time>2022-10-16T12:25:39.000Z</time>
      </trkpt>
      <trkpt lat="45.07645" lon="5.07418">
        <ele>180.9</ele>
        <time>2022-10-16T12:25:40.000Z</time>
      </trkpt>
      <trkpt lat="45.07644" lon="5.07415">
        <ele>181</ele>
        <time>2022-10-16T12:25:41.000Z</time>
      </trkpt>
      <trkpt lat="45.07642" lon="5.07412">
        <ele>181.2</ele>
        <time>2022-10-16T12:25:42.000Z</time>
      </trkpt>
      <trkpt lat="45.0764" lon="5.07409">
        <ele>181.3</ele>
        <time>2022-10-16T12:25:43.000Z</time>
      </trkpt>
      <trkpt lat="45.07639" lon="5.07406">
        <ele>181.4</ele>
        <time>2022-10-16T12:25:44.000Z</time>
      </trkpt>
      <trkpt lat="45.07638" lon="5.07403">
        <ele>181.4</ele>
        <time>2022-10-16T12:25:45.000Z</time>
      </trkpt>
      <trkpt lat="45.07636" lon="5.07399">
        <ele>181.5</ele>
        <time>2022-10-16T12:25:46.000Z</time>
      </trkpt>
      <trkpt lat="45.07635" lon="5.07396">
        <ele>181.5</ele>
        <time>2022-10-16T12:25:47.000Z</time>
      </trkpt>
      <trkpt lat="45.07634" lon="5.07392">
        <ele>181.5</ele>
        <time>2022-10-16T12:25:48.000Z</time>
      </trkpt>
      <trkpt lat="45.07632" lon="5.07389">
        <ele>181.5</ele>
        <time>2022-10-16T12:25:49.000Z</time>
      </trkpt>
      <trkpt lat="45.07629" lon="5.07385">
        <ele>181.3</ele>
        <time>2022-10-16T12:25:50.000Z</time>
      </trkpt>
      <trkpt lat="45.07627" lon="5.07382">
        <ele>181.3</ele>
        <time>2022-10-16T12:25:51.000Z</time>
      </trkpt>
      <trkpt lat="45.07625" lon="5.07378">
        <ele>181.2</ele>
        <time>2022-10-16T12:25:52.000Z</time>
      </trkpt>
      <trkpt lat="45.07622" lon="5.07374">
        <ele>181.1</ele>
        <time>2022-10-16T12:25:53.000Z</time>
      </trkpt>
      <trkpt lat="45.0762" lon="5.0737">
        <ele>181.1</ele>
        <time>2022-10-16T12:25:54.000Z</time>
      </trkpt>
      <trkpt lat="45.07618" lon="5.07365">
        <ele>181.1</ele>
        <time>2022-10-16T12:25:55.000Z</time>
      </trkpt>
      <trkpt lat="45.07615" lon="5.0736">
        <ele>181.1</ele>
        <time>2022-10-16T12:25:56.000Z</time>
      </trkpt>
      <trkpt lat="45.07613" lon="5.07355">
        <ele>180.9</ele>
        <time>2022-10-16T12:25:57.000Z</time>
      </trkpt>
      <trkpt lat="45.07611" lon="5.07351">
        <ele>180.6</ele>
        <time>2022-10-16T12:25:58.000Z</time>
      </trkpt>
      <trkpt lat="45.07609" lon="5.07346">
        <ele>180.2</ele>
        <time>2022-10-16T12:25:59.000Z</time>
      </trkpt>
      <trkpt lat="45.07607" lon="5.07342">
        <ele>179.9</ele>
        <time>2022-10-16T12:26:00.000Z</time>
      </trkpt>
      <trkpt lat="45.07605" lon="5.07337">
        <ele>179.6</ele>
        <time>2022-10-16T12:26:01.000Z</time>
      </trkpt>
      <trkpt lat="45.07603" lon="5.07332">
        <ele>179.4</ele>
        <time>2022-10-16T12:26:02.000Z</time>
      </trkpt>
      <trkpt lat="45.076" lon="5.07328">
        <ele>179.3</ele>
        <time>2022-10-16T12:26:03.000Z</time>
      </trkpt>
      <trkpt lat="45.07599" lon="5.07324">
        <ele>179.3</ele>
        <time>2022-10-16T12:26:04.000Z</time>
      </trkpt>
      <trkpt lat="45.07597" lon="5.0732">
        <ele>179.2</ele>
        <time>2022-10-16T12:26:05.000Z</time>
      </trkpt>
      <trkpt lat="45.07595" lon="5.07316">
        <ele>179.2</ele>
        <time>2022-10-16T12:26:06.000Z</time>
      </trkpt>
      <trkpt lat="45.07593" lon="5.07312">
        <ele>179.2</ele>
        <time>2022-10-16T12:26:07.000Z</time>
      </trkpt>
      <trkpt lat="45.07592" lon="5.07309">
        <ele>179.2</ele>
        <time>2022-10-16T12:26:08.000Z</time>
      </trkpt>
      <trkpt lat="45.0759" lon="5.07305">
        <ele>179.3</ele>
        <time>2022-10-16T12:26:09.000Z</time>
      </trkpt>
      <trkpt lat="45.07589" lon="5.07302">
        <ele>179.3</ele>
        <time>2022-10-16T12:26:10.000Z</time>
      </trkpt>
      <trkpt lat="45.07587" lon="5.07299">
        <ele>179.4</ele>
        <time>2022-10-16T12:26:11.000Z</time>
      </trkpt>
      <trkpt lat="45.07586" lon="5.07294">
        <ele>179.5</ele>
        <time>2022-10-16T12:26:12.000Z</time>
      </trkpt>
      <trkpt lat="45.07584" lon="5.07289">
        <ele>179.6</ele>
        <time>2022-10-16T12:26:13.000Z</time>
      </trkpt>
      <trkpt lat="45.07582" lon="5.07284">
        <ele>179.7</ele>
        <time>2022-10-16T12:26:14.000Z</time>
      </trkpt>
      <trkpt lat="45.0758" lon="5.0728">
        <ele>179.7</ele>
        <time>2022-10-16T12:26:15.000Z</time>
      </trkpt>
      <trkpt lat="45.07577" lon="5.07275">
        <ele>179.6</ele>
        <time>2022-10-16T12:26:16.000Z</time>
      </trkpt>
      <trkpt lat="45.07574" lon="5.0727">
        <ele>179.5</ele>
        <time>2022-10-16T12:26:17.000Z</time>
      </trkpt>
      <trkpt lat="45.07571" lon="5.07265">
        <ele>179.5</ele>
        <time>2022-10-16T12:26:18.000Z</time>
      </trkpt>
      <trkpt lat="45.07569" lon="5.0726">
        <ele>179.6</ele>
        <time>2022-10-16T12:26:19.000Z</time>
      </trkpt>
      <trkpt lat="45.07567" lon="5.07255">
        <ele>179.8</ele>
        <time>2022-10-16T12:26:20.000Z</time>
      </trkpt>
      <trkpt lat="45.07565" lon="5.0725">
        <ele>180</ele>
        <time>2022-10-16T12:26:21.000Z</time>
      </trkpt>
      <trkpt lat="45.07563" lon="5.07246">
        <ele>180.2</ele>
        <time>2022-10-16T12:26:22.000Z</time>
      </trkpt>
      <trkpt lat="45.07562" lon="5.07241">
        <ele>180.4</ele>
        <time>2022-10-16T12:26:23.000Z</time>
      </trkpt>
      <trkpt lat="45.07561" lon="5.07237">
        <ele>180.5</ele>
        <time>2022-10-16T12:26:24.000Z</time>
      </trkpt>
      <trkpt lat="45.0756" lon="5.07233">
        <ele>180.7</ele>
        <time>2022-10-16T12:26:25.000Z</time>
      </trkpt>
      <trkpt lat="45.07558" lon="5.07228">
        <ele>180.9</ele>
        <time>2022-10-16T12:26:26.000Z</time>
      </trkpt>
      <trkpt lat="45.07557" lon="5.07223">
        <ele>181</ele>
        <time>2022-10-16T12:26:27.000Z</time>
      </trkpt>
      <trkpt lat="45.07556" lon="5.07218">
        <ele>181</ele>
        <time>2022-10-16T12:26:28.000Z</time>
      </trkpt>
      <trkpt lat="45.07554" lon="5.07213">
        <ele>180.8</ele>
        <time>2022-10-16T12:26:29.000Z</time>
      </trkpt>
      <trkpt lat="45.07553" lon="5.07209">
        <ele>180.7</ele>
        <time>2022-10-16T12:26:30.000Z</time>
      </trkpt>
      <trkpt lat="45.07551" lon="5.07204">
        <ele>180.5</ele>
        <time>2022-10-16T12:26:31.000Z</time>
      </trkpt>
      <trkpt lat="45.0755" lon="5.07198">
        <ele>180.4</ele>
        <time>2022-10-16T12:26:32.000Z</time>
      </trkpt>
      <trkpt lat="45.07549" lon="5.07193">
        <ele>180.2</ele>
        <time>2022-10-16T12:26:33.000Z</time>
      </trkpt>
      <trkpt lat="45.07547" lon="5.07187">
        <ele>180.1</ele>
        <time>2022-10-16T12:26:34.000Z</time>
      </trkpt>
      <trkpt lat="45.07546" lon="5.07182">
        <ele>179.9</ele>
        <time>2022-10-16T12:26:35.000Z</time>
      </trkpt>
      <trkpt lat="45.07544" lon="5.07176">
        <ele>179.8</ele>
        <time>2022-10-16T12:26:36.000Z</time>
      </trkpt>
      <trkpt lat="45.07543" lon="5.07171">
        <ele>179.6</ele>
        <time>2022-10-16T12:26:37.000Z</time>
      </trkpt>
      <trkpt lat="45.07541" lon="5.07165">
        <ele>179.5</ele>
        <time>2022-10-16T12:26:38.000Z</time>
      </trkpt>
      <trkpt lat="45.0754" lon="5.07159">
        <ele>179.6</ele>
        <time>2022-10-16T12:26:39.000Z</time>
      </trkpt>
      <trkpt lat="45.07539" lon="5.07154">
        <ele>179.7</ele>
        <time>2022-10-16T12:26:40.000Z</time>
      </trkpt>
      <trkpt lat="45.07537" lon="5.07148">
        <ele>179.9</ele>
        <time>2022-10-16T12:26:41.000Z</time>
      </trkpt>
      <trkpt lat="45.07536" lon="5.07143">
        <ele>180.1</ele>
        <time>2022-10-16T12:26:42.000Z</time>
      </trkpt>
      <trkpt lat="45.07534" lon="5.07138">
        <ele>180.2</ele>
        <time>2022-10-16T12:26:43.000Z</time>
      </trkpt>
      <trkpt lat="45.07532" lon="5.07132">
        <ele>180.2</ele>
        <time>2022-10-16T12:26:44.000Z</time>
      </trkpt>
      <trkpt lat="45.07531" lon="5.07127">
        <ele>180.1</ele>
        <time>2022-10-16T12:26:45.000Z</time>
      </trkpt>
      <trkpt lat="45.07529" lon="5.07122">
        <ele>180.1</ele>
        <time>2022-10-16T12:26:46.000Z</time>
      </trkpt>
      <trkpt lat="45.07528" lon="5.07116">
        <ele>180</ele>
        <time>2022-10-16T12:26:47.000Z</time>
      </trkpt>
      <trkpt lat="45.07526" lon="5.0711">
        <ele>179.9</ele>
        <time>2022-10-16T12:26:48.000Z</time>
      </trkpt>
      <trkpt lat="45.07525" lon="5.07105">
        <ele>180</ele>
        <time>2022-10-16T12:26:49.000Z</time>
      </trkpt>
      <trkpt lat="45.07523" lon="5.071">
        <ele>180</ele>
        <time>2022-10-16T12:26:50.000Z</time>
      </trkpt>
      <trkpt lat="45.07522" lon="5.07094">
        <ele>180.1</ele>
        <time>2022-10-16T12:26:51.000Z</time>
      </trkpt>
      <trkpt lat="45.0752" lon="5.07088">
        <ele>180.1</ele>
        <time>2022-10-16T12:26:52.000Z</time>
      </trkpt>
      <trkpt lat="45.07519" lon="5.07082">
        <ele>180</ele>
        <time>2022-10-16T12:26:53.000Z</time>
      </trkpt>
      <trkpt lat="45.07517" lon="5.07076">
        <ele>180.1</ele>
        <time>2022-10-16T12:26:54.000Z</time>
      </trkpt>
      <trkpt lat="45.07515" lon="5.0707">
        <ele>180.1</ele>
        <time>2022-10-16T12:26:55.000Z</time>
      </trkpt>
      <trkpt lat="45.07513" lon="5.07065">
        <ele>180.1</ele>
        <time>2022-10-16T12:26:56.000Z</time>
      </trkpt>
      <trkpt lat="45.07511" lon="5.07059">
        <ele>180.1</ele>
        <time>2022-10-16T12:26:57.000Z</time>
      </trkpt>
      <trkpt lat="45.07509" lon="5.07054">
        <ele>180.1</ele>
        <time>2022-10-16T12:26:58.000Z</time>
      </trkpt>
      <trkpt lat="45.07507" lon="5.07048">
        <ele>180.2</ele>
        <time>2022-10-16T12:26:59.000Z</time>
      </trkpt>
      <trkpt lat="45.07506" lon="5.07042">
        <ele>180.4</ele>
        <time>2022-10-16T12:27:00.000Z</time>
      </trkpt>
      <trkpt lat="45.07504" lon="5.07037">
        <ele>180.6</ele>
        <time>2022-10-16T12:27:01.000Z</time>
      </trkpt>
      <trkpt lat="45.07503" lon="5.07031">
        <ele>180.9</ele>
        <time>2022-10-16T12:27:02.000Z</time>
      </trkpt>
      <trkpt lat="45.07501" lon="5.07026">
        <ele>181</ele>
        <time>2022-10-16T12:27:03.000Z</time>
      </trkpt>
      <trkpt lat="45.07499" lon="5.0702">
        <ele>181</ele>
        <time>2022-10-16T12:27:04.000Z</time>
      </trkpt>
      <trkpt lat="45.07498" lon="5.07015">
        <ele>180.9</ele>
        <time>2022-10-16T12:27:05.000Z</time>
      </trkpt>
      <trkpt lat="45.07496" lon="5.0701">
        <ele>180.8</ele>
        <time>2022-10-16T12:27:06.000Z</time>
      </trkpt>
      <trkpt lat="45.07495" lon="5.07005">
        <ele>180.8</ele>
        <time>2022-10-16T12:27:07.000Z</time>
      </trkpt>
      <trkpt lat="45.07494" lon="5.07">
        <ele>180.8</ele>
        <time>2022-10-16T12:27:08.000Z</time>
      </trkpt>
      <trkpt lat="45.07494" lon="5.06994">
        <ele>181</ele>
        <time>2022-10-16T12:27:09.000Z</time>
      </trkpt>
      <trkpt lat="45.07491" lon="5.06988">
        <ele>181</ele>
        <time>2022-10-16T12:27:10.000Z</time>
      </trkpt>
      <trkpt lat="45.07489" lon="5.06984">
        <ele>181</ele>
        <time>2022-10-16T12:27:11.000Z</time>
      </trkpt>
      <trkpt lat="45.07489" lon="5.06981">
        <ele>181</ele>
        <time>2022-10-16T12:27:12.000Z</time>
      </trkpt>
      <trkpt lat="45.07479" lon="5.0697">
        <ele>180.6</ele>
        <time>2022-10-16T12:27:13.000Z</time>
      </trkpt>
      <trkpt lat="45.07478" lon="5.06965">
        <ele>180.6</ele>
        <time>2022-10-16T12:27:14.000Z</time>
      </trkpt>
      <trkpt lat="45.07479" lon="5.06962">
        <ele>180.8</ele>
        <time>2022-10-16T12:27:15.000Z</time>
      </trkpt>
      <trkpt lat="45.07479" lon="5.06958">
        <ele>180.9</ele>
        <time>2022-10-16T12:27:17.000Z</time>
      </trkpt>
      <trkpt lat="45.07478" lon="5.06954">
        <ele>181</ele>
        <time>2022-10-16T12:27:18.000Z</time>
      </trkpt>
      <trkpt lat="45.07478" lon="5.06949">
        <ele>181.1</ele>
        <time>2022-10-16T12:27:19.000Z</time>
      </trkpt>
      <trkpt lat="45.07478" lon="5.06944">
        <ele>181.2</ele>
        <time>2022-10-16T12:27:20.000Z</time>
      </trkpt>
      <trkpt lat="45.07477" lon="5.0694">
        <ele>181.4</ele>
        <time>2022-10-16T12:27:21.000Z</time>
      </trkpt>
      <trkpt lat="45.07476" lon="5.06935">
        <ele>181.5</ele>
        <time>2022-10-16T12:27:22.000Z</time>
      </trkpt>
      <trkpt lat="45.07475" lon="5.0693">
        <ele>181.6</ele>
        <time>2022-10-16T12:27:23.000Z</time>
      </trkpt>
      <trkpt lat="45.07474" lon="5.06925">
        <ele>181.8</ele>
        <time>2022-10-16T12:27:24.000Z</time>
      </trkpt>
      <trkpt lat="45.07473" lon="5.0692">
        <ele>181.9</ele>
        <time>2022-10-16T12:27:25.000Z</time>
      </trkpt>
      <trkpt lat="45.07472" lon="5.06916">
        <ele>182</ele>
        <time>2022-10-16T12:27:26.000Z</time>
      </trkpt>
      <trkpt lat="45.07471" lon="5.06911">
        <ele>182.2</ele>
        <time>2022-10-16T12:27:27.000Z</time>
      </trkpt>
      <trkpt lat="45.07471" lon="5.06907">
        <ele>182.3</ele>
        <time>2022-10-16T12:27:28.000Z</time>
      </trkpt>
      <trkpt lat="45.0747" lon="5.06902">
        <ele>182.5</ele>
        <time>2022-10-16T12:27:29.000Z</time>
      </trkpt>
      <trkpt lat="45.0747" lon="5.06898">
        <ele>182.6</ele>
        <time>2022-10-16T12:27:30.000Z</time>
      </trkpt>
      <trkpt lat="45.0747" lon="5.06893">
        <ele>182.8</ele>
        <time>2022-10-16T12:27:31.000Z</time>
      </trkpt>
      <trkpt lat="45.0747" lon="5.06889">
        <ele>182.9</ele>
        <time>2022-10-16T12:27:32.000Z</time>
      </trkpt>
      <trkpt lat="45.07469" lon="5.06885">
        <ele>182.9</ele>
        <time>2022-10-16T12:27:33.000Z</time>
      </trkpt>
      <trkpt lat="45.07469" lon="5.06881">
        <ele>182.9</ele>
        <time>2022-10-16T12:27:34.000Z</time>
      </trkpt>
      <trkpt lat="45.07469" lon="5.06877">
        <ele>182.9</ele>
        <time>2022-10-16T12:27:35.000Z</time>
      </trkpt>
      <trkpt lat="45.07468" lon="5.06872">
        <ele>182.8</ele>
        <time>2022-10-16T12:27:36.000Z</time>
      </trkpt>
      <trkpt lat="45.07468" lon="5.06868">
        <ele>182.8</ele>
        <time>2022-10-16T12:27:37.000Z</time>
      </trkpt>
      <trkpt lat="45.07466" lon="5.06863">
        <ele>182.8</ele>
        <time>2022-10-16T12:27:38.000Z</time>
      </trkpt>
      <trkpt lat="45.07465" lon="5.06858">
        <ele>182.7</ele>
        <time>2022-10-16T12:27:39.000Z</time>
      </trkpt>
      <trkpt lat="45.07464" lon="5.06854">
        <ele>182.7</ele>
        <time>2022-10-16T12:27:40.000Z</time>
      </trkpt>
      <trkpt lat="45.07463" lon="5.06849">
        <ele>182.7</ele>
        <time>2022-10-16T12:27:41.000Z</time>
      </trkpt>
      <trkpt lat="45.07463" lon="5.06844">
        <ele>182.6</ele>
        <time>2022-10-16T12:27:42.000Z</time>
      </trkpt>
      <trkpt lat="45.07462" lon="5.0684">
        <ele>182.6</ele>
        <time>2022-10-16T12:27:43.000Z</time>
      </trkpt>
      <trkpt lat="45.07461" lon="5.06835">
        <ele>182.6</ele>
        <time>2022-10-16T12:27:44.000Z</time>
      </trkpt>
      <trkpt lat="45.0746" lon="5.06831">
        <ele>182.6</ele>
        <time>2022-10-16T12:27:45.000Z</time>
      </trkpt>
      <trkpt lat="45.07459" lon="5.06827">
        <ele>182.6</ele>
        <time>2022-10-16T12:27:46.000Z</time>
      </trkpt>
      <trkpt lat="45.07458" lon="5.06823">
        <ele>182.7</ele>
        <time>2022-10-16T12:27:47.000Z</time>
      </trkpt>
      <trkpt lat="45.07458" lon="5.06819">
        <ele>182.8</ele>
        <time>2022-10-16T12:27:48.000Z</time>
      </trkpt>
      <trkpt lat="45.07457" lon="5.06814">
        <ele>182.8</ele>
        <time>2022-10-16T12:27:49.000Z</time>
      </trkpt>
      <trkpt lat="45.07457" lon="5.0681">
        <ele>182.9</ele>
        <time>2022-10-16T12:27:50.000Z</time>
      </trkpt>
      <trkpt lat="45.07456" lon="5.06806">
        <ele>183</ele>
        <time>2022-10-16T12:27:51.000Z</time>
      </trkpt>
      <trkpt lat="45.07455" lon="5.06802">
        <ele>183</ele>
        <time>2022-10-16T12:27:52.000Z</time>
      </trkpt>
      <trkpt lat="45.07454" lon="5.06799">
        <ele>183.1</ele>
        <time>2022-10-16T12:27:53.000Z</time>
      </trkpt>
      <trkpt lat="45.07453" lon="5.06795">
        <ele>183.1</ele>
        <time>2022-10-16T12:27:54.000Z</time>
      </trkpt>
      <trkpt lat="45.07452" lon="5.06792">
        <ele>183.1</ele>
        <time>2022-10-16T12:27:55.000Z</time>
      </trkpt>
      <trkpt lat="45.07452" lon="5.06788">
        <ele>183.2</ele>
        <time>2022-10-16T12:27:56.000Z</time>
      </trkpt>
      <trkpt lat="45.07451" lon="5.06783">
        <ele>183.2</ele>
        <time>2022-10-16T12:27:57.000Z</time>
      </trkpt>
      <trkpt lat="45.0745" lon="5.06779">
        <ele>183.2</ele>
        <time>2022-10-16T12:27:58.000Z</time>
      </trkpt>
      <trkpt lat="45.07449" lon="5.06774">
        <ele>183.1</ele>
        <time>2022-10-16T12:27:59.000Z</time>
      </trkpt>
      <trkpt lat="45.07447" lon="5.06769">
        <ele>183.1</ele>
        <time>2022-10-16T12:28:00.000Z</time>
      </trkpt>
      <trkpt lat="45.07446" lon="5.06765">
        <ele>183</ele>
        <time>2022-10-16T12:28:01.000Z</time>
      </trkpt>
      <trkpt lat="45.07445" lon="5.06761">
        <ele>183</ele>
        <time>2022-10-16T12:28:02.000Z</time>
      </trkpt>
      <trkpt lat="45.07444" lon="5.06757">
        <ele>183</ele>
        <time>2022-10-16T12:28:03.000Z</time>
      </trkpt>
      <trkpt lat="45.07443" lon="5.06752">
        <ele>183</ele>
        <time>2022-10-16T12:28:04.000Z</time>
      </trkpt>
      <trkpt lat="45.07442" lon="5.06747">
        <ele>182.9</ele>
        <time>2022-10-16T12:28:05.000Z</time>
      </trkpt>
      <trkpt lat="45.0744" lon="5.06742">
        <ele>182.7</ele>
        <time>2022-10-16T12:28:06.000Z</time>
      </trkpt>
      <trkpt lat="45.07438" lon="5.06736">
        <ele>182.5</ele>
        <time>2022-10-16T12:28:07.000Z</time>
      </trkpt>
      <trkpt lat="45.07436" lon="5.0673">
        <ele>182.3</ele>
        <time>2022-10-16T12:28:08.000Z</time>
      </trkpt>
      <trkpt lat="45.07435" lon="5.06724">
        <ele>182.1</ele>
        <time>2022-10-16T12:28:09.000Z</time>
      </trkpt>
      <trkpt lat="45.07434" lon="5.06717">
        <ele>181.8</ele>
        <time>2022-10-16T12:28:10.000Z</time>
      </trkpt>
      <trkpt lat="45.07432" lon="5.06711">
        <ele>181.6</ele>
        <time>2022-10-16T12:28:11.000Z</time>
      </trkpt>
      <trkpt lat="45.0743" lon="5.06705">
        <ele>181.4</ele>
        <time>2022-10-16T12:28:12.000Z</time>
      </trkpt>
      <trkpt lat="45.07428" lon="5.06699">
        <ele>181.1</ele>
        <time>2022-10-16T12:28:13.000Z</time>
      </trkpt>
      <trkpt lat="45.07426" lon="5.06692">
        <ele>180.9</ele>
        <time>2022-10-16T12:28:14.000Z</time>
      </trkpt>
      <trkpt lat="45.07425" lon="5.06685">
        <ele>180.7</ele>
        <time>2022-10-16T12:28:15.000Z</time>
      </trkpt>
      <trkpt lat="45.07424" lon="5.06679">
        <ele>180.4</ele>
        <time>2022-10-16T12:28:16.000Z</time>
      </trkpt>
      <trkpt lat="45.07422" lon="5.06672">
        <ele>180.2</ele>
        <time>2022-10-16T12:28:17.000Z</time>
      </trkpt>
      <trkpt lat="45.07421" lon="5.06665">
        <ele>180</ele>
        <time>2022-10-16T12:28:18.000Z</time>
      </trkpt>
      <trkpt lat="45.07419" lon="5.06658">
        <ele>180</ele>
        <time>2022-10-16T12:28:19.000Z</time>
      </trkpt>
      <trkpt lat="45.07418" lon="5.06652">
        <ele>180</ele>
        <time>2022-10-16T12:28:20.000Z</time>
      </trkpt>
      <trkpt lat="45.07416" lon="5.06645">
        <ele>180</ele>
        <time>2022-10-16T12:28:21.000Z</time>
      </trkpt>
      <trkpt lat="45.07415" lon="5.06638">
        <ele>179.8</ele>
        <time>2022-10-16T12:28:22.000Z</time>
      </trkpt>
      <trkpt lat="45.07413" lon="5.06632">
        <ele>179.7</ele>
        <time>2022-10-16T12:28:23.000Z</time>
      </trkpt>
      <trkpt lat="45.07412" lon="5.06625">
        <ele>179.6</ele>
        <time>2022-10-16T12:28:24.000Z</time>
      </trkpt>
      <trkpt lat="45.07411" lon="5.06619">
        <ele>179.6</ele>
        <time>2022-10-16T12:28:25.000Z</time>
      </trkpt>
      <trkpt lat="45.0741" lon="5.06612">
        <ele>179.5</ele>
        <time>2022-10-16T12:28:26.000Z</time>
      </trkpt>
      <trkpt lat="45.07409" lon="5.06606">
        <ele>179.3</ele>
        <time>2022-10-16T12:28:27.000Z</time>
      </trkpt>
      <trkpt lat="45.07408" lon="5.066">
        <ele>179.1</ele>
        <time>2022-10-16T12:28:28.000Z</time>
      </trkpt>
      <trkpt lat="45.07407" lon="5.06594">
        <ele>178.9</ele>
        <time>2022-10-16T12:28:29.000Z</time>
      </trkpt>
      <trkpt lat="45.07405" lon="5.06588">
        <ele>178.7</ele>
        <time>2022-10-16T12:28:30.000Z</time>
      </trkpt>
      <trkpt lat="45.07404" lon="5.06583">
        <ele>178.6</ele>
        <time>2022-10-16T12:28:31.000Z</time>
      </trkpt>
      <trkpt lat="45.07403" lon="5.06577">
        <ele>178.6</ele>
        <time>2022-10-16T12:28:32.000Z</time>
      </trkpt>
      <trkpt lat="45.07402" lon="5.06571">
        <ele>178.7</ele>
        <time>2022-10-16T12:28:33.000Z</time>
      </trkpt>
      <trkpt lat="45.074" lon="5.06566">
        <ele>178.8</ele>
        <time>2022-10-16T12:28:34.000Z</time>
      </trkpt>
      <trkpt lat="45.07399" lon="5.06561">
        <ele>178.9</ele>
        <time>2022-10-16T12:28:35.000Z</time>
      </trkpt>
      <trkpt lat="45.07398" lon="5.06557">
        <ele>179</ele>
        <time>2022-10-16T12:28:36.000Z</time>
      </trkpt>
      <trkpt lat="45.07397" lon="5.06552">
        <ele>179</ele>
        <time>2022-10-16T12:28:37.000Z</time>
      </trkpt>
      <trkpt lat="45.07395" lon="5.06548">
        <ele>178.9</ele>
        <time>2022-10-16T12:28:38.000Z</time>
      </trkpt>
      <trkpt lat="45.07394" lon="5.06543">
        <ele>178.9</ele>
        <time>2022-10-16T12:28:39.000Z</time>
      </trkpt>
      <trkpt lat="45.07394" lon="5.06539">
        <ele>178.9</ele>
        <time>2022-10-16T12:28:40.000Z</time>
      </trkpt>
      <trkpt lat="45.07394" lon="5.06535">
        <ele>178.9</ele>
        <time>2022-10-16T12:28:41.000Z</time>
      </trkpt>
      <trkpt lat="45.07393" lon="5.06532">
        <ele>178.9</ele>
        <time>2022-10-16T12:28:42.000Z</time>
      </trkpt>
      <trkpt lat="45.07392" lon="5.06528">
        <ele>178.9</ele>
        <time>2022-10-16T12:28:43.000Z</time>
      </trkpt>
      <trkpt lat="45.07391" lon="5.06523">
        <ele>178.9</ele>
        <time>2022-10-16T12:28:44.000Z</time>
      </trkpt>
      <trkpt lat="45.07389" lon="5.06519">
        <ele>179</ele>
        <time>2022-10-16T12:28:45.000Z</time>
      </trkpt>
      <trkpt lat="45.07388" lon="5.06515">
        <ele>178.9</ele>
        <time>2022-10-16T12:28:46.000Z</time>
      </trkpt>
      <trkpt lat="45.07387" lon="5.06511">
        <ele>178.9</ele>
        <time>2022-10-16T12:28:47.000Z</time>
      </trkpt>
      <trkpt lat="45.07386" lon="5.06506">
        <ele>178.8</ele>
        <time>2022-10-16T12:28:48.000Z</time>
      </trkpt>
      <trkpt lat="45.07385" lon="5.065">
        <ele>178.7</ele>
        <time>2022-10-16T12:28:49.000Z</time>
      </trkpt>
      <trkpt lat="45.07384" lon="5.06495">
        <ele>178.7</ele>
        <time>2022-10-16T12:28:50.000Z</time>
      </trkpt>
      <trkpt lat="45.07384" lon="5.06491">
        <ele>178.7</ele>
        <time>2022-10-16T12:28:51.000Z</time>
      </trkpt>
      <trkpt lat="45.07383" lon="5.06486">
        <ele>178.7</ele>
        <time>2022-10-16T12:28:52.000Z</time>
      </trkpt>
      <trkpt lat="45.07383" lon="5.06482">
        <ele>178.7</ele>
        <time>2022-10-16T12:28:53.000Z</time>
      </trkpt>
      <trkpt lat="45.07382" lon="5.06476">
        <ele>178.7</ele>
        <time>2022-10-16T12:28:54.000Z</time>
      </trkpt>
      <trkpt lat="45.07381" lon="5.06472">
        <ele>178.7</ele>
        <time>2022-10-16T12:28:55.000Z</time>
      </trkpt>
      <trkpt lat="45.07379" lon="5.06468">
        <ele>178.8</ele>
        <time>2022-10-16T12:28:56.000Z</time>
      </trkpt>
      <trkpt lat="45.07378" lon="5.06464">
        <ele>178.8</ele>
        <time>2022-10-16T12:28:57.000Z</time>
      </trkpt>
      <trkpt lat="45.07377" lon="5.0646">
        <ele>178.8</ele>
        <time>2022-10-16T12:28:58.000Z</time>
      </trkpt>
      <trkpt lat="45.07376" lon="5.06457">
        <ele>178.8</ele>
        <time>2022-10-16T12:28:59.000Z</time>
      </trkpt>
      <trkpt lat="45.07375" lon="5.06454">
        <ele>178.9</ele>
        <time>2022-10-16T12:29:00.000Z</time>
      </trkpt>
      <trkpt lat="45.07375" lon="5.0645">
        <ele>178.9</ele>
        <time>2022-10-16T12:29:01.000Z</time>
      </trkpt>
      <trkpt lat="45.07375" lon="5.06446">
        <ele>178.9</ele>
        <time>2022-10-16T12:29:02.000Z</time>
      </trkpt>
      <trkpt lat="45.07374" lon="5.06442">
        <ele>179</ele>
        <time>2022-10-16T12:29:03.000Z</time>
      </trkpt>
      <trkpt lat="45.07373" lon="5.06437">
        <ele>179.2</ele>
        <time>2022-10-16T12:29:04.000Z</time>
      </trkpt>
      <trkpt lat="45.07372" lon="5.06433">
        <ele>179.3</ele>
        <time>2022-10-16T12:29:05.000Z</time>
      </trkpt>
      <trkpt lat="45.07371" lon="5.0643">
        <ele>179.4</ele>
        <time>2022-10-16T12:29:06.000Z</time>
      </trkpt>
      <trkpt lat="45.0737" lon="5.06426">
        <ele>179.6</ele>
        <time>2022-10-16T12:29:07.000Z</time>
      </trkpt>
      <trkpt lat="45.07369" lon="5.06421">
        <ele>179.8</ele>
        <time>2022-10-16T12:29:08.000Z</time>
      </trkpt>
      <trkpt lat="45.07368" lon="5.06417">
        <ele>180</ele>
        <time>2022-10-16T12:29:09.000Z</time>
      </trkpt>
      <trkpt lat="45.07367" lon="5.06413">
        <ele>180</ele>
        <time>2022-10-16T12:29:10.000Z</time>
      </trkpt>
      <trkpt lat="45.07366" lon="5.06409">
        <ele>180</ele>
        <time>2022-10-16T12:29:11.000Z</time>
      </trkpt>
      <trkpt lat="45.07364" lon="5.06404">
        <ele>180</ele>
        <time>2022-10-16T12:29:12.000Z</time>
      </trkpt>
      <trkpt lat="45.07363" lon="5.064">
        <ele>180</ele>
        <time>2022-10-16T12:29:13.000Z</time>
      </trkpt>
      <trkpt lat="45.07362" lon="5.06395">
        <ele>180</ele>
        <time>2022-10-16T12:29:14.000Z</time>
      </trkpt>
      <trkpt lat="45.07361" lon="5.0639">
        <ele>180</ele>
        <time>2022-10-16T12:29:15.000Z</time>
      </trkpt>
      <trkpt lat="45.0736" lon="5.06385">
        <ele>179.8</ele>
        <time>2022-10-16T12:29:16.000Z</time>
      </trkpt>
      <trkpt lat="45.07359" lon="5.0638">
        <ele>179.5</ele>
        <time>2022-10-16T12:29:17.000Z</time>
      </trkpt>
      <trkpt lat="45.07357" lon="5.06375">
        <ele>179.2</ele>
        <time>2022-10-16T12:29:18.000Z</time>
      </trkpt>
      <trkpt lat="45.07355" lon="5.0637">
        <ele>179</ele>
        <time>2022-10-16T12:29:19.000Z</time>
      </trkpt>
      <trkpt lat="45.07354" lon="5.06366">
        <ele>178.8</ele>
        <time>2022-10-16T12:29:20.000Z</time>
      </trkpt>
      <trkpt lat="45.07352" lon="5.06362">
        <ele>178.7</ele>
        <time>2022-10-16T12:29:21.000Z</time>
      </trkpt>
      <trkpt lat="45.07351" lon="5.06359">
        <ele>178.8</ele>
        <time>2022-10-16T12:29:22.000Z</time>
      </trkpt>
      <trkpt lat="45.07349" lon="5.06356">
        <ele>179</ele>
        <time>2022-10-16T12:29:23.000Z</time>
      </trkpt>
      <trkpt lat="45.07349" lon="5.06353">
        <ele>179.2</ele>
        <time>2022-10-16T12:29:24.000Z</time>
      </trkpt>
      <trkpt lat="45.07348" lon="5.0635">
        <ele>179.5</ele>
        <time>2022-10-16T12:29:25.000Z</time>
      </trkpt>
      <trkpt lat="45.07347" lon="5.06347">
        <ele>179.8</ele>
        <time>2022-10-16T12:29:26.000Z</time>
      </trkpt>
      <trkpt lat="45.07346" lon="5.06344">
        <ele>180.1</ele>
        <time>2022-10-16T12:29:27.000Z</time>
      </trkpt>
      <trkpt lat="45.07345" lon="5.06341">
        <ele>180.4</ele>
        <time>2022-10-16T12:29:28.000Z</time>
      </trkpt>
      <trkpt lat="45.07345" lon="5.06337">
        <ele>180.8</ele>
        <time>2022-10-16T12:29:29.000Z</time>
      </trkpt>
      <trkpt lat="45.07344" lon="5.06333">
        <ele>181.2</ele>
        <time>2022-10-16T12:29:30.000Z</time>
      </trkpt>
      <trkpt lat="45.07342" lon="5.06328">
        <ele>181.3</ele>
        <time>2022-10-16T12:29:31.000Z</time>
      </trkpt>
      <trkpt lat="45.07341" lon="5.06324">
        <ele>181.3</ele>
        <time>2022-10-16T12:29:32.000Z</time>
      </trkpt>
      <trkpt lat="45.0734" lon="5.0632">
        <ele>181.3</ele>
        <time>2022-10-16T12:29:33.000Z</time>
      </trkpt>
      <trkpt lat="45.07339" lon="5.06316">
        <ele>181.2</ele>
        <time>2022-10-16T12:29:34.000Z</time>
      </trkpt>
      <trkpt lat="45.07338" lon="5.06311">
        <ele>181.1</ele>
        <time>2022-10-16T12:29:35.000Z</time>
      </trkpt>
      <trkpt lat="45.07337" lon="5.06306">
        <ele>181</ele>
        <time>2022-10-16T12:29:36.000Z</time>
      </trkpt>
      <trkpt lat="45.07336" lon="5.06301">
        <ele>181</ele>
        <time>2022-10-16T12:29:37.000Z</time>
      </trkpt>
      <trkpt lat="45.07335" lon="5.06296">
        <ele>181</ele>
        <time>2022-10-16T12:29:38.000Z</time>
      </trkpt>
      <trkpt lat="45.07334" lon="5.0629">
        <ele>181</ele>
        <time>2022-10-16T12:29:39.000Z</time>
      </trkpt>
      <trkpt lat="45.07333" lon="5.06285">
        <ele>181</ele>
        <time>2022-10-16T12:29:40.000Z</time>
      </trkpt>
      <trkpt lat="45.07332" lon="5.0628">
        <ele>180.9</ele>
        <time>2022-10-16T12:29:41.000Z</time>
      </trkpt>
      <trkpt lat="45.07331" lon="5.06276">
        <ele>180.7</ele>
        <time>2022-10-16T12:29:42.000Z</time>
      </trkpt>
      <trkpt lat="45.07329" lon="5.06271">
        <ele>180.3</ele>
        <time>2022-10-16T12:29:43.000Z</time>
      </trkpt>
      <trkpt lat="45.07328" lon="5.06267">
        <ele>180</ele>
        <time>2022-10-16T12:29:44.000Z</time>
      </trkpt>
      <trkpt lat="45.07327" lon="5.06262">
        <ele>179.8</ele>
        <time>2022-10-16T12:29:45.000Z</time>
      </trkpt>
      <trkpt lat="45.07325" lon="5.06258">
        <ele>179.6</ele>
        <time>2022-10-16T12:29:46.000Z</time>
      </trkpt>
      <trkpt lat="45.07324" lon="5.06254">
        <ele>179.5</ele>
        <time>2022-10-16T12:29:47.000Z</time>
      </trkpt>
      <trkpt lat="45.07323" lon="5.0625">
        <ele>179.4</ele>
        <time>2022-10-16T12:29:48.000Z</time>
      </trkpt>
      <trkpt lat="45.07322" lon="5.06245">
        <ele>179.4</ele>
        <time>2022-10-16T12:29:49.000Z</time>
      </trkpt>
      <trkpt lat="45.07321" lon="5.06241">
        <ele>179.4</ele>
        <time>2022-10-16T12:29:50.000Z</time>
      </trkpt>
      <trkpt lat="45.07319" lon="5.06236">
        <ele>179.5</ele>
        <time>2022-10-16T12:29:51.000Z</time>
      </trkpt>
      <trkpt lat="45.07318" lon="5.0623">
        <ele>179.6</ele>
        <time>2022-10-16T12:29:52.000Z</time>
      </trkpt>
      <trkpt lat="45.07317" lon="5.06224">
        <ele>179.6</ele>
        <time>2022-10-16T12:29:53.000Z</time>
      </trkpt>
      <trkpt lat="45.07315" lon="5.06217">
        <ele>179.7</ele>
        <time>2022-10-16T12:29:54.000Z</time>
      </trkpt>
      <trkpt lat="45.07314" lon="5.06211">
        <ele>179.8</ele>
        <time>2022-10-16T12:29:55.000Z</time>
      </trkpt>
      <trkpt lat="45.07311" lon="5.06204">
        <ele>179.9</ele>
        <time>2022-10-16T12:29:56.000Z</time>
      </trkpt>
      <trkpt lat="45.07309" lon="5.06198">
        <ele>180</ele>
        <time>2022-10-16T12:29:57.000Z</time>
      </trkpt>
      <trkpt lat="45.07308" lon="5.06191">
        <ele>180</ele>
        <time>2022-10-16T12:29:58.000Z</time>
      </trkpt>
      <trkpt lat="45.07305" lon="5.06186">
        <ele>180</ele>
        <time>2022-10-16T12:29:59.000Z</time>
      </trkpt>
      <trkpt lat="45.07303" lon="5.06179">
        <ele>179.9</ele>
        <time>2022-10-16T12:30:00.000Z</time>
      </trkpt>
      <trkpt lat="45.07301" lon="5.06173">
        <ele>179.8</ele>
        <time>2022-10-16T12:30:01.000Z</time>
      </trkpt>
      <trkpt lat="45.07299" lon="5.06166">
        <ele>179.7</ele>
        <time>2022-10-16T12:30:02.000Z</time>
      </trkpt>
      <trkpt lat="45.07296" lon="5.0616">
        <ele>179.7</ele>
        <time>2022-10-16T12:30:03.000Z</time>
      </trkpt>
      <trkpt lat="45.07294" lon="5.06154">
        <ele>179.6</ele>
        <time>2022-10-16T12:30:04.000Z</time>
      </trkpt>
      <trkpt lat="45.07292" lon="5.06148">
        <ele>179.5</ele>
        <time>2022-10-16T12:30:05.000Z</time>
      </trkpt>
      <trkpt lat="45.07291" lon="5.06142">
        <ele>179.5</ele>
        <time>2022-10-16T12:30:06.000Z</time>
      </trkpt>
      <trkpt lat="45.07289" lon="5.06136">
        <ele>179.5</ele>
        <time>2022-10-16T12:30:07.000Z</time>
      </trkpt>
      <trkpt lat="45.07288" lon="5.0613">
        <ele>179.6</ele>
        <time>2022-10-16T12:30:08.000Z</time>
      </trkpt>
      <trkpt lat="45.07286" lon="5.06123">
        <ele>179.7</ele>
        <time>2022-10-16T12:30:09.000Z</time>
      </trkpt>
      <trkpt lat="45.07284" lon="5.06117">
        <ele>179.8</ele>
        <time>2022-10-16T12:30:10.000Z</time>
      </trkpt>
      <trkpt lat="45.07282" lon="5.0611">
        <ele>180</ele>
        <time>2022-10-16T12:30:11.000Z</time>
      </trkpt>
      <trkpt lat="45.0728" lon="5.06104">
        <ele>180.2</ele>
        <time>2022-10-16T12:30:12.000Z</time>
      </trkpt>
      <trkpt lat="45.07279" lon="5.06097">
        <ele>180.5</ele>
        <time>2022-10-16T12:30:13.000Z</time>
      </trkpt>
      <trkpt lat="45.07277" lon="5.06091">
        <ele>180.7</ele>
        <time>2022-10-16T12:30:14.000Z</time>
      </trkpt>
      <trkpt lat="45.07275" lon="5.06085">
        <ele>180.8</ele>
        <time>2022-10-16T12:30:15.000Z</time>
      </trkpt>
      <trkpt lat="45.07274" lon="5.0608">
        <ele>180.7</ele>
        <time>2022-10-16T12:30:16.000Z</time>
      </trkpt>
      <trkpt lat="45.07272" lon="5.06075">
        <ele>180.6</ele>
        <time>2022-10-16T12:30:17.000Z</time>
      </trkpt>
      <trkpt lat="45.0727" lon="5.06069">
        <ele>180.6</ele>
        <time>2022-10-16T12:30:18.000Z</time>
      </trkpt>
      <trkpt lat="45.07268" lon="5.06064">
        <ele>180.5</ele>
        <time>2022-10-16T12:30:19.000Z</time>
      </trkpt>
      <trkpt lat="45.07266" lon="5.06058">
        <ele>180.5</ele>
        <time>2022-10-16T12:30:20.000Z</time>
      </trkpt>
      <trkpt lat="45.07264" lon="5.06052">
        <ele>180.4</ele>
        <time>2022-10-16T12:30:21.000Z</time>
      </trkpt>
      <trkpt lat="45.07263" lon="5.06046">
        <ele>180.3</ele>
        <time>2022-10-16T12:30:22.000Z</time>
      </trkpt>
      <trkpt lat="45.07261" lon="5.06041">
        <ele>180.3</ele>
        <time>2022-10-16T12:30:23.000Z</time>
      </trkpt>
      <trkpt lat="45.07259" lon="5.06035">
        <ele>180.3</ele>
        <time>2022-10-16T12:30:24.000Z</time>
      </trkpt>
      <trkpt lat="45.07257" lon="5.06028">
        <ele>180.5</ele>
        <time>2022-10-16T12:30:25.000Z</time>
      </trkpt>
      <trkpt lat="45.07256" lon="5.06023">
        <ele>180.8</ele>
        <time>2022-10-16T12:30:26.000Z</time>
      </trkpt>
      <trkpt lat="45.07254" lon="5.06017">
        <ele>181.2</ele>
        <time>2022-10-16T12:30:27.000Z</time>
      </trkpt>
      <trkpt lat="45.07252" lon="5.06012">
        <ele>181.5</ele>
        <time>2022-10-16T12:30:28.000Z</time>
      </trkpt>
      <trkpt lat="45.07251" lon="5.06006">
        <ele>181.7</ele>
        <time>2022-10-16T12:30:29.000Z</time>
      </trkpt>
      <trkpt lat="45.07249" lon="5.06001">
        <ele>181.9</ele>
        <time>2022-10-16T12:30:30.000Z</time>
      </trkpt>
      <trkpt lat="45.07248" lon="5.05995">
        <ele>182</ele>
        <time>2022-10-16T12:30:31.000Z</time>
      </trkpt>
      <trkpt lat="45.07246" lon="5.0599">
        <ele>182.1</ele>
        <time>2022-10-16T12:30:32.000Z</time>
      </trkpt>
      <trkpt lat="45.07245" lon="5.05985">
        <ele>182.2</ele>
        <time>2022-10-16T12:30:33.000Z</time>
      </trkpt>
      <trkpt lat="45.07243" lon="5.05979">
        <ele>182.2</ele>
        <time>2022-10-16T12:30:34.000Z</time>
      </trkpt>
      <trkpt lat="45.07242" lon="5.05974">
        <ele>182.3</ele>
        <time>2022-10-16T12:30:35.000Z</time>
      </trkpt>
      <trkpt lat="45.0724" lon="5.05969">
        <ele>182.3</ele>
        <time>2022-10-16T12:30:36.000Z</time>
      </trkpt>
      <trkpt lat="45.07239" lon="5.05963">
        <ele>182.3</ele>
        <time>2022-10-16T12:30:37.000Z</time>
      </trkpt>
      <trkpt lat="45.07237" lon="5.05957">
        <ele>182.3</ele>
        <time>2022-10-16T12:30:38.000Z</time>
      </trkpt>
      <trkpt lat="45.07237" lon="5.05951">
        <ele>182.4</ele>
        <time>2022-10-16T12:30:39.000Z</time>
      </trkpt>
      <trkpt lat="45.07235" lon="5.05945">
        <ele>182.5</ele>
        <time>2022-10-16T12:30:40.000Z</time>
      </trkpt>
      <trkpt lat="45.07234" lon="5.0594">
        <ele>182.4</ele>
        <time>2022-10-16T12:30:41.000Z</time>
      </trkpt>
      <trkpt lat="45.07232" lon="5.05935">
        <ele>182.4</ele>
        <time>2022-10-16T12:30:42.000Z</time>
      </trkpt>
      <trkpt lat="45.0723" lon="5.05929">
        <ele>182.3</ele>
        <time>2022-10-16T12:30:43.000Z</time>
      </trkpt>
      <trkpt lat="45.07228" lon="5.05924">
        <ele>182.2</ele>
        <time>2022-10-16T12:30:44.000Z</time>
      </trkpt>
      <trkpt lat="45.07227" lon="5.05918">
        <ele>182.2</ele>
        <time>2022-10-16T12:30:45.000Z</time>
      </trkpt>
      <trkpt lat="45.07225" lon="5.05913">
        <ele>182.2</ele>
        <time>2022-10-16T12:30:46.000Z</time>
      </trkpt>
      <trkpt lat="45.07224" lon="5.05907">
        <ele>182.4</ele>
        <time>2022-10-16T12:30:47.000Z</time>
      </trkpt>
      <trkpt lat="45.07223" lon="5.05901">
        <ele>182.6</ele>
        <time>2022-10-16T12:30:48.000Z</time>
      </trkpt>
      <trkpt lat="45.07223" lon="5.05895">
        <ele>182.8</ele>
        <time>2022-10-16T12:30:49.000Z</time>
      </trkpt>
      <trkpt lat="45.07222" lon="5.05889">
        <ele>183</ele>
        <time>2022-10-16T12:30:50.000Z</time>
      </trkpt>
      <trkpt lat="45.07222" lon="5.05883">
        <ele>182.8</ele>
        <time>2022-10-16T12:30:51.000Z</time>
      </trkpt>
      <trkpt lat="45.07221" lon="5.05877">
        <ele>182.5</ele>
        <time>2022-10-16T12:30:52.000Z</time>
      </trkpt>
      <trkpt lat="45.0722" lon="5.0587">
        <ele>182.2</ele>
        <time>2022-10-16T12:30:53.000Z</time>
      </trkpt>
      <trkpt lat="45.07218" lon="5.05863">
        <ele>181.9</ele>
        <time>2022-10-16T12:30:54.000Z</time>
      </trkpt>
      <trkpt lat="45.07217" lon="5.05857">
        <ele>181.8</ele>
        <time>2022-10-16T12:30:55.000Z</time>
      </trkpt>
      <trkpt lat="45.07216" lon="5.0585">
        <ele>181.8</ele>
        <time>2022-10-16T12:30:56.000Z</time>
      </trkpt>
      <trkpt lat="45.07216" lon="5.05844">
        <ele>181.8</ele>
        <time>2022-10-16T12:30:57.000Z</time>
      </trkpt>
      <trkpt lat="45.07215" lon="5.05838">
        <ele>181.7</ele>
        <time>2022-10-16T12:30:58.000Z</time>
      </trkpt>
      <trkpt lat="45.07214" lon="5.05832">
        <ele>181.7</ele>
        <time>2022-10-16T12:30:59.000Z</time>
      </trkpt>
      <trkpt lat="45.07213" lon="5.05826">
        <ele>181.6</ele>
        <time>2022-10-16T12:31:00.000Z</time>
      </trkpt>
      <trkpt lat="45.07212" lon="5.0582">
        <ele>181.5</ele>
        <time>2022-10-16T12:31:01.000Z</time>
      </trkpt>
      <trkpt lat="45.07212" lon="5.05814">
        <ele>181.3</ele>
        <time>2022-10-16T12:31:02.000Z</time>
      </trkpt>
      <trkpt lat="45.07211" lon="5.05808">
        <ele>181.2</ele>
        <time>2022-10-16T12:31:03.000Z</time>
      </trkpt>
      <trkpt lat="45.0721" lon="5.05803">
        <ele>181.2</ele>
        <time>2022-10-16T12:31:04.000Z</time>
      </trkpt>
      <trkpt lat="45.07209" lon="5.05796">
        <ele>181.2</ele>
        <time>2022-10-16T12:31:05.000Z</time>
      </trkpt>
      <trkpt lat="45.07208" lon="5.0579">
        <ele>181.3</ele>
        <time>2022-10-16T12:31:06.000Z</time>
      </trkpt>
      <trkpt lat="45.07207" lon="5.05783">
        <ele>181.3</ele>
        <time>2022-10-16T12:31:07.000Z</time>
      </trkpt>
      <trkpt lat="45.07207" lon="5.05777">
        <ele>181.3</ele>
        <time>2022-10-16T12:31:08.000Z</time>
      </trkpt>
      <trkpt lat="45.07206" lon="5.0577">
        <ele>181</ele>
        <time>2022-10-16T12:31:09.000Z</time>
      </trkpt>
      <trkpt lat="45.07205" lon="5.05763">
        <ele>180.8</ele>
        <time>2022-10-16T12:31:10.000Z</time>
      </trkpt>
      <trkpt lat="45.07204" lon="5.05757">
        <ele>180.6</ele>
        <time>2022-10-16T12:31:11.000Z</time>
      </trkpt>
      <trkpt lat="45.07204" lon="5.0575">
        <ele>180.3</ele>
        <time>2022-10-16T12:31:12.000Z</time>
      </trkpt>
      <trkpt lat="45.07203" lon="5.05743">
        <ele>180.3</ele>
        <time>2022-10-16T12:31:13.000Z</time>
      </trkpt>
      <trkpt lat="45.07203" lon="5.05735">
        <ele>180.3</ele>
        <time>2022-10-16T12:31:14.000Z</time>
      </trkpt>
      <trkpt lat="45.07202" lon="5.05728">
        <ele>180.3</ele>
        <time>2022-10-16T12:31:15.000Z</time>
      </trkpt>
      <trkpt lat="45.07202" lon="5.0572">
        <ele>180.3</ele>
        <time>2022-10-16T12:31:16.000Z</time>
      </trkpt>
      <trkpt lat="45.07201" lon="5.05713">
        <ele>180.4</ele>
        <time>2022-10-16T12:31:17.000Z</time>
      </trkpt>
      <trkpt lat="45.072" lon="5.05706">
        <ele>180.5</ele>
        <time>2022-10-16T12:31:18.000Z</time>
      </trkpt>
      <trkpt lat="45.072" lon="5.05699">
        <ele>180.6</ele>
        <time>2022-10-16T12:31:19.000Z</time>
      </trkpt>
      <trkpt lat="45.07199" lon="5.05692">
        <ele>180.7</ele>
        <time>2022-10-16T12:31:20.000Z</time>
      </trkpt>
      <trkpt lat="45.07197" lon="5.05684">
        <ele>180.7</ele>
        <time>2022-10-16T12:31:21.000Z</time>
      </trkpt>
      <trkpt lat="45.07196" lon="5.05678">
        <ele>180.8</ele>
        <time>2022-10-16T12:31:22.000Z</time>
      </trkpt>
      <trkpt lat="45.07194" lon="5.05671">
        <ele>180.8</ele>
        <time>2022-10-16T12:31:23.000Z</time>
      </trkpt>
      <trkpt lat="45.07192" lon="5.05665">
        <ele>180.8</ele>
        <time>2022-10-16T12:31:24.000Z</time>
      </trkpt>
      <trkpt lat="45.07189" lon="5.05659">
        <ele>180.8</ele>
        <time>2022-10-16T12:31:25.000Z</time>
      </trkpt>
      <trkpt lat="45.07187" lon="5.05653">
        <ele>180.8</ele>
        <time>2022-10-16T12:31:26.000Z</time>
      </trkpt>
      <trkpt lat="45.07185" lon="5.05647">
        <ele>180.8</ele>
        <time>2022-10-16T12:31:27.000Z</time>
      </trkpt>
      <trkpt lat="45.07183" lon="5.05642">
        <ele>180.8</ele>
        <time>2022-10-16T12:31:28.000Z</time>
      </trkpt>
      <trkpt lat="45.07181" lon="5.05636">
        <ele>180.7</ele>
        <time>2022-10-16T12:31:29.000Z</time>
      </trkpt>
      <trkpt lat="45.0718" lon="5.05631">
        <ele>180.6</ele>
        <time>2022-10-16T12:31:30.000Z</time>
      </trkpt>
      <trkpt lat="45.07178" lon="5.05625">
        <ele>180.5</ele>
        <time>2022-10-16T12:31:31.000Z</time>
      </trkpt>
      <trkpt lat="45.07176" lon="5.0562">
        <ele>180.3</ele>
        <time>2022-10-16T12:31:32.000Z</time>
      </trkpt>
      <trkpt lat="45.07174" lon="5.05615">
        <ele>180.2</ele>
        <time>2022-10-16T12:31:33.000Z</time>
      </trkpt>
      <trkpt lat="45.07173" lon="5.05609">
        <ele>180.3</ele>
        <time>2022-10-16T12:31:34.000Z</time>
      </trkpt>
      <trkpt lat="45.07172" lon="5.05603">
        <ele>180.6</ele>
        <time>2022-10-16T12:31:35.000Z</time>
      </trkpt>
      <trkpt lat="45.07173" lon="5.05596">
        <ele>181.2</ele>
        <time>2022-10-16T12:31:36.000Z</time>
      </trkpt>
      <trkpt lat="45.07173" lon="5.0559">
        <ele>181.7</ele>
        <time>2022-10-16T12:31:37.000Z</time>
      </trkpt>
      <trkpt lat="45.07173" lon="5.05585">
        <ele>182.1</ele>
        <time>2022-10-16T12:31:38.000Z</time>
      </trkpt>
      <trkpt lat="45.07174" lon="5.05581">
        <ele>182.5</ele>
        <time>2022-10-16T12:31:39.000Z</time>
      </trkpt>
      <trkpt lat="45.07174" lon="5.05578">
        <ele>182.8</ele>
        <time>2022-10-16T12:31:40.000Z</time>
      </trkpt>
      <trkpt lat="45.07172" lon="5.05574">
        <ele>183</ele>
        <time>2022-10-16T12:31:41.000Z</time>
      </trkpt>
      <trkpt lat="45.0717" lon="5.05571">
        <ele>182.9</ele>
        <time>2022-10-16T12:31:42.000Z</time>
      </trkpt>
      <trkpt lat="45.07168" lon="5.05567">
        <ele>183</ele>
        <time>2022-10-16T12:31:43.000Z</time>
      </trkpt>
      <trkpt lat="45.07166" lon="5.05563">
        <ele>183.1</ele>
        <time>2022-10-16T12:31:44.000Z</time>
      </trkpt>
      <trkpt lat="45.07164" lon="5.05558">
        <ele>183.3</ele>
        <time>2022-10-16T12:31:45.000Z</time>
      </trkpt>
      <trkpt lat="45.07162" lon="5.05554">
        <ele>183.3</ele>
        <time>2022-10-16T12:31:46.000Z</time>
      </trkpt>
      <trkpt lat="45.07158" lon="5.0555">
        <ele>182.9</ele>
        <time>2022-10-16T12:31:47.000Z</time>
      </trkpt>
      <trkpt lat="45.07155" lon="5.05546">
        <ele>182.7</ele>
        <time>2022-10-16T12:31:48.000Z</time>
      </trkpt>
      <trkpt lat="45.07153" lon="5.05542">
        <ele>182.5</ele>
        <time>2022-10-16T12:31:49.000Z</time>
      </trkpt>
      <trkpt lat="45.07148" lon="5.05539">
        <ele>181.9</ele>
        <time>2022-10-16T12:31:50.000Z</time>
      </trkpt>
      <trkpt lat="45.07144" lon="5.05535">
        <ele>181.4</ele>
        <time>2022-10-16T12:31:51.000Z</time>
      </trkpt>
      <trkpt lat="45.07141" lon="5.05531">
        <ele>181.1</ele>
        <time>2022-10-16T12:31:52.000Z</time>
      </trkpt>
      <trkpt lat="45.07138" lon="5.05525">
        <ele>181</ele>
        <time>2022-10-16T12:31:53.000Z</time>
      </trkpt>
      <trkpt lat="45.07135" lon="5.05519">
        <ele>181.2</ele>
        <time>2022-10-16T12:31:54.000Z</time>
      </trkpt>
      <trkpt lat="45.07132" lon="5.05514">
        <ele>181.1</ele>
        <time>2022-10-16T12:31:55.000Z</time>
      </trkpt>
      <trkpt lat="45.07127" lon="5.05508">
        <ele>180.7</ele>
        <time>2022-10-16T12:31:56.000Z</time>
      </trkpt>
      <trkpt lat="45.07124" lon="5.05502">
        <ele>180.6</ele>
        <time>2022-10-16T12:31:57.000Z</time>
      </trkpt>
      <trkpt lat="45.0712" lon="5.05495">
        <ele>180</ele>
        <time>2022-10-16T12:31:58.000Z</time>
      </trkpt>
      <trkpt lat="45.07117" lon="5.05488">
        <ele>179.3</ele>
        <time>2022-10-16T12:31:59.000Z</time>
      </trkpt>
      <trkpt lat="45.07113" lon="5.05479">
        <ele>178.5</ele>
        <time>2022-10-16T12:32:00.000Z</time>
      </trkpt>
      <trkpt lat="45.0711" lon="5.05471">
        <ele>177.9</ele>
        <time>2022-10-16T12:32:01.000Z</time>
      </trkpt>
      <trkpt lat="45.07106" lon="5.05463">
        <ele>177.5</ele>
        <time>2022-10-16T12:32:02.000Z</time>
      </trkpt>
      <trkpt lat="45.07103" lon="5.05456">
        <ele>177.1</ele>
        <time>2022-10-16T12:32:03.000Z</time>
      </trkpt>
      <trkpt lat="45.07099" lon="5.05449">
        <ele>176.7</ele>
        <time>2022-10-16T12:32:04.000Z</time>
      </trkpt>
      <trkpt lat="45.07097" lon="5.05443">
        <ele>176.4</ele>
        <time>2022-10-16T12:32:05.000Z</time>
      </trkpt>
      <trkpt lat="45.07094" lon="5.05438">
        <ele>176.2</ele>
        <time>2022-10-16T12:32:06.000Z</time>
      </trkpt>
      <trkpt lat="45.07091" lon="5.05436">
        <ele>175.8</ele>
        <time>2022-10-16T12:32:07.000Z</time>
      </trkpt>
      <trkpt lat="45.07086" lon="5.05437">
        <ele>175.3</ele>
        <time>2022-10-16T12:32:08.000Z</time>
      </trkpt>
      <trkpt lat="45.07082" lon="5.05441">
        <ele>174.9</ele>
        <time>2022-10-16T12:32:09.000Z</time>
      </trkpt>
      <trkpt lat="45.07078" lon="5.05445">
        <ele>174.8</ele>
        <time>2022-10-16T12:32:10.000Z</time>
      </trkpt>
      <trkpt lat="45.07075" lon="5.05451">
        <ele>174.7</ele>
        <time>2022-10-16T12:32:11.000Z</time>
      </trkpt>
      <trkpt lat="45.07072" lon="5.05457">
        <ele>174.6</ele>
        <time>2022-10-16T12:32:12.000Z</time>
      </trkpt>
      <trkpt lat="45.07069" lon="5.05462">
        <ele>174.5</ele>
        <time>2022-10-16T12:32:13.000Z</time>
      </trkpt>
      <trkpt lat="45.07067" lon="5.05469">
        <ele>174.4</ele>
        <time>2022-10-16T12:32:14.000Z</time>
      </trkpt>
      <trkpt lat="45.07065" lon="5.05477">
        <ele>174.3</ele>
        <time>2022-10-16T12:32:15.000Z</time>
      </trkpt>
      <trkpt lat="45.07062" lon="5.05484">
        <ele>174.2</ele>
        <time>2022-10-16T12:32:16.000Z</time>
      </trkpt>
      <trkpt lat="45.07058" lon="5.05491">
        <ele>174.1</ele>
        <time>2022-10-16T12:32:17.000Z</time>
      </trkpt>
      <trkpt lat="45.07053" lon="5.05497">
        <ele>173.8</ele>
        <time>2022-10-16T12:32:18.000Z</time>
      </trkpt>
      <trkpt lat="45.0705" lon="5.05501">
        <ele>173.6</ele>
        <time>2022-10-16T12:32:19.000Z</time>
      </trkpt>
      <trkpt lat="45.07047" lon="5.05504">
        <ele>173.4</ele>
        <time>2022-10-16T12:32:20.000Z</time>
      </trkpt>
      <trkpt lat="45.07043" lon="5.05508">
        <ele>173.2</ele>
        <time>2022-10-16T12:32:21.000Z</time>
      </trkpt>
      <trkpt lat="45.07041" lon="5.05512">
        <ele>173.2</ele>
        <time>2022-10-16T12:32:23.000Z</time>
      </trkpt>
      <trkpt lat="45.07061" lon="5.05489">
        <ele>174.2</ele>
        <time>2022-10-16T12:33:13.000Z</time>
      </trkpt>
      <trkpt lat="45.07055" lon="5.055">
        <ele>173.9</ele>
        <time>2022-10-16T12:33:14.000Z</time>
      </trkpt>
      <trkpt lat="45.07066" lon="5.05503">
        <ele>174.3</ele>
        <time>2022-10-16T12:33:15.000Z</time>
      </trkpt>
      <trkpt lat="45.0706" lon="5.05507">
        <ele>174.1</ele>
        <time>2022-10-16T12:33:16.000Z</time>
      </trkpt>
      <trkpt lat="45.0706" lon="5.05491">
        <ele>174.2</ele>
        <time>2022-10-16T12:33:17.000Z</time>
      </trkpt>
      <trkpt lat="45.0706" lon="5.05494">
        <ele>174.1</ele>
        <time>2022-10-16T12:33:22.000Z</time>
      </trkpt>
      <trkpt lat="45.07055" lon="5.05503">
        <ele>174</ele>
        <time>2022-10-16T12:34:18.000Z</time>
      </trkpt>
      <trkpt lat="45.07054" lon="5.05506">
        <ele>173.9</ele>
        <time>2022-10-16T12:34:20.000Z</time>
      </trkpt>
      <trkpt lat="45.07053" lon="5.05509">
        <ele>173.8</ele>
        <time>2022-10-16T12:34:22.000Z</time>
      </trkpt>
      <trkpt lat="45.07052" lon="5.05514">
        <ele>173.8</ele>
        <time>2022-10-16T12:34:24.000Z</time>
      </trkpt>
      <trkpt lat="45.0705" lon="5.05516">
        <ele>173.7</ele>
        <time>2022-10-16T12:34:25.000Z</time>
      </trkpt>
      <trkpt lat="45.07048" lon="5.05519">
        <ele>173.7</ele>
        <time>2022-10-16T12:34:26.000Z</time>
      </trkpt>
      <trkpt lat="45.07047" lon="5.05521">
        <ele>173.6</ele>
        <time>2022-10-16T12:34:27.000Z</time>
      </trkpt>
      <trkpt lat="45.07046" lon="5.05526">
        <ele>173.6</ele>
        <time>2022-10-16T12:34:29.000Z</time>
      </trkpt>
      <trkpt lat="45.07045" lon="5.05528">
        <ele>173.6</ele>
        <time>2022-10-16T12:34:30.000Z</time>
      </trkpt>
      <trkpt lat="45.07042" lon="5.05533">
        <ele>173.4</ele>
        <time>2022-10-16T12:34:32.000Z</time>
      </trkpt>
      <trkpt lat="45.07039" lon="5.05536">
        <ele>173.3</ele>
        <time>2022-10-16T12:34:33.000Z</time>
      </trkpt>
      <trkpt lat="45.07037" lon="5.0554">
        <ele>173.2</ele>
        <time>2022-10-16T12:34:34.000Z</time>
      </trkpt>
      <trkpt lat="45.07035" lon="5.05544">
        <ele>173.1</ele>
        <time>2022-10-16T12:34:35.000Z</time>
      </trkpt>
      <trkpt lat="45.07032" lon="5.05548">
        <ele>173</ele>
        <time>2022-10-16T12:34:36.000Z</time>
      </trkpt>
      <trkpt lat="45.07029" lon="5.05553">
        <ele>173</ele>
        <time>2022-10-16T12:34:37.000Z</time>
      </trkpt>
      <trkpt lat="45.07027" lon="5.05558">
        <ele>172.9</ele>
        <time>2022-10-16T12:34:38.000Z</time>
      </trkpt>
      <trkpt lat="45.07025" lon="5.05562">
        <ele>172.7</ele>
        <time>2022-10-16T12:34:39.000Z</time>
      </trkpt>
      <trkpt lat="45.07022" lon="5.05566">
        <ele>172.5</ele>
        <time>2022-10-16T12:34:40.000Z</time>
      </trkpt>
      <trkpt lat="45.0702" lon="5.0557">
        <ele>172.3</ele>
        <time>2022-10-16T12:34:41.000Z</time>
      </trkpt>
      <trkpt lat="45.07017" lon="5.05573">
        <ele>172.2</ele>
        <time>2022-10-16T12:34:42.000Z</time>
      </trkpt>
      <trkpt lat="45.07015" lon="5.05577">
        <ele>172.1</ele>
        <time>2022-10-16T12:34:43.000Z</time>
      </trkpt>
      <trkpt lat="45.07013" lon="5.05581">
        <ele>172</ele>
        <time>2022-10-16T12:34:44.000Z</time>
      </trkpt>
      <trkpt lat="45.07012" lon="5.05585">
        <ele>172</ele>
        <time>2022-10-16T12:34:45.000Z</time>
      </trkpt>
      <trkpt lat="45.07011" lon="5.05588">
        <ele>172.1</ele>
        <time>2022-10-16T12:34:46.000Z</time>
      </trkpt>
      <trkpt lat="45.07009" lon="5.05591">
        <ele>172.2</ele>
        <time>2022-10-16T12:34:47.000Z</time>
      </trkpt>
      <trkpt lat="45.07008" lon="5.05594">
        <ele>172.3</ele>
        <time>2022-10-16T12:34:48.000Z</time>
      </trkpt>
      <trkpt lat="45.07006" lon="5.05599">
        <ele>172.4</ele>
        <time>2022-10-16T12:34:49.000Z</time>
      </trkpt>
      <trkpt lat="45.07005" lon="5.05603">
        <ele>172.6</ele>
        <time>2022-10-16T12:34:50.000Z</time>
      </trkpt>
      <trkpt lat="45.07003" lon="5.05607">
        <ele>172.8</ele>
        <time>2022-10-16T12:34:51.000Z</time>
      </trkpt>
      <trkpt lat="45.07001" lon="5.05611">
        <ele>173</ele>
        <time>2022-10-16T12:34:52.000Z</time>
      </trkpt>
      <trkpt lat="45.06998" lon="5.05615">
        <ele>172.8</ele>
        <time>2022-10-16T12:34:53.000Z</time>
      </trkpt>
      <trkpt lat="45.06995" lon="5.0562">
        <ele>172.6</ele>
        <time>2022-10-16T12:34:54.000Z</time>
      </trkpt>
      <trkpt lat="45.06992" lon="5.05624">
        <ele>172.5</ele>
        <time>2022-10-16T12:34:55.000Z</time>
      </trkpt>
      <trkpt lat="45.06989" lon="5.05627">
        <ele>172.5</ele>
        <time>2022-10-16T12:34:56.000Z</time>
      </trkpt>
      <trkpt lat="45.06986" lon="5.0563">
        <ele>172.5</ele>
        <time>2022-10-16T12:34:57.000Z</time>
      </trkpt>
      <trkpt lat="45.06983" lon="5.05632">
        <ele>172.6</ele>
        <time>2022-10-16T12:34:58.000Z</time>
      </trkpt>
      <trkpt lat="45.0698" lon="5.05635">
        <ele>172.7</ele>
        <time>2022-10-16T12:34:59.000Z</time>
      </trkpt>
      <trkpt lat="45.06976" lon="5.05638">
        <ele>172.8</ele>
        <time>2022-10-16T12:35:00.000Z</time>
      </trkpt>
      <trkpt lat="45.06972" lon="5.05641">
        <ele>172.9</ele>
        <time>2022-10-16T12:35:01.000Z</time>
      </trkpt>
      <trkpt lat="45.06968" lon="5.05643">
        <ele>172.6</ele>
        <time>2022-10-16T12:35:02.000Z</time>
      </trkpt>
      <trkpt lat="45.06964" lon="5.05646">
        <ele>172.4</ele>
        <time>2022-10-16T12:35:03.000Z</time>
      </trkpt>
      <trkpt lat="45.06961" lon="5.05649">
        <ele>172.3</ele>
        <time>2022-10-16T12:35:04.000Z</time>
      </trkpt>
      <trkpt lat="45.06957" lon="5.05653">
        <ele>172.2</ele>
        <time>2022-10-16T12:35:05.000Z</time>
      </trkpt>
      <trkpt lat="45.06954" lon="5.05655">
        <ele>172.3</ele>
        <time>2022-10-16T12:35:06.000Z</time>
      </trkpt>
      <trkpt lat="45.06951" lon="5.05658">
        <ele>172.4</ele>
        <time>2022-10-16T12:35:07.000Z</time>
      </trkpt>
      <trkpt lat="45.06948" lon="5.0566">
        <ele>172.5</ele>
        <time>2022-10-16T12:35:08.000Z</time>
      </trkpt>
      <trkpt lat="45.06945" lon="5.05662">
        <ele>172.7</ele>
        <time>2022-10-16T12:35:09.000Z</time>
      </trkpt>
      <trkpt lat="45.06942" lon="5.05664">
        <ele>172.7</ele>
        <time>2022-10-16T12:35:10.000Z</time>
      </trkpt>
      <trkpt lat="45.06939" lon="5.05667">
        <ele>172.8</ele>
        <time>2022-10-16T12:35:11.000Z</time>
      </trkpt>
      <trkpt lat="45.06935" lon="5.0567">
        <ele>172.6</ele>
        <time>2022-10-16T12:35:12.000Z</time>
      </trkpt>
      <trkpt lat="45.06932" lon="5.05673">
        <ele>172.4</ele>
        <time>2022-10-16T12:35:13.000Z</time>
      </trkpt>
      <trkpt lat="45.0693" lon="5.05677">
        <ele>172.3</ele>
        <time>2022-10-16T12:35:14.000Z</time>
      </trkpt>
      <trkpt lat="45.06927" lon="5.0568">
        <ele>172.2</ele>
        <time>2022-10-16T12:35:15.000Z</time>
      </trkpt>
      <trkpt lat="45.06924" lon="5.05682">
        <ele>172.1</ele>
        <time>2022-10-16T12:35:16.000Z</time>
      </trkpt>
      <trkpt lat="45.06921" lon="5.05684">
        <ele>172.1</ele>
        <time>2022-10-16T12:35:17.000Z</time>
      </trkpt>
      <trkpt lat="45.06918" lon="5.05686">
        <ele>172</ele>
        <time>2022-10-16T12:35:18.000Z</time>
      </trkpt>
      <trkpt lat="45.06915" lon="5.05689">
        <ele>171.9</ele>
        <time>2022-10-16T12:35:19.000Z</time>
      </trkpt>
      <trkpt lat="45.06913" lon="5.05692">
        <ele>171.9</ele>
        <time>2022-10-16T12:35:20.000Z</time>
      </trkpt>
      <trkpt lat="45.06911" lon="5.05696">
        <ele>171.8</ele>
        <time>2022-10-16T12:35:21.000Z</time>
      </trkpt>
      <trkpt lat="45.0691" lon="5.05699">
        <ele>171.7</ele>
        <time>2022-10-16T12:35:22.000Z</time>
      </trkpt>
      <trkpt lat="45.06905" lon="5.05708">
        <ele>171.5</ele>
        <time>2022-10-16T12:36:20.000Z</time>
      </trkpt>
      <trkpt lat="45.06904" lon="5.0571">
        <ele>171.5</ele>
        <time>2022-10-16T12:36:21.000Z</time>
      </trkpt>
      <trkpt lat="45.06902" lon="5.05713">
        <ele>171.5</ele>
        <time>2022-10-16T12:36:22.000Z</time>
      </trkpt>
      <trkpt lat="45.06899" lon="5.05718">
        <ele>171.6</ele>
        <time>2022-10-16T12:36:23.000Z</time>
      </trkpt>
      <trkpt lat="45.06894" lon="5.05723">
        <ele>171.8</ele>
        <time>2022-10-16T12:36:24.000Z</time>
      </trkpt>
      <trkpt lat="45.06891" lon="5.05727">
        <ele>171.9</ele>
        <time>2022-10-16T12:36:25.000Z</time>
      </trkpt>
      <trkpt lat="45.06888" lon="5.05731">
        <ele>172</ele>
        <time>2022-10-16T12:36:26.000Z</time>
      </trkpt>
      <trkpt lat="45.06884" lon="5.05735">
        <ele>171.9</ele>
        <time>2022-10-16T12:36:27.000Z</time>
      </trkpt>
      <trkpt lat="45.06881" lon="5.05739">
        <ele>171.9</ele>
        <time>2022-10-16T12:36:28.000Z</time>
      </trkpt>
      <trkpt lat="45.06877" lon="5.05743">
        <ele>171.9</ele>
        <time>2022-10-16T12:36:29.000Z</time>
      </trkpt>
      <trkpt lat="45.06873" lon="5.05746">
        <ele>171.9</ele>
        <time>2022-10-16T12:36:30.000Z</time>
      </trkpt>
      <trkpt lat="45.06869" lon="5.05749">
        <ele>172</ele>
        <time>2022-10-16T12:36:31.000Z</time>
      </trkpt>
      <trkpt lat="45.06865" lon="5.05751">
        <ele>172</ele>
        <time>2022-10-16T12:36:32.000Z</time>
      </trkpt>
      <trkpt lat="45.06862" lon="5.05753">
        <ele>172</ele>
        <time>2022-10-16T12:36:33.000Z</time>
      </trkpt>
      <trkpt lat="45.06857" lon="5.05755">
        <ele>172</ele>
        <time>2022-10-16T12:36:34.000Z</time>
      </trkpt>
      <trkpt lat="45.06853" lon="5.05757">
        <ele>172</ele>
        <time>2022-10-16T12:36:35.000Z</time>
      </trkpt>
      <trkpt lat="45.06849" lon="5.05759">
        <ele>172</ele>
        <time>2022-10-16T12:36:36.000Z</time>
      </trkpt>
      <trkpt lat="45.06844" lon="5.05762">
        <ele>172</ele>
        <time>2022-10-16T12:36:37.000Z</time>
      </trkpt>
      <trkpt lat="45.0684" lon="5.05764">
        <ele>172</ele>
        <time>2022-10-16T12:36:38.000Z</time>
      </trkpt>
      <trkpt lat="45.06835" lon="5.05766">
        <ele>172</ele>
        <time>2022-10-16T12:36:39.000Z</time>
      </trkpt>
      <trkpt lat="45.06831" lon="5.05768">
        <ele>172.1</ele>
        <time>2022-10-16T12:36:40.000Z</time>
      </trkpt>
      <trkpt lat="45.06827" lon="5.05771">
        <ele>172.2</ele>
        <time>2022-10-16T12:36:41.000Z</time>
      </trkpt>
      <trkpt lat="45.06823" lon="5.05772">
        <ele>172.3</ele>
        <time>2022-10-16T12:36:42.000Z</time>
      </trkpt>
      <trkpt lat="45.06819" lon="5.05774">
        <ele>172.5</ele>
        <time>2022-10-16T12:36:43.000Z</time>
      </trkpt>
      <trkpt lat="45.06815" lon="5.05775">
        <ele>172.6</ele>
        <time>2022-10-16T12:36:44.000Z</time>
      </trkpt>
      <trkpt lat="45.0681" lon="5.05776">
        <ele>172.8</ele>
        <time>2022-10-16T12:36:45.000Z</time>
      </trkpt>
      <trkpt lat="45.06807" lon="5.05777">
        <ele>172.9</ele>
        <time>2022-10-16T12:36:46.000Z</time>
      </trkpt>
      <trkpt lat="45.06803" lon="5.05778">
        <ele>173</ele>
        <time>2022-10-16T12:36:47.000Z</time>
      </trkpt>
      <trkpt lat="45.068" lon="5.05779">
        <ele>173</ele>
        <time>2022-10-16T12:36:48.000Z</time>
      </trkpt>
      <trkpt lat="45.06796" lon="5.05778">
        <ele>173</ele>
        <time>2022-10-16T12:36:49.000Z</time>
      </trkpt>
      <trkpt lat="45.06795" lon="5.05776">
        <ele>172.9</ele>
        <time>2022-10-16T12:36:50.000Z</time>
      </trkpt>
      <trkpt lat="45.06793" lon="5.05774">
        <ele>172.9</ele>
        <time>2022-10-16T12:36:51.000Z</time>
      </trkpt>
      <trkpt lat="45.06791" lon="5.05772">
        <ele>172.8</ele>
        <time>2022-10-16T12:36:52.000Z</time>
      </trkpt>
      <trkpt lat="45.06789" lon="5.0577">
        <ele>172.7</ele>
        <time>2022-10-16T12:36:53.000Z</time>
      </trkpt>
      <trkpt lat="45.06788" lon="5.05767">
        <ele>172.6</ele>
        <time>2022-10-16T12:36:54.000Z</time>
      </trkpt>
      <trkpt lat="45.06786" lon="5.05764">
        <ele>172.5</ele>
        <time>2022-10-16T12:36:55.000Z</time>
      </trkpt>
      <trkpt lat="45.06784" lon="5.05761">
        <ele>172.4</ele>
        <time>2022-10-16T12:36:56.000Z</time>
      </trkpt>
      <trkpt lat="45.0678" lon="5.05759">
        <ele>172.3</ele>
        <time>2022-10-16T12:36:57.000Z</time>
      </trkpt>
      <trkpt lat="45.06776" lon="5.05759">
        <ele>172.3</ele>
        <time>2022-10-16T12:36:58.000Z</time>
      </trkpt>
      <trkpt lat="45.06772" lon="5.0576">
        <ele>172.3</ele>
        <time>2022-10-16T12:36:59.000Z</time>
      </trkpt>
      <trkpt lat="45.06768" lon="5.0576">
        <ele>172.4</ele>
        <time>2022-10-16T12:37:00.000Z</time>
      </trkpt>
      <trkpt lat="45.06763" lon="5.0576">
        <ele>172.4</ele>
        <time>2022-10-16T12:37:01.000Z</time>
      </trkpt>
      <trkpt lat="45.06759" lon="5.0576">
        <ele>172.4</ele>
        <time>2022-10-16T12:37:02.000Z</time>
      </trkpt>
      <trkpt lat="45.06754" lon="5.05761">
        <ele>172.4</ele>
        <time>2022-10-16T12:37:03.000Z</time>
      </trkpt>
      <trkpt lat="45.0675" lon="5.05761">
        <ele>172.4</ele>
        <time>2022-10-16T12:37:04.000Z</time>
      </trkpt>
      <trkpt lat="45.06745" lon="5.05761">
        <ele>172.3</ele>
        <time>2022-10-16T12:37:05.000Z</time>
      </trkpt>
      <trkpt lat="45.0674" lon="5.05761">
        <ele>172.3</ele>
        <time>2022-10-16T12:37:06.000Z</time>
      </trkpt>
      <trkpt lat="45.06736" lon="5.05762">
        <ele>172.2</ele>
        <time>2022-10-16T12:37:07.000Z</time>
      </trkpt>
      <trkpt lat="45.06732" lon="5.05763">
        <ele>172.2</ele>
        <time>2022-10-16T12:37:08.000Z</time>
      </trkpt>
      <trkpt lat="45.06728" lon="5.05763">
        <ele>172.1</ele>
        <time>2022-10-16T12:37:09.000Z</time>
      </trkpt>
      <trkpt lat="45.06723" lon="5.05764">
        <ele>172</ele>
        <time>2022-10-16T12:37:10.000Z</time>
      </trkpt>
      <trkpt lat="45.06718" lon="5.05763">
        <ele>172.1</ele>
        <time>2022-10-16T12:37:11.000Z</time>
      </trkpt>
      <trkpt lat="45.06713" lon="5.05762">
        <ele>172.2</ele>
        <time>2022-10-16T12:37:12.000Z</time>
      </trkpt>
      <trkpt lat="45.06709" lon="5.05763">
        <ele>172.3</ele>
        <time>2022-10-16T12:37:13.000Z</time>
      </trkpt>
      <trkpt lat="45.06704" lon="5.05764">
        <ele>172.3</ele>
        <time>2022-10-16T12:37:14.000Z</time>
      </trkpt>
      <trkpt lat="45.06699" lon="5.05765">
        <ele>172.4</ele>
        <time>2022-10-16T12:37:15.000Z</time>
      </trkpt>
      <trkpt lat="45.06694" lon="5.05766">
        <ele>172.4</ele>
        <time>2022-10-16T12:37:16.000Z</time>
      </trkpt>
      <trkpt lat="45.06689" lon="5.05767">
        <ele>172.3</ele>
        <time>2022-10-16T12:37:17.000Z</time>
      </trkpt>
      <trkpt lat="45.06684" lon="5.05767">
        <ele>172.2</ele>
        <time>2022-10-16T12:37:18.000Z</time>
      </trkpt>
      <trkpt lat="45.06679" lon="5.05767">
        <ele>172.2</ele>
        <time>2022-10-16T12:37:19.000Z</time>
      </trkpt>
      <trkpt lat="45.06674" lon="5.05767">
        <ele>172.1</ele>
        <time>2022-10-16T12:37:20.000Z</time>
      </trkpt>
      <trkpt lat="45.06669" lon="5.05767">
        <ele>172</ele>
        <time>2022-10-16T12:37:21.000Z</time>
      </trkpt>
      <trkpt lat="45.06663" lon="5.05768">
        <ele>172</ele>
        <time>2022-10-16T12:37:22.000Z</time>
      </trkpt>
      <trkpt lat="45.06658" lon="5.05768">
        <ele>172</ele>
        <time>2022-10-16T12:37:23.000Z</time>
      </trkpt>
      <trkpt lat="45.06653" lon="5.05769">
        <ele>172</ele>
        <time>2022-10-16T12:37:24.000Z</time>
      </trkpt>
      <trkpt lat="45.06648" lon="5.05769">
        <ele>172</ele>
        <time>2022-10-16T12:37:25.000Z</time>
      </trkpt>
      <trkpt lat="45.06643" lon="5.0577">
        <ele>172</ele>
        <time>2022-10-16T12:37:26.000Z</time>
      </trkpt>
      <trkpt lat="45.06638" lon="5.05771">
        <ele>172</ele>
        <time>2022-10-16T12:37:27.000Z</time>
      </trkpt>
      <trkpt lat="45.06634" lon="5.05771">
        <ele>172</ele>
        <time>2022-10-16T12:37:28.000Z</time>
      </trkpt>
      <trkpt lat="45.06629" lon="5.05772">
        <ele>171.9</ele>
        <time>2022-10-16T12:37:29.000Z</time>
      </trkpt>
      <trkpt lat="45.06625" lon="5.05772">
        <ele>171.9</ele>
        <time>2022-10-16T12:37:30.000Z</time>
      </trkpt>
      <trkpt lat="45.0662" lon="5.05773">
        <ele>171.9</ele>
        <time>2022-10-16T12:37:31.000Z</time>
      </trkpt>
      <trkpt lat="45.06616" lon="5.05773">
        <ele>171.9</ele>
        <time>2022-10-16T12:37:32.000Z</time>
      </trkpt>
      <trkpt lat="45.06611" lon="5.05774">
        <ele>171.8</ele>
        <time>2022-10-16T12:37:33.000Z</time>
      </trkpt>
      <trkpt lat="45.06606" lon="5.05774">
        <ele>171.7</ele>
        <time>2022-10-16T12:37:34.000Z</time>
      </trkpt>
      <trkpt lat="45.06602" lon="5.05775">
        <ele>171.6</ele>
        <time>2022-10-16T12:37:35.000Z</time>
      </trkpt>
      <trkpt lat="45.06597" lon="5.05775">
        <ele>171.4</ele>
        <time>2022-10-16T12:37:36.000Z</time>
      </trkpt>
      <trkpt lat="45.06592" lon="5.05776">
        <ele>171.3</ele>
        <time>2022-10-16T12:37:37.000Z</time>
      </trkpt>
      <trkpt lat="45.06587" lon="5.05777">
        <ele>171.1</ele>
        <time>2022-10-16T12:37:38.000Z</time>
      </trkpt>
      <trkpt lat="45.06582" lon="5.05777">
        <ele>171.1</ele>
        <time>2022-10-16T12:37:39.000Z</time>
      </trkpt>
      <trkpt lat="45.06577" lon="5.05778">
        <ele>171.2</ele>
        <time>2022-10-16T12:37:40.000Z</time>
      </trkpt>
      <trkpt lat="45.06572" lon="5.05778">
        <ele>171.4</ele>
        <time>2022-10-16T12:37:41.000Z</time>
      </trkpt>
      <trkpt lat="45.06567" lon="5.05779">
        <ele>171.6</ele>
        <time>2022-10-16T12:37:42.000Z</time>
      </trkpt>
      <trkpt lat="45.06562" lon="5.05779">
        <ele>171.7</ele>
        <time>2022-10-16T12:37:43.000Z</time>
      </trkpt>
      <trkpt lat="45.06557" lon="5.05779">
        <ele>171.9</ele>
        <time>2022-10-16T12:37:44.000Z</time>
      </trkpt>
      <trkpt lat="45.06552" lon="5.0578">
        <ele>171.9</ele>
        <time>2022-10-16T12:37:45.000Z</time>
      </trkpt>
      <trkpt lat="45.06546" lon="5.0578">
        <ele>171.9</ele>
        <time>2022-10-16T12:37:46.000Z</time>
      </trkpt>
      <trkpt lat="45.06541" lon="5.0578">
        <ele>171.9</ele>
        <time>2022-10-16T12:37:47.000Z</time>
      </trkpt>
      <trkpt lat="45.06536" lon="5.05781">
        <ele>171.9</ele>
        <time>2022-10-16T12:37:48.000Z</time>
      </trkpt>
      <trkpt lat="45.06532" lon="5.05781">
        <ele>171.9</ele>
        <time>2022-10-16T12:37:49.000Z</time>
      </trkpt>
      <trkpt lat="45.06527" lon="5.05782">
        <ele>171.9</ele>
        <time>2022-10-16T12:37:50.000Z</time>
      </trkpt>
      <trkpt lat="45.06523" lon="5.05782">
        <ele>171.9</ele>
        <time>2022-10-16T12:37:51.000Z</time>
      </trkpt>
      <trkpt lat="45.06519" lon="5.05781">
        <ele>171.9</ele>
        <time>2022-10-16T12:37:52.000Z</time>
      </trkpt>
      <trkpt lat="45.06515" lon="5.0578">
        <ele>171.9</ele>
        <time>2022-10-16T12:37:53.000Z</time>
      </trkpt>
      <trkpt lat="45.06511" lon="5.0578">
        <ele>171.9</ele>
        <time>2022-10-16T12:37:54.000Z</time>
      </trkpt>
      <trkpt lat="45.06507" lon="5.0578">
        <ele>171.9</ele>
        <time>2022-10-16T12:37:55.000Z</time>
      </trkpt>
      <trkpt lat="45.06503" lon="5.0578">
        <ele>171.9</ele>
        <time>2022-10-16T12:37:56.000Z</time>
      </trkpt>
      <trkpt lat="45.06499" lon="5.0578">
        <ele>171.9</ele>
        <time>2022-10-16T12:37:57.000Z</time>
      </trkpt>
      <trkpt lat="45.06495" lon="5.0578">
        <ele>171.9</ele>
        <time>2022-10-16T12:37:58.000Z</time>
      </trkpt>
      <trkpt lat="45.06491" lon="5.05779">
        <ele>172</ele>
        <time>2022-10-16T12:37:59.000Z</time>
      </trkpt>
      <trkpt lat="45.06487" lon="5.05779">
        <ele>172</ele>
        <time>2022-10-16T12:38:00.000Z</time>
      </trkpt>
      <trkpt lat="45.06483" lon="5.05778">
        <ele>172</ele>
        <time>2022-10-16T12:38:01.000Z</time>
      </trkpt>
      <trkpt lat="45.06479" lon="5.05777">
        <ele>172</ele>
        <time>2022-10-16T12:38:02.000Z</time>
      </trkpt>
      <trkpt lat="45.06475" lon="5.05776">
        <ele>172</ele>
        <time>2022-10-16T12:38:03.000Z</time>
      </trkpt>
      <trkpt lat="45.0647" lon="5.05776">
        <ele>172</ele>
        <time>2022-10-16T12:38:04.000Z</time>
      </trkpt>
      <trkpt lat="45.06465" lon="5.05776">
        <ele>172</ele>
        <time>2022-10-16T12:38:05.000Z</time>
      </trkpt>
      <trkpt lat="45.06461" lon="5.05777">
        <ele>172</ele>
        <time>2022-10-16T12:38:06.000Z</time>
      </trkpt>
      <trkpt lat="45.06456" lon="5.05777">
        <ele>172</ele>
        <time>2022-10-16T12:38:07.000Z</time>
      </trkpt>
      <trkpt lat="45.06451" lon="5.05777">
        <ele>172</ele>
        <time>2022-10-16T12:38:08.000Z</time>
      </trkpt>
      <trkpt lat="45.06446" lon="5.05779">
        <ele>172</ele>
        <time>2022-10-16T12:38:09.000Z</time>
      </trkpt>
      <trkpt lat="45.0644" lon="5.0578">
        <ele>172</ele>
        <time>2022-10-16T12:38:10.000Z</time>
      </trkpt>
      <trkpt lat="45.06435" lon="5.05781">
        <ele>172</ele>
        <time>2022-10-16T12:38:11.000Z</time>
      </trkpt>
      <trkpt lat="45.0643" lon="5.05782">
        <ele>172</ele>
        <time>2022-10-16T12:38:12.000Z</time>
      </trkpt>
      <trkpt lat="45.06425" lon="5.05783">
        <ele>172</ele>
        <time>2022-10-16T12:38:13.000Z</time>
      </trkpt>
      <trkpt lat="45.0642" lon="5.05784">
        <ele>172</ele>
        <time>2022-10-16T12:38:14.000Z</time>
      </trkpt>
      <trkpt lat="45.06415" lon="5.05785">
        <ele>172</ele>
        <time>2022-10-16T12:38:15.000Z</time>
      </trkpt>
      <trkpt lat="45.0641" lon="5.05787">
        <ele>172</ele>
        <time>2022-10-16T12:38:16.000Z</time>
      </trkpt>
      <trkpt lat="45.06405" lon="5.05788">
        <ele>172</ele>
        <time>2022-10-16T12:38:17.000Z</time>
      </trkpt>
      <trkpt lat="45.064" lon="5.05789">
        <ele>172</ele>
        <time>2022-10-16T12:38:18.000Z</time>
      </trkpt>
      <trkpt lat="45.06396" lon="5.0579">
        <ele>172</ele>
        <time>2022-10-16T12:38:19.000Z</time>
      </trkpt>
      <trkpt lat="45.06391" lon="5.0579">
        <ele>172</ele>
        <time>2022-10-16T12:38:20.000Z</time>
      </trkpt>
      <trkpt lat="45.06386" lon="5.0579">
        <ele>172</ele>
        <time>2022-10-16T12:38:21.000Z</time>
      </trkpt>
      <trkpt lat="45.06382" lon="5.0579">
        <ele>172</ele>
        <time>2022-10-16T12:38:22.000Z</time>
      </trkpt>
      <trkpt lat="45.06378" lon="5.05789">
        <ele>172</ele>
        <time>2022-10-16T12:38:23.000Z</time>
      </trkpt>
      <trkpt lat="45.06373" lon="5.05788">
        <ele>172</ele>
        <time>2022-10-16T12:38:24.000Z</time>
      </trkpt>
      <trkpt lat="45.06368" lon="5.05788">
        <ele>172</ele>
        <time>2022-10-16T12:38:25.000Z</time>
      </trkpt>
      <trkpt lat="45.06364" lon="5.05786">
        <ele>172</ele>
        <time>2022-10-16T12:38:26.000Z</time>
      </trkpt>
      <trkpt lat="45.06361" lon="5.05785">
        <ele>172</ele>
        <time>2022-10-16T12:38:27.000Z</time>
      </trkpt>
      <trkpt lat="45.06357" lon="5.05784">
        <ele>172</ele>
        <time>2022-10-16T12:38:28.000Z</time>
      </trkpt>
      <trkpt lat="45.06353" lon="5.05782">
        <ele>172</ele>
        <time>2022-10-16T12:38:29.000Z</time>
      </trkpt>
      <trkpt lat="45.06349" lon="5.0578">
        <ele>172</ele>
        <time>2022-10-16T12:38:30.000Z</time>
      </trkpt>
      <trkpt lat="45.06346" lon="5.05779">
        <ele>172</ele>
        <time>2022-10-16T12:38:31.000Z</time>
      </trkpt>
      <trkpt lat="45.06343" lon="5.05777">
        <ele>172</ele>
        <time>2022-10-16T12:38:32.000Z</time>
      </trkpt>
      <trkpt lat="45.06341" lon="5.05774">
        <ele>172</ele>
        <time>2022-10-16T12:38:33.000Z</time>
      </trkpt>
      <trkpt lat="45.06339" lon="5.05771">
        <ele>172</ele>
        <time>2022-10-16T12:38:34.000Z</time>
      </trkpt>
      <trkpt lat="45.06336" lon="5.05768">
        <ele>172</ele>
        <time>2022-10-16T12:38:35.000Z</time>
      </trkpt>
      <trkpt lat="45.06332" lon="5.05766">
        <ele>172</ele>
        <time>2022-10-16T12:38:36.000Z</time>
      </trkpt>
      <trkpt lat="45.06329" lon="5.05765">
        <ele>172</ele>
        <time>2022-10-16T12:38:37.000Z</time>
      </trkpt>
      <trkpt lat="45.06326" lon="5.05764">
        <ele>172</ele>
        <time>2022-10-16T12:38:38.000Z</time>
      </trkpt>
      <trkpt lat="45.06322" lon="5.05764">
        <ele>172</ele>
        <time>2022-10-16T12:38:39.000Z</time>
      </trkpt>
      <trkpt lat="45.06319" lon="5.05765">
        <ele>172</ele>
        <time>2022-10-16T12:38:40.000Z</time>
      </trkpt>
      <trkpt lat="45.06316" lon="5.05765">
        <ele>172</ele>
        <time>2022-10-16T12:38:41.000Z</time>
      </trkpt>
      <trkpt lat="45.06312" lon="5.05764">
        <ele>172</ele>
        <time>2022-10-16T12:38:42.000Z</time>
      </trkpt>
      <trkpt lat="45.06308" lon="5.05762">
        <ele>172</ele>
        <time>2022-10-16T12:38:43.000Z</time>
      </trkpt>
      <trkpt lat="45.06304" lon="5.05761">
        <ele>172</ele>
        <time>2022-10-16T12:38:44.000Z</time>
      </trkpt>
      <trkpt lat="45.063" lon="5.0576">
        <ele>172</ele>
        <time>2022-10-16T12:38:45.000Z</time>
      </trkpt>
      <trkpt lat="45.06296" lon="5.05758">
        <ele>172</ele>
        <time>2022-10-16T12:38:46.000Z</time>
      </trkpt>
      <trkpt lat="45.06291" lon="5.05757">
        <ele>172</ele>
        <time>2022-10-16T12:38:47.000Z</time>
      </trkpt>
      <trkpt lat="45.06287" lon="5.05756">
        <ele>172</ele>
        <time>2022-10-16T12:38:48.000Z</time>
      </trkpt>
      <trkpt lat="45.06283" lon="5.05755">
        <ele>172</ele>
        <time>2022-10-16T12:38:49.000Z</time>
      </trkpt>
      <trkpt lat="45.06278" lon="5.05755">
        <ele>172</ele>
        <time>2022-10-16T12:38:50.000Z</time>
      </trkpt>
      <trkpt lat="45.06273" lon="5.05755">
        <ele>172</ele>
        <time>2022-10-16T12:38:51.000Z</time>
      </trkpt>
      <trkpt lat="45.06268" lon="5.05754">
        <ele>172</ele>
        <time>2022-10-16T12:38:52.000Z</time>
      </trkpt>
      <trkpt lat="45.06264" lon="5.05754">
        <ele>172</ele>
        <time>2022-10-16T12:38:53.000Z</time>
      </trkpt>
      <trkpt lat="45.06259" lon="5.05754">
        <ele>172</ele>
        <time>2022-10-16T12:38:54.000Z</time>
      </trkpt>
      <trkpt lat="45.06254" lon="5.05753">
        <ele>172</ele>
        <time>2022-10-16T12:38:55.000Z</time>
      </trkpt>
      <trkpt lat="45.0625" lon="5.05752">
        <ele>172</ele>
        <time>2022-10-16T12:38:56.000Z</time>
      </trkpt>
      <trkpt lat="45.06246" lon="5.05752">
        <ele>172</ele>
        <time>2022-10-16T12:38:57.000Z</time>
      </trkpt>
      <trkpt lat="45.0624" lon="5.05752">
        <ele>172</ele>
        <time>2022-10-16T12:38:58.000Z</time>
      </trkpt>
      <trkpt lat="45.06235" lon="5.05751">
        <ele>172</ele>
        <time>2022-10-16T12:38:59.000Z</time>
      </trkpt>
      <trkpt lat="45.0623" lon="5.0575">
        <ele>172</ele>
        <time>2022-10-16T12:39:00.000Z</time>
      </trkpt>
      <trkpt lat="45.06226" lon="5.05749">
        <ele>172</ele>
        <time>2022-10-16T12:39:01.000Z</time>
      </trkpt>
      <trkpt lat="45.06221" lon="5.05749">
        <ele>172</ele>
        <time>2022-10-16T12:39:02.000Z</time>
      </trkpt>
      <trkpt lat="45.06216" lon="5.05748">
        <ele>172</ele>
        <time>2022-10-16T12:39:03.000Z</time>
      </trkpt>
      <trkpt lat="45.0621" lon="5.05747">
        <ele>172</ele>
        <time>2022-10-16T12:39:04.000Z</time>
      </trkpt>
      <trkpt lat="45.06204" lon="5.05746">
        <ele>172</ele>
        <time>2022-10-16T12:39:05.000Z</time>
      </trkpt>
      <trkpt lat="45.06199" lon="5.05745">
        <ele>172</ele>
        <time>2022-10-16T12:39:06.000Z</time>
      </trkpt>
      <trkpt lat="45.06194" lon="5.05745">
        <ele>172</ele>
        <time>2022-10-16T12:39:07.000Z</time>
      </trkpt>
      <trkpt lat="45.06188" lon="5.05744">
        <ele>171.9</ele>
        <time>2022-10-16T12:39:08.000Z</time>
      </trkpt>
      <trkpt lat="45.06182" lon="5.05743">
        <ele>171.9</ele>
        <time>2022-10-16T12:39:09.000Z</time>
      </trkpt>
      <trkpt lat="45.06177" lon="5.05742">
        <ele>171.8</ele>
        <time>2022-10-16T12:39:10.000Z</time>
      </trkpt>
      <trkpt lat="45.06171" lon="5.05742">
        <ele>171.8</ele>
        <time>2022-10-16T12:39:11.000Z</time>
      </trkpt>
      <trkpt lat="45.06165" lon="5.05743">
        <ele>171.7</ele>
        <time>2022-10-16T12:39:12.000Z</time>
      </trkpt>
      <trkpt lat="45.06159" lon="5.05744">
        <ele>171.8</ele>
        <time>2022-10-16T12:39:13.000Z</time>
      </trkpt>
      <trkpt lat="45.06154" lon="5.05745">
        <ele>171.8</ele>
        <time>2022-10-16T12:39:14.000Z</time>
      </trkpt>
      <trkpt lat="45.06148" lon="5.05745">
        <ele>171.8</ele>
        <time>2022-10-16T12:39:15.000Z</time>
      </trkpt>
      <trkpt lat="45.06142" lon="5.05746">
        <ele>171.8</ele>
        <time>2022-10-16T12:39:16.000Z</time>
      </trkpt>
      <trkpt lat="45.06137" lon="5.05746">
        <ele>171.8</ele>
        <time>2022-10-16T12:39:17.000Z</time>
      </trkpt>
      <trkpt lat="45.06131" lon="5.05746">
        <ele>171.6</ele>
        <time>2022-10-16T12:39:18.000Z</time>
      </trkpt>
      <trkpt lat="45.06124" lon="5.05747">
        <ele>171.4</ele>
        <time>2022-10-16T12:39:19.000Z</time>
      </trkpt>
      <trkpt lat="45.06119" lon="5.05749">
        <ele>171.3</ele>
        <time>2022-10-16T12:39:20.000Z</time>
      </trkpt>
      <trkpt lat="45.06114" lon="5.0575">
        <ele>171.1</ele>
        <time>2022-10-16T12:39:21.000Z</time>
      </trkpt>
      <trkpt lat="45.06109" lon="5.05753">
        <ele>171</ele>
        <time>2022-10-16T12:39:22.000Z</time>
      </trkpt>
      <trkpt lat="45.06105" lon="5.05754">
        <ele>171</ele>
        <time>2022-10-16T12:39:23.000Z</time>
      </trkpt>
      <trkpt lat="45.061" lon="5.05755">
        <ele>171</ele>
        <time>2022-10-16T12:39:24.000Z</time>
      </trkpt>
      <trkpt lat="45.06095" lon="5.05757">
        <ele>171</ele>
        <time>2022-10-16T12:39:25.000Z</time>
      </trkpt>
      <trkpt lat="45.06091" lon="5.05759">
        <ele>171</ele>
        <time>2022-10-16T12:39:26.000Z</time>
      </trkpt>
      <trkpt lat="45.06086" lon="5.0576">
        <ele>171</ele>
        <time>2022-10-16T12:39:27.000Z</time>
      </trkpt>
      <trkpt lat="45.06081" lon="5.05762">
        <ele>171</ele>
        <time>2022-10-16T12:39:28.000Z</time>
      </trkpt>
      <trkpt lat="45.06076" lon="5.05763">
        <ele>171</ele>
        <time>2022-10-16T12:39:29.000Z</time>
      </trkpt>
      <trkpt lat="45.0607" lon="5.05764">
        <ele>171</ele>
        <time>2022-10-16T12:39:30.000Z</time>
      </trkpt>
      <trkpt lat="45.06065" lon="5.05766">
        <ele>171</ele>
        <time>2022-10-16T12:39:31.000Z</time>
      </trkpt>
      <trkpt lat="45.06059" lon="5.05767">
        <ele>171</ele>
        <time>2022-10-16T12:39:32.000Z</time>
      </trkpt>
      <trkpt lat="45.06055" lon="5.0577">
        <ele>171</ele>
        <time>2022-10-16T12:39:33.000Z</time>
      </trkpt>
      <trkpt lat="45.0605" lon="5.05771">
        <ele>171</ele>
        <time>2022-10-16T12:39:34.000Z</time>
      </trkpt>
      <trkpt lat="45.06045" lon="5.05773">
        <ele>171</ele>
        <time>2022-10-16T12:39:35.000Z</time>
      </trkpt>
      <trkpt lat="45.0604" lon="5.05774">
        <ele>171</ele>
        <time>2022-10-16T12:39:36.000Z</time>
      </trkpt>
      <trkpt lat="45.06036" lon="5.05775">
        <ele>171</ele>
        <time>2022-10-16T12:39:37.000Z</time>
      </trkpt>
      <trkpt lat="45.06032" lon="5.05776">
        <ele>171</ele>
        <time>2022-10-16T12:39:38.000Z</time>
      </trkpt>
      <trkpt lat="45.06028" lon="5.05778">
        <ele>171</ele>
        <time>2022-10-16T12:39:39.000Z</time>
      </trkpt>
      <trkpt lat="45.06024" lon="5.05779">
        <ele>171</ele>
        <time>2022-10-16T12:39:40.000Z</time>
      </trkpt>
      <trkpt lat="45.0602" lon="5.05781">
        <ele>171.1</ele>
        <time>2022-10-16T12:39:41.000Z</time>
      </trkpt>
      <trkpt lat="45.06017" lon="5.05781">
        <ele>171.1</ele>
        <time>2022-10-16T12:39:42.000Z</time>
      </trkpt>
      <trkpt lat="45.06013" lon="5.05782">
        <ele>171.1</ele>
        <time>2022-10-16T12:39:43.000Z</time>
      </trkpt>
      <trkpt lat="45.06009" lon="5.05783">
        <ele>171.1</ele>
        <time>2022-10-16T12:39:44.000Z</time>
      </trkpt>
      <trkpt lat="45.06006" lon="5.05784">
        <ele>171</ele>
        <time>2022-10-16T12:39:45.000Z</time>
      </trkpt>
      <trkpt lat="45.06003" lon="5.05784">
        <ele>171</ele>
        <time>2022-10-16T12:39:46.000Z</time>
      </trkpt>
      <trkpt lat="45.06001" lon="5.05785">
        <ele>171</ele>
        <time>2022-10-16T12:39:47.000Z</time>
      </trkpt>
      <trkpt lat="45.05998" lon="5.05786">
        <ele>170.9</ele>
        <time>2022-10-16T12:39:48.000Z</time>
      </trkpt>
      <trkpt lat="45.05996" lon="5.05788">
        <ele>170.8</ele>
        <time>2022-10-16T12:39:49.000Z</time>
      </trkpt>
      <trkpt lat="45.05993" lon="5.05792">
        <ele>170.6</ele>
        <time>2022-10-16T12:39:50.000Z</time>
      </trkpt>
      <trkpt lat="45.05991" lon="5.05799">
        <ele>170.6</ele>
        <time>2022-10-16T12:39:51.000Z</time>
      </trkpt>
      <trkpt lat="45.05989" lon="5.05804">
        <ele>170.6</ele>
        <time>2022-10-16T12:39:52.000Z</time>
      </trkpt>
      <trkpt lat="45.05987" lon="5.0581">
        <ele>170.5</ele>
        <time>2022-10-16T12:39:53.000Z</time>
      </trkpt>
      <trkpt lat="45.05985" lon="5.05815">
        <ele>170.5</ele>
        <time>2022-10-16T12:39:54.000Z</time>
      </trkpt>
      <trkpt lat="45.05983" lon="5.05821">
        <ele>170.4</ele>
        <time>2022-10-16T12:39:55.000Z</time>
      </trkpt>
      <trkpt lat="45.05982" lon="5.05827">
        <ele>170.3</ele>
        <time>2022-10-16T12:39:56.000Z</time>
      </trkpt>
      <trkpt lat="45.0598" lon="5.05832">
        <ele>170.3</ele>
        <time>2022-10-16T12:39:57.000Z</time>
      </trkpt>
      <trkpt lat="45.05978" lon="5.05838">
        <ele>170.3</ele>
        <time>2022-10-16T12:39:58.000Z</time>
      </trkpt>
      <trkpt lat="45.05976" lon="5.05843">
        <ele>170.4</ele>
        <time>2022-10-16T12:39:59.000Z</time>
      </trkpt>
      <trkpt lat="45.05974" lon="5.05848">
        <ele>170.5</ele>
        <time>2022-10-16T12:40:00.000Z</time>
      </trkpt>
      <trkpt lat="45.05971" lon="5.05853">
        <ele>170.6</ele>
        <time>2022-10-16T12:40:01.000Z</time>
      </trkpt>
      <trkpt lat="45.05969" lon="5.05858">
        <ele>170.7</ele>
        <time>2022-10-16T12:40:02.000Z</time>
      </trkpt>
      <trkpt lat="45.05967" lon="5.05863">
        <ele>170.7</ele>
        <time>2022-10-16T12:40:03.000Z</time>
      </trkpt>
      <trkpt lat="45.05964" lon="5.05869">
        <ele>170.5</ele>
        <time>2022-10-16T12:40:04.000Z</time>
      </trkpt>
      <trkpt lat="45.05961" lon="5.05874">
        <ele>170.4</ele>
        <time>2022-10-16T12:40:05.000Z</time>
      </trkpt>
      <trkpt lat="45.05958" lon="5.05879">
        <ele>170.3</ele>
        <time>2022-10-16T12:40:06.000Z</time>
      </trkpt>
      <trkpt lat="45.05955" lon="5.05884">
        <ele>170.2</ele>
        <time>2022-10-16T12:40:07.000Z</time>
      </trkpt>
      <trkpt lat="45.05951" lon="5.05888">
        <ele>170.2</ele>
        <time>2022-10-16T12:40:08.000Z</time>
      </trkpt>
      <trkpt lat="45.05948" lon="5.05893">
        <ele>170.1</ele>
        <time>2022-10-16T12:40:09.000Z</time>
      </trkpt>
      <trkpt lat="45.05946" lon="5.05898">
        <ele>170</ele>
        <time>2022-10-16T12:40:10.000Z</time>
      </trkpt>
      <trkpt lat="45.05944" lon="5.05903">
        <ele>170</ele>
        <time>2022-10-16T12:40:11.000Z</time>
      </trkpt>
      <trkpt lat="45.05943" lon="5.05908">
        <ele>169.9</ele>
        <time>2022-10-16T12:40:12.000Z</time>
      </trkpt>
      <trkpt lat="45.05941" lon="5.05912">
        <ele>169.9</ele>
        <time>2022-10-16T12:40:13.000Z</time>
      </trkpt>
      <trkpt lat="45.05939" lon="5.05917">
        <ele>169.8</ele>
        <time>2022-10-16T12:40:14.000Z</time>
      </trkpt>
      <trkpt lat="45.05938" lon="5.05922">
        <ele>169.8</ele>
        <time>2022-10-16T12:40:15.000Z</time>
      </trkpt>
      <trkpt lat="45.05936" lon="5.05927">
        <ele>169.7</ele>
        <time>2022-10-16T12:40:16.000Z</time>
      </trkpt>
      <trkpt lat="45.05934" lon="5.05932">
        <ele>169.6</ele>
        <time>2022-10-16T12:40:17.000Z</time>
      </trkpt>
      <trkpt lat="45.05932" lon="5.05938">
        <ele>169.6</ele>
        <time>2022-10-16T12:40:18.000Z</time>
      </trkpt>
      <trkpt lat="45.0593" lon="5.05943">
        <ele>169.5</ele>
        <time>2022-10-16T12:40:19.000Z</time>
      </trkpt>
      <trkpt lat="45.05928" lon="5.05948">
        <ele>169.5</ele>
        <time>2022-10-16T12:40:20.000Z</time>
      </trkpt>
      <trkpt lat="45.05926" lon="5.05954">
        <ele>169.6</ele>
        <time>2022-10-16T12:40:21.000Z</time>
      </trkpt>
      <trkpt lat="45.05924" lon="5.0596">
        <ele>169.7</ele>
        <time>2022-10-16T12:40:22.000Z</time>
      </trkpt>
      <trkpt lat="45.05922" lon="5.05965">
        <ele>169.8</ele>
        <time>2022-10-16T12:40:23.000Z</time>
      </trkpt>
      <trkpt lat="45.05921" lon="5.05971">
        <ele>170</ele>
        <time>2022-10-16T12:40:24.000Z</time>
      </trkpt>
      <trkpt lat="45.05919" lon="5.05976">
        <ele>170</ele>
        <time>2022-10-16T12:40:25.000Z</time>
      </trkpt>
      <trkpt lat="45.05917" lon="5.05981">
        <ele>170</ele>
        <time>2022-10-16T12:40:26.000Z</time>
      </trkpt>
      <trkpt lat="45.05915" lon="5.05986">
        <ele>170</ele>
        <time>2022-10-16T12:40:27.000Z</time>
      </trkpt>
      <trkpt lat="45.05914" lon="5.05991">
        <ele>170</ele>
        <time>2022-10-16T12:40:28.000Z</time>
      </trkpt>
      <trkpt lat="45.05914" lon="5.05995">
        <ele>170</ele>
        <time>2022-10-16T12:40:29.000Z</time>
      </trkpt>
      <trkpt lat="45.05914" lon="5.06">
        <ele>170</ele>
        <time>2022-10-16T12:40:30.000Z</time>
      </trkpt>
      <trkpt lat="45.05914" lon="5.06004">
        <ele>170</ele>
        <time>2022-10-16T12:40:31.000Z</time>
      </trkpt>
      <trkpt lat="45.05914" lon="5.06009">
        <ele>170</ele>
        <time>2022-10-16T12:40:32.000Z</time>
      </trkpt>
      <trkpt lat="45.05913" lon="5.06014">
        <ele>170</ele>
        <time>2022-10-16T12:40:33.000Z</time>
      </trkpt>
      <trkpt lat="45.05912" lon="5.06019">
        <ele>170</ele>
        <time>2022-10-16T12:40:34.000Z</time>
      </trkpt>
      <trkpt lat="45.05911" lon="5.06023">
        <ele>170</ele>
        <time>2022-10-16T12:40:35.000Z</time>
      </trkpt>
      <trkpt lat="45.05909" lon="5.06028">
        <ele>170</ele>
        <time>2022-10-16T12:40:36.000Z</time>
      </trkpt>
      <trkpt lat="45.05908" lon="5.06032">
        <ele>169.9</ele>
        <time>2022-10-16T12:40:37.000Z</time>
      </trkpt>
      <trkpt lat="45.05906" lon="5.06036">
        <ele>169.8</ele>
        <time>2022-10-16T12:40:38.000Z</time>
      </trkpt>
      <trkpt lat="45.05904" lon="5.0604">
        <ele>169.8</ele>
        <time>2022-10-16T12:40:39.000Z</time>
      </trkpt>
      <trkpt lat="45.05904" lon="5.06044">
        <ele>169.7</ele>
        <time>2022-10-16T12:40:40.000Z</time>
      </trkpt>
      <trkpt lat="45.05905" lon="5.06049">
        <ele>169.6</ele>
        <time>2022-10-16T12:40:41.000Z</time>
      </trkpt>
      <trkpt lat="45.05906" lon="5.06052">
        <ele>169.4</ele>
        <time>2022-10-16T12:40:42.000Z</time>
      </trkpt>
      <trkpt lat="45.05908" lon="5.06054">
        <ele>169.4</ele>
        <time>2022-10-16T12:40:43.000Z</time>
      </trkpt>
      <trkpt lat="45.0591" lon="5.06053">
        <ele>169.3</ele>
        <time>2022-10-16T12:40:44.000Z</time>
      </trkpt>
      <trkpt lat="45.05913" lon="5.06049">
        <ele>169.3</ele>
        <time>2022-10-16T12:40:46.000Z</time>
      </trkpt>
      <trkpt lat="45.05914" lon="5.06044">
        <ele>169.5</ele>
        <time>2022-10-16T12:40:48.000Z</time>
      </trkpt>
      <trkpt lat="45.05915" lon="5.06041">
        <ele>169.5</ele>
        <time>2022-10-16T12:40:49.000Z</time>
      </trkpt>
      <trkpt lat="45.05916" lon="5.06038">
        <ele>169.6</ele>
        <time>2022-10-16T12:40:50.000Z</time>
      </trkpt>
      <trkpt lat="45.05916" lon="5.06035">
        <ele>169.7</ele>
        <time>2022-10-16T12:40:52.000Z</time>
      </trkpt>
      <trkpt lat="45.05916" lon="5.06043">
        <ele>169.5</ele>
        <time>2022-10-16T12:40:58.000Z</time>
      </trkpt>
      <trkpt lat="45.05914" lon="5.06046">
        <ele>169.4</ele>
        <time>2022-10-16T12:41:00.000Z</time>
      </trkpt>
      <trkpt lat="45.05914" lon="5.06049">
        <ele>169.3</ele>
        <time>2022-10-16T12:41:02.000Z</time>
      </trkpt>
      <trkpt lat="45.05923" lon="5.06049">
        <ele>169.2</ele>
        <time>2022-10-16T12:41:38.000Z</time>
      </trkpt>
      <trkpt lat="45.05927" lon="5.06048">
        <ele>169.2</ele>
        <time>2022-10-16T12:43:17.000Z</time>
      </trkpt>
      <trkpt lat="45.05927" lon="5.06044">
        <ele>169.3</ele>
        <time>2022-10-16T12:43:19.000Z</time>
      </trkpt>
      <trkpt lat="45.05928" lon="5.0604">
        <ele>169.3</ele>
        <time>2022-10-16T12:43:22.000Z</time>
      </trkpt>
      <trkpt lat="45.05928" lon="5.06037">
        <ele>169.4</ele>
        <time>2022-10-16T12:43:24.000Z</time>
      </trkpt>
      <trkpt lat="45.05919" lon="5.06033">
        <ele>169.7</ele>
        <time>2022-10-16T12:44:00.000Z</time>
      </trkpt>
      <trkpt lat="45.05916" lon="5.06032">
        <ele>169.8</ele>
        <time>2022-10-16T12:44:01.000Z</time>
      </trkpt>
      <trkpt lat="45.05913" lon="5.06033">
        <ele>169.8</ele>
        <time>2022-10-16T12:44:02.000Z</time>
      </trkpt>
      <trkpt lat="45.05908" lon="5.06032">
        <ele>169.9</ele>
        <time>2022-10-16T12:44:03.000Z</time>
      </trkpt>
      <trkpt lat="45.05885" lon="5.06005">
        <ele>169.9</ele>
        <time>2022-10-16T12:44:05.000Z</time>
      </trkpt>
      <trkpt lat="45.05887" lon="5.06">
        <ele>169.9</ele>
        <time>2022-10-16T12:44:06.000Z</time>
      </trkpt>
      <trkpt lat="45.05891" lon="5.06005">
        <ele>170</ele>
        <time>2022-10-16T12:44:07.000Z</time>
      </trkpt>
      <trkpt lat="45.05898" lon="5.06012">
        <ele>170</ele>
        <time>2022-10-16T12:44:08.000Z</time>
      </trkpt>
      <trkpt lat="45.05904" lon="5.06019">
        <ele>170</ele>
        <time>2022-10-16T12:44:09.000Z</time>
      </trkpt>
      <trkpt lat="45.0591" lon="5.06027">
        <ele>170</ele>
        <time>2022-10-16T12:44:10.000Z</time>
      </trkpt>
      <trkpt lat="45.05915" lon="5.06032">
        <ele>169.8</ele>
        <time>2022-10-16T12:44:11.000Z</time>
      </trkpt>
      <trkpt lat="45.05919" lon="5.06037">
        <ele>169.6</ele>
        <time>2022-10-16T12:44:12.000Z</time>
      </trkpt>
      <trkpt lat="45.05923" lon="5.0604">
        <ele>169.4</ele>
        <time>2022-10-16T12:44:13.000Z</time>
      </trkpt>
      <trkpt lat="45.05925" lon="5.06041">
        <ele>169.4</ele>
        <time>2022-10-16T12:44:16.000Z</time>
      </trkpt>
      <trkpt lat="45.05925" lon="5.06041">
        <ele>169.4</ele>
        <time>2022-10-16T12:44:16.000Z</time>
      </trkpt>
      <trkpt lat="45.0592" lon="5.06027">
        <ele>169.9</ele>
        <time>2022-10-16T12:53:39.000Z</time>
      </trkpt>
      <trkpt lat="45.0592" lon="5.06027">
        <ele>169.9</ele>
        <time>2022-10-16T12:53:39.000Z</time>
      </trkpt>
      <trkpt lat="45.05916" lon="5.06014">
        <ele>170</ele>
        <time>2022-10-16T12:53:47.000Z</time>
      </trkpt>
      <trkpt lat="45.05922" lon="5.0601">
        <ele>169.9</ele>
        <time>2022-10-16T12:53:53.000Z</time>
      </trkpt>
      <trkpt lat="45.05921" lon="5.06007">
        <ele>170</ele>
        <time>2022-10-16T12:53:54.000Z</time>
      </trkpt>
      <trkpt lat="45.0592" lon="5.06004">
        <ele>170</ele>
        <time>2022-10-16T12:53:55.000Z</time>
      </trkpt>
      <trkpt lat="45.05919" lon="5.06002">
        <ele>170</ele>
        <time>2022-10-16T12:53:56.000Z</time>
      </trkpt>
      <trkpt lat="45.05918" lon="5.05998">
        <ele>170</ele>
        <time>2022-10-16T12:53:57.000Z</time>
      </trkpt>
      <trkpt lat="45.05917" lon="5.05995">
        <ele>170</ele>
        <time>2022-10-16T12:53:58.000Z</time>
      </trkpt>
      <trkpt lat="45.05916" lon="5.0599">
        <ele>170</ele>
        <time>2022-10-16T12:53:59.000Z</time>
      </trkpt>
      <trkpt lat="45.05916" lon="5.05986">
        <ele>170</ele>
        <time>2022-10-16T12:54:00.000Z</time>
      </trkpt>
      <trkpt lat="45.05918" lon="5.05982">
        <ele>170</ele>
        <time>2022-10-16T12:54:01.000Z</time>
      </trkpt>
      <trkpt lat="45.0592" lon="5.05978">
        <ele>170</ele>
        <time>2022-10-16T12:54:02.000Z</time>
      </trkpt>
      <trkpt lat="45.05922" lon="5.05974">
        <ele>170</ele>
        <time>2022-10-16T12:54:03.000Z</time>
      </trkpt>
      <trkpt lat="45.05924" lon="5.05969">
        <ele>169.9</ele>
        <time>2022-10-16T12:54:04.000Z</time>
      </trkpt>
      <trkpt lat="45.05925" lon="5.05964">
        <ele>169.8</ele>
        <time>2022-10-16T12:54:05.000Z</time>
      </trkpt>
      <trkpt lat="45.05927" lon="5.0596">
        <ele>169.7</ele>
        <time>2022-10-16T12:54:06.000Z</time>
      </trkpt>
      <trkpt lat="45.05929" lon="5.05955">
        <ele>169.6</ele>
        <time>2022-10-16T12:54:07.000Z</time>
      </trkpt>
      <trkpt lat="45.05931" lon="5.0595">
        <ele>169.6</ele>
        <time>2022-10-16T12:54:08.000Z</time>
      </trkpt>
      <trkpt lat="45.05933" lon="5.05945">
        <ele>169.6</ele>
        <time>2022-10-16T12:54:09.000Z</time>
      </trkpt>
      <trkpt lat="45.05935" lon="5.0594">
        <ele>169.7</ele>
        <time>2022-10-16T12:54:10.000Z</time>
      </trkpt>
      <trkpt lat="45.05938" lon="5.05935">
        <ele>169.8</ele>
        <time>2022-10-16T12:54:11.000Z</time>
      </trkpt>
      <trkpt lat="45.05939" lon="5.05931">
        <ele>169.8</ele>
        <time>2022-10-16T12:54:12.000Z</time>
      </trkpt>
      <trkpt lat="45.05941" lon="5.05926">
        <ele>169.9</ele>
        <time>2022-10-16T12:54:13.000Z</time>
      </trkpt>
      <trkpt lat="45.05943" lon="5.05922">
        <ele>169.9</ele>
        <time>2022-10-16T12:54:14.000Z</time>
      </trkpt>
      <trkpt lat="45.05944" lon="5.05917">
        <ele>170</ele>
        <time>2022-10-16T12:54:15.000Z</time>
      </trkpt>
      <trkpt lat="45.05946" lon="5.05912">
        <ele>170</ele>
        <time>2022-10-16T12:54:16.000Z</time>
      </trkpt>
      <trkpt lat="45.05948" lon="5.05908">
        <ele>170.1</ele>
        <time>2022-10-16T12:54:17.000Z</time>
      </trkpt>
      <trkpt lat="45.0595" lon="5.05905">
        <ele>170.2</ele>
        <time>2022-10-16T12:54:18.000Z</time>
      </trkpt>
      <trkpt lat="45.05952" lon="5.05902">
        <ele>170.3</ele>
        <time>2022-10-16T12:54:19.000Z</time>
      </trkpt>
      <trkpt lat="45.05955" lon="5.05899">
        <ele>170.4</ele>
        <time>2022-10-16T12:54:20.000Z</time>
      </trkpt>
      <trkpt lat="45.05957" lon="5.05896">
        <ele>170.4</ele>
        <time>2022-10-16T12:54:21.000Z</time>
      </trkpt>
      <trkpt lat="45.05959" lon="5.05894">
        <ele>170.5</ele>
        <time>2022-10-16T12:54:22.000Z</time>
      </trkpt>
      <trkpt lat="45.05961" lon="5.05892">
        <ele>170.6</ele>
        <time>2022-10-16T12:54:23.000Z</time>
      </trkpt>
      <trkpt lat="45.05963" lon="5.05888">
        <ele>170.7</ele>
        <time>2022-10-16T12:54:24.000Z</time>
      </trkpt>
      <trkpt lat="45.05965" lon="5.05884">
        <ele>170.7</ele>
        <time>2022-10-16T12:54:25.000Z</time>
      </trkpt>
      <trkpt lat="45.05966" lon="5.05879">
        <ele>170.7</ele>
        <time>2022-10-16T12:54:26.000Z</time>
      </trkpt>
      <trkpt lat="45.05968" lon="5.05875">
        <ele>170.8</ele>
        <time>2022-10-16T12:54:27.000Z</time>
      </trkpt>
      <trkpt lat="45.0597" lon="5.0587">
        <ele>170.9</ele>
        <time>2022-10-16T12:54:28.000Z</time>
      </trkpt>
      <trkpt lat="45.05972" lon="5.05865">
        <ele>171</ele>
        <time>2022-10-16T12:54:29.000Z</time>
      </trkpt>
      <trkpt lat="45.05975" lon="5.05861">
        <ele>171</ele>
        <time>2022-10-16T12:54:30.000Z</time>
      </trkpt>
      <trkpt lat="45.05977" lon="5.05856">
        <ele>170.8</ele>
        <time>2022-10-16T12:54:31.000Z</time>
      </trkpt>
      <trkpt lat="45.05979" lon="5.05851">
        <ele>170.7</ele>
        <time>2022-10-16T12:54:32.000Z</time>
      </trkpt>
      <trkpt lat="45.05981" lon="5.05846">
        <ele>170.6</ele>
        <time>2022-10-16T12:54:33.000Z</time>
      </trkpt>
      <trkpt lat="45.05983" lon="5.05841">
        <ele>170.6</ele>
        <time>2022-10-16T12:54:34.000Z</time>
      </trkpt>
      <trkpt lat="45.05985" lon="5.05837">
        <ele>170.5</ele>
        <time>2022-10-16T12:54:35.000Z</time>
      </trkpt>
      <trkpt lat="45.05987" lon="5.05833">
        <ele>170.5</ele>
        <time>2022-10-16T12:54:36.000Z</time>
      </trkpt>
      <trkpt lat="45.05988" lon="5.05828">
        <ele>170.6</ele>
        <time>2022-10-16T12:54:37.000Z</time>
      </trkpt>
      <trkpt lat="45.0599" lon="5.05823">
        <ele>170.6</ele>
        <time>2022-10-16T12:54:38.000Z</time>
      </trkpt>
      <trkpt lat="45.05991" lon="5.05818">
        <ele>170.7</ele>
        <time>2022-10-16T12:54:39.000Z</time>
      </trkpt>
      <trkpt lat="45.05993" lon="5.05813">
        <ele>170.7</ele>
        <time>2022-10-16T12:54:40.000Z</time>
      </trkpt>
      <trkpt lat="45.05994" lon="5.05808">
        <ele>170.8</ele>
        <time>2022-10-16T12:54:41.000Z</time>
      </trkpt>
      <trkpt lat="45.05996" lon="5.05803">
        <ele>170.9</ele>
        <time>2022-10-16T12:54:42.000Z</time>
      </trkpt>
      <trkpt lat="45.05999" lon="5.05799">
        <ele>170.9</ele>
        <time>2022-10-16T12:54:43.000Z</time>
      </trkpt>
      <trkpt lat="45.06002" lon="5.05797">
        <ele>171</ele>
        <time>2022-10-16T12:54:44.000Z</time>
      </trkpt>
      <trkpt lat="45.06005" lon="5.05795">
        <ele>171.1</ele>
        <time>2022-10-16T12:54:45.000Z</time>
      </trkpt>
      <trkpt lat="45.06009" lon="5.05795">
        <ele>171.2</ele>
        <time>2022-10-16T12:54:46.000Z</time>
      </trkpt>
      <trkpt lat="45.06013" lon="5.05794">
        <ele>171.3</ele>
        <time>2022-10-16T12:54:47.000Z</time>
      </trkpt>
      <trkpt lat="45.06017" lon="5.05792">
        <ele>171.3</ele>
        <time>2022-10-16T12:54:48.000Z</time>
      </trkpt>
      <trkpt lat="45.06021" lon="5.05791">
        <ele>171.4</ele>
        <time>2022-10-16T12:54:49.000Z</time>
      </trkpt>
      <trkpt lat="45.06026" lon="5.0579">
        <ele>171.4</ele>
        <time>2022-10-16T12:54:50.000Z</time>
      </trkpt>
      <trkpt lat="45.0603" lon="5.05788">
        <ele>171.3</ele>
        <time>2022-10-16T12:54:51.000Z</time>
      </trkpt>
      <trkpt lat="45.06035" lon="5.05787">
        <ele>171.3</ele>
        <time>2022-10-16T12:54:52.000Z</time>
      </trkpt>
      <trkpt lat="45.06039" lon="5.05786">
        <ele>171.2</ele>
        <time>2022-10-16T12:54:53.000Z</time>
      </trkpt>
      <trkpt lat="45.06044" lon="5.05785">
        <ele>171.1</ele>
        <time>2022-10-16T12:54:54.000Z</time>
      </trkpt>
      <trkpt lat="45.06049" lon="5.05783">
        <ele>171.1</ele>
        <time>2022-10-16T12:54:55.000Z</time>
      </trkpt>
      <trkpt lat="45.06053" lon="5.05782">
        <ele>171</ele>
        <time>2022-10-16T12:54:56.000Z</time>
      </trkpt>
      <trkpt lat="45.06057" lon="5.05779">
        <ele>171</ele>
        <time>2022-10-16T12:54:57.000Z</time>
      </trkpt>
      <trkpt lat="45.06061" lon="5.05777">
        <ele>171</ele>
        <time>2022-10-16T12:54:58.000Z</time>
      </trkpt>
      <trkpt lat="45.06065" lon="5.05775">
        <ele>171</ele>
        <time>2022-10-16T12:54:59.000Z</time>
      </trkpt>
      <trkpt lat="45.06069" lon="5.05773">
        <ele>171</ele>
        <time>2022-10-16T12:55:00.000Z</time>
      </trkpt>
      <trkpt lat="45.06073" lon="5.05771">
        <ele>171</ele>
        <time>2022-10-16T12:55:01.000Z</time>
      </trkpt>
      <trkpt lat="45.06077" lon="5.05769">
        <ele>171</ele>
        <time>2022-10-16T12:55:02.000Z</time>
      </trkpt>
      <trkpt lat="45.0608" lon="5.05768">
        <ele>171</ele>
        <time>2022-10-16T12:55:03.000Z</time>
      </trkpt>
      <trkpt lat="45.06084" lon="5.05767">
        <ele>171</ele>
        <time>2022-10-16T12:55:04.000Z</time>
      </trkpt>
      <trkpt lat="45.06087" lon="5.05766">
        <ele>171</ele>
        <time>2022-10-16T12:55:05.000Z</time>
      </trkpt>
      <trkpt lat="45.0609" lon="5.05765">
        <ele>171</ele>
        <time>2022-10-16T12:55:06.000Z</time>
      </trkpt>
      <trkpt lat="45.06095" lon="5.05764">
        <ele>171</ele>
        <time>2022-10-16T12:55:07.000Z</time>
      </trkpt>
      <trkpt lat="45.06099" lon="5.05763">
        <ele>171</ele>
        <time>2022-10-16T12:55:08.000Z</time>
      </trkpt>
      <trkpt lat="45.06103" lon="5.05762">
        <ele>171</ele>
        <time>2022-10-16T12:55:09.000Z</time>
      </trkpt>
      <trkpt lat="45.06107" lon="5.05761">
        <ele>171</ele>
        <time>2022-10-16T12:55:10.000Z</time>
      </trkpt>
      <trkpt lat="45.06111" lon="5.0576">
        <ele>171</ele>
        <time>2022-10-16T12:55:11.000Z</time>
      </trkpt>
      <trkpt lat="45.06115" lon="5.05759">
        <ele>171.1</ele>
        <time>2022-10-16T12:55:12.000Z</time>
      </trkpt>
      <trkpt lat="45.06119" lon="5.05759">
        <ele>171.3</ele>
        <time>2022-10-16T12:55:13.000Z</time>
      </trkpt>
      <trkpt lat="45.06123" lon="5.05758">
        <ele>171.4</ele>
        <time>2022-10-16T12:55:14.000Z</time>
      </trkpt>
      <trkpt lat="45.06126" lon="5.05758">
        <ele>171.5</ele>
        <time>2022-10-16T12:55:15.000Z</time>
      </trkpt>
      <trkpt lat="45.06129" lon="5.05757">
        <ele>171.7</ele>
        <time>2022-10-16T12:55:16.000Z</time>
      </trkpt>
      <trkpt lat="45.06133" lon="5.05756">
        <ele>171.8</ele>
        <time>2022-10-16T12:55:17.000Z</time>
      </trkpt>
      <trkpt lat="45.06137" lon="5.05757">
        <ele>171.9</ele>
        <time>2022-10-16T12:55:18.000Z</time>
      </trkpt>
      <trkpt lat="45.06141" lon="5.05757">
        <ele>172</ele>
        <time>2022-10-16T12:55:19.000Z</time>
      </trkpt>
      <trkpt lat="45.06146" lon="5.05757">
        <ele>172</ele>
        <time>2022-10-16T12:55:20.000Z</time>
      </trkpt>
      <trkpt lat="45.06152" lon="5.05756">
        <ele>172</ele>
        <time>2022-10-16T12:55:21.000Z</time>
      </trkpt>
      <trkpt lat="45.06157" lon="5.05757">
        <ele>172</ele>
        <time>2022-10-16T12:55:22.000Z</time>
      </trkpt>
      <trkpt lat="45.06162" lon="5.05757">
        <ele>172</ele>
        <time>2022-10-16T12:55:23.000Z</time>
      </trkpt>
      <trkpt lat="45.06167" lon="5.05757">
        <ele>172</ele>
        <time>2022-10-16T12:55:24.000Z</time>
      </trkpt>
      <trkpt lat="45.06172" lon="5.05757">
        <ele>172</ele>
        <time>2022-10-16T12:55:25.000Z</time>
      </trkpt>
      <trkpt lat="45.06176" lon="5.05757">
        <ele>171.9</ele>
        <time>2022-10-16T12:55:26.000Z</time>
      </trkpt>
      <trkpt lat="45.06181" lon="5.05757">
        <ele>171.9</ele>
        <time>2022-10-16T12:55:27.000Z</time>
      </trkpt>
      <trkpt lat="45.06186" lon="5.05758">
        <ele>171.8</ele>
        <time>2022-10-16T12:55:28.000Z</time>
      </trkpt>
      <trkpt lat="45.06191" lon="5.05758">
        <ele>171.7</ele>
        <time>2022-10-16T12:55:29.000Z</time>
      </trkpt>
      <trkpt lat="45.06196" lon="5.05759">
        <ele>171.7</ele>
        <time>2022-10-16T12:55:30.000Z</time>
      </trkpt>
      <trkpt lat="45.06201" lon="5.05759">
        <ele>171.8</ele>
        <time>2022-10-16T12:55:31.000Z</time>
      </trkpt>
      <trkpt lat="45.06207" lon="5.05758">
        <ele>171.8</ele>
        <time>2022-10-16T12:55:32.000Z</time>
      </trkpt>
      <trkpt lat="45.06212" lon="5.05758">
        <ele>171.9</ele>
        <time>2022-10-16T12:55:33.000Z</time>
      </trkpt>
      <trkpt lat="45.06217" lon="5.05758">
        <ele>171.9</ele>
        <time>2022-10-16T12:55:34.000Z</time>
      </trkpt>
      <trkpt lat="45.06222" lon="5.05758">
        <ele>172</ele>
        <time>2022-10-16T12:55:35.000Z</time>
      </trkpt>
      <trkpt lat="45.06227" lon="5.05759">
        <ele>172</ele>
        <time>2022-10-16T12:55:36.000Z</time>
      </trkpt>
      <trkpt lat="45.06232" lon="5.05759">
        <ele>172</ele>
        <time>2022-10-16T12:55:37.000Z</time>
      </trkpt>
      <trkpt lat="45.06237" lon="5.05759">
        <ele>172</ele>
        <time>2022-10-16T12:55:38.000Z</time>
      </trkpt>
      <trkpt lat="45.06242" lon="5.0576">
        <ele>172</ele>
        <time>2022-10-16T12:55:39.000Z</time>
      </trkpt>
      <trkpt lat="45.06247" lon="5.0576">
        <ele>172</ele>
        <time>2022-10-16T12:55:40.000Z</time>
      </trkpt>
      <trkpt lat="45.06251" lon="5.05761">
        <ele>172</ele>
        <time>2022-10-16T12:55:41.000Z</time>
      </trkpt>
      <trkpt lat="45.06255" lon="5.05761">
        <ele>172</ele>
        <time>2022-10-16T12:55:42.000Z</time>
      </trkpt>
      <trkpt lat="45.0626" lon="5.05762">
        <ele>172</ele>
        <time>2022-10-16T12:55:43.000Z</time>
      </trkpt>
      <trkpt lat="45.06264" lon="5.05762">
        <ele>172</ele>
        <time>2022-10-16T12:55:44.000Z</time>
      </trkpt>
      <trkpt lat="45.06268" lon="5.05761">
        <ele>172</ele>
        <time>2022-10-16T12:55:45.000Z</time>
      </trkpt>
      <trkpt lat="45.06272" lon="5.05761">
        <ele>172</ele>
        <time>2022-10-16T12:55:46.000Z</time>
      </trkpt>
      <trkpt lat="45.06276" lon="5.05761">
        <ele>172</ele>
        <time>2022-10-16T12:55:47.000Z</time>
      </trkpt>
      <trkpt lat="45.0628" lon="5.05762">
        <ele>172</ele>
        <time>2022-10-16T12:55:48.000Z</time>
      </trkpt>
      <trkpt lat="45.06284" lon="5.05763">
        <ele>172</ele>
        <time>2022-10-16T12:55:49.000Z</time>
      </trkpt>
      <trkpt lat="45.06287" lon="5.05764">
        <ele>172</ele>
        <time>2022-10-16T12:55:50.000Z</time>
      </trkpt>
      <trkpt lat="45.06291" lon="5.05766">
        <ele>172</ele>
        <time>2022-10-16T12:55:51.000Z</time>
      </trkpt>
      <trkpt lat="45.06295" lon="5.05768">
        <ele>172</ele>
        <time>2022-10-16T12:55:52.000Z</time>
      </trkpt>
      <trkpt lat="45.06299" lon="5.05769">
        <ele>172</ele>
        <time>2022-10-16T12:55:53.000Z</time>
      </trkpt>
      <trkpt lat="45.06303" lon="5.0577">
        <ele>172</ele>
        <time>2022-10-16T12:55:54.000Z</time>
      </trkpt>
      <trkpt lat="45.06307" lon="5.05771">
        <ele>172</ele>
        <time>2022-10-16T12:55:55.000Z</time>
      </trkpt>
      <trkpt lat="45.06311" lon="5.05772">
        <ele>172</ele>
        <time>2022-10-16T12:55:56.000Z</time>
      </trkpt>
      <trkpt lat="45.06315" lon="5.05774">
        <ele>172</ele>
        <time>2022-10-16T12:55:57.000Z</time>
      </trkpt>
      <trkpt lat="45.06319" lon="5.05775">
        <ele>172</ele>
        <time>2022-10-16T12:55:58.000Z</time>
      </trkpt>
      <trkpt lat="45.06324" lon="5.05777">
        <ele>172</ele>
        <time>2022-10-16T12:55:59.000Z</time>
      </trkpt>
      <trkpt lat="45.06327" lon="5.05779">
        <ele>172</ele>
        <time>2022-10-16T12:56:00.000Z</time>
      </trkpt>
      <trkpt lat="45.06331" lon="5.05781">
        <ele>172</ele>
        <time>2022-10-16T12:56:01.000Z</time>
      </trkpt>
      <trkpt lat="45.06336" lon="5.05782">
        <ele>172</ele>
        <time>2022-10-16T12:56:02.000Z</time>
      </trkpt>
      <trkpt lat="45.06339" lon="5.05783">
        <ele>172</ele>
        <time>2022-10-16T12:56:03.000Z</time>
      </trkpt>
      <trkpt lat="45.06344" lon="5.05784">
        <ele>172</ele>
        <time>2022-10-16T12:56:04.000Z</time>
      </trkpt>
      <trkpt lat="45.06348" lon="5.05786">
        <ele>172</ele>
        <time>2022-10-16T12:56:05.000Z</time>
      </trkpt>
      <trkpt lat="45.06351" lon="5.05789">
        <ele>172</ele>
        <time>2022-10-16T12:56:06.000Z</time>
      </trkpt>
      <trkpt lat="45.06356" lon="5.0579">
        <ele>172</ele>
        <time>2022-10-16T12:56:07.000Z</time>
      </trkpt>
      <trkpt lat="45.06361" lon="5.05792">
        <ele>172</ele>
        <time>2022-10-16T12:56:08.000Z</time>
      </trkpt>
      <trkpt lat="45.06367" lon="5.05793">
        <ele>172</ele>
        <time>2022-10-16T12:56:09.000Z</time>
      </trkpt>
      <trkpt lat="45.06372" lon="5.05794">
        <ele>172</ele>
        <time>2022-10-16T12:56:10.000Z</time>
      </trkpt>
      <trkpt lat="45.06378" lon="5.05795">
        <ele>172</ele>
        <time>2022-10-16T12:56:11.000Z</time>
      </trkpt>
      <trkpt lat="45.06383" lon="5.05795">
        <ele>172</ele>
        <time>2022-10-16T12:56:12.000Z</time>
      </trkpt>
      <trkpt lat="45.06388" lon="5.05794">
        <ele>172</ele>
        <time>2022-10-16T12:56:13.000Z</time>
      </trkpt>
      <trkpt lat="45.06393" lon="5.05795">
        <ele>172</ele>
        <time>2022-10-16T12:56:14.000Z</time>
      </trkpt>
      <trkpt lat="45.06397" lon="5.05795">
        <ele>172</ele>
        <time>2022-10-16T12:56:15.000Z</time>
      </trkpt>
      <trkpt lat="45.06402" lon="5.05794">
        <ele>172</ele>
        <time>2022-10-16T12:56:16.000Z</time>
      </trkpt>
      <trkpt lat="45.06406" lon="5.05794">
        <ele>172</ele>
        <time>2022-10-16T12:56:17.000Z</time>
      </trkpt>
      <trkpt lat="45.0641" lon="5.05793">
        <ele>172</ele>
        <time>2022-10-16T12:56:18.000Z</time>
      </trkpt>
      <trkpt lat="45.06414" lon="5.05792">
        <ele>172</ele>
        <time>2022-10-16T12:56:19.000Z</time>
      </trkpt>
      <trkpt lat="45.06419" lon="5.05791">
        <ele>172</ele>
        <time>2022-10-16T12:56:20.000Z</time>
      </trkpt>
      <trkpt lat="45.06424" lon="5.0579">
        <ele>172</ele>
        <time>2022-10-16T12:56:21.000Z</time>
      </trkpt>
      <trkpt lat="45.06429" lon="5.05788">
        <ele>172</ele>
        <time>2022-10-16T12:56:22.000Z</time>
      </trkpt>
      <trkpt lat="45.06433" lon="5.05787">
        <ele>172</ele>
        <time>2022-10-16T12:56:23.000Z</time>
      </trkpt>
      <trkpt lat="45.06438" lon="5.05785">
        <ele>172</ele>
        <time>2022-10-16T12:56:24.000Z</time>
      </trkpt>
      <trkpt lat="45.06442" lon="5.05784">
        <ele>172</ele>
        <time>2022-10-16T12:56:25.000Z</time>
      </trkpt>
      <trkpt lat="45.06446" lon="5.05782">
        <ele>172</ele>
        <time>2022-10-16T12:56:26.000Z</time>
      </trkpt>
      <trkpt lat="45.0645" lon="5.05782">
        <ele>172</ele>
        <time>2022-10-16T12:56:27.000Z</time>
      </trkpt>
      <trkpt lat="45.06453" lon="5.05782">
        <ele>172</ele>
        <time>2022-10-16T12:56:28.000Z</time>
      </trkpt>
      <trkpt lat="45.06457" lon="5.05782">
        <ele>171.9</ele>
        <time>2022-10-16T12:56:29.000Z</time>
      </trkpt>
      <trkpt lat="45.06461" lon="5.05781">
        <ele>171.9</ele>
        <time>2022-10-16T12:56:30.000Z</time>
      </trkpt>
      <trkpt lat="45.06465" lon="5.05781">
        <ele>171.9</ele>
        <time>2022-10-16T12:56:31.000Z</time>
      </trkpt>
      <trkpt lat="45.0647" lon="5.0578">
        <ele>171.9</ele>
        <time>2022-10-16T12:56:32.000Z</time>
      </trkpt>
      <trkpt lat="45.06475" lon="5.05781">
        <ele>171.9</ele>
        <time>2022-10-16T12:56:33.000Z</time>
      </trkpt>
      <trkpt lat="45.06479" lon="5.05781">
        <ele>171.9</ele>
        <time>2022-10-16T12:56:34.000Z</time>
      </trkpt>
      <trkpt lat="45.06483" lon="5.05781">
        <ele>171.9</ele>
        <time>2022-10-16T12:56:35.000Z</time>
      </trkpt>
      <trkpt lat="45.06488" lon="5.05781">
        <ele>171.9</ele>
        <time>2022-10-16T12:56:36.000Z</time>
      </trkpt>
      <trkpt lat="45.06492" lon="5.05782">
        <ele>171.9</ele>
        <time>2022-10-16T12:56:37.000Z</time>
      </trkpt>
      <trkpt lat="45.06496" lon="5.05782">
        <ele>171.8</ele>
        <time>2022-10-16T12:56:38.000Z</time>
      </trkpt>
      <trkpt lat="45.065" lon="5.05782">
        <ele>171.8</ele>
        <time>2022-10-16T12:56:39.000Z</time>
      </trkpt>
      <trkpt lat="45.06504" lon="5.05782">
        <ele>171.8</ele>
        <time>2022-10-16T12:56:40.000Z</time>
      </trkpt>
      <trkpt lat="45.06508" lon="5.05783">
        <ele>171.8</ele>
        <time>2022-10-16T12:56:41.000Z</time>
      </trkpt>
      <trkpt lat="45.06513" lon="5.05784">
        <ele>171.8</ele>
        <time>2022-10-16T12:56:42.000Z</time>
      </trkpt>
      <trkpt lat="45.06517" lon="5.05784">
        <ele>171.8</ele>
        <time>2022-10-16T12:56:43.000Z</time>
      </trkpt>
      <trkpt lat="45.06521" lon="5.05786">
        <ele>171.7</ele>
        <time>2022-10-16T12:56:44.000Z</time>
      </trkpt>
      <trkpt lat="45.06524" lon="5.05786">
        <ele>171.7</ele>
        <time>2022-10-16T12:56:45.000Z</time>
      </trkpt>
      <trkpt lat="45.06528" lon="5.05786">
        <ele>171.7</ele>
        <time>2022-10-16T12:56:46.000Z</time>
      </trkpt>
      <trkpt lat="45.06532" lon="5.05785">
        <ele>171.7</ele>
        <time>2022-10-16T12:56:47.000Z</time>
      </trkpt>
      <trkpt lat="45.06535" lon="5.05784">
        <ele>171.8</ele>
        <time>2022-10-16T12:56:48.000Z</time>
      </trkpt>
      <trkpt lat="45.06538" lon="5.05784">
        <ele>171.8</ele>
        <time>2022-10-16T12:56:49.000Z</time>
      </trkpt>
      <trkpt lat="45.06541" lon="5.05784">
        <ele>171.8</ele>
        <time>2022-10-16T12:56:50.000Z</time>
      </trkpt>
      <trkpt lat="45.06545" lon="5.05784">
        <ele>171.8</ele>
        <time>2022-10-16T12:56:51.000Z</time>
      </trkpt>
      <trkpt lat="45.06549" lon="5.05783">
        <ele>171.8</ele>
        <time>2022-10-16T12:56:52.000Z</time>
      </trkpt>
      <trkpt lat="45.06553" lon="5.05783">
        <ele>171.8</ele>
        <time>2022-10-16T12:56:53.000Z</time>
      </trkpt>
      <trkpt lat="45.06557" lon="5.05783">
        <ele>171.8</ele>
        <time>2022-10-16T12:56:54.000Z</time>
      </trkpt>
      <trkpt lat="45.06561" lon="5.05783">
        <ele>171.7</ele>
        <time>2022-10-16T12:56:55.000Z</time>
      </trkpt>
      <trkpt lat="45.06566" lon="5.05782">
        <ele>171.5</ele>
        <time>2022-10-16T12:56:56.000Z</time>
      </trkpt>
      <trkpt lat="45.0657" lon="5.05782">
        <ele>171.4</ele>
        <time>2022-10-16T12:56:57.000Z</time>
      </trkpt>
      <trkpt lat="45.06575" lon="5.05781">
        <ele>171.3</ele>
        <time>2022-10-16T12:56:58.000Z</time>
      </trkpt>
      <trkpt lat="45.0658" lon="5.05781">
        <ele>171.1</ele>
        <time>2022-10-16T12:56:59.000Z</time>
      </trkpt>
      <trkpt lat="45.06585" lon="5.05781">
        <ele>171</ele>
        <time>2022-10-16T12:57:00.000Z</time>
      </trkpt>
      <trkpt lat="45.06589" lon="5.05781">
        <ele>171.2</ele>
        <time>2022-10-16T12:57:01.000Z</time>
      </trkpt>
      <trkpt lat="45.06594" lon="5.05781">
        <ele>171.3</ele>
        <time>2022-10-16T12:57:02.000Z</time>
      </trkpt>
      <trkpt lat="45.06598" lon="5.0578">
        <ele>171.5</ele>
        <time>2022-10-16T12:57:03.000Z</time>
      </trkpt>
      <trkpt lat="45.06603" lon="5.0578">
        <ele>171.6</ele>
        <time>2022-10-16T12:57:04.000Z</time>
      </trkpt>
      <trkpt lat="45.06607" lon="5.05779">
        <ele>171.8</ele>
        <time>2022-10-16T12:57:05.000Z</time>
      </trkpt>
      <trkpt lat="45.06611" lon="5.05779">
        <ele>172</ele>
        <time>2022-10-16T12:57:06.000Z</time>
      </trkpt>
      <trkpt lat="45.06616" lon="5.05779">
        <ele>172</ele>
        <time>2022-10-16T12:57:07.000Z</time>
      </trkpt>
      <trkpt lat="45.0662" lon="5.05778">
        <ele>172</ele>
        <time>2022-10-16T12:57:08.000Z</time>
      </trkpt>
      <trkpt lat="45.06625" lon="5.05777">
        <ele>172</ele>
        <time>2022-10-16T12:57:09.000Z</time>
      </trkpt>
      <trkpt lat="45.06629" lon="5.05777">
        <ele>172</ele>
        <time>2022-10-16T12:57:10.000Z</time>
      </trkpt>
      <trkpt lat="45.06635" lon="5.05777">
        <ele>172</ele>
        <time>2022-10-16T12:57:11.000Z</time>
      </trkpt>
      <trkpt lat="45.0664" lon="5.05776">
        <ele>172</ele>
        <time>2022-10-16T12:57:12.000Z</time>
      </trkpt>
      <trkpt lat="45.06644" lon="5.05775">
        <ele>172</ele>
        <time>2022-10-16T12:57:13.000Z</time>
      </trkpt>
      <trkpt lat="45.0665" lon="5.05774">
        <ele>172</ele>
        <time>2022-10-16T12:57:14.000Z</time>
      </trkpt>
      <trkpt lat="45.06655" lon="5.05774">
        <ele>172</ele>
        <time>2022-10-16T12:57:15.000Z</time>
      </trkpt>
      <trkpt lat="45.0666" lon="5.05773">
        <ele>172</ele>
        <time>2022-10-16T12:57:16.000Z</time>
      </trkpt>
      <trkpt lat="45.06666" lon="5.05773">
        <ele>172</ele>
        <time>2022-10-16T12:57:17.000Z</time>
      </trkpt>
      <trkpt lat="45.06671" lon="5.05772">
        <ele>172</ele>
        <time>2022-10-16T12:57:18.000Z</time>
      </trkpt>
      <trkpt lat="45.06676" lon="5.05771">
        <ele>172.1</ele>
        <time>2022-10-16T12:57:19.000Z</time>
      </trkpt>
      <trkpt lat="45.06681" lon="5.05771">
        <ele>172.1</ele>
        <time>2022-10-16T12:57:20.000Z</time>
      </trkpt>
      <trkpt lat="45.06686" lon="5.05771">
        <ele>172.2</ele>
        <time>2022-10-16T12:57:21.000Z</time>
      </trkpt>
      <trkpt lat="45.06691" lon="5.05771">
        <ele>172.2</ele>
        <time>2022-10-16T12:57:22.000Z</time>
      </trkpt>
      <trkpt lat="45.06696" lon="5.0577">
        <ele>172.3</ele>
        <time>2022-10-16T12:57:23.000Z</time>
      </trkpt>
      <trkpt lat="45.067" lon="5.05769">
        <ele>172.2</ele>
        <time>2022-10-16T12:57:24.000Z</time>
      </trkpt>
      <trkpt lat="45.06705" lon="5.05769">
        <ele>172.2</ele>
        <time>2022-10-16T12:57:25.000Z</time>
      </trkpt>
      <trkpt lat="45.0671" lon="5.05768">
        <ele>172.2</ele>
        <time>2022-10-16T12:57:26.000Z</time>
      </trkpt>
      <trkpt lat="45.06714" lon="5.05768">
        <ele>172.1</ele>
        <time>2022-10-16T12:57:27.000Z</time>
      </trkpt>
      <trkpt lat="45.06718" lon="5.05768">
        <ele>172.1</ele>
        <time>2022-10-16T12:57:28.000Z</time>
      </trkpt>
      <trkpt lat="45.06722" lon="5.05768">
        <ele>172</ele>
        <time>2022-10-16T12:57:29.000Z</time>
      </trkpt>
      <trkpt lat="45.06727" lon="5.05768">
        <ele>172.1</ele>
        <time>2022-10-16T12:57:30.000Z</time>
      </trkpt>
      <trkpt lat="45.06731" lon="5.05767">
        <ele>172.2</ele>
        <time>2022-10-16T12:57:31.000Z</time>
      </trkpt>
      <trkpt lat="45.06736" lon="5.05767">
        <ele>172.3</ele>
        <time>2022-10-16T12:57:32.000Z</time>
      </trkpt>
      <trkpt lat="45.06741" lon="5.05767">
        <ele>172.4</ele>
        <time>2022-10-16T12:57:33.000Z</time>
      </trkpt>
      <trkpt lat="45.06746" lon="5.05768">
        <ele>172.5</ele>
        <time>2022-10-16T12:57:34.000Z</time>
      </trkpt>
      <trkpt lat="45.0675" lon="5.05768">
        <ele>172.6</ele>
        <time>2022-10-16T12:57:35.000Z</time>
      </trkpt>
      <trkpt lat="45.06754" lon="5.05768">
        <ele>172.6</ele>
        <time>2022-10-16T12:57:36.000Z</time>
      </trkpt>
      <trkpt lat="45.06759" lon="5.05768">
        <ele>172.6</ele>
        <time>2022-10-16T12:57:37.000Z</time>
      </trkpt>
      <trkpt lat="45.06763" lon="5.05768">
        <ele>172.6</ele>
        <time>2022-10-16T12:57:38.000Z</time>
      </trkpt>
      <trkpt lat="45.06767" lon="5.05769">
        <ele>172.7</ele>
        <time>2022-10-16T12:57:39.000Z</time>
      </trkpt>
      <trkpt lat="45.06771" lon="5.0577">
        <ele>172.7</ele>
        <time>2022-10-16T12:57:40.000Z</time>
      </trkpt>
      <trkpt lat="45.06775" lon="5.05772">
        <ele>172.8</ele>
        <time>2022-10-16T12:57:41.000Z</time>
      </trkpt>
      <trkpt lat="45.06778" lon="5.05774">
        <ele>172.9</ele>
        <time>2022-10-16T12:57:42.000Z</time>
      </trkpt>
      <trkpt lat="45.06781" lon="5.05777">
        <ele>173</ele>
        <time>2022-10-16T12:57:43.000Z</time>
      </trkpt>
      <trkpt lat="45.06784" lon="5.05781">
        <ele>172.9</ele>
        <time>2022-10-16T12:57:44.000Z</time>
      </trkpt>
      <trkpt lat="45.06788" lon="5.05785">
        <ele>172.7</ele>
        <time>2022-10-16T12:57:45.000Z</time>
      </trkpt>
      <trkpt lat="45.06792" lon="5.05787">
        <ele>172.7</ele>
        <time>2022-10-16T12:57:46.000Z</time>
      </trkpt>
      <trkpt lat="45.06797" lon="5.05787">
        <ele>172.7</ele>
        <time>2022-10-16T12:57:47.000Z</time>
      </trkpt>
      <trkpt lat="45.06802" lon="5.05785">
        <ele>172.7</ele>
        <time>2022-10-16T12:57:48.000Z</time>
      </trkpt>
      <trkpt lat="45.06807" lon="5.05783">
        <ele>172.8</ele>
        <time>2022-10-16T12:57:49.000Z</time>
      </trkpt>
      <trkpt lat="45.06812" lon="5.05781">
        <ele>172.6</ele>
        <time>2022-10-16T12:57:50.000Z</time>
      </trkpt>
      <trkpt lat="45.06817" lon="5.05779">
        <ele>172.5</ele>
        <time>2022-10-16T12:57:51.000Z</time>
      </trkpt>
      <trkpt lat="45.06823" lon="5.05777">
        <ele>172.4</ele>
        <time>2022-10-16T12:57:52.000Z</time>
      </trkpt>
      <trkpt lat="45.06828" lon="5.05775">
        <ele>172.2</ele>
        <time>2022-10-16T12:57:53.000Z</time>
      </trkpt>
      <trkpt lat="45.06832" lon="5.05772">
        <ele>172</ele>
        <time>2022-10-16T12:57:54.000Z</time>
      </trkpt>
      <trkpt lat="45.06837" lon="5.0577">
        <ele>172</ele>
        <time>2022-10-16T12:57:55.000Z</time>
      </trkpt>
      <trkpt lat="45.06842" lon="5.05768">
        <ele>172</ele>
        <time>2022-10-16T12:57:56.000Z</time>
      </trkpt>
      <trkpt lat="45.06846" lon="5.05767">
        <ele>172</ele>
        <time>2022-10-16T12:57:57.000Z</time>
      </trkpt>
      <trkpt lat="45.0685" lon="5.05764">
        <ele>172</ele>
        <time>2022-10-16T12:57:58.000Z</time>
      </trkpt>
      <trkpt lat="45.06854" lon="5.05761">
        <ele>172</ele>
        <time>2022-10-16T12:57:59.000Z</time>
      </trkpt>
      <trkpt lat="45.06859" lon="5.05758">
        <ele>172</ele>
        <time>2022-10-16T12:58:00.000Z</time>
      </trkpt>
      <trkpt lat="45.06864" lon="5.05756">
        <ele>172</ele>
        <time>2022-10-16T12:58:01.000Z</time>
      </trkpt>
      <trkpt lat="45.06868" lon="5.05752">
        <ele>172</ele>
        <time>2022-10-16T12:58:02.000Z</time>
      </trkpt>
      <trkpt lat="45.06872" lon="5.05749">
        <ele>172</ele>
        <time>2022-10-16T12:58:03.000Z</time>
      </trkpt>
      <trkpt lat="45.06876" lon="5.05745">
        <ele>171.9</ele>
        <time>2022-10-16T12:58:04.000Z</time>
      </trkpt>
      <trkpt lat="45.0688" lon="5.05742">
        <ele>171.9</ele>
        <time>2022-10-16T12:58:05.000Z</time>
      </trkpt>
      <trkpt lat="45.06884" lon="5.05737">
        <ele>171.9</ele>
        <time>2022-10-16T12:58:06.000Z</time>
      </trkpt>
      <trkpt lat="45.06887" lon="5.05733">
        <ele>172</ele>
        <time>2022-10-16T12:58:07.000Z</time>
      </trkpt>
      <trkpt lat="45.06891" lon="5.05729">
        <ele>171.9</ele>
        <time>2022-10-16T12:58:08.000Z</time>
      </trkpt>
      <trkpt lat="45.06895" lon="5.05725">
        <ele>171.8</ele>
        <time>2022-10-16T12:58:09.000Z</time>
      </trkpt>
      <trkpt lat="45.06898" lon="5.05721">
        <ele>171.6</ele>
        <time>2022-10-16T12:58:10.000Z</time>
      </trkpt>
      <trkpt lat="45.06902" lon="5.05716">
        <ele>171.5</ele>
        <time>2022-10-16T12:58:11.000Z</time>
      </trkpt>
      <trkpt lat="45.06906" lon="5.05711">
        <ele>171.5</ele>
        <time>2022-10-16T12:58:12.000Z</time>
      </trkpt>
      <trkpt lat="45.06911" lon="5.05707">
        <ele>171.5</ele>
        <time>2022-10-16T12:58:13.000Z</time>
      </trkpt>
      <trkpt lat="45.06915" lon="5.05702">
        <ele>171.7</ele>
        <time>2022-10-16T12:58:14.000Z</time>
      </trkpt>
      <trkpt lat="45.06918" lon="5.05696">
        <ele>172</ele>
        <time>2022-10-16T12:58:15.000Z</time>
      </trkpt>
      <trkpt lat="45.06921" lon="5.0569">
        <ele>172</ele>
        <time>2022-10-16T12:58:16.000Z</time>
      </trkpt>
      <trkpt lat="45.06924" lon="5.05686">
        <ele>172.1</ele>
        <time>2022-10-16T12:58:17.000Z</time>
      </trkpt>
      <trkpt lat="45.06929" lon="5.05682">
        <ele>172.2</ele>
        <time>2022-10-16T12:58:18.000Z</time>
      </trkpt>
      <trkpt lat="45.06933" lon="5.05678">
        <ele>172.3</ele>
        <time>2022-10-16T12:58:19.000Z</time>
      </trkpt>
      <trkpt lat="45.06937" lon="5.05675">
        <ele>172.5</ele>
        <time>2022-10-16T12:58:20.000Z</time>
      </trkpt>
      <trkpt lat="45.06941" lon="5.05671">
        <ele>172.7</ele>
        <time>2022-10-16T12:58:21.000Z</time>
      </trkpt>
      <trkpt lat="45.06945" lon="5.05668">
        <ele>172.9</ele>
        <time>2022-10-16T12:58:22.000Z</time>
      </trkpt>
      <trkpt lat="45.06949" lon="5.05665">
        <ele>172.7</ele>
        <time>2022-10-16T12:58:23.000Z</time>
      </trkpt>
      <trkpt lat="45.06953" lon="5.05662">
        <ele>172.5</ele>
        <time>2022-10-16T12:58:24.000Z</time>
      </trkpt>
      <trkpt lat="45.06956" lon="5.05659">
        <ele>172.4</ele>
        <time>2022-10-16T12:58:25.000Z</time>
      </trkpt>
      <trkpt lat="45.0696" lon="5.05657">
        <ele>172.3</ele>
        <time>2022-10-16T12:58:26.000Z</time>
      </trkpt>
      <trkpt lat="45.06964" lon="5.05655">
        <ele>172.3</ele>
        <time>2022-10-16T12:58:27.000Z</time>
      </trkpt>
      <trkpt lat="45.06969" lon="5.05652">
        <ele>172.5</ele>
        <time>2022-10-16T12:58:28.000Z</time>
      </trkpt>
      <trkpt lat="45.06972" lon="5.05649">
        <ele>172.6</ele>
        <time>2022-10-16T12:58:29.000Z</time>
      </trkpt>
      <trkpt lat="45.06976" lon="5.05645">
        <ele>172.6</ele>
        <time>2022-10-16T12:58:30.000Z</time>
      </trkpt>
      <trkpt lat="45.0698" lon="5.05642">
        <ele>172.6</ele>
        <time>2022-10-16T12:58:31.000Z</time>
      </trkpt>
      <trkpt lat="45.06983" lon="5.05638">
        <ele>172.6</ele>
        <time>2022-10-16T12:58:32.000Z</time>
      </trkpt>
      <trkpt lat="45.06987" lon="5.05634">
        <ele>172.5</ele>
        <time>2022-10-16T12:58:33.000Z</time>
      </trkpt>
      <trkpt lat="45.0699" lon="5.05629">
        <ele>172.5</ele>
        <time>2022-10-16T12:58:34.000Z</time>
      </trkpt>
      <trkpt lat="45.06993" lon="5.05623">
        <ele>172.5</ele>
        <time>2022-10-16T12:58:35.000Z</time>
      </trkpt>
      <trkpt lat="45.06996" lon="5.05618">
        <ele>172.7</ele>
        <time>2022-10-16T12:58:36.000Z</time>
      </trkpt>
      <trkpt lat="45.06998" lon="5.05613">
        <ele>172.9</ele>
        <time>2022-10-16T12:58:37.000Z</time>
      </trkpt>
      <trkpt lat="45.07001" lon="5.05607">
        <ele>172.8</ele>
        <time>2022-10-16T12:58:38.000Z</time>
      </trkpt>
      <trkpt lat="45.07003" lon="5.05602">
        <ele>172.6</ele>
        <time>2022-10-16T12:58:39.000Z</time>
      </trkpt>
      <trkpt lat="45.07007" lon="5.05597">
        <ele>172.4</ele>
        <time>2022-10-16T12:58:40.000Z</time>
      </trkpt>
      <trkpt lat="45.07009" lon="5.05591">
        <ele>172.2</ele>
        <time>2022-10-16T12:58:41.000Z</time>
      </trkpt>
      <trkpt lat="45.07012" lon="5.05586">
        <ele>172</ele>
        <time>2022-10-16T12:58:42.000Z</time>
      </trkpt>
      <trkpt lat="45.07015" lon="5.05581">
        <ele>172.1</ele>
        <time>2022-10-16T12:58:43.000Z</time>
      </trkpt>
      <trkpt lat="45.07018" lon="5.05575">
        <ele>172.2</ele>
        <time>2022-10-16T12:58:44.000Z</time>
      </trkpt>
      <trkpt lat="45.07021" lon="5.0557">
        <ele>172.4</ele>
        <time>2022-10-16T12:58:45.000Z</time>
      </trkpt>
      <trkpt lat="45.07023" lon="5.05564">
        <ele>172.6</ele>
        <time>2022-10-16T12:58:46.000Z</time>
      </trkpt>
      <trkpt lat="45.07026" lon="5.05559">
        <ele>172.8</ele>
        <time>2022-10-16T12:58:47.000Z</time>
      </trkpt>
      <trkpt lat="45.07028" lon="5.05554">
        <ele>173</ele>
        <time>2022-10-16T12:58:48.000Z</time>
      </trkpt>
      <trkpt lat="45.07031" lon="5.05549">
        <ele>173</ele>
        <time>2022-10-16T12:58:49.000Z</time>
      </trkpt>
      <trkpt lat="45.07033" lon="5.05545">
        <ele>173.1</ele>
        <time>2022-10-16T12:58:50.000Z</time>
      </trkpt>
      <trkpt lat="45.07035" lon="5.0554">
        <ele>173.2</ele>
        <time>2022-10-16T12:58:51.000Z</time>
      </trkpt>
      <trkpt lat="45.07038" lon="5.05535">
        <ele>173.3</ele>
        <time>2022-10-16T12:58:52.000Z</time>
      </trkpt>
      <trkpt lat="45.0704" lon="5.05531">
        <ele>173.4</ele>
        <time>2022-10-16T12:58:53.000Z</time>
      </trkpt>
      <trkpt lat="45.07043" lon="5.05526">
        <ele>173.5</ele>
        <time>2022-10-16T12:58:54.000Z</time>
      </trkpt>
      <trkpt lat="45.07045" lon="5.05521">
        <ele>173.5</ele>
        <time>2022-10-16T12:58:55.000Z</time>
      </trkpt>
      <trkpt lat="45.07048" lon="5.05516">
        <ele>173.6</ele>
        <time>2022-10-16T12:58:56.000Z</time>
      </trkpt>
      <trkpt lat="45.0705" lon="5.05512">
        <ele>173.7</ele>
        <time>2022-10-16T12:58:57.000Z</time>
      </trkpt>
      <trkpt lat="45.07052" lon="5.05508">
        <ele>173.8</ele>
        <time>2022-10-16T12:58:58.000Z</time>
      </trkpt>
      <trkpt lat="45.07054" lon="5.05504">
        <ele>173.9</ele>
        <time>2022-10-16T12:58:59.000Z</time>
      </trkpt>
      <trkpt lat="45.07056" lon="5.055">
        <ele>174</ele>
        <time>2022-10-16T12:59:00.000Z</time>
      </trkpt>
      <trkpt lat="45.07058" lon="5.05496">
        <ele>174.1</ele>
        <time>2022-10-16T12:59:01.000Z</time>
      </trkpt>
      <trkpt lat="45.07061" lon="5.05491">
        <ele>174.2</ele>
        <time>2022-10-16T12:59:02.000Z</time>
      </trkpt>
      <trkpt lat="45.07063" lon="5.05486">
        <ele>174.3</ele>
        <time>2022-10-16T12:59:03.000Z</time>
      </trkpt>
      <trkpt lat="45.07066" lon="5.05481">
        <ele>174.4</ele>
        <time>2022-10-16T12:59:04.000Z</time>
      </trkpt>
      <trkpt lat="45.07068" lon="5.05476">
        <ele>174.4</ele>
        <time>2022-10-16T12:59:05.000Z</time>
      </trkpt>
      <trkpt lat="45.0707" lon="5.05472">
        <ele>174.5</ele>
        <time>2022-10-16T12:59:06.000Z</time>
      </trkpt>
      <trkpt lat="45.07073" lon="5.05467">
        <ele>174.6</ele>
        <time>2022-10-16T12:59:07.000Z</time>
      </trkpt>
      <trkpt lat="45.07075" lon="5.05462">
        <ele>174.7</ele>
        <time>2022-10-16T12:59:08.000Z</time>
      </trkpt>
      <trkpt lat="45.07077" lon="5.05458">
        <ele>174.8</ele>
        <time>2022-10-16T12:59:09.000Z</time>
      </trkpt>
      <trkpt lat="45.07079" lon="5.05455">
        <ele>174.9</ele>
        <time>2022-10-16T12:59:10.000Z</time>
      </trkpt>
      <trkpt lat="45.07081" lon="5.05451">
        <ele>174.9</ele>
        <time>2022-10-16T12:59:11.000Z</time>
      </trkpt>
      <trkpt lat="45.07084" lon="5.05448">
        <ele>175</ele>
        <time>2022-10-16T12:59:12.000Z</time>
      </trkpt>
      <trkpt lat="45.07086" lon="5.05445">
        <ele>175.3</ele>
        <time>2022-10-16T12:59:13.000Z</time>
      </trkpt>
      <trkpt lat="45.07088" lon="5.05441">
        <ele>175.5</ele>
        <time>2022-10-16T12:59:14.000Z</time>
      </trkpt>
      <trkpt lat="45.07089" lon="5.05436">
        <ele>175.6</ele>
        <time>2022-10-16T12:59:15.000Z</time>
      </trkpt>
      <trkpt lat="45.07091" lon="5.05431">
        <ele>175.8</ele>
        <time>2022-10-16T12:59:16.000Z</time>
      </trkpt>
      <trkpt lat="45.07092" lon="5.05426">
        <ele>175.9</ele>
        <time>2022-10-16T12:59:17.000Z</time>
      </trkpt>
      <trkpt lat="45.07093" lon="5.05421">
        <ele>176.1</ele>
        <time>2022-10-16T12:59:18.000Z</time>
      </trkpt>
      <trkpt lat="45.07094" lon="5.05415">
        <ele>176.2</ele>
        <time>2022-10-16T12:59:19.000Z</time>
      </trkpt>
      <trkpt lat="45.07094" lon="5.0541">
        <ele>176.2</ele>
        <time>2022-10-16T12:59:20.000Z</time>
      </trkpt>
      <trkpt lat="45.07094" lon="5.05404">
        <ele>176.3</ele>
        <time>2022-10-16T12:59:21.000Z</time>
      </trkpt>
      <trkpt lat="45.07094" lon="5.05398">
        <ele>176.3</ele>
        <time>2022-10-16T12:59:22.000Z</time>
      </trkpt>
      <trkpt lat="45.07094" lon="5.05392">
        <ele>176.4</ele>
        <time>2022-10-16T12:59:23.000Z</time>
      </trkpt>
      <trkpt lat="45.07095" lon="5.05387">
        <ele>176.4</ele>
        <time>2022-10-16T12:59:24.000Z</time>
      </trkpt>
      <trkpt lat="45.07095" lon="5.0538">
        <ele>176.6</ele>
        <time>2022-10-16T12:59:25.000Z</time>
      </trkpt>
      <trkpt lat="45.07096" lon="5.05374">
        <ele>176.7</ele>
        <time>2022-10-16T12:59:26.000Z</time>
      </trkpt>
      <trkpt lat="45.07097" lon="5.05368">
        <ele>176.8</ele>
        <time>2022-10-16T12:59:27.000Z</time>
      </trkpt>
      <trkpt lat="45.07097" lon="5.05362">
        <ele>177</ele>
        <time>2022-10-16T12:59:28.000Z</time>
      </trkpt>
      <trkpt lat="45.07098" lon="5.05357">
        <ele>177</ele>
        <time>2022-10-16T12:59:29.000Z</time>
      </trkpt>
      <trkpt lat="45.07098" lon="5.05351">
        <ele>177.1</ele>
        <time>2022-10-16T12:59:30.000Z</time>
      </trkpt>
      <trkpt lat="45.07099" lon="5.05346">
        <ele>177.1</ele>
        <time>2022-10-16T12:59:31.000Z</time>
      </trkpt>
      <trkpt lat="45.07099" lon="5.05341">
        <ele>177.1</ele>
        <time>2022-10-16T12:59:32.000Z</time>
      </trkpt>
      <trkpt lat="45.07099" lon="5.05335">
        <ele>177.1</ele>
        <time>2022-10-16T12:59:33.000Z</time>
      </trkpt>
      <trkpt lat="45.071" lon="5.05329">
        <ele>177.4</ele>
        <time>2022-10-16T12:59:34.000Z</time>
      </trkpt>
      <trkpt lat="45.071" lon="5.05324">
        <ele>177.8</ele>
        <time>2022-10-16T12:59:35.000Z</time>
      </trkpt>
      <trkpt lat="45.071" lon="5.05319">
        <ele>178.1</ele>
        <time>2022-10-16T12:59:36.000Z</time>
      </trkpt>
      <trkpt lat="45.071" lon="5.05314">
        <ele>178.4</ele>
        <time>2022-10-16T12:59:37.000Z</time>
      </trkpt>
      <trkpt lat="45.07101" lon="5.05309">
        <ele>178.7</ele>
        <time>2022-10-16T12:59:38.000Z</time>
      </trkpt>
      <trkpt lat="45.07101" lon="5.05303">
        <ele>178.8</ele>
        <time>2022-10-16T12:59:39.000Z</time>
      </trkpt>
      <trkpt lat="45.071" lon="5.05299">
        <ele>178.5</ele>
        <time>2022-10-16T12:59:40.000Z</time>
      </trkpt>
      <trkpt lat="45.07098" lon="5.05295">
        <ele>178.2</ele>
        <time>2022-10-16T12:59:41.000Z</time>
      </trkpt>
      <trkpt lat="45.07097" lon="5.0529">
        <ele>177.9</ele>
        <time>2022-10-16T12:59:42.000Z</time>
      </trkpt>
      <trkpt lat="45.07095" lon="5.05285">
        <ele>177.7</ele>
        <time>2022-10-16T12:59:43.000Z</time>
      </trkpt>
      <trkpt lat="45.07094" lon="5.0528">
        <ele>177.4</ele>
        <time>2022-10-16T12:59:44.000Z</time>
      </trkpt>
      <trkpt lat="45.07092" lon="5.05276">
        <ele>177.3</ele>
        <time>2022-10-16T12:59:45.000Z</time>
      </trkpt>
      <trkpt lat="45.0709" lon="5.05271">
        <ele>177.3</ele>
        <time>2022-10-16T12:59:46.000Z</time>
      </trkpt>
      <trkpt lat="45.07089" lon="5.05267">
        <ele>177.3</ele>
        <time>2022-10-16T12:59:47.000Z</time>
      </trkpt>
      <trkpt lat="45.07088" lon="5.05262">
        <ele>177.2</ele>
        <time>2022-10-16T12:59:48.000Z</time>
      </trkpt>
      <trkpt lat="45.07086" lon="5.05258">
        <ele>177.2</ele>
        <time>2022-10-16T12:59:49.000Z</time>
      </trkpt>
      <trkpt lat="45.07085" lon="5.05253">
        <ele>177.1</ele>
        <time>2022-10-16T12:59:50.000Z</time>
      </trkpt>
      <trkpt lat="45.07083" lon="5.05249">
        <ele>177</ele>
        <time>2022-10-16T12:59:51.000Z</time>
      </trkpt>
      <trkpt lat="45.07081" lon="5.05246">
        <ele>177.1</ele>
        <time>2022-10-16T12:59:52.000Z</time>
      </trkpt>
      <trkpt lat="45.07079" lon="5.05242">
        <ele>177.2</ele>
        <time>2022-10-16T12:59:53.000Z</time>
      </trkpt>
      <trkpt lat="45.07077" lon="5.05239">
        <ele>177.3</ele>
        <time>2022-10-16T12:59:54.000Z</time>
      </trkpt>
      <trkpt lat="45.07075" lon="5.05234">
        <ele>177.4</ele>
        <time>2022-10-16T12:59:55.000Z</time>
      </trkpt>
      <trkpt lat="45.07074" lon="5.0523">
        <ele>177.5</ele>
        <time>2022-10-16T12:59:56.000Z</time>
      </trkpt>
      <trkpt lat="45.07073" lon="5.05225">
        <ele>177.5</ele>
        <time>2022-10-16T12:59:57.000Z</time>
      </trkpt>
      <trkpt lat="45.07071" lon="5.05221">
        <ele>177.6</ele>
        <time>2022-10-16T12:59:58.000Z</time>
      </trkpt>
      <trkpt lat="45.0707" lon="5.05216">
        <ele>177.5</ele>
        <time>2022-10-16T12:59:59.000Z</time>
      </trkpt>
      <trkpt lat="45.07069" lon="5.05211">
        <ele>177.5</ele>
        <time>2022-10-16T13:00:00.000Z</time>
      </trkpt>
      <trkpt lat="45.07067" lon="5.05207">
        <ele>177.4</ele>
        <time>2022-10-16T13:00:01.000Z</time>
      </trkpt>
      <trkpt lat="45.07065" lon="5.05202">
        <ele>177.3</ele>
        <time>2022-10-16T13:00:02.000Z</time>
      </trkpt>
      <trkpt lat="45.07063" lon="5.05198">
        <ele>177.3</ele>
        <time>2022-10-16T13:00:03.000Z</time>
      </trkpt>
      <trkpt lat="45.07061" lon="5.05193">
        <ele>177.2</ele>
        <time>2022-10-16T13:00:04.000Z</time>
      </trkpt>
      <trkpt lat="45.07059" lon="5.05189">
        <ele>177.2</ele>
        <time>2022-10-16T13:00:05.000Z</time>
      </trkpt>
      <trkpt lat="45.07057" lon="5.05184">
        <ele>177.1</ele>
        <time>2022-10-16T13:00:06.000Z</time>
      </trkpt>
      <trkpt lat="45.07054" lon="5.05179">
        <ele>176.9</ele>
        <time>2022-10-16T13:00:07.000Z</time>
      </trkpt>
      <trkpt lat="45.07051" lon="5.05173">
        <ele>176.8</ele>
        <time>2022-10-16T13:00:08.000Z</time>
      </trkpt>
      <trkpt lat="45.07049" lon="5.05168">
        <ele>176.5</ele>
        <time>2022-10-16T13:00:09.000Z</time>
      </trkpt>
      <trkpt lat="45.07046" lon="5.05162">
        <ele>176.3</ele>
        <time>2022-10-16T13:00:10.000Z</time>
      </trkpt>
      <trkpt lat="45.07043" lon="5.05156">
        <ele>176.1</ele>
        <time>2022-10-16T13:00:11.000Z</time>
      </trkpt>
      <trkpt lat="45.07041" lon="5.05151">
        <ele>175.9</ele>
        <time>2022-10-16T13:00:12.000Z</time>
      </trkpt>
      <trkpt lat="45.07039" lon="5.05145">
        <ele>175.8</ele>
        <time>2022-10-16T13:00:13.000Z</time>
      </trkpt>
      <trkpt lat="45.07037" lon="5.0514">
        <ele>175.7</ele>
        <time>2022-10-16T13:00:14.000Z</time>
      </trkpt>
      <trkpt lat="45.07036" lon="5.05135">
        <ele>175.6</ele>
        <time>2022-10-16T13:00:15.000Z</time>
      </trkpt>
      <trkpt lat="45.07035" lon="5.05131">
        <ele>175.5</ele>
        <time>2022-10-16T13:00:16.000Z</time>
      </trkpt>
      <trkpt lat="45.07035" lon="5.05126">
        <ele>175.5</ele>
        <time>2022-10-16T13:00:17.000Z</time>
      </trkpt>
      <trkpt lat="45.07035" lon="5.05121">
        <ele>175.5</ele>
        <time>2022-10-16T13:00:18.000Z</time>
      </trkpt>
      <trkpt lat="45.07035" lon="5.05114">
        <ele>175.5</ele>
        <time>2022-10-16T13:00:19.000Z</time>
      </trkpt>
      <trkpt lat="45.07035" lon="5.05107">
        <ele>175.5</ele>
        <time>2022-10-16T13:00:20.000Z</time>
      </trkpt>
      <trkpt lat="45.07034" lon="5.05101">
        <ele>175.4</ele>
        <time>2022-10-16T13:00:21.000Z</time>
      </trkpt>
      <trkpt lat="45.07032" lon="5.05095">
        <ele>175.2</ele>
        <time>2022-10-16T13:00:22.000Z</time>
      </trkpt>
      <trkpt lat="45.07029" lon="5.05089">
        <ele>175.1</ele>
        <time>2022-10-16T13:00:23.000Z</time>
      </trkpt>
      <trkpt lat="45.07027" lon="5.05083">
        <ele>175</ele>
        <time>2022-10-16T13:00:24.000Z</time>
      </trkpt>
      <trkpt lat="45.07025" lon="5.05076">
        <ele>174.9</ele>
        <time>2022-10-16T13:00:25.000Z</time>
      </trkpt>
      <trkpt lat="45.07024" lon="5.05069">
        <ele>174.9</ele>
        <time>2022-10-16T13:00:26.000Z</time>
      </trkpt>
      <trkpt lat="45.07023" lon="5.05062">
        <ele>174.8</ele>
        <time>2022-10-16T13:00:27.000Z</time>
      </trkpt>
      <trkpt lat="45.07021" lon="5.05055">
        <ele>174.8</ele>
        <time>2022-10-16T13:00:28.000Z</time>
      </trkpt>
      <trkpt lat="45.0702" lon="5.05048">
        <ele>174.7</ele>
        <time>2022-10-16T13:00:29.000Z</time>
      </trkpt>
      <trkpt lat="45.07018" lon="5.05041">
        <ele>174.7</ele>
        <time>2022-10-16T13:00:30.000Z</time>
      </trkpt>
      <trkpt lat="45.07016" lon="5.05034">
        <ele>174.6</ele>
        <time>2022-10-16T13:00:31.000Z</time>
      </trkpt>
      <trkpt lat="45.07015" lon="5.05027">
        <ele>174.5</ele>
        <time>2022-10-16T13:00:32.000Z</time>
      </trkpt>
      <trkpt lat="45.07013" lon="5.0502">
        <ele>174.3</ele>
        <time>2022-10-16T13:00:33.000Z</time>
      </trkpt>
      <trkpt lat="45.07011" lon="5.05013">
        <ele>174.1</ele>
        <time>2022-10-16T13:00:34.000Z</time>
      </trkpt>
      <trkpt lat="45.07009" lon="5.05006">
        <ele>173.8</ele>
        <time>2022-10-16T13:00:35.000Z</time>
      </trkpt>
      <trkpt lat="45.07008" lon="5.04999">
        <ele>173.5</ele>
        <time>2022-10-16T13:00:36.000Z</time>
      </trkpt>
      <trkpt lat="45.07006" lon="5.04992">
        <ele>173.4</ele>
        <time>2022-10-16T13:00:37.000Z</time>
      </trkpt>
      <trkpt lat="45.07004" lon="5.04986">
        <ele>173.2</ele>
        <time>2022-10-16T13:00:38.000Z</time>
      </trkpt>
      <trkpt lat="45.07002" lon="5.04979">
        <ele>173.1</ele>
        <time>2022-10-16T13:00:39.000Z</time>
      </trkpt>
      <trkpt lat="45.07001" lon="5.04973">
        <ele>173</ele>
        <time>2022-10-16T13:00:40.000Z</time>
      </trkpt>
      <trkpt lat="45.06999" lon="5.04967">
        <ele>173</ele>
        <time>2022-10-16T13:00:41.000Z</time>
      </trkpt>
      <trkpt lat="45.06998" lon="5.04961">
        <ele>172.9</ele>
        <time>2022-10-16T13:00:42.000Z</time>
      </trkpt>
      <trkpt lat="45.06996" lon="5.04954">
        <ele>172.9</ele>
        <time>2022-10-16T13:00:43.000Z</time>
      </trkpt>
      <trkpt lat="45.06994" lon="5.04948">
        <ele>172.8</ele>
        <time>2022-10-16T13:00:44.000Z</time>
      </trkpt>
      <trkpt lat="45.06993" lon="5.04942">
        <ele>172.8</ele>
        <time>2022-10-16T13:00:45.000Z</time>
      </trkpt>
      <trkpt lat="45.06992" lon="5.04936">
        <ele>172.8</ele>
        <time>2022-10-16T13:00:46.000Z</time>
      </trkpt>
      <trkpt lat="45.06991" lon="5.0493">
        <ele>172.8</ele>
        <time>2022-10-16T13:00:47.000Z</time>
      </trkpt>
      <trkpt lat="45.06989" lon="5.04924">
        <ele>172.9</ele>
        <time>2022-10-16T13:00:48.000Z</time>
      </trkpt>
      <trkpt lat="45.06988" lon="5.04918">
        <ele>173</ele>
        <time>2022-10-16T13:00:49.000Z</time>
      </trkpt>
      <trkpt lat="45.06987" lon="5.04912">
        <ele>172.9</ele>
        <time>2022-10-16T13:00:50.000Z</time>
      </trkpt>
      <trkpt lat="45.06986" lon="5.04906">
        <ele>172.8</ele>
        <time>2022-10-16T13:00:51.000Z</time>
      </trkpt>
      <trkpt lat="45.06985" lon="5.04901">
        <ele>172.7</ele>
        <time>2022-10-16T13:00:52.000Z</time>
      </trkpt>
      <trkpt lat="45.06983" lon="5.04895">
        <ele>172.5</ele>
        <time>2022-10-16T13:00:53.000Z</time>
      </trkpt>
      <trkpt lat="45.06983" lon="5.04889">
        <ele>172.4</ele>
        <time>2022-10-16T13:00:54.000Z</time>
      </trkpt>
      <trkpt lat="45.06982" lon="5.04883">
        <ele>172.3</ele>
        <time>2022-10-16T13:00:55.000Z</time>
      </trkpt>
      <trkpt lat="45.06981" lon="5.04877">
        <ele>172.3</ele>
        <time>2022-10-16T13:00:56.000Z</time>
      </trkpt>
      <trkpt lat="45.0698" lon="5.04871">
        <ele>172.3</ele>
        <time>2022-10-16T13:00:57.000Z</time>
      </trkpt>
      <trkpt lat="45.06979" lon="5.04865">
        <ele>172.2</ele>
        <time>2022-10-16T13:00:58.000Z</time>
      </trkpt>
      <trkpt lat="45.06978" lon="5.04859">
        <ele>172.2</ele>
        <time>2022-10-16T13:00:59.000Z</time>
      </trkpt>
      <trkpt lat="45.06976" lon="5.04854">
        <ele>172.1</ele>
        <time>2022-10-16T13:01:00.000Z</time>
      </trkpt>
      <trkpt lat="45.06976" lon="5.04848">
        <ele>172.1</ele>
        <time>2022-10-16T13:01:01.000Z</time>
      </trkpt>
      <trkpt lat="45.06975" lon="5.04843">
        <ele>172.1</ele>
        <time>2022-10-16T13:01:02.000Z</time>
      </trkpt>
      <trkpt lat="45.06975" lon="5.04838">
        <ele>172.1</ele>
        <time>2022-10-16T13:01:03.000Z</time>
      </trkpt>
      <trkpt lat="45.06974" lon="5.04833">
        <ele>172.1</ele>
        <time>2022-10-16T13:01:04.000Z</time>
      </trkpt>
      <trkpt lat="45.06973" lon="5.04828">
        <ele>172.2</ele>
        <time>2022-10-16T13:01:05.000Z</time>
      </trkpt>
      <trkpt lat="45.06972" lon="5.04823">
        <ele>172.3</ele>
        <time>2022-10-16T13:01:06.000Z</time>
      </trkpt>
      <trkpt lat="45.06971" lon="5.04818">
        <ele>172.5</ele>
        <time>2022-10-16T13:01:07.000Z</time>
      </trkpt>
      <trkpt lat="45.0697" lon="5.04812">
        <ele>172.7</ele>
        <time>2022-10-16T13:01:08.000Z</time>
      </trkpt>
      <trkpt lat="45.06969" lon="5.04806">
        <ele>172.9</ele>
        <time>2022-10-16T13:01:09.000Z</time>
      </trkpt>
      <trkpt lat="45.06969" lon="5.048">
        <ele>172.8</ele>
        <time>2022-10-16T13:01:10.000Z</time>
      </trkpt>
      <trkpt lat="45.06968" lon="5.04794">
        <ele>172.8</ele>
        <time>2022-10-16T13:01:11.000Z</time>
      </trkpt>
      <trkpt lat="45.06967" lon="5.04788">
        <ele>172.7</ele>
        <time>2022-10-16T13:01:12.000Z</time>
      </trkpt>
      <trkpt lat="45.06965" lon="5.04783">
        <ele>172.5</ele>
        <time>2022-10-16T13:01:13.000Z</time>
      </trkpt>
      <trkpt lat="45.06964" lon="5.04777">
        <ele>172.4</ele>
        <time>2022-10-16T13:01:14.000Z</time>
      </trkpt>
      <trkpt lat="45.06963" lon="5.04771">
        <ele>172.4</ele>
        <time>2022-10-16T13:01:15.000Z</time>
      </trkpt>
      <trkpt lat="45.06963" lon="5.04765">
        <ele>172.3</ele>
        <time>2022-10-16T13:01:16.000Z</time>
      </trkpt>
      <trkpt lat="45.06962" lon="5.04759">
        <ele>172.3</ele>
        <time>2022-10-16T13:01:17.000Z</time>
      </trkpt>
      <trkpt lat="45.06961" lon="5.04752">
        <ele>172.2</ele>
        <time>2022-10-16T13:01:18.000Z</time>
      </trkpt>
      <trkpt lat="45.0696" lon="5.04746">
        <ele>172.2</ele>
        <time>2022-10-16T13:01:19.000Z</time>
      </trkpt>
      <trkpt lat="45.06959" lon="5.04741">
        <ele>172.3</ele>
        <time>2022-10-16T13:01:20.000Z</time>
      </trkpt>
      <trkpt lat="45.06959" lon="5.04735">
        <ele>172.3</ele>
        <time>2022-10-16T13:01:21.000Z</time>
      </trkpt>
      <trkpt lat="45.06958" lon="5.0473">
        <ele>172.3</ele>
        <time>2022-10-16T13:01:22.000Z</time>
      </trkpt>
      <trkpt lat="45.06958" lon="5.04725">
        <ele>172.4</ele>
        <time>2022-10-16T13:01:23.000Z</time>
      </trkpt>
      <trkpt lat="45.06958" lon="5.0472">
        <ele>172.4</ele>
        <time>2022-10-16T13:01:24.000Z</time>
      </trkpt>
      <trkpt lat="45.06957" lon="5.04715">
        <ele>172.4</ele>
        <time>2022-10-16T13:01:25.000Z</time>
      </trkpt>
      <trkpt lat="45.06956" lon="5.04711">
        <ele>172.3</ele>
        <time>2022-10-16T13:01:26.000Z</time>
      </trkpt>
      <trkpt lat="45.06955" lon="5.04706">
        <ele>172.2</ele>
        <time>2022-10-16T13:01:27.000Z</time>
      </trkpt>
      <trkpt lat="45.06955" lon="5.047">
        <ele>172.1</ele>
        <time>2022-10-16T13:01:28.000Z</time>
      </trkpt>
      <trkpt lat="45.06954" lon="5.04695">
        <ele>172.1</ele>
        <time>2022-10-16T13:01:29.000Z</time>
      </trkpt>
      <trkpt lat="45.06954" lon="5.04689">
        <ele>172.3</ele>
        <time>2022-10-16T13:01:30.000Z</time>
      </trkpt>
      <trkpt lat="45.06953" lon="5.04683">
        <ele>172.5</ele>
        <time>2022-10-16T13:01:31.000Z</time>
      </trkpt>
      <trkpt lat="45.06953" lon="5.04678">
        <ele>172.7</ele>
        <time>2022-10-16T13:01:32.000Z</time>
      </trkpt>
      <trkpt lat="45.06952" lon="5.04672">
        <ele>173</ele>
        <time>2022-10-16T13:01:33.000Z</time>
      </trkpt>
      <trkpt lat="45.06952" lon="5.04666">
        <ele>173.3</ele>
        <time>2022-10-16T13:01:34.000Z</time>
      </trkpt>
      <trkpt lat="45.06951" lon="5.04661">
        <ele>173.3</ele>
        <time>2022-10-16T13:01:35.000Z</time>
      </trkpt>
      <trkpt lat="45.0695" lon="5.04655">
        <ele>173.3</ele>
        <time>2022-10-16T13:01:36.000Z</time>
      </trkpt>
      <trkpt lat="45.06949" lon="5.0465">
        <ele>173.3</ele>
        <time>2022-10-16T13:01:37.000Z</time>
      </trkpt>
      <trkpt lat="45.06949" lon="5.04644">
        <ele>173.3</ele>
        <time>2022-10-16T13:01:38.000Z</time>
      </trkpt>
      <trkpt lat="45.06948" lon="5.04639">
        <ele>173.3</ele>
        <time>2022-10-16T13:01:39.000Z</time>
      </trkpt>
      <trkpt lat="45.06948" lon="5.04633">
        <ele>173.4</ele>
        <time>2022-10-16T13:01:40.000Z</time>
      </trkpt>
      <trkpt lat="45.06947" lon="5.04628">
        <ele>173.6</ele>
        <time>2022-10-16T13:01:41.000Z</time>
      </trkpt>
      <trkpt lat="45.06946" lon="5.04623">
        <ele>173.7</ele>
        <time>2022-10-16T13:01:42.000Z</time>
      </trkpt>
      <trkpt lat="45.06945" lon="5.04618">
        <ele>173.8</ele>
        <time>2022-10-16T13:01:43.000Z</time>
      </trkpt>
      <trkpt lat="45.06943" lon="5.04613">
        <ele>173.8</ele>
        <time>2022-10-16T13:01:44.000Z</time>
      </trkpt>
      <trkpt lat="45.06942" lon="5.04608">
        <ele>174.1</ele>
        <time>2022-10-16T13:01:45.000Z</time>
      </trkpt>
      <trkpt lat="45.0694" lon="5.04603">
        <ele>174.6</ele>
        <time>2022-10-16T13:01:46.000Z</time>
      </trkpt>
      <trkpt lat="45.06939" lon="5.04599">
        <ele>174.9</ele>
        <time>2022-10-16T13:01:47.000Z</time>
      </trkpt>
      <trkpt lat="45.06937" lon="5.04594">
        <ele>175.2</ele>
        <time>2022-10-16T13:01:48.000Z</time>
      </trkpt>
      <trkpt lat="45.06936" lon="5.04589">
        <ele>175.5</ele>
        <time>2022-10-16T13:01:49.000Z</time>
      </trkpt>
      <trkpt lat="45.06934" lon="5.04585">
        <ele>175.6</ele>
        <time>2022-10-16T13:01:50.000Z</time>
      </trkpt>
      <trkpt lat="45.06933" lon="5.0458">
        <ele>175.6</ele>
        <time>2022-10-16T13:01:51.000Z</time>
      </trkpt>
      <trkpt lat="45.06931" lon="5.04576">
        <ele>175.4</ele>
        <time>2022-10-16T13:01:52.000Z</time>
      </trkpt>
      <trkpt lat="45.0693" lon="5.04571">
        <ele>175.2</ele>
        <time>2022-10-16T13:01:53.000Z</time>
      </trkpt>
      <trkpt lat="45.06928" lon="5.04567">
        <ele>175</ele>
        <time>2022-10-16T13:01:54.000Z</time>
      </trkpt>
      <trkpt lat="45.06926" lon="5.04562">
        <ele>174.8</ele>
        <time>2022-10-16T13:01:55.000Z</time>
      </trkpt>
      <trkpt lat="45.06924" lon="5.04558">
        <ele>174.6</ele>
        <time>2022-10-16T13:01:56.000Z</time>
      </trkpt>
      <trkpt lat="45.06923" lon="5.04553">
        <ele>174.6</ele>
        <time>2022-10-16T13:01:57.000Z</time>
      </trkpt>
      <trkpt lat="45.06921" lon="5.04548">
        <ele>174.8</ele>
        <time>2022-10-16T13:01:58.000Z</time>
      </trkpt>
      <trkpt lat="45.0692" lon="5.04543">
        <ele>175</ele>
        <time>2022-10-16T13:01:59.000Z</time>
      </trkpt>
      <trkpt lat="45.06918" lon="5.04538">
        <ele>175.2</ele>
        <time>2022-10-16T13:02:00.000Z</time>
      </trkpt>
      <trkpt lat="45.06917" lon="5.04533">
        <ele>175.4</ele>
        <time>2022-10-16T13:02:01.000Z</time>
      </trkpt>
      <trkpt lat="45.06915" lon="5.04528">
        <ele>175.7</ele>
        <time>2022-10-16T13:02:02.000Z</time>
      </trkpt>
      <trkpt lat="45.06913" lon="5.04524">
        <ele>175.8</ele>
        <time>2022-10-16T13:02:03.000Z</time>
      </trkpt>
      <trkpt lat="45.06912" lon="5.04519">
        <ele>176</ele>
        <time>2022-10-16T13:02:04.000Z</time>
      </trkpt>
      <trkpt lat="45.06911" lon="5.04515">
        <ele>176.1</ele>
        <time>2022-10-16T13:02:05.000Z</time>
      </trkpt>
      <trkpt lat="45.06909" lon="5.04511">
        <ele>176.1</ele>
        <time>2022-10-16T13:02:06.000Z</time>
      </trkpt>
      <trkpt lat="45.06908" lon="5.04506">
        <ele>176.2</ele>
        <time>2022-10-16T13:02:07.000Z</time>
      </trkpt>
      <trkpt lat="45.06907" lon="5.04501">
        <ele>176.4</ele>
        <time>2022-10-16T13:02:08.000Z</time>
      </trkpt>
      <trkpt lat="45.06906" lon="5.04496">
        <ele>176.5</ele>
        <time>2022-10-16T13:02:09.000Z</time>
      </trkpt>
      <trkpt lat="45.06905" lon="5.04492">
        <ele>176.5</ele>
        <time>2022-10-16T13:02:10.000Z</time>
      </trkpt>
      <trkpt lat="45.06905" lon="5.04487">
        <ele>176.7</ele>
        <time>2022-10-16T13:02:11.000Z</time>
      </trkpt>
      <trkpt lat="45.06904" lon="5.04482">
        <ele>176.8</ele>
        <time>2022-10-16T13:02:12.000Z</time>
      </trkpt>
      <trkpt lat="45.06903" lon="5.04476">
        <ele>176.9</ele>
        <time>2022-10-16T13:02:13.000Z</time>
      </trkpt>
      <trkpt lat="45.06902" lon="5.04471">
        <ele>176.9</ele>
        <time>2022-10-16T13:02:14.000Z</time>
      </trkpt>
      <trkpt lat="45.06902" lon="5.04466">
        <ele>176.7</ele>
        <time>2022-10-16T13:02:15.000Z</time>
      </trkpt>
      <trkpt lat="45.06901" lon="5.04462">
        <ele>176.7</ele>
        <time>2022-10-16T13:02:16.000Z</time>
      </trkpt>
      <trkpt lat="45.06901" lon="5.04458">
        <ele>176.6</ele>
        <time>2022-10-16T13:02:17.000Z</time>
      </trkpt>
      <trkpt lat="45.069" lon="5.04454">
        <ele>176.5</ele>
        <time>2022-10-16T13:02:18.000Z</time>
      </trkpt>
      <trkpt lat="45.06899" lon="5.04451">
        <ele>176.4</ele>
        <time>2022-10-16T13:02:19.000Z</time>
      </trkpt>
      <trkpt lat="45.06899" lon="5.04447">
        <ele>176.4</ele>
        <time>2022-10-16T13:02:20.000Z</time>
      </trkpt>
      <trkpt lat="45.06899" lon="5.04444">
        <ele>176.5</ele>
        <time>2022-10-16T13:02:21.000Z</time>
      </trkpt>
      <trkpt lat="45.06898" lon="5.0444">
        <ele>176.5</ele>
        <time>2022-10-16T13:02:22.000Z</time>
      </trkpt>
      <trkpt lat="45.06898" lon="5.04437">
        <ele>176.7</ele>
        <time>2022-10-16T13:02:23.000Z</time>
      </trkpt>
      <trkpt lat="45.06897" lon="5.04432">
        <ele>176.6</ele>
        <time>2022-10-16T13:02:24.000Z</time>
      </trkpt>
      <trkpt lat="45.06897" lon="5.04427">
        <ele>176.7</ele>
        <time>2022-10-16T13:02:25.000Z</time>
      </trkpt>
      <trkpt lat="45.06896" lon="5.04422">
        <ele>176.7</ele>
        <time>2022-10-16T13:02:26.000Z</time>
      </trkpt>
      <trkpt lat="45.06895" lon="5.04417">
        <ele>176.7</ele>
        <time>2022-10-16T13:02:27.000Z</time>
      </trkpt>
      <trkpt lat="45.06894" lon="5.04412">
        <ele>176.4</ele>
        <time>2022-10-16T13:02:28.000Z</time>
      </trkpt>
      <trkpt lat="45.06893" lon="5.04407">
        <ele>176</ele>
        <time>2022-10-16T13:02:29.000Z</time>
      </trkpt>
      <trkpt lat="45.06893" lon="5.04402">
        <ele>176</ele>
        <time>2022-10-16T13:02:30.000Z</time>
      </trkpt>
      <trkpt lat="45.06892" lon="5.04397">
        <ele>175.8</ele>
        <time>2022-10-16T13:02:31.000Z</time>
      </trkpt>
      <trkpt lat="45.06892" lon="5.04393">
        <ele>175.7</ele>
        <time>2022-10-16T13:02:32.000Z</time>
      </trkpt>
      <trkpt lat="45.06892" lon="5.04388">
        <ele>175.6</ele>
        <time>2022-10-16T13:02:33.000Z</time>
      </trkpt>
      <trkpt lat="45.06892" lon="5.04383">
        <ele>175.4</ele>
        <time>2022-10-16T13:02:34.000Z</time>
      </trkpt>
      <trkpt lat="45.06893" lon="5.04378">
        <ele>175.3</ele>
        <time>2022-10-16T13:02:35.000Z</time>
      </trkpt>
      <trkpt lat="45.06893" lon="5.04373">
        <ele>175.2</ele>
        <time>2022-10-16T13:02:36.000Z</time>
      </trkpt>
      <trkpt lat="45.06893" lon="5.04367">
        <ele>174.9</ele>
        <time>2022-10-16T13:02:37.000Z</time>
      </trkpt>
      <trkpt lat="45.06893" lon="5.04361">
        <ele>174.7</ele>
        <time>2022-10-16T13:02:38.000Z</time>
      </trkpt>
      <trkpt lat="45.06893" lon="5.04356">
        <ele>174.7</ele>
        <time>2022-10-16T13:02:39.000Z</time>
      </trkpt>
      <trkpt lat="45.06893" lon="5.0435">
        <ele>174.7</ele>
        <time>2022-10-16T13:02:40.000Z</time>
      </trkpt>
      <trkpt lat="45.06894" lon="5.04345">
        <ele>174.7</ele>
        <time>2022-10-16T13:02:41.000Z</time>
      </trkpt>
      <trkpt lat="45.06894" lon="5.04339">
        <ele>174.7</ele>
        <time>2022-10-16T13:02:42.000Z</time>
      </trkpt>
      <trkpt lat="45.06894" lon="5.04334">
        <ele>174.8</ele>
        <time>2022-10-16T13:02:43.000Z</time>
      </trkpt>
      <trkpt lat="45.06894" lon="5.04328">
        <ele>174.5</ele>
        <time>2022-10-16T13:02:44.000Z</time>
      </trkpt>
      <trkpt lat="45.06894" lon="5.04323">
        <ele>174.3</ele>
        <time>2022-10-16T13:02:45.000Z</time>
      </trkpt>
      <trkpt lat="45.06894" lon="5.04317">
        <ele>174</ele>
        <time>2022-10-16T13:02:46.000Z</time>
      </trkpt>
      <trkpt lat="45.06894" lon="5.04311">
        <ele>173.7</ele>
        <time>2022-10-16T13:02:47.000Z</time>
      </trkpt>
      <trkpt lat="45.06894" lon="5.04304">
        <ele>173.6</ele>
        <time>2022-10-16T13:02:48.000Z</time>
      </trkpt>
      <trkpt lat="45.06895" lon="5.04298">
        <ele>173.6</ele>
        <time>2022-10-16T13:02:49.000Z</time>
      </trkpt>
      <trkpt lat="45.06895" lon="5.04293">
        <ele>173.6</ele>
        <time>2022-10-16T13:02:50.000Z</time>
      </trkpt>
      <trkpt lat="45.06895" lon="5.04287">
        <ele>173.5</ele>
        <time>2022-10-16T13:02:51.000Z</time>
      </trkpt>
      <trkpt lat="45.06896" lon="5.04281">
        <ele>173.5</ele>
        <time>2022-10-16T13:02:52.000Z</time>
      </trkpt>
      <trkpt lat="45.06895" lon="5.04275">
        <ele>173.4</ele>
        <time>2022-10-16T13:02:53.000Z</time>
      </trkpt>
      <trkpt lat="45.06895" lon="5.04269">
        <ele>173.4</ele>
        <time>2022-10-16T13:02:54.000Z</time>
      </trkpt>
      <trkpt lat="45.06895" lon="5.04263">
        <ele>173.3</ele>
        <time>2022-10-16T13:02:55.000Z</time>
      </trkpt>
      <trkpt lat="45.06895" lon="5.04256">
        <ele>173.3</ele>
        <time>2022-10-16T13:02:56.000Z</time>
      </trkpt>
      <trkpt lat="45.06895" lon="5.0425">
        <ele>173.2</ele>
        <time>2022-10-16T13:02:57.000Z</time>
      </trkpt>
      <trkpt lat="45.06894" lon="5.04243">
        <ele>173.2</ele>
        <time>2022-10-16T13:02:58.000Z</time>
      </trkpt>
      <trkpt lat="45.06894" lon="5.04237">
        <ele>173.3</ele>
        <time>2022-10-16T13:02:59.000Z</time>
      </trkpt>
      <trkpt lat="45.06893" lon="5.0423">
        <ele>173.3</ele>
        <time>2022-10-16T13:03:00.000Z</time>
      </trkpt>
      <trkpt lat="45.06892" lon="5.04224">
        <ele>173.2</ele>
        <time>2022-10-16T13:03:01.000Z</time>
      </trkpt>
      <trkpt lat="45.06892" lon="5.04217">
        <ele>173.4</ele>
        <time>2022-10-16T13:03:02.000Z</time>
      </trkpt>
      <trkpt lat="45.06891" lon="5.04211">
        <ele>173.5</ele>
        <time>2022-10-16T13:03:03.000Z</time>
      </trkpt>
      <trkpt lat="45.0689" lon="5.04204">
        <ele>173.7</ele>
        <time>2022-10-16T13:03:04.000Z</time>
      </trkpt>
      <trkpt lat="45.06889" lon="5.04198">
        <ele>173.9</ele>
        <time>2022-10-16T13:03:05.000Z</time>
      </trkpt>
      <trkpt lat="45.06888" lon="5.04192">
        <ele>174.1</ele>
        <time>2022-10-16T13:03:06.000Z</time>
      </trkpt>
      <trkpt lat="45.06888" lon="5.04186">
        <ele>174.2</ele>
        <time>2022-10-16T13:03:07.000Z</time>
      </trkpt>
      <trkpt lat="45.06887" lon="5.0418">
        <ele>174.3</ele>
        <time>2022-10-16T13:03:08.000Z</time>
      </trkpt>
      <trkpt lat="45.06886" lon="5.04174">
        <ele>174.5</ele>
        <time>2022-10-16T13:03:09.000Z</time>
      </trkpt>
      <trkpt lat="45.06886" lon="5.04168">
        <ele>174.6</ele>
        <time>2022-10-16T13:03:10.000Z</time>
      </trkpt>
      <trkpt lat="45.06885" lon="5.04162">
        <ele>174.9</ele>
        <time>2022-10-16T13:03:11.000Z</time>
      </trkpt>
      <trkpt lat="45.06885" lon="5.04156">
        <ele>175.3</ele>
        <time>2022-10-16T13:03:12.000Z</time>
      </trkpt>
      <trkpt lat="45.06884" lon="5.0415">
        <ele>175.6</ele>
        <time>2022-10-16T13:03:13.000Z</time>
      </trkpt>
      <trkpt lat="45.06884" lon="5.04144">
        <ele>175.9</ele>
        <time>2022-10-16T13:03:14.000Z</time>
      </trkpt>
      <trkpt lat="45.06883" lon="5.04138">
        <ele>176.2</ele>
        <time>2022-10-16T13:03:15.000Z</time>
      </trkpt>
      <trkpt lat="45.06883" lon="5.04133">
        <ele>176.1</ele>
        <time>2022-10-16T13:03:16.000Z</time>
      </trkpt>
      <trkpt lat="45.06882" lon="5.04128">
        <ele>176.1</ele>
        <time>2022-10-16T13:03:17.000Z</time>
      </trkpt>
      <trkpt lat="45.06882" lon="5.04122">
        <ele>176.1</ele>
        <time>2022-10-16T13:03:18.000Z</time>
      </trkpt>
      <trkpt lat="45.06881" lon="5.04117">
        <ele>176.1</ele>
        <time>2022-10-16T13:03:19.000Z</time>
      </trkpt>
      <trkpt lat="45.06881" lon="5.04111">
        <ele>176.1</ele>
        <time>2022-10-16T13:03:20.000Z</time>
      </trkpt>
      <trkpt lat="45.0688" lon="5.04107">
        <ele>176</ele>
        <time>2022-10-16T13:03:21.000Z</time>
      </trkpt>
      <trkpt lat="45.06879" lon="5.04101">
        <ele>175.9</ele>
        <time>2022-10-16T13:03:22.000Z</time>
      </trkpt>
      <trkpt lat="45.06879" lon="5.04096">
        <ele>175.9</ele>
        <time>2022-10-16T13:03:23.000Z</time>
      </trkpt>
      <trkpt lat="45.06878" lon="5.04091">
        <ele>175.9</ele>
        <time>2022-10-16T13:03:24.000Z</time>
      </trkpt>
      <trkpt lat="45.06878" lon="5.04086">
        <ele>175.8</ele>
        <time>2022-10-16T13:03:25.000Z</time>
      </trkpt>
      <trkpt lat="45.06877" lon="5.0408">
        <ele>175.7</ele>
        <time>2022-10-16T13:03:26.000Z</time>
      </trkpt>
      <trkpt lat="45.06876" lon="5.04075">
        <ele>175.5</ele>
        <time>2022-10-16T13:03:27.000Z</time>
      </trkpt>
      <trkpt lat="45.06876" lon="5.04069">
        <ele>175.3</ele>
        <time>2022-10-16T13:03:28.000Z</time>
      </trkpt>
      <trkpt lat="45.06876" lon="5.04064">
        <ele>175.2</ele>
        <time>2022-10-16T13:03:29.000Z</time>
      </trkpt>
      <trkpt lat="45.06875" lon="5.04058">
        <ele>175.1</ele>
        <time>2022-10-16T13:03:30.000Z</time>
      </trkpt>
      <trkpt lat="45.06875" lon="5.04052">
        <ele>175</ele>
        <time>2022-10-16T13:03:31.000Z</time>
      </trkpt>
      <trkpt lat="45.06875" lon="5.04047">
        <ele>175</ele>
        <time>2022-10-16T13:03:32.000Z</time>
      </trkpt>
      <trkpt lat="45.06874" lon="5.04042">
        <ele>174.9</ele>
        <time>2022-10-16T13:03:33.000Z</time>
      </trkpt>
      <trkpt lat="45.06874" lon="5.04037">
        <ele>174.9</ele>
        <time>2022-10-16T13:03:34.000Z</time>
      </trkpt>
      <trkpt lat="45.06872" lon="5.04032">
        <ele>174.8</ele>
        <time>2022-10-16T13:03:35.000Z</time>
      </trkpt>
      <trkpt lat="45.06871" lon="5.04027">
        <ele>174.7</ele>
        <time>2022-10-16T13:03:36.000Z</time>
      </trkpt>
      <trkpt lat="45.0687" lon="5.04023">
        <ele>174.8</ele>
        <time>2022-10-16T13:03:37.000Z</time>
      </trkpt>
      <trkpt lat="45.06869" lon="5.04017">
        <ele>175</ele>
        <time>2022-10-16T13:03:38.000Z</time>
      </trkpt>
      <trkpt lat="45.06867" lon="5.04013">
        <ele>175.2</ele>
        <time>2022-10-16T13:03:39.000Z</time>
      </trkpt>
      <trkpt lat="45.06866" lon="5.04008">
        <ele>175.4</ele>
        <time>2022-10-16T13:03:40.000Z</time>
      </trkpt>
      <trkpt lat="45.06864" lon="5.04003">
        <ele>175.7</ele>
        <time>2022-10-16T13:03:41.000Z</time>
      </trkpt>
      <trkpt lat="45.06862" lon="5.03999">
        <ele>175.9</ele>
        <time>2022-10-16T13:03:42.000Z</time>
      </trkpt>
      <trkpt lat="45.0686" lon="5.03994">
        <ele>175.5</ele>
        <time>2022-10-16T13:03:43.000Z</time>
      </trkpt>
      <trkpt lat="45.06858" lon="5.0399">
        <ele>175.2</ele>
        <time>2022-10-16T13:03:44.000Z</time>
      </trkpt>
      <trkpt lat="45.06856" lon="5.03986">
        <ele>174.9</ele>
        <time>2022-10-16T13:03:45.000Z</time>
      </trkpt>
      <trkpt lat="45.06855" lon="5.03982">
        <ele>174.8</ele>
        <time>2022-10-16T13:03:46.000Z</time>
      </trkpt>
      <trkpt lat="45.06853" lon="5.03978">
        <ele>174.7</ele>
        <time>2022-10-16T13:03:47.000Z</time>
      </trkpt>
      <trkpt lat="45.06851" lon="5.03975">
        <ele>174.7</ele>
        <time>2022-10-16T13:03:48.000Z</time>
      </trkpt>
      <trkpt lat="45.0685" lon="5.03972">
        <ele>174.8</ele>
        <time>2022-10-16T13:03:49.000Z</time>
      </trkpt>
      <trkpt lat="45.06849" lon="5.0397">
        <ele>175</ele>
        <time>2022-10-16T13:03:50.000Z</time>
      </trkpt>
      <trkpt lat="45.06847" lon="5.03966">
        <ele>175.2</ele>
        <time>2022-10-16T13:03:52.000Z</time>
      </trkpt>
      <trkpt lat="45.06848" lon="5.03961">
        <ele>175.4</ele>
        <time>2022-10-16T13:03:54.000Z</time>
      </trkpt>
      <trkpt lat="45.06849" lon="5.03958">
        <ele>175.5</ele>
        <time>2022-10-16T13:03:55.000Z</time>
      </trkpt>
      <trkpt lat="45.06851" lon="5.03954">
        <ele>175.7</ele>
        <time>2022-10-16T13:03:56.000Z</time>
      </trkpt>
      <trkpt lat="45.06853" lon="5.0395">
        <ele>176</ele>
        <time>2022-10-16T13:03:57.000Z</time>
      </trkpt>
      <trkpt lat="45.06855" lon="5.03945">
        <ele>176.5</ele>
        <time>2022-10-16T13:03:58.000Z</time>
      </trkpt>
      <trkpt lat="45.06856" lon="5.0394">
        <ele>176.6</ele>
        <time>2022-10-16T13:03:59.000Z</time>
      </trkpt>
      <trkpt lat="45.06858" lon="5.03935">
        <ele>176.7</ele>
        <time>2022-10-16T13:04:00.000Z</time>
      </trkpt>
      <trkpt lat="45.06859" lon="5.0393">
        <ele>176.8</ele>
        <time>2022-10-16T13:04:01.000Z</time>
      </trkpt>
      <trkpt lat="45.0686" lon="5.03926">
        <ele>176.9</ele>
        <time>2022-10-16T13:04:02.000Z</time>
      </trkpt>
      <trkpt lat="45.06861" lon="5.03921">
        <ele>177</ele>
        <time>2022-10-16T13:04:03.000Z</time>
      </trkpt>
      <trkpt lat="45.06862" lon="5.03916">
        <ele>176.9</ele>
        <time>2022-10-16T13:04:04.000Z</time>
      </trkpt>
      <trkpt lat="45.06861" lon="5.03912">
        <ele>176.9</ele>
        <time>2022-10-16T13:04:05.000Z</time>
      </trkpt>
      <trkpt lat="45.06858" lon="5.03907">
        <ele>176.7</ele>
        <time>2022-10-16T13:04:06.000Z</time>
      </trkpt>
      <trkpt lat="45.06855" lon="5.03902">
        <ele>176.4</ele>
        <time>2022-10-16T13:04:07.000Z</time>
      </trkpt>
      <trkpt lat="45.06851" lon="5.03898">
        <ele>175.9</ele>
        <time>2022-10-16T13:04:08.000Z</time>
      </trkpt>
      <trkpt lat="45.06847" lon="5.03893">
        <ele>175.5</ele>
        <time>2022-10-16T13:04:09.000Z</time>
      </trkpt>
      <trkpt lat="45.06843" lon="5.03887">
        <ele>175</ele>
        <time>2022-10-16T13:04:10.000Z</time>
      </trkpt>
      <trkpt lat="45.06839" lon="5.0388">
        <ele>174.8</ele>
        <time>2022-10-16T13:04:11.000Z</time>
      </trkpt>
      <trkpt lat="45.06835" lon="5.03873">
        <ele>174.7</ele>
        <time>2022-10-16T13:04:12.000Z</time>
      </trkpt>
      <trkpt lat="45.06831" lon="5.03866">
        <ele>174.7</ele>
        <time>2022-10-16T13:04:13.000Z</time>
      </trkpt>
      <trkpt lat="45.06828" lon="5.03858">
        <ele>174.4</ele>
        <time>2022-10-16T13:04:14.000Z</time>
      </trkpt>
      <trkpt lat="45.06825" lon="5.03849">
        <ele>173.8</ele>
        <time>2022-10-16T13:04:15.000Z</time>
      </trkpt>
      <trkpt lat="45.06821" lon="5.03841">
        <ele>173.3</ele>
        <time>2022-10-16T13:04:16.000Z</time>
      </trkpt>
      <trkpt lat="45.06818" lon="5.03833">
        <ele>173</ele>
        <time>2022-10-16T13:04:17.000Z</time>
      </trkpt>
      <trkpt lat="45.06814" lon="5.03825">
        <ele>173</ele>
        <time>2022-10-16T13:04:18.000Z</time>
      </trkpt>
      <trkpt lat="45.06811" lon="5.03817">
        <ele>173</ele>
        <time>2022-10-16T13:04:19.000Z</time>
      </trkpt>
      <trkpt lat="45.06808" lon="5.0381">
        <ele>173</ele>
        <time>2022-10-16T13:04:20.000Z</time>
      </trkpt>
      <trkpt lat="45.06805" lon="5.03802">
        <ele>173</ele>
        <time>2022-10-16T13:04:21.000Z</time>
      </trkpt>
      <trkpt lat="45.06802" lon="5.03795">
        <ele>172.9</ele>
        <time>2022-10-16T13:04:22.000Z</time>
      </trkpt>
      <trkpt lat="45.068" lon="5.03788">
        <ele>172.8</ele>
        <time>2022-10-16T13:04:23.000Z</time>
      </trkpt>
      <trkpt lat="45.06798" lon="5.03781">
        <ele>172.7</ele>
        <time>2022-10-16T13:04:24.000Z</time>
      </trkpt>
      <trkpt lat="45.06796" lon="5.03774">
        <ele>172.6</ele>
        <time>2022-10-16T13:04:25.000Z</time>
      </trkpt>
      <trkpt lat="45.06793" lon="5.03767">
        <ele>172.5</ele>
        <time>2022-10-16T13:04:26.000Z</time>
      </trkpt>
      <trkpt lat="45.06791" lon="5.03759">
        <ele>172.5</ele>
        <time>2022-10-16T13:04:27.000Z</time>
      </trkpt>
      <trkpt lat="45.06788" lon="5.03752">
        <ele>172.6</ele>
        <time>2022-10-16T13:04:28.000Z</time>
      </trkpt>
      <trkpt lat="45.06786" lon="5.03745">
        <ele>172.8</ele>
        <time>2022-10-16T13:04:29.000Z</time>
      </trkpt>
      <trkpt lat="45.06784" lon="5.03738">
        <ele>172.9</ele>
        <time>2022-10-16T13:04:30.000Z</time>
      </trkpt>
      <trkpt lat="45.06782" lon="5.03731">
        <ele>173</ele>
        <time>2022-10-16T13:04:31.000Z</time>
      </trkpt>
      <trkpt lat="45.0678" lon="5.03724">
        <ele>173</ele>
        <time>2022-10-16T13:04:32.000Z</time>
      </trkpt>
      <trkpt lat="45.06778" lon="5.03717">
        <ele>172.8</ele>
        <time>2022-10-16T13:04:33.000Z</time>
      </trkpt>
      <trkpt lat="45.06776" lon="5.0371">
        <ele>172.5</ele>
        <time>2022-10-16T13:04:34.000Z</time>
      </trkpt>
      <trkpt lat="45.06774" lon="5.03704">
        <ele>172.3</ele>
        <time>2022-10-16T13:04:35.000Z</time>
      </trkpt>
      <trkpt lat="45.06772" lon="5.03697">
        <ele>172.1</ele>
        <time>2022-10-16T13:04:36.000Z</time>
      </trkpt>
      <trkpt lat="45.0677" lon="5.0369">
        <ele>172</ele>
        <time>2022-10-16T13:04:37.000Z</time>
      </trkpt>
      <trkpt lat="45.06768" lon="5.03684">
        <ele>172</ele>
        <time>2022-10-16T13:04:38.000Z</time>
      </trkpt>
      <trkpt lat="45.06767" lon="5.03677">
        <ele>172</ele>
        <time>2022-10-16T13:04:39.000Z</time>
      </trkpt>
      <trkpt lat="45.06764" lon="5.0367">
        <ele>172</ele>
        <time>2022-10-16T13:04:40.000Z</time>
      </trkpt>
      <trkpt lat="45.06762" lon="5.03663">
        <ele>172</ele>
        <time>2022-10-16T13:04:41.000Z</time>
      </trkpt>
      <trkpt lat="45.06759" lon="5.03656">
        <ele>172</ele>
        <time>2022-10-16T13:04:42.000Z</time>
      </trkpt>
      <trkpt lat="45.06757" lon="5.03649">
        <ele>172</ele>
        <time>2022-10-16T13:04:43.000Z</time>
      </trkpt>
      <trkpt lat="45.06754" lon="5.03642">
        <ele>172</ele>
        <time>2022-10-16T13:04:44.000Z</time>
      </trkpt>
      <trkpt lat="45.06751" lon="5.03635">
        <ele>172</ele>
        <time>2022-10-16T13:04:45.000Z</time>
      </trkpt>
      <trkpt lat="45.06749" lon="5.03628">
        <ele>172</ele>
        <time>2022-10-16T13:04:46.000Z</time>
      </trkpt>
      <trkpt lat="45.06746" lon="5.03621">
        <ele>172</ele>
        <time>2022-10-16T13:04:47.000Z</time>
      </trkpt>
      <trkpt lat="45.06744" lon="5.03614">
        <ele>172</ele>
        <time>2022-10-16T13:04:48.000Z</time>
      </trkpt>
      <trkpt lat="45.06741" lon="5.03607">
        <ele>172</ele>
        <time>2022-10-16T13:04:49.000Z</time>
      </trkpt>
      <trkpt lat="45.06739" lon="5.036">
        <ele>172</ele>
        <time>2022-10-16T13:04:50.000Z</time>
      </trkpt>
      <trkpt lat="45.06736" lon="5.03593">
        <ele>172</ele>
        <time>2022-10-16T13:04:51.000Z</time>
      </trkpt>
      <trkpt lat="45.06733" lon="5.03587">
        <ele>172</ele>
        <time>2022-10-16T13:04:52.000Z</time>
      </trkpt>
      <trkpt lat="45.06731" lon="5.03581">
        <ele>172</ele>
        <time>2022-10-16T13:04:53.000Z</time>
      </trkpt>
      <trkpt lat="45.06728" lon="5.03575">
        <ele>172</ele>
        <time>2022-10-16T13:04:54.000Z</time>
      </trkpt>
      <trkpt lat="45.06726" lon="5.03569">
        <ele>172</ele>
        <time>2022-10-16T13:04:55.000Z</time>
      </trkpt>
      <trkpt lat="45.06724" lon="5.03564">
        <ele>172</ele>
        <time>2022-10-16T13:04:56.000Z</time>
      </trkpt>
      <trkpt lat="45.06722" lon="5.03558">
        <ele>172</ele>
        <time>2022-10-16T13:04:57.000Z</time>
      </trkpt>
      <trkpt lat="45.06719" lon="5.03553">
        <ele>171.9</ele>
        <time>2022-10-16T13:04:58.000Z</time>
      </trkpt>
      <trkpt lat="45.06717" lon="5.03547">
        <ele>171.8</ele>
        <time>2022-10-16T13:04:59.000Z</time>
      </trkpt>
      <trkpt lat="45.06715" lon="5.03541">
        <ele>171.7</ele>
        <time>2022-10-16T13:05:00.000Z</time>
      </trkpt>
      <trkpt lat="45.06712" lon="5.03535">
        <ele>171.6</ele>
        <time>2022-10-16T13:05:01.000Z</time>
      </trkpt>
      <trkpt lat="45.0671" lon="5.03528">
        <ele>171.6</ele>
        <time>2022-10-16T13:05:02.000Z</time>
      </trkpt>
      <trkpt lat="45.06708" lon="5.03522">
        <ele>171.6</ele>
        <time>2022-10-16T13:05:03.000Z</time>
      </trkpt>
      <trkpt lat="45.06705" lon="5.03516">
        <ele>171.7</ele>
        <time>2022-10-16T13:05:04.000Z</time>
      </trkpt>
      <trkpt lat="45.06703" lon="5.0351">
        <ele>171.8</ele>
        <time>2022-10-16T13:05:05.000Z</time>
      </trkpt>
      <trkpt lat="45.06701" lon="5.03504">
        <ele>171.9</ele>
        <time>2022-10-16T13:05:06.000Z</time>
      </trkpt>
      <trkpt lat="45.06698" lon="5.03497">
        <ele>172</ele>
        <time>2022-10-16T13:05:07.000Z</time>
      </trkpt>
      <trkpt lat="45.06696" lon="5.03491">
        <ele>172</ele>
        <time>2022-10-16T13:05:08.000Z</time>
      </trkpt>
      <trkpt lat="45.06694" lon="5.03485">
        <ele>172</ele>
        <time>2022-10-16T13:05:09.000Z</time>
      </trkpt>
      <trkpt lat="45.06691" lon="5.03479">
        <ele>171.9</ele>
        <time>2022-10-16T13:05:10.000Z</time>
      </trkpt>
      <trkpt lat="45.06689" lon="5.03473">
        <ele>171.8</ele>
        <time>2022-10-16T13:05:11.000Z</time>
      </trkpt>
      <trkpt lat="45.06687" lon="5.03467">
        <ele>171.8</ele>
        <time>2022-10-16T13:05:12.000Z</time>
      </trkpt>
      <trkpt lat="45.06684" lon="5.03462">
        <ele>171.8</ele>
        <time>2022-10-16T13:05:13.000Z</time>
      </trkpt>
      <trkpt lat="45.06682" lon="5.03456">
        <ele>171.8</ele>
        <time>2022-10-16T13:05:14.000Z</time>
      </trkpt>
      <trkpt lat="45.06679" lon="5.0345">
        <ele>171.9</ele>
        <time>2022-10-16T13:05:15.000Z</time>
      </trkpt>
      <trkpt lat="45.06676" lon="5.03445">
        <ele>172</ele>
        <time>2022-10-16T13:05:16.000Z</time>
      </trkpt>
      <trkpt lat="45.06674" lon="5.03439">
        <ele>172.1</ele>
        <time>2022-10-16T13:05:17.000Z</time>
      </trkpt>
      <trkpt lat="45.06672" lon="5.03433">
        <ele>172.3</ele>
        <time>2022-10-16T13:05:18.000Z</time>
      </trkpt>
      <trkpt lat="45.0667" lon="5.03427">
        <ele>172.5</ele>
        <time>2022-10-16T13:05:19.000Z</time>
      </trkpt>
      <trkpt lat="45.06668" lon="5.03421">
        <ele>172.8</ele>
        <time>2022-10-16T13:05:20.000Z</time>
      </trkpt>
      <trkpt lat="45.06666" lon="5.03413">
        <ele>172.9</ele>
        <time>2022-10-16T13:05:21.000Z</time>
      </trkpt>
      <trkpt lat="45.06665" lon="5.03405">
        <ele>172.5</ele>
        <time>2022-10-16T13:05:22.000Z</time>
      </trkpt>
      <trkpt lat="45.06663" lon="5.03397">
        <ele>172.2</ele>
        <time>2022-10-16T13:05:23.000Z</time>
      </trkpt>
      <trkpt lat="45.06662" lon="5.03388">
        <ele>172</ele>
        <time>2022-10-16T13:05:24.000Z</time>
      </trkpt>
      <trkpt lat="45.0666" lon="5.0338">
        <ele>172</ele>
        <time>2022-10-16T13:05:25.000Z</time>
      </trkpt>
      <trkpt lat="45.06658" lon="5.03371">
        <ele>172</ele>
        <time>2022-10-16T13:05:26.000Z</time>
      </trkpt>
      <trkpt lat="45.06656" lon="5.03363">
        <ele>172</ele>
        <time>2022-10-16T13:05:27.000Z</time>
      </trkpt>
      <trkpt lat="45.06654" lon="5.03355">
        <ele>172</ele>
        <time>2022-10-16T13:05:28.000Z</time>
      </trkpt>
      <trkpt lat="45.06652" lon="5.03347">
        <ele>172</ele>
        <time>2022-10-16T13:05:29.000Z</time>
      </trkpt>
      <trkpt lat="45.06649" lon="5.03339">
        <ele>172</ele>
        <time>2022-10-16T13:05:30.000Z</time>
      </trkpt>
      <trkpt lat="45.06647" lon="5.03332">
        <ele>172</ele>
        <time>2022-10-16T13:05:31.000Z</time>
      </trkpt>
      <trkpt lat="45.06645" lon="5.03325">
        <ele>172</ele>
        <time>2022-10-16T13:05:32.000Z</time>
      </trkpt>
      <trkpt lat="45.06643" lon="5.03318">
        <ele>172</ele>
        <time>2022-10-16T13:05:33.000Z</time>
      </trkpt>
      <trkpt lat="45.06641" lon="5.03311">
        <ele>172</ele>
        <time>2022-10-16T13:05:34.000Z</time>
      </trkpt>
      <trkpt lat="45.0664" lon="5.03304">
        <ele>172</ele>
        <time>2022-10-16T13:05:35.000Z</time>
      </trkpt>
      <trkpt lat="45.06638" lon="5.03298">
        <ele>172</ele>
        <time>2022-10-16T13:05:36.000Z</time>
      </trkpt>
      <trkpt lat="45.06636" lon="5.03292">
        <ele>171.9</ele>
        <time>2022-10-16T13:05:37.000Z</time>
      </trkpt>
      <trkpt lat="45.06634" lon="5.03286">
        <ele>171.8</ele>
        <time>2022-10-16T13:05:38.000Z</time>
      </trkpt>
      <trkpt lat="45.06633" lon="5.0328">
        <ele>171.8</ele>
        <time>2022-10-16T13:05:39.000Z</time>
      </trkpt>
      <trkpt lat="45.06631" lon="5.03274">
        <ele>171.7</ele>
        <time>2022-10-16T13:05:40.000Z</time>
      </trkpt>
      <trkpt lat="45.06629" lon="5.03268">
        <ele>171.7</ele>
        <time>2022-10-16T13:05:41.000Z</time>
      </trkpt>
      <trkpt lat="45.06628" lon="5.03262">
        <ele>171.6</ele>
        <time>2022-10-16T13:05:42.000Z</time>
      </trkpt>
      <trkpt lat="45.06626" lon="5.03257">
        <ele>171.5</ele>
        <time>2022-10-16T13:05:43.000Z</time>
      </trkpt>
      <trkpt lat="45.06625" lon="5.03251">
        <ele>171.5</ele>
        <time>2022-10-16T13:05:44.000Z</time>
      </trkpt>
      <trkpt lat="45.06623" lon="5.03246">
        <ele>171.5</ele>
        <time>2022-10-16T13:05:45.000Z</time>
      </trkpt>
      <trkpt lat="45.06622" lon="5.0324">
        <ele>171.6</ele>
        <time>2022-10-16T13:05:46.000Z</time>
      </trkpt>
      <trkpt lat="45.0662" lon="5.03234">
        <ele>171.7</ele>
        <time>2022-10-16T13:05:47.000Z</time>
      </trkpt>
      <trkpt lat="45.06618" lon="5.03228">
        <ele>171.9</ele>
        <time>2022-10-16T13:05:48.000Z</time>
      </trkpt>
      <trkpt lat="45.06616" lon="5.03221">
        <ele>172</ele>
        <time>2022-10-16T13:05:49.000Z</time>
      </trkpt>
      <trkpt lat="45.06614" lon="5.03215">
        <ele>172</ele>
        <time>2022-10-16T13:05:50.000Z</time>
      </trkpt>
      <trkpt lat="45.06612" lon="5.03209">
        <ele>172</ele>
        <time>2022-10-16T13:05:51.000Z</time>
      </trkpt>
      <trkpt lat="45.0661" lon="5.03203">
        <ele>172</ele>
        <time>2022-10-16T13:05:52.000Z</time>
      </trkpt>
      <trkpt lat="45.06609" lon="5.03197">
        <ele>171.9</ele>
        <time>2022-10-16T13:05:53.000Z</time>
      </trkpt>
      <trkpt lat="45.06607" lon="5.0319">
        <ele>171.7</ele>
        <time>2022-10-16T13:05:54.000Z</time>
      </trkpt>
      <trkpt lat="45.06605" lon="5.03184">
        <ele>171.5</ele>
        <time>2022-10-16T13:05:55.000Z</time>
      </trkpt>
      <trkpt lat="45.06603" lon="5.03177">
        <ele>171.3</ele>
        <time>2022-10-16T13:05:56.000Z</time>
      </trkpt>
      <trkpt lat="45.06602" lon="5.03171">
        <ele>171.1</ele>
        <time>2022-10-16T13:05:57.000Z</time>
      </trkpt>
      <trkpt lat="45.066" lon="5.03164">
        <ele>171</ele>
        <time>2022-10-16T13:05:58.000Z</time>
      </trkpt>
      <trkpt lat="45.06598" lon="5.03158">
        <ele>171</ele>
        <time>2022-10-16T13:05:59.000Z</time>
      </trkpt>
      <trkpt lat="45.06597" lon="5.03151">
        <ele>171</ele>
        <time>2022-10-16T13:06:00.000Z</time>
      </trkpt>
      <trkpt lat="45.06595" lon="5.03145">
        <ele>171</ele>
        <time>2022-10-16T13:06:01.000Z</time>
      </trkpt>
      <trkpt lat="45.06593" lon="5.03139">
        <ele>171</ele>
        <time>2022-10-16T13:06:02.000Z</time>
      </trkpt>
      <trkpt lat="45.06592" lon="5.03133">
        <ele>171</ele>
        <time>2022-10-16T13:06:03.000Z</time>
      </trkpt>
      <trkpt lat="45.06591" lon="5.03126">
        <ele>171</ele>
        <time>2022-10-16T13:06:04.000Z</time>
      </trkpt>
      <trkpt lat="45.06591" lon="5.0312">
        <ele>171</ele>
        <time>2022-10-16T13:06:05.000Z</time>
      </trkpt>
      <trkpt lat="45.0659" lon="5.03114">
        <ele>171</ele>
        <time>2022-10-16T13:06:06.000Z</time>
      </trkpt>
      <trkpt lat="45.0659" lon="5.03107">
        <ele>171</ele>
        <time>2022-10-16T13:06:07.000Z</time>
      </trkpt>
      <trkpt lat="45.06589" lon="5.03101">
        <ele>171</ele>
        <time>2022-10-16T13:06:08.000Z</time>
      </trkpt>
      <trkpt lat="45.06588" lon="5.03095">
        <ele>171</ele>
        <time>2022-10-16T13:06:09.000Z</time>
      </trkpt>
      <trkpt lat="45.06588" lon="5.03088">
        <ele>171</ele>
        <time>2022-10-16T13:06:10.000Z</time>
      </trkpt>
      <trkpt lat="45.06587" lon="5.03082">
        <ele>171</ele>
        <time>2022-10-16T13:06:11.000Z</time>
      </trkpt>
      <trkpt lat="45.06586" lon="5.03075">
        <ele>171</ele>
        <time>2022-10-16T13:06:12.000Z</time>
      </trkpt>
      <trkpt lat="45.06585" lon="5.03068">
        <ele>171</ele>
        <time>2022-10-16T13:06:13.000Z</time>
      </trkpt>
      <trkpt lat="45.06585" lon="5.03062">
        <ele>171</ele>
        <time>2022-10-16T13:06:14.000Z</time>
      </trkpt>
      <trkpt lat="45.06584" lon="5.03056">
        <ele>171</ele>
        <time>2022-10-16T13:06:15.000Z</time>
      </trkpt>
      <trkpt lat="45.06584" lon="5.0305">
        <ele>171</ele>
        <time>2022-10-16T13:06:16.000Z</time>
      </trkpt>
      <trkpt lat="45.06583" lon="5.03044">
        <ele>171</ele>
        <time>2022-10-16T13:06:17.000Z</time>
      </trkpt>
      <trkpt lat="45.06583" lon="5.03038">
        <ele>171</ele>
        <time>2022-10-16T13:06:18.000Z</time>
      </trkpt>
      <trkpt lat="45.06582" lon="5.03033">
        <ele>170.9</ele>
        <time>2022-10-16T13:06:19.000Z</time>
      </trkpt>
      <trkpt lat="45.06581" lon="5.03028">
        <ele>170.9</ele>
        <time>2022-10-16T13:06:20.000Z</time>
      </trkpt>
      <trkpt lat="45.06581" lon="5.03023">
        <ele>170.7</ele>
        <time>2022-10-16T13:06:21.000Z</time>
      </trkpt>
      <trkpt lat="45.0658" lon="5.03016">
        <ele>170.5</ele>
        <time>2022-10-16T13:06:22.000Z</time>
      </trkpt>
      <trkpt lat="45.0658" lon="5.03009">
        <ele>170.3</ele>
        <time>2022-10-16T13:06:23.000Z</time>
      </trkpt>
      <trkpt lat="45.06579" lon="5.03001">
        <ele>170</ele>
        <time>2022-10-16T13:06:24.000Z</time>
      </trkpt>
      <trkpt lat="45.06579" lon="5.02993">
        <ele>169.7</ele>
        <time>2022-10-16T13:06:25.000Z</time>
      </trkpt>
      <trkpt lat="45.0658" lon="5.02985">
        <ele>169.4</ele>
        <time>2022-10-16T13:06:26.000Z</time>
      </trkpt>
      <trkpt lat="45.0658" lon="5.02977">
        <ele>169.2</ele>
        <time>2022-10-16T13:06:27.000Z</time>
      </trkpt>
      <trkpt lat="45.06579" lon="5.02969">
        <ele>169.2</ele>
        <time>2022-10-16T13:06:28.000Z</time>
      </trkpt>
      <trkpt lat="45.06578" lon="5.02962">
        <ele>169.7</ele>
        <time>2022-10-16T13:06:29.000Z</time>
      </trkpt>
      <trkpt lat="45.06577" lon="5.02955">
        <ele>170.1</ele>
        <time>2022-10-16T13:06:30.000Z</time>
      </trkpt>
      <trkpt lat="45.06576" lon="5.02948">
        <ele>170.5</ele>
        <time>2022-10-16T13:06:31.000Z</time>
      </trkpt>
      <trkpt lat="45.06575" lon="5.02942">
        <ele>170.7</ele>
        <time>2022-10-16T13:06:32.000Z</time>
      </trkpt>
      <trkpt lat="45.06574" lon="5.02936">
        <ele>170.6</ele>
        <time>2022-10-16T13:06:33.000Z</time>
      </trkpt>
      <trkpt lat="45.06573" lon="5.0293">
        <ele>170.6</ele>
        <time>2022-10-16T13:06:34.000Z</time>
      </trkpt>
      <trkpt lat="45.06572" lon="5.02924">
        <ele>170.6</ele>
        <time>2022-10-16T13:06:35.000Z</time>
      </trkpt>
      <trkpt lat="45.06571" lon="5.02918">
        <ele>170.6</ele>
        <time>2022-10-16T13:06:36.000Z</time>
      </trkpt>
      <trkpt lat="45.0657" lon="5.02912">
        <ele>170.6</ele>
        <time>2022-10-16T13:06:37.000Z</time>
      </trkpt>
      <trkpt lat="45.0657" lon="5.02906">
        <ele>170.7</ele>
        <time>2022-10-16T13:06:38.000Z</time>
      </trkpt>
      <trkpt lat="45.06569" lon="5.02899">
        <ele>170.8</ele>
        <time>2022-10-16T13:06:39.000Z</time>
      </trkpt>
      <trkpt lat="45.06569" lon="5.02892">
        <ele>170.9</ele>
        <time>2022-10-16T13:06:40.000Z</time>
      </trkpt>
      <trkpt lat="45.06568" lon="5.02885">
        <ele>170.9</ele>
        <time>2022-10-16T13:06:41.000Z</time>
      </trkpt>
      <trkpt lat="45.06567" lon="5.02877">
        <ele>170.8</ele>
        <time>2022-10-16T13:06:42.000Z</time>
      </trkpt>
      <trkpt lat="45.06566" lon="5.0287">
        <ele>170.7</ele>
        <time>2022-10-16T13:06:43.000Z</time>
      </trkpt>
      <trkpt lat="45.06565" lon="5.02862">
        <ele>170.7</ele>
        <time>2022-10-16T13:06:44.000Z</time>
      </trkpt>
      <trkpt lat="45.06564" lon="5.02855">
        <ele>170.7</ele>
        <time>2022-10-16T13:06:45.000Z</time>
      </trkpt>
      <trkpt lat="45.06563" lon="5.02849">
        <ele>170.7</ele>
        <time>2022-10-16T13:06:46.000Z</time>
      </trkpt>
      <trkpt lat="45.06563" lon="5.02842">
        <ele>170.8</ele>
        <time>2022-10-16T13:06:47.000Z</time>
      </trkpt>
      <trkpt lat="45.06562" lon="5.02836">
        <ele>170.8</ele>
        <time>2022-10-16T13:06:48.000Z</time>
      </trkpt>
      <trkpt lat="45.06561" lon="5.0283">
        <ele>170.8</ele>
        <time>2022-10-16T13:06:49.000Z</time>
      </trkpt>
      <trkpt lat="45.0656" lon="5.02824">
        <ele>170.8</ele>
        <time>2022-10-16T13:06:50.000Z</time>
      </trkpt>
      <trkpt lat="45.06559" lon="5.02818">
        <ele>170.9</ele>
        <time>2022-10-16T13:06:51.000Z</time>
      </trkpt>
      <trkpt lat="45.06558" lon="5.02812">
        <ele>170.9</ele>
        <time>2022-10-16T13:06:52.000Z</time>
      </trkpt>
      <trkpt lat="45.06557" lon="5.02806">
        <ele>170.9</ele>
        <time>2022-10-16T13:06:53.000Z</time>
      </trkpt>
      <trkpt lat="45.06556" lon="5.028">
        <ele>171</ele>
        <time>2022-10-16T13:06:54.000Z</time>
      </trkpt>
      <trkpt lat="45.06556" lon="5.02793">
        <ele>171</ele>
        <time>2022-10-16T13:06:55.000Z</time>
      </trkpt>
      <trkpt lat="45.06555" lon="5.02787">
        <ele>171</ele>
        <time>2022-10-16T13:06:56.000Z</time>
      </trkpt>
      <trkpt lat="45.06554" lon="5.02781">
        <ele>171</ele>
        <time>2022-10-16T13:06:57.000Z</time>
      </trkpt>
      <trkpt lat="45.06553" lon="5.02775">
        <ele>170.9</ele>
        <time>2022-10-16T13:06:58.000Z</time>
      </trkpt>
      <trkpt lat="45.06552" lon="5.02769">
        <ele>170.7</ele>
        <time>2022-10-16T13:06:59.000Z</time>
      </trkpt>
      <trkpt lat="45.06551" lon="5.02764">
        <ele>170.5</ele>
        <time>2022-10-16T13:07:00.000Z</time>
      </trkpt>
      <trkpt lat="45.0655" lon="5.02758">
        <ele>170.3</ele>
        <time>2022-10-16T13:07:01.000Z</time>
      </trkpt>
      <trkpt lat="45.06549" lon="5.02753">
        <ele>170.1</ele>
        <time>2022-10-16T13:07:02.000Z</time>
      </trkpt>
      <trkpt lat="45.06548" lon="5.02747">
        <ele>170</ele>
        <time>2022-10-16T13:07:03.000Z</time>
      </trkpt>
      <trkpt lat="45.06547" lon="5.02741">
        <ele>170.1</ele>
        <time>2022-10-16T13:07:04.000Z</time>
      </trkpt>
      <trkpt lat="45.06546" lon="5.02735">
        <ele>170.2</ele>
        <time>2022-10-16T13:07:05.000Z</time>
      </trkpt>
      <trkpt lat="45.06545" lon="5.02728">
        <ele>170.3</ele>
        <time>2022-10-16T13:07:06.000Z</time>
      </trkpt>
      <trkpt lat="45.06544" lon="5.02722">
        <ele>170.4</ele>
        <time>2022-10-16T13:07:07.000Z</time>
      </trkpt>
      <trkpt lat="45.06543" lon="5.02716">
        <ele>170.4</ele>
        <time>2022-10-16T13:07:08.000Z</time>
      </trkpt>
      <trkpt lat="45.06542" lon="5.0271">
        <ele>170.5</ele>
        <time>2022-10-16T13:07:09.000Z</time>
      </trkpt>
      <trkpt lat="45.06541" lon="5.02703">
        <ele>170.5</ele>
        <time>2022-10-16T13:07:10.000Z</time>
      </trkpt>
      <trkpt lat="45.0654" lon="5.02697">
        <ele>170.6</ele>
        <time>2022-10-16T13:07:11.000Z</time>
      </trkpt>
      <trkpt lat="45.06539" lon="5.0269">
        <ele>170.6</ele>
        <time>2022-10-16T13:07:12.000Z</time>
      </trkpt>
      <trkpt lat="45.06538" lon="5.02684">
        <ele>170.6</ele>
        <time>2022-10-16T13:07:13.000Z</time>
      </trkpt>
      <trkpt lat="45.06537" lon="5.02678">
        <ele>170.7</ele>
        <time>2022-10-16T13:07:14.000Z</time>
      </trkpt>
      <trkpt lat="45.06536" lon="5.02671">
        <ele>170.7</ele>
        <time>2022-10-16T13:07:15.000Z</time>
      </trkpt>
      <trkpt lat="45.06535" lon="5.02665">
        <ele>170.8</ele>
        <time>2022-10-16T13:07:16.000Z</time>
      </trkpt>
      <trkpt lat="45.06534" lon="5.02659">
        <ele>170.8</ele>
        <time>2022-10-16T13:07:17.000Z</time>
      </trkpt>
      <trkpt lat="45.06533" lon="5.02653">
        <ele>170.9</ele>
        <time>2022-10-16T13:07:18.000Z</time>
      </trkpt>
      <trkpt lat="45.06532" lon="5.02647">
        <ele>171</ele>
        <time>2022-10-16T13:07:19.000Z</time>
      </trkpt>
      <trkpt lat="45.06531" lon="5.02642">
        <ele>171</ele>
        <time>2022-10-16T13:07:20.000Z</time>
      </trkpt>
      <trkpt lat="45.06529" lon="5.02636">
        <ele>171.1</ele>
        <time>2022-10-16T13:07:21.000Z</time>
      </trkpt>
      <trkpt lat="45.06529" lon="5.0263">
        <ele>171.3</ele>
        <time>2022-10-16T13:07:22.000Z</time>
      </trkpt>
      <trkpt lat="45.06528" lon="5.02625">
        <ele>171.5</ele>
        <time>2022-10-16T13:07:23.000Z</time>
      </trkpt>
      <trkpt lat="45.06527" lon="5.0262">
        <ele>171.7</ele>
        <time>2022-10-16T13:07:24.000Z</time>
      </trkpt>
      <trkpt lat="45.06526" lon="5.02614">
        <ele>171.8</ele>
        <time>2022-10-16T13:07:25.000Z</time>
      </trkpt>
      <trkpt lat="45.06525" lon="5.02609">
        <ele>171.9</ele>
        <time>2022-10-16T13:07:26.000Z</time>
      </trkpt>
      <trkpt lat="45.06524" lon="5.02603">
        <ele>171.9</ele>
        <time>2022-10-16T13:07:27.000Z</time>
      </trkpt>
      <trkpt lat="45.06524" lon="5.02597">
        <ele>171.9</ele>
        <time>2022-10-16T13:07:28.000Z</time>
      </trkpt>
      <trkpt lat="45.06523" lon="5.02592">
        <ele>171.9</ele>
        <time>2022-10-16T13:07:29.000Z</time>
      </trkpt>
      <trkpt lat="45.06522" lon="5.02586">
        <ele>172</ele>
        <time>2022-10-16T13:07:30.000Z</time>
      </trkpt>
      <trkpt lat="45.06521" lon="5.02581">
        <ele>172.1</ele>
        <time>2022-10-16T13:07:31.000Z</time>
      </trkpt>
      <trkpt lat="45.0652" lon="5.02576">
        <ele>172.2</ele>
        <time>2022-10-16T13:07:32.000Z</time>
      </trkpt>
      <trkpt lat="45.06519" lon="5.02571">
        <ele>172.3</ele>
        <time>2022-10-16T13:07:33.000Z</time>
      </trkpt>
      <trkpt lat="45.06519" lon="5.02566">
        <ele>172.4</ele>
        <time>2022-10-16T13:07:34.000Z</time>
      </trkpt>
      <trkpt lat="45.06518" lon="5.02561">
        <ele>172.5</ele>
        <time>2022-10-16T13:07:35.000Z</time>
      </trkpt>
      <trkpt lat="45.06517" lon="5.02555">
        <ele>172.6</ele>
        <time>2022-10-16T13:07:36.000Z</time>
      </trkpt>
      <trkpt lat="45.06516" lon="5.0255">
        <ele>172.8</ele>
        <time>2022-10-16T13:07:37.000Z</time>
      </trkpt>
      <trkpt lat="45.06515" lon="5.02544">
        <ele>173</ele>
        <time>2022-10-16T13:07:38.000Z</time>
      </trkpt>
      <trkpt lat="45.06515" lon="5.02539">
        <ele>173.1</ele>
        <time>2022-10-16T13:07:39.000Z</time>
      </trkpt>
      <trkpt lat="45.06514" lon="5.02533">
        <ele>173.3</ele>
        <time>2022-10-16T13:07:40.000Z</time>
      </trkpt>
      <trkpt lat="45.06513" lon="5.02528">
        <ele>173.5</ele>
        <time>2022-10-16T13:07:41.000Z</time>
      </trkpt>
      <trkpt lat="45.06512" lon="5.02522">
        <ele>173.9</ele>
        <time>2022-10-16T13:07:42.000Z</time>
      </trkpt>
      <trkpt lat="45.06511" lon="5.02517">
        <ele>174.4</ele>
        <time>2022-10-16T13:07:43.000Z</time>
      </trkpt>
      <trkpt lat="45.0651" lon="5.02512">
        <ele>174.7</ele>
        <time>2022-10-16T13:07:44.000Z</time>
      </trkpt>
      <trkpt lat="45.06509" lon="5.02507">
        <ele>175.1</ele>
        <time>2022-10-16T13:07:45.000Z</time>
      </trkpt>
      <trkpt lat="45.06508" lon="5.02502">
        <ele>175.4</ele>
        <time>2022-10-16T13:07:46.000Z</time>
      </trkpt>
      <trkpt lat="45.06506" lon="5.02497">
        <ele>175.7</ele>
        <time>2022-10-16T13:07:47.000Z</time>
      </trkpt>
      <trkpt lat="45.06504" lon="5.02492">
        <ele>175.9</ele>
        <time>2022-10-16T13:07:48.000Z</time>
      </trkpt>
      <trkpt lat="45.06502" lon="5.02488">
        <ele>176</ele>
        <time>2022-10-16T13:07:49.000Z</time>
      </trkpt>
      <trkpt lat="45.065" lon="5.02484">
        <ele>176.1</ele>
        <time>2022-10-16T13:07:50.000Z</time>
      </trkpt>
      <trkpt lat="45.06497" lon="5.0248">
        <ele>176.2</ele>
        <time>2022-10-16T13:07:51.000Z</time>
      </trkpt>
      <trkpt lat="45.06495" lon="5.02476">
        <ele>176.1</ele>
        <time>2022-10-16T13:07:52.000Z</time>
      </trkpt>
      <trkpt lat="45.06491" lon="5.02473">
        <ele>176</ele>
        <time>2022-10-16T13:07:53.000Z</time>
      </trkpt>
      <trkpt lat="45.06489" lon="5.02469">
        <ele>176.1</ele>
        <time>2022-10-16T13:07:54.000Z</time>
      </trkpt>
      <trkpt lat="45.06486" lon="5.02465">
        <ele>176.3</ele>
        <time>2022-10-16T13:07:55.000Z</time>
      </trkpt>
      <trkpt lat="45.06484" lon="5.02461">
        <ele>176.5</ele>
        <time>2022-10-16T13:07:56.000Z</time>
      </trkpt>
      <trkpt lat="45.06481" lon="5.02458">
        <ele>176.6</ele>
        <time>2022-10-16T13:07:57.000Z</time>
      </trkpt>
      <trkpt lat="45.06479" lon="5.02455">
        <ele>176.6</ele>
        <time>2022-10-16T13:07:58.000Z</time>
      </trkpt>
      <trkpt lat="45.06476" lon="5.02452">
        <ele>176.7</ele>
        <time>2022-10-16T13:07:59.000Z</time>
      </trkpt>
      <trkpt lat="45.06474" lon="5.02448">
        <ele>176.7</ele>
        <time>2022-10-16T13:08:00.000Z</time>
      </trkpt>
      <trkpt lat="45.06471" lon="5.02445">
        <ele>176.8</ele>
        <time>2022-10-16T13:08:01.000Z</time>
      </trkpt>
      <trkpt lat="45.06469" lon="5.02442">
        <ele>177</ele>
        <time>2022-10-16T13:08:02.000Z</time>
      </trkpt>
      <trkpt lat="45.06466" lon="5.02438">
        <ele>177.2</ele>
        <time>2022-10-16T13:08:03.000Z</time>
      </trkpt>
      <trkpt lat="45.06463" lon="5.02435">
        <ele>177.2</ele>
        <time>2022-10-16T13:08:04.000Z</time>
      </trkpt>
      <trkpt lat="45.0646" lon="5.02432">
        <ele>177.3</ele>
        <time>2022-10-16T13:08:05.000Z</time>
      </trkpt>
      <trkpt lat="45.06458" lon="5.02429">
        <ele>177.4</ele>
        <time>2022-10-16T13:08:06.000Z</time>
      </trkpt>
      <trkpt lat="45.06455" lon="5.02426">
        <ele>177.5</ele>
        <time>2022-10-16T13:08:07.000Z</time>
      </trkpt>
      <trkpt lat="45.06453" lon="5.02422">
        <ele>177.6</ele>
        <time>2022-10-16T13:08:08.000Z</time>
      </trkpt>
      <trkpt lat="45.06451" lon="5.02418">
        <ele>177.7</ele>
        <time>2022-10-16T13:08:09.000Z</time>
      </trkpt>
      <trkpt lat="45.06448" lon="5.02414">
        <ele>177.9</ele>
        <time>2022-10-16T13:08:10.000Z</time>
      </trkpt>
      <trkpt lat="45.06446" lon="5.02411">
        <ele>178.1</ele>
        <time>2022-10-16T13:08:11.000Z</time>
      </trkpt>
      <trkpt lat="45.06443" lon="5.02407">
        <ele>178.3</ele>
        <time>2022-10-16T13:08:12.000Z</time>
      </trkpt>
      <trkpt lat="45.06441" lon="5.02402">
        <ele>178.5</ele>
        <time>2022-10-16T13:08:13.000Z</time>
      </trkpt>
      <trkpt lat="45.06438" lon="5.02397">
        <ele>178.7</ele>
        <time>2022-10-16T13:08:14.000Z</time>
      </trkpt>
      <trkpt lat="45.06436" lon="5.02392">
        <ele>178.8</ele>
        <time>2022-10-16T13:08:15.000Z</time>
      </trkpt>
      <trkpt lat="45.06434" lon="5.02387">
        <ele>178.9</ele>
        <time>2022-10-16T13:08:16.000Z</time>
      </trkpt>
      <trkpt lat="45.06432" lon="5.02381">
        <ele>178.9</ele>
        <time>2022-10-16T13:08:17.000Z</time>
      </trkpt>
      <trkpt lat="45.0643" lon="5.02376">
        <ele>178.8</ele>
        <time>2022-10-16T13:08:18.000Z</time>
      </trkpt>
      <trkpt lat="45.06428" lon="5.0237">
        <ele>178.9</ele>
        <time>2022-10-16T13:08:19.000Z</time>
      </trkpt>
      <trkpt lat="45.06427" lon="5.02365">
        <ele>179</ele>
        <time>2022-10-16T13:08:20.000Z</time>
      </trkpt>
      <trkpt lat="45.06426" lon="5.0236">
        <ele>179</ele>
        <time>2022-10-16T13:08:21.000Z</time>
      </trkpt>
      <trkpt lat="45.06425" lon="5.02355">
        <ele>179</ele>
        <time>2022-10-16T13:08:22.000Z</time>
      </trkpt>
      <trkpt lat="45.06424" lon="5.0235">
        <ele>179.1</ele>
        <time>2022-10-16T13:08:23.000Z</time>
      </trkpt>
      <trkpt lat="45.06422" lon="5.02346">
        <ele>179.1</ele>
        <time>2022-10-16T13:08:24.000Z</time>
      </trkpt>
      <trkpt lat="45.06421" lon="5.02341">
        <ele>179.1</ele>
        <time>2022-10-16T13:08:25.000Z</time>
      </trkpt>
      <trkpt lat="45.0642" lon="5.02337">
        <ele>179.3</ele>
        <time>2022-10-16T13:08:26.000Z</time>
      </trkpt>
      <trkpt lat="45.06419" lon="5.02332">
        <ele>179.4</ele>
        <time>2022-10-16T13:08:27.000Z</time>
      </trkpt>
      <trkpt lat="45.06418" lon="5.02328">
        <ele>179.2</ele>
        <time>2022-10-16T13:08:28.000Z</time>
      </trkpt>
      <trkpt lat="45.06416" lon="5.02323">
        <ele>178.9</ele>
        <time>2022-10-16T13:08:29.000Z</time>
      </trkpt>
      <trkpt lat="45.06414" lon="5.02318">
        <ele>178.7</ele>
        <time>2022-10-16T13:08:30.000Z</time>
      </trkpt>
      <trkpt lat="45.06412" lon="5.02314">
        <ele>178.6</ele>
        <time>2022-10-16T13:08:31.000Z</time>
      </trkpt>
      <trkpt lat="45.0641" lon="5.02309">
        <ele>178.5</ele>
        <time>2022-10-16T13:08:32.000Z</time>
      </trkpt>
      <trkpt lat="45.06407" lon="5.02304">
        <ele>178.4</ele>
        <time>2022-10-16T13:08:33.000Z</time>
      </trkpt>
      <trkpt lat="45.06405" lon="5.02299">
        <ele>178.3</ele>
        <time>2022-10-16T13:08:34.000Z</time>
      </trkpt>
      <trkpt lat="45.06402" lon="5.02293">
        <ele>178.1</ele>
        <time>2022-10-16T13:08:35.000Z</time>
      </trkpt>
      <trkpt lat="45.06399" lon="5.02288">
        <ele>178</ele>
        <time>2022-10-16T13:08:36.000Z</time>
      </trkpt>
      <trkpt lat="45.06397" lon="5.02284">
        <ele>177.8</ele>
        <time>2022-10-16T13:08:37.000Z</time>
      </trkpt>
      <trkpt lat="45.06394" lon="5.02279">
        <ele>177.6</ele>
        <time>2022-10-16T13:08:38.000Z</time>
      </trkpt>
      <trkpt lat="45.06392" lon="5.02274">
        <ele>177.6</ele>
        <time>2022-10-16T13:08:39.000Z</time>
      </trkpt>
      <trkpt lat="45.06389" lon="5.02269">
        <ele>177.6</ele>
        <time>2022-10-16T13:08:40.000Z</time>
      </trkpt>
      <trkpt lat="45.06386" lon="5.02264">
        <ele>177.8</ele>
        <time>2022-10-16T13:08:41.000Z</time>
      </trkpt>
      <trkpt lat="45.06384" lon="5.02259">
        <ele>177.9</ele>
        <time>2022-10-16T13:08:42.000Z</time>
      </trkpt>
      <trkpt lat="45.06381" lon="5.02255">
        <ele>177.9</ele>
        <time>2022-10-16T13:08:43.000Z</time>
      </trkpt>
      <trkpt lat="45.06379" lon="5.02251">
        <ele>177.9</ele>
        <time>2022-10-16T13:08:44.000Z</time>
      </trkpt>
      <trkpt lat="45.06377" lon="5.02246">
        <ele>178</ele>
        <time>2022-10-16T13:08:45.000Z</time>
      </trkpt>
      <trkpt lat="45.06375" lon="5.0224">
        <ele>178</ele>
        <time>2022-10-16T13:08:46.000Z</time>
      </trkpt>
      <trkpt lat="45.06374" lon="5.02236">
        <ele>178.1</ele>
        <time>2022-10-16T13:08:47.000Z</time>
      </trkpt>
      <trkpt lat="45.06373" lon="5.02231">
        <ele>178.2</ele>
        <time>2022-10-16T13:08:48.000Z</time>
      </trkpt>
      <trkpt lat="45.06371" lon="5.02226">
        <ele>178.2</ele>
        <time>2022-10-16T13:08:49.000Z</time>
      </trkpt>
      <trkpt lat="45.06369" lon="5.02221">
        <ele>178.3</ele>
        <time>2022-10-16T13:08:50.000Z</time>
      </trkpt>
      <trkpt lat="45.06368" lon="5.02216">
        <ele>178.5</ele>
        <time>2022-10-16T13:08:51.000Z</time>
      </trkpt>
      <trkpt lat="45.06367" lon="5.02211">
        <ele>178.6</ele>
        <time>2022-10-16T13:08:52.000Z</time>
      </trkpt>
      <trkpt lat="45.06365" lon="5.02207">
        <ele>178.7</ele>
        <time>2022-10-16T13:08:53.000Z</time>
      </trkpt>
      <trkpt lat="45.06364" lon="5.02203">
        <ele>178.8</ele>
        <time>2022-10-16T13:08:54.000Z</time>
      </trkpt>
      <trkpt lat="45.06362" lon="5.02198">
        <ele>178.9</ele>
        <time>2022-10-16T13:08:55.000Z</time>
      </trkpt>
      <trkpt lat="45.0636" lon="5.02193">
        <ele>179</ele>
        <time>2022-10-16T13:08:56.000Z</time>
      </trkpt>
      <trkpt lat="45.06358" lon="5.02189">
        <ele>179</ele>
        <time>2022-10-16T13:08:57.000Z</time>
      </trkpt>
      <trkpt lat="45.06356" lon="5.02185">
        <ele>179</ele>
        <time>2022-10-16T13:08:58.000Z</time>
      </trkpt>
      <trkpt lat="45.06355" lon="5.02181">
        <ele>179</ele>
        <time>2022-10-16T13:08:59.000Z</time>
      </trkpt>
      <trkpt lat="45.06353" lon="5.02177">
        <ele>179</ele>
        <time>2022-10-16T13:09:00.000Z</time>
      </trkpt>
      <trkpt lat="45.06351" lon="5.02174">
        <ele>179</ele>
        <time>2022-10-16T13:09:01.000Z</time>
      </trkpt>
      <trkpt lat="45.06349" lon="5.02171">
        <ele>178.9</ele>
        <time>2022-10-16T13:09:02.000Z</time>
      </trkpt>
      <trkpt lat="45.06347" lon="5.02168">
        <ele>178.9</ele>
        <time>2022-10-16T13:09:03.000Z</time>
      </trkpt>
      <trkpt lat="45.06344" lon="5.02164">
        <ele>178.9</ele>
        <time>2022-10-16T13:09:04.000Z</time>
      </trkpt>
      <trkpt lat="45.06342" lon="5.02159">
        <ele>178.9</ele>
        <time>2022-10-16T13:09:05.000Z</time>
      </trkpt>
      <trkpt lat="45.06339" lon="5.02155">
        <ele>179</ele>
        <time>2022-10-16T13:09:06.000Z</time>
      </trkpt>
      <trkpt lat="45.06336" lon="5.0215">
        <ele>179.2</ele>
        <time>2022-10-16T13:09:07.000Z</time>
      </trkpt>
      <trkpt lat="45.06334" lon="5.02145">
        <ele>179.4</ele>
        <time>2022-10-16T13:09:08.000Z</time>
      </trkpt>
      <trkpt lat="45.06331" lon="5.0214">
        <ele>179.5</ele>
        <time>2022-10-16T13:09:09.000Z</time>
      </trkpt>
      <trkpt lat="45.06329" lon="5.02135">
        <ele>179.3</ele>
        <time>2022-10-16T13:09:10.000Z</time>
      </trkpt>
      <trkpt lat="45.06327" lon="5.02129">
        <ele>179</ele>
        <time>2022-10-16T13:09:11.000Z</time>
      </trkpt>
      <trkpt lat="45.06324" lon="5.02123">
        <ele>178.8</ele>
        <time>2022-10-16T13:09:12.000Z</time>
      </trkpt>
      <trkpt lat="45.06323" lon="5.02117">
        <ele>178.5</ele>
        <time>2022-10-16T13:09:13.000Z</time>
      </trkpt>
      <trkpt lat="45.06321" lon="5.02112">
        <ele>178.2</ele>
        <time>2022-10-16T13:09:14.000Z</time>
      </trkpt>
      <trkpt lat="45.06319" lon="5.02106">
        <ele>178</ele>
        <time>2022-10-16T13:09:15.000Z</time>
      </trkpt>
      <trkpt lat="45.06317" lon="5.02099">
        <ele>177.8</ele>
        <time>2022-10-16T13:09:16.000Z</time>
      </trkpt>
      <trkpt lat="45.06315" lon="5.02093">
        <ele>177.6</ele>
        <time>2022-10-16T13:09:17.000Z</time>
      </trkpt>
      <trkpt lat="45.06313" lon="5.02087">
        <ele>177.4</ele>
        <time>2022-10-16T13:09:18.000Z</time>
      </trkpt>
      <trkpt lat="45.0631" lon="5.02081">
        <ele>177.2</ele>
        <time>2022-10-16T13:09:19.000Z</time>
      </trkpt>
      <trkpt lat="45.06309" lon="5.02075">
        <ele>177.2</ele>
        <time>2022-10-16T13:09:20.000Z</time>
      </trkpt>
      <trkpt lat="45.06307" lon="5.02069">
        <ele>177.3</ele>
        <time>2022-10-16T13:09:21.000Z</time>
      </trkpt>
      <trkpt lat="45.06305" lon="5.02063">
        <ele>177.4</ele>
        <time>2022-10-16T13:09:22.000Z</time>
      </trkpt>
      <trkpt lat="45.06303" lon="5.02057">
        <ele>177.4</ele>
        <time>2022-10-16T13:09:23.000Z</time>
      </trkpt>
      <trkpt lat="45.06301" lon="5.02051">
        <ele>177.4</ele>
        <time>2022-10-16T13:09:24.000Z</time>
      </trkpt>
      <trkpt lat="45.06299" lon="5.02045">
        <ele>177.3</ele>
        <time>2022-10-16T13:09:25.000Z</time>
      </trkpt>
      <trkpt lat="45.06297" lon="5.0204">
        <ele>177.1</ele>
        <time>2022-10-16T13:09:26.000Z</time>
      </trkpt>
      <trkpt lat="45.06295" lon="5.02034">
        <ele>176.9</ele>
        <time>2022-10-16T13:09:27.000Z</time>
      </trkpt>
      <trkpt lat="45.06292" lon="5.02029">
        <ele>176.6</ele>
        <time>2022-10-16T13:09:28.000Z</time>
      </trkpt>
      <trkpt lat="45.0629" lon="5.02023">
        <ele>176.3</ele>
        <time>2022-10-16T13:09:29.000Z</time>
      </trkpt>
      <trkpt lat="45.06288" lon="5.02018">
        <ele>176.1</ele>
        <time>2022-10-16T13:09:30.000Z</time>
      </trkpt>
      <trkpt lat="45.06286" lon="5.02013">
        <ele>175.9</ele>
        <time>2022-10-16T13:09:31.000Z</time>
      </trkpt>
      <trkpt lat="45.06283" lon="5.02008">
        <ele>175.7</ele>
        <time>2022-10-16T13:09:32.000Z</time>
      </trkpt>
      <trkpt lat="45.06281" lon="5.02003">
        <ele>175.5</ele>
        <time>2022-10-16T13:09:33.000Z</time>
      </trkpt>
      <trkpt lat="45.06279" lon="5.01998">
        <ele>175.5</ele>
        <time>2022-10-16T13:09:34.000Z</time>
      </trkpt>
      <trkpt lat="45.06277" lon="5.01993">
        <ele>175.7</ele>
        <time>2022-10-16T13:09:35.000Z</time>
      </trkpt>
      <trkpt lat="45.06275" lon="5.01988">
        <ele>175.9</ele>
        <time>2022-10-16T13:09:36.000Z</time>
      </trkpt>
      <trkpt lat="45.06273" lon="5.01983">
        <ele>176.1</ele>
        <time>2022-10-16T13:09:37.000Z</time>
      </trkpt>
      <trkpt lat="45.0627" lon="5.01977">
        <ele>176.2</ele>
        <time>2022-10-16T13:09:38.000Z</time>
      </trkpt>
      <trkpt lat="45.06268" lon="5.01972">
        <ele>176.2</ele>
        <time>2022-10-16T13:09:39.000Z</time>
      </trkpt>
      <trkpt lat="45.06265" lon="5.01966">
        <ele>175.9</ele>
        <time>2022-10-16T13:09:40.000Z</time>
      </trkpt>
      <trkpt lat="45.06263" lon="5.0196">
        <ele>175.8</ele>
        <time>2022-10-16T13:09:41.000Z</time>
      </trkpt>
      <trkpt lat="45.0626" lon="5.01955">
        <ele>175.6</ele>
        <time>2022-10-16T13:09:42.000Z</time>
      </trkpt>
      <trkpt lat="45.06258" lon="5.01949">
        <ele>175.6</ele>
        <time>2022-10-16T13:09:43.000Z</time>
      </trkpt>
      <trkpt lat="45.06255" lon="5.01944">
        <ele>175.6</ele>
        <time>2022-10-16T13:09:44.000Z</time>
      </trkpt>
      <trkpt lat="45.06253" lon="5.01939">
        <ele>175.5</ele>
        <time>2022-10-16T13:09:45.000Z</time>
      </trkpt>
      <trkpt lat="45.06251" lon="5.01934">
        <ele>175.5</ele>
        <time>2022-10-16T13:09:46.000Z</time>
      </trkpt>
      <trkpt lat="45.06249" lon="5.01929">
        <ele>175.4</ele>
        <time>2022-10-16T13:09:47.000Z</time>
      </trkpt>
      <trkpt lat="45.06247" lon="5.01925">
        <ele>175.4</ele>
        <time>2022-10-16T13:09:48.000Z</time>
      </trkpt>
      <trkpt lat="45.06245" lon="5.0192">
        <ele>175.3</ele>
        <time>2022-10-16T13:09:49.000Z</time>
      </trkpt>
      <trkpt lat="45.06243" lon="5.01915">
        <ele>175.3</ele>
        <time>2022-10-16T13:09:50.000Z</time>
      </trkpt>
      <trkpt lat="45.0624" lon="5.01909">
        <ele>175.2</ele>
        <time>2022-10-16T13:09:51.000Z</time>
      </trkpt>
      <trkpt lat="45.06238" lon="5.01903">
        <ele>175.2</ele>
        <time>2022-10-16T13:09:52.000Z</time>
      </trkpt>
      <trkpt lat="45.06236" lon="5.01896">
        <ele>175.2</ele>
        <time>2022-10-16T13:09:53.000Z</time>
      </trkpt>
      <trkpt lat="45.06234" lon="5.01889">
        <ele>175.3</ele>
        <time>2022-10-16T13:09:54.000Z</time>
      </trkpt>
      <trkpt lat="45.06233" lon="5.01883">
        <ele>175.3</ele>
        <time>2022-10-16T13:09:55.000Z</time>
      </trkpt>
      <trkpt lat="45.06231" lon="5.01877">
        <ele>175.4</ele>
        <time>2022-10-16T13:09:56.000Z</time>
      </trkpt>
      <trkpt lat="45.06229" lon="5.01871">
        <ele>175.4</ele>
        <time>2022-10-16T13:09:57.000Z</time>
      </trkpt>
      <trkpt lat="45.06228" lon="5.01865">
        <ele>175.5</ele>
        <time>2022-10-16T13:09:58.000Z</time>
      </trkpt>
      <trkpt lat="45.06227" lon="5.0186">
        <ele>175.5</ele>
        <time>2022-10-16T13:09:59.000Z</time>
      </trkpt>
      <trkpt lat="45.06225" lon="5.01854">
        <ele>175.6</ele>
        <time>2022-10-16T13:10:00.000Z</time>
      </trkpt>
      <trkpt lat="45.06223" lon="5.01849">
        <ele>175.6</ele>
        <time>2022-10-16T13:10:01.000Z</time>
      </trkpt>
      <trkpt lat="45.06222" lon="5.01843">
        <ele>175.6</ele>
        <time>2022-10-16T13:10:02.000Z</time>
      </trkpt>
      <trkpt lat="45.0622" lon="5.01838">
        <ele>175.4</ele>
        <time>2022-10-16T13:10:03.000Z</time>
      </trkpt>
      <trkpt lat="45.06219" lon="5.01833">
        <ele>175.3</ele>
        <time>2022-10-16T13:10:04.000Z</time>
      </trkpt>
      <trkpt lat="45.06217" lon="5.01828">
        <ele>175.1</ele>
        <time>2022-10-16T13:10:05.000Z</time>
      </trkpt>
      <trkpt lat="45.06216" lon="5.01823">
        <ele>175</ele>
        <time>2022-10-16T13:10:06.000Z</time>
      </trkpt>
      <trkpt lat="45.06214" lon="5.01817">
        <ele>174.8</ele>
        <time>2022-10-16T13:10:07.000Z</time>
      </trkpt>
      <trkpt lat="45.06213" lon="5.01811">
        <ele>174.7</ele>
        <time>2022-10-16T13:10:08.000Z</time>
      </trkpt>
      <trkpt lat="45.06211" lon="5.01805">
        <ele>174.6</ele>
        <time>2022-10-16T13:10:09.000Z</time>
      </trkpt>
      <trkpt lat="45.06209" lon="5.01798">
        <ele>174.4</ele>
        <time>2022-10-16T13:10:10.000Z</time>
      </trkpt>
      <trkpt lat="45.06207" lon="5.01792">
        <ele>174.3</ele>
        <time>2022-10-16T13:10:11.000Z</time>
      </trkpt>
      <trkpt lat="45.06205" lon="5.01785">
        <ele>174.1</ele>
        <time>2022-10-16T13:10:12.000Z</time>
      </trkpt>
      <trkpt lat="45.06204" lon="5.01778">
        <ele>174</ele>
        <time>2022-10-16T13:10:13.000Z</time>
      </trkpt>
      <trkpt lat="45.06202" lon="5.01771">
        <ele>174.2</ele>
        <time>2022-10-16T13:10:14.000Z</time>
      </trkpt>
      <trkpt lat="45.062" lon="5.01764">
        <ele>174.5</ele>
        <time>2022-10-16T13:10:15.000Z</time>
      </trkpt>
      <trkpt lat="45.06199" lon="5.01757">
        <ele>174.9</ele>
        <time>2022-10-16T13:10:16.000Z</time>
      </trkpt>
      <trkpt lat="45.06197" lon="5.01751">
        <ele>175.3</ele>
        <time>2022-10-16T13:10:17.000Z</time>
      </trkpt>
      <trkpt lat="45.06195" lon="5.01744">
        <ele>175.3</ele>
        <time>2022-10-16T13:10:18.000Z</time>
      </trkpt>
      <trkpt lat="45.06193" lon="5.01738">
        <ele>175.2</ele>
        <time>2022-10-16T13:10:19.000Z</time>
      </trkpt>
      <trkpt lat="45.06191" lon="5.01731">
        <ele>175.2</ele>
        <time>2022-10-16T13:10:20.000Z</time>
      </trkpt>
      <trkpt lat="45.0619" lon="5.01724">
        <ele>175.2</ele>
        <time>2022-10-16T13:10:21.000Z</time>
      </trkpt>
      <trkpt lat="45.06188" lon="5.01717">
        <ele>175.3</ele>
        <time>2022-10-16T13:10:22.000Z</time>
      </trkpt>
      <trkpt lat="45.06187" lon="5.0171">
        <ele>175.3</ele>
        <time>2022-10-16T13:10:23.000Z</time>
      </trkpt>
      <trkpt lat="45.06185" lon="5.01703">
        <ele>175.3</ele>
        <time>2022-10-16T13:10:24.000Z</time>
      </trkpt>
      <trkpt lat="45.06184" lon="5.01696">
        <ele>175.4</ele>
        <time>2022-10-16T13:10:25.000Z</time>
      </trkpt>
      <trkpt lat="45.06182" lon="5.0169">
        <ele>175.3</ele>
        <time>2022-10-16T13:10:26.000Z</time>
      </trkpt>
      <trkpt lat="45.0618" lon="5.01683">
        <ele>175.2</ele>
        <time>2022-10-16T13:10:27.000Z</time>
      </trkpt>
      <trkpt lat="45.06178" lon="5.01677">
        <ele>175</ele>
        <time>2022-10-16T13:10:28.000Z</time>
      </trkpt>
      <trkpt lat="45.06176" lon="5.01669">
        <ele>175</ele>
        <time>2022-10-16T13:10:29.000Z</time>
      </trkpt>
      <trkpt lat="45.06175" lon="5.01659">
        <ele>174.9</ele>
        <time>2022-10-16T13:10:30.000Z</time>
      </trkpt>
      <trkpt lat="45.06176" lon="5.01649">
        <ele>175</ele>
        <time>2022-10-16T13:10:31.000Z</time>
      </trkpt>
      <trkpt lat="45.06182" lon="5.0164">
        <ele>175.7</ele>
        <time>2022-10-16T13:10:32.000Z</time>
      </trkpt>
      <trkpt lat="45.06183" lon="5.01633">
        <ele>176</ele>
        <time>2022-10-16T13:10:33.000Z</time>
      </trkpt>
      <trkpt lat="45.0618" lon="5.0163">
        <ele>175.9</ele>
        <time>2022-10-16T13:10:34.000Z</time>
      </trkpt>
      <trkpt lat="45.06175" lon="5.01629">
        <ele>175.3</ele>
        <time>2022-10-16T13:10:35.000Z</time>
      </trkpt>
      <trkpt lat="45.06169" lon="5.01624">
        <ele>174.8</ele>
        <time>2022-10-16T13:10:36.000Z</time>
      </trkpt>
      <trkpt lat="45.06164" lon="5.01617">
        <ele>174.6</ele>
        <time>2022-10-16T13:10:37.000Z</time>
      </trkpt>
      <trkpt lat="45.0616" lon="5.01609">
        <ele>174.3</ele>
        <time>2022-10-16T13:10:38.000Z</time>
      </trkpt>
      <trkpt lat="45.06158" lon="5.01605">
        <ele>174.2</ele>
        <time>2022-10-16T13:10:39.000Z</time>
      </trkpt>
      <trkpt lat="45.06159" lon="5.016">
        <ele>174.4</ele>
        <time>2022-10-16T13:10:40.000Z</time>
      </trkpt>
      <trkpt lat="45.0616" lon="5.01594">
        <ele>174.7</ele>
        <time>2022-10-16T13:10:41.000Z</time>
      </trkpt>
      <trkpt lat="45.06159" lon="5.01588">
        <ele>174.8</ele>
        <time>2022-10-16T13:10:42.000Z</time>
      </trkpt>
      <trkpt lat="45.06158" lon="5.01582">
        <ele>174.7</ele>
        <time>2022-10-16T13:10:43.000Z</time>
      </trkpt>
      <trkpt lat="45.06156" lon="5.01575">
        <ele>174.6</ele>
        <time>2022-10-16T13:10:44.000Z</time>
      </trkpt>
      <trkpt lat="45.06154" lon="5.01568">
        <ele>174.4</ele>
        <time>2022-10-16T13:10:45.000Z</time>
      </trkpt>
      <trkpt lat="45.06151" lon="5.0156">
        <ele>174.1</ele>
        <time>2022-10-16T13:10:46.000Z</time>
      </trkpt>
      <trkpt lat="45.06149" lon="5.01553">
        <ele>173.8</ele>
        <time>2022-10-16T13:10:47.000Z</time>
      </trkpt>
      <trkpt lat="45.06147" lon="5.01545">
        <ele>173.5</ele>
        <time>2022-10-16T13:10:48.000Z</time>
      </trkpt>
      <trkpt lat="45.06146" lon="5.01538">
        <ele>173.3</ele>
        <time>2022-10-16T13:10:49.000Z</time>
      </trkpt>
      <trkpt lat="45.06145" lon="5.01531">
        <ele>173.2</ele>
        <time>2022-10-16T13:10:50.000Z</time>
      </trkpt>
      <trkpt lat="45.06144" lon="5.01524">
        <ele>173.2</ele>
        <time>2022-10-16T13:10:51.000Z</time>
      </trkpt>
      <trkpt lat="45.06143" lon="5.01517">
        <ele>173.4</ele>
        <time>2022-10-16T13:10:52.000Z</time>
      </trkpt>
      <trkpt lat="45.06141" lon="5.01511">
        <ele>173.6</ele>
        <time>2022-10-16T13:10:53.000Z</time>
      </trkpt>
      <trkpt lat="45.06139" lon="5.01505">
        <ele>173.7</ele>
        <time>2022-10-16T13:10:54.000Z</time>
      </trkpt>
      <trkpt lat="45.06138" lon="5.01498">
        <ele>173.9</ele>
        <time>2022-10-16T13:10:55.000Z</time>
      </trkpt>
      <trkpt lat="45.06136" lon="5.01492">
        <ele>173.8</ele>
        <time>2022-10-16T13:10:56.000Z</time>
      </trkpt>
      <trkpt lat="45.06135" lon="5.01486">
        <ele>173.9</ele>
        <time>2022-10-16T13:10:57.000Z</time>
      </trkpt>
      <trkpt lat="45.06134" lon="5.01479">
        <ele>173.9</ele>
        <time>2022-10-16T13:10:58.000Z</time>
      </trkpt>
      <trkpt lat="45.06133" lon="5.01472">
        <ele>173.8</ele>
        <time>2022-10-16T13:10:59.000Z</time>
      </trkpt>
      <trkpt lat="45.06131" lon="5.01466">
        <ele>174</ele>
        <time>2022-10-16T13:11:00.000Z</time>
      </trkpt>
      <trkpt lat="45.06131" lon="5.0146">
        <ele>174.2</ele>
        <time>2022-10-16T13:11:01.000Z</time>
      </trkpt>
      <trkpt lat="45.0613" lon="5.01454">
        <ele>174.5</ele>
        <time>2022-10-16T13:11:02.000Z</time>
      </trkpt>
      <trkpt lat="45.06129" lon="5.01448">
        <ele>174.6</ele>
        <time>2022-10-16T13:11:03.000Z</time>
      </trkpt>
      <trkpt lat="45.06128" lon="5.01441">
        <ele>174.6</ele>
        <time>2022-10-16T13:11:04.000Z</time>
      </trkpt>
      <trkpt lat="45.06127" lon="5.01435">
        <ele>174.5</ele>
        <time>2022-10-16T13:11:05.000Z</time>
      </trkpt>
      <trkpt lat="45.06125" lon="5.01429">
        <ele>174.3</ele>
        <time>2022-10-16T13:11:06.000Z</time>
      </trkpt>
      <trkpt lat="45.06124" lon="5.01424">
        <ele>174.2</ele>
        <time>2022-10-16T13:11:07.000Z</time>
      </trkpt>
      <trkpt lat="45.06123" lon="5.01418">
        <ele>174.2</ele>
        <time>2022-10-16T13:11:08.000Z</time>
      </trkpt>
      <trkpt lat="45.06123" lon="5.01412">
        <ele>174.1</ele>
        <time>2022-10-16T13:11:09.000Z</time>
      </trkpt>
      <trkpt lat="45.06122" lon="5.01406">
        <ele>173.9</ele>
        <time>2022-10-16T13:11:10.000Z</time>
      </trkpt>
      <trkpt lat="45.06121" lon="5.014">
        <ele>173.8</ele>
        <time>2022-10-16T13:11:11.000Z</time>
      </trkpt>
      <trkpt lat="45.06121" lon="5.01394">
        <ele>173.7</ele>
        <time>2022-10-16T13:11:12.000Z</time>
      </trkpt>
      <trkpt lat="45.0612" lon="5.01387">
        <ele>173.7</ele>
        <time>2022-10-16T13:11:13.000Z</time>
      </trkpt>
      <trkpt lat="45.06119" lon="5.01381">
        <ele>173.7</ele>
        <time>2022-10-16T13:11:14.000Z</time>
      </trkpt>
      <trkpt lat="45.06118" lon="5.01375">
        <ele>173.8</ele>
        <time>2022-10-16T13:11:15.000Z</time>
      </trkpt>
      <trkpt lat="45.06117" lon="5.01369">
        <ele>173.8</ele>
        <time>2022-10-16T13:11:16.000Z</time>
      </trkpt>
      <trkpt lat="45.06116" lon="5.01363">
        <ele>173.8</ele>
        <time>2022-10-16T13:11:17.000Z</time>
      </trkpt>
      <trkpt lat="45.06115" lon="5.01357">
        <ele>174</ele>
        <time>2022-10-16T13:11:18.000Z</time>
      </trkpt>
      <trkpt lat="45.06114" lon="5.01352">
        <ele>174.2</ele>
        <time>2022-10-16T13:11:19.000Z</time>
      </trkpt>
      <trkpt lat="45.06113" lon="5.01346">
        <ele>174.4</ele>
        <time>2022-10-16T13:11:20.000Z</time>
      </trkpt>
      <trkpt lat="45.06112" lon="5.0134">
        <ele>174.7</ele>
        <time>2022-10-16T13:11:21.000Z</time>
      </trkpt>
      <trkpt lat="45.06111" lon="5.01334">
        <ele>175</ele>
        <time>2022-10-16T13:11:22.000Z</time>
      </trkpt>
      <trkpt lat="45.0611" lon="5.01328">
        <ele>174.8</ele>
        <time>2022-10-16T13:11:23.000Z</time>
      </trkpt>
      <trkpt lat="45.06109" lon="5.01321">
        <ele>174.7</ele>
        <time>2022-10-16T13:11:24.000Z</time>
      </trkpt>
      <trkpt lat="45.06108" lon="5.01315">
        <ele>174.5</ele>
        <time>2022-10-16T13:11:25.000Z</time>
      </trkpt>
      <trkpt lat="45.06108" lon="5.01309">
        <ele>174.5</ele>
        <time>2022-10-16T13:11:26.000Z</time>
      </trkpt>
      <trkpt lat="45.06108" lon="5.01302">
        <ele>174.6</ele>
        <time>2022-10-16T13:11:27.000Z</time>
      </trkpt>
      <trkpt lat="45.06107" lon="5.01296">
        <ele>174.7</ele>
        <time>2022-10-16T13:11:28.000Z</time>
      </trkpt>
      <trkpt lat="45.06107" lon="5.0129">
        <ele>174.9</ele>
        <time>2022-10-16T13:11:29.000Z</time>
      </trkpt>
      <trkpt lat="45.06107" lon="5.01284">
        <ele>175.1</ele>
        <time>2022-10-16T13:11:30.000Z</time>
      </trkpt>
      <trkpt lat="45.06107" lon="5.01278">
        <ele>175.3</ele>
        <time>2022-10-16T13:11:31.000Z</time>
      </trkpt>
      <trkpt lat="45.06107" lon="5.01271">
        <ele>175</ele>
        <time>2022-10-16T13:11:32.000Z</time>
      </trkpt>
      <trkpt lat="45.06106" lon="5.01265">
        <ele>174.7</ele>
        <time>2022-10-16T13:11:33.000Z</time>
      </trkpt>
      <trkpt lat="45.06105" lon="5.01259">
        <ele>174.6</ele>
        <time>2022-10-16T13:11:34.000Z</time>
      </trkpt>
      <trkpt lat="45.06105" lon="5.01253">
        <ele>174.4</ele>
        <time>2022-10-16T13:11:35.000Z</time>
      </trkpt>
      <trkpt lat="45.06105" lon="5.01247">
        <ele>174.3</ele>
        <time>2022-10-16T13:11:36.000Z</time>
      </trkpt>
      <trkpt lat="45.06105" lon="5.01241">
        <ele>174.1</ele>
        <time>2022-10-16T13:11:37.000Z</time>
      </trkpt>
      <trkpt lat="45.06105" lon="5.01236">
        <ele>173.9</ele>
        <time>2022-10-16T13:11:38.000Z</time>
      </trkpt>
      <trkpt lat="45.06104" lon="5.0123">
        <ele>173.7</ele>
        <time>2022-10-16T13:11:39.000Z</time>
      </trkpt>
      <trkpt lat="45.06104" lon="5.01225">
        <ele>173.5</ele>
        <time>2022-10-16T13:11:40.000Z</time>
      </trkpt>
      <trkpt lat="45.06103" lon="5.01219">
        <ele>173.4</ele>
        <time>2022-10-16T13:11:41.000Z</time>
      </trkpt>
      <trkpt lat="45.06102" lon="5.01213">
        <ele>173.2</ele>
        <time>2022-10-16T13:11:42.000Z</time>
      </trkpt>
      <trkpt lat="45.06101" lon="5.01206">
        <ele>173.1</ele>
        <time>2022-10-16T13:11:43.000Z</time>
      </trkpt>
      <trkpt lat="45.06101" lon="5.012">
        <ele>173</ele>
        <time>2022-10-16T13:11:44.000Z</time>
      </trkpt>
      <trkpt lat="45.06102" lon="5.01193">
        <ele>173</ele>
        <time>2022-10-16T13:11:45.000Z</time>
      </trkpt>
      <trkpt lat="45.06102" lon="5.01186">
        <ele>173.2</ele>
        <time>2022-10-16T13:11:46.000Z</time>
      </trkpt>
      <trkpt lat="45.06102" lon="5.01179">
        <ele>173.4</ele>
        <time>2022-10-16T13:11:47.000Z</time>
      </trkpt>
      <trkpt lat="45.06102" lon="5.01172">
        <ele>173.6</ele>
        <time>2022-10-16T13:11:48.000Z</time>
      </trkpt>
      <trkpt lat="45.06102" lon="5.01164">
        <ele>173.6</ele>
        <time>2022-10-16T13:11:49.000Z</time>
      </trkpt>
      <trkpt lat="45.06103" lon="5.01158">
        <ele>173.3</ele>
        <time>2022-10-16T13:11:50.000Z</time>
      </trkpt>
      <trkpt lat="45.06103" lon="5.01151">
        <ele>173.1</ele>
        <time>2022-10-16T13:11:51.000Z</time>
      </trkpt>
      <trkpt lat="45.06104" lon="5.01145">
        <ele>172.8</ele>
        <time>2022-10-16T13:11:52.000Z</time>
      </trkpt>
      <trkpt lat="45.06105" lon="5.0114">
        <ele>172.6</ele>
        <time>2022-10-16T13:11:53.000Z</time>
      </trkpt>
      <trkpt lat="45.06108" lon="5.01137">
        <ele>172.7</ele>
        <time>2022-10-16T13:11:54.000Z</time>
      </trkpt>
      <trkpt lat="45.0611" lon="5.01134">
        <ele>172.7</ele>
        <time>2022-10-16T13:11:55.000Z</time>
      </trkpt>
      <trkpt lat="45.06112" lon="5.01133">
        <ele>172.9</ele>
        <time>2022-10-16T13:11:56.000Z</time>
      </trkpt>
      <trkpt lat="45.06116" lon="5.01133">
        <ele>173.3</ele>
        <time>2022-10-16T13:11:57.000Z</time>
      </trkpt>
      <trkpt lat="45.06119" lon="5.01132">
        <ele>173.7</ele>
        <time>2022-10-16T13:11:58.000Z</time>
      </trkpt>
      <trkpt lat="45.06122" lon="5.01131">
        <ele>174</ele>
        <time>2022-10-16T13:11:59.000Z</time>
      </trkpt>
      <trkpt lat="45.06125" lon="5.01131">
        <ele>174.4</ele>
        <time>2022-10-16T13:12:00.000Z</time>
      </trkpt>
      <trkpt lat="45.06128" lon="5.0113">
        <ele>174.7</ele>
        <time>2022-10-16T13:12:01.000Z</time>
      </trkpt>
      <trkpt lat="45.06132" lon="5.01129">
        <ele>175.1</ele>
        <time>2022-10-16T13:12:02.000Z</time>
      </trkpt>
      <trkpt lat="45.06135" lon="5.01128">
        <ele>175.4</ele>
        <time>2022-10-16T13:12:03.000Z</time>
      </trkpt>
      <trkpt lat="45.06139" lon="5.01127">
        <ele>175.7</ele>
        <time>2022-10-16T13:12:04.000Z</time>
      </trkpt>
      <trkpt lat="45.06142" lon="5.01125">
        <ele>175.6</ele>
        <time>2022-10-16T13:12:05.000Z</time>
      </trkpt>
      <trkpt lat="45.06146" lon="5.01124">
        <ele>175.5</ele>
        <time>2022-10-16T13:12:06.000Z</time>
      </trkpt>
      <trkpt lat="45.06149" lon="5.01123">
        <ele>175.5</ele>
        <time>2022-10-16T13:12:07.000Z</time>
      </trkpt>
      <trkpt lat="45.06153" lon="5.01121">
        <ele>175.4</ele>
        <time>2022-10-16T13:12:08.000Z</time>
      </trkpt>
      <trkpt lat="45.06157" lon="5.0112">
        <ele>175.4</ele>
        <time>2022-10-16T13:12:09.000Z</time>
      </trkpt>
      <trkpt lat="45.06161" lon="5.01118">
        <ele>175.3</ele>
        <time>2022-10-16T13:12:10.000Z</time>
      </trkpt>
      <trkpt lat="45.06165" lon="5.01116">
        <ele>175.3</ele>
        <time>2022-10-16T13:12:11.000Z</time>
      </trkpt>
      <trkpt lat="45.06169" lon="5.01114">
        <ele>175.5</ele>
        <time>2022-10-16T13:12:12.000Z</time>
      </trkpt>
      <trkpt lat="45.06173" lon="5.01113">
        <ele>175.8</ele>
        <time>2022-10-16T13:12:13.000Z</time>
      </trkpt>
      <trkpt lat="45.06177" lon="5.01111">
        <ele>176.1</ele>
        <time>2022-10-16T13:12:14.000Z</time>
      </trkpt>
      <trkpt lat="45.06181" lon="5.01109">
        <ele>176.4</ele>
        <time>2022-10-16T13:12:15.000Z</time>
      </trkpt>
      <trkpt lat="45.06185" lon="5.01107">
        <ele>176.7</ele>
        <time>2022-10-16T13:12:16.000Z</time>
      </trkpt>
      <trkpt lat="45.06189" lon="5.01105">
        <ele>177</ele>
        <time>2022-10-16T13:12:17.000Z</time>
      </trkpt>
      <trkpt lat="45.06192" lon="5.01104">
        <ele>177.2</ele>
        <time>2022-10-16T13:12:18.000Z</time>
      </trkpt>
      <trkpt lat="45.06197" lon="5.01102">
        <ele>177.5</ele>
        <time>2022-10-16T13:12:19.000Z</time>
      </trkpt>
      <trkpt lat="45.06201" lon="5.011">
        <ele>177.8</ele>
        <time>2022-10-16T13:12:20.000Z</time>
      </trkpt>
      <trkpt lat="45.06205" lon="5.01098">
        <ele>178</ele>
        <time>2022-10-16T13:12:21.000Z</time>
      </trkpt>
      <trkpt lat="45.06209" lon="5.01096">
        <ele>178.2</ele>
        <time>2022-10-16T13:12:22.000Z</time>
      </trkpt>
      <trkpt lat="45.06213" lon="5.01095">
        <ele>178.4</ele>
        <time>2022-10-16T13:12:23.000Z</time>
      </trkpt>
      <trkpt lat="45.06217" lon="5.01094">
        <ele>178.7</ele>
        <time>2022-10-16T13:12:24.000Z</time>
      </trkpt>
      <trkpt lat="45.06221" lon="5.01093">
        <ele>179</ele>
        <time>2022-10-16T13:12:25.000Z</time>
      </trkpt>
      <trkpt lat="45.06225" lon="5.01093">
        <ele>179</ele>
        <time>2022-10-16T13:12:26.000Z</time>
      </trkpt>
      <trkpt lat="45.06228" lon="5.01092">
        <ele>178.9</ele>
        <time>2022-10-16T13:12:27.000Z</time>
      </trkpt>
      <trkpt lat="45.06232" lon="5.0109">
        <ele>178.8</ele>
        <time>2022-10-16T13:12:28.000Z</time>
      </trkpt>
      <trkpt lat="45.06237" lon="5.0109">
        <ele>178.7</ele>
        <time>2022-10-16T13:12:29.000Z</time>
      </trkpt>
      <trkpt lat="45.06241" lon="5.01089">
        <ele>178.6</ele>
        <time>2022-10-16T13:12:30.000Z</time>
      </trkpt>
      <trkpt lat="45.06246" lon="5.01089">
        <ele>178.6</ele>
        <time>2022-10-16T13:12:31.000Z</time>
      </trkpt>
      <trkpt lat="45.06251" lon="5.01089">
        <ele>178.6</ele>
        <time>2022-10-16T13:12:32.000Z</time>
      </trkpt>
      <trkpt lat="45.06256" lon="5.01088">
        <ele>178.7</ele>
        <time>2022-10-16T13:12:33.000Z</time>
      </trkpt>
      <trkpt lat="45.0626" lon="5.01089">
        <ele>178.9</ele>
        <time>2022-10-16T13:12:34.000Z</time>
      </trkpt>
      <trkpt lat="45.06264" lon="5.01089">
        <ele>179.1</ele>
        <time>2022-10-16T13:12:35.000Z</time>
      </trkpt>
      <trkpt lat="45.06269" lon="5.0109">
        <ele>179.3</ele>
        <time>2022-10-16T13:12:36.000Z</time>
      </trkpt>
      <trkpt lat="45.06273" lon="5.0109">
        <ele>179.5</ele>
        <time>2022-10-16T13:12:37.000Z</time>
      </trkpt>
      <trkpt lat="45.06277" lon="5.0109">
        <ele>179.7</ele>
        <time>2022-10-16T13:12:38.000Z</time>
      </trkpt>
      <trkpt lat="45.06281" lon="5.0109">
        <ele>179.6</ele>
        <time>2022-10-16T13:12:39.000Z</time>
      </trkpt>
      <trkpt lat="45.06285" lon="5.01091">
        <ele>179.6</ele>
        <time>2022-10-16T13:12:40.000Z</time>
      </trkpt>
      <trkpt lat="45.06288" lon="5.01092">
        <ele>179.6</ele>
        <time>2022-10-16T13:12:41.000Z</time>
      </trkpt>
      <trkpt lat="45.06292" lon="5.01093">
        <ele>179.6</ele>
        <time>2022-10-16T13:12:42.000Z</time>
      </trkpt>
      <trkpt lat="45.06296" lon="5.01095">
        <ele>179.6</ele>
        <time>2022-10-16T13:12:43.000Z</time>
      </trkpt>
      <trkpt lat="45.063" lon="5.01097">
        <ele>179.6</ele>
        <time>2022-10-16T13:12:44.000Z</time>
      </trkpt>
      <trkpt lat="45.06305" lon="5.01097">
        <ele>179.5</ele>
        <time>2022-10-16T13:12:45.000Z</time>
      </trkpt>
      <trkpt lat="45.06309" lon="5.01098">
        <ele>179.4</ele>
        <time>2022-10-16T13:12:46.000Z</time>
      </trkpt>
      <trkpt lat="45.06312" lon="5.011">
        <ele>179.5</ele>
        <time>2022-10-16T13:12:47.000Z</time>
      </trkpt>
      <trkpt lat="45.06317" lon="5.01104">
        <ele>179.7</ele>
        <time>2022-10-16T13:12:48.000Z</time>
      </trkpt>
      <trkpt lat="45.0632" lon="5.01106">
        <ele>179.9</ele>
        <time>2022-10-16T13:12:49.000Z</time>
      </trkpt>
      <trkpt lat="45.06325" lon="5.01109">
        <ele>180</ele>
        <time>2022-10-16T13:12:50.000Z</time>
      </trkpt>
      <trkpt lat="45.06331" lon="5.01112">
        <ele>180.3</ele>
        <time>2022-10-16T13:12:51.000Z</time>
      </trkpt>
      <trkpt lat="45.06336" lon="5.01115">
        <ele>180.9</ele>
        <time>2022-10-16T13:12:52.000Z</time>
      </trkpt>
      <trkpt lat="45.06341" lon="5.01117">
        <ele>181.2</ele>
        <time>2022-10-16T13:12:53.000Z</time>
      </trkpt>
      <trkpt lat="45.06346" lon="5.01119">
        <ele>181.6</ele>
        <time>2022-10-16T13:12:54.000Z</time>
      </trkpt>
      <trkpt lat="45.0635" lon="5.01121">
        <ele>181.9</ele>
        <time>2022-10-16T13:12:55.000Z</time>
      </trkpt>
      <trkpt lat="45.06354" lon="5.01122">
        <ele>181.9</ele>
        <time>2022-10-16T13:12:56.000Z</time>
      </trkpt>
      <trkpt lat="45.06359" lon="5.01121">
        <ele>181.6</ele>
        <time>2022-10-16T13:12:57.000Z</time>
      </trkpt>
      <trkpt lat="45.06364" lon="5.01121">
        <ele>181.3</ele>
        <time>2022-10-16T13:12:58.000Z</time>
      </trkpt>
      <trkpt lat="45.06368" lon="5.01121">
        <ele>181.1</ele>
        <time>2022-10-16T13:12:59.000Z</time>
      </trkpt>
      <trkpt lat="45.06373" lon="5.01123">
        <ele>181.1</ele>
        <time>2022-10-16T13:13:00.000Z</time>
      </trkpt>
      <trkpt lat="45.06378" lon="5.01124">
        <ele>181.1</ele>
        <time>2022-10-16T13:13:01.000Z</time>
      </trkpt>
      <trkpt lat="45.06383" lon="5.01125">
        <ele>181</ele>
        <time>2022-10-16T13:13:02.000Z</time>
      </trkpt>
      <trkpt lat="45.06388" lon="5.01126">
        <ele>180.8</ele>
        <time>2022-10-16T13:13:03.000Z</time>
      </trkpt>
      <trkpt lat="45.06393" lon="5.01128">
        <ele>180.8</ele>
        <time>2022-10-16T13:13:04.000Z</time>
      </trkpt>
      <trkpt lat="45.06399" lon="5.01129">
        <ele>180.8</ele>
        <time>2022-10-16T13:13:05.000Z</time>
      </trkpt>
      <trkpt lat="45.06404" lon="5.0113">
        <ele>180.7</ele>
        <time>2022-10-16T13:13:06.000Z</time>
      </trkpt>
      <trkpt lat="45.06409" lon="5.01132">
        <ele>180.7</ele>
        <time>2022-10-16T13:13:07.000Z</time>
      </trkpt>
      <trkpt lat="45.06414" lon="5.01134">
        <ele>180.6</ele>
        <time>2022-10-16T13:13:08.000Z</time>
      </trkpt>
      <trkpt lat="45.06419" lon="5.01136">
        <ele>180.6</ele>
        <time>2022-10-16T13:13:09.000Z</time>
      </trkpt>
      <trkpt lat="45.06425" lon="5.01138">
        <ele>180.7</ele>
        <time>2022-10-16T13:13:10.000Z</time>
      </trkpt>
      <trkpt lat="45.0643" lon="5.0114">
        <ele>180.7</ele>
        <time>2022-10-16T13:13:11.000Z</time>
      </trkpt>
      <trkpt lat="45.06435" lon="5.01141">
        <ele>180.9</ele>
        <time>2022-10-16T13:13:12.000Z</time>
      </trkpt>
      <trkpt lat="45.0644" lon="5.01143">
        <ele>181.1</ele>
        <time>2022-10-16T13:13:13.000Z</time>
      </trkpt>
      <trkpt lat="45.06445" lon="5.01144">
        <ele>181.1</ele>
        <time>2022-10-16T13:13:14.000Z</time>
      </trkpt>
      <trkpt lat="45.0645" lon="5.01145">
        <ele>181.1</ele>
        <time>2022-10-16T13:13:15.000Z</time>
      </trkpt>
      <trkpt lat="45.06455" lon="5.01147">
        <ele>181.1</ele>
        <time>2022-10-16T13:13:16.000Z</time>
      </trkpt>
      <trkpt lat="45.06459" lon="5.01149">
        <ele>181.2</ele>
        <time>2022-10-16T13:13:17.000Z</time>
      </trkpt>
      <trkpt lat="45.06463" lon="5.01151">
        <ele>181.3</ele>
        <time>2022-10-16T13:13:18.000Z</time>
      </trkpt>
      <trkpt lat="45.06468" lon="5.01152">
        <ele>181.2</ele>
        <time>2022-10-16T13:13:19.000Z</time>
      </trkpt>
      <trkpt lat="45.06473" lon="5.01153">
        <ele>181</ele>
        <time>2022-10-16T13:13:20.000Z</time>
      </trkpt>
      <trkpt lat="45.06478" lon="5.01154">
        <ele>181.1</ele>
        <time>2022-10-16T13:13:21.000Z</time>
      </trkpt>
      <trkpt lat="45.06483" lon="5.01156">
        <ele>181.2</ele>
        <time>2022-10-16T13:13:22.000Z</time>
      </trkpt>
      <trkpt lat="45.06488" lon="5.01158">
        <ele>181.4</ele>
        <time>2022-10-16T13:13:23.000Z</time>
      </trkpt>
      <trkpt lat="45.06493" lon="5.0116">
        <ele>181.5</ele>
        <time>2022-10-16T13:13:24.000Z</time>
      </trkpt>
      <trkpt lat="45.06498" lon="5.01163">
        <ele>181.6</ele>
        <time>2022-10-16T13:13:25.000Z</time>
      </trkpt>
      <trkpt lat="45.06504" lon="5.01165">
        <ele>181.7</ele>
        <time>2022-10-16T13:13:26.000Z</time>
      </trkpt>
      <trkpt lat="45.06509" lon="5.01167">
        <ele>181.7</ele>
        <time>2022-10-16T13:13:27.000Z</time>
      </trkpt>
      <trkpt lat="45.06514" lon="5.0117">
        <ele>182.2</ele>
        <time>2022-10-16T13:13:28.000Z</time>
      </trkpt>
      <trkpt lat="45.06519" lon="5.01174">
        <ele>182.7</ele>
        <time>2022-10-16T13:13:29.000Z</time>
      </trkpt>
      <trkpt lat="45.06524" lon="5.01177">
        <ele>183.1</ele>
        <time>2022-10-16T13:13:30.000Z</time>
      </trkpt>
      <trkpt lat="45.06528" lon="5.0118">
        <ele>183.3</ele>
        <time>2022-10-16T13:13:31.000Z</time>
      </trkpt>
      <trkpt lat="45.06532" lon="5.01183">
        <ele>183.8</ele>
        <time>2022-10-16T13:13:32.000Z</time>
      </trkpt>
      <trkpt lat="45.06536" lon="5.01186">
        <ele>184.1</ele>
        <time>2022-10-16T13:13:33.000Z</time>
      </trkpt>
      <trkpt lat="45.0654" lon="5.0119">
        <ele>184.4</ele>
        <time>2022-10-16T13:13:34.000Z</time>
      </trkpt>
      <trkpt lat="45.06543" lon="5.01193">
        <ele>184.6</ele>
        <time>2022-10-16T13:13:35.000Z</time>
      </trkpt>
      <trkpt lat="45.06546" lon="5.01195">
        <ele>184.9</ele>
        <time>2022-10-16T13:13:36.000Z</time>
      </trkpt>
      <trkpt lat="45.0655" lon="5.01198">
        <ele>185.2</ele>
        <time>2022-10-16T13:13:37.000Z</time>
      </trkpt>
      <trkpt lat="45.06553" lon="5.01202">
        <ele>185.5</ele>
        <time>2022-10-16T13:13:38.000Z</time>
      </trkpt>
      <trkpt lat="45.06557" lon="5.01204">
        <ele>185.7</ele>
        <time>2022-10-16T13:13:39.000Z</time>
      </trkpt>
      <trkpt lat="45.0656" lon="5.01208">
        <ele>185.8</ele>
        <time>2022-10-16T13:13:40.000Z</time>
      </trkpt>
      <trkpt lat="45.06563" lon="5.01211">
        <ele>185.8</ele>
        <time>2022-10-16T13:13:41.000Z</time>
      </trkpt>
      <trkpt lat="45.06566" lon="5.01215">
        <ele>185.7</ele>
        <time>2022-10-16T13:13:42.000Z</time>
      </trkpt>
      <trkpt lat="45.06569" lon="5.01219">
        <ele>185.7</ele>
        <time>2022-10-16T13:13:43.000Z</time>
      </trkpt>
      <trkpt lat="45.06572" lon="5.01223">
        <ele>185.5</ele>
        <time>2022-10-16T13:13:44.000Z</time>
      </trkpt>
      <trkpt lat="45.06576" lon="5.01227">
        <ele>185.6</ele>
        <time>2022-10-16T13:13:45.000Z</time>
      </trkpt>
      <trkpt lat="45.06579" lon="5.01231">
        <ele>185.6</ele>
        <time>2022-10-16T13:13:46.000Z</time>
      </trkpt>
      <trkpt lat="45.06582" lon="5.01235">
        <ele>185.5</ele>
        <time>2022-10-16T13:13:47.000Z</time>
      </trkpt>
      <trkpt lat="45.06586" lon="5.01239">
        <ele>185.8</ele>
        <time>2022-10-16T13:13:48.000Z</time>
      </trkpt>
      <trkpt lat="45.06589" lon="5.01243">
        <ele>185.9</ele>
        <time>2022-10-16T13:13:49.000Z</time>
      </trkpt>
      <trkpt lat="45.06592" lon="5.01247">
        <ele>186</ele>
        <time>2022-10-16T13:13:50.000Z</time>
      </trkpt>
      <trkpt lat="45.06595" lon="5.01251">
        <ele>186</ele>
        <time>2022-10-16T13:13:51.000Z</time>
      </trkpt>
      <trkpt lat="45.06599" lon="5.01255">
        <ele>186.2</ele>
        <time>2022-10-16T13:13:52.000Z</time>
      </trkpt>
      <trkpt lat="45.06602" lon="5.01259">
        <ele>186.2</ele>
        <time>2022-10-16T13:13:53.000Z</time>
      </trkpt>
      <trkpt lat="45.06606" lon="5.01263">
        <ele>186.1</ele>
        <time>2022-10-16T13:13:54.000Z</time>
      </trkpt>
      <trkpt lat="45.0661" lon="5.01267">
        <ele>185.8</ele>
        <time>2022-10-16T13:13:55.000Z</time>
      </trkpt>
      <trkpt lat="45.06613" lon="5.01271">
        <ele>185.8</ele>
        <time>2022-10-16T13:13:56.000Z</time>
      </trkpt>
      <trkpt lat="45.06617" lon="5.01275">
        <ele>186</ele>
        <time>2022-10-16T13:13:57.000Z</time>
      </trkpt>
      <trkpt lat="45.0662" lon="5.01278">
        <ele>186.2</ele>
        <time>2022-10-16T13:13:58.000Z</time>
      </trkpt>
      <trkpt lat="45.06622" lon="5.01282">
        <ele>186.5</ele>
        <time>2022-10-16T13:13:59.000Z</time>
      </trkpt>
      <trkpt lat="45.06625" lon="5.01285">
        <ele>186.6</ele>
        <time>2022-10-16T13:14:00.000Z</time>
      </trkpt>
      <trkpt lat="45.06628" lon="5.01288">
        <ele>186.6</ele>
        <time>2022-10-16T13:14:01.000Z</time>
      </trkpt>
      <trkpt lat="45.0663" lon="5.0129">
        <ele>186.6</ele>
        <time>2022-10-16T13:14:02.000Z</time>
      </trkpt>
      <trkpt lat="45.06632" lon="5.01293">
        <ele>186.6</ele>
        <time>2022-10-16T13:14:03.000Z</time>
      </trkpt>
      <trkpt lat="45.06636" lon="5.01298">
        <ele>186.2</ele>
        <time>2022-10-16T13:14:05.000Z</time>
      </trkpt>
      <trkpt lat="45.06637" lon="5.013">
        <ele>186</ele>
        <time>2022-10-16T13:14:06.000Z</time>
      </trkpt>
      <trkpt lat="45.0664" lon="5.01303">
        <ele>185.8</ele>
        <time>2022-10-16T13:14:08.000Z</time>
      </trkpt>
      <trkpt lat="45.0664" lon="5.01306">
        <ele>186</ele>
        <time>2022-10-16T13:14:09.000Z</time>
      </trkpt>
      <trkpt lat="45.06642" lon="5.01309">
        <ele>186.4</ele>
        <time>2022-10-16T13:14:10.000Z</time>
      </trkpt>
      <trkpt lat="45.06643" lon="5.01311">
        <ele>186.7</ele>
        <time>2022-10-16T13:14:11.000Z</time>
      </trkpt>
      <trkpt lat="45.06644" lon="5.01313">
        <ele>187</ele>
        <time>2022-10-16T13:14:12.000Z</time>
      </trkpt>
      <trkpt lat="45.06646" lon="5.01315">
        <ele>187.2</ele>
        <time>2022-10-16T13:14:13.000Z</time>
      </trkpt>
      <trkpt lat="45.06648" lon="5.01317">
        <ele>187.2</ele>
        <time>2022-10-16T13:14:15.000Z</time>
      </trkpt>
      <trkpt lat="45.0665" lon="5.01319">
        <ele>187.2</ele>
        <time>2022-10-16T13:14:17.000Z</time>
      </trkpt>
      <trkpt lat="45.0665" lon="5.01316">
        <ele>186.9</ele>
        <time>2022-10-16T13:17:15.000Z</time>
      </trkpt>
      <trkpt lat="45.06649" lon="5.01327">
        <ele>188.3</ele>
        <time>2022-10-16T13:17:41.000Z</time>
      </trkpt>
      <trkpt lat="45.06649" lon="5.01327">
        <ele>188.3</ele>
        <time>2022-10-16T13:17:41.000Z</time>
      </trkpt>
      <trkpt lat="45.0665" lon="5.01315">
        <ele>186.7</ele>
        <time>2022-10-16T13:33:50.000Z</time>
      </trkpt>
      <trkpt lat="45.0665" lon="5.01315">
        <ele>186.7</ele>
        <time>2022-10-16T13:33:50.000Z</time>
      </trkpt>
      <trkpt lat="45.0665" lon="5.01299">
        <ele>185.1</ele>
        <time>2022-10-16T13:33:51.000Z</time>
      </trkpt>
      <trkpt lat="45.06648" lon="5.01296">
        <ele>185</ele>
        <time>2022-10-16T13:33:52.000Z</time>
      </trkpt>
      <trkpt lat="45.06659" lon="5.01294">
        <ele>184.5</ele>
        <time>2022-10-16T13:33:53.000Z</time>
      </trkpt>
      <trkpt lat="45.06673" lon="5.01315">
        <ele>185.3</ele>
        <time>2022-10-16T13:33:55.000Z</time>
      </trkpt>
      <trkpt lat="45.06673" lon="5.01321">
        <ele>185.4</ele>
        <time>2022-10-16T13:33:56.000Z</time>
      </trkpt>
      <trkpt lat="45.06671" lon="5.01325">
        <ele>185.6</ele>
        <time>2022-10-16T13:33:57.000Z</time>
      </trkpt>
      <trkpt lat="45.06668" lon="5.01328">
        <ele>185.8</ele>
        <time>2022-10-16T13:33:58.000Z</time>
      </trkpt>
      <trkpt lat="45.06661" lon="5.01325">
        <ele>186.4</ele>
        <time>2022-10-16T13:33:59.000Z</time>
      </trkpt>
      <trkpt lat="45.06659" lon="5.01325">
        <ele>186.7</ele>
        <time>2022-10-16T13:34:00.000Z</time>
      </trkpt>
      <trkpt lat="45.06657" lon="5.01327">
        <ele>187.2</ele>
        <time>2022-10-16T13:34:01.000Z</time>
      </trkpt>
      <trkpt lat="45.06655" lon="5.01326">
        <ele>187.4</ele>
        <time>2022-10-16T13:34:05.000Z</time>
      </trkpt>
      <trkpt lat="45.06655" lon="5.01319">
        <ele>186.7</ele>
        <time>2022-10-16T13:34:12.000Z</time>
      </trkpt>
      <trkpt lat="45.06654" lon="5.01316">
        <ele>186.5</ele>
        <time>2022-10-16T13:34:14.000Z</time>
      </trkpt>
      <trkpt lat="45.06652" lon="5.01311">
        <ele>186.2</ele>
        <time>2022-10-16T13:34:16.000Z</time>
      </trkpt>
      <trkpt lat="45.06651" lon="5.01308">
        <ele>185.9</ele>
        <time>2022-10-16T13:34:17.000Z</time>
      </trkpt>
      <trkpt lat="45.06649" lon="5.01305">
        <ele>185.6</ele>
        <time>2022-10-16T13:34:18.000Z</time>
      </trkpt>
      <trkpt lat="45.06646" lon="5.01301">
        <ele>185.4</ele>
        <time>2022-10-16T13:34:19.000Z</time>
      </trkpt>
      <trkpt lat="45.06643" lon="5.01298">
        <ele>185.3</ele>
        <time>2022-10-16T13:34:20.000Z</time>
      </trkpt>
      <trkpt lat="45.06641" lon="5.01294">
        <ele>185.1</ele>
        <time>2022-10-16T13:34:21.000Z</time>
      </trkpt>
      <trkpt lat="45.06638" lon="5.01291">
        <ele>185.2</ele>
        <time>2022-10-16T13:34:22.000Z</time>
      </trkpt>
      <trkpt lat="45.06635" lon="5.01287">
        <ele>185.4</ele>
        <time>2022-10-16T13:34:23.000Z</time>
      </trkpt>
      <trkpt lat="45.06631" lon="5.01284">
        <ele>185.6</ele>
        <time>2022-10-16T13:34:24.000Z</time>
      </trkpt>
      <trkpt lat="45.06628" lon="5.01281">
        <ele>185.6</ele>
        <time>2022-10-16T13:34:25.000Z</time>
      </trkpt>
      <trkpt lat="45.06625" lon="5.01277">
        <ele>185.4</ele>
        <time>2022-10-16T13:34:26.000Z</time>
      </trkpt>
      <trkpt lat="45.06622" lon="5.01274">
        <ele>185.4</ele>
        <time>2022-10-16T13:34:27.000Z</time>
      </trkpt>
      <trkpt lat="45.06618" lon="5.0127">
        <ele>185.2</ele>
        <time>2022-10-16T13:34:28.000Z</time>
      </trkpt>
      <trkpt lat="45.06615" lon="5.01266">
        <ele>185</ele>
        <time>2022-10-16T13:34:29.000Z</time>
      </trkpt>
      <trkpt lat="45.06611" lon="5.01263">
        <ele>184.8</ele>
        <time>2022-10-16T13:34:30.000Z</time>
      </trkpt>
      <trkpt lat="45.06608" lon="5.01259">
        <ele>185</ele>
        <time>2022-10-16T13:34:31.000Z</time>
      </trkpt>
      <trkpt lat="45.06605" lon="5.01255">
        <ele>185</ele>
        <time>2022-10-16T13:34:32.000Z</time>
      </trkpt>
      <trkpt lat="45.06602" lon="5.01251">
        <ele>184.9</ele>
        <time>2022-10-16T13:34:33.000Z</time>
      </trkpt>
      <trkpt lat="45.06598" lon="5.01248">
        <ele>185</ele>
        <time>2022-10-16T13:34:34.000Z</time>
      </trkpt>
      <trkpt lat="45.06595" lon="5.01244">
        <ele>185.2</ele>
        <time>2022-10-16T13:34:35.000Z</time>
      </trkpt>
      <trkpt lat="45.06591" lon="5.0124">
        <ele>185.2</ele>
        <time>2022-10-16T13:34:36.000Z</time>
      </trkpt>
      <trkpt lat="45.06588" lon="5.01238">
        <ele>185.2</ele>
        <time>2022-10-16T13:34:37.000Z</time>
      </trkpt>
      <trkpt lat="45.06585" lon="5.01234">
        <ele>185</ele>
        <time>2022-10-16T13:34:38.000Z</time>
      </trkpt>
      <trkpt lat="45.06581" lon="5.01231">
        <ele>185.3</ele>
        <time>2022-10-16T13:34:39.000Z</time>
      </trkpt>
      <trkpt lat="45.06577" lon="5.01228">
        <ele>185.4</ele>
        <time>2022-10-16T13:34:40.000Z</time>
      </trkpt>
      <trkpt lat="45.06573" lon="5.01223">
        <ele>185.5</ele>
        <time>2022-10-16T13:34:41.000Z</time>
      </trkpt>
      <trkpt lat="45.06569" lon="5.01219">
        <ele>185.7</ele>
        <time>2022-10-16T13:34:42.000Z</time>
      </trkpt>
      <trkpt lat="45.06566" lon="5.01216">
        <ele>186</ele>
        <time>2022-10-16T13:34:43.000Z</time>
      </trkpt>
      <trkpt lat="45.06561" lon="5.01211">
        <ele>186.1</ele>
        <time>2022-10-16T13:34:44.000Z</time>
      </trkpt>
      <trkpt lat="45.06557" lon="5.01206">
        <ele>185.8</ele>
        <time>2022-10-16T13:34:45.000Z</time>
      </trkpt>
      <trkpt lat="45.06552" lon="5.01201">
        <ele>185.6</ele>
        <time>2022-10-16T13:34:46.000Z</time>
      </trkpt>
      <trkpt lat="45.06548" lon="5.01197">
        <ele>185.1</ele>
        <time>2022-10-16T13:34:47.000Z</time>
      </trkpt>
      <trkpt lat="45.06544" lon="5.01193">
        <ele>184.7</ele>
        <time>2022-10-16T13:34:48.000Z</time>
      </trkpt>
      <trkpt lat="45.06538" lon="5.01188">
        <ele>184.2</ele>
        <time>2022-10-16T13:34:49.000Z</time>
      </trkpt>
      <trkpt lat="45.06532" lon="5.01183">
        <ele>183.7</ele>
        <time>2022-10-16T13:34:50.000Z</time>
      </trkpt>
      <trkpt lat="45.06527" lon="5.01179">
        <ele>183.3</ele>
        <time>2022-10-16T13:34:51.000Z</time>
      </trkpt>
      <trkpt lat="45.06523" lon="5.01176">
        <ele>183</ele>
        <time>2022-10-16T13:34:52.000Z</time>
      </trkpt>
      <trkpt lat="45.06519" lon="5.01173">
        <ele>182.7</ele>
        <time>2022-10-16T13:34:53.000Z</time>
      </trkpt>
      <trkpt lat="45.06515" lon="5.01171">
        <ele>182.5</ele>
        <time>2022-10-16T13:34:54.000Z</time>
      </trkpt>
      <trkpt lat="45.06512" lon="5.0117">
        <ele>182.3</ele>
        <time>2022-10-16T13:34:55.000Z</time>
      </trkpt>
      <trkpt lat="45.06509" lon="5.01168">
        <ele>182</ele>
        <time>2022-10-16T13:34:56.000Z</time>
      </trkpt>
      <trkpt lat="45.06505" lon="5.01166">
        <ele>181.7</ele>
        <time>2022-10-16T13:34:57.000Z</time>
      </trkpt>
      <trkpt lat="45.06502" lon="5.01164">
        <ele>181.7</ele>
        <time>2022-10-16T13:34:58.000Z</time>
      </trkpt>
      <trkpt lat="45.06498" lon="5.01163">
        <ele>181.6</ele>
        <time>2022-10-16T13:34:59.000Z</time>
      </trkpt>
      <trkpt lat="45.06495" lon="5.01161">
        <ele>181.5</ele>
        <time>2022-10-16T13:35:00.000Z</time>
      </trkpt>
      <trkpt lat="45.06492" lon="5.01159">
        <ele>181.4</ele>
        <time>2022-10-16T13:35:01.000Z</time>
      </trkpt>
      <trkpt lat="45.06489" lon="5.01158">
        <ele>181.3</ele>
        <time>2022-10-16T13:35:02.000Z</time>
      </trkpt>
      <trkpt lat="45.06486" lon="5.01157">
        <ele>181.2</ele>
        <time>2022-10-16T13:35:03.000Z</time>
      </trkpt>
      <trkpt lat="45.06483" lon="5.01155">
        <ele>181.1</ele>
        <time>2022-10-16T13:35:04.000Z</time>
      </trkpt>
      <trkpt lat="45.0648" lon="5.01154">
        <ele>181</ele>
        <time>2022-10-16T13:35:05.000Z</time>
      </trkpt>
      <trkpt lat="45.06476" lon="5.01153">
        <ele>181</ele>
        <time>2022-10-16T13:35:06.000Z</time>
      </trkpt>
      <trkpt lat="45.06473" lon="5.01152">
        <ele>180.8</ele>
        <time>2022-10-16T13:35:07.000Z</time>
      </trkpt>
      <trkpt lat="45.0647" lon="5.01151">
        <ele>180.9</ele>
        <time>2022-10-16T13:35:08.000Z</time>
      </trkpt>
      <trkpt lat="45.06467" lon="5.0115">
        <ele>180.9</ele>
        <time>2022-10-16T13:35:09.000Z</time>
      </trkpt>
      <trkpt lat="45.06463" lon="5.01149">
        <ele>180.9</ele>
        <time>2022-10-16T13:35:10.000Z</time>
      </trkpt>
      <trkpt lat="45.06459" lon="5.01147">
        <ele>180.9</ele>
        <time>2022-10-16T13:35:11.000Z</time>
      </trkpt>
      <trkpt lat="45.06456" lon="5.01146">
        <ele>180.9</ele>
        <time>2022-10-16T13:35:12.000Z</time>
      </trkpt>
      <trkpt lat="45.06453" lon="5.01145">
        <ele>180.9</ele>
        <time>2022-10-16T13:35:13.000Z</time>
      </trkpt>
      <trkpt lat="45.06449" lon="5.01144">
        <ele>180.8</ele>
        <time>2022-10-16T13:35:14.000Z</time>
      </trkpt>
      <trkpt lat="45.06445" lon="5.01142">
        <ele>180.6</ele>
        <time>2022-10-16T13:35:15.000Z</time>
      </trkpt>
      <trkpt lat="45.06441" lon="5.01141">
        <ele>180.5</ele>
        <time>2022-10-16T13:35:16.000Z</time>
      </trkpt>
      <trkpt lat="45.06437" lon="5.01139">
        <ele>180.3</ele>
        <time>2022-10-16T13:35:17.000Z</time>
      </trkpt>
      <trkpt lat="45.06433" lon="5.01138">
        <ele>180.4</ele>
        <time>2022-10-16T13:35:18.000Z</time>
      </trkpt>
      <trkpt lat="45.06428" lon="5.01137">
        <ele>180.4</ele>
        <time>2022-10-16T13:35:19.000Z</time>
      </trkpt>
      <trkpt lat="45.06424" lon="5.01135">
        <ele>180.3</ele>
        <time>2022-10-16T13:35:20.000Z</time>
      </trkpt>
      <trkpt lat="45.0642" lon="5.01133">
        <ele>180.3</ele>
        <time>2022-10-16T13:35:21.000Z</time>
      </trkpt>
      <trkpt lat="45.06416" lon="5.01131">
        <ele>180.2</ele>
        <time>2022-10-16T13:35:22.000Z</time>
      </trkpt>
      <trkpt lat="45.06412" lon="5.0113">
        <ele>180.3</ele>
        <time>2022-10-16T13:35:23.000Z</time>
      </trkpt>
      <trkpt lat="45.06409" lon="5.0113">
        <ele>180.4</ele>
        <time>2022-10-16T13:35:24.000Z</time>
      </trkpt>
      <trkpt lat="45.06406" lon="5.01129">
        <ele>180.4</ele>
        <time>2022-10-16T13:35:25.000Z</time>
      </trkpt>
      <trkpt lat="45.06402" lon="5.01127">
        <ele>180.3</ele>
        <time>2022-10-16T13:35:26.000Z</time>
      </trkpt>
      <trkpt lat="45.06399" lon="5.01125">
        <ele>180.1</ele>
        <time>2022-10-16T13:35:27.000Z</time>
      </trkpt>
      <trkpt lat="45.06395" lon="5.01123">
        <ele>179.9</ele>
        <time>2022-10-16T13:35:28.000Z</time>
      </trkpt>
      <trkpt lat="45.06391" lon="5.01121">
        <ele>179.7</ele>
        <time>2022-10-16T13:35:29.000Z</time>
      </trkpt>
      <trkpt lat="45.06387" lon="5.0112">
        <ele>179.7</ele>
        <time>2022-10-16T13:35:30.000Z</time>
      </trkpt>
      <trkpt lat="45.06383" lon="5.01118">
        <ele>179.6</ele>
        <time>2022-10-16T13:35:31.000Z</time>
      </trkpt>
      <trkpt lat="45.06379" lon="5.01116">
        <ele>179.4</ele>
        <time>2022-10-16T13:35:32.000Z</time>
      </trkpt>
      <trkpt lat="45.06375" lon="5.01115">
        <ele>179.3</ele>
        <time>2022-10-16T13:35:33.000Z</time>
      </trkpt>
      <trkpt lat="45.06371" lon="5.01113">
        <ele>179.1</ele>
        <time>2022-10-16T13:35:34.000Z</time>
      </trkpt>
      <trkpt lat="45.06368" lon="5.01111">
        <ele>178.8</ele>
        <time>2022-10-16T13:35:35.000Z</time>
      </trkpt>
      <trkpt lat="45.06364" lon="5.0111">
        <ele>178.7</ele>
        <time>2022-10-16T13:35:36.000Z</time>
      </trkpt>
      <trkpt lat="45.06361" lon="5.01108">
        <ele>178.7</ele>
        <time>2022-10-16T13:35:37.000Z</time>
      </trkpt>
      <trkpt lat="45.06357" lon="5.01107">
        <ele>178.7</ele>
        <time>2022-10-16T13:35:38.000Z</time>
      </trkpt>
      <trkpt lat="45.06354" lon="5.01106">
        <ele>178.6</ele>
        <time>2022-10-16T13:35:39.000Z</time>
      </trkpt>
      <trkpt lat="45.0635" lon="5.01105">
        <ele>178.6</ele>
        <time>2022-10-16T13:35:40.000Z</time>
      </trkpt>
      <trkpt lat="45.06346" lon="5.01103">
        <ele>178.5</ele>
        <time>2022-10-16T13:35:41.000Z</time>
      </trkpt>
      <trkpt lat="45.06342" lon="5.01102">
        <ele>178.5</ele>
        <time>2022-10-16T13:35:42.000Z</time>
      </trkpt>
      <trkpt lat="45.06337" lon="5.01102">
        <ele>178.5</ele>
        <time>2022-10-16T13:35:43.000Z</time>
      </trkpt>
      <trkpt lat="45.06333" lon="5.011">
        <ele>178.4</ele>
        <time>2022-10-16T13:35:44.000Z</time>
      </trkpt>
      <trkpt lat="45.0633" lon="5.011">
        <ele>178.5</ele>
        <time>2022-10-16T13:35:45.000Z</time>
      </trkpt>
      <trkpt lat="45.06326" lon="5.01099">
        <ele>178.6</ele>
        <time>2022-10-16T13:35:46.000Z</time>
      </trkpt>
      <trkpt lat="45.06323" lon="5.01098">
        <ele>178.7</ele>
        <time>2022-10-16T13:35:47.000Z</time>
      </trkpt>
      <trkpt lat="45.06319" lon="5.01097">
        <ele>178.7</ele>
        <time>2022-10-16T13:35:48.000Z</time>
      </trkpt>
      <trkpt lat="45.06315" lon="5.01095">
        <ele>178.7</ele>
        <time>2022-10-16T13:35:49.000Z</time>
      </trkpt>
      <trkpt lat="45.06311" lon="5.01093">
        <ele>178.8</ele>
        <time>2022-10-16T13:35:50.000Z</time>
      </trkpt>
      <trkpt lat="45.06306" lon="5.01092">
        <ele>178.8</ele>
        <time>2022-10-16T13:35:51.000Z</time>
      </trkpt>
      <trkpt lat="45.06302" lon="5.01091">
        <ele>178.9</ele>
        <time>2022-10-16T13:35:52.000Z</time>
      </trkpt>
      <trkpt lat="45.06298" lon="5.0109">
        <ele>178.9</ele>
        <time>2022-10-16T13:35:53.000Z</time>
      </trkpt>
      <trkpt lat="45.06294" lon="5.01088">
        <ele>179</ele>
        <time>2022-10-16T13:35:54.000Z</time>
      </trkpt>
      <trkpt lat="45.06289" lon="5.01087">
        <ele>179</ele>
        <time>2022-10-16T13:35:55.000Z</time>
      </trkpt>
      <trkpt lat="45.06286" lon="5.01085">
        <ele>178.9</ele>
        <time>2022-10-16T13:35:56.000Z</time>
      </trkpt>
      <trkpt lat="45.06282" lon="5.01084">
        <ele>179</ele>
        <time>2022-10-16T13:35:57.000Z</time>
      </trkpt>
      <trkpt lat="45.06278" lon="5.01083">
        <ele>178.9</ele>
        <time>2022-10-16T13:35:58.000Z</time>
      </trkpt>
      <trkpt lat="45.06274" lon="5.01082">
        <ele>178.7</ele>
        <time>2022-10-16T13:35:59.000Z</time>
      </trkpt>
      <trkpt lat="45.0627" lon="5.01081">
        <ele>178.4</ele>
        <time>2022-10-16T13:36:00.000Z</time>
      </trkpt>
      <trkpt lat="45.06266" lon="5.01079">
        <ele>178.1</ele>
        <time>2022-10-16T13:36:01.000Z</time>
      </trkpt>
      <trkpt lat="45.06261" lon="5.01079">
        <ele>177.9</ele>
        <time>2022-10-16T13:36:02.000Z</time>
      </trkpt>
      <trkpt lat="45.06257" lon="5.01078">
        <ele>177.7</ele>
        <time>2022-10-16T13:36:03.000Z</time>
      </trkpt>
      <trkpt lat="45.06253" lon="5.01078">
        <ele>177.5</ele>
        <time>2022-10-16T13:36:04.000Z</time>
      </trkpt>
      <trkpt lat="45.0625" lon="5.01077">
        <ele>177.3</ele>
        <time>2022-10-16T13:36:05.000Z</time>
      </trkpt>
      <trkpt lat="45.06246" lon="5.01077">
        <ele>177.3</ele>
        <time>2022-10-16T13:36:06.000Z</time>
      </trkpt>
      <trkpt lat="45.06242" lon="5.01077">
        <ele>177.3</ele>
        <time>2022-10-16T13:36:07.000Z</time>
      </trkpt>
      <trkpt lat="45.06239" lon="5.01077">
        <ele>177.3</ele>
        <time>2022-10-16T13:36:08.000Z</time>
      </trkpt>
      <trkpt lat="45.06236" lon="5.01078">
        <ele>177.4</ele>
        <time>2022-10-16T13:36:09.000Z</time>
      </trkpt>
      <trkpt lat="45.06232" lon="5.01078">
        <ele>177.5</ele>
        <time>2022-10-16T13:36:10.000Z</time>
      </trkpt>
      <trkpt lat="45.06228" lon="5.0108">
        <ele>177.6</ele>
        <time>2022-10-16T13:36:11.000Z</time>
      </trkpt>
      <trkpt lat="45.06224" lon="5.01081">
        <ele>177.7</ele>
        <time>2022-10-16T13:36:12.000Z</time>
      </trkpt>
      <trkpt lat="45.06219" lon="5.01082">
        <ele>177.7</ele>
        <time>2022-10-16T13:36:13.000Z</time>
      </trkpt>
      <trkpt lat="45.06215" lon="5.01084">
        <ele>177.5</ele>
        <time>2022-10-16T13:36:14.000Z</time>
      </trkpt>
      <trkpt lat="45.06211" lon="5.01085">
        <ele>177.4</ele>
        <time>2022-10-16T13:36:15.000Z</time>
      </trkpt>
      <trkpt lat="45.06206" lon="5.01087">
        <ele>177.1</ele>
        <time>2022-10-16T13:36:16.000Z</time>
      </trkpt>
      <trkpt lat="45.06202" lon="5.01088">
        <ele>176.9</ele>
        <time>2022-10-16T13:36:17.000Z</time>
      </trkpt>
      <trkpt lat="45.06197" lon="5.0109">
        <ele>176.7</ele>
        <time>2022-10-16T13:36:18.000Z</time>
      </trkpt>
      <trkpt lat="45.06191" lon="5.01092">
        <ele>176.4</ele>
        <time>2022-10-16T13:36:19.000Z</time>
      </trkpt>
      <trkpt lat="45.06186" lon="5.01095">
        <ele>176.1</ele>
        <time>2022-10-16T13:36:20.000Z</time>
      </trkpt>
      <trkpt lat="45.06181" lon="5.01097">
        <ele>175.8</ele>
        <time>2022-10-16T13:36:21.000Z</time>
      </trkpt>
      <trkpt lat="45.06175" lon="5.011">
        <ele>175.4</ele>
        <time>2022-10-16T13:36:22.000Z</time>
      </trkpt>
      <trkpt lat="45.0617" lon="5.01103">
        <ele>175</ele>
        <time>2022-10-16T13:36:23.000Z</time>
      </trkpt>
      <trkpt lat="45.06165" lon="5.01105">
        <ele>174.7</ele>
        <time>2022-10-16T13:36:24.000Z</time>
      </trkpt>
      <trkpt lat="45.06159" lon="5.01108">
        <ele>174.6</ele>
        <time>2022-10-16T13:36:25.000Z</time>
      </trkpt>
      <trkpt lat="45.06154" lon="5.01111">
        <ele>174.5</ele>
        <time>2022-10-16T13:36:26.000Z</time>
      </trkpt>
      <trkpt lat="45.06148" lon="5.01113">
        <ele>174.5</ele>
        <time>2022-10-16T13:36:27.000Z</time>
      </trkpt>
      <trkpt lat="45.06143" lon="5.01116">
        <ele>174.6</ele>
        <time>2022-10-16T13:36:28.000Z</time>
      </trkpt>
      <trkpt lat="45.06137" lon="5.01119">
        <ele>174.7</ele>
        <time>2022-10-16T13:36:29.000Z</time>
      </trkpt>
      <trkpt lat="45.06132" lon="5.01121">
        <ele>174.4</ele>
        <time>2022-10-16T13:36:30.000Z</time>
      </trkpt>
      <trkpt lat="45.06126" lon="5.01124">
        <ele>174</ele>
        <time>2022-10-16T13:36:31.000Z</time>
      </trkpt>
      <trkpt lat="45.0612" lon="5.01127">
        <ele>173.6</ele>
        <time>2022-10-16T13:36:32.000Z</time>
      </trkpt>
      <trkpt lat="45.06115" lon="5.0113">
        <ele>173.1</ele>
        <time>2022-10-16T13:36:33.000Z</time>
      </trkpt>
      <trkpt lat="45.0611" lon="5.01132">
        <ele>172.7</ele>
        <time>2022-10-16T13:36:34.000Z</time>
      </trkpt>
      <trkpt lat="45.06106" lon="5.01134">
        <ele>172.4</ele>
        <time>2022-10-16T13:36:35.000Z</time>
      </trkpt>
      <trkpt lat="45.06102" lon="5.01136">
        <ele>172.2</ele>
        <time>2022-10-16T13:36:36.000Z</time>
      </trkpt>
      <trkpt lat="45.061" lon="5.01141">
        <ele>172.2</ele>
        <time>2022-10-16T13:36:37.000Z</time>
      </trkpt>
      <trkpt lat="45.06098" lon="5.01145">
        <ele>172.3</ele>
        <time>2022-10-16T13:36:38.000Z</time>
      </trkpt>
      <trkpt lat="45.06097" lon="5.01151">
        <ele>172.4</ele>
        <time>2022-10-16T13:36:39.000Z</time>
      </trkpt>
      <trkpt lat="45.06096" lon="5.01155">
        <ele>172.4</ele>
        <time>2022-10-16T13:36:40.000Z</time>
      </trkpt>
      <trkpt lat="45.06096" lon="5.0116">
        <ele>172.6</ele>
        <time>2022-10-16T13:36:41.000Z</time>
      </trkpt>
      <trkpt lat="45.06096" lon="5.01165">
        <ele>172.8</ele>
        <time>2022-10-16T13:36:42.000Z</time>
      </trkpt>
      <trkpt lat="45.06097" lon="5.01171">
        <ele>172.9</ele>
        <time>2022-10-16T13:36:43.000Z</time>
      </trkpt>
      <trkpt lat="45.06098" lon="5.01177">
        <ele>172.9</ele>
        <time>2022-10-16T13:36:44.000Z</time>
      </trkpt>
      <trkpt lat="45.06099" lon="5.01183">
        <ele>172.9</ele>
        <time>2022-10-16T13:36:45.000Z</time>
      </trkpt>
      <trkpt lat="45.06099" lon="5.01189">
        <ele>172.8</ele>
        <time>2022-10-16T13:36:46.000Z</time>
      </trkpt>
      <trkpt lat="45.061" lon="5.01194">
        <ele>172.7</ele>
        <time>2022-10-16T13:36:47.000Z</time>
      </trkpt>
      <trkpt lat="45.061" lon="5.012">
        <ele>172.9</ele>
        <time>2022-10-16T13:36:48.000Z</time>
      </trkpt>
      <trkpt lat="45.061" lon="5.01206">
        <ele>172.9</ele>
        <time>2022-10-16T13:36:49.000Z</time>
      </trkpt>
      <trkpt lat="45.061" lon="5.01211">
        <ele>173</ele>
        <time>2022-10-16T13:36:50.000Z</time>
      </trkpt>
      <trkpt lat="45.061" lon="5.01217">
        <ele>173.1</ele>
        <time>2022-10-16T13:36:51.000Z</time>
      </trkpt>
      <trkpt lat="45.061" lon="5.01222">
        <ele>173.2</ele>
        <time>2022-10-16T13:36:52.000Z</time>
      </trkpt>
      <trkpt lat="45.061" lon="5.01228">
        <ele>173.3</ele>
        <time>2022-10-16T13:36:53.000Z</time>
      </trkpt>
      <trkpt lat="45.061" lon="5.01234">
        <ele>173.5</ele>
        <time>2022-10-16T13:36:54.000Z</time>
      </trkpt>
      <trkpt lat="45.06101" lon="5.0124">
        <ele>173.6</ele>
        <time>2022-10-16T13:36:55.000Z</time>
      </trkpt>
      <trkpt lat="45.06101" lon="5.01246">
        <ele>173.8</ele>
        <time>2022-10-16T13:36:56.000Z</time>
      </trkpt>
      <trkpt lat="45.06102" lon="5.01252">
        <ele>174</ele>
        <time>2022-10-16T13:36:57.000Z</time>
      </trkpt>
      <trkpt lat="45.06103" lon="5.01258">
        <ele>174.2</ele>
        <time>2022-10-16T13:36:58.000Z</time>
      </trkpt>
      <trkpt lat="45.06103" lon="5.01265">
        <ele>174.3</ele>
        <time>2022-10-16T13:36:59.000Z</time>
      </trkpt>
      <trkpt lat="45.06103" lon="5.01272">
        <ele>174.5</ele>
        <time>2022-10-16T13:37:00.000Z</time>
      </trkpt>
      <trkpt lat="45.06104" lon="5.01278">
        <ele>174.7</ele>
        <time>2022-10-16T13:37:01.000Z</time>
      </trkpt>
      <trkpt lat="45.06104" lon="5.01285">
        <ele>174.6</ele>
        <time>2022-10-16T13:37:02.000Z</time>
      </trkpt>
      <trkpt lat="45.06105" lon="5.01291">
        <ele>174.5</ele>
        <time>2022-10-16T13:37:03.000Z</time>
      </trkpt>
      <trkpt lat="45.06105" lon="5.01297">
        <ele>174.4</ele>
        <time>2022-10-16T13:37:04.000Z</time>
      </trkpt>
      <trkpt lat="45.06106" lon="5.01304">
        <ele>174.3</ele>
        <time>2022-10-16T13:37:05.000Z</time>
      </trkpt>
      <trkpt lat="45.06107" lon="5.01311">
        <ele>174.3</ele>
        <time>2022-10-16T13:37:06.000Z</time>
      </trkpt>
      <trkpt lat="45.06108" lon="5.01317">
        <ele>174.5</ele>
        <time>2022-10-16T13:37:07.000Z</time>
      </trkpt>
      <trkpt lat="45.06109" lon="5.01323">
        <ele>174.6</ele>
        <time>2022-10-16T13:37:08.000Z</time>
      </trkpt>
      <trkpt lat="45.0611" lon="5.01329">
        <ele>174.8</ele>
        <time>2022-10-16T13:37:09.000Z</time>
      </trkpt>
      <trkpt lat="45.06111" lon="5.01336">
        <ele>174.8</ele>
        <time>2022-10-16T13:37:10.000Z</time>
      </trkpt>
      <trkpt lat="45.06113" lon="5.01343">
        <ele>174.5</ele>
        <time>2022-10-16T13:37:11.000Z</time>
      </trkpt>
      <trkpt lat="45.06114" lon="5.01349">
        <ele>174.3</ele>
        <time>2022-10-16T13:37:12.000Z</time>
      </trkpt>
      <trkpt lat="45.06115" lon="5.01356">
        <ele>174.1</ele>
        <time>2022-10-16T13:37:13.000Z</time>
      </trkpt>
      <trkpt lat="45.06116" lon="5.01361">
        <ele>173.9</ele>
        <time>2022-10-16T13:37:14.000Z</time>
      </trkpt>
      <trkpt lat="45.06117" lon="5.01368">
        <ele>173.9</ele>
        <time>2022-10-16T13:37:15.000Z</time>
      </trkpt>
      <trkpt lat="45.06118" lon="5.01373">
        <ele>173.8</ele>
        <time>2022-10-16T13:37:16.000Z</time>
      </trkpt>
      <trkpt lat="45.06119" lon="5.01378">
        <ele>173.8</ele>
        <time>2022-10-16T13:37:17.000Z</time>
      </trkpt>
      <trkpt lat="45.06119" lon="5.01383">
        <ele>173.7</ele>
        <time>2022-10-16T13:37:18.000Z</time>
      </trkpt>
      <trkpt lat="45.0612" lon="5.01388">
        <ele>173.6</ele>
        <time>2022-10-16T13:37:19.000Z</time>
      </trkpt>
      <trkpt lat="45.0612" lon="5.01393">
        <ele>173.6</ele>
        <time>2022-10-16T13:37:20.000Z</time>
      </trkpt>
      <trkpt lat="45.0612" lon="5.01399">
        <ele>173.7</ele>
        <time>2022-10-16T13:37:21.000Z</time>
      </trkpt>
      <trkpt lat="45.06121" lon="5.01404">
        <ele>173.8</ele>
        <time>2022-10-16T13:37:22.000Z</time>
      </trkpt>
      <trkpt lat="45.06121" lon="5.0141">
        <ele>173.8</ele>
        <time>2022-10-16T13:37:23.000Z</time>
      </trkpt>
      <trkpt lat="45.06122" lon="5.01415">
        <ele>173.9</ele>
        <time>2022-10-16T13:37:24.000Z</time>
      </trkpt>
      <trkpt lat="45.06123" lon="5.01421">
        <ele>174</ele>
        <time>2022-10-16T13:37:25.000Z</time>
      </trkpt>
      <trkpt lat="45.06124" lon="5.01426">
        <ele>174</ele>
        <time>2022-10-16T13:37:26.000Z</time>
      </trkpt>
      <trkpt lat="45.06125" lon="5.01432">
        <ele>174.2</ele>
        <time>2022-10-16T13:37:27.000Z</time>
      </trkpt>
      <trkpt lat="45.06126" lon="5.01438">
        <ele>174.3</ele>
        <time>2022-10-16T13:37:28.000Z</time>
      </trkpt>
      <trkpt lat="45.06127" lon="5.01444">
        <ele>174.5</ele>
        <time>2022-10-16T13:37:29.000Z</time>
      </trkpt>
      <trkpt lat="45.06128" lon="5.01451">
        <ele>174.3</ele>
        <time>2022-10-16T13:37:30.000Z</time>
      </trkpt>
      <trkpt lat="45.0613" lon="5.01458">
        <ele>174.2</ele>
        <time>2022-10-16T13:37:31.000Z</time>
      </trkpt>
      <trkpt lat="45.06131" lon="5.01464">
        <ele>174.1</ele>
        <time>2022-10-16T13:37:32.000Z</time>
      </trkpt>
      <trkpt lat="45.06133" lon="5.01471">
        <ele>173.9</ele>
        <time>2022-10-16T13:37:33.000Z</time>
      </trkpt>
      <trkpt lat="45.06134" lon="5.01478">
        <ele>173.9</ele>
        <time>2022-10-16T13:37:34.000Z</time>
      </trkpt>
      <trkpt lat="45.06135" lon="5.01485">
        <ele>173.9</ele>
        <time>2022-10-16T13:37:35.000Z</time>
      </trkpt>
      <trkpt lat="45.06136" lon="5.01491">
        <ele>173.8</ele>
        <time>2022-10-16T13:37:36.000Z</time>
      </trkpt>
      <trkpt lat="45.06138" lon="5.01498">
        <ele>173.8</ele>
        <time>2022-10-16T13:37:37.000Z</time>
      </trkpt>
      <trkpt lat="45.06139" lon="5.01504">
        <ele>173.7</ele>
        <time>2022-10-16T13:37:38.000Z</time>
      </trkpt>
      <trkpt lat="45.0614" lon="5.0151">
        <ele>173.5</ele>
        <time>2022-10-16T13:37:39.000Z</time>
      </trkpt>
      <trkpt lat="45.06141" lon="5.01516">
        <ele>173.2</ele>
        <time>2022-10-16T13:37:40.000Z</time>
      </trkpt>
      <trkpt lat="45.06143" lon="5.01522">
        <ele>173</ele>
        <time>2022-10-16T13:37:41.000Z</time>
      </trkpt>
      <trkpt lat="45.06144" lon="5.01528">
        <ele>172.9</ele>
        <time>2022-10-16T13:37:42.000Z</time>
      </trkpt>
      <trkpt lat="45.06145" lon="5.01534">
        <ele>173.2</ele>
        <time>2022-10-16T13:37:43.000Z</time>
      </trkpt>
      <trkpt lat="45.06147" lon="5.01539">
        <ele>173.5</ele>
        <time>2022-10-16T13:37:44.000Z</time>
      </trkpt>
      <trkpt lat="45.06148" lon="5.01544">
        <ele>173.7</ele>
        <time>2022-10-16T13:37:45.000Z</time>
      </trkpt>
      <trkpt lat="45.06149" lon="5.01549">
        <ele>173.9</ele>
        <time>2022-10-16T13:37:46.000Z</time>
      </trkpt>
      <trkpt lat="45.0615" lon="5.01554">
        <ele>174.1</ele>
        <time>2022-10-16T13:37:47.000Z</time>
      </trkpt>
      <trkpt lat="45.06152" lon="5.01559">
        <ele>174.2</ele>
        <time>2022-10-16T13:37:48.000Z</time>
      </trkpt>
      <trkpt lat="45.06153" lon="5.01564">
        <ele>174.4</ele>
        <time>2022-10-16T13:37:49.000Z</time>
      </trkpt>
      <trkpt lat="45.06155" lon="5.01569">
        <ele>174.5</ele>
        <time>2022-10-16T13:37:50.000Z</time>
      </trkpt>
      <trkpt lat="45.06156" lon="5.01575">
        <ele>174.6</ele>
        <time>2022-10-16T13:37:51.000Z</time>
      </trkpt>
      <trkpt lat="45.06157" lon="5.01579">
        <ele>174.7</ele>
        <time>2022-10-16T13:37:52.000Z</time>
      </trkpt>
      <trkpt lat="45.06159" lon="5.01584">
        <ele>174.9</ele>
        <time>2022-10-16T13:37:53.000Z</time>
      </trkpt>
      <trkpt lat="45.06161" lon="5.01589">
        <ele>175</ele>
        <time>2022-10-16T13:37:54.000Z</time>
      </trkpt>
      <trkpt lat="45.06162" lon="5.01594">
        <ele>175</ele>
        <time>2022-10-16T13:37:55.000Z</time>
      </trkpt>
      <trkpt lat="45.06164" lon="5.016">
        <ele>175.1</ele>
        <time>2022-10-16T13:37:56.000Z</time>
      </trkpt>
      <trkpt lat="45.06165" lon="5.01605">
        <ele>175</ele>
        <time>2022-10-16T13:37:57.000Z</time>
      </trkpt>
      <trkpt lat="45.06167" lon="5.01611">
        <ele>175</ele>
        <time>2022-10-16T13:37:58.000Z</time>
      </trkpt>
      <trkpt lat="45.06168" lon="5.01617">
        <ele>175</ele>
        <time>2022-10-16T13:37:59.000Z</time>
      </trkpt>
      <trkpt lat="45.06169" lon="5.01623">
        <ele>174.9</ele>
        <time>2022-10-16T13:38:00.000Z</time>
      </trkpt>
      <trkpt lat="45.0617" lon="5.01629">
        <ele>174.8</ele>
        <time>2022-10-16T13:38:01.000Z</time>
      </trkpt>
      <trkpt lat="45.06171" lon="5.01635">
        <ele>174.6</ele>
        <time>2022-10-16T13:38:02.000Z</time>
      </trkpt>
      <trkpt lat="45.06172" lon="5.01642">
        <ele>174.6</ele>
        <time>2022-10-16T13:38:03.000Z</time>
      </trkpt>
      <trkpt lat="45.06173" lon="5.01649">
        <ele>174.7</ele>
        <time>2022-10-16T13:38:04.000Z</time>
      </trkpt>
      <trkpt lat="45.06174" lon="5.01655">
        <ele>174.8</ele>
        <time>2022-10-16T13:38:05.000Z</time>
      </trkpt>
      <trkpt lat="45.06175" lon="5.01662">
        <ele>174.9</ele>
        <time>2022-10-16T13:38:06.000Z</time>
      </trkpt>
      <trkpt lat="45.06176" lon="5.01668">
        <ele>174.9</ele>
        <time>2022-10-16T13:38:07.000Z</time>
      </trkpt>
      <trkpt lat="45.06177" lon="5.01674">
        <ele>174.9</ele>
        <time>2022-10-16T13:38:08.000Z</time>
      </trkpt>
      <trkpt lat="45.06178" lon="5.0168">
        <ele>174.9</ele>
        <time>2022-10-16T13:38:09.000Z</time>
      </trkpt>
      <trkpt lat="45.06179" lon="5.01685">
        <ele>174.9</ele>
        <time>2022-10-16T13:38:10.000Z</time>
      </trkpt>
      <trkpt lat="45.0618" lon="5.0169">
        <ele>174.9</ele>
        <time>2022-10-16T13:38:11.000Z</time>
      </trkpt>
      <trkpt lat="45.0618" lon="5.01695">
        <ele>174.9</ele>
        <time>2022-10-16T13:38:12.000Z</time>
      </trkpt>
      <trkpt lat="45.06181" lon="5.017">
        <ele>174.9</ele>
        <time>2022-10-16T13:38:13.000Z</time>
      </trkpt>
      <trkpt lat="45.06183" lon="5.01704">
        <ele>174.9</ele>
        <time>2022-10-16T13:38:14.000Z</time>
      </trkpt>
      <trkpt lat="45.06184" lon="5.0171">
        <ele>174.9</ele>
        <time>2022-10-16T13:38:15.000Z</time>
      </trkpt>
      <trkpt lat="45.06185" lon="5.01715">
        <ele>174.9</ele>
        <time>2022-10-16T13:38:16.000Z</time>
      </trkpt>
      <trkpt lat="45.06187" lon="5.0172">
        <ele>175</ele>
        <time>2022-10-16T13:38:17.000Z</time>
      </trkpt>
      <trkpt lat="45.06188" lon="5.01726">
        <ele>174.9</ele>
        <time>2022-10-16T13:38:18.000Z</time>
      </trkpt>
      <trkpt lat="45.0619" lon="5.01732">
        <ele>174.9</ele>
        <time>2022-10-16T13:38:19.000Z</time>
      </trkpt>
      <trkpt lat="45.06191" lon="5.01737">
        <ele>174.9</ele>
        <time>2022-10-16T13:38:20.000Z</time>
      </trkpt>
      <trkpt lat="45.06193" lon="5.01742">
        <ele>174.9</ele>
        <time>2022-10-16T13:38:21.000Z</time>
      </trkpt>
      <trkpt lat="45.06194" lon="5.01748">
        <ele>175</ele>
        <time>2022-10-16T13:38:22.000Z</time>
      </trkpt>
      <trkpt lat="45.06196" lon="5.01753">
        <ele>174.8</ele>
        <time>2022-10-16T13:38:23.000Z</time>
      </trkpt>
      <trkpt lat="45.06197" lon="5.01759">
        <ele>174.4</ele>
        <time>2022-10-16T13:38:24.000Z</time>
      </trkpt>
      <trkpt lat="45.06198" lon="5.01764">
        <ele>174.2</ele>
        <time>2022-10-16T13:38:25.000Z</time>
      </trkpt>
      <trkpt lat="45.062" lon="5.01769">
        <ele>173.9</ele>
        <time>2022-10-16T13:38:26.000Z</time>
      </trkpt>
      <trkpt lat="45.06201" lon="5.01775">
        <ele>173.7</ele>
        <time>2022-10-16T13:38:27.000Z</time>
      </trkpt>
      <trkpt lat="45.06202" lon="5.0178">
        <ele>173.6</ele>
        <time>2022-10-16T13:38:28.000Z</time>
      </trkpt>
      <trkpt lat="45.06204" lon="5.01785">
        <ele>173.8</ele>
        <time>2022-10-16T13:38:29.000Z</time>
      </trkpt>
      <trkpt lat="45.06205" lon="5.0179">
        <ele>173.8</ele>
        <time>2022-10-16T13:38:30.000Z</time>
      </trkpt>
      <trkpt lat="45.06206" lon="5.01796">
        <ele>173.9</ele>
        <time>2022-10-16T13:38:31.000Z</time>
      </trkpt>
      <trkpt lat="45.06208" lon="5.01802">
        <ele>174</ele>
        <time>2022-10-16T13:38:32.000Z</time>
      </trkpt>
      <trkpt lat="45.06209" lon="5.01807">
        <ele>174.1</ele>
        <time>2022-10-16T13:38:33.000Z</time>
      </trkpt>
      <trkpt lat="45.06211" lon="5.01813">
        <ele>174.2</ele>
        <time>2022-10-16T13:38:34.000Z</time>
      </trkpt>
      <trkpt lat="45.06212" lon="5.01819">
        <ele>174.4</ele>
        <time>2022-10-16T13:38:35.000Z</time>
      </trkpt>
      <trkpt lat="45.06214" lon="5.01824">
        <ele>174.6</ele>
        <time>2022-10-16T13:38:36.000Z</time>
      </trkpt>
      <trkpt lat="45.06216" lon="5.0183">
        <ele>174.7</ele>
        <time>2022-10-16T13:38:37.000Z</time>
      </trkpt>
      <trkpt lat="45.06217" lon="5.01835">
        <ele>174.9</ele>
        <time>2022-10-16T13:38:38.000Z</time>
      </trkpt>
      <trkpt lat="45.06219" lon="5.0184">
        <ele>175</ele>
        <time>2022-10-16T13:38:39.000Z</time>
      </trkpt>
      <trkpt lat="45.0622" lon="5.01844">
        <ele>175.1</ele>
        <time>2022-10-16T13:38:40.000Z</time>
      </trkpt>
      <trkpt lat="45.06221" lon="5.01849">
        <ele>175.2</ele>
        <time>2022-10-16T13:38:41.000Z</time>
      </trkpt>
      <trkpt lat="45.06222" lon="5.01853">
        <ele>175.3</ele>
        <time>2022-10-16T13:38:42.000Z</time>
      </trkpt>
      <trkpt lat="45.06224" lon="5.01858">
        <ele>175.3</ele>
        <time>2022-10-16T13:38:43.000Z</time>
      </trkpt>
      <trkpt lat="45.06225" lon="5.01863">
        <ele>175.2</ele>
        <time>2022-10-16T13:38:44.000Z</time>
      </trkpt>
      <trkpt lat="45.06226" lon="5.01868">
        <ele>175.2</ele>
        <time>2022-10-16T13:38:45.000Z</time>
      </trkpt>
      <trkpt lat="45.06227" lon="5.01873">
        <ele>175.1</ele>
        <time>2022-10-16T13:38:46.000Z</time>
      </trkpt>
      <trkpt lat="45.06228" lon="5.01878">
        <ele>175</ele>
        <time>2022-10-16T13:38:47.000Z</time>
      </trkpt>
      <trkpt lat="45.06229" lon="5.01883">
        <ele>175</ele>
        <time>2022-10-16T13:38:48.000Z</time>
      </trkpt>
      <trkpt lat="45.06231" lon="5.01888">
        <ele>175</ele>
        <time>2022-10-16T13:38:49.000Z</time>
      </trkpt>
      <trkpt lat="45.06232" lon="5.01893">
        <ele>174.9</ele>
        <time>2022-10-16T13:38:50.000Z</time>
      </trkpt>
      <trkpt lat="45.06234" lon="5.01898">
        <ele>174.9</ele>
        <time>2022-10-16T13:38:51.000Z</time>
      </trkpt>
      <trkpt lat="45.06236" lon="5.01903">
        <ele>174.9</ele>
        <time>2022-10-16T13:38:52.000Z</time>
      </trkpt>
      <trkpt lat="45.06237" lon="5.01908">
        <ele>174.9</ele>
        <time>2022-10-16T13:38:53.000Z</time>
      </trkpt>
      <trkpt lat="45.06239" lon="5.01913">
        <ele>175</ele>
        <time>2022-10-16T13:38:54.000Z</time>
      </trkpt>
      <trkpt lat="45.06241" lon="5.01918">
        <ele>175</ele>
        <time>2022-10-16T13:38:55.000Z</time>
      </trkpt>
      <trkpt lat="45.06243" lon="5.01922">
        <ele>175</ele>
        <time>2022-10-16T13:38:56.000Z</time>
      </trkpt>
      <trkpt lat="45.06245" lon="5.01927">
        <ele>175.1</ele>
        <time>2022-10-16T13:38:57.000Z</time>
      </trkpt>
      <trkpt lat="45.06247" lon="5.01932">
        <ele>175.1</ele>
        <time>2022-10-16T13:38:58.000Z</time>
      </trkpt>
      <trkpt lat="45.06249" lon="5.01937">
        <ele>175.2</ele>
        <time>2022-10-16T13:38:59.000Z</time>
      </trkpt>
      <trkpt lat="45.06251" lon="5.01943">
        <ele>175.2</ele>
        <time>2022-10-16T13:39:00.000Z</time>
      </trkpt>
      <trkpt lat="45.06254" lon="5.01948">
        <ele>175.2</ele>
        <time>2022-10-16T13:39:01.000Z</time>
      </trkpt>
      <trkpt lat="45.06257" lon="5.01953">
        <ele>175.2</ele>
        <time>2022-10-16T13:39:02.000Z</time>
      </trkpt>
      <trkpt lat="45.06259" lon="5.01958">
        <ele>175.3</ele>
        <time>2022-10-16T13:39:03.000Z</time>
      </trkpt>
      <trkpt lat="45.06261" lon="5.01962">
        <ele>175.4</ele>
        <time>2022-10-16T13:39:04.000Z</time>
      </trkpt>
      <trkpt lat="45.06263" lon="5.01967">
        <ele>175.4</ele>
        <time>2022-10-16T13:39:05.000Z</time>
      </trkpt>
      <trkpt lat="45.06265" lon="5.01972">
        <ele>175.7</ele>
        <time>2022-10-16T13:39:06.000Z</time>
      </trkpt>
      <trkpt lat="45.06267" lon="5.01976">
        <ele>175.7</ele>
        <time>2022-10-16T13:39:07.000Z</time>
      </trkpt>
      <trkpt lat="45.06269" lon="5.01981">
        <ele>175.7</ele>
        <time>2022-10-16T13:39:08.000Z</time>
      </trkpt>
      <trkpt lat="45.06271" lon="5.01986">
        <ele>175.6</ele>
        <time>2022-10-16T13:39:09.000Z</time>
      </trkpt>
      <trkpt lat="45.06273" lon="5.01991">
        <ele>175.4</ele>
        <time>2022-10-16T13:39:10.000Z</time>
      </trkpt>
      <trkpt lat="45.06275" lon="5.01996">
        <ele>175.2</ele>
        <time>2022-10-16T13:39:11.000Z</time>
      </trkpt>
      <trkpt lat="45.06278" lon="5.02001">
        <ele>174.9</ele>
        <time>2022-10-16T13:39:12.000Z</time>
      </trkpt>
      <trkpt lat="45.0628" lon="5.02006">
        <ele>175.1</ele>
        <time>2022-10-16T13:39:13.000Z</time>
      </trkpt>
      <trkpt lat="45.06282" lon="5.02011">
        <ele>175.2</ele>
        <time>2022-10-16T13:39:14.000Z</time>
      </trkpt>
      <trkpt lat="45.06284" lon="5.02017">
        <ele>175.3</ele>
        <time>2022-10-16T13:39:15.000Z</time>
      </trkpt>
      <trkpt lat="45.06286" lon="5.02022">
        <ele>175.5</ele>
        <time>2022-10-16T13:39:16.000Z</time>
      </trkpt>
      <trkpt lat="45.06288" lon="5.02027">
        <ele>175.7</ele>
        <time>2022-10-16T13:39:17.000Z</time>
      </trkpt>
      <trkpt lat="45.0629" lon="5.02033">
        <ele>176</ele>
        <time>2022-10-16T13:39:18.000Z</time>
      </trkpt>
      <trkpt lat="45.06292" lon="5.02038">
        <ele>176.3</ele>
        <time>2022-10-16T13:39:19.000Z</time>
      </trkpt>
      <trkpt lat="45.06294" lon="5.02043">
        <ele>176.5</ele>
        <time>2022-10-16T13:39:20.000Z</time>
      </trkpt>
      <trkpt lat="45.06296" lon="5.02048">
        <ele>176.6</ele>
        <time>2022-10-16T13:39:21.000Z</time>
      </trkpt>
      <trkpt lat="45.06298" lon="5.02053">
        <ele>176.8</ele>
        <time>2022-10-16T13:39:22.000Z</time>
      </trkpt>
      <trkpt lat="45.063" lon="5.02058">
        <ele>176.9</ele>
        <time>2022-10-16T13:39:23.000Z</time>
      </trkpt>
      <trkpt lat="45.06302" lon="5.02063">
        <ele>176.9</ele>
        <time>2022-10-16T13:39:24.000Z</time>
      </trkpt>
      <trkpt lat="45.06304" lon="5.02068">
        <ele>176.9</ele>
        <time>2022-10-16T13:39:25.000Z</time>
      </trkpt>
      <trkpt lat="45.06306" lon="5.02073">
        <ele>176.9</ele>
        <time>2022-10-16T13:39:26.000Z</time>
      </trkpt>
      <trkpt lat="45.06308" lon="5.02078">
        <ele>176.9</ele>
        <time>2022-10-16T13:39:27.000Z</time>
      </trkpt>
      <trkpt lat="45.06309" lon="5.02083">
        <ele>176.8</ele>
        <time>2022-10-16T13:39:28.000Z</time>
      </trkpt>
      <trkpt lat="45.0631" lon="5.02088">
        <ele>176.9</ele>
        <time>2022-10-16T13:39:29.000Z</time>
      </trkpt>
      <trkpt lat="45.06312" lon="5.02093">
        <ele>177</ele>
        <time>2022-10-16T13:39:30.000Z</time>
      </trkpt>
      <trkpt lat="45.06314" lon="5.02098">
        <ele>177.2</ele>
        <time>2022-10-16T13:39:31.000Z</time>
      </trkpt>
      <trkpt lat="45.06315" lon="5.02103">
        <ele>177.4</ele>
        <time>2022-10-16T13:39:32.000Z</time>
      </trkpt>
      <trkpt lat="45.06317" lon="5.02108">
        <ele>177.6</ele>
        <time>2022-10-16T13:39:33.000Z</time>
      </trkpt>
      <trkpt lat="45.06319" lon="5.02113">
        <ele>177.8</ele>
        <time>2022-10-16T13:39:34.000Z</time>
      </trkpt>
      <trkpt lat="45.0632" lon="5.02118">
        <ele>178</ele>
        <time>2022-10-16T13:39:35.000Z</time>
      </trkpt>
      <trkpt lat="45.06321" lon="5.02123">
        <ele>178.2</ele>
        <time>2022-10-16T13:39:36.000Z</time>
      </trkpt>
      <trkpt lat="45.06323" lon="5.02127">
        <ele>178.4</ele>
        <time>2022-10-16T13:39:37.000Z</time>
      </trkpt>
      <trkpt lat="45.06325" lon="5.02132">
        <ele>178.6</ele>
        <time>2022-10-16T13:39:38.000Z</time>
      </trkpt>
      <trkpt lat="45.06326" lon="5.02136">
        <ele>178.8</ele>
        <time>2022-10-16T13:39:39.000Z</time>
      </trkpt>
      <trkpt lat="45.06328" lon="5.02141">
        <ele>178.9</ele>
        <time>2022-10-16T13:39:40.000Z</time>
      </trkpt>
      <trkpt lat="45.0633" lon="5.02145">
        <ele>178.9</ele>
        <time>2022-10-16T13:39:41.000Z</time>
      </trkpt>
      <trkpt lat="45.06332" lon="5.02149">
        <ele>178.8</ele>
        <time>2022-10-16T13:39:42.000Z</time>
      </trkpt>
      <trkpt lat="45.06335" lon="5.02153">
        <ele>178.6</ele>
        <time>2022-10-16T13:39:43.000Z</time>
      </trkpt>
      <trkpt lat="45.06337" lon="5.02157">
        <ele>178.5</ele>
        <time>2022-10-16T13:39:44.000Z</time>
      </trkpt>
      <trkpt lat="45.06339" lon="5.02161">
        <ele>178.4</ele>
        <time>2022-10-16T13:39:45.000Z</time>
      </trkpt>
      <trkpt lat="45.06342" lon="5.02165">
        <ele>178.4</ele>
        <time>2022-10-16T13:39:46.000Z</time>
      </trkpt>
      <trkpt lat="45.06344" lon="5.02168">
        <ele>178.4</ele>
        <time>2022-10-16T13:39:47.000Z</time>
      </trkpt>
      <trkpt lat="45.06346" lon="5.02171">
        <ele>178.5</ele>
        <time>2022-10-16T13:39:48.000Z</time>
      </trkpt>
      <trkpt lat="45.06348" lon="5.02175">
        <ele>178.5</ele>
        <time>2022-10-16T13:39:49.000Z</time>
      </trkpt>
      <trkpt lat="45.0635" lon="5.02179">
        <ele>178.5</ele>
        <time>2022-10-16T13:39:50.000Z</time>
      </trkpt>
      <trkpt lat="45.06353" lon="5.02184">
        <ele>178.5</ele>
        <time>2022-10-16T13:39:51.000Z</time>
      </trkpt>
      <trkpt lat="45.06355" lon="5.0219">
        <ele>178.5</ele>
        <time>2022-10-16T13:39:52.000Z</time>
      </trkpt>
      <trkpt lat="45.06358" lon="5.02196">
        <ele>178.4</ele>
        <time>2022-10-16T13:39:53.000Z</time>
      </trkpt>
      <trkpt lat="45.0636" lon="5.02203">
        <ele>178.2</ele>
        <time>2022-10-16T13:39:54.000Z</time>
      </trkpt>
      <trkpt lat="45.06362" lon="5.0221">
        <ele>178</ele>
        <time>2022-10-16T13:39:55.000Z</time>
      </trkpt>
      <trkpt lat="45.06364" lon="5.02218">
        <ele>177.7</ele>
        <time>2022-10-16T13:39:56.000Z</time>
      </trkpt>
      <trkpt lat="45.06366" lon="5.02225">
        <ele>177.6</ele>
        <time>2022-10-16T13:39:57.000Z</time>
      </trkpt>
      <trkpt lat="45.06369" lon="5.02234">
        <ele>177.6</ele>
        <time>2022-10-16T13:39:58.000Z</time>
      </trkpt>
      <trkpt lat="45.06373" lon="5.02242">
        <ele>177.7</ele>
        <time>2022-10-16T13:39:59.000Z</time>
      </trkpt>
      <trkpt lat="45.06376" lon="5.0225">
        <ele>177.6</ele>
        <time>2022-10-16T13:40:00.000Z</time>
      </trkpt>
      <trkpt lat="45.0638" lon="5.02258">
        <ele>177.6</ele>
        <time>2022-10-16T13:40:01.000Z</time>
      </trkpt>
      <trkpt lat="45.06384" lon="5.02265">
        <ele>177.5</ele>
        <time>2022-10-16T13:40:02.000Z</time>
      </trkpt>
      <trkpt lat="45.06387" lon="5.02272">
        <ele>177.3</ele>
        <time>2022-10-16T13:40:03.000Z</time>
      </trkpt>
      <trkpt lat="45.06391" lon="5.02279">
        <ele>177.2</ele>
        <time>2022-10-16T13:40:04.000Z</time>
      </trkpt>
      <trkpt lat="45.06394" lon="5.02284">
        <ele>177.5</ele>
        <time>2022-10-16T13:40:05.000Z</time>
      </trkpt>
      <trkpt lat="45.06397" lon="5.0229">
        <ele>177.7</ele>
        <time>2022-10-16T13:40:06.000Z</time>
      </trkpt>
      <trkpt lat="45.064" lon="5.02296">
        <ele>178</ele>
        <time>2022-10-16T13:40:07.000Z</time>
      </trkpt>
      <trkpt lat="45.06403" lon="5.02301">
        <ele>178.1</ele>
        <time>2022-10-16T13:40:08.000Z</time>
      </trkpt>
      <trkpt lat="45.06405" lon="5.02306">
        <ele>178.2</ele>
        <time>2022-10-16T13:40:09.000Z</time>
      </trkpt>
      <trkpt lat="45.06408" lon="5.0231">
        <ele>178.3</ele>
        <time>2022-10-16T13:40:10.000Z</time>
      </trkpt>
      <trkpt lat="45.0641" lon="5.02315">
        <ele>178.5</ele>
        <time>2022-10-16T13:40:11.000Z</time>
      </trkpt>
      <trkpt lat="45.06412" lon="5.02319">
        <ele>178.6</ele>
        <time>2022-10-16T13:40:12.000Z</time>
      </trkpt>
      <trkpt lat="45.06414" lon="5.02323">
        <ele>178.7</ele>
        <time>2022-10-16T13:40:13.000Z</time>
      </trkpt>
      <trkpt lat="45.06415" lon="5.02327">
        <ele>178.9</ele>
        <time>2022-10-16T13:40:14.000Z</time>
      </trkpt>
      <trkpt lat="45.06415" lon="5.02332">
        <ele>178.9</ele>
        <time>2022-10-16T13:40:15.000Z</time>
      </trkpt>
      <trkpt lat="45.06416" lon="5.02338">
        <ele>178.7</ele>
        <time>2022-10-16T13:40:16.000Z</time>
      </trkpt>
      <trkpt lat="45.06418" lon="5.02343">
        <ele>178.5</ele>
        <time>2022-10-16T13:40:17.000Z</time>
      </trkpt>
      <trkpt lat="45.06419" lon="5.02348">
        <ele>178.3</ele>
        <time>2022-10-16T13:40:18.000Z</time>
      </trkpt>
      <trkpt lat="45.0642" lon="5.02353">
        <ele>178.2</ele>
        <time>2022-10-16T13:40:19.000Z</time>
      </trkpt>
      <trkpt lat="45.06421" lon="5.02358">
        <ele>178.2</ele>
        <time>2022-10-16T13:40:20.000Z</time>
      </trkpt>
      <trkpt lat="45.06423" lon="5.02364">
        <ele>178.1</ele>
        <time>2022-10-16T13:40:21.000Z</time>
      </trkpt>
      <trkpt lat="45.06424" lon="5.02369">
        <ele>177.9</ele>
        <time>2022-10-16T13:40:22.000Z</time>
      </trkpt>
      <trkpt lat="45.06425" lon="5.02375">
        <ele>177.8</ele>
        <time>2022-10-16T13:40:23.000Z</time>
      </trkpt>
      <trkpt lat="45.06427" lon="5.02381">
        <ele>177.8</ele>
        <time>2022-10-16T13:40:24.000Z</time>
      </trkpt>
      <trkpt lat="45.06429" lon="5.02387">
        <ele>177.9</ele>
        <time>2022-10-16T13:40:25.000Z</time>
      </trkpt>
      <trkpt lat="45.06432" lon="5.02393">
        <ele>177.9</ele>
        <time>2022-10-16T13:40:26.000Z</time>
      </trkpt>
      <trkpt lat="45.06434" lon="5.02398">
        <ele>177.8</ele>
        <time>2022-10-16T13:40:27.000Z</time>
      </trkpt>
      <trkpt lat="45.06437" lon="5.02404">
        <ele>177.7</ele>
        <time>2022-10-16T13:40:28.000Z</time>
      </trkpt>
      <trkpt lat="45.06441" lon="5.0241">
        <ele>177.5</ele>
        <time>2022-10-16T13:40:29.000Z</time>
      </trkpt>
      <trkpt lat="45.06444" lon="5.02415">
        <ele>177.2</ele>
        <time>2022-10-16T13:40:30.000Z</time>
      </trkpt>
      <trkpt lat="45.06448" lon="5.02421">
        <ele>177</ele>
        <time>2022-10-16T13:40:31.000Z</time>
      </trkpt>
      <trkpt lat="45.06452" lon="5.02427">
        <ele>176.9</ele>
        <time>2022-10-16T13:40:32.000Z</time>
      </trkpt>
      <trkpt lat="45.06456" lon="5.02433">
        <ele>176.7</ele>
        <time>2022-10-16T13:40:33.000Z</time>
      </trkpt>
      <trkpt lat="45.06461" lon="5.02439">
        <ele>176.5</ele>
        <time>2022-10-16T13:40:34.000Z</time>
      </trkpt>
      <trkpt lat="45.06465" lon="5.02445">
        <ele>176.2</ele>
        <time>2022-10-16T13:40:35.000Z</time>
      </trkpt>
      <trkpt lat="45.0647" lon="5.02451">
        <ele>176.1</ele>
        <time>2022-10-16T13:40:36.000Z</time>
      </trkpt>
      <trkpt lat="45.06475" lon="5.02458">
        <ele>175.8</ele>
        <time>2022-10-16T13:40:37.000Z</time>
      </trkpt>
      <trkpt lat="45.06481" lon="5.02465">
        <ele>175.7</ele>
        <time>2022-10-16T13:40:38.000Z</time>
      </trkpt>
      <trkpt lat="45.06486" lon="5.02472">
        <ele>175.5</ele>
        <time>2022-10-16T13:40:39.000Z</time>
      </trkpt>
      <trkpt lat="45.06491" lon="5.0248">
        <ele>175.6</ele>
        <time>2022-10-16T13:40:40.000Z</time>
      </trkpt>
      <trkpt lat="45.06495" lon="5.02488">
        <ele>175.4</ele>
        <time>2022-10-16T13:40:41.000Z</time>
      </trkpt>
      <trkpt lat="45.06499" lon="5.02497">
        <ele>175.2</ele>
        <time>2022-10-16T13:40:42.000Z</time>
      </trkpt>
      <trkpt lat="45.06502" lon="5.02506">
        <ele>174.7</ele>
        <time>2022-10-16T13:40:43.000Z</time>
      </trkpt>
      <trkpt lat="45.06505" lon="5.02516">
        <ele>174.1</ele>
        <time>2022-10-16T13:40:44.000Z</time>
      </trkpt>
      <trkpt lat="45.06507" lon="5.02525">
        <ele>173.5</ele>
        <time>2022-10-16T13:40:45.000Z</time>
      </trkpt>
      <trkpt lat="45.06509" lon="5.02536">
        <ele>173</ele>
        <time>2022-10-16T13:40:46.000Z</time>
      </trkpt>
      <trkpt lat="45.06511" lon="5.02547">
        <ele>172.7</ele>
        <time>2022-10-16T13:40:47.000Z</time>
      </trkpt>
      <trkpt lat="45.06512" lon="5.02558">
        <ele>172.4</ele>
        <time>2022-10-16T13:40:48.000Z</time>
      </trkpt>
      <trkpt lat="45.06514" lon="5.02569">
        <ele>172.3</ele>
        <time>2022-10-16T13:40:49.000Z</time>
      </trkpt>
      <trkpt lat="45.06515" lon="5.0258">
        <ele>172.1</ele>
        <time>2022-10-16T13:40:50.000Z</time>
      </trkpt>
      <trkpt lat="45.06517" lon="5.02591">
        <ele>171.9</ele>
        <time>2022-10-16T13:40:51.000Z</time>
      </trkpt>
      <trkpt lat="45.06519" lon="5.02602">
        <ele>171.8</ele>
        <time>2022-10-16T13:40:52.000Z</time>
      </trkpt>
      <trkpt lat="45.06521" lon="5.02613">
        <ele>171.7</ele>
        <time>2022-10-16T13:40:53.000Z</time>
      </trkpt>
      <trkpt lat="45.06522" lon="5.02624">
        <ele>171.4</ele>
        <time>2022-10-16T13:40:54.000Z</time>
      </trkpt>
      <trkpt lat="45.06524" lon="5.02634">
        <ele>171.1</ele>
        <time>2022-10-16T13:40:55.000Z</time>
      </trkpt>
      <trkpt lat="45.06525" lon="5.02645">
        <ele>171</ele>
        <time>2022-10-16T13:40:56.000Z</time>
      </trkpt>
      <trkpt lat="45.06527" lon="5.02656">
        <ele>171</ele>
        <time>2022-10-16T13:40:57.000Z</time>
      </trkpt>
      <trkpt lat="45.06529" lon="5.02666">
        <ele>171</ele>
        <time>2022-10-16T13:40:58.000Z</time>
      </trkpt>
      <trkpt lat="45.0653" lon="5.02677">
        <ele>170.9</ele>
        <time>2022-10-16T13:40:59.000Z</time>
      </trkpt>
      <trkpt lat="45.06532" lon="5.02687">
        <ele>170.8</ele>
        <time>2022-10-16T13:41:00.000Z</time>
      </trkpt>
      <trkpt lat="45.06534" lon="5.02698">
        <ele>170.8</ele>
        <time>2022-10-16T13:41:01.000Z</time>
      </trkpt>
      <trkpt lat="45.06535" lon="5.02708">
        <ele>170.7</ele>
        <time>2022-10-16T13:41:02.000Z</time>
      </trkpt>
      <trkpt lat="45.06538" lon="5.02718">
        <ele>170.6</ele>
        <time>2022-10-16T13:41:03.000Z</time>
      </trkpt>
      <trkpt lat="45.06539" lon="5.02727">
        <ele>170.5</ele>
        <time>2022-10-16T13:41:04.000Z</time>
      </trkpt>
      <trkpt lat="45.06541" lon="5.02737">
        <ele>170.2</ele>
        <time>2022-10-16T13:41:05.000Z</time>
      </trkpt>
      <trkpt lat="45.06543" lon="5.02747">
        <ele>170.1</ele>
        <time>2022-10-16T13:41:06.000Z</time>
      </trkpt>
      <trkpt lat="45.06544" lon="5.02756">
        <ele>170.2</ele>
        <time>2022-10-16T13:41:07.000Z</time>
      </trkpt>
      <trkpt lat="45.06546" lon="5.02766">
        <ele>170.6</ele>
        <time>2022-10-16T13:41:08.000Z</time>
      </trkpt>
      <trkpt lat="45.06548" lon="5.02775">
        <ele>170.9</ele>
        <time>2022-10-16T13:41:09.000Z</time>
      </trkpt>
      <trkpt lat="45.06549" lon="5.02784">
        <ele>170.9</ele>
        <time>2022-10-16T13:41:10.000Z</time>
      </trkpt>
      <trkpt lat="45.06551" lon="5.02793">
        <ele>170.9</ele>
        <time>2022-10-16T13:41:11.000Z</time>
      </trkpt>
      <trkpt lat="45.06552" lon="5.02802">
        <ele>170.9</ele>
        <time>2022-10-16T13:41:12.000Z</time>
      </trkpt>
      <trkpt lat="45.06554" lon="5.0281">
        <ele>170.9</ele>
        <time>2022-10-16T13:41:13.000Z</time>
      </trkpt>
      <trkpt lat="45.06555" lon="5.02818">
        <ele>171</ele>
        <time>2022-10-16T13:41:14.000Z</time>
      </trkpt>
      <trkpt lat="45.06557" lon="5.02827">
        <ele>171</ele>
        <time>2022-10-16T13:41:15.000Z</time>
      </trkpt>
      <trkpt lat="45.06558" lon="5.02835">
        <ele>170.9</ele>
        <time>2022-10-16T13:41:16.000Z</time>
      </trkpt>
      <trkpt lat="45.06559" lon="5.02843">
        <ele>170.9</ele>
        <time>2022-10-16T13:41:17.000Z</time>
      </trkpt>
      <trkpt lat="45.06561" lon="5.02851">
        <ele>170.8</ele>
        <time>2022-10-16T13:41:18.000Z</time>
      </trkpt>
      <trkpt lat="45.06562" lon="5.02859">
        <ele>170.8</ele>
        <time>2022-10-16T13:41:19.000Z</time>
      </trkpt>
      <trkpt lat="45.06563" lon="5.02867">
        <ele>170.8</ele>
        <time>2022-10-16T13:41:20.000Z</time>
      </trkpt>
      <trkpt lat="45.06564" lon="5.02874">
        <ele>170.8</ele>
        <time>2022-10-16T13:41:21.000Z</time>
      </trkpt>
      <trkpt lat="45.06565" lon="5.02882">
        <ele>170.9</ele>
        <time>2022-10-16T13:41:22.000Z</time>
      </trkpt>
      <trkpt lat="45.06566" lon="5.02889">
        <ele>171</ele>
        <time>2022-10-16T13:41:23.000Z</time>
      </trkpt>
      <trkpt lat="45.06566" lon="5.02896">
        <ele>170.8</ele>
        <time>2022-10-16T13:41:24.000Z</time>
      </trkpt>
      <trkpt lat="45.06567" lon="5.02902">
        <ele>170.7</ele>
        <time>2022-10-16T13:41:25.000Z</time>
      </trkpt>
      <trkpt lat="45.06567" lon="5.02909">
        <ele>170.6</ele>
        <time>2022-10-16T13:41:26.000Z</time>
      </trkpt>
      <trkpt lat="45.06567" lon="5.02915">
        <ele>170.4</ele>
        <time>2022-10-16T13:41:27.000Z</time>
      </trkpt>
      <trkpt lat="45.06567" lon="5.02921">
        <ele>170.4</ele>
        <time>2022-10-16T13:41:28.000Z</time>
      </trkpt>
      <trkpt lat="45.06568" lon="5.02927">
        <ele>170.4</ele>
        <time>2022-10-16T13:41:29.000Z</time>
      </trkpt>
      <trkpt lat="45.06568" lon="5.02934">
        <ele>170.5</ele>
        <time>2022-10-16T13:41:30.000Z</time>
      </trkpt>
      <trkpt lat="45.06569" lon="5.0294">
        <ele>170.5</ele>
        <time>2022-10-16T13:41:31.000Z</time>
      </trkpt>
      <trkpt lat="45.06569" lon="5.02947">
        <ele>170.4</ele>
        <time>2022-10-16T13:41:32.000Z</time>
      </trkpt>
      <trkpt lat="45.06571" lon="5.02955">
        <ele>170</ele>
        <time>2022-10-16T13:41:33.000Z</time>
      </trkpt>
      <trkpt lat="45.06573" lon="5.02963">
        <ele>169.5</ele>
        <time>2022-10-16T13:41:34.000Z</time>
      </trkpt>
      <trkpt lat="45.06574" lon="5.02973">
        <ele>169</ele>
        <time>2022-10-16T13:41:35.000Z</time>
      </trkpt>
      <trkpt lat="45.06574" lon="5.02981">
        <ele>169.3</ele>
        <time>2022-10-16T13:41:36.000Z</time>
      </trkpt>
      <trkpt lat="45.06574" lon="5.02989">
        <ele>169.6</ele>
        <time>2022-10-16T13:41:37.000Z</time>
      </trkpt>
      <trkpt lat="45.06574" lon="5.02997">
        <ele>169.9</ele>
        <time>2022-10-16T13:41:38.000Z</time>
      </trkpt>
      <trkpt lat="45.06574" lon="5.03005">
        <ele>170.1</ele>
        <time>2022-10-16T13:41:39.000Z</time>
      </trkpt>
      <trkpt lat="45.06575" lon="5.03011">
        <ele>170.3</ele>
        <time>2022-10-16T13:41:40.000Z</time>
      </trkpt>
      <trkpt lat="45.06576" lon="5.03017">
        <ele>170.5</ele>
        <time>2022-10-16T13:41:41.000Z</time>
      </trkpt>
      <trkpt lat="45.06577" lon="5.03023">
        <ele>170.6</ele>
        <time>2022-10-16T13:41:42.000Z</time>
      </trkpt>
      <trkpt lat="45.06577" lon="5.03028">
        <ele>170.8</ele>
        <time>2022-10-16T13:41:43.000Z</time>
      </trkpt>
      <trkpt lat="45.06578" lon="5.03033">
        <ele>170.8</ele>
        <time>2022-10-16T13:41:44.000Z</time>
      </trkpt>
      <trkpt lat="45.06578" lon="5.03039">
        <ele>170.8</ele>
        <time>2022-10-16T13:41:45.000Z</time>
      </trkpt>
      <trkpt lat="45.06579" lon="5.03045">
        <ele>170.8</ele>
        <time>2022-10-16T13:41:46.000Z</time>
      </trkpt>
      <trkpt lat="45.0658" lon="5.03051">
        <ele>170.9</ele>
        <time>2022-10-16T13:41:47.000Z</time>
      </trkpt>
      <trkpt lat="45.0658" lon="5.03057">
        <ele>170.9</ele>
        <time>2022-10-16T13:41:48.000Z</time>
      </trkpt>
      <trkpt lat="45.06581" lon="5.03064">
        <ele>170.9</ele>
        <time>2022-10-16T13:41:49.000Z</time>
      </trkpt>
      <trkpt lat="45.06582" lon="5.0307">
        <ele>170.9</ele>
        <time>2022-10-16T13:41:50.000Z</time>
      </trkpt>
      <trkpt lat="45.06582" lon="5.03077">
        <ele>171</ele>
        <time>2022-10-16T13:41:51.000Z</time>
      </trkpt>
      <trkpt lat="45.06583" lon="5.03084">
        <ele>171</ele>
        <time>2022-10-16T13:41:52.000Z</time>
      </trkpt>
      <trkpt lat="45.06583" lon="5.03091">
        <ele>171</ele>
        <time>2022-10-16T13:41:53.000Z</time>
      </trkpt>
      <trkpt lat="45.06584" lon="5.03098">
        <ele>171</ele>
        <time>2022-10-16T13:41:54.000Z</time>
      </trkpt>
      <trkpt lat="45.06584" lon="5.03105">
        <ele>171</ele>
        <time>2022-10-16T13:41:55.000Z</time>
      </trkpt>
      <trkpt lat="45.06585" lon="5.03112">
        <ele>171</ele>
        <time>2022-10-16T13:41:56.000Z</time>
      </trkpt>
      <trkpt lat="45.06586" lon="5.03118">
        <ele>171</ele>
        <time>2022-10-16T13:41:57.000Z</time>
      </trkpt>
      <trkpt lat="45.06587" lon="5.03125">
        <ele>171</ele>
        <time>2022-10-16T13:41:58.000Z</time>
      </trkpt>
      <trkpt lat="45.06588" lon="5.03131">
        <ele>171</ele>
        <time>2022-10-16T13:41:59.000Z</time>
      </trkpt>
      <trkpt lat="45.0659" lon="5.03137">
        <ele>171</ele>
        <time>2022-10-16T13:42:00.000Z</time>
      </trkpt>
      <trkpt lat="45.06591" lon="5.03144">
        <ele>171</ele>
        <time>2022-10-16T13:42:01.000Z</time>
      </trkpt>
      <trkpt lat="45.06592" lon="5.03151">
        <ele>171</ele>
        <time>2022-10-16T13:42:02.000Z</time>
      </trkpt>
      <trkpt lat="45.06594" lon="5.03158">
        <ele>171</ele>
        <time>2022-10-16T13:42:03.000Z</time>
      </trkpt>
      <trkpt lat="45.06596" lon="5.03165">
        <ele>171</ele>
        <time>2022-10-16T13:42:04.000Z</time>
      </trkpt>
      <trkpt lat="45.06598" lon="5.03172">
        <ele>171.1</ele>
        <time>2022-10-16T13:42:05.000Z</time>
      </trkpt>
      <trkpt lat="45.06599" lon="5.03178">
        <ele>171.2</ele>
        <time>2022-10-16T13:42:06.000Z</time>
      </trkpt>
      <trkpt lat="45.06601" lon="5.03184">
        <ele>171.4</ele>
        <time>2022-10-16T13:42:07.000Z</time>
      </trkpt>
      <trkpt lat="45.06603" lon="5.0319">
        <ele>171.6</ele>
        <time>2022-10-16T13:42:08.000Z</time>
      </trkpt>
      <trkpt lat="45.06604" lon="5.03196">
        <ele>171.8</ele>
        <time>2022-10-16T13:42:09.000Z</time>
      </trkpt>
      <trkpt lat="45.06606" lon="5.03201">
        <ele>171.8</ele>
        <time>2022-10-16T13:42:10.000Z</time>
      </trkpt>
      <trkpt lat="45.06607" lon="5.03206">
        <ele>171.9</ele>
        <time>2022-10-16T13:42:11.000Z</time>
      </trkpt>
      <trkpt lat="45.06609" lon="5.03211">
        <ele>171.9</ele>
        <time>2022-10-16T13:42:12.000Z</time>
      </trkpt>
      <trkpt lat="45.0661" lon="5.03216">
        <ele>172</ele>
        <time>2022-10-16T13:42:13.000Z</time>
      </trkpt>
      <trkpt lat="45.06612" lon="5.03222">
        <ele>172</ele>
        <time>2022-10-16T13:42:14.000Z</time>
      </trkpt>
      <trkpt lat="45.06613" lon="5.03228">
        <ele>171.8</ele>
        <time>2022-10-16T13:42:15.000Z</time>
      </trkpt>
      <trkpt lat="45.06615" lon="5.03234">
        <ele>171.6</ele>
        <time>2022-10-16T13:42:16.000Z</time>
      </trkpt>
      <trkpt lat="45.06617" lon="5.0324">
        <ele>171.5</ele>
        <time>2022-10-16T13:42:17.000Z</time>
      </trkpt>
      <trkpt lat="45.06619" lon="5.03246">
        <ele>171.4</ele>
        <time>2022-10-16T13:42:18.000Z</time>
      </trkpt>
      <trkpt lat="45.06621" lon="5.03252">
        <ele>171.3</ele>
        <time>2022-10-16T13:42:19.000Z</time>
      </trkpt>
      <trkpt lat="45.06622" lon="5.03259">
        <ele>171.4</ele>
        <time>2022-10-16T13:42:20.000Z</time>
      </trkpt>
      <trkpt lat="45.06624" lon="5.03265">
        <ele>171.5</ele>
        <time>2022-10-16T13:42:21.000Z</time>
      </trkpt>
      <trkpt lat="45.06626" lon="5.03271">
        <ele>171.5</ele>
        <time>2022-10-16T13:42:22.000Z</time>
      </trkpt>
      <trkpt lat="45.06627" lon="5.03276">
        <ele>171.6</ele>
        <time>2022-10-16T13:42:23.000Z</time>
      </trkpt>
      <trkpt lat="45.06629" lon="5.03282">
        <ele>171.6</ele>
        <time>2022-10-16T13:42:24.000Z</time>
      </trkpt>
      <trkpt lat="45.06631" lon="5.03288">
        <ele>171.7</ele>
        <time>2022-10-16T13:42:25.000Z</time>
      </trkpt>
      <trkpt lat="45.06633" lon="5.03294">
        <ele>171.8</ele>
        <time>2022-10-16T13:42:26.000Z</time>
      </trkpt>
      <trkpt lat="45.06634" lon="5.033">
        <ele>171.8</ele>
        <time>2022-10-16T13:42:27.000Z</time>
      </trkpt>
      <trkpt lat="45.06636" lon="5.03306">
        <ele>171.9</ele>
        <time>2022-10-16T13:42:28.000Z</time>
      </trkpt>
      <trkpt lat="45.06638" lon="5.03312">
        <ele>172</ele>
        <time>2022-10-16T13:42:29.000Z</time>
      </trkpt>
      <trkpt lat="45.06639" lon="5.03317">
        <ele>172</ele>
        <time>2022-10-16T13:42:30.000Z</time>
      </trkpt>
      <trkpt lat="45.06641" lon="5.03323">
        <ele>172</ele>
        <time>2022-10-16T13:42:31.000Z</time>
      </trkpt>
      <trkpt lat="45.06643" lon="5.03329">
        <ele>172</ele>
        <time>2022-10-16T13:42:32.000Z</time>
      </trkpt>
      <trkpt lat="45.06645" lon="5.03335">
        <ele>172</ele>
        <time>2022-10-16T13:42:33.000Z</time>
      </trkpt>
      <trkpt lat="45.06646" lon="5.03341">
        <ele>172</ele>
        <time>2022-10-16T13:42:34.000Z</time>
      </trkpt>
      <trkpt lat="45.06648" lon="5.03347">
        <ele>172</ele>
        <time>2022-10-16T13:42:35.000Z</time>
      </trkpt>
      <trkpt lat="45.06649" lon="5.03354">
        <ele>172</ele>
        <time>2022-10-16T13:42:36.000Z</time>
      </trkpt>
      <trkpt lat="45.06651" lon="5.0336">
        <ele>172</ele>
        <time>2022-10-16T13:42:37.000Z</time>
      </trkpt>
      <trkpt lat="45.06652" lon="5.03367">
        <ele>172</ele>
        <time>2022-10-16T13:42:38.000Z</time>
      </trkpt>
      <trkpt lat="45.06653" lon="5.03373">
        <ele>172</ele>
        <time>2022-10-16T13:42:39.000Z</time>
      </trkpt>
      <trkpt lat="45.06654" lon="5.0338">
        <ele>172</ele>
        <time>2022-10-16T13:42:40.000Z</time>
      </trkpt>
      <trkpt lat="45.06655" lon="5.03387">
        <ele>172</ele>
        <time>2022-10-16T13:42:41.000Z</time>
      </trkpt>
      <trkpt lat="45.06657" lon="5.03393">
        <ele>172.1</ele>
        <time>2022-10-16T13:42:42.000Z</time>
      </trkpt>
      <trkpt lat="45.06658" lon="5.034">
        <ele>172.3</ele>
        <time>2022-10-16T13:42:43.000Z</time>
      </trkpt>
      <trkpt lat="45.06659" lon="5.03407">
        <ele>172.5</ele>
        <time>2022-10-16T13:42:44.000Z</time>
      </trkpt>
      <trkpt lat="45.0666" lon="5.03413">
        <ele>172.7</ele>
        <time>2022-10-16T13:42:45.000Z</time>
      </trkpt>
      <trkpt lat="45.06662" lon="5.03419">
        <ele>172.8</ele>
        <time>2022-10-16T13:42:46.000Z</time>
      </trkpt>
      <trkpt lat="45.06665" lon="5.03425">
        <ele>172.6</ele>
        <time>2022-10-16T13:42:47.000Z</time>
      </trkpt>
      <trkpt lat="45.06667" lon="5.03431">
        <ele>172.5</ele>
        <time>2022-10-16T13:42:48.000Z</time>
      </trkpt>
      <trkpt lat="45.06669" lon="5.03438">
        <ele>172.2</ele>
        <time>2022-10-16T13:42:49.000Z</time>
      </trkpt>
      <trkpt lat="45.06672" lon="5.03444">
        <ele>172</ele>
        <time>2022-10-16T13:42:50.000Z</time>
      </trkpt>
      <trkpt lat="45.06675" lon="5.03451">
        <ele>171.8</ele>
        <time>2022-10-16T13:42:51.000Z</time>
      </trkpt>
      <trkpt lat="45.06678" lon="5.03458">
        <ele>171.7</ele>
        <time>2022-10-16T13:42:52.000Z</time>
      </trkpt>
      <trkpt lat="45.06682" lon="5.03466">
        <ele>171.6</ele>
        <time>2022-10-16T13:42:53.000Z</time>
      </trkpt>
      <trkpt lat="45.06685" lon="5.03473">
        <ele>171.6</ele>
        <time>2022-10-16T13:42:54.000Z</time>
      </trkpt>
      <trkpt lat="45.06688" lon="5.03481">
        <ele>171.8</ele>
        <time>2022-10-16T13:42:55.000Z</time>
      </trkpt>
      <trkpt lat="45.0669" lon="5.03488">
        <ele>171.9</ele>
        <time>2022-10-16T13:42:56.000Z</time>
      </trkpt>
      <trkpt lat="45.06693" lon="5.03495">
        <ele>171.9</ele>
        <time>2022-10-16T13:42:57.000Z</time>
      </trkpt>
      <trkpt lat="45.06696" lon="5.03503">
        <ele>171.9</ele>
        <time>2022-10-16T13:42:58.000Z</time>
      </trkpt>
      <trkpt lat="45.06698" lon="5.0351">
        <ele>171.7</ele>
        <time>2022-10-16T13:42:59.000Z</time>
      </trkpt>
      <trkpt lat="45.06701" lon="5.03517">
        <ele>171.5</ele>
        <time>2022-10-16T13:43:00.000Z</time>
      </trkpt>
      <trkpt lat="45.06704" lon="5.03524">
        <ele>171.4</ele>
        <time>2022-10-16T13:43:01.000Z</time>
      </trkpt>
      <trkpt lat="45.06707" lon="5.03532">
        <ele>171.5</ele>
        <time>2022-10-16T13:43:02.000Z</time>
      </trkpt>
      <trkpt lat="45.0671" lon="5.03539">
        <ele>171.6</ele>
        <time>2022-10-16T13:43:03.000Z</time>
      </trkpt>
      <trkpt lat="45.06712" lon="5.03545">
        <ele>171.6</ele>
        <time>2022-10-16T13:43:04.000Z</time>
      </trkpt>
      <trkpt lat="45.06715" lon="5.03552">
        <ele>171.7</ele>
        <time>2022-10-16T13:43:05.000Z</time>
      </trkpt>
      <trkpt lat="45.06718" lon="5.03558">
        <ele>171.9</ele>
        <time>2022-10-16T13:43:06.000Z</time>
      </trkpt>
      <trkpt lat="45.0672" lon="5.03565">
        <ele>172</ele>
        <time>2022-10-16T13:43:07.000Z</time>
      </trkpt>
      <trkpt lat="45.06723" lon="5.03571">
        <ele>172</ele>
        <time>2022-10-16T13:43:08.000Z</time>
      </trkpt>
      <trkpt lat="45.06726" lon="5.03578">
        <ele>172</ele>
        <time>2022-10-16T13:43:09.000Z</time>
      </trkpt>
      <trkpt lat="45.06729" lon="5.03585">
        <ele>172</ele>
        <time>2022-10-16T13:43:10.000Z</time>
      </trkpt>
      <trkpt lat="45.06732" lon="5.03592">
        <ele>172</ele>
        <time>2022-10-16T13:43:11.000Z</time>
      </trkpt>
      <trkpt lat="45.06735" lon="5.03599">
        <ele>172</ele>
        <time>2022-10-16T13:43:12.000Z</time>
      </trkpt>
      <trkpt lat="45.06738" lon="5.03607">
        <ele>172</ele>
        <time>2022-10-16T13:43:13.000Z</time>
      </trkpt>
      <trkpt lat="45.06741" lon="5.03613">
        <ele>172</ele>
        <time>2022-10-16T13:43:14.000Z</time>
      </trkpt>
      <trkpt lat="45.06743" lon="5.0362">
        <ele>171.9</ele>
        <time>2022-10-16T13:43:15.000Z</time>
      </trkpt>
      <trkpt lat="45.06746" lon="5.03626">
        <ele>171.9</ele>
        <time>2022-10-16T13:43:16.000Z</time>
      </trkpt>
      <trkpt lat="45.06748" lon="5.03632">
        <ele>171.9</ele>
        <time>2022-10-16T13:43:17.000Z</time>
      </trkpt>
      <trkpt lat="45.06751" lon="5.03639">
        <ele>172</ele>
        <time>2022-10-16T13:43:18.000Z</time>
      </trkpt>
      <trkpt lat="45.06753" lon="5.03645">
        <ele>172</ele>
        <time>2022-10-16T13:43:19.000Z</time>
      </trkpt>
      <trkpt lat="45.06755" lon="5.03653">
        <ele>172</ele>
        <time>2022-10-16T13:43:20.000Z</time>
      </trkpt>
      <trkpt lat="45.06757" lon="5.0366">
        <ele>172</ele>
        <time>2022-10-16T13:43:21.000Z</time>
      </trkpt>
      <trkpt lat="45.06759" lon="5.03667">
        <ele>172</ele>
        <time>2022-10-16T13:43:22.000Z</time>
      </trkpt>
      <trkpt lat="45.06761" lon="5.03674">
        <ele>172</ele>
        <time>2022-10-16T13:43:23.000Z</time>
      </trkpt>
      <trkpt lat="45.06763" lon="5.0368">
        <ele>172</ele>
        <time>2022-10-16T13:43:24.000Z</time>
      </trkpt>
      <trkpt lat="45.06766" lon="5.03687">
        <ele>172</ele>
        <time>2022-10-16T13:43:25.000Z</time>
      </trkpt>
      <trkpt lat="45.06768" lon="5.03694">
        <ele>172</ele>
        <time>2022-10-16T13:43:26.000Z</time>
      </trkpt>
      <trkpt lat="45.0677" lon="5.03699">
        <ele>172.1</ele>
        <time>2022-10-16T13:43:27.000Z</time>
      </trkpt>
      <trkpt lat="45.06772" lon="5.03705">
        <ele>172.3</ele>
        <time>2022-10-16T13:43:28.000Z</time>
      </trkpt>
      <trkpt lat="45.06774" lon="5.03712">
        <ele>172.5</ele>
        <time>2022-10-16T13:43:29.000Z</time>
      </trkpt>
      <trkpt lat="45.06776" lon="5.03718">
        <ele>172.8</ele>
        <time>2022-10-16T13:43:30.000Z</time>
      </trkpt>
      <trkpt lat="45.06777" lon="5.03725">
        <ele>173</ele>
        <time>2022-10-16T13:43:31.000Z</time>
      </trkpt>
      <trkpt lat="45.06779" lon="5.03732">
        <ele>173</ele>
        <time>2022-10-16T13:43:32.000Z</time>
      </trkpt>
      <trkpt lat="45.06781" lon="5.03739">
        <ele>172.9</ele>
        <time>2022-10-16T13:43:33.000Z</time>
      </trkpt>
      <trkpt lat="45.06783" lon="5.03745">
        <ele>172.8</ele>
        <time>2022-10-16T13:43:34.000Z</time>
      </trkpt>
      <trkpt lat="45.06785" lon="5.03751">
        <ele>172.7</ele>
        <time>2022-10-16T13:43:35.000Z</time>
      </trkpt>
      <trkpt lat="45.06787" lon="5.03757">
        <ele>172.6</ele>
        <time>2022-10-16T13:43:36.000Z</time>
      </trkpt>
      <trkpt lat="45.06789" lon="5.03763">
        <ele>172.5</ele>
        <time>2022-10-16T13:43:37.000Z</time>
      </trkpt>
      <trkpt lat="45.0679" lon="5.03769">
        <ele>172.5</ele>
        <time>2022-10-16T13:43:38.000Z</time>
      </trkpt>
      <trkpt lat="45.06792" lon="5.03774">
        <ele>172.5</ele>
        <time>2022-10-16T13:43:39.000Z</time>
      </trkpt>
      <trkpt lat="45.06794" lon="5.0378">
        <ele>172.6</ele>
        <time>2022-10-16T13:43:40.000Z</time>
      </trkpt>
      <trkpt lat="45.06796" lon="5.03785">
        <ele>172.6</ele>
        <time>2022-10-16T13:43:41.000Z</time>
      </trkpt>
      <trkpt lat="45.06798" lon="5.03791">
        <ele>172.7</ele>
        <time>2022-10-16T13:43:42.000Z</time>
      </trkpt>
      <trkpt lat="45.068" lon="5.03797">
        <ele>172.8</ele>
        <time>2022-10-16T13:43:43.000Z</time>
      </trkpt>
      <trkpt lat="45.06803" lon="5.03803">
        <ele>172.9</ele>
        <time>2022-10-16T13:43:44.000Z</time>
      </trkpt>
      <trkpt lat="45.06805" lon="5.03809">
        <ele>173</ele>
        <time>2022-10-16T13:43:45.000Z</time>
      </trkpt>
      <trkpt lat="45.06807" lon="5.03815">
        <ele>173</ele>
        <time>2022-10-16T13:43:46.000Z</time>
      </trkpt>
      <trkpt lat="45.0681" lon="5.03821">
        <ele>173</ele>
        <time>2022-10-16T13:43:47.000Z</time>
      </trkpt>
      <trkpt lat="45.06812" lon="5.03826">
        <ele>173</ele>
        <time>2022-10-16T13:43:48.000Z</time>
      </trkpt>
      <trkpt lat="45.06815" lon="5.03832">
        <ele>173</ele>
        <time>2022-10-16T13:43:49.000Z</time>
      </trkpt>
      <trkpt lat="45.06818" lon="5.03837">
        <ele>173.1</ele>
        <time>2022-10-16T13:43:50.000Z</time>
      </trkpt>
      <trkpt lat="45.0682" lon="5.03842">
        <ele>173.3</ele>
        <time>2022-10-16T13:43:51.000Z</time>
      </trkpt>
      <trkpt lat="45.06822" lon="5.03847">
        <ele>173.6</ele>
        <time>2022-10-16T13:43:52.000Z</time>
      </trkpt>
      <trkpt lat="45.06825" lon="5.03852">
        <ele>174</ele>
        <time>2022-10-16T13:43:53.000Z</time>
      </trkpt>
      <trkpt lat="45.06828" lon="5.03857">
        <ele>174.4</ele>
        <time>2022-10-16T13:43:54.000Z</time>
      </trkpt>
      <trkpt lat="45.0683" lon="5.03863">
        <ele>174.7</ele>
        <time>2022-10-16T13:43:55.000Z</time>
      </trkpt>
      <trkpt lat="45.06833" lon="5.03868">
        <ele>174.7</ele>
        <time>2022-10-16T13:43:56.000Z</time>
      </trkpt>
      <trkpt lat="45.06836" lon="5.03873">
        <ele>174.7</ele>
        <time>2022-10-16T13:43:57.000Z</time>
      </trkpt>
      <trkpt lat="45.06838" lon="5.03878">
        <ele>174.8</ele>
        <time>2022-10-16T13:43:58.000Z</time>
      </trkpt>
      <trkpt lat="45.06841" lon="5.03883">
        <ele>174.9</ele>
        <time>2022-10-16T13:43:59.000Z</time>
      </trkpt>
      <trkpt lat="45.06844" lon="5.03887">
        <ele>175.1</ele>
        <time>2022-10-16T13:44:00.000Z</time>
      </trkpt>
      <trkpt lat="45.06846" lon="5.03891">
        <ele>175.4</ele>
        <time>2022-10-16T13:44:01.000Z</time>
      </trkpt>
      <trkpt lat="45.06849" lon="5.03895">
        <ele>175.6</ele>
        <time>2022-10-16T13:44:02.000Z</time>
      </trkpt>
      <trkpt lat="45.06851" lon="5.03899">
        <ele>175.9</ele>
        <time>2022-10-16T13:44:03.000Z</time>
      </trkpt>
      <trkpt lat="45.06853" lon="5.03903">
        <ele>176.1</ele>
        <time>2022-10-16T13:44:04.000Z</time>
      </trkpt>
      <trkpt lat="45.06853" lon="5.03909">
        <ele>176.2</ele>
        <time>2022-10-16T13:44:05.000Z</time>
      </trkpt>
      <trkpt lat="45.06853" lon="5.03916">
        <ele>176.1</ele>
        <time>2022-10-16T13:44:06.000Z</time>
      </trkpt>
      <trkpt lat="45.06852" lon="5.03923">
        <ele>176.1</ele>
        <time>2022-10-16T13:44:07.000Z</time>
      </trkpt>
      <trkpt lat="45.06851" lon="5.0393">
        <ele>176.1</ele>
        <time>2022-10-16T13:44:08.000Z</time>
      </trkpt>
      <trkpt lat="45.06849" lon="5.03938">
        <ele>176</ele>
        <time>2022-10-16T13:44:09.000Z</time>
      </trkpt>
      <trkpt lat="45.06847" lon="5.03946">
        <ele>175.9</ele>
        <time>2022-10-16T13:44:10.000Z</time>
      </trkpt>
      <trkpt lat="45.06845" lon="5.03954">
        <ele>175.6</ele>
        <time>2022-10-16T13:44:11.000Z</time>
      </trkpt>
      <trkpt lat="45.06845" lon="5.03962">
        <ele>175.4</ele>
        <time>2022-10-16T13:44:12.000Z</time>
      </trkpt>
      <trkpt lat="45.06846" lon="5.03971">
        <ele>175.1</ele>
        <time>2022-10-16T13:44:13.000Z</time>
      </trkpt>
      <trkpt lat="45.06849" lon="5.03979">
        <ele>174.8</ele>
        <time>2022-10-16T13:44:14.000Z</time>
      </trkpt>
      <trkpt lat="45.06851" lon="5.03988">
        <ele>174.8</ele>
        <time>2022-10-16T13:44:15.000Z</time>
      </trkpt>
      <trkpt lat="45.06855" lon="5.03997">
        <ele>175.2</ele>
        <time>2022-10-16T13:44:16.000Z</time>
      </trkpt>
      <trkpt lat="45.06858" lon="5.04006">
        <ele>175.3</ele>
        <time>2022-10-16T13:44:17.000Z</time>
      </trkpt>
      <trkpt lat="45.06862" lon="5.04015">
        <ele>174.9</ele>
        <time>2022-10-16T13:44:18.000Z</time>
      </trkpt>
      <trkpt lat="45.06864" lon="5.04024">
        <ele>174.5</ele>
        <time>2022-10-16T13:44:19.000Z</time>
      </trkpt>
      <trkpt lat="45.06867" lon="5.04033">
        <ele>174.4</ele>
        <time>2022-10-16T13:44:20.000Z</time>
      </trkpt>
      <trkpt lat="45.06868" lon="5.04042">
        <ele>174.5</ele>
        <time>2022-10-16T13:44:21.000Z</time>
      </trkpt>
      <trkpt lat="45.0687" lon="5.04051">
        <ele>174.6</ele>
        <time>2022-10-16T13:44:22.000Z</time>
      </trkpt>
      <trkpt lat="45.06871" lon="5.0406">
        <ele>174.7</ele>
        <time>2022-10-16T13:44:23.000Z</time>
      </trkpt>
      <trkpt lat="45.06871" lon="5.04069">
        <ele>174.9</ele>
        <time>2022-10-16T13:44:24.000Z</time>
      </trkpt>
      <trkpt lat="45.06872" lon="5.04078">
        <ele>175.1</ele>
        <time>2022-10-16T13:44:25.000Z</time>
      </trkpt>
      <trkpt lat="45.06873" lon="5.04086">
        <ele>175.3</ele>
        <time>2022-10-16T13:44:26.000Z</time>
      </trkpt>
      <trkpt lat="45.06873" lon="5.04094">
        <ele>175.3</ele>
        <time>2022-10-16T13:44:27.000Z</time>
      </trkpt>
      <trkpt lat="45.06874" lon="5.04102">
        <ele>175.4</ele>
        <time>2022-10-16T13:44:28.000Z</time>
      </trkpt>
      <trkpt lat="45.06875" lon="5.0411">
        <ele>175.5</ele>
        <time>2022-10-16T13:44:29.000Z</time>
      </trkpt>
      <trkpt lat="45.06876" lon="5.04118">
        <ele>175.5</ele>
        <time>2022-10-16T13:44:30.000Z</time>
      </trkpt>
      <trkpt lat="45.06876" lon="5.04126">
        <ele>175.4</ele>
        <time>2022-10-16T13:44:31.000Z</time>
      </trkpt>
      <trkpt lat="45.06877" lon="5.04135">
        <ele>175.4</ele>
        <time>2022-10-16T13:44:32.000Z</time>
      </trkpt>
      <trkpt lat="45.06878" lon="5.04143">
        <ele>175.2</ele>
        <time>2022-10-16T13:44:33.000Z</time>
      </trkpt>
      <trkpt lat="45.06879" lon="5.04152">
        <ele>174.8</ele>
        <time>2022-10-16T13:44:34.000Z</time>
      </trkpt>
      <trkpt lat="45.0688" lon="5.04161">
        <ele>174.4</ele>
        <time>2022-10-16T13:44:35.000Z</time>
      </trkpt>
      <trkpt lat="45.06881" lon="5.0417">
        <ele>174.1</ele>
        <time>2022-10-16T13:44:36.000Z</time>
      </trkpt>
      <trkpt lat="45.06882" lon="5.04179">
        <ele>173.9</ele>
        <time>2022-10-16T13:44:37.000Z</time>
      </trkpt>
      <trkpt lat="45.06883" lon="5.04188">
        <ele>173.8</ele>
        <time>2022-10-16T13:44:38.000Z</time>
      </trkpt>
      <trkpt lat="45.06884" lon="5.04196">
        <ele>173.6</ele>
        <time>2022-10-16T13:44:39.000Z</time>
      </trkpt>
      <trkpt lat="45.06885" lon="5.04205">
        <ele>173.3</ele>
        <time>2022-10-16T13:44:40.000Z</time>
      </trkpt>
      <trkpt lat="45.06886" lon="5.04214">
        <ele>173.1</ele>
        <time>2022-10-16T13:44:41.000Z</time>
      </trkpt>
      <trkpt lat="45.06887" lon="5.04223">
        <ele>172.8</ele>
        <time>2022-10-16T13:44:42.000Z</time>
      </trkpt>
      <trkpt lat="45.06887" lon="5.04232">
        <ele>172.9</ele>
        <time>2022-10-16T13:44:43.000Z</time>
      </trkpt>
      <trkpt lat="45.06888" lon="5.04241">
        <ele>173</ele>
        <time>2022-10-16T13:44:44.000Z</time>
      </trkpt>
      <trkpt lat="45.06889" lon="5.04251">
        <ele>173</ele>
        <time>2022-10-16T13:44:45.000Z</time>
      </trkpt>
      <trkpt lat="45.0689" lon="5.0426">
        <ele>173</ele>
        <time>2022-10-16T13:44:46.000Z</time>
      </trkpt>
      <trkpt lat="45.0689" lon="5.0427">
        <ele>173.1</ele>
        <time>2022-10-16T13:44:47.000Z</time>
      </trkpt>
      <trkpt lat="45.0689" lon="5.04279">
        <ele>173.1</ele>
        <time>2022-10-16T13:44:48.000Z</time>
      </trkpt>
      <trkpt lat="45.0689" lon="5.04289">
        <ele>173.1</ele>
        <time>2022-10-16T13:44:49.000Z</time>
      </trkpt>
      <trkpt lat="45.0689" lon="5.04299">
        <ele>173.1</ele>
        <time>2022-10-16T13:44:50.000Z</time>
      </trkpt>
      <trkpt lat="45.06889" lon="5.04308">
        <ele>173.1</ele>
        <time>2022-10-16T13:44:51.000Z</time>
      </trkpt>
      <trkpt lat="45.06889" lon="5.04318">
        <ele>173.4</ele>
        <time>2022-10-16T13:44:52.000Z</time>
      </trkpt>
      <trkpt lat="45.06888" lon="5.04327">
        <ele>173.7</ele>
        <time>2022-10-16T13:44:53.000Z</time>
      </trkpt>
      <trkpt lat="45.06887" lon="5.04336">
        <ele>173.9</ele>
        <time>2022-10-16T13:44:54.000Z</time>
      </trkpt>
      <trkpt lat="45.06887" lon="5.04346">
        <ele>173.8</ele>
        <time>2022-10-16T13:44:55.000Z</time>
      </trkpt>
      <trkpt lat="45.06886" lon="5.04355">
        <ele>173.8</ele>
        <time>2022-10-16T13:44:56.000Z</time>
      </trkpt>
      <trkpt lat="45.06885" lon="5.04365">
        <ele>173.8</ele>
        <time>2022-10-16T13:44:57.000Z</time>
      </trkpt>
      <trkpt lat="45.06884" lon="5.04374">
        <ele>174</ele>
        <time>2022-10-16T13:44:58.000Z</time>
      </trkpt>
      <trkpt lat="45.06884" lon="5.04383">
        <ele>174.2</ele>
        <time>2022-10-16T13:44:59.000Z</time>
      </trkpt>
      <trkpt lat="45.06884" lon="5.04392">
        <ele>174.3</ele>
        <time>2022-10-16T13:45:00.000Z</time>
      </trkpt>
      <trkpt lat="45.06885" lon="5.04401">
        <ele>174.4</ele>
        <time>2022-10-16T13:45:01.000Z</time>
      </trkpt>
      <trkpt lat="45.06886" lon="5.0441">
        <ele>174.6</ele>
        <time>2022-10-16T13:45:02.000Z</time>
      </trkpt>
      <trkpt lat="45.06887" lon="5.04419">
        <ele>174.6</ele>
        <time>2022-10-16T13:45:03.000Z</time>
      </trkpt>
      <trkpt lat="45.06888" lon="5.04428">
        <ele>174.5</ele>
        <time>2022-10-16T13:45:04.000Z</time>
      </trkpt>
      <trkpt lat="45.06889" lon="5.04438">
        <ele>174.3</ele>
        <time>2022-10-16T13:45:05.000Z</time>
      </trkpt>
      <trkpt lat="45.0689" lon="5.04447">
        <ele>174.3</ele>
        <time>2022-10-16T13:45:06.000Z</time>
      </trkpt>
      <trkpt lat="45.06891" lon="5.04456">
        <ele>174.2</ele>
        <time>2022-10-16T13:45:07.000Z</time>
      </trkpt>
      <trkpt lat="45.06893" lon="5.04465">
        <ele>174.3</ele>
        <time>2022-10-16T13:45:08.000Z</time>
      </trkpt>
      <trkpt lat="45.06894" lon="5.04475">
        <ele>174.4</ele>
        <time>2022-10-16T13:45:09.000Z</time>
      </trkpt>
      <trkpt lat="45.06896" lon="5.04484">
        <ele>174.4</ele>
        <time>2022-10-16T13:45:10.000Z</time>
      </trkpt>
      <trkpt lat="45.06898" lon="5.04493">
        <ele>174.6</ele>
        <time>2022-10-16T13:45:11.000Z</time>
      </trkpt>
      <trkpt lat="45.06901" lon="5.04502">
        <ele>174.8</ele>
        <time>2022-10-16T13:45:12.000Z</time>
      </trkpt>
      <trkpt lat="45.06903" lon="5.04511">
        <ele>174.8</ele>
        <time>2022-10-16T13:45:13.000Z</time>
      </trkpt>
      <trkpt lat="45.06906" lon="5.04519">
        <ele>174.8</ele>
        <time>2022-10-16T13:45:14.000Z</time>
      </trkpt>
      <trkpt lat="45.0691" lon="5.04528">
        <ele>174.7</ele>
        <time>2022-10-16T13:45:15.000Z</time>
      </trkpt>
      <trkpt lat="45.06913" lon="5.04537">
        <ele>174.4</ele>
        <time>2022-10-16T13:45:16.000Z</time>
      </trkpt>
      <trkpt lat="45.06916" lon="5.04546">
        <ele>173.9</ele>
        <time>2022-10-16T13:45:17.000Z</time>
      </trkpt>
      <trkpt lat="45.06919" lon="5.04555">
        <ele>173.6</ele>
        <time>2022-10-16T13:45:18.000Z</time>
      </trkpt>
      <trkpt lat="45.06922" lon="5.04563">
        <ele>173.8</ele>
        <time>2022-10-16T13:45:19.000Z</time>
      </trkpt>
      <trkpt lat="45.06925" lon="5.04572">
        <ele>174.1</ele>
        <time>2022-10-16T13:45:20.000Z</time>
      </trkpt>
      <trkpt lat="45.06927" lon="5.0458">
        <ele>174.4</ele>
        <time>2022-10-16T13:45:21.000Z</time>
      </trkpt>
      <trkpt lat="45.0693" lon="5.04589">
        <ele>174.4</ele>
        <time>2022-10-16T13:45:22.000Z</time>
      </trkpt>
      <trkpt lat="45.06933" lon="5.04597">
        <ele>174.1</ele>
        <time>2022-10-16T13:45:23.000Z</time>
      </trkpt>
      <trkpt lat="45.06936" lon="5.04606">
        <ele>173.6</ele>
        <time>2022-10-16T13:45:24.000Z</time>
      </trkpt>
      <trkpt lat="45.06939" lon="5.04614">
        <ele>173.3</ele>
        <time>2022-10-16T13:45:25.000Z</time>
      </trkpt>
      <trkpt lat="45.06942" lon="5.04622">
        <ele>173.3</ele>
        <time>2022-10-16T13:45:26.000Z</time>
      </trkpt>
      <trkpt lat="45.06944" lon="5.04631">
        <ele>173.2</ele>
        <time>2022-10-16T13:45:27.000Z</time>
      </trkpt>
      <trkpt lat="45.06945" lon="5.04641">
        <ele>173</ele>
        <time>2022-10-16T13:45:28.000Z</time>
      </trkpt>
      <trkpt lat="45.06946" lon="5.0465">
        <ele>173.1</ele>
        <time>2022-10-16T13:45:29.000Z</time>
      </trkpt>
      <trkpt lat="45.06947" lon="5.0466">
        <ele>173.1</ele>
        <time>2022-10-16T13:45:30.000Z</time>
      </trkpt>
      <trkpt lat="45.06949" lon="5.04669">
        <ele>173</ele>
        <time>2022-10-16T13:45:31.000Z</time>
      </trkpt>
      <trkpt lat="45.0695" lon="5.04678">
        <ele>172.5</ele>
        <time>2022-10-16T13:45:32.000Z</time>
      </trkpt>
      <trkpt lat="45.0695" lon="5.04688">
        <ele>172</ele>
        <time>2022-10-16T13:45:33.000Z</time>
      </trkpt>
      <trkpt lat="45.06951" lon="5.04697">
        <ele>171.7</ele>
        <time>2022-10-16T13:45:34.000Z</time>
      </trkpt>
      <trkpt lat="45.06953" lon="5.04706">
        <ele>171.9</ele>
        <time>2022-10-16T13:45:35.000Z</time>
      </trkpt>
      <trkpt lat="45.06954" lon="5.04714">
        <ele>172</ele>
        <time>2022-10-16T13:45:36.000Z</time>
      </trkpt>
      <trkpt lat="45.06955" lon="5.04722">
        <ele>172.1</ele>
        <time>2022-10-16T13:45:37.000Z</time>
      </trkpt>
      <trkpt lat="45.06956" lon="5.0473">
        <ele>172.1</ele>
        <time>2022-10-16T13:45:38.000Z</time>
      </trkpt>
      <trkpt lat="45.06957" lon="5.04738">
        <ele>172.1</ele>
        <time>2022-10-16T13:45:39.000Z</time>
      </trkpt>
      <trkpt lat="45.06959" lon="5.04746">
        <ele>172.1</ele>
        <time>2022-10-16T13:45:40.000Z</time>
      </trkpt>
      <trkpt lat="45.0696" lon="5.04755">
        <ele>172.1</ele>
        <time>2022-10-16T13:45:41.000Z</time>
      </trkpt>
      <trkpt lat="45.06961" lon="5.04763">
        <ele>172.2</ele>
        <time>2022-10-16T13:45:42.000Z</time>
      </trkpt>
      <trkpt lat="45.06962" lon="5.04771">
        <ele>172.3</ele>
        <time>2022-10-16T13:45:43.000Z</time>
      </trkpt>
      <trkpt lat="45.06964" lon="5.04779">
        <ele>172.4</ele>
        <time>2022-10-16T13:45:44.000Z</time>
      </trkpt>
      <trkpt lat="45.06965" lon="5.04787">
        <ele>172.6</ele>
        <time>2022-10-16T13:45:45.000Z</time>
      </trkpt>
      <trkpt lat="45.06967" lon="5.04794">
        <ele>172.7</ele>
        <time>2022-10-16T13:45:46.000Z</time>
      </trkpt>
      <trkpt lat="45.06968" lon="5.04802">
        <ele>172.8</ele>
        <time>2022-10-16T13:45:47.000Z</time>
      </trkpt>
      <trkpt lat="45.06969" lon="5.04809">
        <ele>172.8</ele>
        <time>2022-10-16T13:45:48.000Z</time>
      </trkpt>
      <trkpt lat="45.0697" lon="5.04816">
        <ele>172.5</ele>
        <time>2022-10-16T13:45:49.000Z</time>
      </trkpt>
      <trkpt lat="45.06972" lon="5.04824">
        <ele>172.3</ele>
        <time>2022-10-16T13:45:50.000Z</time>
      </trkpt>
      <trkpt lat="45.06973" lon="5.04831">
        <ele>172.1</ele>
        <time>2022-10-16T13:45:51.000Z</time>
      </trkpt>
      <trkpt lat="45.06975" lon="5.04838">
        <ele>172.1</ele>
        <time>2022-10-16T13:45:52.000Z</time>
      </trkpt>
      <trkpt lat="45.06976" lon="5.04846">
        <ele>172.1</ele>
        <time>2022-10-16T13:45:53.000Z</time>
      </trkpt>
      <trkpt lat="45.06977" lon="5.04853">
        <ele>172.2</ele>
        <time>2022-10-16T13:45:54.000Z</time>
      </trkpt>
      <trkpt lat="45.06978" lon="5.0486">
        <ele>172.2</ele>
        <time>2022-10-16T13:45:55.000Z</time>
      </trkpt>
      <trkpt lat="45.06979" lon="5.04867">
        <ele>172.2</ele>
        <time>2022-10-16T13:45:56.000Z</time>
      </trkpt>
      <trkpt lat="45.06979" lon="5.04874">
        <ele>172.2</ele>
        <time>2022-10-16T13:45:57.000Z</time>
      </trkpt>
      <trkpt lat="45.06979" lon="5.04881">
        <ele>172.3</ele>
        <time>2022-10-16T13:45:58.000Z</time>
      </trkpt>
      <trkpt lat="45.0698" lon="5.04887">
        <ele>172.3</ele>
        <time>2022-10-16T13:45:59.000Z</time>
      </trkpt>
      <trkpt lat="45.0698" lon="5.04894">
        <ele>172.4</ele>
        <time>2022-10-16T13:46:00.000Z</time>
      </trkpt>
      <trkpt lat="45.06981" lon="5.04901">
        <ele>172.6</ele>
        <time>2022-10-16T13:46:01.000Z</time>
      </trkpt>
      <trkpt lat="45.06982" lon="5.04908">
        <ele>172.8</ele>
        <time>2022-10-16T13:46:02.000Z</time>
      </trkpt>
      <trkpt lat="45.06982" lon="5.04915">
        <ele>173</ele>
        <time>2022-10-16T13:46:03.000Z</time>
      </trkpt>
      <trkpt lat="45.06983" lon="5.04922">
        <ele>172.9</ele>
        <time>2022-10-16T13:46:04.000Z</time>
      </trkpt>
      <trkpt lat="45.06985" lon="5.04929">
        <ele>172.8</ele>
        <time>2022-10-16T13:46:05.000Z</time>
      </trkpt>
      <trkpt lat="45.06987" lon="5.04937">
        <ele>172.7</ele>
        <time>2022-10-16T13:46:06.000Z</time>
      </trkpt>
      <trkpt lat="45.06989" lon="5.04944">
        <ele>172.6</ele>
        <time>2022-10-16T13:46:07.000Z</time>
      </trkpt>
      <trkpt lat="45.06991" lon="5.04951">
        <ele>172.7</ele>
        <time>2022-10-16T13:46:08.000Z</time>
      </trkpt>
      <trkpt lat="45.06993" lon="5.04959">
        <ele>172.7</ele>
        <time>2022-10-16T13:46:09.000Z</time>
      </trkpt>
      <trkpt lat="45.06995" lon="5.04966">
        <ele>172.8</ele>
        <time>2022-10-16T13:46:10.000Z</time>
      </trkpt>
      <trkpt lat="45.06996" lon="5.04973">
        <ele>172.9</ele>
        <time>2022-10-16T13:46:11.000Z</time>
      </trkpt>
      <trkpt lat="45.06998" lon="5.0498">
        <ele>172.9</ele>
        <time>2022-10-16T13:46:12.000Z</time>
      </trkpt>
      <trkpt lat="45.07" lon="5.04987">
        <ele>173</ele>
        <time>2022-10-16T13:46:13.000Z</time>
      </trkpt>
      <trkpt lat="45.07002" lon="5.04993">
        <ele>173.1</ele>
        <time>2022-10-16T13:46:14.000Z</time>
      </trkpt>
      <trkpt lat="45.07004" lon="5.05">
        <ele>173.3</ele>
        <time>2022-10-16T13:46:15.000Z</time>
      </trkpt>
      <trkpt lat="45.07006" lon="5.05007">
        <ele>173.6</ele>
        <time>2022-10-16T13:46:16.000Z</time>
      </trkpt>
      <trkpt lat="45.07008" lon="5.05014">
        <ele>173.9</ele>
        <time>2022-10-16T13:46:17.000Z</time>
      </trkpt>
      <trkpt lat="45.07009" lon="5.05021">
        <ele>174.2</ele>
        <time>2022-10-16T13:46:18.000Z</time>
      </trkpt>
      <trkpt lat="45.07011" lon="5.05028">
        <ele>174.4</ele>
        <time>2022-10-16T13:46:19.000Z</time>
      </trkpt>
      <trkpt lat="45.07012" lon="5.05034">
        <ele>174.4</ele>
        <time>2022-10-16T13:46:20.000Z</time>
      </trkpt>
      <trkpt lat="45.07014" lon="5.0504">
        <ele>174.5</ele>
        <time>2022-10-16T13:46:21.000Z</time>
      </trkpt>
      <trkpt lat="45.07015" lon="5.05047">
        <ele>174.5</ele>
        <time>2022-10-16T13:46:22.000Z</time>
      </trkpt>
      <trkpt lat="45.07016" lon="5.05052">
        <ele>174.6</ele>
        <time>2022-10-16T13:46:23.000Z</time>
      </trkpt>
      <trkpt lat="45.07017" lon="5.05058">
        <ele>174.6</ele>
        <time>2022-10-16T13:46:24.000Z</time>
      </trkpt>
      <trkpt lat="45.07018" lon="5.05063">
        <ele>174.6</ele>
        <time>2022-10-16T13:46:25.000Z</time>
      </trkpt>
      <trkpt lat="45.07019" lon="5.05068">
        <ele>174.7</ele>
        <time>2022-10-16T13:46:26.000Z</time>
      </trkpt>
      <trkpt lat="45.0702" lon="5.05072">
        <ele>174.7</ele>
        <time>2022-10-16T13:46:27.000Z</time>
      </trkpt>
      <trkpt lat="45.0702" lon="5.05076">
        <ele>174.7</ele>
        <time>2022-10-16T13:46:28.000Z</time>
      </trkpt>
      <trkpt lat="45.07021" lon="5.05079">
        <ele>174.7</ele>
        <time>2022-10-16T13:46:29.000Z</time>
      </trkpt>
      <trkpt lat="45.0702" lon="5.05083">
        <ele>174.7</ele>
        <time>2022-10-16T13:46:31.000Z</time>
      </trkpt>
      <trkpt lat="45.0702" lon="5.05086">
        <ele>174.7</ele>
        <time>2022-10-16T13:46:33.000Z</time>
      </trkpt>
      <trkpt lat="45.07019" lon="5.05089">
        <ele>174.7</ele>
        <time>2022-10-16T13:46:34.000Z</time>
      </trkpt>
      <trkpt lat="45.07018" lon="5.05093">
        <ele>174.6</ele>
        <time>2022-10-16T13:46:35.000Z</time>
      </trkpt>
      <trkpt lat="45.07017" lon="5.05097">
        <ele>174.6</ele>
        <time>2022-10-16T13:46:36.000Z</time>
      </trkpt>
      <trkpt lat="45.07017" lon="5.05103">
        <ele>174.6</ele>
        <time>2022-10-16T13:46:37.000Z</time>
      </trkpt>
      <trkpt lat="45.07018" lon="5.05108">
        <ele>174.7</ele>
        <time>2022-10-16T13:46:38.000Z</time>
      </trkpt>
      <trkpt lat="45.0702" lon="5.05113">
        <ele>174.7</ele>
        <time>2022-10-16T13:46:39.000Z</time>
      </trkpt>
      <trkpt lat="45.07023" lon="5.05118">
        <ele>174.8</ele>
        <time>2022-10-16T13:46:40.000Z</time>
      </trkpt>
      <trkpt lat="45.07026" lon="5.05122">
        <ele>174.9</ele>
        <time>2022-10-16T13:46:41.000Z</time>
      </trkpt>
      <trkpt lat="45.07028" lon="5.05127">
        <ele>175</ele>
        <time>2022-10-16T13:46:42.000Z</time>
      </trkpt>
      <trkpt lat="45.07031" lon="5.05133">
        <ele>175.2</ele>
        <time>2022-10-16T13:46:43.000Z</time>
      </trkpt>
      <trkpt lat="45.07033" lon="5.05138">
        <ele>175.4</ele>
        <time>2022-10-16T13:46:44.000Z</time>
      </trkpt>
      <trkpt lat="45.07036" lon="5.05143">
        <ele>175.6</ele>
        <time>2022-10-16T13:46:45.000Z</time>
      </trkpt>
      <trkpt lat="45.07038" lon="5.05148">
        <ele>175.7</ele>
        <time>2022-10-16T13:46:46.000Z</time>
      </trkpt>
      <trkpt lat="45.0704" lon="5.05153">
        <ele>175.9</ele>
        <time>2022-10-16T13:46:47.000Z</time>
      </trkpt>
      <trkpt lat="45.07042" lon="5.05159">
        <ele>176</ele>
        <time>2022-10-16T13:46:48.000Z</time>
      </trkpt>
      <trkpt lat="45.07044" lon="5.05165">
        <ele>176.2</ele>
        <time>2022-10-16T13:46:49.000Z</time>
      </trkpt>
      <trkpt lat="45.07046" lon="5.05171">
        <ele>176.4</ele>
        <time>2022-10-16T13:46:50.000Z</time>
      </trkpt>
      <trkpt lat="45.07048" lon="5.05177">
        <ele>176.7</ele>
        <time>2022-10-16T13:46:51.000Z</time>
      </trkpt>
      <trkpt lat="45.0705" lon="5.05183">
        <ele>176.8</ele>
        <time>2022-10-16T13:46:52.000Z</time>
      </trkpt>
      <trkpt lat="45.07053" lon="5.05189">
        <ele>177</ele>
        <time>2022-10-16T13:46:53.000Z</time>
      </trkpt>
      <trkpt lat="45.07056" lon="5.05195">
        <ele>177</ele>
        <time>2022-10-16T13:46:54.000Z</time>
      </trkpt>
      <trkpt lat="45.07059" lon="5.052">
        <ele>177.1</ele>
        <time>2022-10-16T13:46:55.000Z</time>
      </trkpt>
      <trkpt lat="45.07061" lon="5.05204">
        <ele>177.2</ele>
        <time>2022-10-16T13:46:56.000Z</time>
      </trkpt>
      <trkpt lat="45.07064" lon="5.0521">
        <ele>177.3</ele>
        <time>2022-10-16T13:46:57.000Z</time>
      </trkpt>
      <trkpt lat="45.07066" lon="5.05215">
        <ele>177.4</ele>
        <time>2022-10-16T13:46:58.000Z</time>
      </trkpt>
      <trkpt lat="45.07069" lon="5.0522">
        <ele>177.5</ele>
        <time>2022-10-16T13:46:59.000Z</time>
      </trkpt>
      <trkpt lat="45.07071" lon="5.05225">
        <ele>177.5</ele>
        <time>2022-10-16T13:47:00.000Z</time>
      </trkpt>
      <trkpt lat="45.07073" lon="5.0523">
        <ele>177.4</ele>
        <time>2022-10-16T13:47:01.000Z</time>
      </trkpt>
      <trkpt lat="45.07075" lon="5.05235">
        <ele>177.4</ele>
        <time>2022-10-16T13:47:02.000Z</time>
      </trkpt>
      <trkpt lat="45.07077" lon="5.05241">
        <ele>177.3</ele>
        <time>2022-10-16T13:47:03.000Z</time>
      </trkpt>
      <trkpt lat="45.07079" lon="5.05247">
        <ele>177.1</ele>
        <time>2022-10-16T13:47:04.000Z</time>
      </trkpt>
      <trkpt lat="45.07082" lon="5.05254">
        <ele>177</ele>
        <time>2022-10-16T13:47:05.000Z</time>
      </trkpt>
      <trkpt lat="45.07084" lon="5.0526">
        <ele>177</ele>
        <time>2022-10-16T13:47:06.000Z</time>
      </trkpt>
      <trkpt lat="45.07086" lon="5.05266">
        <ele>177.1</ele>
        <time>2022-10-16T13:47:07.000Z</time>
      </trkpt>
      <trkpt lat="45.07088" lon="5.05272">
        <ele>177.2</ele>
        <time>2022-10-16T13:47:08.000Z</time>
      </trkpt>
      <trkpt lat="45.0709" lon="5.05278">
        <ele>177.2</ele>
        <time>2022-10-16T13:47:09.000Z</time>
      </trkpt>
      <trkpt lat="45.07092" lon="5.05284">
        <ele>177.4</ele>
        <time>2022-10-16T13:47:10.000Z</time>
      </trkpt>
      <trkpt lat="45.07093" lon="5.05289">
        <ele>177.7</ele>
        <time>2022-10-16T13:47:11.000Z</time>
      </trkpt>
      <trkpt lat="45.07095" lon="5.05295">
        <ele>177.9</ele>
        <time>2022-10-16T13:47:12.000Z</time>
      </trkpt>
      <trkpt lat="45.07096" lon="5.053">
        <ele>178.2</ele>
        <time>2022-10-16T13:47:13.000Z</time>
      </trkpt>
      <trkpt lat="45.07097" lon="5.05306">
        <ele>178.4</ele>
        <time>2022-10-16T13:47:14.000Z</time>
      </trkpt>
      <trkpt lat="45.07096" lon="5.05312">
        <ele>178</ele>
        <time>2022-10-16T13:47:15.000Z</time>
      </trkpt>
      <trkpt lat="45.07096" lon="5.05318">
        <ele>177.7</ele>
        <time>2022-10-16T13:47:16.000Z</time>
      </trkpt>
      <trkpt lat="45.07096" lon="5.05323">
        <ele>177.4</ele>
        <time>2022-10-16T13:47:17.000Z</time>
      </trkpt>
      <trkpt lat="45.07096" lon="5.0533">
        <ele>177.1</ele>
        <time>2022-10-16T13:47:18.000Z</time>
      </trkpt>
      <trkpt lat="45.07096" lon="5.05338">
        <ele>176.9</ele>
        <time>2022-10-16T13:47:19.000Z</time>
      </trkpt>
      <trkpt lat="45.07095" lon="5.05346">
        <ele>176.8</ele>
        <time>2022-10-16T13:47:20.000Z</time>
      </trkpt>
      <trkpt lat="45.07094" lon="5.05354">
        <ele>176.8</ele>
        <time>2022-10-16T13:47:21.000Z</time>
      </trkpt>
      <trkpt lat="45.07093" lon="5.05361">
        <ele>176.7</ele>
        <time>2022-10-16T13:47:22.000Z</time>
      </trkpt>
      <trkpt lat="45.07093" lon="5.05368">
        <ele>176.6</ele>
        <time>2022-10-16T13:47:23.000Z</time>
      </trkpt>
      <trkpt lat="45.07093" lon="5.05376">
        <ele>176.5</ele>
        <time>2022-10-16T13:47:24.000Z</time>
      </trkpt>
      <trkpt lat="45.07092" lon="5.05383">
        <ele>176.4</ele>
        <time>2022-10-16T13:47:25.000Z</time>
      </trkpt>
      <trkpt lat="45.07092" lon="5.05391">
        <ele>176.3</ele>
        <time>2022-10-16T13:47:26.000Z</time>
      </trkpt>
      <trkpt lat="45.07092" lon="5.054">
        <ele>176.1</ele>
        <time>2022-10-16T13:47:27.000Z</time>
      </trkpt>
      <trkpt lat="45.07091" lon="5.05409">
        <ele>175.9</ele>
        <time>2022-10-16T13:47:28.000Z</time>
      </trkpt>
      <trkpt lat="45.07089" lon="5.05418">
        <ele>175.6</ele>
        <time>2022-10-16T13:47:29.000Z</time>
      </trkpt>
      <trkpt lat="45.0709" lon="5.05428">
        <ele>175.7</ele>
        <time>2022-10-16T13:47:30.000Z</time>
      </trkpt>
      <trkpt lat="45.07089" lon="5.05439">
        <ele>175.6</ele>
        <time>2022-10-16T13:47:31.000Z</time>
      </trkpt>
      <trkpt lat="45.07091" lon="5.05448">
        <ele>175.8</ele>
        <time>2022-10-16T13:47:32.000Z</time>
      </trkpt>
      <trkpt lat="45.07094" lon="5.05457">
        <ele>176.2</ele>
        <time>2022-10-16T13:47:33.000Z</time>
      </trkpt>
      <trkpt lat="45.07098" lon="5.05465">
        <ele>176.6</ele>
        <time>2022-10-16T13:47:34.000Z</time>
      </trkpt>
      <trkpt lat="45.07103" lon="5.05472">
        <ele>177.1</ele>
        <time>2022-10-16T13:47:35.000Z</time>
      </trkpt>
      <trkpt lat="45.07106" lon="5.05481">
        <ele>177.5</ele>
        <time>2022-10-16T13:47:36.000Z</time>
      </trkpt>
      <trkpt lat="45.0711" lon="5.0549">
        <ele>177.8</ele>
        <time>2022-10-16T13:47:37.000Z</time>
      </trkpt>
      <trkpt lat="45.07113" lon="5.05496">
        <ele>178.5</ele>
        <time>2022-10-16T13:47:38.000Z</time>
      </trkpt>
      <trkpt lat="45.07117" lon="5.05502">
        <ele>179.1</ele>
        <time>2022-10-16T13:47:39.000Z</time>
      </trkpt>
      <trkpt lat="45.0712" lon="5.05507">
        <ele>179.4</ele>
        <time>2022-10-16T13:47:40.000Z</time>
      </trkpt>
      <trkpt lat="45.07123" lon="5.05513">
        <ele>179.5</ele>
        <time>2022-10-16T13:47:41.000Z</time>
      </trkpt>
      <trkpt lat="45.07127" lon="5.05517">
        <ele>179.9</ele>
        <time>2022-10-16T13:47:42.000Z</time>
      </trkpt>
      <trkpt lat="45.0713" lon="5.05521">
        <ele>180.1</ele>
        <time>2022-10-16T13:47:43.000Z</time>
      </trkpt>
      <trkpt lat="45.07132" lon="5.05525">
        <ele>180.1</ele>
        <time>2022-10-16T13:47:44.000Z</time>
      </trkpt>
      <trkpt lat="45.07135" lon="5.05529">
        <ele>180.1</ele>
        <time>2022-10-16T13:47:45.000Z</time>
      </trkpt>
      <trkpt lat="45.07138" lon="5.05534">
        <ele>180.5</ele>
        <time>2022-10-16T13:47:46.000Z</time>
      </trkpt>
      <trkpt lat="45.07141" lon="5.05538">
        <ele>180.6</ele>
        <time>2022-10-16T13:47:47.000Z</time>
      </trkpt>
      <trkpt lat="45.07144" lon="5.05543">
        <ele>180.9</ele>
        <time>2022-10-16T13:47:48.000Z</time>
      </trkpt>
      <trkpt lat="45.07148" lon="5.05547">
        <ele>181.2</ele>
        <time>2022-10-16T13:47:49.000Z</time>
      </trkpt>
      <trkpt lat="45.07151" lon="5.05549">
        <ele>181.7</ele>
        <time>2022-10-16T13:47:50.000Z</time>
      </trkpt>
      <trkpt lat="45.07155" lon="5.05554">
        <ele>181.9</ele>
        <time>2022-10-16T13:47:51.000Z</time>
      </trkpt>
      <trkpt lat="45.07158" lon="5.05558">
        <ele>182.1</ele>
        <time>2022-10-16T13:47:52.000Z</time>
      </trkpt>
      <trkpt lat="45.07161" lon="5.05562">
        <ele>182.3</ele>
        <time>2022-10-16T13:47:53.000Z</time>
      </trkpt>
      <trkpt lat="45.07165" lon="5.05567">
        <ele>182.5</ele>
        <time>2022-10-16T13:47:54.000Z</time>
      </trkpt>
      <trkpt lat="45.07168" lon="5.05572">
        <ele>182.5</ele>
        <time>2022-10-16T13:47:55.000Z</time>
      </trkpt>
      <trkpt lat="45.0717" lon="5.05578">
        <ele>182.3</ele>
        <time>2022-10-16T13:47:56.000Z</time>
      </trkpt>
      <trkpt lat="45.07172" lon="5.05585">
        <ele>181.9</ele>
        <time>2022-10-16T13:47:57.000Z</time>
      </trkpt>
      <trkpt lat="45.07174" lon="5.05592">
        <ele>181.8</ele>
        <time>2022-10-16T13:47:58.000Z</time>
      </trkpt>
      <trkpt lat="45.07176" lon="5.05599">
        <ele>181.5</ele>
        <time>2022-10-16T13:47:59.000Z</time>
      </trkpt>
      <trkpt lat="45.07177" lon="5.05607">
        <ele>181.2</ele>
        <time>2022-10-16T13:48:00.000Z</time>
      </trkpt>
      <trkpt lat="45.07179" lon="5.05614">
        <ele>181.1</ele>
        <time>2022-10-16T13:48:01.000Z</time>
      </trkpt>
      <trkpt lat="45.07181" lon="5.05622">
        <ele>181.1</ele>
        <time>2022-10-16T13:48:02.000Z</time>
      </trkpt>
      <trkpt lat="45.07183" lon="5.05629">
        <ele>181.2</ele>
        <time>2022-10-16T13:48:03.000Z</time>
      </trkpt>
      <trkpt lat="45.07184" lon="5.05636">
        <ele>181.2</ele>
        <time>2022-10-16T13:48:04.000Z</time>
      </trkpt>
      <trkpt lat="45.07186" lon="5.05643">
        <ele>181.3</ele>
        <time>2022-10-16T13:48:05.000Z</time>
      </trkpt>
      <trkpt lat="45.07189" lon="5.0565">
        <ele>181.3</ele>
        <time>2022-10-16T13:48:06.000Z</time>
      </trkpt>
      <trkpt lat="45.07191" lon="5.05657">
        <ele>181.2</ele>
        <time>2022-10-16T13:48:07.000Z</time>
      </trkpt>
      <trkpt lat="45.07194" lon="5.05664">
        <ele>181.2</ele>
        <time>2022-10-16T13:48:08.000Z</time>
      </trkpt>
      <trkpt lat="45.07197" lon="5.05671">
        <ele>181.1</ele>
        <time>2022-10-16T13:48:09.000Z</time>
      </trkpt>
      <trkpt lat="45.07199" lon="5.05678">
        <ele>181.2</ele>
        <time>2022-10-16T13:48:10.000Z</time>
      </trkpt>
      <trkpt lat="45.07201" lon="5.05686">
        <ele>181.2</ele>
        <time>2022-10-16T13:48:11.000Z</time>
      </trkpt>
      <trkpt lat="45.07202" lon="5.05694">
        <ele>181.1</ele>
        <time>2022-10-16T13:48:12.000Z</time>
      </trkpt>
      <trkpt lat="45.07203" lon="5.05703">
        <ele>181.1</ele>
        <time>2022-10-16T13:48:13.000Z</time>
      </trkpt>
      <trkpt lat="45.07204" lon="5.05712">
        <ele>180.9</ele>
        <time>2022-10-16T13:48:14.000Z</time>
      </trkpt>
      <trkpt lat="45.07204" lon="5.05722">
        <ele>180.8</ele>
        <time>2022-10-16T13:48:15.000Z</time>
      </trkpt>
      <trkpt lat="45.07205" lon="5.05731">
        <ele>180.8</ele>
        <time>2022-10-16T13:48:16.000Z</time>
      </trkpt>
      <trkpt lat="45.07206" lon="5.0574">
        <ele>180.7</ele>
        <time>2022-10-16T13:48:17.000Z</time>
      </trkpt>
      <trkpt lat="45.07206" lon="5.05749">
        <ele>180.7</ele>
        <time>2022-10-16T13:48:18.000Z</time>
      </trkpt>
      <trkpt lat="45.07207" lon="5.05758">
        <ele>180.9</ele>
        <time>2022-10-16T13:48:19.000Z</time>
      </trkpt>
      <trkpt lat="45.07207" lon="5.05766">
        <ele>181.2</ele>
        <time>2022-10-16T13:48:20.000Z</time>
      </trkpt>
      <trkpt lat="45.07208" lon="5.05775">
        <ele>181.4</ele>
        <time>2022-10-16T13:48:21.000Z</time>
      </trkpt>
      <trkpt lat="45.07208" lon="5.05784">
        <ele>181.4</ele>
        <time>2022-10-16T13:48:22.000Z</time>
      </trkpt>
      <trkpt lat="45.07209" lon="5.05793">
        <ele>181.3</ele>
        <time>2022-10-16T13:48:23.000Z</time>
      </trkpt>
      <trkpt lat="45.0721" lon="5.05801">
        <ele>181.2</ele>
        <time>2022-10-16T13:48:24.000Z</time>
      </trkpt>
      <trkpt lat="45.07211" lon="5.0581">
        <ele>181.2</ele>
        <time>2022-10-16T13:48:25.000Z</time>
      </trkpt>
      <trkpt lat="45.07212" lon="5.05818">
        <ele>181.4</ele>
        <time>2022-10-16T13:48:26.000Z</time>
      </trkpt>
      <trkpt lat="45.07213" lon="5.05827">
        <ele>181.6</ele>
        <time>2022-10-16T13:48:27.000Z</time>
      </trkpt>
      <trkpt lat="45.07214" lon="5.05836">
        <ele>181.7</ele>
        <time>2022-10-16T13:48:28.000Z</time>
      </trkpt>
      <trkpt lat="45.07215" lon="5.05846">
        <ele>181.7</ele>
        <time>2022-10-16T13:48:29.000Z</time>
      </trkpt>
      <trkpt lat="45.07216" lon="5.05856">
        <ele>181.8</ele>
        <time>2022-10-16T13:48:30.000Z</time>
      </trkpt>
      <trkpt lat="45.07217" lon="5.05865">
        <ele>181.9</ele>
        <time>2022-10-16T13:48:31.000Z</time>
      </trkpt>
      <trkpt lat="45.07217" lon="5.05875">
        <ele>182.3</ele>
        <time>2022-10-16T13:48:32.000Z</time>
      </trkpt>
      <trkpt lat="45.07218" lon="5.05885">
        <ele>182.7</ele>
        <time>2022-10-16T13:48:33.000Z</time>
      </trkpt>
      <trkpt lat="45.07219" lon="5.05895">
        <ele>182.7</ele>
        <time>2022-10-16T13:48:34.000Z</time>
      </trkpt>
      <trkpt lat="45.0722" lon="5.05904">
        <ele>182.4</ele>
        <time>2022-10-16T13:48:35.000Z</time>
      </trkpt>
      <trkpt lat="45.07221" lon="5.05914">
        <ele>182.1</ele>
        <time>2022-10-16T13:48:36.000Z</time>
      </trkpt>
      <trkpt lat="45.07224" lon="5.05924">
        <ele>182.1</ele>
        <time>2022-10-16T13:48:37.000Z</time>
      </trkpt>
      <trkpt lat="45.07226" lon="5.05933">
        <ele>182.1</ele>
        <time>2022-10-16T13:48:38.000Z</time>
      </trkpt>
      <trkpt lat="45.07228" lon="5.05943">
        <ele>182.2</ele>
        <time>2022-10-16T13:48:39.000Z</time>
      </trkpt>
      <trkpt lat="45.0723" lon="5.05954">
        <ele>182</ele>
        <time>2022-10-16T13:48:40.000Z</time>
      </trkpt>
      <trkpt lat="45.07232" lon="5.05964">
        <ele>181.9</ele>
        <time>2022-10-16T13:48:41.000Z</time>
      </trkpt>
      <trkpt lat="45.07235" lon="5.05974">
        <ele>181.9</ele>
        <time>2022-10-16T13:48:42.000Z</time>
      </trkpt>
      <trkpt lat="45.07238" lon="5.05984">
        <ele>181.8</ele>
        <time>2022-10-16T13:48:43.000Z</time>
      </trkpt>
      <trkpt lat="45.07242" lon="5.05993">
        <ele>181.7</ele>
        <time>2022-10-16T13:48:44.000Z</time>
      </trkpt>
      <trkpt lat="45.07244" lon="5.06002">
        <ele>181.5</ele>
        <time>2022-10-16T13:48:45.000Z</time>
      </trkpt>
      <trkpt lat="45.07247" lon="5.06012">
        <ele>181.4</ele>
        <time>2022-10-16T13:48:46.000Z</time>
      </trkpt>
      <trkpt lat="45.0725" lon="5.06021">
        <ele>181.2</ele>
        <time>2022-10-16T13:48:47.000Z</time>
      </trkpt>
      <trkpt lat="45.07253" lon="5.06031">
        <ele>180.7</ele>
        <time>2022-10-16T13:48:48.000Z</time>
      </trkpt>
      <trkpt lat="45.07256" lon="5.06041">
        <ele>180.4</ele>
        <time>2022-10-16T13:48:49.000Z</time>
      </trkpt>
      <trkpt lat="45.07258" lon="5.06051">
        <ele>180.3</ele>
        <time>2022-10-16T13:48:50.000Z</time>
      </trkpt>
      <trkpt lat="45.07261" lon="5.0606">
        <ele>180.3</ele>
        <time>2022-10-16T13:48:51.000Z</time>
      </trkpt>
      <trkpt lat="45.07264" lon="5.0607">
        <ele>180.2</ele>
        <time>2022-10-16T13:48:52.000Z</time>
      </trkpt>
      <trkpt lat="45.07267" lon="5.0608">
        <ele>180.3</ele>
        <time>2022-10-16T13:48:53.000Z</time>
      </trkpt>
      <trkpt lat="45.0727" lon="5.06091">
        <ele>180.2</ele>
        <time>2022-10-16T13:48:54.000Z</time>
      </trkpt>
      <trkpt lat="45.07273" lon="5.06102">
        <ele>180</ele>
        <time>2022-10-16T13:48:55.000Z</time>
      </trkpt>
      <trkpt lat="45.07276" lon="5.06113">
        <ele>179.8</ele>
        <time>2022-10-16T13:48:56.000Z</time>
      </trkpt>
      <trkpt lat="45.0728" lon="5.06125">
        <ele>179.6</ele>
        <time>2022-10-16T13:48:57.000Z</time>
      </trkpt>
      <trkpt lat="45.07284" lon="5.06136">
        <ele>179.3</ele>
        <time>2022-10-16T13:48:58.000Z</time>
      </trkpt>
      <trkpt lat="45.07287" lon="5.06148">
        <ele>179.3</ele>
        <time>2022-10-16T13:48:59.000Z</time>
      </trkpt>
      <trkpt lat="45.07292" lon="5.06161">
        <ele>179.5</ele>
        <time>2022-10-16T13:49:00.000Z</time>
      </trkpt>
      <trkpt lat="45.07295" lon="5.06173">
        <ele>179.6</ele>
        <time>2022-10-16T13:49:01.000Z</time>
      </trkpt>
      <trkpt lat="45.07298" lon="5.06185">
        <ele>179.7</ele>
        <time>2022-10-16T13:49:02.000Z</time>
      </trkpt>
      <trkpt lat="45.07301" lon="5.06196">
        <ele>179.8</ele>
        <time>2022-10-16T13:49:03.000Z</time>
      </trkpt>
      <trkpt lat="45.07304" lon="5.06208">
        <ele>179.9</ele>
        <time>2022-10-16T13:49:04.000Z</time>
      </trkpt>
      <trkpt lat="45.07307" lon="5.06219">
        <ele>180</ele>
        <time>2022-10-16T13:49:05.000Z</time>
      </trkpt>
      <trkpt lat="45.0731" lon="5.0623">
        <ele>179.9</ele>
        <time>2022-10-16T13:49:06.000Z</time>
      </trkpt>
      <trkpt lat="45.07313" lon="5.0624">
        <ele>179.8</ele>
        <time>2022-10-16T13:49:07.000Z</time>
      </trkpt>
      <trkpt lat="45.07315" lon="5.06251">
        <ele>179.7</ele>
        <time>2022-10-16T13:49:08.000Z</time>
      </trkpt>
      <trkpt lat="45.07319" lon="5.06262">
        <ele>179.7</ele>
        <time>2022-10-16T13:49:09.000Z</time>
      </trkpt>
      <trkpt lat="45.07322" lon="5.06272">
        <ele>180</ele>
        <time>2022-10-16T13:49:10.000Z</time>
      </trkpt>
      <trkpt lat="45.07324" lon="5.06283">
        <ele>180.3</ele>
        <time>2022-10-16T13:49:11.000Z</time>
      </trkpt>
      <trkpt lat="45.07326" lon="5.06293">
        <ele>180.5</ele>
        <time>2022-10-16T13:49:12.000Z</time>
      </trkpt>
      <trkpt lat="45.07329" lon="5.06304">
        <ele>180.7</ele>
        <time>2022-10-16T13:49:13.000Z</time>
      </trkpt>
      <trkpt lat="45.07332" lon="5.06315">
        <ele>181.2</ele>
        <time>2022-10-16T13:49:14.000Z</time>
      </trkpt>
      <trkpt lat="45.07336" lon="5.06325">
        <ele>181.6</ele>
        <time>2022-10-16T13:49:15.000Z</time>
      </trkpt>
      <trkpt lat="45.07339" lon="5.06336">
        <ele>181.3</ele>
        <time>2022-10-16T13:49:16.000Z</time>
      </trkpt>
      <trkpt lat="45.07341" lon="5.06346">
        <ele>180</ele>
        <time>2022-10-16T13:49:17.000Z</time>
      </trkpt>
      <trkpt lat="45.07344" lon="5.06357">
        <ele>178.9</ele>
        <time>2022-10-16T13:49:18.000Z</time>
      </trkpt>
      <trkpt lat="45.07346" lon="5.06367">
        <ele>178.4</ele>
        <time>2022-10-16T13:49:19.000Z</time>
      </trkpt>
      <trkpt lat="45.07348" lon="5.06378">
        <ele>178.6</ele>
        <time>2022-10-16T13:49:20.000Z</time>
      </trkpt>
      <trkpt lat="45.07351" lon="5.06389">
        <ele>178.9</ele>
        <time>2022-10-16T13:49:21.000Z</time>
      </trkpt>
      <trkpt lat="45.07354" lon="5.064">
        <ele>179.2</ele>
        <time>2022-10-16T13:49:22.000Z</time>
      </trkpt>
      <trkpt lat="45.07356" lon="5.06411">
        <ele>179.4</ele>
        <time>2022-10-16T13:49:23.000Z</time>
      </trkpt>
      <trkpt lat="45.07359" lon="5.06423">
        <ele>179.3</ele>
        <time>2022-10-16T13:49:24.000Z</time>
      </trkpt>
      <trkpt lat="45.07361" lon="5.06434">
        <ele>178.7</ele>
        <time>2022-10-16T13:49:25.000Z</time>
      </trkpt>
      <trkpt lat="45.07364" lon="5.06445">
        <ele>178.2</ele>
        <time>2022-10-16T13:49:26.000Z</time>
      </trkpt>
      <trkpt lat="45.07366" lon="5.06455">
        <ele>178.3</ele>
        <time>2022-10-16T13:49:27.000Z</time>
      </trkpt>
      <trkpt lat="45.07368" lon="5.06466">
        <ele>178.3</ele>
        <time>2022-10-16T13:49:28.000Z</time>
      </trkpt>
      <trkpt lat="45.07371" lon="5.06476">
        <ele>178.3</ele>
        <time>2022-10-16T13:49:29.000Z</time>
      </trkpt>
      <trkpt lat="45.07373" lon="5.06486">
        <ele>178.2</ele>
        <time>2022-10-16T13:49:30.000Z</time>
      </trkpt>
      <trkpt lat="45.07376" lon="5.06497">
        <ele>178.1</ele>
        <time>2022-10-16T13:49:31.000Z</time>
      </trkpt>
      <trkpt lat="45.07378" lon="5.06508">
        <ele>178.2</ele>
        <time>2022-10-16T13:49:32.000Z</time>
      </trkpt>
      <trkpt lat="45.07381" lon="5.06519">
        <ele>178.4</ele>
        <time>2022-10-16T13:49:33.000Z</time>
      </trkpt>
      <trkpt lat="45.07383" lon="5.0653">
        <ele>178.6</ele>
        <time>2022-10-16T13:49:34.000Z</time>
      </trkpt>
      <trkpt lat="45.07386" lon="5.0654">
        <ele>178.8</ele>
        <time>2022-10-16T13:49:35.000Z</time>
      </trkpt>
      <trkpt lat="45.07389" lon="5.06551">
        <ele>179</ele>
        <time>2022-10-16T13:49:36.000Z</time>
      </trkpt>
      <trkpt lat="45.07391" lon="5.06561">
        <ele>178.8</ele>
        <time>2022-10-16T13:49:37.000Z</time>
      </trkpt>
      <trkpt lat="45.07393" lon="5.06572">
        <ele>178.5</ele>
        <time>2022-10-16T13:49:38.000Z</time>
      </trkpt>
      <trkpt lat="45.07396" lon="5.06583">
        <ele>178.3</ele>
        <time>2022-10-16T13:49:39.000Z</time>
      </trkpt>
      <trkpt lat="45.07398" lon="5.06594">
        <ele>178.5</ele>
        <time>2022-10-16T13:49:40.000Z</time>
      </trkpt>
      <trkpt lat="45.074" lon="5.06605">
        <ele>178.7</ele>
        <time>2022-10-16T13:49:41.000Z</time>
      </trkpt>
      <trkpt lat="45.07403" lon="5.06616">
        <ele>179</ele>
        <time>2022-10-16T13:49:42.000Z</time>
      </trkpt>
      <trkpt lat="45.07405" lon="5.06627">
        <ele>179.2</ele>
        <time>2022-10-16T13:49:43.000Z</time>
      </trkpt>
      <trkpt lat="45.07407" lon="5.06637">
        <ele>179.3</ele>
        <time>2022-10-16T13:49:44.000Z</time>
      </trkpt>
      <trkpt lat="45.07409" lon="5.06648">
        <ele>179.6</ele>
        <time>2022-10-16T13:49:45.000Z</time>
      </trkpt>
      <trkpt lat="45.07412" lon="5.06659">
        <ele>179.8</ele>
        <time>2022-10-16T13:49:46.000Z</time>
      </trkpt>
      <trkpt lat="45.07414" lon="5.06669">
        <ele>180</ele>
        <time>2022-10-16T13:49:47.000Z</time>
      </trkpt>
      <trkpt lat="45.07416" lon="5.0668">
        <ele>180.5</ele>
        <time>2022-10-16T13:49:48.000Z</time>
      </trkpt>
      <trkpt lat="45.07418" lon="5.0669">
        <ele>180.8</ele>
        <time>2022-10-16T13:49:49.000Z</time>
      </trkpt>
      <trkpt lat="45.07421" lon="5.067">
        <ele>181.2</ele>
        <time>2022-10-16T13:49:50.000Z</time>
      </trkpt>
      <trkpt lat="45.07423" lon="5.0671">
        <ele>181.5</ele>
        <time>2022-10-16T13:49:51.000Z</time>
      </trkpt>
      <trkpt lat="45.07426" lon="5.0672">
        <ele>181.9</ele>
        <time>2022-10-16T13:49:52.000Z</time>
      </trkpt>
      <trkpt lat="45.07429" lon="5.06729">
        <ele>182.3</ele>
        <time>2022-10-16T13:49:53.000Z</time>
      </trkpt>
      <trkpt lat="45.07431" lon="5.06739">
        <ele>182.6</ele>
        <time>2022-10-16T13:49:54.000Z</time>
      </trkpt>
      <trkpt lat="45.07434" lon="5.06749">
        <ele>183</ele>
        <time>2022-10-16T13:49:55.000Z</time>
      </trkpt>
      <trkpt lat="45.07436" lon="5.06758">
        <ele>182.9</ele>
        <time>2022-10-16T13:49:56.000Z</time>
      </trkpt>
      <trkpt lat="45.07438" lon="5.06768">
        <ele>182.8</ele>
        <time>2022-10-16T13:49:57.000Z</time>
      </trkpt>
      <trkpt lat="45.0744" lon="5.06777">
        <ele>182.8</ele>
        <time>2022-10-16T13:49:58.000Z</time>
      </trkpt>
      <trkpt lat="45.07442" lon="5.06786">
        <ele>182.9</ele>
        <time>2022-10-16T13:49:59.000Z</time>
      </trkpt>
      <trkpt lat="45.07445" lon="5.06796">
        <ele>183</ele>
        <time>2022-10-16T13:50:00.000Z</time>
      </trkpt>
      <trkpt lat="45.07446" lon="5.06805">
        <ele>183</ele>
        <time>2022-10-16T13:50:01.000Z</time>
      </trkpt>
      <trkpt lat="45.07449" lon="5.06814">
        <ele>182.7</ele>
        <time>2022-10-16T13:50:02.000Z</time>
      </trkpt>
      <trkpt lat="45.07451" lon="5.06824">
        <ele>182.5</ele>
        <time>2022-10-16T13:50:03.000Z</time>
      </trkpt>
      <trkpt lat="45.07453" lon="5.06833">
        <ele>182.3</ele>
        <time>2022-10-16T13:50:04.000Z</time>
      </trkpt>
      <trkpt lat="45.07454" lon="5.06843">
        <ele>182.4</ele>
        <time>2022-10-16T13:50:05.000Z</time>
      </trkpt>
      <trkpt lat="45.07456" lon="5.06853">
        <ele>182.4</ele>
        <time>2022-10-16T13:50:06.000Z</time>
      </trkpt>
      <trkpt lat="45.07458" lon="5.06864">
        <ele>182.5</ele>
        <time>2022-10-16T13:50:07.000Z</time>
      </trkpt>
      <trkpt lat="45.0746" lon="5.06875">
        <ele>182.6</ele>
        <time>2022-10-16T13:50:08.000Z</time>
      </trkpt>
      <trkpt lat="45.07462" lon="5.06886">
        <ele>182.6</ele>
        <time>2022-10-16T13:50:09.000Z</time>
      </trkpt>
      <trkpt lat="45.07464" lon="5.06897">
        <ele>182.5</ele>
        <time>2022-10-16T13:50:10.000Z</time>
      </trkpt>
      <trkpt lat="45.07466" lon="5.06908">
        <ele>182.2</ele>
        <time>2022-10-16T13:50:11.000Z</time>
      </trkpt>
      <trkpt lat="45.07468" lon="5.06918">
        <ele>182</ele>
        <time>2022-10-16T13:50:12.000Z</time>
      </trkpt>
      <trkpt lat="45.0747" lon="5.06929">
        <ele>181.6</ele>
        <time>2022-10-16T13:50:13.000Z</time>
      </trkpt>
      <trkpt lat="45.07472" lon="5.06939">
        <ele>181.2</ele>
        <time>2022-10-16T13:50:14.000Z</time>
      </trkpt>
      <trkpt lat="45.07474" lon="5.06949">
        <ele>180.9</ele>
        <time>2022-10-16T13:50:15.000Z</time>
      </trkpt>
      <trkpt lat="45.07477" lon="5.06959">
        <ele>180.7</ele>
        <time>2022-10-16T13:50:16.000Z</time>
      </trkpt>
      <trkpt lat="45.07479" lon="5.06969">
        <ele>180.5</ele>
        <time>2022-10-16T13:50:17.000Z</time>
      </trkpt>
      <trkpt lat="45.07481" lon="5.06979">
        <ele>180.5</ele>
        <time>2022-10-16T13:50:18.000Z</time>
      </trkpt>
      <trkpt lat="45.07483" lon="5.06989">
        <ele>180.6</ele>
        <time>2022-10-16T13:50:19.000Z</time>
      </trkpt>
      <trkpt lat="45.07486" lon="5.06998">
        <ele>180.5</ele>
        <time>2022-10-16T13:50:20.000Z</time>
      </trkpt>
      <trkpt lat="45.07488" lon="5.07008">
        <ele>180.5</ele>
        <time>2022-10-16T13:50:21.000Z</time>
      </trkpt>
      <trkpt lat="45.07491" lon="5.07017">
        <ele>180.5</ele>
        <time>2022-10-16T13:50:22.000Z</time>
      </trkpt>
      <trkpt lat="45.07493" lon="5.07026">
        <ele>180.5</ele>
        <time>2022-10-16T13:50:23.000Z</time>
      </trkpt>
      <trkpt lat="45.07495" lon="5.07035">
        <ele>180.3</ele>
        <time>2022-10-16T13:50:24.000Z</time>
      </trkpt>
      <trkpt lat="45.07498" lon="5.07043">
        <ele>179.8</ele>
        <time>2022-10-16T13:50:25.000Z</time>
      </trkpt>
      <trkpt lat="45.07501" lon="5.07052">
        <ele>179.3</ele>
        <time>2022-10-16T13:50:26.000Z</time>
      </trkpt>
      <trkpt lat="45.07504" lon="5.07061">
        <ele>179.2</ele>
        <time>2022-10-16T13:50:27.000Z</time>
      </trkpt>
      <trkpt lat="45.07507" lon="5.0707">
        <ele>179.2</ele>
        <time>2022-10-16T13:50:28.000Z</time>
      </trkpt>
      <trkpt lat="45.07509" lon="5.0708">
        <ele>179.1</ele>
        <time>2022-10-16T13:50:29.000Z</time>
      </trkpt>
      <trkpt lat="45.07512" lon="5.07089">
        <ele>179.2</ele>
        <time>2022-10-16T13:50:30.000Z</time>
      </trkpt>
      <trkpt lat="45.07515" lon="5.07099">
        <ele>179.3</ele>
        <time>2022-10-16T13:50:31.000Z</time>
      </trkpt>
      <trkpt lat="45.07517" lon="5.07109">
        <ele>179.3</ele>
        <time>2022-10-16T13:50:32.000Z</time>
      </trkpt>
      <trkpt lat="45.0752" lon="5.07119">
        <ele>179.4</ele>
        <time>2022-10-16T13:50:33.000Z</time>
      </trkpt>
      <trkpt lat="45.07523" lon="5.07128">
        <ele>179.5</ele>
        <time>2022-10-16T13:50:34.000Z</time>
      </trkpt>
      <trkpt lat="45.07526" lon="5.07138">
        <ele>179.8</ele>
        <time>2022-10-16T13:50:35.000Z</time>
      </trkpt>
      <trkpt lat="45.07529" lon="5.07148">
        <ele>179.4</ele>
        <time>2022-10-16T13:50:36.000Z</time>
      </trkpt>
      <trkpt lat="45.07531" lon="5.07158">
        <ele>178.9</ele>
        <time>2022-10-16T13:50:37.000Z</time>
      </trkpt>
      <trkpt lat="45.07534" lon="5.07168">
        <ele>178.7</ele>
        <time>2022-10-16T13:50:38.000Z</time>
      </trkpt>
      <trkpt lat="45.07536" lon="5.07178">
        <ele>178.9</ele>
        <time>2022-10-16T13:50:39.000Z</time>
      </trkpt>
      <trkpt lat="45.07538" lon="5.07188">
        <ele>179.1</ele>
        <time>2022-10-16T13:50:40.000Z</time>
      </trkpt>
      <trkpt lat="45.07541" lon="5.07197">
        <ele>179.4</ele>
        <time>2022-10-16T13:50:41.000Z</time>
      </trkpt>
      <trkpt lat="45.07543" lon="5.07207">
        <ele>179.7</ele>
        <time>2022-10-16T13:50:42.000Z</time>
      </trkpt>
      <trkpt lat="45.07546" lon="5.07217">
        <ele>179.9</ele>
        <time>2022-10-16T13:50:43.000Z</time>
      </trkpt>
      <trkpt lat="45.07549" lon="5.07227">
        <ele>180.1</ele>
        <time>2022-10-16T13:50:44.000Z</time>
      </trkpt>
      <trkpt lat="45.07553" lon="5.07236">
        <ele>180.3</ele>
        <time>2022-10-16T13:50:45.000Z</time>
      </trkpt>
      <trkpt lat="45.07556" lon="5.07245">
        <ele>180.2</ele>
        <time>2022-10-16T13:50:46.000Z</time>
      </trkpt>
      <trkpt lat="45.0756" lon="5.07253">
        <ele>179.8</ele>
        <time>2022-10-16T13:50:47.000Z</time>
      </trkpt>
      <trkpt lat="45.07564" lon="5.07262">
        <ele>179.4</ele>
        <time>2022-10-16T13:50:48.000Z</time>
      </trkpt>
      <trkpt lat="45.07569" lon="5.07272">
        <ele>179.2</ele>
        <time>2022-10-16T13:50:49.000Z</time>
      </trkpt>
      <trkpt lat="45.07573" lon="5.0728">
        <ele>179.2</ele>
        <time>2022-10-16T13:50:50.000Z</time>
      </trkpt>
      <trkpt lat="45.07578" lon="5.0729">
        <ele>179.2</ele>
        <time>2022-10-16T13:50:51.000Z</time>
      </trkpt>
      <trkpt lat="45.07582" lon="5.073">
        <ele>179.1</ele>
        <time>2022-10-16T13:50:52.000Z</time>
      </trkpt>
      <trkpt lat="45.07587" lon="5.0731">
        <ele>179</ele>
        <time>2022-10-16T13:50:53.000Z</time>
      </trkpt>
      <trkpt lat="45.07591" lon="5.0732">
        <ele>178.9</ele>
        <time>2022-10-16T13:50:54.000Z</time>
      </trkpt>
      <trkpt lat="45.07596" lon="5.0733">
        <ele>179</ele>
        <time>2022-10-16T13:50:55.000Z</time>
      </trkpt>
      <trkpt lat="45.07601" lon="5.0734">
        <ele>179.4</ele>
        <time>2022-10-16T13:50:56.000Z</time>
      </trkpt>
      <trkpt lat="45.07605" lon="5.07351">
        <ele>180</ele>
        <time>2022-10-16T13:50:57.000Z</time>
      </trkpt>
      <trkpt lat="45.0761" lon="5.07361">
        <ele>180.8</ele>
        <time>2022-10-16T13:50:58.000Z</time>
      </trkpt>
      <trkpt lat="45.07614" lon="5.07371">
        <ele>180.8</ele>
        <time>2022-10-16T13:50:59.000Z</time>
      </trkpt>
      <trkpt lat="45.07618" lon="5.0738">
        <ele>180.7</ele>
        <time>2022-10-16T13:51:00.000Z</time>
      </trkpt>
      <trkpt lat="45.07622" lon="5.07389">
        <ele>180.8</ele>
        <time>2022-10-16T13:51:01.000Z</time>
      </trkpt>
      <trkpt lat="45.07626" lon="5.07398">
        <ele>180.9</ele>
        <time>2022-10-16T13:51:02.000Z</time>
      </trkpt>
      <trkpt lat="45.0763" lon="5.07406">
        <ele>180.9</ele>
        <time>2022-10-16T13:51:03.000Z</time>
      </trkpt>
      <trkpt lat="45.07634" lon="5.07415">
        <ele>180.9</ele>
        <time>2022-10-16T13:51:04.000Z</time>
      </trkpt>
      <trkpt lat="45.07639" lon="5.07423">
        <ele>180.5</ele>
        <time>2022-10-16T13:51:05.000Z</time>
      </trkpt>
      <trkpt lat="45.07643" lon="5.07432">
        <ele>180</ele>
        <time>2022-10-16T13:51:06.000Z</time>
      </trkpt>
      <trkpt lat="45.07648" lon="5.07443">
        <ele>179.5</ele>
        <time>2022-10-16T13:51:07.000Z</time>
      </trkpt>
      <trkpt lat="45.07654" lon="5.07453">
        <ele>179.5</ele>
        <time>2022-10-16T13:51:08.000Z</time>
      </trkpt>
      <trkpt lat="45.0766" lon="5.07464">
        <ele>179.7</ele>
        <time>2022-10-16T13:51:09.000Z</time>
      </trkpt>
      <trkpt lat="45.07666" lon="5.07475">
        <ele>179.9</ele>
        <time>2022-10-16T13:51:10.000Z</time>
      </trkpt>
      <trkpt lat="45.07671" lon="5.07486">
        <ele>179.8</ele>
        <time>2022-10-16T13:51:11.000Z</time>
      </trkpt>
      <trkpt lat="45.07677" lon="5.07497">
        <ele>179.8</ele>
        <time>2022-10-16T13:51:12.000Z</time>
      </trkpt>
      <trkpt lat="45.07683" lon="5.07507">
        <ele>180.3</ele>
        <time>2022-10-16T13:51:13.000Z</time>
      </trkpt>
      <trkpt lat="45.07688" lon="5.07518">
        <ele>180.7</ele>
        <time>2022-10-16T13:51:14.000Z</time>
      </trkpt>
      <trkpt lat="45.07693" lon="5.07529">
        <ele>180.9</ele>
        <time>2022-10-16T13:51:15.000Z</time>
      </trkpt>
      <trkpt lat="45.07698" lon="5.0754">
        <ele>180.7</ele>
        <time>2022-10-16T13:51:16.000Z</time>
      </trkpt>
      <trkpt lat="45.07702" lon="5.07551">
        <ele>180.5</ele>
        <time>2022-10-16T13:51:17.000Z</time>
      </trkpt>
      <trkpt lat="45.07706" lon="5.07562">
        <ele>180.3</ele>
        <time>2022-10-16T13:51:18.000Z</time>
      </trkpt>
      <trkpt lat="45.0771" lon="5.07573">
        <ele>180.3</ele>
        <time>2022-10-16T13:51:19.000Z</time>
      </trkpt>
      <trkpt lat="45.07713" lon="5.07584">
        <ele>180.3</ele>
        <time>2022-10-16T13:51:20.000Z</time>
      </trkpt>
      <trkpt lat="45.07716" lon="5.07595">
        <ele>180.6</ele>
        <time>2022-10-16T13:51:21.000Z</time>
      </trkpt>
      <trkpt lat="45.07719" lon="5.07607">
        <ele>180.8</ele>
        <time>2022-10-16T13:51:22.000Z</time>
      </trkpt>
      <trkpt lat="45.07722" lon="5.07619">
        <ele>181</ele>
        <time>2022-10-16T13:51:23.000Z</time>
      </trkpt>
      <trkpt lat="45.07725" lon="5.0763">
        <ele>181.1</ele>
        <time>2022-10-16T13:51:24.000Z</time>
      </trkpt>
      <trkpt lat="45.07728" lon="5.07642">
        <ele>181.2</ele>
        <time>2022-10-16T13:51:25.000Z</time>
      </trkpt>
      <trkpt lat="45.07731" lon="5.07654">
        <ele>181.3</ele>
        <time>2022-10-16T13:51:26.000Z</time>
      </trkpt>
      <trkpt lat="45.07734" lon="5.07665">
        <ele>181.4</ele>
        <time>2022-10-16T13:51:27.000Z</time>
      </trkpt>
      <trkpt lat="45.07737" lon="5.07677">
        <ele>181.5</ele>
        <time>2022-10-16T13:51:28.000Z</time>
      </trkpt>
      <trkpt lat="45.0774" lon="5.07688">
        <ele>181.6</ele>
        <time>2022-10-16T13:51:29.000Z</time>
      </trkpt>
      <trkpt lat="45.07744" lon="5.07699">
        <ele>181.9</ele>
        <time>2022-10-16T13:51:30.000Z</time>
      </trkpt>
      <trkpt lat="45.07747" lon="5.0771">
        <ele>182.4</ele>
        <time>2022-10-16T13:51:31.000Z</time>
      </trkpt>
      <trkpt lat="45.07751" lon="5.0772">
        <ele>182.9</ele>
        <time>2022-10-16T13:51:32.000Z</time>
      </trkpt>
      <trkpt lat="45.07755" lon="5.07731">
        <ele>182.5</ele>
        <time>2022-10-16T13:51:33.000Z</time>
      </trkpt>
      <trkpt lat="45.07759" lon="5.0774">
        <ele>181.9</ele>
        <time>2022-10-16T13:51:34.000Z</time>
      </trkpt>
      <trkpt lat="45.07764" lon="5.0775">
        <ele>181.5</ele>
        <time>2022-10-16T13:51:35.000Z</time>
      </trkpt>
      <trkpt lat="45.0777" lon="5.0776">
        <ele>181.4</ele>
        <time>2022-10-16T13:51:36.000Z</time>
      </trkpt>
      <trkpt lat="45.07776" lon="5.0777">
        <ele>181.2</ele>
        <time>2022-10-16T13:51:37.000Z</time>
      </trkpt>
      <trkpt lat="45.07782" lon="5.0778">
        <ele>180.9</ele>
        <time>2022-10-16T13:51:38.000Z</time>
      </trkpt>
      <trkpt lat="45.07788" lon="5.07789">
        <ele>180.7</ele>
        <time>2022-10-16T13:51:39.000Z</time>
      </trkpt>
      <trkpt lat="45.07794" lon="5.07799">
        <ele>180.7</ele>
        <time>2022-10-16T13:51:40.000Z</time>
      </trkpt>
      <trkpt lat="45.078" lon="5.07808">
        <ele>180.7</ele>
        <time>2022-10-16T13:51:41.000Z</time>
      </trkpt>
      <trkpt lat="45.07806" lon="5.07817">
        <ele>180.6</ele>
        <time>2022-10-16T13:51:42.000Z</time>
      </trkpt>
      <trkpt lat="45.07812" lon="5.07826">
        <ele>180.4</ele>
        <time>2022-10-16T13:51:43.000Z</time>
      </trkpt>
      <trkpt lat="45.07819" lon="5.07835">
        <ele>180.5</ele>
        <time>2022-10-16T13:51:44.000Z</time>
      </trkpt>
      <trkpt lat="45.07825" lon="5.07843">
        <ele>180.6</ele>
        <time>2022-10-16T13:51:45.000Z</time>
      </trkpt>
      <trkpt lat="45.07831" lon="5.07852">
        <ele>180.8</ele>
        <time>2022-10-16T13:51:46.000Z</time>
      </trkpt>
      <trkpt lat="45.07837" lon="5.0786">
        <ele>181.1</ele>
        <time>2022-10-16T13:51:47.000Z</time>
      </trkpt>
      <trkpt lat="45.07842" lon="5.07869">
        <ele>181.1</ele>
        <time>2022-10-16T13:51:48.000Z</time>
      </trkpt>
      <trkpt lat="45.07848" lon="5.07879">
        <ele>181.2</ele>
        <time>2022-10-16T13:51:49.000Z</time>
      </trkpt>
      <trkpt lat="45.07854" lon="5.07888">
        <ele>181.5</ele>
        <time>2022-10-16T13:51:50.000Z</time>
      </trkpt>
      <trkpt lat="45.0786" lon="5.07898">
        <ele>181.6</ele>
        <time>2022-10-16T13:51:51.000Z</time>
      </trkpt>
      <trkpt lat="45.07867" lon="5.07908">
        <ele>181.7</ele>
        <time>2022-10-16T13:51:52.000Z</time>
      </trkpt>
      <trkpt lat="45.07873" lon="5.07918">
        <ele>181.8</ele>
        <time>2022-10-16T13:51:53.000Z</time>
      </trkpt>
      <trkpt lat="45.07879" lon="5.07927">
        <ele>181.9</ele>
        <time>2022-10-16T13:51:54.000Z</time>
      </trkpt>
      <trkpt lat="45.07885" lon="5.07937">
        <ele>182</ele>
        <time>2022-10-16T13:51:55.000Z</time>
      </trkpt>
      <trkpt lat="45.07891" lon="5.07946">
        <ele>182</ele>
        <time>2022-10-16T13:51:56.000Z</time>
      </trkpt>
      <trkpt lat="45.07897" lon="5.07955">
        <ele>182</ele>
        <time>2022-10-16T13:51:57.000Z</time>
      </trkpt>
      <trkpt lat="45.07903" lon="5.07963">
        <ele>182.1</ele>
        <time>2022-10-16T13:51:58.000Z</time>
      </trkpt>
      <trkpt lat="45.07908" lon="5.07971">
        <ele>182.4</ele>
        <time>2022-10-16T13:51:59.000Z</time>
      </trkpt>
      <trkpt lat="45.07914" lon="5.07979">
        <ele>182.3</ele>
        <time>2022-10-16T13:52:00.000Z</time>
      </trkpt>
      <trkpt lat="45.0792" lon="5.07987">
        <ele>182</ele>
        <time>2022-10-16T13:52:01.000Z</time>
      </trkpt>
      <trkpt lat="45.07926" lon="5.07995">
        <ele>181.9</ele>
        <time>2022-10-16T13:52:02.000Z</time>
      </trkpt>
      <trkpt lat="45.07932" lon="5.08004">
        <ele>182.1</ele>
        <time>2022-10-16T13:52:03.000Z</time>
      </trkpt>
      <trkpt lat="45.07938" lon="5.08012">
        <ele>182.6</ele>
        <time>2022-10-16T13:52:04.000Z</time>
      </trkpt>
      <trkpt lat="45.07944" lon="5.0802">
        <ele>183</ele>
        <time>2022-10-16T13:52:05.000Z</time>
      </trkpt>
      <trkpt lat="45.0795" lon="5.08028">
        <ele>183.2</ele>
        <time>2022-10-16T13:52:06.000Z</time>
      </trkpt>
      <trkpt lat="45.07956" lon="5.08036">
        <ele>183.3</ele>
        <time>2022-10-16T13:52:07.000Z</time>
      </trkpt>
      <trkpt lat="45.07962" lon="5.08043">
        <ele>183.4</ele>
        <time>2022-10-16T13:52:08.000Z</time>
      </trkpt>
      <trkpt lat="45.07968" lon="5.08051">
        <ele>183.7</ele>
        <time>2022-10-16T13:52:09.000Z</time>
      </trkpt>
      <trkpt lat="45.07974" lon="5.08058">
        <ele>183.9</ele>
        <time>2022-10-16T13:52:10.000Z</time>
      </trkpt>
      <trkpt lat="45.07979" lon="5.08065">
        <ele>183.8</ele>
        <time>2022-10-16T13:52:11.000Z</time>
      </trkpt>
      <trkpt lat="45.07985" lon="5.08072">
        <ele>183.8</ele>
        <time>2022-10-16T13:52:12.000Z</time>
      </trkpt>
      <trkpt lat="45.0799" lon="5.08079">
        <ele>184.1</ele>
        <time>2022-10-16T13:52:13.000Z</time>
      </trkpt>
      <trkpt lat="45.07996" lon="5.08085">
        <ele>184.5</ele>
        <time>2022-10-16T13:52:14.000Z</time>
      </trkpt>
      <trkpt lat="45.08002" lon="5.08092">
        <ele>184.5</ele>
        <time>2022-10-16T13:52:15.000Z</time>
      </trkpt>
      <trkpt lat="45.08009" lon="5.08098">
        <ele>184.3</ele>
        <time>2022-10-16T13:52:16.000Z</time>
      </trkpt>
      <trkpt lat="45.08015" lon="5.08104">
        <ele>184.3</ele>
        <time>2022-10-16T13:52:17.000Z</time>
      </trkpt>
      <trkpt lat="45.08021" lon="5.0811">
        <ele>184.5</ele>
        <time>2022-10-16T13:52:18.000Z</time>
      </trkpt>
      <trkpt lat="45.08027" lon="5.08116">
        <ele>184.8</ele>
        <time>2022-10-16T13:52:19.000Z</time>
      </trkpt>
      <trkpt lat="45.08033" lon="5.08122">
        <ele>184.9</ele>
        <time>2022-10-16T13:52:20.000Z</time>
      </trkpt>
      <trkpt lat="45.08039" lon="5.08127">
        <ele>185</ele>
        <time>2022-10-16T13:52:21.000Z</time>
      </trkpt>
      <trkpt lat="45.08044" lon="5.08133">
        <ele>185.2</ele>
        <time>2022-10-16T13:52:22.000Z</time>
      </trkpt>
      <trkpt lat="45.08049" lon="5.08138">
        <ele>185.5</ele>
        <time>2022-10-16T13:52:23.000Z</time>
      </trkpt>
      <trkpt lat="45.08054" lon="5.08142">
        <ele>185.6</ele>
        <time>2022-10-16T13:52:24.000Z</time>
      </trkpt>
      <trkpt lat="45.08059" lon="5.08147">
        <ele>185.6</ele>
        <time>2022-10-16T13:52:25.000Z</time>
      </trkpt>
      <trkpt lat="45.08063" lon="5.08152">
        <ele>185.6</ele>
        <time>2022-10-16T13:52:26.000Z</time>
      </trkpt>
      <trkpt lat="45.08068" lon="5.08157">
        <ele>185.7</ele>
        <time>2022-10-16T13:52:27.000Z</time>
      </trkpt>
      <trkpt lat="45.08071" lon="5.08161">
        <ele>185.9</ele>
        <time>2022-10-16T13:52:28.000Z</time>
      </trkpt>
      <trkpt lat="45.08075" lon="5.08166">
        <ele>186.1</ele>
        <time>2022-10-16T13:52:29.000Z</time>
      </trkpt>
      <trkpt lat="45.08079" lon="5.08171">
        <ele>186.2</ele>
        <time>2022-10-16T13:52:30.000Z</time>
      </trkpt>
      <trkpt lat="45.08083" lon="5.08177">
        <ele>186.2</ele>
        <time>2022-10-16T13:52:31.000Z</time>
      </trkpt>
      <trkpt lat="45.08086" lon="5.08183">
        <ele>185.8</ele>
        <time>2022-10-16T13:52:32.000Z</time>
      </trkpt>
      <trkpt lat="45.0809" lon="5.08189">
        <ele>185.5</ele>
        <time>2022-10-16T13:52:33.000Z</time>
      </trkpt>
      <trkpt lat="45.08094" lon="5.08195">
        <ele>185.3</ele>
        <time>2022-10-16T13:52:34.000Z</time>
      </trkpt>
      <trkpt lat="45.08097" lon="5.08201">
        <ele>185.4</ele>
        <time>2022-10-16T13:52:35.000Z</time>
      </trkpt>
      <trkpt lat="45.08101" lon="5.08208">
        <ele>185.5</ele>
        <time>2022-10-16T13:52:36.000Z</time>
      </trkpt>
      <trkpt lat="45.08105" lon="5.08215">
        <ele>185.6</ele>
        <time>2022-10-16T13:52:37.000Z</time>
      </trkpt>
      <trkpt lat="45.08109" lon="5.08221">
        <ele>185.8</ele>
        <time>2022-10-16T13:52:38.000Z</time>
      </trkpt>
      <trkpt lat="45.08113" lon="5.08227">
        <ele>185.8</ele>
        <time>2022-10-16T13:52:39.000Z</time>
      </trkpt>
      <trkpt lat="45.08117" lon="5.08233">
        <ele>185.7</ele>
        <time>2022-10-16T13:52:40.000Z</time>
      </trkpt>
      <trkpt lat="45.0812" lon="5.0824">
        <ele>185.6</ele>
        <time>2022-10-16T13:52:41.000Z</time>
      </trkpt>
      <trkpt lat="45.08123" lon="5.08248">
        <ele>185.5</ele>
        <time>2022-10-16T13:52:42.000Z</time>
      </trkpt>
      <trkpt lat="45.08125" lon="5.08256">
        <ele>185.3</ele>
        <time>2022-10-16T13:52:43.000Z</time>
      </trkpt>
      <trkpt lat="45.08127" lon="5.08263">
        <ele>185.1</ele>
        <time>2022-10-16T13:52:44.000Z</time>
      </trkpt>
      <trkpt lat="45.08129" lon="5.08271">
        <ele>184.9</ele>
        <time>2022-10-16T13:52:45.000Z</time>
      </trkpt>
      <trkpt lat="45.08131" lon="5.08279">
        <ele>184.7</ele>
        <time>2022-10-16T13:52:46.000Z</time>
      </trkpt>
      <trkpt lat="45.08133" lon="5.08287">
        <ele>184.8</ele>
        <time>2022-10-16T13:52:47.000Z</time>
      </trkpt>
      <trkpt lat="45.08135" lon="5.08296">
        <ele>184.9</ele>
        <time>2022-10-16T13:52:48.000Z</time>
      </trkpt>
      <trkpt lat="45.08138" lon="5.08304">
        <ele>185</ele>
        <time>2022-10-16T13:52:49.000Z</time>
      </trkpt>
      <trkpt lat="45.08139" lon="5.08313">
        <ele>185</ele>
        <time>2022-10-16T13:52:50.000Z</time>
      </trkpt>
      <trkpt lat="45.08141" lon="5.08323">
        <ele>185</ele>
        <time>2022-10-16T13:52:51.000Z</time>
      </trkpt>
      <trkpt lat="45.08142" lon="5.08333">
        <ele>185</ele>
        <time>2022-10-16T13:52:52.000Z</time>
      </trkpt>
      <trkpt lat="45.08144" lon="5.08343">
        <ele>184.7</ele>
        <time>2022-10-16T13:52:53.000Z</time>
      </trkpt>
      <trkpt lat="45.08146" lon="5.08352">
        <ele>184.5</ele>
        <time>2022-10-16T13:52:54.000Z</time>
      </trkpt>
      <trkpt lat="45.08147" lon="5.08362">
        <ele>184.3</ele>
        <time>2022-10-16T13:52:55.000Z</time>
      </trkpt>
      <trkpt lat="45.08148" lon="5.08372">
        <ele>184.3</ele>
        <time>2022-10-16T13:52:56.000Z</time>
      </trkpt>
      <trkpt lat="45.08149" lon="5.0838">
        <ele>184.4</ele>
        <time>2022-10-16T13:52:57.000Z</time>
      </trkpt>
      <trkpt lat="45.08151" lon="5.08389">
        <ele>184.4</ele>
        <time>2022-10-16T13:52:58.000Z</time>
      </trkpt>
      <trkpt lat="45.08152" lon="5.08398">
        <ele>184.5</ele>
        <time>2022-10-16T13:52:59.000Z</time>
      </trkpt>
      <trkpt lat="45.08153" lon="5.08406">
        <ele>184.5</ele>
        <time>2022-10-16T13:53:00.000Z</time>
      </trkpt>
      <trkpt lat="45.08154" lon="5.08413">
        <ele>184.5</ele>
        <time>2022-10-16T13:53:01.000Z</time>
      </trkpt>
      <trkpt lat="45.08154" lon="5.08421">
        <ele>184.5</ele>
        <time>2022-10-16T13:53:02.000Z</time>
      </trkpt>
      <trkpt lat="45.08155" lon="5.08427">
        <ele>184.6</ele>
        <time>2022-10-16T13:53:03.000Z</time>
      </trkpt>
      <trkpt lat="45.08155" lon="5.08434">
        <ele>184.6</ele>
        <time>2022-10-16T13:53:04.000Z</time>
      </trkpt>
      <trkpt lat="45.08155" lon="5.08441">
        <ele>184.6</ele>
        <time>2022-10-16T13:53:05.000Z</time>
      </trkpt>
      <trkpt lat="45.08155" lon="5.0845">
        <ele>184.5</ele>
        <time>2022-10-16T13:53:06.000Z</time>
      </trkpt>
      <trkpt lat="45.08155" lon="5.08458">
        <ele>184.4</ele>
        <time>2022-10-16T13:53:07.000Z</time>
      </trkpt>
      <trkpt lat="45.08156" lon="5.08466">
        <ele>184.3</ele>
        <time>2022-10-16T13:53:08.000Z</time>
      </trkpt>
      <trkpt lat="45.08157" lon="5.08475">
        <ele>184.2</ele>
        <time>2022-10-16T13:53:09.000Z</time>
      </trkpt>
      <trkpt lat="45.08159" lon="5.08485">
        <ele>184.1</ele>
        <time>2022-10-16T13:53:10.000Z</time>
      </trkpt>
      <trkpt lat="45.0816" lon="5.08495">
        <ele>183.9</ele>
        <time>2022-10-16T13:53:11.000Z</time>
      </trkpt>
      <trkpt lat="45.08161" lon="5.08506">
        <ele>183.8</ele>
        <time>2022-10-16T13:53:12.000Z</time>
      </trkpt>
      <trkpt lat="45.08162" lon="5.08517">
        <ele>183.8</ele>
        <time>2022-10-16T13:53:13.000Z</time>
      </trkpt>
      <trkpt lat="45.08163" lon="5.08527">
        <ele>183.9</ele>
        <time>2022-10-16T13:53:14.000Z</time>
      </trkpt>
      <trkpt lat="45.08164" lon="5.08537">
        <ele>183.6</ele>
        <time>2022-10-16T13:53:15.000Z</time>
      </trkpt>
      <trkpt lat="45.08166" lon="5.08547">
        <ele>183.3</ele>
        <time>2022-10-16T13:53:16.000Z</time>
      </trkpt>
      <trkpt lat="45.08167" lon="5.08556">
        <ele>183</ele>
        <time>2022-10-16T13:53:17.000Z</time>
      </trkpt>
      <trkpt lat="45.08168" lon="5.08565">
        <ele>183.1</ele>
        <time>2022-10-16T13:53:18.000Z</time>
      </trkpt>
      <trkpt lat="45.0817" lon="5.08574">
        <ele>183.1</ele>
        <time>2022-10-16T13:53:19.000Z</time>
      </trkpt>
      <trkpt lat="45.08171" lon="5.08583">
        <ele>183.1</ele>
        <time>2022-10-16T13:53:20.000Z</time>
      </trkpt>
      <trkpt lat="45.08172" lon="5.08591">
        <ele>183.2</ele>
        <time>2022-10-16T13:53:21.000Z</time>
      </trkpt>
      <trkpt lat="45.08172" lon="5.086">
        <ele>183.2</ele>
        <time>2022-10-16T13:53:22.000Z</time>
      </trkpt>
      <trkpt lat="45.08173" lon="5.08608">
        <ele>183.2</ele>
        <time>2022-10-16T13:53:23.000Z</time>
      </trkpt>
      <trkpt lat="45.08174" lon="5.08616">
        <ele>183.3</ele>
        <time>2022-10-16T13:53:24.000Z</time>
      </trkpt>
      <trkpt lat="45.08176" lon="5.08624">
        <ele>183.3</ele>
        <time>2022-10-16T13:53:25.000Z</time>
      </trkpt>
      <trkpt lat="45.08177" lon="5.08632">
        <ele>183.4</ele>
        <time>2022-10-16T13:53:26.000Z</time>
      </trkpt>
      <trkpt lat="45.08179" lon="5.0864">
        <ele>183.5</ele>
        <time>2022-10-16T13:53:27.000Z</time>
      </trkpt>
      <trkpt lat="45.0818" lon="5.08647">
        <ele>183.6</ele>
        <time>2022-10-16T13:53:28.000Z</time>
      </trkpt>
      <trkpt lat="45.08181" lon="5.08654">
        <ele>183.8</ele>
        <time>2022-10-16T13:53:29.000Z</time>
      </trkpt>
      <trkpt lat="45.08182" lon="5.08661">
        <ele>183.9</ele>
        <time>2022-10-16T13:53:30.000Z</time>
      </trkpt>
      <trkpt lat="45.08183" lon="5.08667">
        <ele>184</ele>
        <time>2022-10-16T13:53:31.000Z</time>
      </trkpt>
      <trkpt lat="45.08184" lon="5.08673">
        <ele>184.2</ele>
        <time>2022-10-16T13:53:32.000Z</time>
      </trkpt>
      <trkpt lat="45.08185" lon="5.0868">
        <ele>184.3</ele>
        <time>2022-10-16T13:53:33.000Z</time>
      </trkpt>
      <trkpt lat="45.08186" lon="5.08686">
        <ele>184.5</ele>
        <time>2022-10-16T13:53:34.000Z</time>
      </trkpt>
      <trkpt lat="45.08186" lon="5.08692">
        <ele>184.6</ele>
        <time>2022-10-16T13:53:35.000Z</time>
      </trkpt>
      <trkpt lat="45.08185" lon="5.08698">
        <ele>184.8</ele>
        <time>2022-10-16T13:53:36.000Z</time>
      </trkpt>
      <trkpt lat="45.08184" lon="5.08703">
        <ele>185.1</ele>
        <time>2022-10-16T13:53:37.000Z</time>
      </trkpt>
      <trkpt lat="45.08183" lon="5.08708">
        <ele>185.3</ele>
        <time>2022-10-16T13:53:38.000Z</time>
      </trkpt>
      <trkpt lat="45.08181" lon="5.08713">
        <ele>185.5</ele>
        <time>2022-10-16T13:53:39.000Z</time>
      </trkpt>
      <trkpt lat="45.08181" lon="5.08719">
        <ele>185.8</ele>
        <time>2022-10-16T13:53:40.000Z</time>
      </trkpt>
      <trkpt lat="45.0818" lon="5.08725">
        <ele>185.9</ele>
        <time>2022-10-16T13:53:41.000Z</time>
      </trkpt>
      <trkpt lat="45.08181" lon="5.08732">
        <ele>185.8</ele>
        <time>2022-10-16T13:53:42.000Z</time>
      </trkpt>
      <trkpt lat="45.08183" lon="5.08737">
        <ele>185.8</ele>
        <time>2022-10-16T13:53:43.000Z</time>
      </trkpt>
      <trkpt lat="45.08187" lon="5.08742">
        <ele>185.8</ele>
        <time>2022-10-16T13:53:44.000Z</time>
      </trkpt>
      <trkpt lat="45.08191" lon="5.08745">
        <ele>185.9</ele>
        <time>2022-10-16T13:53:45.000Z</time>
      </trkpt>
      <trkpt lat="45.08195" lon="5.08749">
        <ele>186</ele>
        <time>2022-10-16T13:53:46.000Z</time>
      </trkpt>
      <trkpt lat="45.082" lon="5.08753">
        <ele>185.9</ele>
        <time>2022-10-16T13:53:47.000Z</time>
      </trkpt>
      <trkpt lat="45.08203" lon="5.08758">
        <ele>185.8</ele>
        <time>2022-10-16T13:53:48.000Z</time>
      </trkpt>
      <trkpt lat="45.08206" lon="5.08765">
        <ele>185.7</ele>
        <time>2022-10-16T13:53:49.000Z</time>
      </trkpt>
      <trkpt lat="45.08208" lon="5.08771">
        <ele>185.6</ele>
        <time>2022-10-16T13:53:50.000Z</time>
      </trkpt>
      <trkpt lat="45.0821" lon="5.08778">
        <ele>185.6</ele>
        <time>2022-10-16T13:53:51.000Z</time>
      </trkpt>
      <trkpt lat="45.08212" lon="5.08786">
        <ele>185.5</ele>
        <time>2022-10-16T13:53:52.000Z</time>
      </trkpt>
      <trkpt lat="45.08212" lon="5.08795">
        <ele>185.4</ele>
        <time>2022-10-16T13:53:53.000Z</time>
      </trkpt>
      <trkpt lat="45.08213" lon="5.08803">
        <ele>185.3</ele>
        <time>2022-10-16T13:53:54.000Z</time>
      </trkpt>
      <trkpt lat="45.08213" lon="5.08812">
        <ele>185.4</ele>
        <time>2022-10-16T13:53:55.000Z</time>
      </trkpt>
      <trkpt lat="45.08213" lon="5.08822">
        <ele>185.5</ele>
        <time>2022-10-16T13:53:56.000Z</time>
      </trkpt>
      <trkpt lat="45.08214" lon="5.0883">
        <ele>185.7</ele>
        <time>2022-10-16T13:53:57.000Z</time>
      </trkpt>
      <trkpt lat="45.08214" lon="5.0884">
        <ele>185.5</ele>
        <time>2022-10-16T13:53:58.000Z</time>
      </trkpt>
      <trkpt lat="45.08215" lon="5.08849">
        <ele>185.3</ele>
        <time>2022-10-16T13:53:59.000Z</time>
      </trkpt>
      <trkpt lat="45.08215" lon="5.08858">
        <ele>185.1</ele>
        <time>2022-10-16T13:54:00.000Z</time>
      </trkpt>
      <trkpt lat="45.08215" lon="5.08867">
        <ele>184.9</ele>
        <time>2022-10-16T13:54:01.000Z</time>
      </trkpt>
      <trkpt lat="45.08216" lon="5.08877">
        <ele>184.9</ele>
        <time>2022-10-16T13:54:02.000Z</time>
      </trkpt>
      <trkpt lat="45.08216" lon="5.08887">
        <ele>184.8</ele>
        <time>2022-10-16T13:54:03.000Z</time>
      </trkpt>
      <trkpt lat="45.08216" lon="5.08897">
        <ele>184.8</ele>
        <time>2022-10-16T13:54:04.000Z</time>
      </trkpt>
      <trkpt lat="45.08217" lon="5.08906">
        <ele>184.8</ele>
        <time>2022-10-16T13:54:05.000Z</time>
      </trkpt>
      <trkpt lat="45.08218" lon="5.08916">
        <ele>184.9</ele>
        <time>2022-10-16T13:54:06.000Z</time>
      </trkpt>
      <trkpt lat="45.08219" lon="5.08926">
        <ele>184.9</ele>
        <time>2022-10-16T13:54:07.000Z</time>
      </trkpt>
      <trkpt lat="45.0822" lon="5.08936">
        <ele>184.9</ele>
        <time>2022-10-16T13:54:08.000Z</time>
      </trkpt>
      <trkpt lat="45.0822" lon="5.08946">
        <ele>184.9</ele>
        <time>2022-10-16T13:54:09.000Z</time>
      </trkpt>
      <trkpt lat="45.0822" lon="5.08956">
        <ele>184.9</ele>
        <time>2022-10-16T13:54:10.000Z</time>
      </trkpt>
      <trkpt lat="45.08221" lon="5.08966">
        <ele>184.9</ele>
        <time>2022-10-16T13:54:11.000Z</time>
      </trkpt>
      <trkpt lat="45.08221" lon="5.08976">
        <ele>185</ele>
        <time>2022-10-16T13:54:12.000Z</time>
      </trkpt>
      <trkpt lat="45.08222" lon="5.08987">
        <ele>185</ele>
        <time>2022-10-16T13:54:13.000Z</time>
      </trkpt>
      <trkpt lat="45.08222" lon="5.08997">
        <ele>185</ele>
        <time>2022-10-16T13:54:14.000Z</time>
      </trkpt>
      <trkpt lat="45.08222" lon="5.09007">
        <ele>185</ele>
        <time>2022-10-16T13:54:15.000Z</time>
      </trkpt>
      <trkpt lat="45.08223" lon="5.09016">
        <ele>185</ele>
        <time>2022-10-16T13:54:16.000Z</time>
      </trkpt>
      <trkpt lat="45.08223" lon="5.09026">
        <ele>185</ele>
        <time>2022-10-16T13:54:17.000Z</time>
      </trkpt>
      <trkpt lat="45.08223" lon="5.09035">
        <ele>185</ele>
        <time>2022-10-16T13:54:18.000Z</time>
      </trkpt>
      <trkpt lat="45.08224" lon="5.09044">
        <ele>185</ele>
        <time>2022-10-16T13:54:19.000Z</time>
      </trkpt>
      <trkpt lat="45.08225" lon="5.09053">
        <ele>185</ele>
        <time>2022-10-16T13:54:20.000Z</time>
      </trkpt>
      <trkpt lat="45.08227" lon="5.09061">
        <ele>185</ele>
        <time>2022-10-16T13:54:21.000Z</time>
      </trkpt>
      <trkpt lat="45.08228" lon="5.0907">
        <ele>185</ele>
        <time>2022-10-16T13:54:22.000Z</time>
      </trkpt>
      <trkpt lat="45.08229" lon="5.09078">
        <ele>185</ele>
        <time>2022-10-16T13:54:23.000Z</time>
      </trkpt>
      <trkpt lat="45.08231" lon="5.09086">
        <ele>185</ele>
        <time>2022-10-16T13:54:24.000Z</time>
      </trkpt>
      <trkpt lat="45.08232" lon="5.09093">
        <ele>185</ele>
        <time>2022-10-16T13:54:25.000Z</time>
      </trkpt>
      <trkpt lat="45.08232" lon="5.09101">
        <ele>185</ele>
        <time>2022-10-16T13:54:26.000Z</time>
      </trkpt>
      <trkpt lat="45.08233" lon="5.09109">
        <ele>185</ele>
        <time>2022-10-16T13:54:27.000Z</time>
      </trkpt>
      <trkpt lat="45.08234" lon="5.09117">
        <ele>185</ele>
        <time>2022-10-16T13:54:28.000Z</time>
      </trkpt>
      <trkpt lat="45.08234" lon="5.09125">
        <ele>185</ele>
        <time>2022-10-16T13:54:29.000Z</time>
      </trkpt>
      <trkpt lat="45.08235" lon="5.09133">
        <ele>185</ele>
        <time>2022-10-16T13:54:30.000Z</time>
      </trkpt>
      <trkpt lat="45.08236" lon="5.09142">
        <ele>185</ele>
        <time>2022-10-16T13:54:31.000Z</time>
      </trkpt>
      <trkpt lat="45.08236" lon="5.0915">
        <ele>185</ele>
        <time>2022-10-16T13:54:32.000Z</time>
      </trkpt>
      <trkpt lat="45.08237" lon="5.09159">
        <ele>185</ele>
        <time>2022-10-16T13:54:33.000Z</time>
      </trkpt>
      <trkpt lat="45.08239" lon="5.09168">
        <ele>185</ele>
        <time>2022-10-16T13:54:34.000Z</time>
      </trkpt>
      <trkpt lat="45.0824" lon="5.09176">
        <ele>185</ele>
        <time>2022-10-16T13:54:35.000Z</time>
      </trkpt>
      <trkpt lat="45.08242" lon="5.09184">
        <ele>185</ele>
        <time>2022-10-16T13:54:36.000Z</time>
      </trkpt>
      <trkpt lat="45.08243" lon="5.09191">
        <ele>185</ele>
        <time>2022-10-16T13:54:37.000Z</time>
      </trkpt>
      <trkpt lat="45.08243" lon="5.09199">
        <ele>185.1</ele>
        <time>2022-10-16T13:54:38.000Z</time>
      </trkpt>
      <trkpt lat="45.08244" lon="5.09206">
        <ele>185.3</ele>
        <time>2022-10-16T13:54:39.000Z</time>
      </trkpt>
      <trkpt lat="45.08246" lon="5.09214">
        <ele>185.6</ele>
        <time>2022-10-16T13:54:40.000Z</time>
      </trkpt>
      <trkpt lat="45.08248" lon="5.09221">
        <ele>185.9</ele>
        <time>2022-10-16T13:54:41.000Z</time>
      </trkpt>
      <trkpt lat="45.0825" lon="5.09228">
        <ele>186</ele>
        <time>2022-10-16T13:54:42.000Z</time>
      </trkpt>
      <trkpt lat="45.08252" lon="5.09235">
        <ele>185.9</ele>
        <time>2022-10-16T13:54:43.000Z</time>
      </trkpt>
      <trkpt lat="45.08253" lon="5.09242">
        <ele>185.9</ele>
        <time>2022-10-16T13:54:44.000Z</time>
      </trkpt>
      <trkpt lat="45.08255" lon="5.09249">
        <ele>185.8</ele>
        <time>2022-10-16T13:54:45.000Z</time>
      </trkpt>
      <trkpt lat="45.08257" lon="5.09257">
        <ele>185.6</ele>
        <time>2022-10-16T13:54:46.000Z</time>
      </trkpt>
      <trkpt lat="45.08259" lon="5.09265">
        <ele>185.3</ele>
        <time>2022-10-16T13:54:47.000Z</time>
      </trkpt>
      <trkpt lat="45.08262" lon="5.09272">
        <ele>185.1</ele>
        <time>2022-10-16T13:54:48.000Z</time>
      </trkpt>
      <trkpt lat="45.08264" lon="5.09281">
        <ele>185</ele>
        <time>2022-10-16T13:54:49.000Z</time>
      </trkpt>
      <trkpt lat="45.08266" lon="5.09289">
        <ele>185.2</ele>
        <time>2022-10-16T13:54:50.000Z</time>
      </trkpt>
      <trkpt lat="45.08269" lon="5.09297">
        <ele>185.5</ele>
        <time>2022-10-16T13:54:51.000Z</time>
      </trkpt>
      <trkpt lat="45.08272" lon="5.09306">
        <ele>185.8</ele>
        <time>2022-10-16T13:54:52.000Z</time>
      </trkpt>
      <trkpt lat="45.08274" lon="5.09314">
        <ele>185.6</ele>
        <time>2022-10-16T13:54:53.000Z</time>
      </trkpt>
      <trkpt lat="45.08277" lon="5.09322">
        <ele>185.4</ele>
        <time>2022-10-16T13:54:54.000Z</time>
      </trkpt>
      <trkpt lat="45.08281" lon="5.09329">
        <ele>185.1</ele>
        <time>2022-10-16T13:54:55.000Z</time>
      </trkpt>
      <trkpt lat="45.08284" lon="5.09337">
        <ele>185</ele>
        <time>2022-10-16T13:54:56.000Z</time>
      </trkpt>
      <trkpt lat="45.08288" lon="5.09345">
        <ele>185</ele>
        <time>2022-10-16T13:54:57.000Z</time>
      </trkpt>
      <trkpt lat="45.08292" lon="5.09354">
        <ele>185</ele>
        <time>2022-10-16T13:54:58.000Z</time>
      </trkpt>
      <trkpt lat="45.08296" lon="5.09362">
        <ele>185</ele>
        <time>2022-10-16T13:54:59.000Z</time>
      </trkpt>
      <trkpt lat="45.083" lon="5.09371">
        <ele>185</ele>
        <time>2022-10-16T13:55:00.000Z</time>
      </trkpt>
      <trkpt lat="45.08305" lon="5.09378">
        <ele>185</ele>
        <time>2022-10-16T13:55:01.000Z</time>
      </trkpt>
      <trkpt lat="45.0831" lon="5.09385">
        <ele>185.1</ele>
        <time>2022-10-16T13:55:02.000Z</time>
      </trkpt>
      <trkpt lat="45.08315" lon="5.09392">
        <ele>185.3</ele>
        <time>2022-10-16T13:55:03.000Z</time>
      </trkpt>
      <trkpt lat="45.0832" lon="5.09398">
        <ele>185.5</ele>
        <time>2022-10-16T13:55:04.000Z</time>
      </trkpt>
      <trkpt lat="45.08325" lon="5.09404">
        <ele>185.7</ele>
        <time>2022-10-16T13:55:05.000Z</time>
      </trkpt>
      <trkpt lat="45.0833" lon="5.0941">
        <ele>185.9</ele>
        <time>2022-10-16T13:55:06.000Z</time>
      </trkpt>
      <trkpt lat="45.08335" lon="5.09416">
        <ele>186</ele>
        <time>2022-10-16T13:55:07.000Z</time>
      </trkpt>
      <trkpt lat="45.08341" lon="5.09423">
        <ele>185.8</ele>
        <time>2022-10-16T13:55:08.000Z</time>
      </trkpt>
      <trkpt lat="45.08346" lon="5.09429">
        <ele>185.8</ele>
        <time>2022-10-16T13:55:09.000Z</time>
      </trkpt>
      <trkpt lat="45.08351" lon="5.09435">
        <ele>185.8</ele>
        <time>2022-10-16T13:55:10.000Z</time>
      </trkpt>
      <trkpt lat="45.08356" lon="5.09441">
        <ele>185.8</ele>
        <time>2022-10-16T13:55:11.000Z</time>
      </trkpt>
      <trkpt lat="45.08361" lon="5.09446">
        <ele>185.9</ele>
        <time>2022-10-16T13:55:12.000Z</time>
      </trkpt>
      <trkpt lat="45.08366" lon="5.09452">
        <ele>185.8</ele>
        <time>2022-10-16T13:55:13.000Z</time>
      </trkpt>
      <trkpt lat="45.08372" lon="5.09459">
        <ele>185.9</ele>
        <time>2022-10-16T13:55:14.000Z</time>
      </trkpt>
      <trkpt lat="45.08377" lon="5.09466">
        <ele>186.1</ele>
        <time>2022-10-16T13:55:15.000Z</time>
      </trkpt>
      <trkpt lat="45.08382" lon="5.09473">
        <ele>186.5</ele>
        <time>2022-10-16T13:55:16.000Z</time>
      </trkpt>
      <trkpt lat="45.08387" lon="5.0948">
        <ele>186.6</ele>
        <time>2022-10-16T13:55:17.000Z</time>
      </trkpt>
      <trkpt lat="45.08392" lon="5.09487">
        <ele>186.6</ele>
        <time>2022-10-16T13:55:18.000Z</time>
      </trkpt>
      <trkpt lat="45.08397" lon="5.09494">
        <ele>186.7</ele>
        <time>2022-10-16T13:55:19.000Z</time>
      </trkpt>
      <trkpt lat="45.08403" lon="5.095">
        <ele>187</ele>
        <time>2022-10-16T13:55:20.000Z</time>
      </trkpt>
      <trkpt lat="45.08408" lon="5.09507">
        <ele>187.2</ele>
        <time>2022-10-16T13:55:21.000Z</time>
      </trkpt>
      <trkpt lat="45.08413" lon="5.09513">
        <ele>187.3</ele>
        <time>2022-10-16T13:55:22.000Z</time>
      </trkpt>
      <trkpt lat="45.08418" lon="5.09519">
        <ele>187.4</ele>
        <time>2022-10-16T13:55:23.000Z</time>
      </trkpt>
      <trkpt lat="45.08423" lon="5.09525">
        <ele>187.7</ele>
        <time>2022-10-16T13:55:24.000Z</time>
      </trkpt>
      <trkpt lat="45.08429" lon="5.09531">
        <ele>188.2</ele>
        <time>2022-10-16T13:55:25.000Z</time>
      </trkpt>
      <trkpt lat="45.08433" lon="5.09536">
        <ele>188.5</ele>
        <time>2022-10-16T13:55:26.000Z</time>
      </trkpt>
      <trkpt lat="45.08438" lon="5.09541">
        <ele>188.8</ele>
        <time>2022-10-16T13:55:27.000Z</time>
      </trkpt>
      <trkpt lat="45.08442" lon="5.09544">
        <ele>189.1</ele>
        <time>2022-10-16T13:55:28.000Z</time>
      </trkpt>
      <trkpt lat="45.08445" lon="5.09547">
        <ele>189.4</ele>
        <time>2022-10-16T13:55:29.000Z</time>
      </trkpt>
      <trkpt lat="45.08448" lon="5.09549">
        <ele>189.5</ele>
        <time>2022-10-16T13:55:30.000Z</time>
      </trkpt>
      <trkpt lat="45.08451" lon="5.09553">
        <ele>189.5</ele>
        <time>2022-10-16T13:55:31.000Z</time>
      </trkpt>
      <trkpt lat="45.08453" lon="5.09558">
        <ele>189.6</ele>
        <time>2022-10-16T13:55:32.000Z</time>
      </trkpt>
      <trkpt lat="45.08454" lon="5.09564">
        <ele>189.7</ele>
        <time>2022-10-16T13:55:33.000Z</time>
      </trkpt>
      <trkpt lat="45.08455" lon="5.09571">
        <ele>189.8</ele>
        <time>2022-10-16T13:55:34.000Z</time>
      </trkpt>
      <trkpt lat="45.08457" lon="5.09578">
        <ele>189.9</ele>
        <time>2022-10-16T13:55:35.000Z</time>
      </trkpt>
      <trkpt lat="45.08459" lon="5.09587">
        <ele>190.1</ele>
        <time>2022-10-16T13:55:36.000Z</time>
      </trkpt>
      <trkpt lat="45.08462" lon="5.09595">
        <ele>190.2</ele>
        <time>2022-10-16T13:55:37.000Z</time>
      </trkpt>
      <trkpt lat="45.08466" lon="5.09603">
        <ele>190.2</ele>
        <time>2022-10-16T13:55:38.000Z</time>
      </trkpt>
      <trkpt lat="45.0847" lon="5.09612">
        <ele>190</ele>
        <time>2022-10-16T13:55:39.000Z</time>
      </trkpt>
      <trkpt lat="45.08474" lon="5.09621">
        <ele>189.5</ele>
        <time>2022-10-16T13:55:40.000Z</time>
      </trkpt>
      <trkpt lat="45.08479" lon="5.0963">
        <ele>189.4</ele>
        <time>2022-10-16T13:55:41.000Z</time>
      </trkpt>
      <trkpt lat="45.08483" lon="5.0964">
        <ele>189.5</ele>
        <time>2022-10-16T13:55:42.000Z</time>
      </trkpt>
      <trkpt lat="45.08487" lon="5.09649">
        <ele>189.9</ele>
        <time>2022-10-16T13:55:43.000Z</time>
      </trkpt>
      <trkpt lat="45.08491" lon="5.09658">
        <ele>190.2</ele>
        <time>2022-10-16T13:55:44.000Z</time>
      </trkpt>
      <trkpt lat="45.08495" lon="5.09667">
        <ele>190.4</ele>
        <time>2022-10-16T13:55:45.000Z</time>
      </trkpt>
      <trkpt lat="45.08498" lon="5.09675">
        <ele>190.3</ele>
        <time>2022-10-16T13:55:46.000Z</time>
      </trkpt>
      <trkpt lat="45.08502" lon="5.09683">
        <ele>190.1</ele>
        <time>2022-10-16T13:55:47.000Z</time>
      </trkpt>
      <trkpt lat="45.08506" lon="5.09691">
        <ele>190</ele>
        <time>2022-10-16T13:55:48.000Z</time>
      </trkpt>
      <trkpt lat="45.08509" lon="5.09699">
        <ele>190.3</ele>
        <time>2022-10-16T13:55:49.000Z</time>
      </trkpt>
      <trkpt lat="45.08513" lon="5.09708">
        <ele>190.6</ele>
        <time>2022-10-16T13:55:50.000Z</time>
      </trkpt>
      <trkpt lat="45.08516" lon="5.09716">
        <ele>190.8</ele>
        <time>2022-10-16T13:55:51.000Z</time>
      </trkpt>
      <trkpt lat="45.08519" lon="5.09724">
        <ele>191.1</ele>
        <time>2022-10-16T13:55:52.000Z</time>
      </trkpt>
      <trkpt lat="45.08522" lon="5.09732">
        <ele>191.4</ele>
        <time>2022-10-16T13:55:53.000Z</time>
      </trkpt>
      <trkpt lat="45.08525" lon="5.09741">
        <ele>191.7</ele>
        <time>2022-10-16T13:55:54.000Z</time>
      </trkpt>
      <trkpt lat="45.08528" lon="5.09749">
        <ele>192</ele>
        <time>2022-10-16T13:55:55.000Z</time>
      </trkpt>
      <trkpt lat="45.08531" lon="5.09757">
        <ele>192</ele>
        <time>2022-10-16T13:55:56.000Z</time>
      </trkpt>
      <trkpt lat="45.08534" lon="5.09766">
        <ele>192</ele>
        <time>2022-10-16T13:55:57.000Z</time>
      </trkpt>
      <trkpt lat="45.08536" lon="5.09775">
        <ele>192</ele>
        <time>2022-10-16T13:55:58.000Z</time>
      </trkpt>
      <trkpt lat="45.08539" lon="5.09783">
        <ele>192.1</ele>
        <time>2022-10-16T13:55:59.000Z</time>
      </trkpt>
      <trkpt lat="45.08541" lon="5.09792">
        <ele>192.2</ele>
        <time>2022-10-16T13:56:00.000Z</time>
      </trkpt>
      <trkpt lat="45.08544" lon="5.098">
        <ele>192.2</ele>
        <time>2022-10-16T13:56:01.000Z</time>
      </trkpt>
      <trkpt lat="45.08546" lon="5.09809">
        <ele>192.2</ele>
        <time>2022-10-16T13:56:02.000Z</time>
      </trkpt>
      <trkpt lat="45.08549" lon="5.09818">
        <ele>192.1</ele>
        <time>2022-10-16T13:56:03.000Z</time>
      </trkpt>
      <trkpt lat="45.08551" lon="5.09826">
        <ele>191.9</ele>
        <time>2022-10-16T13:56:04.000Z</time>
      </trkpt>
      <trkpt lat="45.08554" lon="5.09836">
        <ele>191.8</ele>
        <time>2022-10-16T13:56:05.000Z</time>
      </trkpt>
      <trkpt lat="45.08556" lon="5.09846">
        <ele>191.6</ele>
        <time>2022-10-16T13:56:06.000Z</time>
      </trkpt>
      <trkpt lat="45.08559" lon="5.09855">
        <ele>191.4</ele>
        <time>2022-10-16T13:56:07.000Z</time>
      </trkpt>
      <trkpt lat="45.08562" lon="5.09865">
        <ele>191.3</ele>
        <time>2022-10-16T13:56:08.000Z</time>
      </trkpt>
      <trkpt lat="45.08564" lon="5.09876">
        <ele>191.1</ele>
        <time>2022-10-16T13:56:09.000Z</time>
      </trkpt>
      <trkpt lat="45.08567" lon="5.09886">
        <ele>190.9</ele>
        <time>2022-10-16T13:56:10.000Z</time>
      </trkpt>
      <trkpt lat="45.0857" lon="5.09896">
        <ele>190.9</ele>
        <time>2022-10-16T13:56:11.000Z</time>
      </trkpt>
      <trkpt lat="45.08573" lon="5.09906">
        <ele>191</ele>
        <time>2022-10-16T13:56:12.000Z</time>
      </trkpt>
      <trkpt lat="45.08576" lon="5.09916">
        <ele>191.2</ele>
        <time>2022-10-16T13:56:13.000Z</time>
      </trkpt>
      <trkpt lat="45.08579" lon="5.09927">
        <ele>191.5</ele>
        <time>2022-10-16T13:56:14.000Z</time>
      </trkpt>
      <trkpt lat="45.08582" lon="5.09937">
        <ele>191.8</ele>
        <time>2022-10-16T13:56:15.000Z</time>
      </trkpt>
      <trkpt lat="45.08584" lon="5.09947">
        <ele>191.9</ele>
        <time>2022-10-16T13:56:16.000Z</time>
      </trkpt>
      <trkpt lat="45.08587" lon="5.09957">
        <ele>191.6</ele>
        <time>2022-10-16T13:56:17.000Z</time>
      </trkpt>
      <trkpt lat="45.08589" lon="5.09966">
        <ele>191.4</ele>
        <time>2022-10-16T13:56:18.000Z</time>
      </trkpt>
      <trkpt lat="45.08592" lon="5.09975">
        <ele>191.2</ele>
        <time>2022-10-16T13:56:19.000Z</time>
      </trkpt>
      <trkpt lat="45.08594" lon="5.09984">
        <ele>191.1</ele>
        <time>2022-10-16T13:56:20.000Z</time>
      </trkpt>
      <trkpt lat="45.08596" lon="5.09992">
        <ele>191.1</ele>
        <time>2022-10-16T13:56:21.000Z</time>
      </trkpt>
      <trkpt lat="45.08599" lon="5.10001">
        <ele>191.1</ele>
        <time>2022-10-16T13:56:22.000Z</time>
      </trkpt>
      <trkpt lat="45.08601" lon="5.10009">
        <ele>191.5</ele>
        <time>2022-10-16T13:56:23.000Z</time>
      </trkpt>
      <trkpt lat="45.08604" lon="5.10017">
        <ele>191.9</ele>
        <time>2022-10-16T13:56:24.000Z</time>
      </trkpt>
      <trkpt lat="45.08606" lon="5.10025">
        <ele>192.4</ele>
        <time>2022-10-16T13:56:25.000Z</time>
      </trkpt>
      <trkpt lat="45.08609" lon="5.10034">
        <ele>192.8</ele>
        <time>2022-10-16T13:56:26.000Z</time>
      </trkpt>
      <trkpt lat="45.08611" lon="5.10042">
        <ele>193</ele>
        <time>2022-10-16T13:56:27.000Z</time>
      </trkpt>
      <trkpt lat="45.08613" lon="5.1005">
        <ele>193.1</ele>
        <time>2022-10-16T13:56:28.000Z</time>
      </trkpt>
      <trkpt lat="45.08616" lon="5.10058">
        <ele>193.1</ele>
        <time>2022-10-16T13:56:29.000Z</time>
      </trkpt>
      <trkpt lat="45.08618" lon="5.10066">
        <ele>192.9</ele>
        <time>2022-10-16T13:56:30.000Z</time>
      </trkpt>
      <trkpt lat="45.0862" lon="5.10074">
        <ele>192.9</ele>
        <time>2022-10-16T13:56:31.000Z</time>
      </trkpt>
      <trkpt lat="45.08622" lon="5.10082">
        <ele>192.8</ele>
        <time>2022-10-16T13:56:32.000Z</time>
      </trkpt>
      <trkpt lat="45.08623" lon="5.1009">
        <ele>192.7</ele>
        <time>2022-10-16T13:56:33.000Z</time>
      </trkpt>
      <trkpt lat="45.08625" lon="5.10099">
        <ele>192.7</ele>
        <time>2022-10-16T13:56:34.000Z</time>
      </trkpt>
      <trkpt lat="45.08627" lon="5.10107">
        <ele>192.7</ele>
        <time>2022-10-16T13:56:35.000Z</time>
      </trkpt>
      <trkpt lat="45.08629" lon="5.10115">
        <ele>193</ele>
        <time>2022-10-16T13:56:36.000Z</time>
      </trkpt>
      <trkpt lat="45.0863" lon="5.10123">
        <ele>193.5</ele>
        <time>2022-10-16T13:56:37.000Z</time>
      </trkpt>
      <trkpt lat="45.08631" lon="5.10131">
        <ele>193.9</ele>
        <time>2022-10-16T13:56:38.000Z</time>
      </trkpt>
      <trkpt lat="45.08633" lon="5.1014">
        <ele>194.4</ele>
        <time>2022-10-16T13:56:39.000Z</time>
      </trkpt>
      <trkpt lat="45.08635" lon="5.10148">
        <ele>194.5</ele>
        <time>2022-10-16T13:56:40.000Z</time>
      </trkpt>
      <trkpt lat="45.08636" lon="5.10156">
        <ele>194.6</ele>
        <time>2022-10-16T13:56:41.000Z</time>
      </trkpt>
      <trkpt lat="45.08638" lon="5.10164">
        <ele>194.8</ele>
        <time>2022-10-16T13:56:42.000Z</time>
      </trkpt>
      <trkpt lat="45.08639" lon="5.10172">
        <ele>194.8</ele>
        <time>2022-10-16T13:56:43.000Z</time>
      </trkpt>
      <trkpt lat="45.08641" lon="5.1018">
        <ele>194.6</ele>
        <time>2022-10-16T13:56:44.000Z</time>
      </trkpt>
      <trkpt lat="45.08642" lon="5.10187">
        <ele>194.4</ele>
        <time>2022-10-16T13:56:45.000Z</time>
      </trkpt>
      <trkpt lat="45.08644" lon="5.10195">
        <ele>194.3</ele>
        <time>2022-10-16T13:56:46.000Z</time>
      </trkpt>
      <trkpt lat="45.08645" lon="5.10203">
        <ele>194.1</ele>
        <time>2022-10-16T13:56:47.000Z</time>
      </trkpt>
      <trkpt lat="45.08647" lon="5.10211">
        <ele>193.8</ele>
        <time>2022-10-16T13:56:48.000Z</time>
      </trkpt>
      <trkpt lat="45.08649" lon="5.1022">
        <ele>193.5</ele>
        <time>2022-10-16T13:56:49.000Z</time>
      </trkpt>
      <trkpt lat="45.0865" lon="5.10229">
        <ele>193.1</ele>
        <time>2022-10-16T13:56:50.000Z</time>
      </trkpt>
      <trkpt lat="45.08652" lon="5.10238">
        <ele>192.9</ele>
        <time>2022-10-16T13:56:51.000Z</time>
      </trkpt>
      <trkpt lat="45.08654" lon="5.10247">
        <ele>192.7</ele>
        <time>2022-10-16T13:56:52.000Z</time>
      </trkpt>
      <trkpt lat="45.08656" lon="5.10256">
        <ele>193</ele>
        <time>2022-10-16T13:56:53.000Z</time>
      </trkpt>
      <trkpt lat="45.08659" lon="5.10266">
        <ele>193.3</ele>
        <time>2022-10-16T13:56:54.000Z</time>
      </trkpt>
      <trkpt lat="45.08662" lon="5.10276">
        <ele>193.6</ele>
        <time>2022-10-16T13:56:55.000Z</time>
      </trkpt>
      <trkpt lat="45.08664" lon="5.10286">
        <ele>193.5</ele>
        <time>2022-10-16T13:56:56.000Z</time>
      </trkpt>
      <trkpt lat="45.08667" lon="5.10295">
        <ele>193.3</ele>
        <time>2022-10-16T13:56:57.000Z</time>
      </trkpt>
      <trkpt lat="45.0867" lon="5.10305">
        <ele>192.9</ele>
        <time>2022-10-16T13:56:58.000Z</time>
      </trkpt>
      <trkpt lat="45.08673" lon="5.10315">
        <ele>192.2</ele>
        <time>2022-10-16T13:56:59.000Z</time>
      </trkpt>
      <trkpt lat="45.08676" lon="5.10324">
        <ele>191.5</ele>
        <time>2022-10-16T13:57:00.000Z</time>
      </trkpt>
      <trkpt lat="45.08679" lon="5.10334">
        <ele>191</ele>
        <time>2022-10-16T13:57:01.000Z</time>
      </trkpt>
      <trkpt lat="45.08682" lon="5.10343">
        <ele>191</ele>
        <time>2022-10-16T13:57:02.000Z</time>
      </trkpt>
      <trkpt lat="45.08685" lon="5.10352">
        <ele>191.2</ele>
        <time>2022-10-16T13:57:03.000Z</time>
      </trkpt>
      <trkpt lat="45.08687" lon="5.10362">
        <ele>191.5</ele>
        <time>2022-10-16T13:57:04.000Z</time>
      </trkpt>
      <trkpt lat="45.0869" lon="5.10371">
        <ele>192</ele>
        <time>2022-10-16T13:57:05.000Z</time>
      </trkpt>
      <trkpt lat="45.08693" lon="5.1038">
        <ele>192.5</ele>
        <time>2022-10-16T13:57:06.000Z</time>
      </trkpt>
      <trkpt lat="45.08695" lon="5.10389">
        <ele>192.9</ele>
        <time>2022-10-16T13:57:07.000Z</time>
      </trkpt>
      <trkpt lat="45.08698" lon="5.10398">
        <ele>192.5</ele>
        <time>2022-10-16T13:57:08.000Z</time>
      </trkpt>
      <trkpt lat="45.08701" lon="5.10407">
        <ele>192.3</ele>
        <time>2022-10-16T13:57:09.000Z</time>
      </trkpt>
      <trkpt lat="45.08704" lon="5.10417">
        <ele>192.3</ele>
        <time>2022-10-16T13:57:10.000Z</time>
      </trkpt>
      <trkpt lat="45.08706" lon="5.10426">
        <ele>191.9</ele>
        <time>2022-10-16T13:57:11.000Z</time>
      </trkpt>
      <trkpt lat="45.08709" lon="5.10436">
        <ele>191.5</ele>
        <time>2022-10-16T13:57:12.000Z</time>
      </trkpt>
      <trkpt lat="45.08712" lon="5.10447">
        <ele>191.3</ele>
        <time>2022-10-16T13:57:13.000Z</time>
      </trkpt>
      <trkpt lat="45.08714" lon="5.10457">
        <ele>191.7</ele>
        <time>2022-10-16T13:57:14.000Z</time>
      </trkpt>
      <trkpt lat="45.08717" lon="5.10467">
        <ele>192.3</ele>
        <time>2022-10-16T13:57:15.000Z</time>
      </trkpt>
      <trkpt lat="45.08719" lon="5.10477">
        <ele>192.5</ele>
        <time>2022-10-16T13:57:16.000Z</time>
      </trkpt>
      <trkpt lat="45.08722" lon="5.10487">
        <ele>192.4</ele>
        <time>2022-10-16T13:57:17.000Z</time>
      </trkpt>
      <trkpt lat="45.08724" lon="5.10497">
        <ele>192.1</ele>
        <time>2022-10-16T13:57:18.000Z</time>
      </trkpt>
      <trkpt lat="45.08726" lon="5.10506">
        <ele>191.7</ele>
        <time>2022-10-16T13:57:19.000Z</time>
      </trkpt>
      <trkpt lat="45.08729" lon="5.10516">
        <ele>191.3</ele>
        <time>2022-10-16T13:57:20.000Z</time>
      </trkpt>
      <trkpt lat="45.08732" lon="5.10525">
        <ele>191.1</ele>
        <time>2022-10-16T13:57:21.000Z</time>
      </trkpt>
      <trkpt lat="45.08734" lon="5.10535">
        <ele>190.9</ele>
        <time>2022-10-16T13:57:22.000Z</time>
      </trkpt>
      <trkpt lat="45.08736" lon="5.10544">
        <ele>190.7</ele>
        <time>2022-10-16T13:57:23.000Z</time>
      </trkpt>
      <trkpt lat="45.08739" lon="5.10554">
        <ele>190.6</ele>
        <time>2022-10-16T13:57:24.000Z</time>
      </trkpt>
      <trkpt lat="45.08741" lon="5.10563">
        <ele>190.8</ele>
        <time>2022-10-16T13:57:25.000Z</time>
      </trkpt>
      <trkpt lat="45.08743" lon="5.10572">
        <ele>191.2</ele>
        <time>2022-10-16T13:57:26.000Z</time>
      </trkpt>
      <trkpt lat="45.08745" lon="5.10581">
        <ele>191.6</ele>
        <time>2022-10-16T13:57:27.000Z</time>
      </trkpt>
      <trkpt lat="45.08747" lon="5.10589">
        <ele>191.6</ele>
        <time>2022-10-16T13:57:28.000Z</time>
      </trkpt>
      <trkpt lat="45.08749" lon="5.10598">
        <ele>191.4</ele>
        <time>2022-10-16T13:57:29.000Z</time>
      </trkpt>
      <trkpt lat="45.08751" lon="5.10608">
        <ele>191.1</ele>
        <time>2022-10-16T13:57:30.000Z</time>
      </trkpt>
      <trkpt lat="45.08753" lon="5.10617">
        <ele>191</ele>
        <time>2022-10-16T13:57:31.000Z</time>
      </trkpt>
      <trkpt lat="45.08756" lon="5.10627">
        <ele>191.1</ele>
        <time>2022-10-16T13:57:32.000Z</time>
      </trkpt>
      <trkpt lat="45.08758" lon="5.10637">
        <ele>191.3</ele>
        <time>2022-10-16T13:57:33.000Z</time>
      </trkpt>
      <trkpt lat="45.0876" lon="5.10647">
        <ele>191.4</ele>
        <time>2022-10-16T13:57:34.000Z</time>
      </trkpt>
      <trkpt lat="45.08762" lon="5.10657">
        <ele>191.4</ele>
        <time>2022-10-16T13:57:35.000Z</time>
      </trkpt>
      <trkpt lat="45.08764" lon="5.10667">
        <ele>191.5</ele>
        <time>2022-10-16T13:57:36.000Z</time>
      </trkpt>
      <trkpt lat="45.08766" lon="5.10677">
        <ele>191.6</ele>
        <time>2022-10-16T13:57:37.000Z</time>
      </trkpt>
      <trkpt lat="45.08767" lon="5.10686">
        <ele>191.6</ele>
        <time>2022-10-16T13:57:38.000Z</time>
      </trkpt>
      <trkpt lat="45.08769" lon="5.10696">
        <ele>191.7</ele>
        <time>2022-10-16T13:57:39.000Z</time>
      </trkpt>
      <trkpt lat="45.0877" lon="5.10706">
        <ele>191.7</ele>
        <time>2022-10-16T13:57:40.000Z</time>
      </trkpt>
      <trkpt lat="45.08772" lon="5.10716">
        <ele>191.8</ele>
        <time>2022-10-16T13:57:41.000Z</time>
      </trkpt>
      <trkpt lat="45.08773" lon="5.10726">
        <ele>191.8</ele>
        <time>2022-10-16T13:57:42.000Z</time>
      </trkpt>
      <trkpt lat="45.08774" lon="5.10735">
        <ele>191.8</ele>
        <time>2022-10-16T13:57:43.000Z</time>
      </trkpt>
      <trkpt lat="45.08775" lon="5.10744">
        <ele>191.8</ele>
        <time>2022-10-16T13:57:44.000Z</time>
      </trkpt>
      <trkpt lat="45.08776" lon="5.10753">
        <ele>191.8</ele>
        <time>2022-10-16T13:57:45.000Z</time>
      </trkpt>
      <trkpt lat="45.08776" lon="5.10762">
        <ele>191.9</ele>
        <time>2022-10-16T13:57:46.000Z</time>
      </trkpt>
      <trkpt lat="45.08776" lon="5.10772">
        <ele>191.9</ele>
        <time>2022-10-16T13:57:47.000Z</time>
      </trkpt>
      <trkpt lat="45.08776" lon="5.10783">
        <ele>191.9</ele>
        <time>2022-10-16T13:57:48.000Z</time>
      </trkpt>
      <trkpt lat="45.08776" lon="5.10792">
        <ele>191.9</ele>
        <time>2022-10-16T13:57:49.000Z</time>
      </trkpt>
      <trkpt lat="45.08777" lon="5.10801">
        <ele>191.9</ele>
        <time>2022-10-16T13:57:50.000Z</time>
      </trkpt>
      <trkpt lat="45.08776" lon="5.1081">
        <ele>191.8</ele>
        <time>2022-10-16T13:57:51.000Z</time>
      </trkpt>
      <trkpt lat="45.08777" lon="5.10818">
        <ele>191.5</ele>
        <time>2022-10-16T13:57:52.000Z</time>
      </trkpt>
      <trkpt lat="45.08777" lon="5.10827">
        <ele>191.2</ele>
        <time>2022-10-16T13:57:53.000Z</time>
      </trkpt>
      <trkpt lat="45.08779" lon="5.10834">
        <ele>191</ele>
        <time>2022-10-16T13:57:54.000Z</time>
      </trkpt>
      <trkpt lat="45.0878" lon="5.1084">
        <ele>191.1</ele>
        <time>2022-10-16T13:57:55.000Z</time>
      </trkpt>
      <trkpt lat="45.08781" lon="5.10846">
        <ele>191.1</ele>
        <time>2022-10-16T13:57:56.000Z</time>
      </trkpt>
      <trkpt lat="45.0878" lon="5.10852">
        <ele>191.1</ele>
        <time>2022-10-16T13:57:57.000Z</time>
      </trkpt>
      <trkpt lat="45.0878" lon="5.10859">
        <ele>191.1</ele>
        <time>2022-10-16T13:57:58.000Z</time>
      </trkpt>
      <trkpt lat="45.08779" lon="5.10866">
        <ele>191</ele>
        <time>2022-10-16T13:57:59.000Z</time>
      </trkpt>
      <trkpt lat="45.08779" lon="5.10875">
        <ele>191</ele>
        <time>2022-10-16T13:58:00.000Z</time>
      </trkpt>
      <trkpt lat="45.0878" lon="5.10883">
        <ele>191</ele>
        <time>2022-10-16T13:58:01.000Z</time>
      </trkpt>
      <trkpt lat="45.0878" lon="5.10891">
        <ele>191</ele>
        <time>2022-10-16T13:58:02.000Z</time>
      </trkpt>
      <trkpt lat="45.0878" lon="5.10899">
        <ele>191</ele>
        <time>2022-10-16T13:58:03.000Z</time>
      </trkpt>
      <trkpt lat="45.0878" lon="5.10907">
        <ele>191</ele>
        <time>2022-10-16T13:58:04.000Z</time>
      </trkpt>
      <trkpt lat="45.0878" lon="5.10915">
        <ele>191</ele>
        <time>2022-10-16T13:58:05.000Z</time>
      </trkpt>
      <trkpt lat="45.08781" lon="5.10922">
        <ele>191</ele>
        <time>2022-10-16T13:58:06.000Z</time>
      </trkpt>
      <trkpt lat="45.08782" lon="5.1093">
        <ele>191</ele>
        <time>2022-10-16T13:58:07.000Z</time>
      </trkpt>
      <trkpt lat="45.08783" lon="5.10938">
        <ele>191</ele>
        <time>2022-10-16T13:58:08.000Z</time>
      </trkpt>
      <trkpt lat="45.08784" lon="5.10946">
        <ele>191</ele>
        <time>2022-10-16T13:58:09.000Z</time>
      </trkpt>
      <trkpt lat="45.08784" lon="5.10955">
        <ele>191</ele>
        <time>2022-10-16T13:58:10.000Z</time>
      </trkpt>
      <trkpt lat="45.08785" lon="5.10964">
        <ele>191</ele>
        <time>2022-10-16T13:58:11.000Z</time>
      </trkpt>
      <trkpt lat="45.08786" lon="5.10972">
        <ele>191</ele>
        <time>2022-10-16T13:58:12.000Z</time>
      </trkpt>
      <trkpt lat="45.08787" lon="5.10981">
        <ele>191.1</ele>
        <time>2022-10-16T13:58:13.000Z</time>
      </trkpt>
      <trkpt lat="45.08789" lon="5.10989">
        <ele>191.2</ele>
        <time>2022-10-16T13:58:14.000Z</time>
      </trkpt>
      <trkpt lat="45.08791" lon="5.10998">
        <ele>191.4</ele>
        <time>2022-10-16T13:58:15.000Z</time>
      </trkpt>
      <trkpt lat="45.08792" lon="5.11006">
        <ele>191.5</ele>
        <time>2022-10-16T13:58:16.000Z</time>
      </trkpt>
      <trkpt lat="45.08794" lon="5.11014">
        <ele>191.6</ele>
        <time>2022-10-16T13:58:17.000Z</time>
      </trkpt>
      <trkpt lat="45.08796" lon="5.11022">
        <ele>191.6</ele>
        <time>2022-10-16T13:58:18.000Z</time>
      </trkpt>
      <trkpt lat="45.08797" lon="5.1103">
        <ele>191.7</ele>
        <time>2022-10-16T13:58:19.000Z</time>
      </trkpt>
      <trkpt lat="45.08799" lon="5.11038">
        <ele>191.8</ele>
        <time>2022-10-16T13:58:20.000Z</time>
      </trkpt>
      <trkpt lat="45.088" lon="5.11046">
        <ele>191.8</ele>
        <time>2022-10-16T13:58:21.000Z</time>
      </trkpt>
      <trkpt lat="45.08802" lon="5.11054">
        <ele>191.9</ele>
        <time>2022-10-16T13:58:22.000Z</time>
      </trkpt>
      <trkpt lat="45.08803" lon="5.11063">
        <ele>191.9</ele>
        <time>2022-10-16T13:58:23.000Z</time>
      </trkpt>
      <trkpt lat="45.08805" lon="5.11071">
        <ele>192</ele>
        <time>2022-10-16T13:58:24.000Z</time>
      </trkpt>
      <trkpt lat="45.08806" lon="5.11079">
        <ele>192</ele>
        <time>2022-10-16T13:58:25.000Z</time>
      </trkpt>
      <trkpt lat="45.08808" lon="5.11088">
        <ele>192</ele>
        <time>2022-10-16T13:58:26.000Z</time>
      </trkpt>
      <trkpt lat="45.08809" lon="5.11096">
        <ele>192</ele>
        <time>2022-10-16T13:58:27.000Z</time>
      </trkpt>
      <trkpt lat="45.08811" lon="5.11104">
        <ele>192</ele>
        <time>2022-10-16T13:58:28.000Z</time>
      </trkpt>
      <trkpt lat="45.08812" lon="5.11112">
        <ele>192</ele>
        <time>2022-10-16T13:58:29.000Z</time>
      </trkpt>
      <trkpt lat="45.08814" lon="5.11121">
        <ele>192.3</ele>
        <time>2022-10-16T13:58:30.000Z</time>
      </trkpt>
      <trkpt lat="45.08815" lon="5.11129">
        <ele>192.6</ele>
        <time>2022-10-16T13:58:31.000Z</time>
      </trkpt>
      <trkpt lat="45.08817" lon="5.11137">
        <ele>192.9</ele>
        <time>2022-10-16T13:58:32.000Z</time>
      </trkpt>
      <trkpt lat="45.08819" lon="5.11145">
        <ele>192.9</ele>
        <time>2022-10-16T13:58:33.000Z</time>
      </trkpt>
      <trkpt lat="45.0882" lon="5.11153">
        <ele>192.8</ele>
        <time>2022-10-16T13:58:34.000Z</time>
      </trkpt>
      <trkpt lat="45.08822" lon="5.11161">
        <ele>192.7</ele>
        <time>2022-10-16T13:58:35.000Z</time>
      </trkpt>
      <trkpt lat="45.08823" lon="5.1117">
        <ele>192.6</ele>
        <time>2022-10-16T13:58:36.000Z</time>
      </trkpt>
      <trkpt lat="45.08824" lon="5.11178">
        <ele>192.7</ele>
        <time>2022-10-16T13:58:37.000Z</time>
      </trkpt>
      <trkpt lat="45.08825" lon="5.11186">
        <ele>192.7</ele>
        <time>2022-10-16T13:58:38.000Z</time>
      </trkpt>
      <trkpt lat="45.08826" lon="5.11194">
        <ele>192.7</ele>
        <time>2022-10-16T13:58:39.000Z</time>
      </trkpt>
      <trkpt lat="45.08827" lon="5.11202">
        <ele>193</ele>
        <time>2022-10-16T13:58:40.000Z</time>
      </trkpt>
      <trkpt lat="45.08828" lon="5.11211">
        <ele>193.3</ele>
        <time>2022-10-16T13:58:41.000Z</time>
      </trkpt>
      <trkpt lat="45.08829" lon="5.1122">
        <ele>193.6</ele>
        <time>2022-10-16T13:58:42.000Z</time>
      </trkpt>
      <trkpt lat="45.0883" lon="5.11228">
        <ele>193.7</ele>
        <time>2022-10-16T13:58:43.000Z</time>
      </trkpt>
      <trkpt lat="45.0883" lon="5.11237">
        <ele>193.8</ele>
        <time>2022-10-16T13:58:44.000Z</time>
      </trkpt>
      <trkpt lat="45.08831" lon="5.11246">
        <ele>193.8</ele>
        <time>2022-10-16T13:58:45.000Z</time>
      </trkpt>
      <trkpt lat="45.08832" lon="5.11255">
        <ele>193.9</ele>
        <time>2022-10-16T13:58:46.000Z</time>
      </trkpt>
      <trkpt lat="45.08833" lon="5.11263">
        <ele>194</ele>
        <time>2022-10-16T13:58:47.000Z</time>
      </trkpt>
      <trkpt lat="45.08834" lon="5.11272">
        <ele>194</ele>
        <time>2022-10-16T13:58:48.000Z</time>
      </trkpt>
      <trkpt lat="45.08834" lon="5.11281">
        <ele>194</ele>
        <time>2022-10-16T13:58:49.000Z</time>
      </trkpt>
      <trkpt lat="45.08835" lon="5.1129">
        <ele>193.9</ele>
        <time>2022-10-16T13:58:50.000Z</time>
      </trkpt>
      <trkpt lat="45.08836" lon="5.11299">
        <ele>193.9</ele>
        <time>2022-10-16T13:58:51.000Z</time>
      </trkpt>
      <trkpt lat="45.08837" lon="5.11308">
        <ele>193.9</ele>
        <time>2022-10-16T13:58:52.000Z</time>
      </trkpt>
      <trkpt lat="45.08838" lon="5.11317">
        <ele>193.9</ele>
        <time>2022-10-16T13:58:53.000Z</time>
      </trkpt>
      <trkpt lat="45.08838" lon="5.11326">
        <ele>193.8</ele>
        <time>2022-10-16T13:58:54.000Z</time>
      </trkpt>
      <trkpt lat="45.08839" lon="5.11335">
        <ele>193.8</ele>
        <time>2022-10-16T13:58:55.000Z</time>
      </trkpt>
      <trkpt lat="45.0884" lon="5.11344">
        <ele>193.9</ele>
        <time>2022-10-16T13:58:56.000Z</time>
      </trkpt>
      <trkpt lat="45.0884" lon="5.11353">
        <ele>193.9</ele>
        <time>2022-10-16T13:58:57.000Z</time>
      </trkpt>
      <trkpt lat="45.08841" lon="5.11361">
        <ele>194</ele>
        <time>2022-10-16T13:58:58.000Z</time>
      </trkpt>
      <trkpt lat="45.08842" lon="5.1137">
        <ele>194</ele>
        <time>2022-10-16T13:58:59.000Z</time>
      </trkpt>
      <trkpt lat="45.08842" lon="5.11378">
        <ele>194</ele>
        <time>2022-10-16T13:59:00.000Z</time>
      </trkpt>
      <trkpt lat="45.08843" lon="5.11387">
        <ele>194</ele>
        <time>2022-10-16T13:59:01.000Z</time>
      </trkpt>
      <trkpt lat="45.08844" lon="5.11395">
        <ele>194.1</ele>
        <time>2022-10-16T13:59:02.000Z</time>
      </trkpt>
      <trkpt lat="45.08844" lon="5.11403">
        <ele>194.3</ele>
        <time>2022-10-16T13:59:03.000Z</time>
      </trkpt>
      <trkpt lat="45.08845" lon="5.11412">
        <ele>194.5</ele>
        <time>2022-10-16T13:59:04.000Z</time>
      </trkpt>
      <trkpt lat="45.08846" lon="5.1142">
        <ele>194.5</ele>
        <time>2022-10-16T13:59:05.000Z</time>
      </trkpt>
      <trkpt lat="45.08846" lon="5.11428">
        <ele>194.5</ele>
        <time>2022-10-16T13:59:06.000Z</time>
      </trkpt>
      <trkpt lat="45.08847" lon="5.11436">
        <ele>194.5</ele>
        <time>2022-10-16T13:59:07.000Z</time>
      </trkpt>
      <trkpt lat="45.08848" lon="5.11444">
        <ele>194.5</ele>
        <time>2022-10-16T13:59:08.000Z</time>
      </trkpt>
      <trkpt lat="45.08849" lon="5.11452">
        <ele>194.6</ele>
        <time>2022-10-16T13:59:09.000Z</time>
      </trkpt>
      <trkpt lat="45.0885" lon="5.1146">
        <ele>194.6</ele>
        <time>2022-10-16T13:59:10.000Z</time>
      </trkpt>
      <trkpt lat="45.0885" lon="5.11468">
        <ele>194.6</ele>
        <time>2022-10-16T13:59:11.000Z</time>
      </trkpt>
      <trkpt lat="45.08851" lon="5.11476">
        <ele>194.6</ele>
        <time>2022-10-16T13:59:12.000Z</time>
      </trkpt>
      <trkpt lat="45.08852" lon="5.11484">
        <ele>194.7</ele>
        <time>2022-10-16T13:59:13.000Z</time>
      </trkpt>
      <trkpt lat="45.08853" lon="5.11492">
        <ele>194.7</ele>
        <time>2022-10-16T13:59:14.000Z</time>
      </trkpt>
      <trkpt lat="45.08853" lon="5.115">
        <ele>194.7</ele>
        <time>2022-10-16T13:59:15.000Z</time>
      </trkpt>
      <trkpt lat="45.08854" lon="5.11508">
        <ele>195</ele>
        <time>2022-10-16T13:59:16.000Z</time>
      </trkpt>
      <trkpt lat="45.08854" lon="5.11516">
        <ele>195.3</ele>
        <time>2022-10-16T13:59:17.000Z</time>
      </trkpt>
      <trkpt lat="45.08855" lon="5.11524">
        <ele>195.6</ele>
        <time>2022-10-16T13:59:18.000Z</time>
      </trkpt>
      <trkpt lat="45.08855" lon="5.11532">
        <ele>195.8</ele>
        <time>2022-10-16T13:59:19.000Z</time>
      </trkpt>
      <trkpt lat="45.08856" lon="5.11539">
        <ele>195.8</ele>
        <time>2022-10-16T13:59:20.000Z</time>
      </trkpt>
      <trkpt lat="45.08856" lon="5.11547">
        <ele>195.8</ele>
        <time>2022-10-16T13:59:21.000Z</time>
      </trkpt>
      <trkpt lat="45.08857" lon="5.11555">
        <ele>195.9</ele>
        <time>2022-10-16T13:59:22.000Z</time>
      </trkpt>
      <trkpt lat="45.08858" lon="5.11563">
        <ele>196.1</ele>
        <time>2022-10-16T13:59:23.000Z</time>
      </trkpt>
      <trkpt lat="45.08858" lon="5.11571">
        <ele>196.4</ele>
        <time>2022-10-16T13:59:24.000Z</time>
      </trkpt>
      <trkpt lat="45.08859" lon="5.11579">
        <ele>196.7</ele>
        <time>2022-10-16T13:59:25.000Z</time>
      </trkpt>
      <trkpt lat="45.0886" lon="5.11587">
        <ele>196.8</ele>
        <time>2022-10-16T13:59:26.000Z</time>
      </trkpt>
      <trkpt lat="45.0886" lon="5.11595">
        <ele>196.5</ele>
        <time>2022-10-16T13:59:27.000Z</time>
      </trkpt>
      <trkpt lat="45.08861" lon="5.11603">
        <ele>196.3</ele>
        <time>2022-10-16T13:59:28.000Z</time>
      </trkpt>
      <trkpt lat="45.08862" lon="5.11611">
        <ele>196</ele>
        <time>2022-10-16T13:59:29.000Z</time>
      </trkpt>
      <trkpt lat="45.08863" lon="5.1162">
        <ele>195.9</ele>
        <time>2022-10-16T13:59:30.000Z</time>
      </trkpt>
      <trkpt lat="45.08863" lon="5.11628">
        <ele>195.8</ele>
        <time>2022-10-16T13:59:31.000Z</time>
      </trkpt>
      <trkpt lat="45.08864" lon="5.11637">
        <ele>195.8</ele>
        <time>2022-10-16T13:59:32.000Z</time>
      </trkpt>
      <trkpt lat="45.08864" lon="5.11646">
        <ele>195.6</ele>
        <time>2022-10-16T13:59:33.000Z</time>
      </trkpt>
      <trkpt lat="45.08865" lon="5.11654">
        <ele>195.3</ele>
        <time>2022-10-16T13:59:34.000Z</time>
      </trkpt>
      <trkpt lat="45.08865" lon="5.11663">
        <ele>195.1</ele>
        <time>2022-10-16T13:59:35.000Z</time>
      </trkpt>
      <trkpt lat="45.08866" lon="5.11672">
        <ele>195</ele>
        <time>2022-10-16T13:59:36.000Z</time>
      </trkpt>
      <trkpt lat="45.08867" lon="5.11681">
        <ele>195.1</ele>
        <time>2022-10-16T13:59:37.000Z</time>
      </trkpt>
      <trkpt lat="45.08867" lon="5.11689">
        <ele>195.2</ele>
        <time>2022-10-16T13:59:38.000Z</time>
      </trkpt>
      <trkpt lat="45.08868" lon="5.11698">
        <ele>195.2</ele>
        <time>2022-10-16T13:59:39.000Z</time>
      </trkpt>
      <trkpt lat="45.08868" lon="5.11707">
        <ele>195.1</ele>
        <time>2022-10-16T13:59:40.000Z</time>
      </trkpt>
      <trkpt lat="45.08869" lon="5.11715">
        <ele>195.1</ele>
        <time>2022-10-16T13:59:41.000Z</time>
      </trkpt>
      <trkpt lat="45.08869" lon="5.11723">
        <ele>195</ele>
        <time>2022-10-16T13:59:42.000Z</time>
      </trkpt>
      <trkpt lat="45.0887" lon="5.11731">
        <ele>195</ele>
        <time>2022-10-16T13:59:43.000Z</time>
      </trkpt>
      <trkpt lat="45.08871" lon="5.11739">
        <ele>195</ele>
        <time>2022-10-16T13:59:44.000Z</time>
      </trkpt>
      <trkpt lat="45.08871" lon="5.11747">
        <ele>195</ele>
        <time>2022-10-16T13:59:45.000Z</time>
      </trkpt>
      <trkpt lat="45.08872" lon="5.11755">
        <ele>195</ele>
        <time>2022-10-16T13:59:46.000Z</time>
      </trkpt>
      <trkpt lat="45.08872" lon="5.11763">
        <ele>195</ele>
        <time>2022-10-16T13:59:47.000Z</time>
      </trkpt>
      <trkpt lat="45.08873" lon="5.11772">
        <ele>195</ele>
        <time>2022-10-16T13:59:48.000Z</time>
      </trkpt>
      <trkpt lat="45.08874" lon="5.1178">
        <ele>195</ele>
        <time>2022-10-16T13:59:49.000Z</time>
      </trkpt>
      <trkpt lat="45.08874" lon="5.11789">
        <ele>195</ele>
        <time>2022-10-16T13:59:50.000Z</time>
      </trkpt>
      <trkpt lat="45.08875" lon="5.11798">
        <ele>195</ele>
        <time>2022-10-16T13:59:51.000Z</time>
      </trkpt>
      <trkpt lat="45.08875" lon="5.11806">
        <ele>195</ele>
        <time>2022-10-16T13:59:52.000Z</time>
      </trkpt>
      <trkpt lat="45.08876" lon="5.11815">
        <ele>195.2</ele>
        <time>2022-10-16T13:59:53.000Z</time>
      </trkpt>
      <trkpt lat="45.08877" lon="5.11824">
        <ele>195.4</ele>
        <time>2022-10-16T13:59:54.000Z</time>
      </trkpt>
      <trkpt lat="45.08877" lon="5.11833">
        <ele>195.6</ele>
        <time>2022-10-16T13:59:55.000Z</time>
      </trkpt>
      <trkpt lat="45.08878" lon="5.11842">
        <ele>195.6</ele>
        <time>2022-10-16T13:59:56.000Z</time>
      </trkpt>
      <trkpt lat="45.08879" lon="5.11851">
        <ele>195.6</ele>
        <time>2022-10-16T13:59:57.000Z</time>
      </trkpt>
      <trkpt lat="45.08879" lon="5.1186">
        <ele>195.7</ele>
        <time>2022-10-16T13:59:58.000Z</time>
      </trkpt>
      <trkpt lat="45.0888" lon="5.11869">
        <ele>195.7</ele>
        <time>2022-10-16T13:59:59.000Z</time>
      </trkpt>
      <trkpt lat="45.08881" lon="5.11878">
        <ele>195.7</ele>
        <time>2022-10-16T14:00:00.000Z</time>
      </trkpt>
      <trkpt lat="45.08881" lon="5.11887">
        <ele>195.7</ele>
        <time>2022-10-16T14:00:01.000Z</time>
      </trkpt>
      <trkpt lat="45.08882" lon="5.11896">
        <ele>196</ele>
        <time>2022-10-16T14:00:02.000Z</time>
      </trkpt>
      <trkpt lat="45.08883" lon="5.11905">
        <ele>196.4</ele>
        <time>2022-10-16T14:00:03.000Z</time>
      </trkpt>
      <trkpt lat="45.08884" lon="5.11914">
        <ele>196.7</ele>
        <time>2022-10-16T14:00:04.000Z</time>
      </trkpt>
      <trkpt lat="45.08885" lon="5.11924">
        <ele>196.8</ele>
        <time>2022-10-16T14:00:05.000Z</time>
      </trkpt>
      <trkpt lat="45.08886" lon="5.11933">
        <ele>196.9</ele>
        <time>2022-10-16T14:00:06.000Z</time>
      </trkpt>
      <trkpt lat="45.08886" lon="5.11942">
        <ele>196.9</ele>
        <time>2022-10-16T14:00:07.000Z</time>
      </trkpt>
      <trkpt lat="45.08887" lon="5.11952">
        <ele>197.2</ele>
        <time>2022-10-16T14:00:08.000Z</time>
      </trkpt>
      <trkpt lat="45.08888" lon="5.11961">
        <ele>197.5</ele>
        <time>2022-10-16T14:00:09.000Z</time>
      </trkpt>
      <trkpt lat="45.08888" lon="5.1197">
        <ele>197.9</ele>
        <time>2022-10-16T14:00:10.000Z</time>
      </trkpt>
      <trkpt lat="45.08889" lon="5.11979">
        <ele>197.7</ele>
        <time>2022-10-16T14:00:11.000Z</time>
      </trkpt>
      <trkpt lat="45.0889" lon="5.11988">
        <ele>197.4</ele>
        <time>2022-10-16T14:00:12.000Z</time>
      </trkpt>
      <trkpt lat="45.08891" lon="5.11997">
        <ele>197</ele>
        <time>2022-10-16T14:00:13.000Z</time>
      </trkpt>
      <trkpt lat="45.08892" lon="5.12004">
        <ele>196.9</ele>
        <time>2022-10-16T14:00:14.000Z</time>
      </trkpt>
      <trkpt lat="45.08893" lon="5.12012">
        <ele>196.9</ele>
        <time>2022-10-16T14:00:15.000Z</time>
      </trkpt>
      <trkpt lat="45.08893" lon="5.12019">
        <ele>196.9</ele>
        <time>2022-10-16T14:00:16.000Z</time>
      </trkpt>
      <trkpt lat="45.08893" lon="5.12027">
        <ele>196.9</ele>
        <time>2022-10-16T14:00:17.000Z</time>
      </trkpt>
      <trkpt lat="45.08893" lon="5.12034">
        <ele>196.9</ele>
        <time>2022-10-16T14:00:18.000Z</time>
      </trkpt>
      <trkpt lat="45.08894" lon="5.12041">
        <ele>196.9</ele>
        <time>2022-10-16T14:00:19.000Z</time>
      </trkpt>
      <trkpt lat="45.08895" lon="5.12049">
        <ele>197</ele>
        <time>2022-10-16T14:00:20.000Z</time>
      </trkpt>
      <trkpt lat="45.08895" lon="5.12056">
        <ele>197</ele>
        <time>2022-10-16T14:00:21.000Z</time>
      </trkpt>
      <trkpt lat="45.08896" lon="5.12064">
        <ele>197</ele>
        <time>2022-10-16T14:00:22.000Z</time>
      </trkpt>
      <trkpt lat="45.08896" lon="5.12072">
        <ele>197</ele>
        <time>2022-10-16T14:00:23.000Z</time>
      </trkpt>
      <trkpt lat="45.08897" lon="5.1208">
        <ele>197</ele>
        <time>2022-10-16T14:00:24.000Z</time>
      </trkpt>
      <trkpt lat="45.08897" lon="5.12087">
        <ele>197</ele>
        <time>2022-10-16T14:00:25.000Z</time>
      </trkpt>
      <trkpt lat="45.08898" lon="5.12095">
        <ele>197</ele>
        <time>2022-10-16T14:00:26.000Z</time>
      </trkpt>
      <trkpt lat="45.08898" lon="5.12103">
        <ele>197</ele>
        <time>2022-10-16T14:00:27.000Z</time>
      </trkpt>
      <trkpt lat="45.08899" lon="5.12111">
        <ele>197</ele>
        <time>2022-10-16T14:00:28.000Z</time>
      </trkpt>
      <trkpt lat="45.08899" lon="5.12119">
        <ele>197</ele>
        <time>2022-10-16T14:00:29.000Z</time>
      </trkpt>
      <trkpt lat="45.089" lon="5.12127">
        <ele>197</ele>
        <time>2022-10-16T14:00:30.000Z</time>
      </trkpt>
      <trkpt lat="45.089" lon="5.12136">
        <ele>197</ele>
        <time>2022-10-16T14:00:31.000Z</time>
      </trkpt>
      <trkpt lat="45.089" lon="5.12145">
        <ele>197.1</ele>
        <time>2022-10-16T14:00:32.000Z</time>
      </trkpt>
      <trkpt lat="45.08901" lon="5.12153">
        <ele>197.2</ele>
        <time>2022-10-16T14:00:33.000Z</time>
      </trkpt>
      <trkpt lat="45.08901" lon="5.12162">
        <ele>197.4</ele>
        <time>2022-10-16T14:00:34.000Z</time>
      </trkpt>
      <trkpt lat="45.08902" lon="5.1217">
        <ele>197.5</ele>
        <time>2022-10-16T14:00:35.000Z</time>
      </trkpt>
      <trkpt lat="45.08902" lon="5.12178">
        <ele>197.7</ele>
        <time>2022-10-16T14:00:36.000Z</time>
      </trkpt>
      <trkpt lat="45.08903" lon="5.12187">
        <ele>197.8</ele>
        <time>2022-10-16T14:00:37.000Z</time>
      </trkpt>
      <trkpt lat="45.08903" lon="5.12195">
        <ele>198</ele>
        <time>2022-10-16T14:00:38.000Z</time>
      </trkpt>
      <trkpt lat="45.08904" lon="5.12203">
        <ele>198.1</ele>
        <time>2022-10-16T14:00:39.000Z</time>
      </trkpt>
      <trkpt lat="45.08904" lon="5.12211">
        <ele>198.1</ele>
        <time>2022-10-16T14:00:40.000Z</time>
      </trkpt>
      <trkpt lat="45.08904" lon="5.1222">
        <ele>198.1</ele>
        <time>2022-10-16T14:00:41.000Z</time>
      </trkpt>
      <trkpt lat="45.08905" lon="5.12228">
        <ele>198.3</ele>
        <time>2022-10-16T14:00:42.000Z</time>
      </trkpt>
      <trkpt lat="45.08905" lon="5.12236">
        <ele>198.6</ele>
        <time>2022-10-16T14:00:43.000Z</time>
      </trkpt>
      <trkpt lat="45.08905" lon="5.12244">
        <ele>199</ele>
        <time>2022-10-16T14:00:44.000Z</time>
      </trkpt>
      <trkpt lat="45.08906" lon="5.12252">
        <ele>199.2</ele>
        <time>2022-10-16T14:00:45.000Z</time>
      </trkpt>
      <trkpt lat="45.08906" lon="5.1226">
        <ele>199.2</ele>
        <time>2022-10-16T14:00:46.000Z</time>
      </trkpt>
      <trkpt lat="45.08906" lon="5.12268">
        <ele>199.2</ele>
        <time>2022-10-16T14:00:47.000Z</time>
      </trkpt>
      <trkpt lat="45.08907" lon="5.12276">
        <ele>199.3</ele>
        <time>2022-10-16T14:00:48.000Z</time>
      </trkpt>
      <trkpt lat="45.08907" lon="5.12284">
        <ele>199.4</ele>
        <time>2022-10-16T14:00:49.000Z</time>
      </trkpt>
      <trkpt lat="45.08907" lon="5.12292">
        <ele>199.5</ele>
        <time>2022-10-16T14:00:50.000Z</time>
      </trkpt>
      <trkpt lat="45.08908" lon="5.123">
        <ele>199.6</ele>
        <time>2022-10-16T14:00:51.000Z</time>
      </trkpt>
      <trkpt lat="45.08908" lon="5.12308">
        <ele>199.7</ele>
        <time>2022-10-16T14:00:52.000Z</time>
      </trkpt>
      <trkpt lat="45.08909" lon="5.12316">
        <ele>199.7</ele>
        <time>2022-10-16T14:00:53.000Z</time>
      </trkpt>
      <trkpt lat="45.08909" lon="5.12323">
        <ele>199.7</ele>
        <time>2022-10-16T14:00:54.000Z</time>
      </trkpt>
      <trkpt lat="45.0891" lon="5.12331">
        <ele>199.7</ele>
        <time>2022-10-16T14:00:55.000Z</time>
      </trkpt>
      <trkpt lat="45.0891" lon="5.12339">
        <ele>200</ele>
        <time>2022-10-16T14:00:56.000Z</time>
      </trkpt>
      <trkpt lat="45.0891" lon="5.12347">
        <ele>200.3</ele>
        <time>2022-10-16T14:00:57.000Z</time>
      </trkpt>
      <trkpt lat="45.08911" lon="5.12355">
        <ele>200.6</ele>
        <time>2022-10-16T14:00:58.000Z</time>
      </trkpt>
      <trkpt lat="45.08911" lon="5.12363">
        <ele>200.9</ele>
        <time>2022-10-16T14:00:59.000Z</time>
      </trkpt>
      <trkpt lat="45.08912" lon="5.12371">
        <ele>201.2</ele>
        <time>2022-10-16T14:01:00.000Z</time>
      </trkpt>
      <trkpt lat="45.08912" lon="5.12379">
        <ele>201.5</ele>
        <time>2022-10-16T14:01:01.000Z</time>
      </trkpt>
      <trkpt lat="45.08912" lon="5.12387">
        <ele>201.8</ele>
        <time>2022-10-16T14:01:02.000Z</time>
      </trkpt>
      <trkpt lat="45.08913" lon="5.12394">
        <ele>202.1</ele>
        <time>2022-10-16T14:01:03.000Z</time>
      </trkpt>
      <trkpt lat="45.08913" lon="5.12402">
        <ele>202.4</ele>
        <time>2022-10-16T14:01:04.000Z</time>
      </trkpt>
      <trkpt lat="45.08914" lon="5.12409">
        <ele>202.7</ele>
        <time>2022-10-16T14:01:05.000Z</time>
      </trkpt>
      <trkpt lat="45.08914" lon="5.12417">
        <ele>203</ele>
        <time>2022-10-16T14:01:06.000Z</time>
      </trkpt>
      <trkpt lat="45.08914" lon="5.12424">
        <ele>203.2</ele>
        <time>2022-10-16T14:01:07.000Z</time>
      </trkpt>
      <trkpt lat="45.08914" lon="5.12431">
        <ele>203.4</ele>
        <time>2022-10-16T14:01:08.000Z</time>
      </trkpt>
      <trkpt lat="45.08914" lon="5.12438">
        <ele>203.6</ele>
        <time>2022-10-16T14:01:09.000Z</time>
      </trkpt>
      <trkpt lat="45.08914" lon="5.12445">
        <ele>203.8</ele>
        <time>2022-10-16T14:01:10.000Z</time>
      </trkpt>
      <trkpt lat="45.08914" lon="5.12451">
        <ele>203.8</ele>
        <time>2022-10-16T14:01:11.000Z</time>
      </trkpt>
      <trkpt lat="45.08914" lon="5.12458">
        <ele>203.8</ele>
        <time>2022-10-16T14:01:12.000Z</time>
      </trkpt>
      <trkpt lat="45.08914" lon="5.12465">
        <ele>203.8</ele>
        <time>2022-10-16T14:01:13.000Z</time>
      </trkpt>
      <trkpt lat="45.08914" lon="5.12471">
        <ele>203.8</ele>
        <time>2022-10-16T14:01:14.000Z</time>
      </trkpt>
      <trkpt lat="45.08913" lon="5.12478">
        <ele>203.7</ele>
        <time>2022-10-16T14:01:15.000Z</time>
      </trkpt>
      <trkpt lat="45.08912" lon="5.12485">
        <ele>203.7</ele>
        <time>2022-10-16T14:01:16.000Z</time>
      </trkpt>
      <trkpt lat="45.08911" lon="5.12492">
        <ele>203.6</ele>
        <time>2022-10-16T14:01:17.000Z</time>
      </trkpt>
      <trkpt lat="45.0891" lon="5.12499">
        <ele>203.5</ele>
        <time>2022-10-16T14:01:18.000Z</time>
      </trkpt>
      <trkpt lat="45.08909" lon="5.12505">
        <ele>203.6</ele>
        <time>2022-10-16T14:01:19.000Z</time>
      </trkpt>
      <trkpt lat="45.08907" lon="5.12512">
        <ele>203.7</ele>
        <time>2022-10-16T14:01:20.000Z</time>
      </trkpt>
      <trkpt lat="45.08906" lon="5.12519">
        <ele>203.9</ele>
        <time>2022-10-16T14:01:21.000Z</time>
      </trkpt>
      <trkpt lat="45.08904" lon="5.12526">
        <ele>204</ele>
        <time>2022-10-16T14:01:22.000Z</time>
      </trkpt>
      <trkpt lat="45.08903" lon="5.12532">
        <ele>204</ele>
        <time>2022-10-16T14:01:23.000Z</time>
      </trkpt>
      <trkpt lat="45.08901" lon="5.12539">
        <ele>203.9</ele>
        <time>2022-10-16T14:01:24.000Z</time>
      </trkpt>
      <trkpt lat="45.08899" lon="5.12545">
        <ele>203.7</ele>
        <time>2022-10-16T14:01:25.000Z</time>
      </trkpt>
      <trkpt lat="45.08897" lon="5.1255">
        <ele>203.6</ele>
        <time>2022-10-16T14:01:26.000Z</time>
      </trkpt>
      <trkpt lat="45.08896" lon="5.12556">
        <ele>203.5</ele>
        <time>2022-10-16T14:01:27.000Z</time>
      </trkpt>
      <trkpt lat="45.08894" lon="5.12561">
        <ele>203.7</ele>
        <time>2022-10-16T14:01:28.000Z</time>
      </trkpt>
      <trkpt lat="45.08892" lon="5.12566">
        <ele>203.9</ele>
        <time>2022-10-16T14:01:29.000Z</time>
      </trkpt>
      <trkpt lat="45.08891" lon="5.12572">
        <ele>204.2</ele>
        <time>2022-10-16T14:01:30.000Z</time>
      </trkpt>
      <trkpt lat="45.08888" lon="5.12577">
        <ele>204.5</ele>
        <time>2022-10-16T14:01:31.000Z</time>
      </trkpt>
      <trkpt lat="45.08886" lon="5.12583">
        <ele>204.7</ele>
        <time>2022-10-16T14:01:32.000Z</time>
      </trkpt>
      <trkpt lat="45.08884" lon="5.12589">
        <ele>204.5</ele>
        <time>2022-10-16T14:01:33.000Z</time>
      </trkpt>
      <trkpt lat="45.08882" lon="5.12595">
        <ele>204.3</ele>
        <time>2022-10-16T14:01:34.000Z</time>
      </trkpt>
      <trkpt lat="45.0888" lon="5.12602">
        <ele>204</ele>
        <time>2022-10-16T14:01:35.000Z</time>
      </trkpt>
      <trkpt lat="45.08878" lon="5.12609">
        <ele>203.8</ele>
        <time>2022-10-16T14:01:36.000Z</time>
      </trkpt>
      <trkpt lat="45.08876" lon="5.12616">
        <ele>203.7</ele>
        <time>2022-10-16T14:01:37.000Z</time>
      </trkpt>
      <trkpt lat="45.08873" lon="5.12624">
        <ele>203.8</ele>
        <time>2022-10-16T14:01:38.000Z</time>
      </trkpt>
      <trkpt lat="45.08871" lon="5.12631">
        <ele>203.8</ele>
        <time>2022-10-16T14:01:39.000Z</time>
      </trkpt>
      <trkpt lat="45.08869" lon="5.1264">
        <ele>203.9</ele>
        <time>2022-10-16T14:01:40.000Z</time>
      </trkpt>
      <trkpt lat="45.08868" lon="5.12648">
        <ele>204</ele>
        <time>2022-10-16T14:01:41.000Z</time>
      </trkpt>
      <trkpt lat="45.08866" lon="5.12656">
        <ele>204</ele>
        <time>2022-10-16T14:01:42.000Z</time>
      </trkpt>
      <trkpt lat="45.08864" lon="5.12664">
        <ele>204.1</ele>
        <time>2022-10-16T14:01:43.000Z</time>
      </trkpt>
      <trkpt lat="45.08861" lon="5.12671">
        <ele>204.2</ele>
        <time>2022-10-16T14:01:44.000Z</time>
      </trkpt>
      <trkpt lat="45.08858" lon="5.12679">
        <ele>204.2</ele>
        <time>2022-10-16T14:01:45.000Z</time>
      </trkpt>
      <trkpt lat="45.08856" lon="5.12687">
        <ele>204.2</ele>
        <time>2022-10-16T14:01:46.000Z</time>
      </trkpt>
      <trkpt lat="45.08853" lon="5.12694">
        <ele>204.1</ele>
        <time>2022-10-16T14:01:47.000Z</time>
      </trkpt>
      <trkpt lat="45.08851" lon="5.12702">
        <ele>204.2</ele>
        <time>2022-10-16T14:01:48.000Z</time>
      </trkpt>
      <trkpt lat="45.08849" lon="5.1271">
        <ele>204.3</ele>
        <time>2022-10-16T14:01:49.000Z</time>
      </trkpt>
      <trkpt lat="45.08846" lon="5.12718">
        <ele>204.2</ele>
        <time>2022-10-16T14:01:50.000Z</time>
      </trkpt>
      <trkpt lat="45.08843" lon="5.12725">
        <ele>204.1</ele>
        <time>2022-10-16T14:01:51.000Z</time>
      </trkpt>
      <trkpt lat="45.08841" lon="5.12733">
        <ele>203.8</ele>
        <time>2022-10-16T14:01:52.000Z</time>
      </trkpt>
      <trkpt lat="45.08839" lon="5.12741">
        <ele>203.6</ele>
        <time>2022-10-16T14:01:53.000Z</time>
      </trkpt>
      <trkpt lat="45.08837" lon="5.12748">
        <ele>203.3</ele>
        <time>2022-10-16T14:01:54.000Z</time>
      </trkpt>
      <trkpt lat="45.08835" lon="5.12756">
        <ele>203.3</ele>
        <time>2022-10-16T14:01:55.000Z</time>
      </trkpt>
      <trkpt lat="45.08833" lon="5.12764">
        <ele>203.4</ele>
        <time>2022-10-16T14:01:56.000Z</time>
      </trkpt>
      <trkpt lat="45.08831" lon="5.12771">
        <ele>203.5</ele>
        <time>2022-10-16T14:01:57.000Z</time>
      </trkpt>
      <trkpt lat="45.08829" lon="5.12778">
        <ele>203.5</ele>
        <time>2022-10-16T14:01:58.000Z</time>
      </trkpt>
      <trkpt lat="45.08827" lon="5.12786">
        <ele>203.6</ele>
        <time>2022-10-16T14:01:59.000Z</time>
      </trkpt>
      <trkpt lat="45.08826" lon="5.12793">
        <ele>203.5</ele>
        <time>2022-10-16T14:02:00.000Z</time>
      </trkpt>
      <trkpt lat="45.08824" lon="5.128">
        <ele>203.6</ele>
        <time>2022-10-16T14:02:01.000Z</time>
      </trkpt>
      <trkpt lat="45.08823" lon="5.12808">
        <ele>203.4</ele>
        <time>2022-10-16T14:02:02.000Z</time>
      </trkpt>
      <trkpt lat="45.08821" lon="5.12815">
        <ele>203.1</ele>
        <time>2022-10-16T14:02:03.000Z</time>
      </trkpt>
      <trkpt lat="45.0882" lon="5.12822">
        <ele>202.7</ele>
        <time>2022-10-16T14:02:04.000Z</time>
      </trkpt>
      <trkpt lat="45.08818" lon="5.1283">
        <ele>202.4</ele>
        <time>2022-10-16T14:02:05.000Z</time>
      </trkpt>
      <trkpt lat="45.08817" lon="5.12838">
        <ele>202.2</ele>
        <time>2022-10-16T14:02:06.000Z</time>
      </trkpt>
      <trkpt lat="45.08815" lon="5.12845">
        <ele>202.1</ele>
        <time>2022-10-16T14:02:07.000Z</time>
      </trkpt>
      <trkpt lat="45.08813" lon="5.12853">
        <ele>202</ele>
        <time>2022-10-16T14:02:08.000Z</time>
      </trkpt>
      <trkpt lat="45.08812" lon="5.12861">
        <ele>201.9</ele>
        <time>2022-10-16T14:02:09.000Z</time>
      </trkpt>
      <trkpt lat="45.0881" lon="5.12869">
        <ele>201.6</ele>
        <time>2022-10-16T14:02:10.000Z</time>
      </trkpt>
      <trkpt lat="45.08809" lon="5.12876">
        <ele>201.5</ele>
        <time>2022-10-16T14:02:11.000Z</time>
      </trkpt>
      <trkpt lat="45.08808" lon="5.12884">
        <ele>201.4</ele>
        <time>2022-10-16T14:02:12.000Z</time>
      </trkpt>
      <trkpt lat="45.08807" lon="5.12892">
        <ele>201.2</ele>
        <time>2022-10-16T14:02:13.000Z</time>
      </trkpt>
      <trkpt lat="45.08806" lon="5.12901">
        <ele>201.1</ele>
        <time>2022-10-16T14:02:14.000Z</time>
      </trkpt>
      <trkpt lat="45.08805" lon="5.12909">
        <ele>201</ele>
        <time>2022-10-16T14:02:15.000Z</time>
      </trkpt>
      <trkpt lat="45.08804" lon="5.12917">
        <ele>200.9</ele>
        <time>2022-10-16T14:02:16.000Z</time>
      </trkpt>
      <trkpt lat="45.08802" lon="5.12926">
        <ele>200.5</ele>
        <time>2022-10-16T14:02:17.000Z</time>
      </trkpt>
      <trkpt lat="45.088" lon="5.12934">
        <ele>200.1</ele>
        <time>2022-10-16T14:02:18.000Z</time>
      </trkpt>
      <trkpt lat="45.08798" lon="5.12943">
        <ele>199.8</ele>
        <time>2022-10-16T14:02:19.000Z</time>
      </trkpt>
      <trkpt lat="45.08797" lon="5.12952">
        <ele>199.9</ele>
        <time>2022-10-16T14:02:20.000Z</time>
      </trkpt>
      <trkpt lat="45.08796" lon="5.12961">
        <ele>200.1</ele>
        <time>2022-10-16T14:02:21.000Z</time>
      </trkpt>
      <trkpt lat="45.08797" lon="5.1297">
        <ele>200.3</ele>
        <time>2022-10-16T14:02:22.000Z</time>
      </trkpt>
      <trkpt lat="45.08798" lon="5.12979">
        <ele>200.3</ele>
        <time>2022-10-16T14:02:23.000Z</time>
      </trkpt>
      <trkpt lat="45.08798" lon="5.12988">
        <ele>200</ele>
        <time>2022-10-16T14:02:24.000Z</time>
      </trkpt>
      <trkpt lat="45.08798" lon="5.12997">
        <ele>199.8</ele>
        <time>2022-10-16T14:02:25.000Z</time>
      </trkpt>
      <trkpt lat="45.08798" lon="5.13005">
        <ele>199.6</ele>
        <time>2022-10-16T14:02:26.000Z</time>
      </trkpt>
      <trkpt lat="45.08798" lon="5.13013">
        <ele>199.4</ele>
        <time>2022-10-16T14:02:27.000Z</time>
      </trkpt>
      <trkpt lat="45.08799" lon="5.13022">
        <ele>199.2</ele>
        <time>2022-10-16T14:02:28.000Z</time>
      </trkpt>
      <trkpt lat="45.088" lon="5.13029">
        <ele>199</ele>
        <time>2022-10-16T14:02:29.000Z</time>
      </trkpt>
      <trkpt lat="45.088" lon="5.13037">
        <ele>198.9</ele>
        <time>2022-10-16T14:02:30.000Z</time>
      </trkpt>
      <trkpt lat="45.08798" lon="5.13046">
        <ele>198.8</ele>
        <time>2022-10-16T14:02:31.000Z</time>
      </trkpt>
      <trkpt lat="45.08796" lon="5.13055">
        <ele>198.7</ele>
        <time>2022-10-16T14:02:32.000Z</time>
      </trkpt>
      <trkpt lat="45.08795" lon="5.13063">
        <ele>198.7</ele>
        <time>2022-10-16T14:02:33.000Z</time>
      </trkpt>
      <trkpt lat="45.08794" lon="5.13071">
        <ele>198.8</ele>
        <time>2022-10-16T14:02:34.000Z</time>
      </trkpt>
      <trkpt lat="45.08793" lon="5.13078">
        <ele>198.9</ele>
        <time>2022-10-16T14:02:35.000Z</time>
      </trkpt>
      <trkpt lat="45.08792" lon="5.13086">
        <ele>199</ele>
        <time>2022-10-16T14:02:36.000Z</time>
      </trkpt>
      <trkpt lat="45.0879" lon="5.13093">
        <ele>199.1</ele>
        <time>2022-10-16T14:02:37.000Z</time>
      </trkpt>
      <trkpt lat="45.08788" lon="5.13099">
        <ele>199.2</ele>
        <time>2022-10-16T14:02:38.000Z</time>
      </trkpt>
      <trkpt lat="45.08786" lon="5.13104">
        <ele>199.2</ele>
        <time>2022-10-16T14:02:39.000Z</time>
      </trkpt>
      <trkpt lat="45.08784" lon="5.13111">
        <ele>199.2</ele>
        <time>2022-10-16T14:02:40.000Z</time>
      </trkpt>
      <trkpt lat="45.08782" lon="5.13117">
        <ele>199.2</ele>
        <time>2022-10-16T14:02:41.000Z</time>
      </trkpt>
      <trkpt lat="45.08782" lon="5.13123">
        <ele>199.1</ele>
        <time>2022-10-16T14:02:42.000Z</time>
      </trkpt>
      <trkpt lat="45.08781" lon="5.13129">
        <ele>199.1</ele>
        <time>2022-10-16T14:02:43.000Z</time>
      </trkpt>
      <trkpt lat="45.0878" lon="5.13135">
        <ele>199.1</ele>
        <time>2022-10-16T14:02:44.000Z</time>
      </trkpt>
      <trkpt lat="45.08778" lon="5.13141">
        <ele>199.1</ele>
        <time>2022-10-16T14:02:45.000Z</time>
      </trkpt>
      <trkpt lat="45.08776" lon="5.13146">
        <ele>199.2</ele>
        <time>2022-10-16T14:02:46.000Z</time>
      </trkpt>
      <trkpt lat="45.08774" lon="5.13151">
        <ele>199.4</ele>
        <time>2022-10-16T14:02:47.000Z</time>
      </trkpt>
      <trkpt lat="45.08771" lon="5.13156">
        <ele>199.5</ele>
        <time>2022-10-16T14:02:48.000Z</time>
      </trkpt>
      <trkpt lat="45.08768" lon="5.13161">
        <ele>199.5</ele>
        <time>2022-10-16T14:02:49.000Z</time>
      </trkpt>
      <trkpt lat="45.08764" lon="5.13164">
        <ele>199.5</ele>
        <time>2022-10-16T14:02:50.000Z</time>
      </trkpt>
      <trkpt lat="45.08763" lon="5.1317">
        <ele>199.5</ele>
        <time>2022-10-16T14:02:51.000Z</time>
      </trkpt>
      <trkpt lat="45.08759" lon="5.13176">
        <ele>199.3</ele>
        <time>2022-10-16T14:02:52.000Z</time>
      </trkpt>
      <trkpt lat="45.08755" lon="5.13182">
        <ele>199.2</ele>
        <time>2022-10-16T14:02:53.000Z</time>
      </trkpt>
      <trkpt lat="45.08752" lon="5.13189">
        <ele>199.1</ele>
        <time>2022-10-16T14:02:54.000Z</time>
      </trkpt>
      <trkpt lat="45.08749" lon="5.13195">
        <ele>199</ele>
        <time>2022-10-16T14:02:55.000Z</time>
      </trkpt>
      <trkpt lat="45.08745" lon="5.13201">
        <ele>199</ele>
        <time>2022-10-16T14:02:56.000Z</time>
      </trkpt>
      <trkpt lat="45.08742" lon="5.13208">
        <ele>199</ele>
        <time>2022-10-16T14:02:57.000Z</time>
      </trkpt>
      <trkpt lat="45.08739" lon="5.13215">
        <ele>199</ele>
        <time>2022-10-16T14:02:58.000Z</time>
      </trkpt>
      <trkpt lat="45.08736" lon="5.1322">
        <ele>199</ele>
        <time>2022-10-16T14:02:59.000Z</time>
      </trkpt>
      <trkpt lat="45.08732" lon="5.13228">
        <ele>199.1</ele>
        <time>2022-10-16T14:03:00.000Z</time>
      </trkpt>
      <trkpt lat="45.08729" lon="5.13236">
        <ele>199.1</ele>
        <time>2022-10-16T14:03:01.000Z</time>
      </trkpt>
      <trkpt lat="45.08726" lon="5.13243">
        <ele>199.1</ele>
        <time>2022-10-16T14:03:02.000Z</time>
      </trkpt>
      <trkpt lat="45.08723" lon="5.13251">
        <ele>199</ele>
        <time>2022-10-16T14:03:03.000Z</time>
      </trkpt>
      <trkpt lat="45.0872" lon="5.13259">
        <ele>199</ele>
        <time>2022-10-16T14:03:04.000Z</time>
      </trkpt>
      <trkpt lat="45.08717" lon="5.13268">
        <ele>199</ele>
        <time>2022-10-16T14:03:05.000Z</time>
      </trkpt>
      <trkpt lat="45.08714" lon="5.13276">
        <ele>199</ele>
        <time>2022-10-16T14:03:06.000Z</time>
      </trkpt>
      <trkpt lat="45.08711" lon="5.13283">
        <ele>199.1</ele>
        <time>2022-10-16T14:03:07.000Z</time>
      </trkpt>
      <trkpt lat="45.08707" lon="5.1329">
        <ele>199.2</ele>
        <time>2022-10-16T14:03:08.000Z</time>
      </trkpt>
      <trkpt lat="45.08703" lon="5.13299">
        <ele>199.2</ele>
        <time>2022-10-16T14:03:09.000Z</time>
      </trkpt>
      <trkpt lat="45.08699" lon="5.13308">
        <ele>199.2</ele>
        <time>2022-10-16T14:03:10.000Z</time>
      </trkpt>
      <trkpt lat="45.08696" lon="5.13314">
        <ele>199.4</ele>
        <time>2022-10-16T14:03:11.000Z</time>
      </trkpt>
      <trkpt lat="45.08693" lon="5.13321">
        <ele>199.5</ele>
        <time>2022-10-16T14:03:12.000Z</time>
      </trkpt>
      <trkpt lat="45.0869" lon="5.13328">
        <ele>199.7</ele>
        <time>2022-10-16T14:03:13.000Z</time>
      </trkpt>
      <trkpt lat="45.08687" lon="5.13335">
        <ele>199.8</ele>
        <time>2022-10-16T14:03:14.000Z</time>
      </trkpt>
      <trkpt lat="45.08684" lon="5.13342">
        <ele>199.7</ele>
        <time>2022-10-16T14:03:15.000Z</time>
      </trkpt>
      <trkpt lat="45.08681" lon="5.13349">
        <ele>199.8</ele>
        <time>2022-10-16T14:03:16.000Z</time>
      </trkpt>
      <trkpt lat="45.08678" lon="5.13356">
        <ele>199.9</ele>
        <time>2022-10-16T14:03:17.000Z</time>
      </trkpt>
      <trkpt lat="45.08675" lon="5.13362">
        <ele>200</ele>
        <time>2022-10-16T14:03:18.000Z</time>
      </trkpt>
      <trkpt lat="45.08671" lon="5.13369">
        <ele>200</ele>
        <time>2022-10-16T14:03:19.000Z</time>
      </trkpt>
      <trkpt lat="45.08669" lon="5.13377">
        <ele>200</ele>
        <time>2022-10-16T14:03:20.000Z</time>
      </trkpt>
      <trkpt lat="45.08666" lon="5.13383">
        <ele>200</ele>
        <time>2022-10-16T14:03:21.000Z</time>
      </trkpt>
      <trkpt lat="45.08664" lon="5.1339">
        <ele>199.9</ele>
        <time>2022-10-16T14:03:22.000Z</time>
      </trkpt>
      <trkpt lat="45.08662" lon="5.13397">
        <ele>199.8</ele>
        <time>2022-10-16T14:03:23.000Z</time>
      </trkpt>
      <trkpt lat="45.0866" lon="5.13403">
        <ele>199.8</ele>
        <time>2022-10-16T14:03:24.000Z</time>
      </trkpt>
      <trkpt lat="45.08657" lon="5.13409">
        <ele>199.7</ele>
        <time>2022-10-16T14:03:25.000Z</time>
      </trkpt>
      <trkpt lat="45.08655" lon="5.13416">
        <ele>199.6</ele>
        <time>2022-10-16T14:03:26.000Z</time>
      </trkpt>
      <trkpt lat="45.08653" lon="5.13422">
        <ele>199.6</ele>
        <time>2022-10-16T14:03:27.000Z</time>
      </trkpt>
      <trkpt lat="45.08651" lon="5.13428">
        <ele>199.7</ele>
        <time>2022-10-16T14:03:28.000Z</time>
      </trkpt>
      <trkpt lat="45.08649" lon="5.13434">
        <ele>199.8</ele>
        <time>2022-10-16T14:03:29.000Z</time>
      </trkpt>
      <trkpt lat="45.08647" lon="5.13439">
        <ele>199.9</ele>
        <time>2022-10-16T14:03:30.000Z</time>
      </trkpt>
      <trkpt lat="45.08644" lon="5.13445">
        <ele>200</ele>
        <time>2022-10-16T14:03:31.000Z</time>
      </trkpt>
      <trkpt lat="45.08642" lon="5.1345">
        <ele>200</ele>
        <time>2022-10-16T14:03:32.000Z</time>
      </trkpt>
      <trkpt lat="45.0864" lon="5.13454">
        <ele>200</ele>
        <time>2022-10-16T14:03:33.000Z</time>
      </trkpt>
      <trkpt lat="45.08637" lon="5.13459">
        <ele>200</ele>
        <time>2022-10-16T14:03:34.000Z</time>
      </trkpt>
      <trkpt lat="45.08633" lon="5.13463">
        <ele>199.9</ele>
        <time>2022-10-16T14:03:36.000Z</time>
      </trkpt>
      <trkpt lat="45.08629" lon="5.13467">
        <ele>199.9</ele>
        <time>2022-10-16T14:03:37.000Z</time>
      </trkpt>
      <trkpt lat="45.08627" lon="5.13472">
        <ele>200</ele>
        <time>2022-10-16T14:03:38.000Z</time>
      </trkpt>
      <trkpt lat="45.08625" lon="5.13478">
        <ele>199.8</ele>
        <time>2022-10-16T14:03:39.000Z</time>
      </trkpt>
      <trkpt lat="45.08624" lon="5.13483">
        <ele>199.6</ele>
        <time>2022-10-16T14:03:40.000Z</time>
      </trkpt>
      <trkpt lat="45.08623" lon="5.13489">
        <ele>199.4</ele>
        <time>2022-10-16T14:03:41.000Z</time>
      </trkpt>
      <trkpt lat="45.08621" lon="5.13495">
        <ele>199.2</ele>
        <time>2022-10-16T14:03:42.000Z</time>
      </trkpt>
      <trkpt lat="45.08618" lon="5.13502">
        <ele>199</ele>
        <time>2022-10-16T14:03:43.000Z</time>
      </trkpt>
      <trkpt lat="45.08615" lon="5.13509">
        <ele>199</ele>
        <time>2022-10-16T14:03:44.000Z</time>
      </trkpt>
      <trkpt lat="45.08612" lon="5.13517">
        <ele>199</ele>
        <time>2022-10-16T14:03:45.000Z</time>
      </trkpt>
      <trkpt lat="45.08609" lon="5.13524">
        <ele>198.9</ele>
        <time>2022-10-16T14:03:46.000Z</time>
      </trkpt>
      <trkpt lat="45.08605" lon="5.13532">
        <ele>198.8</ele>
        <time>2022-10-16T14:03:47.000Z</time>
      </trkpt>
      <trkpt lat="45.08602" lon="5.13539">
        <ele>198.8</ele>
        <time>2022-10-16T14:03:48.000Z</time>
      </trkpt>
      <trkpt lat="45.08599" lon="5.13547">
        <ele>198.9</ele>
        <time>2022-10-16T14:03:49.000Z</time>
      </trkpt>
      <trkpt lat="45.08596" lon="5.13554">
        <ele>199</ele>
        <time>2022-10-16T14:03:50.000Z</time>
      </trkpt>
      <trkpt lat="45.08593" lon="5.13561">
        <ele>199.1</ele>
        <time>2022-10-16T14:03:51.000Z</time>
      </trkpt>
      <trkpt lat="45.0859" lon="5.13569">
        <ele>199.4</ele>
        <time>2022-10-16T14:03:52.000Z</time>
      </trkpt>
      <trkpt lat="45.08587" lon="5.13575">
        <ele>199.6</ele>
        <time>2022-10-16T14:03:53.000Z</time>
      </trkpt>
      <trkpt lat="45.08583" lon="5.13581">
        <ele>199.9</ele>
        <time>2022-10-16T14:03:54.000Z</time>
      </trkpt>
      <trkpt lat="45.08579" lon="5.13588">
        <ele>199.7</ele>
        <time>2022-10-16T14:03:55.000Z</time>
      </trkpt>
      <trkpt lat="45.08575" lon="5.13594">
        <ele>199.5</ele>
        <time>2022-10-16T14:03:56.000Z</time>
      </trkpt>
      <trkpt lat="45.0857" lon="5.136">
        <ele>199.3</ele>
        <time>2022-10-16T14:03:57.000Z</time>
      </trkpt>
      <trkpt lat="45.08566" lon="5.13607">
        <ele>199.3</ele>
        <time>2022-10-16T14:03:58.000Z</time>
      </trkpt>
      <trkpt lat="45.08562" lon="5.13612">
        <ele>199.3</ele>
        <time>2022-10-16T14:03:59.000Z</time>
      </trkpt>
      <trkpt lat="45.08558" lon="5.13618">
        <ele>199.3</ele>
        <time>2022-10-16T14:04:00.000Z</time>
      </trkpt>
      <trkpt lat="45.08554" lon="5.13623">
        <ele>199.3</ele>
        <time>2022-10-16T14:04:01.000Z</time>
      </trkpt>
      <trkpt lat="45.0855" lon="5.13628">
        <ele>199.3</ele>
        <time>2022-10-16T14:04:02.000Z</time>
      </trkpt>
      <trkpt lat="45.08546" lon="5.13634">
        <ele>199.2</ele>
        <time>2022-10-16T14:04:03.000Z</time>
      </trkpt>
      <trkpt lat="45.08541" lon="5.13639">
        <ele>199</ele>
        <time>2022-10-16T14:04:04.000Z</time>
      </trkpt>
      <trkpt lat="45.08537" lon="5.13645">
        <ele>199.1</ele>
        <time>2022-10-16T14:04:05.000Z</time>
      </trkpt>
      <trkpt lat="45.08533" lon="5.1365">
        <ele>199.2</ele>
        <time>2022-10-16T14:04:06.000Z</time>
      </trkpt>
      <trkpt lat="45.08529" lon="5.13656">
        <ele>199.3</ele>
        <time>2022-10-16T14:04:07.000Z</time>
      </trkpt>
      <trkpt lat="45.08525" lon="5.13662">
        <ele>199.5</ele>
        <time>2022-10-16T14:04:08.000Z</time>
      </trkpt>
      <trkpt lat="45.08521" lon="5.13667">
        <ele>199.5</ele>
        <time>2022-10-16T14:04:09.000Z</time>
      </trkpt>
      <trkpt lat="45.08517" lon="5.13673">
        <ele>199.6</ele>
        <time>2022-10-16T14:04:10.000Z</time>
      </trkpt>
      <trkpt lat="45.08512" lon="5.13678">
        <ele>199.7</ele>
        <time>2022-10-16T14:04:11.000Z</time>
      </trkpt>
      <trkpt lat="45.08508" lon="5.13683">
        <ele>199.8</ele>
        <time>2022-10-16T14:04:12.000Z</time>
      </trkpt>
      <trkpt lat="45.08504" lon="5.13689">
        <ele>199.9</ele>
        <time>2022-10-16T14:04:13.000Z</time>
      </trkpt>
      <trkpt lat="45.085" lon="5.13695">
        <ele>200</ele>
        <time>2022-10-16T14:04:14.000Z</time>
      </trkpt>
      <trkpt lat="45.08495" lon="5.137">
        <ele>199.9</ele>
        <time>2022-10-16T14:04:15.000Z</time>
      </trkpt>
      <trkpt lat="45.08491" lon="5.13706">
        <ele>199.8</ele>
        <time>2022-10-16T14:04:16.000Z</time>
      </trkpt>
      <trkpt lat="45.08486" lon="5.13712">
        <ele>199.6</ele>
        <time>2022-10-16T14:04:17.000Z</time>
      </trkpt>
      <trkpt lat="45.08482" lon="5.13718">
        <ele>199.5</ele>
        <time>2022-10-16T14:04:18.000Z</time>
      </trkpt>
      <trkpt lat="45.08478" lon="5.13723">
        <ele>199.5</ele>
        <time>2022-10-16T14:04:19.000Z</time>
      </trkpt>
      <trkpt lat="45.08474" lon="5.13729">
        <ele>199.6</ele>
        <time>2022-10-16T14:04:20.000Z</time>
      </trkpt>
      <trkpt lat="45.0847" lon="5.13735">
        <ele>199.8</ele>
        <time>2022-10-16T14:04:21.000Z</time>
      </trkpt>
      <trkpt lat="45.08466" lon="5.1374">
        <ele>199.9</ele>
        <time>2022-10-16T14:04:22.000Z</time>
      </trkpt>
      <trkpt lat="45.08462" lon="5.13746">
        <ele>200</ele>
        <time>2022-10-16T14:04:23.000Z</time>
      </trkpt>
      <trkpt lat="45.08458" lon="5.13751">
        <ele>200</ele>
        <time>2022-10-16T14:04:24.000Z</time>
      </trkpt>
      <trkpt lat="45.08454" lon="5.13755">
        <ele>199.8</ele>
        <time>2022-10-16T14:04:25.000Z</time>
      </trkpt>
      <trkpt lat="45.08451" lon="5.13759">
        <ele>199.7</ele>
        <time>2022-10-16T14:04:26.000Z</time>
      </trkpt>
      <trkpt lat="45.08448" lon="5.13763">
        <ele>199.7</ele>
        <time>2022-10-16T14:04:27.000Z</time>
      </trkpt>
      <trkpt lat="45.08445" lon="5.13767">
        <ele>199.7</ele>
        <time>2022-10-16T14:04:28.000Z</time>
      </trkpt>
      <trkpt lat="45.08443" lon="5.13771">
        <ele>199.7</ele>
        <time>2022-10-16T14:04:29.000Z</time>
      </trkpt>
      <trkpt lat="45.08439" lon="5.13776">
        <ele>199.7</ele>
        <time>2022-10-16T14:04:30.000Z</time>
      </trkpt>
      <trkpt lat="45.08436" lon="5.1378">
        <ele>199.8</ele>
        <time>2022-10-16T14:04:31.000Z</time>
      </trkpt>
      <trkpt lat="45.08433" lon="5.13784">
        <ele>199.8</ele>
        <time>2022-10-16T14:04:32.000Z</time>
      </trkpt>
      <trkpt lat="45.08429" lon="5.13788">
        <ele>199.8</ele>
        <time>2022-10-16T14:04:33.000Z</time>
      </trkpt>
      <trkpt lat="45.08425" lon="5.13793">
        <ele>199.9</ele>
        <time>2022-10-16T14:04:34.000Z</time>
      </trkpt>
      <trkpt lat="45.08422" lon="5.13798">
        <ele>199.9</ele>
        <time>2022-10-16T14:04:35.000Z</time>
      </trkpt>
      <trkpt lat="45.08418" lon="5.13803">
        <ele>200</ele>
        <time>2022-10-16T14:04:36.000Z</time>
      </trkpt>
      <trkpt lat="45.08415" lon="5.13808">
        <ele>200</ele>
        <time>2022-10-16T14:04:37.000Z</time>
      </trkpt>
      <trkpt lat="45.08411" lon="5.13813">
        <ele>200</ele>
        <time>2022-10-16T14:04:38.000Z</time>
      </trkpt>
      <trkpt lat="45.08407" lon="5.13818">
        <ele>200.1</ele>
        <time>2022-10-16T14:04:39.000Z</time>
      </trkpt>
      <trkpt lat="45.08403" lon="5.13822">
        <ele>200.1</ele>
        <time>2022-10-16T14:04:40.000Z</time>
      </trkpt>
      <trkpt lat="45.08399" lon="5.13827">
        <ele>200.1</ele>
        <time>2022-10-16T14:04:41.000Z</time>
      </trkpt>
      <trkpt lat="45.08395" lon="5.13832">
        <ele>200.2</ele>
        <time>2022-10-16T14:04:42.000Z</time>
      </trkpt>
      <trkpt lat="45.08391" lon="5.13837">
        <ele>200.1</ele>
        <time>2022-10-16T14:04:43.000Z</time>
      </trkpt>
      <trkpt lat="45.08387" lon="5.13842">
        <ele>199.9</ele>
        <time>2022-10-16T14:04:44.000Z</time>
      </trkpt>
      <trkpt lat="45.08383" lon="5.13848">
        <ele>199.6</ele>
        <time>2022-10-16T14:04:45.000Z</time>
      </trkpt>
      <trkpt lat="45.08379" lon="5.13853">
        <ele>199.3</ele>
        <time>2022-10-16T14:04:46.000Z</time>
      </trkpt>
      <trkpt lat="45.08376" lon="5.13859">
        <ele>199</ele>
        <time>2022-10-16T14:04:47.000Z</time>
      </trkpt>
      <trkpt lat="45.08372" lon="5.13864">
        <ele>198.9</ele>
        <time>2022-10-16T14:04:48.000Z</time>
      </trkpt>
      <trkpt lat="45.08368" lon="5.13871">
        <ele>199</ele>
        <time>2022-10-16T14:04:49.000Z</time>
      </trkpt>
      <trkpt lat="45.08365" lon="5.13877">
        <ele>199.3</ele>
        <time>2022-10-16T14:04:50.000Z</time>
      </trkpt>
      <trkpt lat="45.08362" lon="5.13885">
        <ele>199.7</ele>
        <time>2022-10-16T14:04:51.000Z</time>
      </trkpt>
      <trkpt lat="45.08358" lon="5.13893">
        <ele>199.6</ele>
        <time>2022-10-16T14:04:52.000Z</time>
      </trkpt>
      <trkpt lat="45.08355" lon="5.13902">
        <ele>199</ele>
        <time>2022-10-16T14:04:53.000Z</time>
      </trkpt>
      <trkpt lat="45.08352" lon="5.13911">
        <ele>198.5</ele>
        <time>2022-10-16T14:04:54.000Z</time>
      </trkpt>
      <trkpt lat="45.08349" lon="5.1392">
        <ele>198.2</ele>
        <time>2022-10-16T14:04:55.000Z</time>
      </trkpt>
      <trkpt lat="45.08346" lon="5.1393">
        <ele>198.4</ele>
        <time>2022-10-16T14:04:56.000Z</time>
      </trkpt>
      <trkpt lat="45.08343" lon="5.13941">
        <ele>198.8</ele>
        <time>2022-10-16T14:04:57.000Z</time>
      </trkpt>
      <trkpt lat="45.08339" lon="5.13951">
        <ele>199</ele>
        <time>2022-10-16T14:04:58.000Z</time>
      </trkpt>
      <trkpt lat="45.08336" lon="5.13962">
        <ele>199</ele>
        <time>2022-10-16T14:04:59.000Z</time>
      </trkpt>
      <trkpt lat="45.08333" lon="5.13973">
        <ele>199</ele>
        <time>2022-10-16T14:05:00.000Z</time>
      </trkpt>
      <trkpt lat="45.0833" lon="5.13983">
        <ele>198.4</ele>
        <time>2022-10-16T14:05:01.000Z</time>
      </trkpt>
      <trkpt lat="45.08327" lon="5.13994">
        <ele>197.8</ele>
        <time>2022-10-16T14:05:02.000Z</time>
      </trkpt>
      <trkpt lat="45.08324" lon="5.14004">
        <ele>197.4</ele>
        <time>2022-10-16T14:05:03.000Z</time>
      </trkpt>
      <trkpt lat="45.08321" lon="5.14014">
        <ele>197.3</ele>
        <time>2022-10-16T14:05:04.000Z</time>
      </trkpt>
      <trkpt lat="45.08318" lon="5.14023">
        <ele>197.4</ele>
        <time>2022-10-16T14:05:05.000Z</time>
      </trkpt>
      <trkpt lat="45.08315" lon="5.14033">
        <ele>197.6</ele>
        <time>2022-10-16T14:05:06.000Z</time>
      </trkpt>
      <trkpt lat="45.08312" lon="5.14042">
        <ele>198</ele>
        <time>2022-10-16T14:05:07.000Z</time>
      </trkpt>
      <trkpt lat="45.08309" lon="5.14051">
        <ele>198.6</ele>
        <time>2022-10-16T14:05:08.000Z</time>
      </trkpt>
      <trkpt lat="45.08306" lon="5.1406">
        <ele>199</ele>
        <time>2022-10-16T14:05:09.000Z</time>
      </trkpt>
      <trkpt lat="45.08303" lon="5.1407">
        <ele>198.7</ele>
        <time>2022-10-16T14:05:10.000Z</time>
      </trkpt>
      <trkpt lat="45.08301" lon="5.14079">
        <ele>198.5</ele>
        <time>2022-10-16T14:05:11.000Z</time>
      </trkpt>
      <trkpt lat="45.08298" lon="5.14088">
        <ele>198.2</ele>
        <time>2022-10-16T14:05:12.000Z</time>
      </trkpt>
      <trkpt lat="45.08295" lon="5.14098">
        <ele>198.1</ele>
        <time>2022-10-16T14:05:13.000Z</time>
      </trkpt>
      <trkpt lat="45.08293" lon="5.14107">
        <ele>198</ele>
        <time>2022-10-16T14:05:14.000Z</time>
      </trkpt>
      <trkpt lat="45.0829" lon="5.14116">
        <ele>198.1</ele>
        <time>2022-10-16T14:05:15.000Z</time>
      </trkpt>
      <trkpt lat="45.08287" lon="5.14126">
        <ele>198.4</ele>
        <time>2022-10-16T14:05:16.000Z</time>
      </trkpt>
      <trkpt lat="45.08285" lon="5.14135">
        <ele>198.8</ele>
        <time>2022-10-16T14:05:17.000Z</time>
      </trkpt>
      <trkpt lat="45.08282" lon="5.14143">
        <ele>199.1</ele>
        <time>2022-10-16T14:05:18.000Z</time>
      </trkpt>
      <trkpt lat="45.0828" lon="5.14152">
        <ele>199.4</ele>
        <time>2022-10-16T14:05:19.000Z</time>
      </trkpt>
      <trkpt lat="45.08278" lon="5.14161">
        <ele>199.8</ele>
        <time>2022-10-16T14:05:20.000Z</time>
      </trkpt>
      <trkpt lat="45.08276" lon="5.1417">
        <ele>199.7</ele>
        <time>2022-10-16T14:05:21.000Z</time>
      </trkpt>
      <trkpt lat="45.08273" lon="5.14178">
        <ele>199.4</ele>
        <time>2022-10-16T14:05:22.000Z</time>
      </trkpt>
      <trkpt lat="45.08271" lon="5.14187">
        <ele>199.1</ele>
        <time>2022-10-16T14:05:23.000Z</time>
      </trkpt>
      <trkpt lat="45.08269" lon="5.14195">
        <ele>199</ele>
        <time>2022-10-16T14:05:24.000Z</time>
      </trkpt>
      <trkpt lat="45.08267" lon="5.14203">
        <ele>199.2</ele>
        <time>2022-10-16T14:05:25.000Z</time>
      </trkpt>
      <trkpt lat="45.08264" lon="5.14211">
        <ele>199.4</ele>
        <time>2022-10-16T14:05:26.000Z</time>
      </trkpt>
      <trkpt lat="45.08262" lon="5.14218">
        <ele>199.7</ele>
        <time>2022-10-16T14:05:27.000Z</time>
      </trkpt>
      <trkpt lat="45.08261" lon="5.14225">
        <ele>200.1</ele>
        <time>2022-10-16T14:05:28.000Z</time>
      </trkpt>
      <trkpt lat="45.08259" lon="5.14233">
        <ele>200.5</ele>
        <time>2022-10-16T14:05:29.000Z</time>
      </trkpt>
      <trkpt lat="45.08256" lon="5.14239">
        <ele>201</ele>
        <time>2022-10-16T14:05:30.000Z</time>
      </trkpt>
      <trkpt lat="45.08254" lon="5.14246">
        <ele>201.5</ele>
        <time>2022-10-16T14:05:31.000Z</time>
      </trkpt>
      <trkpt lat="45.08252" lon="5.14252">
        <ele>201.9</ele>
        <time>2022-10-16T14:05:32.000Z</time>
      </trkpt>
      <trkpt lat="45.0825" lon="5.14258">
        <ele>202</ele>
        <time>2022-10-16T14:05:33.000Z</time>
      </trkpt>
      <trkpt lat="45.08248" lon="5.14265">
        <ele>201.7</ele>
        <time>2022-10-16T14:05:34.000Z</time>
      </trkpt>
      <trkpt lat="45.08246" lon="5.14272">
        <ele>201.5</ele>
        <time>2022-10-16T14:05:35.000Z</time>
      </trkpt>
      <trkpt lat="45.08243" lon="5.14278">
        <ele>201.3</ele>
        <time>2022-10-16T14:05:36.000Z</time>
      </trkpt>
      <trkpt lat="45.08241" lon="5.14285">
        <ele>201.5</ele>
        <time>2022-10-16T14:05:37.000Z</time>
      </trkpt>
      <trkpt lat="45.08239" lon="5.14291">
        <ele>201.7</ele>
        <time>2022-10-16T14:05:38.000Z</time>
      </trkpt>
      <trkpt lat="45.08236" lon="5.14298">
        <ele>201.9</ele>
        <time>2022-10-16T14:05:39.000Z</time>
      </trkpt>
      <trkpt lat="45.08233" lon="5.14305">
        <ele>202.1</ele>
        <time>2022-10-16T14:05:40.000Z</time>
      </trkpt>
      <trkpt lat="45.0823" lon="5.14311">
        <ele>202.2</ele>
        <time>2022-10-16T14:05:41.000Z</time>
      </trkpt>
      <trkpt lat="45.08228" lon="5.14318">
        <ele>202.3</ele>
        <time>2022-10-16T14:05:42.000Z</time>
      </trkpt>
      <trkpt lat="45.08226" lon="5.14325">
        <ele>202.6</ele>
        <time>2022-10-16T14:05:43.000Z</time>
      </trkpt>
      <trkpt lat="45.08224" lon="5.14331">
        <ele>202.9</ele>
        <time>2022-10-16T14:05:44.000Z</time>
      </trkpt>
      <trkpt lat="45.08222" lon="5.14338">
        <ele>202.9</ele>
        <time>2022-10-16T14:05:45.000Z</time>
      </trkpt>
      <trkpt lat="45.08219" lon="5.14343">
        <ele>202.6</ele>
        <time>2022-10-16T14:05:46.000Z</time>
      </trkpt>
      <trkpt lat="45.08217" lon="5.14349">
        <ele>202.3</ele>
        <time>2022-10-16T14:05:47.000Z</time>
      </trkpt>
      <trkpt lat="45.08215" lon="5.14355">
        <ele>202.1</ele>
        <time>2022-10-16T14:05:48.000Z</time>
      </trkpt>
      <trkpt lat="45.08213" lon="5.1436">
        <ele>202</ele>
        <time>2022-10-16T14:05:49.000Z</time>
      </trkpt>
      <trkpt lat="45.08211" lon="5.14366">
        <ele>201.9</ele>
        <time>2022-10-16T14:05:50.000Z</time>
      </trkpt>
      <trkpt lat="45.08209" lon="5.14371">
        <ele>201.8</ele>
        <time>2022-10-16T14:05:51.000Z</time>
      </trkpt>
      <trkpt lat="45.08208" lon="5.14377">
        <ele>201.7</ele>
        <time>2022-10-16T14:05:52.000Z</time>
      </trkpt>
      <trkpt lat="45.08206" lon="5.14383">
        <ele>201.5</ele>
        <time>2022-10-16T14:05:53.000Z</time>
      </trkpt>
      <trkpt lat="45.08204" lon="5.14389">
        <ele>201.3</ele>
        <time>2022-10-16T14:05:54.000Z</time>
      </trkpt>
      <trkpt lat="45.08202" lon="5.14395">
        <ele>201.5</ele>
        <time>2022-10-16T14:05:55.000Z</time>
      </trkpt>
      <trkpt lat="45.082" lon="5.14401">
        <ele>201.8</ele>
        <time>2022-10-16T14:05:56.000Z</time>
      </trkpt>
      <trkpt lat="45.08198" lon="5.14407">
        <ele>202.2</ele>
        <time>2022-10-16T14:05:57.000Z</time>
      </trkpt>
      <trkpt lat="45.08195" lon="5.14412">
        <ele>202.6</ele>
        <time>2022-10-16T14:05:58.000Z</time>
      </trkpt>
      <trkpt lat="45.08193" lon="5.14417">
        <ele>202.9</ele>
        <time>2022-10-16T14:05:59.000Z</time>
      </trkpt>
      <trkpt lat="45.08192" lon="5.14422">
        <ele>202.7</ele>
        <time>2022-10-16T14:06:00.000Z</time>
      </trkpt>
      <trkpt lat="45.0819" lon="5.14427">
        <ele>202.5</ele>
        <time>2022-10-16T14:06:01.000Z</time>
      </trkpt>
      <trkpt lat="45.08188" lon="5.14432">
        <ele>202.4</ele>
        <time>2022-10-16T14:06:02.000Z</time>
      </trkpt>
      <trkpt lat="45.08186" lon="5.14437">
        <ele>202.3</ele>
        <time>2022-10-16T14:06:03.000Z</time>
      </trkpt>
      <trkpt lat="45.08185" lon="5.14443">
        <ele>202.3</ele>
        <time>2022-10-16T14:06:04.000Z</time>
      </trkpt>
      <trkpt lat="45.08183" lon="5.14448">
        <ele>202.2</ele>
        <time>2022-10-16T14:06:05.000Z</time>
      </trkpt>
      <trkpt lat="45.08181" lon="5.14453">
        <ele>202.2</ele>
        <time>2022-10-16T14:06:06.000Z</time>
      </trkpt>
      <trkpt lat="45.08179" lon="5.14459">
        <ele>202.2</ele>
        <time>2022-10-16T14:06:07.000Z</time>
      </trkpt>
      <trkpt lat="45.08178" lon="5.14464">
        <ele>202.2</ele>
        <time>2022-10-16T14:06:08.000Z</time>
      </trkpt>
      <trkpt lat="45.08177" lon="5.14468">
        <ele>202.3</ele>
        <time>2022-10-16T14:06:09.000Z</time>
      </trkpt>
      <trkpt lat="45.08176" lon="5.14472">
        <ele>202.3</ele>
        <time>2022-10-16T14:06:10.000Z</time>
      </trkpt>
      <trkpt lat="45.08175" lon="5.14476">
        <ele>202.5</ele>
        <time>2022-10-16T14:06:11.000Z</time>
      </trkpt>
      <trkpt lat="45.08174" lon="5.1448">
        <ele>202.7</ele>
        <time>2022-10-16T14:06:12.000Z</time>
      </trkpt>
      <trkpt lat="45.08174" lon="5.14483">
        <ele>202.9</ele>
        <time>2022-10-16T14:06:13.000Z</time>
      </trkpt>
      <trkpt lat="45.08174" lon="5.14485">
        <ele>203.1</ele>
        <time>2022-10-16T14:06:14.000Z</time>
      </trkpt>
      <trkpt lat="45.08173" lon="5.14489">
        <ele>203.3</ele>
        <time>2022-10-16T14:06:15.000Z</time>
      </trkpt>
      <trkpt lat="45.08172" lon="5.14492">
        <ele>203.5</ele>
        <time>2022-10-16T14:06:16.000Z</time>
      </trkpt>
      <trkpt lat="45.08171" lon="5.14496">
        <ele>203.7</ele>
        <time>2022-10-16T14:06:17.000Z</time>
      </trkpt>
      <trkpt lat="45.0817" lon="5.145">
        <ele>204</ele>
        <time>2022-10-16T14:06:18.000Z</time>
      </trkpt>
      <trkpt lat="45.08168" lon="5.14505">
        <ele>203.8</ele>
        <time>2022-10-16T14:06:19.000Z</time>
      </trkpt>
      <trkpt lat="45.08166" lon="5.14511">
        <ele>203.5</ele>
        <time>2022-10-16T14:06:20.000Z</time>
      </trkpt>
      <trkpt lat="45.08163" lon="5.14518">
        <ele>203.1</ele>
        <time>2022-10-16T14:06:21.000Z</time>
      </trkpt>
      <trkpt lat="45.08161" lon="5.14526">
        <ele>202.6</ele>
        <time>2022-10-16T14:06:22.000Z</time>
      </trkpt>
      <trkpt lat="45.08159" lon="5.14533">
        <ele>202.4</ele>
        <time>2022-10-16T14:06:23.000Z</time>
      </trkpt>
      <trkpt lat="45.08157" lon="5.14541">
        <ele>202.1</ele>
        <time>2022-10-16T14:06:24.000Z</time>
      </trkpt>
      <trkpt lat="45.08155" lon="5.14549">
        <ele>201.8</ele>
        <time>2022-10-16T14:06:25.000Z</time>
      </trkpt>
      <trkpt lat="45.08152" lon="5.14558">
        <ele>201.5</ele>
        <time>2022-10-16T14:06:26.000Z</time>
      </trkpt>
      <trkpt lat="45.0815" lon="5.14567">
        <ele>201.3</ele>
        <time>2022-10-16T14:06:27.000Z</time>
      </trkpt>
      <trkpt lat="45.08147" lon="5.14576">
        <ele>201</ele>
        <time>2022-10-16T14:06:28.000Z</time>
      </trkpt>
      <trkpt lat="45.08144" lon="5.14585">
        <ele>200.8</ele>
        <time>2022-10-16T14:06:29.000Z</time>
      </trkpt>
      <trkpt lat="45.08141" lon="5.14594">
        <ele>200.7</ele>
        <time>2022-10-16T14:06:30.000Z</time>
      </trkpt>
      <trkpt lat="45.08138" lon="5.14603">
        <ele>200.7</ele>
        <time>2022-10-16T14:06:31.000Z</time>
      </trkpt>
      <trkpt lat="45.08135" lon="5.14612">
        <ele>200.8</ele>
        <time>2022-10-16T14:06:32.000Z</time>
      </trkpt>
      <trkpt lat="45.08132" lon="5.14621">
        <ele>200.8</ele>
        <time>2022-10-16T14:06:33.000Z</time>
      </trkpt>
      <trkpt lat="45.08129" lon="5.1463">
        <ele>200.8</ele>
        <time>2022-10-16T14:06:34.000Z</time>
      </trkpt>
      <trkpt lat="45.08126" lon="5.14639">
        <ele>200.6</ele>
        <time>2022-10-16T14:06:35.000Z</time>
      </trkpt>
      <trkpt lat="45.08123" lon="5.14648">
        <ele>200.4</ele>
        <time>2022-10-16T14:06:36.000Z</time>
      </trkpt>
      <trkpt lat="45.08119" lon="5.14657">
        <ele>200.1</ele>
        <time>2022-10-16T14:06:37.000Z</time>
      </trkpt>
      <trkpt lat="45.08116" lon="5.14666">
        <ele>199.7</ele>
        <time>2022-10-16T14:06:38.000Z</time>
      </trkpt>
      <trkpt lat="45.08112" lon="5.14675">
        <ele>199.4</ele>
        <time>2022-10-16T14:06:39.000Z</time>
      </trkpt>
      <trkpt lat="45.08109" lon="5.14684">
        <ele>199.5</ele>
        <time>2022-10-16T14:06:40.000Z</time>
      </trkpt>
      <trkpt lat="45.08106" lon="5.14692">
        <ele>199.6</ele>
        <time>2022-10-16T14:06:41.000Z</time>
      </trkpt>
      <trkpt lat="45.08102" lon="5.147">
        <ele>199.5</ele>
        <time>2022-10-16T14:06:42.000Z</time>
      </trkpt>
      <trkpt lat="45.08099" lon="5.14709">
        <ele>199.4</ele>
        <time>2022-10-16T14:06:43.000Z</time>
      </trkpt>
      <trkpt lat="45.08096" lon="5.14718">
        <ele>199.2</ele>
        <time>2022-10-16T14:06:44.000Z</time>
      </trkpt>
      <trkpt lat="45.08092" lon="5.14727">
        <ele>199.1</ele>
        <time>2022-10-16T14:06:45.000Z</time>
      </trkpt>
      <trkpt lat="45.0809" lon="5.14735">
        <ele>199.1</ele>
        <time>2022-10-16T14:06:46.000Z</time>
      </trkpt>
      <trkpt lat="45.08086" lon="5.14744">
        <ele>199.1</ele>
        <time>2022-10-16T14:06:47.000Z</time>
      </trkpt>
      <trkpt lat="45.08084" lon="5.14753">
        <ele>199.1</ele>
        <time>2022-10-16T14:06:48.000Z</time>
      </trkpt>
      <trkpt lat="45.08081" lon="5.14761">
        <ele>199.1</ele>
        <time>2022-10-16T14:06:49.000Z</time>
      </trkpt>
      <trkpt lat="45.08078" lon="5.14769">
        <ele>199</ele>
        <time>2022-10-16T14:06:50.000Z</time>
      </trkpt>
      <trkpt lat="45.08075" lon="5.14777">
        <ele>198.8</ele>
        <time>2022-10-16T14:06:51.000Z</time>
      </trkpt>
      <trkpt lat="45.08072" lon="5.14785">
        <ele>198.7</ele>
        <time>2022-10-16T14:06:52.000Z</time>
      </trkpt>
      <trkpt lat="45.08069" lon="5.14793">
        <ele>198.5</ele>
        <time>2022-10-16T14:06:53.000Z</time>
      </trkpt>
      <trkpt lat="45.08066" lon="5.14801">
        <ele>198.4</ele>
        <time>2022-10-16T14:06:54.000Z</time>
      </trkpt>
      <trkpt lat="45.08063" lon="5.14809">
        <ele>198.2</ele>
        <time>2022-10-16T14:06:55.000Z</time>
      </trkpt>
      <trkpt lat="45.08061" lon="5.14817">
        <ele>198.1</ele>
        <time>2022-10-16T14:06:56.000Z</time>
      </trkpt>
      <trkpt lat="45.08058" lon="5.14825">
        <ele>198.1</ele>
        <time>2022-10-16T14:06:57.000Z</time>
      </trkpt>
      <trkpt lat="45.08056" lon="5.14832">
        <ele>198</ele>
        <time>2022-10-16T14:06:58.000Z</time>
      </trkpt>
      <trkpt lat="45.08054" lon="5.14839">
        <ele>198.3</ele>
        <time>2022-10-16T14:06:59.000Z</time>
      </trkpt>
      <trkpt lat="45.08052" lon="5.14846">
        <ele>198.6</ele>
        <time>2022-10-16T14:07:00.000Z</time>
      </trkpt>
      <trkpt lat="45.08051" lon="5.14853">
        <ele>198.8</ele>
        <time>2022-10-16T14:07:01.000Z</time>
      </trkpt>
      <trkpt lat="45.08049" lon="5.1486">
        <ele>199</ele>
        <time>2022-10-16T14:07:02.000Z</time>
      </trkpt>
      <trkpt lat="45.08047" lon="5.14868">
        <ele>199</ele>
        <time>2022-10-16T14:07:03.000Z</time>
      </trkpt>
      <trkpt lat="45.08045" lon="5.14875">
        <ele>199</ele>
        <time>2022-10-16T14:07:04.000Z</time>
      </trkpt>
      <trkpt lat="45.08044" lon="5.14882">
        <ele>199.1</ele>
        <time>2022-10-16T14:07:05.000Z</time>
      </trkpt>
      <trkpt lat="45.08042" lon="5.1489">
        <ele>199.1</ele>
        <time>2022-10-16T14:07:06.000Z</time>
      </trkpt>
      <trkpt lat="45.0804" lon="5.14898">
        <ele>199.3</ele>
        <time>2022-10-16T14:07:07.000Z</time>
      </trkpt>
      <trkpt lat="45.08039" lon="5.14905">
        <ele>199.5</ele>
        <time>2022-10-16T14:07:08.000Z</time>
      </trkpt>
      <trkpt lat="45.08037" lon="5.14913">
        <ele>199.7</ele>
        <time>2022-10-16T14:07:09.000Z</time>
      </trkpt>
      <trkpt lat="45.08035" lon="5.14921">
        <ele>199.9</ele>
        <time>2022-10-16T14:07:10.000Z</time>
      </trkpt>
      <trkpt lat="45.08033" lon="5.14928">
        <ele>200.1</ele>
        <time>2022-10-16T14:07:11.000Z</time>
      </trkpt>
      <trkpt lat="45.08032" lon="5.14935">
        <ele>200.2</ele>
        <time>2022-10-16T14:07:12.000Z</time>
      </trkpt>
      <trkpt lat="45.0803" lon="5.14942">
        <ele>200.2</ele>
        <time>2022-10-16T14:07:13.000Z</time>
      </trkpt>
      <trkpt lat="45.08028" lon="5.14948">
        <ele>200.3</ele>
        <time>2022-10-16T14:07:14.000Z</time>
      </trkpt>
      <trkpt lat="45.08026" lon="5.14955">
        <ele>200.6</ele>
        <time>2022-10-16T14:07:15.000Z</time>
      </trkpt>
      <trkpt lat="45.08025" lon="5.14962">
        <ele>201</ele>
        <time>2022-10-16T14:07:16.000Z</time>
      </trkpt>
      <trkpt lat="45.08023" lon="5.14969">
        <ele>201.3</ele>
        <time>2022-10-16T14:07:17.000Z</time>
      </trkpt>
      <trkpt lat="45.08021" lon="5.14976">
        <ele>201.4</ele>
        <time>2022-10-16T14:07:18.000Z</time>
      </trkpt>
      <trkpt lat="45.0802" lon="5.14983">
        <ele>201.5</ele>
        <time>2022-10-16T14:07:19.000Z</time>
      </trkpt>
      <trkpt lat="45.08018" lon="5.14989">
        <ele>201.5</ele>
        <time>2022-10-16T14:07:20.000Z</time>
      </trkpt>
      <trkpt lat="45.08016" lon="5.14996">
        <ele>201.6</ele>
        <time>2022-10-16T14:07:21.000Z</time>
      </trkpt>
      <trkpt lat="45.08015" lon="5.15002">
        <ele>201.7</ele>
        <time>2022-10-16T14:07:22.000Z</time>
      </trkpt>
      <trkpt lat="45.08013" lon="5.15009">
        <ele>201.9</ele>
        <time>2022-10-16T14:07:23.000Z</time>
      </trkpt>
      <trkpt lat="45.08012" lon="5.15016">
        <ele>202.2</ele>
        <time>2022-10-16T14:07:24.000Z</time>
      </trkpt>
      <trkpt lat="45.0801" lon="5.15022">
        <ele>202.4</ele>
        <time>2022-10-16T14:07:25.000Z</time>
      </trkpt>
      <trkpt lat="45.08009" lon="5.15029">
        <ele>202.7</ele>
        <time>2022-10-16T14:07:26.000Z</time>
      </trkpt>
      <trkpt lat="45.08007" lon="5.15035">
        <ele>202.7</ele>
        <time>2022-10-16T14:07:27.000Z</time>
      </trkpt>
      <trkpt lat="45.08005" lon="5.15042">
        <ele>202.8</ele>
        <time>2022-10-16T14:07:28.000Z</time>
      </trkpt>
      <trkpt lat="45.08003" lon="5.15048">
        <ele>202.9</ele>
        <time>2022-10-16T14:07:29.000Z</time>
      </trkpt>
      <trkpt lat="45.08001" lon="5.15055">
        <ele>203</ele>
        <time>2022-10-16T14:07:30.000Z</time>
      </trkpt>
      <trkpt lat="45.08" lon="5.15061">
        <ele>203.2</ele>
        <time>2022-10-16T14:07:31.000Z</time>
      </trkpt>
      <trkpt lat="45.07998" lon="5.15068">
        <ele>203.3</ele>
        <time>2022-10-16T14:07:32.000Z</time>
      </trkpt>
      <trkpt lat="45.07996" lon="5.15074">
        <ele>203.3</ele>
        <time>2022-10-16T14:07:33.000Z</time>
      </trkpt>
      <trkpt lat="45.07995" lon="5.15081">
        <ele>203.4</ele>
        <time>2022-10-16T14:07:34.000Z</time>
      </trkpt>
      <trkpt lat="45.07994" lon="5.15087">
        <ele>203.3</ele>
        <time>2022-10-16T14:07:35.000Z</time>
      </trkpt>
      <trkpt lat="45.07993" lon="5.15094">
        <ele>203.1</ele>
        <time>2022-10-16T14:07:36.000Z</time>
      </trkpt>
      <trkpt lat="45.07991" lon="5.15102">
        <ele>202.9</ele>
        <time>2022-10-16T14:07:37.000Z</time>
      </trkpt>
      <trkpt lat="45.07991" lon="5.15109">
        <ele>202.7</ele>
        <time>2022-10-16T14:07:38.000Z</time>
      </trkpt>
      <trkpt lat="45.07989" lon="5.15117">
        <ele>202.5</ele>
        <time>2022-10-16T14:07:39.000Z</time>
      </trkpt>
      <trkpt lat="45.07988" lon="5.15124">
        <ele>202.3</ele>
        <time>2022-10-16T14:07:40.000Z</time>
      </trkpt>
      <trkpt lat="45.07987" lon="5.15132">
        <ele>202.1</ele>
        <time>2022-10-16T14:07:41.000Z</time>
      </trkpt>
      <trkpt lat="45.07986" lon="5.15141">
        <ele>201.9</ele>
        <time>2022-10-16T14:07:42.000Z</time>
      </trkpt>
      <trkpt lat="45.07986" lon="5.15152">
        <ele>202</ele>
        <time>2022-10-16T14:07:43.000Z</time>
      </trkpt>
      <trkpt lat="45.07987" lon="5.15161">
        <ele>202.1</ele>
        <time>2022-10-16T14:07:44.000Z</time>
      </trkpt>
      <trkpt lat="45.07987" lon="5.15169">
        <ele>202.1</ele>
        <time>2022-10-16T14:07:45.000Z</time>
      </trkpt>
      <trkpt lat="45.07983" lon="5.15187">
        <ele>201.6</ele>
        <time>2022-10-16T14:07:46.000Z</time>
      </trkpt>
      <trkpt lat="45.07982" lon="5.15196">
        <ele>201.5</ele>
        <time>2022-10-16T14:07:47.000Z</time>
      </trkpt>
      <trkpt lat="45.0798" lon="5.15202">
        <ele>201.4</ele>
        <time>2022-10-16T14:07:48.000Z</time>
      </trkpt>
      <trkpt lat="45.0798" lon="5.15213">
        <ele>201.7</ele>
        <time>2022-10-16T14:07:49.000Z</time>
      </trkpt>
      <trkpt lat="45.0798" lon="5.15219">
        <ele>202</ele>
        <time>2022-10-16T14:07:50.000Z</time>
      </trkpt>
      <trkpt lat="45.07978" lon="5.15225">
        <ele>201.9</ele>
        <time>2022-10-16T14:07:52.000Z</time>
      </trkpt>
      <trkpt lat="45.07977" lon="5.15228">
        <ele>201.9</ele>
        <time>2022-10-16T14:07:53.000Z</time>
      </trkpt>
      <trkpt lat="45.07977" lon="5.15233">
        <ele>202</ele>
        <time>2022-10-16T14:07:54.000Z</time>
      </trkpt>
      <trkpt lat="45.07977" lon="5.1524">
        <ele>202.2</ele>
        <time>2022-10-16T14:07:55.000Z</time>
      </trkpt>
      <trkpt lat="45.07975" lon="5.15247">
        <ele>202.2</ele>
        <time>2022-10-16T14:07:56.000Z</time>
      </trkpt>
      <trkpt lat="45.07974" lon="5.15254">
        <ele>202.2</ele>
        <time>2022-10-16T14:07:57.000Z</time>
      </trkpt>
      <trkpt lat="45.07973" lon="5.15261">
        <ele>202.1</ele>
        <time>2022-10-16T14:07:58.000Z</time>
      </trkpt>
      <trkpt lat="45.07972" lon="5.15268">
        <ele>201.9</ele>
        <time>2022-10-16T14:07:59.000Z</time>
      </trkpt>
      <trkpt lat="45.0797" lon="5.15276">
        <ele>201.9</ele>
        <time>2022-10-16T14:08:00.000Z</time>
      </trkpt>
      <trkpt lat="45.07969" lon="5.15283">
        <ele>201.9</ele>
        <time>2022-10-16T14:08:01.000Z</time>
      </trkpt>
      <trkpt lat="45.07967" lon="5.1529">
        <ele>202.1</ele>
        <time>2022-10-16T14:08:02.000Z</time>
      </trkpt>
      <trkpt lat="45.07965" lon="5.15298">
        <ele>202.2</ele>
        <time>2022-10-16T14:08:03.000Z</time>
      </trkpt>
      <trkpt lat="45.07963" lon="5.15305">
        <ele>202.3</ele>
        <time>2022-10-16T14:08:04.000Z</time>
      </trkpt>
      <trkpt lat="45.07961" lon="5.15312">
        <ele>202.2</ele>
        <time>2022-10-16T14:08:05.000Z</time>
      </trkpt>
      <trkpt lat="45.07959" lon="5.15319">
        <ele>202</ele>
        <time>2022-10-16T14:08:06.000Z</time>
      </trkpt>
      <trkpt lat="45.07957" lon="5.15326">
        <ele>201.9</ele>
        <time>2022-10-16T14:08:07.000Z</time>
      </trkpt>
      <trkpt lat="45.07955" lon="5.15332">
        <ele>201.7</ele>
        <time>2022-10-16T14:08:08.000Z</time>
      </trkpt>
      <trkpt lat="45.07953" lon="5.15338">
        <ele>201.7</ele>
        <time>2022-10-16T14:08:09.000Z</time>
      </trkpt>
      <trkpt lat="45.07951" lon="5.15345">
        <ele>201.8</ele>
        <time>2022-10-16T14:08:10.000Z</time>
      </trkpt>
      <trkpt lat="45.07949" lon="5.15351">
        <ele>201.8</ele>
        <time>2022-10-16T14:08:11.000Z</time>
      </trkpt>
      <trkpt lat="45.07947" lon="5.15358">
        <ele>202</ele>
        <time>2022-10-16T14:08:12.000Z</time>
      </trkpt>
      <trkpt lat="45.07945" lon="5.15365">
        <ele>202.1</ele>
        <time>2022-10-16T14:08:13.000Z</time>
      </trkpt>
      <trkpt lat="45.07943" lon="5.15373">
        <ele>202.4</ele>
        <time>2022-10-16T14:08:14.000Z</time>
      </trkpt>
      <trkpt lat="45.07941" lon="5.1538">
        <ele>202.6</ele>
        <time>2022-10-16T14:08:15.000Z</time>
      </trkpt>
      <trkpt lat="45.07939" lon="5.15387">
        <ele>202.9</ele>
        <time>2022-10-16T14:08:16.000Z</time>
      </trkpt>
      <trkpt lat="45.07937" lon="5.15394">
        <ele>203.1</ele>
        <time>2022-10-16T14:08:17.000Z</time>
      </trkpt>
      <trkpt lat="45.07935" lon="5.15402">
        <ele>203.2</ele>
        <time>2022-10-16T14:08:18.000Z</time>
      </trkpt>
      <trkpt lat="45.07934" lon="5.15409">
        <ele>203.2</ele>
        <time>2022-10-16T14:08:19.000Z</time>
      </trkpt>
      <trkpt lat="45.07932" lon="5.15416">
        <ele>203.1</ele>
        <time>2022-10-16T14:08:20.000Z</time>
      </trkpt>
      <trkpt lat="45.07931" lon="5.15423">
        <ele>203</ele>
        <time>2022-10-16T14:08:21.000Z</time>
      </trkpt>
      <trkpt lat="45.07929" lon="5.1543">
        <ele>202.9</ele>
        <time>2022-10-16T14:08:22.000Z</time>
      </trkpt>
      <trkpt lat="45.07927" lon="5.15437">
        <ele>202.7</ele>
        <time>2022-10-16T14:08:23.000Z</time>
      </trkpt>
      <trkpt lat="45.07925" lon="5.15445">
        <ele>202.6</ele>
        <time>2022-10-16T14:08:24.000Z</time>
      </trkpt>
      <trkpt lat="45.07923" lon="5.15453">
        <ele>202.7</ele>
        <time>2022-10-16T14:08:25.000Z</time>
      </trkpt>
      <trkpt lat="45.07922" lon="5.1546">
        <ele>202.8</ele>
        <time>2022-10-16T14:08:26.000Z</time>
      </trkpt>
      <trkpt lat="45.0792" lon="5.15468">
        <ele>203</ele>
        <time>2022-10-16T14:08:27.000Z</time>
      </trkpt>
      <trkpt lat="45.07918" lon="5.15475">
        <ele>203</ele>
        <time>2022-10-16T14:08:28.000Z</time>
      </trkpt>
      <trkpt lat="45.07916" lon="5.15483">
        <ele>202.9</ele>
        <time>2022-10-16T14:08:29.000Z</time>
      </trkpt>
      <trkpt lat="45.07914" lon="5.1549">
        <ele>202.7</ele>
        <time>2022-10-16T14:08:30.000Z</time>
      </trkpt>
      <trkpt lat="45.07912" lon="5.15498">
        <ele>202.5</ele>
        <time>2022-10-16T14:08:31.000Z</time>
      </trkpt>
      <trkpt lat="45.0791" lon="5.15506">
        <ele>202.3</ele>
        <time>2022-10-16T14:08:32.000Z</time>
      </trkpt>
      <trkpt lat="45.07909" lon="5.15513">
        <ele>202.1</ele>
        <time>2022-10-16T14:08:33.000Z</time>
      </trkpt>
      <trkpt lat="45.07907" lon="5.15521">
        <ele>201.9</ele>
        <time>2022-10-16T14:08:34.000Z</time>
      </trkpt>
      <trkpt lat="45.07905" lon="5.15529">
        <ele>201.8</ele>
        <time>2022-10-16T14:08:35.000Z</time>
      </trkpt>
      <trkpt lat="45.07904" lon="5.15537">
        <ele>201.6</ele>
        <time>2022-10-16T14:08:36.000Z</time>
      </trkpt>
      <trkpt lat="45.07902" lon="5.15545">
        <ele>201.4</ele>
        <time>2022-10-16T14:08:37.000Z</time>
      </trkpt>
      <trkpt lat="45.07901" lon="5.15553">
        <ele>201.3</ele>
        <time>2022-10-16T14:08:38.000Z</time>
      </trkpt>
      <trkpt lat="45.07899" lon="5.15561">
        <ele>201.1</ele>
        <time>2022-10-16T14:08:39.000Z</time>
      </trkpt>
      <trkpt lat="45.07897" lon="5.15569">
        <ele>201.1</ele>
        <time>2022-10-16T14:08:40.000Z</time>
      </trkpt>
      <trkpt lat="45.07895" lon="5.15577">
        <ele>201.1</ele>
        <time>2022-10-16T14:08:41.000Z</time>
      </trkpt>
      <trkpt lat="45.07894" lon="5.15586">
        <ele>201.2</ele>
        <time>2022-10-16T14:08:42.000Z</time>
      </trkpt>
      <trkpt lat="45.07892" lon="5.15594">
        <ele>201.2</ele>
        <time>2022-10-16T14:08:43.000Z</time>
      </trkpt>
      <trkpt lat="45.0789" lon="5.15602">
        <ele>201.1</ele>
        <time>2022-10-16T14:08:44.000Z</time>
      </trkpt>
      <trkpt lat="45.07889" lon="5.15611">
        <ele>201</ele>
        <time>2022-10-16T14:08:45.000Z</time>
      </trkpt>
      <trkpt lat="45.07887" lon="5.1562">
        <ele>200.5</ele>
        <time>2022-10-16T14:08:46.000Z</time>
      </trkpt>
      <trkpt lat="45.07885" lon="5.15629">
        <ele>200</ele>
        <time>2022-10-16T14:08:47.000Z</time>
      </trkpt>
      <trkpt lat="45.07884" lon="5.15638">
        <ele>199.7</ele>
        <time>2022-10-16T14:08:48.000Z</time>
      </trkpt>
      <trkpt lat="45.07883" lon="5.15647">
        <ele>199.5</ele>
        <time>2022-10-16T14:08:49.000Z</time>
      </trkpt>
      <trkpt lat="45.07881" lon="5.15656">
        <ele>199.3</ele>
        <time>2022-10-16T14:08:50.000Z</time>
      </trkpt>
      <trkpt lat="45.0788" lon="5.15666">
        <ele>199</ele>
        <time>2022-10-16T14:08:51.000Z</time>
      </trkpt>
      <trkpt lat="45.07878" lon="5.15675">
        <ele>198.9</ele>
        <time>2022-10-16T14:08:52.000Z</time>
      </trkpt>
      <trkpt lat="45.07877" lon="5.15684">
        <ele>198.7</ele>
        <time>2022-10-16T14:08:53.000Z</time>
      </trkpt>
      <trkpt lat="45.07875" lon="5.15692">
        <ele>198.5</ele>
        <time>2022-10-16T14:08:54.000Z</time>
      </trkpt>
      <trkpt lat="45.07873" lon="5.15701">
        <ele>198.4</ele>
        <time>2022-10-16T14:08:55.000Z</time>
      </trkpt>
      <trkpt lat="45.07871" lon="5.1571">
        <ele>198.5</ele>
        <time>2022-10-16T14:08:56.000Z</time>
      </trkpt>
      <trkpt lat="45.0787" lon="5.15719">
        <ele>198.5</ele>
        <time>2022-10-16T14:08:57.000Z</time>
      </trkpt>
      <trkpt lat="45.07868" lon="5.15728">
        <ele>198.6</ele>
        <time>2022-10-16T14:08:58.000Z</time>
      </trkpt>
      <trkpt lat="45.07866" lon="5.15737">
        <ele>198.6</ele>
        <time>2022-10-16T14:08:59.000Z</time>
      </trkpt>
      <trkpt lat="45.07864" lon="5.15747">
        <ele>198.4</ele>
        <time>2022-10-16T14:09:00.000Z</time>
      </trkpt>
      <trkpt lat="45.07862" lon="5.15756">
        <ele>198.3</ele>
        <time>2022-10-16T14:09:01.000Z</time>
      </trkpt>
      <trkpt lat="45.0786" lon="5.15765">
        <ele>198.4</ele>
        <time>2022-10-16T14:09:02.000Z</time>
      </trkpt>
      <trkpt lat="45.07858" lon="5.15774">
        <ele>198.5</ele>
        <time>2022-10-16T14:09:03.000Z</time>
      </trkpt>
      <trkpt lat="45.07855" lon="5.15783">
        <ele>198.3</ele>
        <time>2022-10-16T14:09:04.000Z</time>
      </trkpt>
      <trkpt lat="45.07853" lon="5.15792">
        <ele>197.9</ele>
        <time>2022-10-16T14:09:05.000Z</time>
      </trkpt>
      <trkpt lat="45.0785" lon="5.15801">
        <ele>197.5</ele>
        <time>2022-10-16T14:09:06.000Z</time>
      </trkpt>
      <trkpt lat="45.07848" lon="5.1581">
        <ele>197.1</ele>
        <time>2022-10-16T14:09:07.000Z</time>
      </trkpt>
      <trkpt lat="45.07846" lon="5.15819">
        <ele>196.8</ele>
        <time>2022-10-16T14:09:08.000Z</time>
      </trkpt>
      <trkpt lat="45.07843" lon="5.15828">
        <ele>196.4</ele>
        <time>2022-10-16T14:09:09.000Z</time>
      </trkpt>
      <trkpt lat="45.07841" lon="5.15837">
        <ele>196.4</ele>
        <time>2022-10-16T14:09:10.000Z</time>
      </trkpt>
      <trkpt lat="45.07839" lon="5.15845">
        <ele>197</ele>
        <time>2022-10-16T14:09:11.000Z</time>
      </trkpt>
      <trkpt lat="45.07837" lon="5.15854">
        <ele>197.6</ele>
        <time>2022-10-16T14:09:12.000Z</time>
      </trkpt>
      <trkpt lat="45.07835" lon="5.15862">
        <ele>198.1</ele>
        <time>2022-10-16T14:09:13.000Z</time>
      </trkpt>
      <trkpt lat="45.07833" lon="5.15871">
        <ele>197.9</ele>
        <time>2022-10-16T14:09:14.000Z</time>
      </trkpt>
      <trkpt lat="45.07831" lon="5.15879">
        <ele>197.7</ele>
        <time>2022-10-16T14:09:15.000Z</time>
      </trkpt>
      <trkpt lat="45.07829" lon="5.15887">
        <ele>197.5</ele>
        <time>2022-10-16T14:09:16.000Z</time>
      </trkpt>
      <trkpt lat="45.07827" lon="5.15895">
        <ele>197.4</ele>
        <time>2022-10-16T14:09:17.000Z</time>
      </trkpt>
      <trkpt lat="45.07825" lon="5.15902">
        <ele>197.4</ele>
        <time>2022-10-16T14:09:18.000Z</time>
      </trkpt>
      <trkpt lat="45.07823" lon="5.15909">
        <ele>197.3</ele>
        <time>2022-10-16T14:09:19.000Z</time>
      </trkpt>
      <trkpt lat="45.0782" lon="5.15917">
        <ele>197.1</ele>
        <time>2022-10-16T14:09:20.000Z</time>
      </trkpt>
      <trkpt lat="45.07818" lon="5.15924">
        <ele>196.8</ele>
        <time>2022-10-16T14:09:21.000Z</time>
      </trkpt>
      <trkpt lat="45.07816" lon="5.15932">
        <ele>196.5</ele>
        <time>2022-10-16T14:09:22.000Z</time>
      </trkpt>
      <trkpt lat="45.07814" lon="5.15941">
        <ele>196.2</ele>
        <time>2022-10-16T14:09:23.000Z</time>
      </trkpt>
      <trkpt lat="45.07812" lon="5.15951">
        <ele>196.2</ele>
        <time>2022-10-16T14:09:24.000Z</time>
      </trkpt>
      <trkpt lat="45.07809" lon="5.15959">
        <ele>196.5</ele>
        <time>2022-10-16T14:09:25.000Z</time>
      </trkpt>
      <trkpt lat="45.07806" lon="5.15968">
        <ele>196.8</ele>
        <time>2022-10-16T14:09:26.000Z</time>
      </trkpt>
      <trkpt lat="45.07803" lon="5.15977">
        <ele>196.8</ele>
        <time>2022-10-16T14:09:27.000Z</time>
      </trkpt>
      <trkpt lat="45.07801" lon="5.15985">
        <ele>196.8</ele>
        <time>2022-10-16T14:09:28.000Z</time>
      </trkpt>
      <trkpt lat="45.07798" lon="5.15994">
        <ele>196.7</ele>
        <time>2022-10-16T14:09:29.000Z</time>
      </trkpt>
      <trkpt lat="45.07796" lon="5.16002">
        <ele>196.6</ele>
        <time>2022-10-16T14:09:30.000Z</time>
      </trkpt>
      <trkpt lat="45.07794" lon="5.16011">
        <ele>196.3</ele>
        <time>2022-10-16T14:09:31.000Z</time>
      </trkpt>
      <trkpt lat="45.07792" lon="5.16021">
        <ele>196</ele>
        <time>2022-10-16T14:09:32.000Z</time>
      </trkpt>
      <trkpt lat="45.0779" lon="5.1603">
        <ele>195.8</ele>
        <time>2022-10-16T14:09:33.000Z</time>
      </trkpt>
      <trkpt lat="45.07788" lon="5.1604">
        <ele>195.5</ele>
        <time>2022-10-16T14:09:34.000Z</time>
      </trkpt>
      <trkpt lat="45.07786" lon="5.1605">
        <ele>195.1</ele>
        <time>2022-10-16T14:09:35.000Z</time>
      </trkpt>
      <trkpt lat="45.07782" lon="5.1606">
        <ele>194.5</ele>
        <time>2022-10-16T14:09:36.000Z</time>
      </trkpt>
      <trkpt lat="45.07779" lon="5.16071">
        <ele>193.6</ele>
        <time>2022-10-16T14:09:37.000Z</time>
      </trkpt>
      <trkpt lat="45.07775" lon="5.1608">
        <ele>192.8</ele>
        <time>2022-10-16T14:09:38.000Z</time>
      </trkpt>
      <trkpt lat="45.07771" lon="5.16089">
        <ele>192.3</ele>
        <time>2022-10-16T14:09:39.000Z</time>
      </trkpt>
      <trkpt lat="45.07769" lon="5.16098">
        <ele>192.2</ele>
        <time>2022-10-16T14:09:40.000Z</time>
      </trkpt>
      <trkpt lat="45.07768" lon="5.16108">
        <ele>192.2</ele>
        <time>2022-10-16T14:09:41.000Z</time>
      </trkpt>
      <trkpt lat="45.07768" lon="5.16118">
        <ele>192.2</ele>
        <time>2022-10-16T14:09:42.000Z</time>
      </trkpt>
      <trkpt lat="45.0777" lon="5.16128">
        <ele>192.2</ele>
        <time>2022-10-16T14:09:43.000Z</time>
      </trkpt>
      <trkpt lat="45.07772" lon="5.16136">
        <ele>192.4</ele>
        <time>2022-10-16T14:09:44.000Z</time>
      </trkpt>
      <trkpt lat="45.07775" lon="5.16144">
        <ele>192.5</ele>
        <time>2022-10-16T14:09:45.000Z</time>
      </trkpt>
      <trkpt lat="45.07777" lon="5.16151">
        <ele>192.5</ele>
        <time>2022-10-16T14:09:46.000Z</time>
      </trkpt>
      <trkpt lat="45.07779" lon="5.16159">
        <ele>192.4</ele>
        <time>2022-10-16T14:09:47.000Z</time>
      </trkpt>
      <trkpt lat="45.0778" lon="5.16167">
        <ele>192.3</ele>
        <time>2022-10-16T14:09:48.000Z</time>
      </trkpt>
      <trkpt lat="45.07781" lon="5.16175">
        <ele>192.1</ele>
        <time>2022-10-16T14:09:49.000Z</time>
      </trkpt>
      <trkpt lat="45.07782" lon="5.16184">
        <ele>191.9</ele>
        <time>2022-10-16T14:09:50.000Z</time>
      </trkpt>
      <trkpt lat="45.07782" lon="5.16193">
        <ele>191.7</ele>
        <time>2022-10-16T14:09:51.000Z</time>
      </trkpt>
      <trkpt lat="45.07783" lon="5.16201">
        <ele>191.8</ele>
        <time>2022-10-16T14:09:52.000Z</time>
      </trkpt>
      <trkpt lat="45.07784" lon="5.16209">
        <ele>191.8</ele>
        <time>2022-10-16T14:09:53.000Z</time>
      </trkpt>
      <trkpt lat="45.07785" lon="5.16218">
        <ele>191.8</ele>
        <time>2022-10-16T14:09:54.000Z</time>
      </trkpt>
      <trkpt lat="45.07786" lon="5.16226">
        <ele>191.8</ele>
        <time>2022-10-16T14:09:55.000Z</time>
      </trkpt>
      <trkpt lat="45.07787" lon="5.16235">
        <ele>191.8</ele>
        <time>2022-10-16T14:09:56.000Z</time>
      </trkpt>
      <trkpt lat="45.07788" lon="5.16243">
        <ele>191.9</ele>
        <time>2022-10-16T14:09:57.000Z</time>
      </trkpt>
      <trkpt lat="45.07788" lon="5.16251">
        <ele>191.8</ele>
        <time>2022-10-16T14:09:58.000Z</time>
      </trkpt>
      <trkpt lat="45.07789" lon="5.16259">
        <ele>191.7</ele>
        <time>2022-10-16T14:09:59.000Z</time>
      </trkpt>
      <trkpt lat="45.07789" lon="5.16267">
        <ele>191.6</ele>
        <time>2022-10-16T14:10:00.000Z</time>
      </trkpt>
      <trkpt lat="45.0779" lon="5.16275">
        <ele>191.4</ele>
        <time>2022-10-16T14:10:01.000Z</time>
      </trkpt>
      <trkpt lat="45.07791" lon="5.16283">
        <ele>191.3</ele>
        <time>2022-10-16T14:10:02.000Z</time>
      </trkpt>
      <trkpt lat="45.07791" lon="5.16291">
        <ele>191.2</ele>
        <time>2022-10-16T14:10:03.000Z</time>
      </trkpt>
      <trkpt lat="45.07791" lon="5.16299">
        <ele>191.1</ele>
        <time>2022-10-16T14:10:04.000Z</time>
      </trkpt>
      <trkpt lat="45.07792" lon="5.16306">
        <ele>191</ele>
        <time>2022-10-16T14:10:05.000Z</time>
      </trkpt>
      <trkpt lat="45.07793" lon="5.16314">
        <ele>191.1</ele>
        <time>2022-10-16T14:10:06.000Z</time>
      </trkpt>
      <trkpt lat="45.07793" lon="5.16322">
        <ele>191.1</ele>
        <time>2022-10-16T14:10:07.000Z</time>
      </trkpt>
      <trkpt lat="45.07793" lon="5.16329">
        <ele>191.1</ele>
        <time>2022-10-16T14:10:08.000Z</time>
      </trkpt>
      <trkpt lat="45.07793" lon="5.16337">
        <ele>191.1</ele>
        <time>2022-10-16T14:10:09.000Z</time>
      </trkpt>
      <trkpt lat="45.07793" lon="5.16345">
        <ele>191.1</ele>
        <time>2022-10-16T14:10:10.000Z</time>
      </trkpt>
      <trkpt lat="45.07794" lon="5.16353">
        <ele>191.2</ele>
        <time>2022-10-16T14:10:11.000Z</time>
      </trkpt>
      <trkpt lat="45.07794" lon="5.1636">
        <ele>191.2</ele>
        <time>2022-10-16T14:10:12.000Z</time>
      </trkpt>
      <trkpt lat="45.07795" lon="5.16367">
        <ele>191.1</ele>
        <time>2022-10-16T14:10:13.000Z</time>
      </trkpt>
      <trkpt lat="45.07795" lon="5.16374">
        <ele>191</ele>
        <time>2022-10-16T14:10:14.000Z</time>
      </trkpt>
      <trkpt lat="45.07795" lon="5.16381">
        <ele>190.8</ele>
        <time>2022-10-16T14:10:15.000Z</time>
      </trkpt>
      <trkpt lat="45.07795" lon="5.16388">
        <ele>190.6</ele>
        <time>2022-10-16T14:10:16.000Z</time>
      </trkpt>
      <trkpt lat="45.07796" lon="5.16396">
        <ele>190.6</ele>
        <time>2022-10-16T14:10:17.000Z</time>
      </trkpt>
      <trkpt lat="45.07796" lon="5.16404">
        <ele>190.6</ele>
        <time>2022-10-16T14:10:18.000Z</time>
      </trkpt>
      <trkpt lat="45.07796" lon="5.16411">
        <ele>190.6</ele>
        <time>2022-10-16T14:10:19.000Z</time>
      </trkpt>
      <trkpt lat="45.07796" lon="5.16419">
        <ele>190.6</ele>
        <time>2022-10-16T14:10:20.000Z</time>
      </trkpt>
      <trkpt lat="45.07796" lon="5.16428">
        <ele>190.2</ele>
        <time>2022-10-16T14:10:21.000Z</time>
      </trkpt>
      <trkpt lat="45.07795" lon="5.16437">
        <ele>189.9</ele>
        <time>2022-10-16T14:10:22.000Z</time>
      </trkpt>
      <trkpt lat="45.07795" lon="5.16445">
        <ele>189.6</ele>
        <time>2022-10-16T14:10:23.000Z</time>
      </trkpt>
      <trkpt lat="45.07795" lon="5.16455">
        <ele>189.6</ele>
        <time>2022-10-16T14:10:24.000Z</time>
      </trkpt>
      <trkpt lat="45.07795" lon="5.16464">
        <ele>189.6</ele>
        <time>2022-10-16T14:10:25.000Z</time>
      </trkpt>
      <trkpt lat="45.07795" lon="5.16474">
        <ele>189.6</ele>
        <time>2022-10-16T14:10:26.000Z</time>
      </trkpt>
      <trkpt lat="45.07795" lon="5.16484">
        <ele>189.2</ele>
        <time>2022-10-16T14:10:27.000Z</time>
      </trkpt>
      <trkpt lat="45.07795" lon="5.16494">
        <ele>188.8</ele>
        <time>2022-10-16T14:10:28.000Z</time>
      </trkpt>
      <trkpt lat="45.07795" lon="5.16503">
        <ele>188.6</ele>
        <time>2022-10-16T14:10:29.000Z</time>
      </trkpt>
      <trkpt lat="45.07795" lon="5.16513">
        <ele>188.6</ele>
        <time>2022-10-16T14:10:30.000Z</time>
      </trkpt>
      <trkpt lat="45.07795" lon="5.16522">
        <ele>188.6</ele>
        <time>2022-10-16T14:10:31.000Z</time>
      </trkpt>
      <trkpt lat="45.07794" lon="5.16532">
        <ele>188.6</ele>
        <time>2022-10-16T14:10:32.000Z</time>
      </trkpt>
      <trkpt lat="45.07794" lon="5.16541">
        <ele>188.6</ele>
        <time>2022-10-16T14:10:33.000Z</time>
      </trkpt>
      <trkpt lat="45.07794" lon="5.1655">
        <ele>188.6</ele>
        <time>2022-10-16T14:10:34.000Z</time>
      </trkpt>
      <trkpt lat="45.07795" lon="5.16559">
        <ele>188.5</ele>
        <time>2022-10-16T14:10:35.000Z</time>
      </trkpt>
      <trkpt lat="45.07797" lon="5.16569">
        <ele>188</ele>
        <time>2022-10-16T14:10:36.000Z</time>
      </trkpt>
      <trkpt lat="45.07799" lon="5.16579">
        <ele>187.5</ele>
        <time>2022-10-16T14:10:37.000Z</time>
      </trkpt>
      <trkpt lat="45.07801" lon="5.1659">
        <ele>187.1</ele>
        <time>2022-10-16T14:10:38.000Z</time>
      </trkpt>
      <trkpt lat="45.07803" lon="5.166">
        <ele>187</ele>
        <time>2022-10-16T14:10:39.000Z</time>
      </trkpt>
      <trkpt lat="45.07806" lon="5.1661">
        <ele>187</ele>
        <time>2022-10-16T14:10:40.000Z</time>
      </trkpt>
      <trkpt lat="45.07808" lon="5.16621">
        <ele>186.7</ele>
        <time>2022-10-16T14:10:41.000Z</time>
      </trkpt>
      <trkpt lat="45.0781" lon="5.16629">
        <ele>186.4</ele>
        <time>2022-10-16T14:10:42.000Z</time>
      </trkpt>
      <trkpt lat="45.07812" lon="5.16637">
        <ele>186.1</ele>
        <time>2022-10-16T14:10:43.000Z</time>
      </trkpt>
      <trkpt lat="45.07812" lon="5.16644">
        <ele>186.2</ele>
        <time>2022-10-16T14:10:44.000Z</time>
      </trkpt>
      <trkpt lat="45.07811" lon="5.16649">
        <ele>186.4</ele>
        <time>2022-10-16T14:10:45.000Z</time>
      </trkpt>
      <trkpt lat="45.07808" lon="5.16653">
        <ele>186.6</ele>
        <time>2022-10-16T14:10:46.000Z</time>
      </trkpt>
      <trkpt lat="45.07806" lon="5.16656">
        <ele>186.6</ele>
        <time>2022-10-16T14:10:47.000Z</time>
      </trkpt>
      <trkpt lat="45.07803" lon="5.16658">
        <ele>186.7</ele>
        <time>2022-10-16T14:10:48.000Z</time>
      </trkpt>
      <trkpt lat="45.07799" lon="5.16661">
        <ele>186.6</ele>
        <time>2022-10-16T14:10:49.000Z</time>
      </trkpt>
      <trkpt lat="45.07795" lon="5.16665">
        <ele>186.6</ele>
        <time>2022-10-16T14:10:50.000Z</time>
      </trkpt>
      <trkpt lat="45.07794" lon="5.1667">
        <ele>186.6</ele>
        <time>2022-10-16T14:10:51.000Z</time>
      </trkpt>
      <trkpt lat="45.07792" lon="5.16676">
        <ele>186.5</ele>
        <time>2022-10-16T14:10:52.000Z</time>
      </trkpt>
      <trkpt lat="45.07792" lon="5.16682">
        <ele>186.5</ele>
        <time>2022-10-16T14:10:53.000Z</time>
      </trkpt>
      <trkpt lat="45.07794" lon="5.16689">
        <ele>186.6</ele>
        <time>2022-10-16T14:10:54.000Z</time>
      </trkpt>
      <trkpt lat="45.07796" lon="5.16696">
        <ele>186.6</ele>
        <time>2022-10-16T14:10:55.000Z</time>
      </trkpt>
      <trkpt lat="45.07797" lon="5.16703">
        <ele>186.7</ele>
        <time>2022-10-16T14:10:56.000Z</time>
      </trkpt>
      <trkpt lat="45.07799" lon="5.16709">
        <ele>186.7</ele>
        <time>2022-10-16T14:10:57.000Z</time>
      </trkpt>
      <trkpt lat="45.078" lon="5.16716">
        <ele>186.8</ele>
        <time>2022-10-16T14:10:58.000Z</time>
      </trkpt>
      <trkpt lat="45.07801" lon="5.16723">
        <ele>186.8</ele>
        <time>2022-10-16T14:10:59.000Z</time>
      </trkpt>
      <trkpt lat="45.07801" lon="5.1673">
        <ele>186.3</ele>
        <time>2022-10-16T14:11:00.000Z</time>
      </trkpt>
      <trkpt lat="45.07802" lon="5.16737">
        <ele>185.9</ele>
        <time>2022-10-16T14:11:01.000Z</time>
      </trkpt>
      <trkpt lat="45.07803" lon="5.16744">
        <ele>185.4</ele>
        <time>2022-10-16T14:11:02.000Z</time>
      </trkpt>
      <trkpt lat="45.07804" lon="5.16751">
        <ele>185</ele>
        <time>2022-10-16T14:11:03.000Z</time>
      </trkpt>
      <trkpt lat="45.07805" lon="5.16758">
        <ele>185</ele>
        <time>2022-10-16T14:11:04.000Z</time>
      </trkpt>
      <trkpt lat="45.07805" lon="5.16765">
        <ele>185</ele>
        <time>2022-10-16T14:11:05.000Z</time>
      </trkpt>
      <trkpt lat="45.07806" lon="5.16773">
        <ele>185.1</ele>
        <time>2022-10-16T14:11:06.000Z</time>
      </trkpt>
      <trkpt lat="45.07807" lon="5.1678">
        <ele>185.2</ele>
        <time>2022-10-16T14:11:07.000Z</time>
      </trkpt>
      <trkpt lat="45.07807" lon="5.16786">
        <ele>185.4</ele>
        <time>2022-10-16T14:11:08.000Z</time>
      </trkpt>
      <trkpt lat="45.07808" lon="5.16793">
        <ele>185.7</ele>
        <time>2022-10-16T14:11:09.000Z</time>
      </trkpt>
      <trkpt lat="45.07807" lon="5.16799">
        <ele>185.9</ele>
        <time>2022-10-16T14:11:10.000Z</time>
      </trkpt>
      <trkpt lat="45.07807" lon="5.16806">
        <ele>186.1</ele>
        <time>2022-10-16T14:11:11.000Z</time>
      </trkpt>
      <trkpt lat="45.07807" lon="5.16812">
        <ele>186</ele>
        <time>2022-10-16T14:11:12.000Z</time>
      </trkpt>
      <trkpt lat="45.07807" lon="5.16818">
        <ele>186.1</ele>
        <time>2022-10-16T14:11:13.000Z</time>
      </trkpt>
      <trkpt lat="45.07807" lon="5.16824">
        <ele>186</ele>
        <time>2022-10-16T14:11:14.000Z</time>
      </trkpt>
      <trkpt lat="45.07807" lon="5.1683">
        <ele>186.1</ele>
        <time>2022-10-16T14:11:15.000Z</time>
      </trkpt>
      <trkpt lat="45.07808" lon="5.16835">
        <ele>186.1</ele>
        <time>2022-10-16T14:11:16.000Z</time>
      </trkpt>
      <trkpt lat="45.07809" lon="5.1684">
        <ele>186.1</ele>
        <time>2022-10-16T14:11:17.000Z</time>
      </trkpt>
      <trkpt lat="45.07809" lon="5.16845">
        <ele>186.1</ele>
        <time>2022-10-16T14:11:18.000Z</time>
      </trkpt>
      <trkpt lat="45.07808" lon="5.16849">
        <ele>186.1</ele>
        <time>2022-10-16T14:11:19.000Z</time>
      </trkpt>
      <trkpt lat="45.07808" lon="5.16853">
        <ele>186.1</ele>
        <time>2022-10-16T14:11:20.000Z</time>
      </trkpt>
      <trkpt lat="45.0781" lon="5.16859">
        <ele>186.2</ele>
        <time>2022-10-16T14:11:21.000Z</time>
      </trkpt>
      <trkpt lat="45.0781" lon="5.16863">
        <ele>186.2</ele>
        <time>2022-10-16T14:11:22.000Z</time>
      </trkpt>
      <trkpt lat="45.07809" lon="5.16867">
        <ele>186.1</ele>
        <time>2022-10-16T14:11:23.000Z</time>
      </trkpt>
      <trkpt lat="45.07809" lon="5.16871">
        <ele>186.1</ele>
        <time>2022-10-16T14:11:24.000Z</time>
      </trkpt>
      <trkpt lat="45.07809" lon="5.16874">
        <ele>186.1</ele>
        <time>2022-10-16T14:11:25.000Z</time>
      </trkpt>
      <trkpt lat="45.0781" lon="5.16878">
        <ele>186.1</ele>
        <time>2022-10-16T14:11:26.000Z</time>
      </trkpt>
      <trkpt lat="45.07811" lon="5.16881">
        <ele>186.1</ele>
        <time>2022-10-16T14:11:27.000Z</time>
      </trkpt>
      <trkpt lat="45.07811" lon="5.16885">
        <ele>186</ele>
        <time>2022-10-16T14:11:28.000Z</time>
      </trkpt>
      <trkpt lat="45.07812" lon="5.16889">
        <ele>186</ele>
        <time>2022-10-16T14:11:29.000Z</time>
      </trkpt>
      <trkpt lat="45.07812" lon="5.16894">
        <ele>185.9</ele>
        <time>2022-10-16T14:11:30.000Z</time>
      </trkpt>
      <trkpt lat="45.07811" lon="5.169">
        <ele>185.7</ele>
        <time>2022-10-16T14:11:31.000Z</time>
      </trkpt>
      <trkpt lat="45.07811" lon="5.16906">
        <ele>185.5</ele>
        <time>2022-10-16T14:11:32.000Z</time>
      </trkpt>
      <trkpt lat="45.07812" lon="5.16913">
        <ele>185.3</ele>
        <time>2022-10-16T14:11:33.000Z</time>
      </trkpt>
      <trkpt lat="45.07813" lon="5.1692">
        <ele>185.3</ele>
        <time>2022-10-16T14:11:34.000Z</time>
      </trkpt>
      <trkpt lat="45.07815" lon="5.16926">
        <ele>185.4</ele>
        <time>2022-10-16T14:11:35.000Z</time>
      </trkpt>
      <trkpt lat="45.07818" lon="5.16932">
        <ele>185.4</ele>
        <time>2022-10-16T14:11:36.000Z</time>
      </trkpt>
      <trkpt lat="45.07819" lon="5.16938">
        <ele>185.5</ele>
        <time>2022-10-16T14:11:37.000Z</time>
      </trkpt>
      <trkpt lat="45.07821" lon="5.16944">
        <ele>185.6</ele>
        <time>2022-10-16T14:11:38.000Z</time>
      </trkpt>
      <trkpt lat="45.07824" lon="5.1695">
        <ele>185.5</ele>
        <time>2022-10-16T14:11:39.000Z</time>
      </trkpt>
      <trkpt lat="45.07826" lon="5.16956">
        <ele>185.3</ele>
        <time>2022-10-16T14:11:40.000Z</time>
      </trkpt>
      <trkpt lat="45.07828" lon="5.16962">
        <ele>185.2</ele>
        <time>2022-10-16T14:11:41.000Z</time>
      </trkpt>
      <trkpt lat="45.0783" lon="5.16968">
        <ele>185</ele>
        <time>2022-10-16T14:11:42.000Z</time>
      </trkpt>
      <trkpt lat="45.07831" lon="5.16974">
        <ele>184.9</ele>
        <time>2022-10-16T14:11:43.000Z</time>
      </trkpt>
      <trkpt lat="45.07833" lon="5.1698">
        <ele>185</ele>
        <time>2022-10-16T14:11:44.000Z</time>
      </trkpt>
      <trkpt lat="45.07836" lon="5.16986">
        <ele>185.1</ele>
        <time>2022-10-16T14:11:45.000Z</time>
      </trkpt>
      <trkpt lat="45.07838" lon="5.16993">
        <ele>185.2</ele>
        <time>2022-10-16T14:11:46.000Z</time>
      </trkpt>
      <trkpt lat="45.0784" lon="5.16999">
        <ele>185.2</ele>
        <time>2022-10-16T14:11:47.000Z</time>
      </trkpt>
      <trkpt lat="45.07842" lon="5.17006">
        <ele>185.1</ele>
        <time>2022-10-16T14:11:48.000Z</time>
      </trkpt>
      <trkpt lat="45.07844" lon="5.17012">
        <ele>184.9</ele>
        <time>2022-10-16T14:11:49.000Z</time>
      </trkpt>
      <trkpt lat="45.07847" lon="5.17019">
        <ele>184.8</ele>
        <time>2022-10-16T14:11:50.000Z</time>
      </trkpt>
      <trkpt lat="45.0785" lon="5.17026">
        <ele>184.7</ele>
        <time>2022-10-16T14:11:51.000Z</time>
      </trkpt>
      <trkpt lat="45.07853" lon="5.17033">
        <ele>184.7</ele>
        <time>2022-10-16T14:11:52.000Z</time>
      </trkpt>
      <trkpt lat="45.07857" lon="5.1704">
        <ele>184.8</ele>
        <time>2022-10-16T14:11:53.000Z</time>
      </trkpt>
      <trkpt lat="45.0786" lon="5.17047">
        <ele>184.9</ele>
        <time>2022-10-16T14:11:54.000Z</time>
      </trkpt>
      <trkpt lat="45.07864" lon="5.17054">
        <ele>185.1</ele>
        <time>2022-10-16T14:11:55.000Z</time>
      </trkpt>
      <trkpt lat="45.07867" lon="5.17061">
        <ele>185</ele>
        <time>2022-10-16T14:11:56.000Z</time>
      </trkpt>
      <trkpt lat="45.07871" lon="5.17069">
        <ele>184.9</ele>
        <time>2022-10-16T14:11:57.000Z</time>
      </trkpt>
      <trkpt lat="45.07874" lon="5.17076">
        <ele>184.7</ele>
        <time>2022-10-16T14:11:58.000Z</time>
      </trkpt>
      <trkpt lat="45.07878" lon="5.17083">
        <ele>184.6</ele>
        <time>2022-10-16T14:11:59.000Z</time>
      </trkpt>
      <trkpt lat="45.07881" lon="5.17091">
        <ele>184.6</ele>
        <time>2022-10-16T14:12:00.000Z</time>
      </trkpt>
      <trkpt lat="45.07885" lon="5.17098">
        <ele>184.7</ele>
        <time>2022-10-16T14:12:01.000Z</time>
      </trkpt>
      <trkpt lat="45.07888" lon="5.17105">
        <ele>184.9</ele>
        <time>2022-10-16T14:12:02.000Z</time>
      </trkpt>
      <trkpt lat="45.07892" lon="5.17112">
        <ele>185</ele>
        <time>2022-10-16T14:12:03.000Z</time>
      </trkpt>
      <trkpt lat="45.07895" lon="5.17119">
        <ele>184.8</ele>
        <time>2022-10-16T14:12:04.000Z</time>
      </trkpt>
      <trkpt lat="45.07899" lon="5.17126">
        <ele>184.7</ele>
        <time>2022-10-16T14:12:05.000Z</time>
      </trkpt>
      <trkpt lat="45.07903" lon="5.17133">
        <ele>184.6</ele>
        <time>2022-10-16T14:12:06.000Z</time>
      </trkpt>
      <trkpt lat="45.07906" lon="5.1714">
        <ele>184.6</ele>
        <time>2022-10-16T14:12:07.000Z</time>
      </trkpt>
      <trkpt lat="45.0791" lon="5.17148">
        <ele>184.5</ele>
        <time>2022-10-16T14:12:08.000Z</time>
      </trkpt>
      <trkpt lat="45.07915" lon="5.17155">
        <ele>184.3</ele>
        <time>2022-10-16T14:12:09.000Z</time>
      </trkpt>
      <trkpt lat="45.07919" lon="5.17163">
        <ele>184.3</ele>
        <time>2022-10-16T14:12:10.000Z</time>
      </trkpt>
      <trkpt lat="45.07923" lon="5.17171">
        <ele>184.3</ele>
        <time>2022-10-16T14:12:11.000Z</time>
      </trkpt>
      <trkpt lat="45.07927" lon="5.17178">
        <ele>184</ele>
        <time>2022-10-16T14:12:12.000Z</time>
      </trkpt>
      <trkpt lat="45.07932" lon="5.17186">
        <ele>183.7</ele>
        <time>2022-10-16T14:12:13.000Z</time>
      </trkpt>
      <trkpt lat="45.07936" lon="5.17194">
        <ele>183.1</ele>
        <time>2022-10-16T14:12:14.000Z</time>
      </trkpt>
      <trkpt lat="45.07941" lon="5.17202">
        <ele>183</ele>
        <time>2022-10-16T14:12:15.000Z</time>
      </trkpt>
      <trkpt lat="45.07946" lon="5.1721">
        <ele>183.1</ele>
        <time>2022-10-16T14:12:16.000Z</time>
      </trkpt>
      <trkpt lat="45.07951" lon="5.17219">
        <ele>183.3</ele>
        <time>2022-10-16T14:12:17.000Z</time>
      </trkpt>
      <trkpt lat="45.07956" lon="5.17228">
        <ele>182.7</ele>
        <time>2022-10-16T14:12:18.000Z</time>
      </trkpt>
      <trkpt lat="45.07961" lon="5.17237">
        <ele>181.9</ele>
        <time>2022-10-16T14:12:19.000Z</time>
      </trkpt>
      <trkpt lat="45.07967" lon="5.17245">
        <ele>181.2</ele>
        <time>2022-10-16T14:12:20.000Z</time>
      </trkpt>
      <trkpt lat="45.07973" lon="5.17254">
        <ele>180.4</ele>
        <time>2022-10-16T14:12:21.000Z</time>
      </trkpt>
      <trkpt lat="45.07978" lon="5.17263">
        <ele>179.7</ele>
        <time>2022-10-16T14:12:22.000Z</time>
      </trkpt>
      <trkpt lat="45.07984" lon="5.17272">
        <ele>179.4</ele>
        <time>2022-10-16T14:12:23.000Z</time>
      </trkpt>
      <trkpt lat="45.07991" lon="5.17281">
        <ele>179.1</ele>
        <time>2022-10-16T14:12:24.000Z</time>
      </trkpt>
      <trkpt lat="45.07997" lon="5.17291">
        <ele>178.4</ele>
        <time>2022-10-16T14:12:25.000Z</time>
      </trkpt>
      <trkpt lat="45.08004" lon="5.173">
        <ele>178.1</ele>
        <time>2022-10-16T14:12:26.000Z</time>
      </trkpt>
      <trkpt lat="45.08011" lon="5.1731">
        <ele>177.1</ele>
        <time>2022-10-16T14:12:27.000Z</time>
      </trkpt>
      <trkpt lat="45.08018" lon="5.17319">
        <ele>175.8</ele>
        <time>2022-10-16T14:12:28.000Z</time>
      </trkpt>
      <trkpt lat="45.08025" lon="5.1733">
        <ele>175</ele>
        <time>2022-10-16T14:12:29.000Z</time>
      </trkpt>
      <trkpt lat="45.08033" lon="5.1734">
        <ele>174.2</ele>
        <time>2022-10-16T14:12:30.000Z</time>
      </trkpt>
      <trkpt lat="45.0804" lon="5.1735">
        <ele>173</ele>
        <time>2022-10-16T14:12:31.000Z</time>
      </trkpt>
      <trkpt lat="45.08047" lon="5.17361">
        <ele>171.6</ele>
        <time>2022-10-16T14:12:32.000Z</time>
      </trkpt>
      <trkpt lat="45.08054" lon="5.17372">
        <ele>172.1</ele>
        <time>2022-10-16T14:12:33.000Z</time>
      </trkpt>
      <trkpt lat="45.08061" lon="5.17384">
        <ele>173.5</ele>
        <time>2022-10-16T14:12:34.000Z</time>
      </trkpt>
      <trkpt lat="45.08068" lon="5.17395">
        <ele>173.9</ele>
        <time>2022-10-16T14:12:35.000Z</time>
      </trkpt>
      <trkpt lat="45.08074" lon="5.17406">
        <ele>173.9</ele>
        <time>2022-10-16T14:12:36.000Z</time>
      </trkpt>
      <trkpt lat="45.08081" lon="5.17417">
        <ele>173.5</ele>
        <time>2022-10-16T14:12:37.000Z</time>
      </trkpt>
      <trkpt lat="45.08088" lon="5.17427">
        <ele>176</ele>
        <time>2022-10-16T14:12:38.000Z</time>
      </trkpt>
      <trkpt lat="45.08094" lon="5.17438">
        <ele>176.3</ele>
        <time>2022-10-16T14:12:39.000Z</time>
      </trkpt>
      <trkpt lat="45.08101" lon="5.17448">
        <ele>175</ele>
        <time>2022-10-16T14:12:40.000Z</time>
      </trkpt>
      <trkpt lat="45.08107" lon="5.17458">
        <ele>174.6</ele>
        <time>2022-10-16T14:12:41.000Z</time>
      </trkpt>
      <trkpt lat="45.08113" lon="5.17468">
        <ele>175.3</ele>
        <time>2022-10-16T14:12:42.000Z</time>
      </trkpt>
      <trkpt lat="45.0812" lon="5.17478">
        <ele>176.2</ele>
        <time>2022-10-16T14:12:43.000Z</time>
      </trkpt>
      <trkpt lat="45.08126" lon="5.17488">
        <ele>175.8</ele>
        <time>2022-10-16T14:12:44.000Z</time>
      </trkpt>
      <trkpt lat="45.08132" lon="5.17497">
        <ele>174</ele>
        <time>2022-10-16T14:12:45.000Z</time>
      </trkpt>
      <trkpt lat="45.08139" lon="5.17506">
        <ele>173.9</ele>
        <time>2022-10-16T14:12:46.000Z</time>
      </trkpt>
      <trkpt lat="45.08146" lon="5.17514">
        <ele>177.4</ele>
        <time>2022-10-16T14:12:47.000Z</time>
      </trkpt>
      <trkpt lat="45.08153" lon="5.17523">
        <ele>177.3</ele>
        <time>2022-10-16T14:12:48.000Z</time>
      </trkpt>
      <trkpt lat="45.08159" lon="5.17532">
        <ele>175.4</ele>
        <time>2022-10-16T14:12:49.000Z</time>
      </trkpt>
      <trkpt lat="45.08166" lon="5.1754">
        <ele>174.7</ele>
        <time>2022-10-16T14:12:50.000Z</time>
      </trkpt>
      <trkpt lat="45.08172" lon="5.17549">
        <ele>176.1</ele>
        <time>2022-10-16T14:12:51.000Z</time>
      </trkpt>
      <trkpt lat="45.08179" lon="5.17558">
        <ele>175.7</ele>
        <time>2022-10-16T14:12:52.000Z</time>
      </trkpt>
      <trkpt lat="45.08185" lon="5.17567">
        <ele>174.5</ele>
        <time>2022-10-16T14:12:53.000Z</time>
      </trkpt>
      <trkpt lat="45.08191" lon="5.17576">
        <ele>172.4</ele>
        <time>2022-10-16T14:12:54.000Z</time>
      </trkpt>
      <trkpt lat="45.08197" lon="5.17585">
        <ele>171.1</ele>
        <time>2022-10-16T14:12:55.000Z</time>
      </trkpt>
      <trkpt lat="45.08203" lon="5.17594">
        <ele>172.7</ele>
        <time>2022-10-16T14:12:56.000Z</time>
      </trkpt>
      <trkpt lat="45.0821" lon="5.17603">
        <ele>173.4</ele>
        <time>2022-10-16T14:12:57.000Z</time>
      </trkpt>
      <trkpt lat="45.08217" lon="5.17613">
        <ele>172.9</ele>
        <time>2022-10-16T14:12:58.000Z</time>
      </trkpt>
      <trkpt lat="45.08224" lon="5.17623">
        <ele>173.1</ele>
        <time>2022-10-16T14:12:59.000Z</time>
      </trkpt>
      <trkpt lat="45.08231" lon="5.17633">
        <ele>174.1</ele>
        <time>2022-10-16T14:13:00.000Z</time>
      </trkpt>
      <trkpt lat="45.08237" lon="5.17643">
        <ele>173.5</ele>
        <time>2022-10-16T14:13:01.000Z</time>
      </trkpt>
      <trkpt lat="45.08243" lon="5.17652">
        <ele>172.4</ele>
        <time>2022-10-16T14:13:02.000Z</time>
      </trkpt>
      <trkpt lat="45.0825" lon="5.17662">
        <ele>170.9</ele>
        <time>2022-10-16T14:13:03.000Z</time>
      </trkpt>
      <trkpt lat="45.08257" lon="5.17671">
        <ele>171</ele>
        <time>2022-10-16T14:13:04.000Z</time>
      </trkpt>
      <trkpt lat="45.08264" lon="5.1768">
        <ele>171.3</ele>
        <time>2022-10-16T14:13:05.000Z</time>
      </trkpt>
      <trkpt lat="45.0827" lon="5.17688">
        <ele>171</ele>
        <time>2022-10-16T14:13:06.000Z</time>
      </trkpt>
      <trkpt lat="45.08277" lon="5.17697">
        <ele>170.5</ele>
        <time>2022-10-16T14:13:07.000Z</time>
      </trkpt>
      <trkpt lat="45.08284" lon="5.17705">
        <ele>171.7</ele>
        <time>2022-10-16T14:13:08.000Z</time>
      </trkpt>
      <trkpt lat="45.08291" lon="5.17713">
        <ele>172.2</ele>
        <time>2022-10-16T14:13:09.000Z</time>
      </trkpt>
      <trkpt lat="45.08298" lon="5.17722">
        <ele>171.5</ele>
        <time>2022-10-16T14:13:10.000Z</time>
      </trkpt>
      <trkpt lat="45.08305" lon="5.1773">
        <ele>171.4</ele>
        <time>2022-10-16T14:13:11.000Z</time>
      </trkpt>
      <trkpt lat="45.08311" lon="5.17738">
        <ele>172.2</ele>
        <time>2022-10-16T14:13:12.000Z</time>
      </trkpt>
      <trkpt lat="45.08318" lon="5.17746">
        <ele>173.1</ele>
        <time>2022-10-16T14:13:13.000Z</time>
      </trkpt>
      <trkpt lat="45.08325" lon="5.17753">
        <ele>173.4</ele>
        <time>2022-10-16T14:13:14.000Z</time>
      </trkpt>
      <trkpt lat="45.08331" lon="5.17759">
        <ele>173.3</ele>
        <time>2022-10-16T14:13:15.000Z</time>
      </trkpt>
      <trkpt lat="45.08337" lon="5.17766">
        <ele>172.8</ele>
        <time>2022-10-16T14:13:16.000Z</time>
      </trkpt>
      <trkpt lat="45.08343" lon="5.17774">
        <ele>172.2</ele>
        <time>2022-10-16T14:13:17.000Z</time>
      </trkpt>
      <trkpt lat="45.08349" lon="5.17781">
        <ele>171.7</ele>
        <time>2022-10-16T14:13:18.000Z</time>
      </trkpt>
      <trkpt lat="45.08355" lon="5.17788">
        <ele>171.4</ele>
        <time>2022-10-16T14:13:19.000Z</time>
      </trkpt>
      <trkpt lat="45.0836" lon="5.17795">
        <ele>170.8</ele>
        <time>2022-10-16T14:13:20.000Z</time>
      </trkpt>
      <trkpt lat="45.08366" lon="5.17802">
        <ele>171.1</ele>
        <time>2022-10-16T14:13:21.000Z</time>
      </trkpt>
      <trkpt lat="45.08372" lon="5.17809">
        <ele>172</ele>
        <time>2022-10-16T14:13:22.000Z</time>
      </trkpt>
      <trkpt lat="45.08377" lon="5.17817">
        <ele>172.4</ele>
        <time>2022-10-16T14:13:23.000Z</time>
      </trkpt>
      <trkpt lat="45.08383" lon="5.17824">
        <ele>172.2</ele>
        <time>2022-10-16T14:13:24.000Z</time>
      </trkpt>
      <trkpt lat="45.08388" lon="5.17833">
        <ele>171.1</ele>
        <time>2022-10-16T14:13:25.000Z</time>
      </trkpt>
      <trkpt lat="45.08394" lon="5.17841">
        <ele>171.6</ele>
        <time>2022-10-16T14:13:26.000Z</time>
      </trkpt>
      <trkpt lat="45.08399" lon="5.1785">
        <ele>172</ele>
        <time>2022-10-16T14:13:27.000Z</time>
      </trkpt>
      <trkpt lat="45.08404" lon="5.17859">
        <ele>171.9</ele>
        <time>2022-10-16T14:13:28.000Z</time>
      </trkpt>
      <trkpt lat="45.08409" lon="5.17868">
        <ele>171.5</ele>
        <time>2022-10-16T14:13:29.000Z</time>
      </trkpt>
      <trkpt lat="45.08414" lon="5.17877">
        <ele>170.5</ele>
        <time>2022-10-16T14:13:30.000Z</time>
      </trkpt>
      <trkpt lat="45.08419" lon="5.17886">
        <ele>169.7</ele>
        <time>2022-10-16T14:13:31.000Z</time>
      </trkpt>
      <trkpt lat="45.08423" lon="5.17896">
        <ele>170</ele>
        <time>2022-10-16T14:13:32.000Z</time>
      </trkpt>
      <trkpt lat="45.08428" lon="5.17905">
        <ele>170.1</ele>
        <time>2022-10-16T14:13:33.000Z</time>
      </trkpt>
      <trkpt lat="45.08432" lon="5.17915">
        <ele>170</ele>
        <time>2022-10-16T14:13:34.000Z</time>
      </trkpt>
      <trkpt lat="45.08437" lon="5.17925">
        <ele>169.5</ele>
        <time>2022-10-16T14:13:35.000Z</time>
      </trkpt>
      <trkpt lat="45.08442" lon="5.17934">
        <ele>168.8</ele>
        <time>2022-10-16T14:13:36.000Z</time>
      </trkpt>
      <trkpt lat="45.08447" lon="5.17943">
        <ele>168.5</ele>
        <time>2022-10-16T14:13:37.000Z</time>
      </trkpt>
      <trkpt lat="45.08451" lon="5.17953">
        <ele>168</ele>
        <time>2022-10-16T14:13:38.000Z</time>
      </trkpt>
      <trkpt lat="45.08456" lon="5.17963">
        <ele>167.5</ele>
        <time>2022-10-16T14:13:39.000Z</time>
      </trkpt>
      <trkpt lat="45.08461" lon="5.17973">
        <ele>166.8</ele>
        <time>2022-10-16T14:13:40.000Z</time>
      </trkpt>
      <trkpt lat="45.08466" lon="5.17983">
        <ele>166.4</ele>
        <time>2022-10-16T14:13:41.000Z</time>
      </trkpt>
      <trkpt lat="45.08471" lon="5.17994">
        <ele>165.9</ele>
        <time>2022-10-16T14:13:42.000Z</time>
      </trkpt>
      <trkpt lat="45.08476" lon="5.18005">
        <ele>166.3</ele>
        <time>2022-10-16T14:13:43.000Z</time>
      </trkpt>
      <trkpt lat="45.0848" lon="5.18016">
        <ele>166.8</ele>
        <time>2022-10-16T14:13:44.000Z</time>
      </trkpt>
      <trkpt lat="45.08485" lon="5.18028">
        <ele>166.9</ele>
        <time>2022-10-16T14:13:45.000Z</time>
      </trkpt>
      <trkpt lat="45.08489" lon="5.18039">
        <ele>165.8</ele>
        <time>2022-10-16T14:13:46.000Z</time>
      </trkpt>
      <trkpt lat="45.08492" lon="5.1805">
        <ele>164.3</ele>
        <time>2022-10-16T14:13:47.000Z</time>
      </trkpt>
      <trkpt lat="45.08496" lon="5.18062">
        <ele>163.3</ele>
        <time>2022-10-16T14:13:48.000Z</time>
      </trkpt>
      <trkpt lat="45.085" lon="5.18073">
        <ele>162.7</ele>
        <time>2022-10-16T14:13:49.000Z</time>
      </trkpt>
      <trkpt lat="45.08503" lon="5.18085">
        <ele>161.4</ele>
        <time>2022-10-16T14:13:50.000Z</time>
      </trkpt>
      <trkpt lat="45.08507" lon="5.18097">
        <ele>161.6</ele>
        <time>2022-10-16T14:13:51.000Z</time>
      </trkpt>
      <trkpt lat="45.0851" lon="5.18108">
        <ele>161.9</ele>
        <time>2022-10-16T14:13:52.000Z</time>
      </trkpt>
      <trkpt lat="45.08514" lon="5.18119">
        <ele>161.9</ele>
        <time>2022-10-16T14:13:53.000Z</time>
      </trkpt>
      <trkpt lat="45.08517" lon="5.1813">
        <ele>161.8</ele>
        <time>2022-10-16T14:13:54.000Z</time>
      </trkpt>
      <trkpt lat="45.0852" lon="5.1814">
        <ele>161.9</ele>
        <time>2022-10-16T14:13:55.000Z</time>
      </trkpt>
      <trkpt lat="45.08523" lon="5.1815">
        <ele>161.2</ele>
        <time>2022-10-16T14:13:56.000Z</time>
      </trkpt>
      <trkpt lat="45.08527" lon="5.1816">
        <ele>160.7</ele>
        <time>2022-10-16T14:13:57.000Z</time>
      </trkpt>
      <trkpt lat="45.08531" lon="5.18171">
        <ele>160.9</ele>
        <time>2022-10-16T14:13:58.000Z</time>
      </trkpt>
      <trkpt lat="45.08534" lon="5.18181">
        <ele>161.5</ele>
        <time>2022-10-16T14:13:59.000Z</time>
      </trkpt>
      <trkpt lat="45.08537" lon="5.18192">
        <ele>161.8</ele>
        <time>2022-10-16T14:14:00.000Z</time>
      </trkpt>
      <trkpt lat="45.0854" lon="5.18202">
        <ele>161.6</ele>
        <time>2022-10-16T14:14:01.000Z</time>
      </trkpt>
      <trkpt lat="45.08543" lon="5.18213">
        <ele>161</ele>
        <time>2022-10-16T14:14:02.000Z</time>
      </trkpt>
      <trkpt lat="45.08546" lon="5.18223">
        <ele>160.5</ele>
        <time>2022-10-16T14:14:03.000Z</time>
      </trkpt>
      <trkpt lat="45.08549" lon="5.18234">
        <ele>160</ele>
        <time>2022-10-16T14:14:04.000Z</time>
      </trkpt>
      <trkpt lat="45.08552" lon="5.18245">
        <ele>159.5</ele>
        <time>2022-10-16T14:14:05.000Z</time>
      </trkpt>
      <trkpt lat="45.08555" lon="5.18255">
        <ele>159.4</ele>
        <time>2022-10-16T14:14:06.000Z</time>
      </trkpt>
      <trkpt lat="45.08557" lon="5.18267">
        <ele>159.2</ele>
        <time>2022-10-16T14:14:07.000Z</time>
      </trkpt>
      <trkpt lat="45.0856" lon="5.18278">
        <ele>158.9</ele>
        <time>2022-10-16T14:14:08.000Z</time>
      </trkpt>
      <trkpt lat="45.08561" lon="5.18288">
        <ele>158.5</ele>
        <time>2022-10-16T14:14:09.000Z</time>
      </trkpt>
      <trkpt lat="45.08563" lon="5.183">
        <ele>157.9</ele>
        <time>2022-10-16T14:14:10.000Z</time>
      </trkpt>
      <trkpt lat="45.08564" lon="5.18312">
        <ele>157.7</ele>
        <time>2022-10-16T14:14:11.000Z</time>
      </trkpt>
      <trkpt lat="45.08565" lon="5.18325">
        <ele>157.6</ele>
        <time>2022-10-16T14:14:12.000Z</time>
      </trkpt>
      <trkpt lat="45.08566" lon="5.18338">
        <ele>157.4</ele>
        <time>2022-10-16T14:14:13.000Z</time>
      </trkpt>
      <trkpt lat="45.08568" lon="5.18351">
        <ele>157.1</ele>
        <time>2022-10-16T14:14:14.000Z</time>
      </trkpt>
      <trkpt lat="45.08568" lon="5.18364">
        <ele>156.7</ele>
        <time>2022-10-16T14:14:15.000Z</time>
      </trkpt>
      <trkpt lat="45.08569" lon="5.18377">
        <ele>156.4</ele>
        <time>2022-10-16T14:14:16.000Z</time>
      </trkpt>
      <trkpt lat="45.08569" lon="5.18391">
        <ele>155.9</ele>
        <time>2022-10-16T14:14:17.000Z</time>
      </trkpt>
      <trkpt lat="45.08569" lon="5.18405">
        <ele>155.7</ele>
        <time>2022-10-16T14:14:18.000Z</time>
      </trkpt>
      <trkpt lat="45.08569" lon="5.18418">
        <ele>155.3</ele>
        <time>2022-10-16T14:14:19.000Z</time>
      </trkpt>
      <trkpt lat="45.08569" lon="5.18432">
        <ele>154.6</ele>
        <time>2022-10-16T14:14:20.000Z</time>
      </trkpt>
      <trkpt lat="45.0857" lon="5.18445">
        <ele>154</ele>
        <time>2022-10-16T14:14:21.000Z</time>
      </trkpt>
      <trkpt lat="45.0857" lon="5.18458">
        <ele>153.8</ele>
        <time>2022-10-16T14:14:22.000Z</time>
      </trkpt>
      <trkpt lat="45.0857" lon="5.18472">
        <ele>153.6</ele>
        <time>2022-10-16T14:14:23.000Z</time>
      </trkpt>
      <trkpt lat="45.08571" lon="5.18486">
        <ele>152.8</ele>
        <time>2022-10-16T14:14:24.000Z</time>
      </trkpt>
      <trkpt lat="45.08571" lon="5.18499">
        <ele>152</ele>
        <time>2022-10-16T14:14:25.000Z</time>
      </trkpt>
      <trkpt lat="45.08572" lon="5.18512">
        <ele>151.8</ele>
        <time>2022-10-16T14:14:26.000Z</time>
      </trkpt>
      <trkpt lat="45.08571" lon="5.18525">
        <ele>151.6</ele>
        <time>2022-10-16T14:14:27.000Z</time>
      </trkpt>
      <trkpt lat="45.08572" lon="5.18538">
        <ele>151.6</ele>
        <time>2022-10-16T14:14:28.000Z</time>
      </trkpt>
      <trkpt lat="45.08572" lon="5.1855">
        <ele>151.6</ele>
        <time>2022-10-16T14:14:29.000Z</time>
      </trkpt>
      <trkpt lat="45.08571" lon="5.18561">
        <ele>151.6</ele>
        <time>2022-10-16T14:14:30.000Z</time>
      </trkpt>
      <trkpt lat="45.08571" lon="5.18571">
        <ele>151.8</ele>
        <time>2022-10-16T14:14:31.000Z</time>
      </trkpt>
      <trkpt lat="45.08572" lon="5.18582">
        <ele>152</ele>
        <time>2022-10-16T14:14:32.000Z</time>
      </trkpt>
      <trkpt lat="45.08573" lon="5.18592">
        <ele>151.9</ele>
        <time>2022-10-16T14:14:33.000Z</time>
      </trkpt>
      <trkpt lat="45.08573" lon="5.18601">
        <ele>151.8</ele>
        <time>2022-10-16T14:14:34.000Z</time>
      </trkpt>
      <trkpt lat="45.08574" lon="5.1861">
        <ele>151.7</ele>
        <time>2022-10-16T14:14:35.000Z</time>
      </trkpt>
      <trkpt lat="45.08574" lon="5.18619">
        <ele>151.8</ele>
        <time>2022-10-16T14:14:36.000Z</time>
      </trkpt>
      <trkpt lat="45.08573" lon="5.18626">
        <ele>151.8</ele>
        <time>2022-10-16T14:14:37.000Z</time>
      </trkpt>
      <trkpt lat="45.08572" lon="5.18631">
        <ele>151.9</ele>
        <time>2022-10-16T14:14:38.000Z</time>
      </trkpt>
      <trkpt lat="45.0857" lon="5.18635">
        <ele>151.9</ele>
        <time>2022-10-16T14:14:39.000Z</time>
      </trkpt>
      <trkpt lat="45.08569" lon="5.1864">
        <ele>152</ele>
        <time>2022-10-16T14:14:40.000Z</time>
      </trkpt>
      <trkpt lat="45.08568" lon="5.18644">
        <ele>151.9</ele>
        <time>2022-10-16T14:14:41.000Z</time>
      </trkpt>
      <trkpt lat="45.08565" lon="5.18647">
        <ele>151.8</ele>
        <time>2022-10-16T14:14:42.000Z</time>
      </trkpt>
      <trkpt lat="45.08563" lon="5.18648">
        <ele>151.8</ele>
        <time>2022-10-16T14:14:43.000Z</time>
      </trkpt>
      <trkpt lat="45.0856" lon="5.18647">
        <ele>151.8</ele>
        <time>2022-10-16T14:14:44.000Z</time>
      </trkpt>
      <trkpt lat="45.0856" lon="5.18643">
        <ele>151.9</ele>
        <time>2022-10-16T14:14:46.000Z</time>
      </trkpt>
      <trkpt lat="45.08561" lon="5.18641">
        <ele>151.9</ele>
        <time>2022-10-16T14:14:47.000Z</time>
      </trkpt>
      <trkpt lat="45.08562" lon="5.18638">
        <ele>152</ele>
        <time>2022-10-16T14:14:48.000Z</time>
      </trkpt>
      <trkpt lat="45.08562" lon="5.18635">
        <ele>151.9</ele>
        <time>2022-10-16T14:14:49.000Z</time>
      </trkpt>
      <trkpt lat="45.08562" lon="5.18632">
        <ele>151.8</ele>
        <time>2022-10-16T14:14:50.000Z</time>
      </trkpt>
      <trkpt lat="45.08562" lon="5.18628">
        <ele>151.7</ele>
        <time>2022-10-16T14:14:51.000Z</time>
      </trkpt>
      <trkpt lat="45.08563" lon="5.18624">
        <ele>151.6</ele>
        <time>2022-10-16T14:14:52.000Z</time>
      </trkpt>
      <trkpt lat="45.08562" lon="5.18621">
        <ele>151.5</ele>
        <time>2022-10-16T14:14:53.000Z</time>
      </trkpt>
      <trkpt lat="45.08562" lon="5.18618">
        <ele>151.4</ele>
        <time>2022-10-16T14:14:54.000Z</time>
      </trkpt>
      <trkpt lat="45.08562" lon="5.18618">
        <ele>151.4</ele>
        <time>2022-10-16T14:14:54.000Z</time>
      </trkpt>
      <trkpt lat="45.08558" lon="5.18618">
        <ele>151.3</ele>
        <time>2022-10-16T14:24:18.000Z</time>
      </trkpt>
      <trkpt lat="45.08558" lon="5.18618">
        <ele>151.3</ele>
        <time>2022-10-16T14:24:18.000Z</time>
      </trkpt>
      <trkpt lat="45.08565" lon="5.1862">
        <ele>151.6</ele>
        <time>2022-10-16T14:24:27.000Z</time>
      </trkpt>
      <trkpt lat="45.08564" lon="5.18618">
        <ele>151.5</ele>
        <time>2022-10-16T14:24:28.000Z</time>
      </trkpt>
      <trkpt lat="45.08562" lon="5.18618">
        <ele>151.4</ele>
        <time>2022-10-16T14:24:29.000Z</time>
      </trkpt>
      <trkpt lat="45.0856" lon="5.18618">
        <ele>151.4</ele>
        <time>2022-10-16T14:24:30.000Z</time>
      </trkpt>
      <trkpt lat="45.08563" lon="5.18631">
        <ele>151.8</ele>
        <time>2022-10-16T14:24:52.000Z</time>
      </trkpt>
      <trkpt lat="45.08563" lon="5.18634">
        <ele>151.9</ele>
        <time>2022-10-16T14:24:54.000Z</time>
      </trkpt>
      <trkpt lat="45.08563" lon="5.18636">
        <ele>151.9</ele>
        <time>2022-10-16T14:24:55.000Z</time>
      </trkpt>
      <trkpt lat="45.08564" lon="5.18641">
        <ele>152</ele>
        <time>2022-10-16T14:24:57.000Z</time>
      </trkpt>
      <trkpt lat="45.08564" lon="5.18644">
        <ele>151.9</ele>
        <time>2022-10-16T14:24:58.000Z</time>
      </trkpt>
      <trkpt lat="45.08564" lon="5.18647">
        <ele>151.8</ele>
        <time>2022-10-16T14:24:59.000Z</time>
      </trkpt>
      <trkpt lat="45.08565" lon="5.18651">
        <ele>151.7</ele>
        <time>2022-10-16T14:25:00.000Z</time>
      </trkpt>
      <trkpt lat="45.08565" lon="5.18655">
        <ele>151.6</ele>
        <time>2022-10-16T14:25:01.000Z</time>
      </trkpt>
      <trkpt lat="45.08565" lon="5.1866">
        <ele>151.5</ele>
        <time>2022-10-16T14:25:02.000Z</time>
      </trkpt>
      <trkpt lat="45.08564" lon="5.18665">
        <ele>151.4</ele>
        <time>2022-10-16T14:25:03.000Z</time>
      </trkpt>
      <trkpt lat="45.08565" lon="5.18671">
        <ele>151.4</ele>
        <time>2022-10-16T14:25:04.000Z</time>
      </trkpt>
      <trkpt lat="45.08565" lon="5.18676">
        <ele>151.6</ele>
        <time>2022-10-16T14:25:05.000Z</time>
      </trkpt>
      <trkpt lat="45.08565" lon="5.18681">
        <ele>151.7</ele>
        <time>2022-10-16T14:25:06.000Z</time>
      </trkpt>
      <trkpt lat="45.08566" lon="5.18687">
        <ele>151.8</ele>
        <time>2022-10-16T14:25:07.000Z</time>
      </trkpt>
      <trkpt lat="45.08566" lon="5.18692">
        <ele>152</ele>
        <time>2022-10-16T14:25:08.000Z</time>
      </trkpt>
      <trkpt lat="45.08566" lon="5.18698">
        <ele>152</ele>
        <time>2022-10-16T14:25:09.000Z</time>
      </trkpt>
      <trkpt lat="45.08566" lon="5.18704">
        <ele>152</ele>
        <time>2022-10-16T14:25:10.000Z</time>
      </trkpt>
      <trkpt lat="45.08565" lon="5.1871">
        <ele>152</ele>
        <time>2022-10-16T14:25:11.000Z</time>
      </trkpt>
      <trkpt lat="45.08563" lon="5.18715">
        <ele>152</ele>
        <time>2022-10-16T14:25:12.000Z</time>
      </trkpt>
      <trkpt lat="45.08561" lon="5.18721">
        <ele>152</ele>
        <time>2022-10-16T14:25:13.000Z</time>
      </trkpt>
      <trkpt lat="45.08558" lon="5.18726">
        <ele>152</ele>
        <time>2022-10-16T14:25:14.000Z</time>
      </trkpt>
      <trkpt lat="45.08556" lon="5.18732">
        <ele>152</ele>
        <time>2022-10-16T14:25:15.000Z</time>
      </trkpt>
      <trkpt lat="45.08553" lon="5.18737">
        <ele>151.8</ele>
        <time>2022-10-16T14:25:16.000Z</time>
      </trkpt>
      <trkpt lat="45.08551" lon="5.18743">
        <ele>151.7</ele>
        <time>2022-10-16T14:25:17.000Z</time>
      </trkpt>
      <trkpt lat="45.08549" lon="5.18749">
        <ele>151.5</ele>
        <time>2022-10-16T14:25:18.000Z</time>
      </trkpt>
      <trkpt lat="45.08547" lon="5.18755">
        <ele>151.6</ele>
        <time>2022-10-16T14:25:19.000Z</time>
      </trkpt>
      <trkpt lat="45.08546" lon="5.18762">
        <ele>151.7</ele>
        <time>2022-10-16T14:25:20.000Z</time>
      </trkpt>
      <trkpt lat="45.08546" lon="5.18768">
        <ele>151.9</ele>
        <time>2022-10-16T14:25:21.000Z</time>
      </trkpt>
      <trkpt lat="45.08547" lon="5.18774">
        <ele>152.2</ele>
        <time>2022-10-16T14:25:22.000Z</time>
      </trkpt>
      <trkpt lat="45.08548" lon="5.18781">
        <ele>152.4</ele>
        <time>2022-10-16T14:25:23.000Z</time>
      </trkpt>
      <trkpt lat="45.08549" lon="5.18787">
        <ele>152.5</ele>
        <time>2022-10-16T14:25:24.000Z</time>
      </trkpt>
      <trkpt lat="45.08549" lon="5.18794">
        <ele>152.5</ele>
        <time>2022-10-16T14:25:25.000Z</time>
      </trkpt>
      <trkpt lat="45.08548" lon="5.18801">
        <ele>152.5</ele>
        <time>2022-10-16T14:25:26.000Z</time>
      </trkpt>
      <trkpt lat="45.08548" lon="5.18809">
        <ele>152.5</ele>
        <time>2022-10-16T14:25:27.000Z</time>
      </trkpt>
      <trkpt lat="45.08549" lon="5.18816">
        <ele>152.5</ele>
        <time>2022-10-16T14:25:28.000Z</time>
      </trkpt>
      <trkpt lat="45.0855" lon="5.18823">
        <ele>152.6</ele>
        <time>2022-10-16T14:25:29.000Z</time>
      </trkpt>
      <trkpt lat="45.08552" lon="5.18829">
        <ele>152.8</ele>
        <time>2022-10-16T14:25:30.000Z</time>
      </trkpt>
      <trkpt lat="45.08555" lon="5.18834">
        <ele>152.9</ele>
        <time>2022-10-16T14:25:31.000Z</time>
      </trkpt>
      <trkpt lat="45.08557" lon="5.1884">
        <ele>153</ele>
        <time>2022-10-16T14:25:32.000Z</time>
      </trkpt>
      <trkpt lat="45.08559" lon="5.18845">
        <ele>153.1</ele>
        <time>2022-10-16T14:25:33.000Z</time>
      </trkpt>
      <trkpt lat="45.0856" lon="5.18851">
        <ele>153.2</ele>
        <time>2022-10-16T14:25:34.000Z</time>
      </trkpt>
      <trkpt lat="45.08562" lon="5.18857">
        <ele>153.2</ele>
        <time>2022-10-16T14:25:35.000Z</time>
      </trkpt>
      <trkpt lat="45.08562" lon="5.18864">
        <ele>153.2</ele>
        <time>2022-10-16T14:25:36.000Z</time>
      </trkpt>
      <trkpt lat="45.08562" lon="5.18872">
        <ele>153.2</ele>
        <time>2022-10-16T14:25:37.000Z</time>
      </trkpt>
      <trkpt lat="45.08562" lon="5.18879">
        <ele>153.1</ele>
        <time>2022-10-16T14:25:38.000Z</time>
      </trkpt>
      <trkpt lat="45.08561" lon="5.18887">
        <ele>153</ele>
        <time>2022-10-16T14:25:39.000Z</time>
      </trkpt>
      <trkpt lat="45.08561" lon="5.18895">
        <ele>153</ele>
        <time>2022-10-16T14:25:40.000Z</time>
      </trkpt>
      <trkpt lat="45.0856" lon="5.18903">
        <ele>153</ele>
        <time>2022-10-16T14:25:41.000Z</time>
      </trkpt>
      <trkpt lat="45.08559" lon="5.18911">
        <ele>153</ele>
        <time>2022-10-16T14:25:42.000Z</time>
      </trkpt>
      <trkpt lat="45.08558" lon="5.18919">
        <ele>153</ele>
        <time>2022-10-16T14:25:43.000Z</time>
      </trkpt>
      <trkpt lat="45.08558" lon="5.18927">
        <ele>153</ele>
        <time>2022-10-16T14:25:44.000Z</time>
      </trkpt>
      <trkpt lat="45.08557" lon="5.18935">
        <ele>153</ele>
        <time>2022-10-16T14:25:45.000Z</time>
      </trkpt>
      <trkpt lat="45.08556" lon="5.18943">
        <ele>153</ele>
        <time>2022-10-16T14:25:46.000Z</time>
      </trkpt>
      <trkpt lat="45.08556" lon="5.18951">
        <ele>153</ele>
        <time>2022-10-16T14:25:47.000Z</time>
      </trkpt>
      <trkpt lat="45.08555" lon="5.18959">
        <ele>153</ele>
        <time>2022-10-16T14:25:48.000Z</time>
      </trkpt>
      <trkpt lat="45.08555" lon="5.18967">
        <ele>153</ele>
        <time>2022-10-16T14:25:49.000Z</time>
      </trkpt>
      <trkpt lat="45.08554" lon="5.18976">
        <ele>153</ele>
        <time>2022-10-16T14:25:50.000Z</time>
      </trkpt>
      <trkpt lat="45.08554" lon="5.18984">
        <ele>152.9</ele>
        <time>2022-10-16T14:25:51.000Z</time>
      </trkpt>
      <trkpt lat="45.08553" lon="5.18992">
        <ele>152.9</ele>
        <time>2022-10-16T14:25:52.000Z</time>
      </trkpt>
      <trkpt lat="45.08552" lon="5.19">
        <ele>152.9</ele>
        <time>2022-10-16T14:25:53.000Z</time>
      </trkpt>
      <trkpt lat="45.08552" lon="5.19009">
        <ele>152.9</ele>
        <time>2022-10-16T14:25:54.000Z</time>
      </trkpt>
      <trkpt lat="45.08551" lon="5.19017">
        <ele>152.8</ele>
        <time>2022-10-16T14:25:55.000Z</time>
      </trkpt>
      <trkpt lat="45.08551" lon="5.19026">
        <ele>152.8</ele>
        <time>2022-10-16T14:25:56.000Z</time>
      </trkpt>
      <trkpt lat="45.0855" lon="5.19034">
        <ele>153</ele>
        <time>2022-10-16T14:25:57.000Z</time>
      </trkpt>
      <trkpt lat="45.0855" lon="5.19043">
        <ele>153.2</ele>
        <time>2022-10-16T14:25:58.000Z</time>
      </trkpt>
      <trkpt lat="45.08549" lon="5.19051">
        <ele>153.4</ele>
        <time>2022-10-16T14:25:59.000Z</time>
      </trkpt>
      <trkpt lat="45.08549" lon="5.1906">
        <ele>153.6</ele>
        <time>2022-10-16T14:26:00.000Z</time>
      </trkpt>
      <trkpt lat="45.08549" lon="5.19068">
        <ele>153.8</ele>
        <time>2022-10-16T14:26:01.000Z</time>
      </trkpt>
      <trkpt lat="45.08548" lon="5.19076">
        <ele>153.9</ele>
        <time>2022-10-16T14:26:02.000Z</time>
      </trkpt>
      <trkpt lat="45.08547" lon="5.19084">
        <ele>154.1</ele>
        <time>2022-10-16T14:26:03.000Z</time>
      </trkpt>
      <trkpt lat="45.08547" lon="5.19092">
        <ele>154</ele>
        <time>2022-10-16T14:26:04.000Z</time>
      </trkpt>
      <trkpt lat="45.08546" lon="5.191">
        <ele>153.9</ele>
        <time>2022-10-16T14:26:05.000Z</time>
      </trkpt>
      <trkpt lat="45.08545" lon="5.19108">
        <ele>153.8</ele>
        <time>2022-10-16T14:26:06.000Z</time>
      </trkpt>
      <trkpt lat="45.08544" lon="5.19116">
        <ele>153.7</ele>
        <time>2022-10-16T14:26:07.000Z</time>
      </trkpt>
      <trkpt lat="45.08544" lon="5.19125">
        <ele>153.6</ele>
        <time>2022-10-16T14:26:08.000Z</time>
      </trkpt>
      <trkpt lat="45.08543" lon="5.19134">
        <ele>153.6</ele>
        <time>2022-10-16T14:26:09.000Z</time>
      </trkpt>
      <trkpt lat="45.08542" lon="5.19142">
        <ele>153.5</ele>
        <time>2022-10-16T14:26:10.000Z</time>
      </trkpt>
      <trkpt lat="45.08541" lon="5.1915">
        <ele>153.5</ele>
        <time>2022-10-16T14:26:11.000Z</time>
      </trkpt>
      <trkpt lat="45.08541" lon="5.19159">
        <ele>153.5</ele>
        <time>2022-10-16T14:26:12.000Z</time>
      </trkpt>
      <trkpt lat="45.0854" lon="5.19168">
        <ele>153.5</ele>
        <time>2022-10-16T14:26:13.000Z</time>
      </trkpt>
      <trkpt lat="45.0854" lon="5.19177">
        <ele>153.7</ele>
        <time>2022-10-16T14:26:14.000Z</time>
      </trkpt>
      <trkpt lat="45.08539" lon="5.19186">
        <ele>153.9</ele>
        <time>2022-10-16T14:26:15.000Z</time>
      </trkpt>
      <trkpt lat="45.08538" lon="5.19195">
        <ele>154.1</ele>
        <time>2022-10-16T14:26:16.000Z</time>
      </trkpt>
      <trkpt lat="45.08537" lon="5.19203">
        <ele>154</ele>
        <time>2022-10-16T14:26:17.000Z</time>
      </trkpt>
      <trkpt lat="45.08536" lon="5.19212">
        <ele>153.9</ele>
        <time>2022-10-16T14:26:18.000Z</time>
      </trkpt>
      <trkpt lat="45.08535" lon="5.19221">
        <ele>153.8</ele>
        <time>2022-10-16T14:26:19.000Z</time>
      </trkpt>
      <trkpt lat="45.08534" lon="5.19229">
        <ele>153.9</ele>
        <time>2022-10-16T14:26:20.000Z</time>
      </trkpt>
      <trkpt lat="45.08534" lon="5.19238">
        <ele>154.1</ele>
        <time>2022-10-16T14:26:21.000Z</time>
      </trkpt>
      <trkpt lat="45.08533" lon="5.19246">
        <ele>154.2</ele>
        <time>2022-10-16T14:26:22.000Z</time>
      </trkpt>
      <trkpt lat="45.08532" lon="5.19255">
        <ele>154.3</ele>
        <time>2022-10-16T14:26:23.000Z</time>
      </trkpt>
      <trkpt lat="45.08532" lon="5.19262">
        <ele>154.3</ele>
        <time>2022-10-16T14:26:24.000Z</time>
      </trkpt>
      <trkpt lat="45.08531" lon="5.1927">
        <ele>154.3</ele>
        <time>2022-10-16T14:26:25.000Z</time>
      </trkpt>
      <trkpt lat="45.08531" lon="5.19278">
        <ele>154.2</ele>
        <time>2022-10-16T14:26:26.000Z</time>
      </trkpt>
      <trkpt lat="45.08531" lon="5.19287">
        <ele>154.2</ele>
        <time>2022-10-16T14:26:27.000Z</time>
      </trkpt>
      <trkpt lat="45.0853" lon="5.19295">
        <ele>154.2</ele>
        <time>2022-10-16T14:26:28.000Z</time>
      </trkpt>
      <trkpt lat="45.0853" lon="5.19303">
        <ele>154.2</ele>
        <time>2022-10-16T14:26:29.000Z</time>
      </trkpt>
      <trkpt lat="45.08529" lon="5.19312">
        <ele>154.3</ele>
        <time>2022-10-16T14:26:30.000Z</time>
      </trkpt>
      <trkpt lat="45.08529" lon="5.1932">
        <ele>154.6</ele>
        <time>2022-10-16T14:26:31.000Z</time>
      </trkpt>
      <trkpt lat="45.08528" lon="5.19328">
        <ele>154.8</ele>
        <time>2022-10-16T14:26:32.000Z</time>
      </trkpt>
      <trkpt lat="45.08528" lon="5.19335">
        <ele>155</ele>
        <time>2022-10-16T14:26:33.000Z</time>
      </trkpt>
      <trkpt lat="45.08527" lon="5.19343">
        <ele>155</ele>
        <time>2022-10-16T14:26:34.000Z</time>
      </trkpt>
      <trkpt lat="45.08527" lon="5.19351">
        <ele>154.9</ele>
        <time>2022-10-16T14:26:35.000Z</time>
      </trkpt>
      <trkpt lat="45.08526" lon="5.19359">
        <ele>154.9</ele>
        <time>2022-10-16T14:26:36.000Z</time>
      </trkpt>
      <trkpt lat="45.08526" lon="5.19367">
        <ele>155.1</ele>
        <time>2022-10-16T14:26:37.000Z</time>
      </trkpt>
      <trkpt lat="45.08525" lon="5.19375">
        <ele>155.3</ele>
        <time>2022-10-16T14:26:38.000Z</time>
      </trkpt>
      <trkpt lat="45.08525" lon="5.19383">
        <ele>155.5</ele>
        <time>2022-10-16T14:26:39.000Z</time>
      </trkpt>
      <trkpt lat="45.08524" lon="5.19391">
        <ele>155.7</ele>
        <time>2022-10-16T14:26:40.000Z</time>
      </trkpt>
      <trkpt lat="45.08524" lon="5.19399">
        <ele>155.9</ele>
        <time>2022-10-16T14:26:41.000Z</time>
      </trkpt>
      <trkpt lat="45.08523" lon="5.19408">
        <ele>156.1</ele>
        <time>2022-10-16T14:26:42.000Z</time>
      </trkpt>
      <trkpt lat="45.08522" lon="5.19416">
        <ele>156.3</ele>
        <time>2022-10-16T14:26:43.000Z</time>
      </trkpt>
      <trkpt lat="45.08521" lon="5.19424">
        <ele>156.3</ele>
        <time>2022-10-16T14:26:44.000Z</time>
      </trkpt>
      <trkpt lat="45.0852" lon="5.19432">
        <ele>156.2</ele>
        <time>2022-10-16T14:26:45.000Z</time>
      </trkpt>
      <trkpt lat="45.08519" lon="5.1944">
        <ele>156.1</ele>
        <time>2022-10-16T14:26:46.000Z</time>
      </trkpt>
      <trkpt lat="45.08519" lon="5.19447">
        <ele>156</ele>
        <time>2022-10-16T14:26:47.000Z</time>
      </trkpt>
      <trkpt lat="45.08518" lon="5.19454">
        <ele>156.1</ele>
        <time>2022-10-16T14:26:48.000Z</time>
      </trkpt>
      <trkpt lat="45.08518" lon="5.19461">
        <ele>156.1</ele>
        <time>2022-10-16T14:26:49.000Z</time>
      </trkpt>
      <trkpt lat="45.08517" lon="5.19468">
        <ele>156.1</ele>
        <time>2022-10-16T14:26:50.000Z</time>
      </trkpt>
      <trkpt lat="45.08517" lon="5.19474">
        <ele>156.3</ele>
        <time>2022-10-16T14:26:51.000Z</time>
      </trkpt>
      <trkpt lat="45.08516" lon="5.19481">
        <ele>156.6</ele>
        <time>2022-10-16T14:26:52.000Z</time>
      </trkpt>
      <trkpt lat="45.08515" lon="5.19487">
        <ele>156.9</ele>
        <time>2022-10-16T14:26:53.000Z</time>
      </trkpt>
      <trkpt lat="45.08515" lon="5.19494">
        <ele>157.3</ele>
        <time>2022-10-16T14:26:54.000Z</time>
      </trkpt>
      <trkpt lat="45.08514" lon="5.195">
        <ele>157.5</ele>
        <time>2022-10-16T14:26:55.000Z</time>
      </trkpt>
      <trkpt lat="45.08513" lon="5.19506">
        <ele>157.6</ele>
        <time>2022-10-16T14:26:56.000Z</time>
      </trkpt>
      <trkpt lat="45.08513" lon="5.19512">
        <ele>157.8</ele>
        <time>2022-10-16T14:26:57.000Z</time>
      </trkpt>
      <trkpt lat="45.08512" lon="5.19518">
        <ele>158</ele>
        <time>2022-10-16T14:26:58.000Z</time>
      </trkpt>
      <trkpt lat="45.08512" lon="5.19524">
        <ele>158.2</ele>
        <time>2022-10-16T14:26:59.000Z</time>
      </trkpt>
      <trkpt lat="45.08512" lon="5.1953">
        <ele>158.3</ele>
        <time>2022-10-16T14:27:00.000Z</time>
      </trkpt>
      <trkpt lat="45.08511" lon="5.19535">
        <ele>158.5</ele>
        <time>2022-10-16T14:27:01.000Z</time>
      </trkpt>
      <trkpt lat="45.08511" lon="5.19541">
        <ele>158.6</ele>
        <time>2022-10-16T14:27:02.000Z</time>
      </trkpt>
      <trkpt lat="45.08511" lon="5.19547">
        <ele>158.9</ele>
        <time>2022-10-16T14:27:03.000Z</time>
      </trkpt>
      <trkpt lat="45.08511" lon="5.19553">
        <ele>159.1</ele>
        <time>2022-10-16T14:27:04.000Z</time>
      </trkpt>
      <trkpt lat="45.08511" lon="5.19559">
        <ele>159.2</ele>
        <time>2022-10-16T14:27:05.000Z</time>
      </trkpt>
      <trkpt lat="45.08511" lon="5.19565">
        <ele>159.4</ele>
        <time>2022-10-16T14:27:06.000Z</time>
      </trkpt>
      <trkpt lat="45.0851" lon="5.19571">
        <ele>159.5</ele>
        <time>2022-10-16T14:27:07.000Z</time>
      </trkpt>
      <trkpt lat="45.0851" lon="5.19577">
        <ele>159.6</ele>
        <time>2022-10-16T14:27:08.000Z</time>
      </trkpt>
      <trkpt lat="45.0851" lon="5.19583">
        <ele>159.7</ele>
        <time>2022-10-16T14:27:09.000Z</time>
      </trkpt>
      <trkpt lat="45.0851" lon="5.19589">
        <ele>159.7</ele>
        <time>2022-10-16T14:27:10.000Z</time>
      </trkpt>
      <trkpt lat="45.0851" lon="5.19596">
        <ele>159.7</ele>
        <time>2022-10-16T14:27:11.000Z</time>
      </trkpt>
      <trkpt lat="45.0851" lon="5.19602">
        <ele>159.7</ele>
        <time>2022-10-16T14:27:12.000Z</time>
      </trkpt>
      <trkpt lat="45.0851" lon="5.19609">
        <ele>159.7</ele>
        <time>2022-10-16T14:27:13.000Z</time>
      </trkpt>
      <trkpt lat="45.08509" lon="5.19616">
        <ele>159.7</ele>
        <time>2022-10-16T14:27:14.000Z</time>
      </trkpt>
      <trkpt lat="45.08509" lon="5.19623">
        <ele>159.6</ele>
        <time>2022-10-16T14:27:15.000Z</time>
      </trkpt>
      <trkpt lat="45.08509" lon="5.1963">
        <ele>159.6</ele>
        <time>2022-10-16T14:27:16.000Z</time>
      </trkpt>
      <trkpt lat="45.08509" lon="5.19637">
        <ele>159.6</ele>
        <time>2022-10-16T14:27:17.000Z</time>
      </trkpt>
      <trkpt lat="45.08508" lon="5.19644">
        <ele>159.6</ele>
        <time>2022-10-16T14:27:18.000Z</time>
      </trkpt>
      <trkpt lat="45.08508" lon="5.19651">
        <ele>159.7</ele>
        <time>2022-10-16T14:27:19.000Z</time>
      </trkpt>
      <trkpt lat="45.08508" lon="5.19658">
        <ele>159.8</ele>
        <time>2022-10-16T14:27:20.000Z</time>
      </trkpt>
      <trkpt lat="45.08508" lon="5.19666">
        <ele>159.9</ele>
        <time>2022-10-16T14:27:21.000Z</time>
      </trkpt>
      <trkpt lat="45.08508" lon="5.19673">
        <ele>159.7</ele>
        <time>2022-10-16T14:27:22.000Z</time>
      </trkpt>
      <trkpt lat="45.08508" lon="5.19679">
        <ele>159.5</ele>
        <time>2022-10-16T14:27:23.000Z</time>
      </trkpt>
      <trkpt lat="45.08508" lon="5.19685">
        <ele>159.4</ele>
        <time>2022-10-16T14:27:24.000Z</time>
      </trkpt>
      <trkpt lat="45.08508" lon="5.19691">
        <ele>159.3</ele>
        <time>2022-10-16T14:27:25.000Z</time>
      </trkpt>
      <trkpt lat="45.08508" lon="5.19697">
        <ele>159.2</ele>
        <time>2022-10-16T14:27:26.000Z</time>
      </trkpt>
      <trkpt lat="45.08508" lon="5.19703">
        <ele>159.4</ele>
        <time>2022-10-16T14:27:27.000Z</time>
      </trkpt>
      <trkpt lat="45.08508" lon="5.1971">
        <ele>159.5</ele>
        <time>2022-10-16T14:27:28.000Z</time>
      </trkpt>
      <trkpt lat="45.08508" lon="5.19716">
        <ele>159.7</ele>
        <time>2022-10-16T14:27:29.000Z</time>
      </trkpt>
      <trkpt lat="45.08507" lon="5.19724">
        <ele>159.8</ele>
        <time>2022-10-16T14:27:30.000Z</time>
      </trkpt>
      <trkpt lat="45.08507" lon="5.19731">
        <ele>159.9</ele>
        <time>2022-10-16T14:27:31.000Z</time>
      </trkpt>
      <trkpt lat="45.08507" lon="5.19738">
        <ele>159.9</ele>
        <time>2022-10-16T14:27:32.000Z</time>
      </trkpt>
      <trkpt lat="45.08507" lon="5.19746">
        <ele>159.9</ele>
        <time>2022-10-16T14:27:33.000Z</time>
      </trkpt>
      <trkpt lat="45.08506" lon="5.19753">
        <ele>160</ele>
        <time>2022-10-16T14:27:34.000Z</time>
      </trkpt>
      <trkpt lat="45.08506" lon="5.19761">
        <ele>160.3</ele>
        <time>2022-10-16T14:27:35.000Z</time>
      </trkpt>
      <trkpt lat="45.08506" lon="5.19768">
        <ele>160.5</ele>
        <time>2022-10-16T14:27:36.000Z</time>
      </trkpt>
      <trkpt lat="45.08506" lon="5.19776">
        <ele>160.8</ele>
        <time>2022-10-16T14:27:37.000Z</time>
      </trkpt>
      <trkpt lat="45.08506" lon="5.19783">
        <ele>160.9</ele>
        <time>2022-10-16T14:27:38.000Z</time>
      </trkpt>
      <trkpt lat="45.08505" lon="5.1979">
        <ele>161.1</ele>
        <time>2022-10-16T14:27:39.000Z</time>
      </trkpt>
      <trkpt lat="45.08505" lon="5.19798">
        <ele>161.3</ele>
        <time>2022-10-16T14:27:40.000Z</time>
      </trkpt>
      <trkpt lat="45.08505" lon="5.19805">
        <ele>161.5</ele>
        <time>2022-10-16T14:27:41.000Z</time>
      </trkpt>
      <trkpt lat="45.08505" lon="5.19813">
        <ele>161.6</ele>
        <time>2022-10-16T14:27:42.000Z</time>
      </trkpt>
      <trkpt lat="45.08505" lon="5.1982">
        <ele>161.7</ele>
        <time>2022-10-16T14:27:43.000Z</time>
      </trkpt>
      <trkpt lat="45.08506" lon="5.19828">
        <ele>161.8</ele>
        <time>2022-10-16T14:27:44.000Z</time>
      </trkpt>
      <trkpt lat="45.08506" lon="5.19835">
        <ele>161.8</ele>
        <time>2022-10-16T14:27:45.000Z</time>
      </trkpt>
      <trkpt lat="45.08506" lon="5.19843">
        <ele>161.8</ele>
        <time>2022-10-16T14:27:46.000Z</time>
      </trkpt>
      <trkpt lat="45.08505" lon="5.19851">
        <ele>161.8</ele>
        <time>2022-10-16T14:27:47.000Z</time>
      </trkpt>
      <trkpt lat="45.08505" lon="5.19858">
        <ele>161.7</ele>
        <time>2022-10-16T14:27:48.000Z</time>
      </trkpt>
      <trkpt lat="45.08505" lon="5.19866">
        <ele>161.7</ele>
        <time>2022-10-16T14:27:49.000Z</time>
      </trkpt>
      <trkpt lat="45.08505" lon="5.19874">
        <ele>161.8</ele>
        <time>2022-10-16T14:27:50.000Z</time>
      </trkpt>
      <trkpt lat="45.08505" lon="5.19882">
        <ele>161.8</ele>
        <time>2022-10-16T14:27:51.000Z</time>
      </trkpt>
      <trkpt lat="45.08505" lon="5.19891">
        <ele>161.9</ele>
        <time>2022-10-16T14:27:52.000Z</time>
      </trkpt>
      <trkpt lat="45.08505" lon="5.19899">
        <ele>162.1</ele>
        <time>2022-10-16T14:27:53.000Z</time>
      </trkpt>
      <trkpt lat="45.08505" lon="5.19908">
        <ele>162.3</ele>
        <time>2022-10-16T14:27:54.000Z</time>
      </trkpt>
      <trkpt lat="45.08505" lon="5.19916">
        <ele>162.5</ele>
        <time>2022-10-16T14:27:55.000Z</time>
      </trkpt>
      <trkpt lat="45.08505" lon="5.19923">
        <ele>162.6</ele>
        <time>2022-10-16T14:27:56.000Z</time>
      </trkpt>
      <trkpt lat="45.08506" lon="5.19931">
        <ele>162.6</ele>
        <time>2022-10-16T14:27:57.000Z</time>
      </trkpt>
      <trkpt lat="45.08506" lon="5.19939">
        <ele>162.6</ele>
        <time>2022-10-16T14:27:58.000Z</time>
      </trkpt>
      <trkpt lat="45.08506" lon="5.19946">
        <ele>162.5</ele>
        <time>2022-10-16T14:27:59.000Z</time>
      </trkpt>
      <trkpt lat="45.08505" lon="5.19953">
        <ele>162</ele>
        <time>2022-10-16T14:28:00.000Z</time>
      </trkpt>
      <trkpt lat="45.08505" lon="5.19961">
        <ele>161.5</ele>
        <time>2022-10-16T14:28:01.000Z</time>
      </trkpt>
      <trkpt lat="45.08505" lon="5.19968">
        <ele>161</ele>
        <time>2022-10-16T14:28:02.000Z</time>
      </trkpt>
      <trkpt lat="45.08505" lon="5.19977">
        <ele>160.9</ele>
        <time>2022-10-16T14:28:03.000Z</time>
      </trkpt>
      <trkpt lat="45.08505" lon="5.19984">
        <ele>161.1</ele>
        <time>2022-10-16T14:28:04.000Z</time>
      </trkpt>
      <trkpt lat="45.08505" lon="5.19992">
        <ele>161.3</ele>
        <time>2022-10-16T14:28:05.000Z</time>
      </trkpt>
      <trkpt lat="45.08505" lon="5.2">
        <ele>161.6</ele>
        <time>2022-10-16T14:28:06.000Z</time>
      </trkpt>
      <trkpt lat="45.08505" lon="5.20008">
        <ele>161.6</ele>
        <time>2022-10-16T14:28:07.000Z</time>
      </trkpt>
      <trkpt lat="45.08505" lon="5.20016">
        <ele>161.7</ele>
        <time>2022-10-16T14:28:08.000Z</time>
      </trkpt>
      <trkpt lat="45.08505" lon="5.20024">
        <ele>161.7</ele>
        <time>2022-10-16T14:28:09.000Z</time>
      </trkpt>
      <trkpt lat="45.08506" lon="5.20032">
        <ele>161.8</ele>
        <time>2022-10-16T14:28:10.000Z</time>
      </trkpt>
      <trkpt lat="45.08506" lon="5.2004">
        <ele>161.8</ele>
        <time>2022-10-16T14:28:11.000Z</time>
      </trkpt>
      <trkpt lat="45.08506" lon="5.20048">
        <ele>161.8</ele>
        <time>2022-10-16T14:28:12.000Z</time>
      </trkpt>
      <trkpt lat="45.08506" lon="5.20057">
        <ele>161.9</ele>
        <time>2022-10-16T14:28:13.000Z</time>
      </trkpt>
      <trkpt lat="45.08506" lon="5.20065">
        <ele>162.1</ele>
        <time>2022-10-16T14:28:14.000Z</time>
      </trkpt>
      <trkpt lat="45.08506" lon="5.20073">
        <ele>162.4</ele>
        <time>2022-10-16T14:28:15.000Z</time>
      </trkpt>
      <trkpt lat="45.08506" lon="5.20082">
        <ele>162.6</ele>
        <time>2022-10-16T14:28:16.000Z</time>
      </trkpt>
      <trkpt lat="45.08506" lon="5.2009">
        <ele>162.6</ele>
        <time>2022-10-16T14:28:17.000Z</time>
      </trkpt>
      <trkpt lat="45.08507" lon="5.20098">
        <ele>162.6</ele>
        <time>2022-10-16T14:28:18.000Z</time>
      </trkpt>
      <trkpt lat="45.08507" lon="5.20106">
        <ele>162.5</ele>
        <time>2022-10-16T14:28:19.000Z</time>
      </trkpt>
      <trkpt lat="45.08507" lon="5.20114">
        <ele>162.5</ele>
        <time>2022-10-16T14:28:20.000Z</time>
      </trkpt>
      <trkpt lat="45.08507" lon="5.20122">
        <ele>162.5</ele>
        <time>2022-10-16T14:28:21.000Z</time>
      </trkpt>
      <trkpt lat="45.08507" lon="5.2013">
        <ele>162.5</ele>
        <time>2022-10-16T14:28:22.000Z</time>
      </trkpt>
      <trkpt lat="45.08507" lon="5.20137">
        <ele>162.5</ele>
        <time>2022-10-16T14:28:23.000Z</time>
      </trkpt>
      <trkpt lat="45.08507" lon="5.20145">
        <ele>162.4</ele>
        <time>2022-10-16T14:28:24.000Z</time>
      </trkpt>
      <trkpt lat="45.08507" lon="5.20153">
        <ele>162.4</ele>
        <time>2022-10-16T14:28:25.000Z</time>
      </trkpt>
      <trkpt lat="45.08507" lon="5.2016">
        <ele>162.3</ele>
        <time>2022-10-16T14:28:26.000Z</time>
      </trkpt>
      <trkpt lat="45.08507" lon="5.20168">
        <ele>162.3</ele>
        <time>2022-10-16T14:28:27.000Z</time>
      </trkpt>
      <trkpt lat="45.08507" lon="5.20176">
        <ele>162.3</ele>
        <time>2022-10-16T14:28:28.000Z</time>
      </trkpt>
      <trkpt lat="45.08507" lon="5.20184">
        <ele>162.3</ele>
        <time>2022-10-16T14:28:29.000Z</time>
      </trkpt>
      <trkpt lat="45.08507" lon="5.20192">
        <ele>162.3</ele>
        <time>2022-10-16T14:28:30.000Z</time>
      </trkpt>
      <trkpt lat="45.08507" lon="5.202">
        <ele>162.3</ele>
        <time>2022-10-16T14:28:31.000Z</time>
      </trkpt>
      <trkpt lat="45.08507" lon="5.20207">
        <ele>162.3</ele>
        <time>2022-10-16T14:28:32.000Z</time>
      </trkpt>
      <trkpt lat="45.08507" lon="5.20215">
        <ele>162.3</ele>
        <time>2022-10-16T14:28:33.000Z</time>
      </trkpt>
      <trkpt lat="45.08508" lon="5.20224">
        <ele>162.2</ele>
        <time>2022-10-16T14:28:34.000Z</time>
      </trkpt>
      <trkpt lat="45.08508" lon="5.20232">
        <ele>162</ele>
        <time>2022-10-16T14:28:35.000Z</time>
      </trkpt>
      <trkpt lat="45.08508" lon="5.2024">
        <ele>161.8</ele>
        <time>2022-10-16T14:28:36.000Z</time>
      </trkpt>
      <trkpt lat="45.08508" lon="5.20248">
        <ele>161.7</ele>
        <time>2022-10-16T14:28:37.000Z</time>
      </trkpt>
      <trkpt lat="45.08508" lon="5.20256">
        <ele>161.7</ele>
        <time>2022-10-16T14:28:38.000Z</time>
      </trkpt>
      <trkpt lat="45.08509" lon="5.20264">
        <ele>161.8</ele>
        <time>2022-10-16T14:28:39.000Z</time>
      </trkpt>
      <trkpt lat="45.08509" lon="5.20273">
        <ele>161.9</ele>
        <time>2022-10-16T14:28:40.000Z</time>
      </trkpt>
      <trkpt lat="45.08509" lon="5.20281">
        <ele>161.9</ele>
        <time>2022-10-16T14:28:41.000Z</time>
      </trkpt>
      <trkpt lat="45.08509" lon="5.20289">
        <ele>161.7</ele>
        <time>2022-10-16T14:28:42.000Z</time>
      </trkpt>
      <trkpt lat="45.08509" lon="5.20297">
        <ele>161.5</ele>
        <time>2022-10-16T14:28:43.000Z</time>
      </trkpt>
      <trkpt lat="45.0851" lon="5.20305">
        <ele>161.4</ele>
        <time>2022-10-16T14:28:44.000Z</time>
      </trkpt>
      <trkpt lat="45.0851" lon="5.20314">
        <ele>161.8</ele>
        <time>2022-10-16T14:28:45.000Z</time>
      </trkpt>
      <trkpt lat="45.0851" lon="5.20322">
        <ele>162.2</ele>
        <time>2022-10-16T14:28:46.000Z</time>
      </trkpt>
      <trkpt lat="45.0851" lon="5.20331">
        <ele>162.6</ele>
        <time>2022-10-16T14:28:47.000Z</time>
      </trkpt>
      <trkpt lat="45.0851" lon="5.2034">
        <ele>162.7</ele>
        <time>2022-10-16T14:28:48.000Z</time>
      </trkpt>
      <trkpt lat="45.0851" lon="5.20348">
        <ele>162.7</ele>
        <time>2022-10-16T14:28:49.000Z</time>
      </trkpt>
      <trkpt lat="45.0851" lon="5.20357">
        <ele>162.7</ele>
        <time>2022-10-16T14:28:50.000Z</time>
      </trkpt>
      <trkpt lat="45.0851" lon="5.20366">
        <ele>162.7</ele>
        <time>2022-10-16T14:28:51.000Z</time>
      </trkpt>
      <trkpt lat="45.0851" lon="5.20375">
        <ele>162.7</ele>
        <time>2022-10-16T14:28:52.000Z</time>
      </trkpt>
      <trkpt lat="45.0851" lon="5.20383">
        <ele>162.7</ele>
        <time>2022-10-16T14:28:53.000Z</time>
      </trkpt>
      <trkpt lat="45.08511" lon="5.20392">
        <ele>162.9</ele>
        <time>2022-10-16T14:28:54.000Z</time>
      </trkpt>
      <trkpt lat="45.08511" lon="5.204">
        <ele>163.2</ele>
        <time>2022-10-16T14:28:55.000Z</time>
      </trkpt>
      <trkpt lat="45.08511" lon="5.20409">
        <ele>163.5</ele>
        <time>2022-10-16T14:28:56.000Z</time>
      </trkpt>
      <trkpt lat="45.08511" lon="5.20417">
        <ele>163.8</ele>
        <time>2022-10-16T14:28:57.000Z</time>
      </trkpt>
      <trkpt lat="45.08512" lon="5.20425">
        <ele>163.2</ele>
        <time>2022-10-16T14:28:58.000Z</time>
      </trkpt>
      <trkpt lat="45.08512" lon="5.20433">
        <ele>162.5</ele>
        <time>2022-10-16T14:28:59.000Z</time>
      </trkpt>
      <trkpt lat="45.08512" lon="5.20441">
        <ele>161.9</ele>
        <time>2022-10-16T14:29:00.000Z</time>
      </trkpt>
      <trkpt lat="45.08512" lon="5.20449">
        <ele>161.3</ele>
        <time>2022-10-16T14:29:01.000Z</time>
      </trkpt>
      <trkpt lat="45.08512" lon="5.20457">
        <ele>160.9</ele>
        <time>2022-10-16T14:29:02.000Z</time>
      </trkpt>
      <trkpt lat="45.08512" lon="5.20465">
        <ele>160.4</ele>
        <time>2022-10-16T14:29:03.000Z</time>
      </trkpt>
      <trkpt lat="45.08513" lon="5.20473">
        <ele>160.1</ele>
        <time>2022-10-16T14:29:04.000Z</time>
      </trkpt>
      <trkpt lat="45.08513" lon="5.20482">
        <ele>160.7</ele>
        <time>2022-10-16T14:29:05.000Z</time>
      </trkpt>
      <trkpt lat="45.08513" lon="5.20491">
        <ele>161.2</ele>
        <time>2022-10-16T14:29:06.000Z</time>
      </trkpt>
      <trkpt lat="45.08513" lon="5.20499">
        <ele>161.6</ele>
        <time>2022-10-16T14:29:07.000Z</time>
      </trkpt>
      <trkpt lat="45.08513" lon="5.20508">
        <ele>162</ele>
        <time>2022-10-16T14:29:08.000Z</time>
      </trkpt>
      <trkpt lat="45.08513" lon="5.20518">
        <ele>162.3</ele>
        <time>2022-10-16T14:29:09.000Z</time>
      </trkpt>
      <trkpt lat="45.08513" lon="5.20527">
        <ele>162.6</ele>
        <time>2022-10-16T14:29:10.000Z</time>
      </trkpt>
      <trkpt lat="45.08513" lon="5.20535">
        <ele>162.8</ele>
        <time>2022-10-16T14:29:11.000Z</time>
      </trkpt>
      <trkpt lat="45.08513" lon="5.20543">
        <ele>162.9</ele>
        <time>2022-10-16T14:29:12.000Z</time>
      </trkpt>
      <trkpt lat="45.08514" lon="5.20551">
        <ele>163</ele>
        <time>2022-10-16T14:29:13.000Z</time>
      </trkpt>
      <trkpt lat="45.08514" lon="5.20558">
        <ele>163.1</ele>
        <time>2022-10-16T14:29:14.000Z</time>
      </trkpt>
      <trkpt lat="45.08514" lon="5.20565">
        <ele>163.2</ele>
        <time>2022-10-16T14:29:15.000Z</time>
      </trkpt>
      <trkpt lat="45.08514" lon="5.20573">
        <ele>163.4</ele>
        <time>2022-10-16T14:29:16.000Z</time>
      </trkpt>
      <trkpt lat="45.08515" lon="5.20581">
        <ele>163.6</ele>
        <time>2022-10-16T14:29:17.000Z</time>
      </trkpt>
      <trkpt lat="45.08515" lon="5.20589">
        <ele>163.7</ele>
        <time>2022-10-16T14:29:18.000Z</time>
      </trkpt>
      <trkpt lat="45.08515" lon="5.20597">
        <ele>163.7</ele>
        <time>2022-10-16T14:29:19.000Z</time>
      </trkpt>
      <trkpt lat="45.08515" lon="5.20605">
        <ele>163.7</ele>
        <time>2022-10-16T14:29:20.000Z</time>
      </trkpt>
      <trkpt lat="45.08514" lon="5.20613">
        <ele>163.6</ele>
        <time>2022-10-16T14:29:21.000Z</time>
      </trkpt>
      <trkpt lat="45.08514" lon="5.20622">
        <ele>163.5</ele>
        <time>2022-10-16T14:29:22.000Z</time>
      </trkpt>
      <trkpt lat="45.08514" lon="5.20631">
        <ele>163.6</ele>
        <time>2022-10-16T14:29:23.000Z</time>
      </trkpt>
      <trkpt lat="45.08514" lon="5.2064">
        <ele>163.6</ele>
        <time>2022-10-16T14:29:24.000Z</time>
      </trkpt>
      <trkpt lat="45.08514" lon="5.20649">
        <ele>163.4</ele>
        <time>2022-10-16T14:29:25.000Z</time>
      </trkpt>
      <trkpt lat="45.08515" lon="5.20658">
        <ele>163.3</ele>
        <time>2022-10-16T14:29:26.000Z</time>
      </trkpt>
      <trkpt lat="45.08515" lon="5.20667">
        <ele>163.2</ele>
        <time>2022-10-16T14:29:27.000Z</time>
      </trkpt>
      <trkpt lat="45.08516" lon="5.20676">
        <ele>163.1</ele>
        <time>2022-10-16T14:29:28.000Z</time>
      </trkpt>
      <trkpt lat="45.08516" lon="5.20684">
        <ele>162.9</ele>
        <time>2022-10-16T14:29:29.000Z</time>
      </trkpt>
      <trkpt lat="45.08516" lon="5.20693">
        <ele>162.6</ele>
        <time>2022-10-16T14:29:30.000Z</time>
      </trkpt>
      <trkpt lat="45.08516" lon="5.20701">
        <ele>162.6</ele>
        <time>2022-10-16T14:29:31.000Z</time>
      </trkpt>
      <trkpt lat="45.08516" lon="5.20709">
        <ele>162.8</ele>
        <time>2022-10-16T14:29:32.000Z</time>
      </trkpt>
      <trkpt lat="45.08516" lon="5.20717">
        <ele>163.1</ele>
        <time>2022-10-16T14:29:33.000Z</time>
      </trkpt>
      <trkpt lat="45.08516" lon="5.20726">
        <ele>163.3</ele>
        <time>2022-10-16T14:29:34.000Z</time>
      </trkpt>
      <trkpt lat="45.08516" lon="5.20733">
        <ele>163.5</ele>
        <time>2022-10-16T14:29:35.000Z</time>
      </trkpt>
      <trkpt lat="45.08516" lon="5.20741">
        <ele>163.8</ele>
        <time>2022-10-16T14:29:36.000Z</time>
      </trkpt>
      <trkpt lat="45.08516" lon="5.20749">
        <ele>164</ele>
        <time>2022-10-16T14:29:37.000Z</time>
      </trkpt>
      <trkpt lat="45.08517" lon="5.20757">
        <ele>163.7</ele>
        <time>2022-10-16T14:29:38.000Z</time>
      </trkpt>
      <trkpt lat="45.08517" lon="5.20765">
        <ele>163.2</ele>
        <time>2022-10-16T14:29:39.000Z</time>
      </trkpt>
      <trkpt lat="45.08517" lon="5.20772">
        <ele>162.6</ele>
        <time>2022-10-16T14:29:40.000Z</time>
      </trkpt>
      <trkpt lat="45.08517" lon="5.2078">
        <ele>162</ele>
        <time>2022-10-16T14:29:41.000Z</time>
      </trkpt>
      <trkpt lat="45.08517" lon="5.20788">
        <ele>161.4</ele>
        <time>2022-10-16T14:29:42.000Z</time>
      </trkpt>
      <trkpt lat="45.08518" lon="5.20796">
        <ele>160.8</ele>
        <time>2022-10-16T14:29:43.000Z</time>
      </trkpt>
      <trkpt lat="45.08518" lon="5.20804">
        <ele>160.1</ele>
        <time>2022-10-16T14:29:44.000Z</time>
      </trkpt>
      <trkpt lat="45.08517" lon="5.20813">
        <ele>159.8</ele>
        <time>2022-10-16T14:29:45.000Z</time>
      </trkpt>
      <trkpt lat="45.08517" lon="5.20821">
        <ele>159.6</ele>
        <time>2022-10-16T14:29:46.000Z</time>
      </trkpt>
      <trkpt lat="45.08517" lon="5.20829">
        <ele>159.4</ele>
        <time>2022-10-16T14:29:47.000Z</time>
      </trkpt>
      <trkpt lat="45.08517" lon="5.20837">
        <ele>159.4</ele>
        <time>2022-10-16T14:29:48.000Z</time>
      </trkpt>
      <trkpt lat="45.08518" lon="5.20845">
        <ele>159.5</ele>
        <time>2022-10-16T14:29:49.000Z</time>
      </trkpt>
      <trkpt lat="45.08518" lon="5.20852">
        <ele>159.5</ele>
        <time>2022-10-16T14:29:50.000Z</time>
      </trkpt>
      <trkpt lat="45.08518" lon="5.2086">
        <ele>159.5</ele>
        <time>2022-10-16T14:29:51.000Z</time>
      </trkpt>
      <trkpt lat="45.08518" lon="5.20868">
        <ele>158.5</ele>
        <time>2022-10-16T14:29:52.000Z</time>
      </trkpt>
      <trkpt lat="45.08519" lon="5.20875">
        <ele>157.4</ele>
        <time>2022-10-16T14:29:53.000Z</time>
      </trkpt>
      <trkpt lat="45.08519" lon="5.20882">
        <ele>156.1</ele>
        <time>2022-10-16T14:29:54.000Z</time>
      </trkpt>
      <trkpt lat="45.08519" lon="5.2089">
        <ele>154.9</ele>
        <time>2022-10-16T14:29:55.000Z</time>
      </trkpt>
      <trkpt lat="45.0852" lon="5.20898">
        <ele>154</ele>
        <time>2022-10-16T14:29:56.000Z</time>
      </trkpt>
      <trkpt lat="45.0852" lon="5.20906">
        <ele>153.1</ele>
        <time>2022-10-16T14:29:57.000Z</time>
      </trkpt>
      <trkpt lat="45.0852" lon="5.20914">
        <ele>152.1</ele>
        <time>2022-10-16T14:29:58.000Z</time>
      </trkpt>
      <trkpt lat="45.0852" lon="5.20922">
        <ele>153</ele>
        <time>2022-10-16T14:29:59.000Z</time>
      </trkpt>
      <trkpt lat="45.08521" lon="5.2093">
        <ele>155</ele>
        <time>2022-10-16T14:30:00.000Z</time>
      </trkpt>
      <trkpt lat="45.08521" lon="5.20938">
        <ele>157</ele>
        <time>2022-10-16T14:30:01.000Z</time>
      </trkpt>
      <trkpt lat="45.08521" lon="5.20945">
        <ele>158.8</ele>
        <time>2022-10-16T14:30:02.000Z</time>
      </trkpt>
      <trkpt lat="45.08521" lon="5.20953">
        <ele>159.6</ele>
        <time>2022-10-16T14:30:03.000Z</time>
      </trkpt>
      <trkpt lat="45.08521" lon="5.2096">
        <ele>160.3</ele>
        <time>2022-10-16T14:30:04.000Z</time>
      </trkpt>
      <trkpt lat="45.08521" lon="5.20967">
        <ele>161</ele>
        <time>2022-10-16T14:30:05.000Z</time>
      </trkpt>
      <trkpt lat="45.08521" lon="5.20973">
        <ele>161.7</ele>
        <time>2022-10-16T14:30:06.000Z</time>
      </trkpt>
      <trkpt lat="45.08521" lon="5.2098">
        <ele>162.3</ele>
        <time>2022-10-16T14:30:07.000Z</time>
      </trkpt>
      <trkpt lat="45.0852" lon="5.20986">
        <ele>162.9</ele>
        <time>2022-10-16T14:30:08.000Z</time>
      </trkpt>
      <trkpt lat="45.0852" lon="5.20993">
        <ele>163.4</ele>
        <time>2022-10-16T14:30:09.000Z</time>
      </trkpt>
      <trkpt lat="45.08519" lon="5.20999">
        <ele>163.9</ele>
        <time>2022-10-16T14:30:10.000Z</time>
      </trkpt>
      <trkpt lat="45.08518" lon="5.21005">
        <ele>164.5</ele>
        <time>2022-10-16T14:30:11.000Z</time>
      </trkpt>
      <trkpt lat="45.08517" lon="5.21012">
        <ele>165.1</ele>
        <time>2022-10-16T14:30:12.000Z</time>
      </trkpt>
      <trkpt lat="45.08517" lon="5.21018">
        <ele>165.5</ele>
        <time>2022-10-16T14:30:13.000Z</time>
      </trkpt>
      <trkpt lat="45.08515" lon="5.21024">
        <ele>165.9</ele>
        <time>2022-10-16T14:30:14.000Z</time>
      </trkpt>
      <trkpt lat="45.08514" lon="5.21029">
        <ele>166.3</ele>
        <time>2022-10-16T14:30:15.000Z</time>
      </trkpt>
      <trkpt lat="45.08513" lon="5.21035">
        <ele>166.7</ele>
        <time>2022-10-16T14:30:16.000Z</time>
      </trkpt>
      <trkpt lat="45.08512" lon="5.2104">
        <ele>167</ele>
        <time>2022-10-16T14:30:17.000Z</time>
      </trkpt>
      <trkpt lat="45.0851" lon="5.21045">
        <ele>167.1</ele>
        <time>2022-10-16T14:30:18.000Z</time>
      </trkpt>
      <trkpt lat="45.08509" lon="5.2105">
        <ele>167.3</ele>
        <time>2022-10-16T14:30:19.000Z</time>
      </trkpt>
      <trkpt lat="45.08508" lon="5.21054">
        <ele>167.4</ele>
        <time>2022-10-16T14:30:20.000Z</time>
      </trkpt>
      <trkpt lat="45.08507" lon="5.21059">
        <ele>167.4</ele>
        <time>2022-10-16T14:30:21.000Z</time>
      </trkpt>
      <trkpt lat="45.08505" lon="5.21063">
        <ele>167.5</ele>
        <time>2022-10-16T14:30:22.000Z</time>
      </trkpt>
      <trkpt lat="45.08504" lon="5.21067">
        <ele>167.5</ele>
        <time>2022-10-16T14:30:23.000Z</time>
      </trkpt>
      <trkpt lat="45.08503" lon="5.21071">
        <ele>167.6</ele>
        <time>2022-10-16T14:30:24.000Z</time>
      </trkpt>
      <trkpt lat="45.08501" lon="5.21075">
        <ele>167.5</ele>
        <time>2022-10-16T14:30:25.000Z</time>
      </trkpt>
      <trkpt lat="45.085" lon="5.21079">
        <ele>167.5</ele>
        <time>2022-10-16T14:30:26.000Z</time>
      </trkpt>
      <trkpt lat="45.08498" lon="5.21084">
        <ele>167.5</ele>
        <time>2022-10-16T14:30:27.000Z</time>
      </trkpt>
      <trkpt lat="45.08497" lon="5.21088">
        <ele>167.3</ele>
        <time>2022-10-16T14:30:28.000Z</time>
      </trkpt>
      <trkpt lat="45.08495" lon="5.21092">
        <ele>167</ele>
        <time>2022-10-16T14:30:29.000Z</time>
      </trkpt>
      <trkpt lat="45.08494" lon="5.21096">
        <ele>166.8</ele>
        <time>2022-10-16T14:30:30.000Z</time>
      </trkpt>
      <trkpt lat="45.08493" lon="5.21101">
        <ele>166.6</ele>
        <time>2022-10-16T14:30:31.000Z</time>
      </trkpt>
      <trkpt lat="45.08491" lon="5.21105">
        <ele>166.4</ele>
        <time>2022-10-16T14:30:32.000Z</time>
      </trkpt>
      <trkpt lat="45.0849" lon="5.21109">
        <ele>166.3</ele>
        <time>2022-10-16T14:30:33.000Z</time>
      </trkpt>
      <trkpt lat="45.08488" lon="5.21113">
        <ele>166.3</ele>
        <time>2022-10-16T14:30:34.000Z</time>
      </trkpt>
      <trkpt lat="45.08487" lon="5.21117">
        <ele>166.6</ele>
        <time>2022-10-16T14:30:35.000Z</time>
      </trkpt>
      <trkpt lat="45.08485" lon="5.21121">
        <ele>166.9</ele>
        <time>2022-10-16T14:30:36.000Z</time>
      </trkpt>
      <trkpt lat="45.08484" lon="5.21125">
        <ele>167.3</ele>
        <time>2022-10-16T14:30:37.000Z</time>
      </trkpt>
      <trkpt lat="45.08482" lon="5.21129">
        <ele>167.7</ele>
        <time>2022-10-16T14:30:38.000Z</time>
      </trkpt>
      <trkpt lat="45.08481" lon="5.21134">
        <ele>168.3</ele>
        <time>2022-10-16T14:30:39.000Z</time>
      </trkpt>
      <trkpt lat="45.0848" lon="5.21138">
        <ele>168.9</ele>
        <time>2022-10-16T14:30:40.000Z</time>
      </trkpt>
      <trkpt lat="45.08478" lon="5.21143">
        <ele>169.2</ele>
        <time>2022-10-16T14:30:41.000Z</time>
      </trkpt>
      <trkpt lat="45.08477" lon="5.21147">
        <ele>169.4</ele>
        <time>2022-10-16T14:30:42.000Z</time>
      </trkpt>
      <trkpt lat="45.08476" lon="5.21151">
        <ele>169.6</ele>
        <time>2022-10-16T14:30:43.000Z</time>
      </trkpt>
      <trkpt lat="45.08476" lon="5.21155">
        <ele>169.8</ele>
        <time>2022-10-16T14:30:44.000Z</time>
      </trkpt>
      <trkpt lat="45.08475" lon="5.2116">
        <ele>170</ele>
        <time>2022-10-16T14:30:45.000Z</time>
      </trkpt>
      <trkpt lat="45.08474" lon="5.21164">
        <ele>170.3</ele>
        <time>2022-10-16T14:30:46.000Z</time>
      </trkpt>
      <trkpt lat="45.08474" lon="5.21169">
        <ele>170.5</ele>
        <time>2022-10-16T14:30:47.000Z</time>
      </trkpt>
      <trkpt lat="45.08473" lon="5.21173">
        <ele>170.7</ele>
        <time>2022-10-16T14:30:48.000Z</time>
      </trkpt>
      <trkpt lat="45.08473" lon="5.21178">
        <ele>171</ele>
        <time>2022-10-16T14:30:49.000Z</time>
      </trkpt>
      <trkpt lat="45.08473" lon="5.21183">
        <ele>171.4</ele>
        <time>2022-10-16T14:30:50.000Z</time>
      </trkpt>
      <trkpt lat="45.08474" lon="5.21187">
        <ele>171.8</ele>
        <time>2022-10-16T14:30:51.000Z</time>
      </trkpt>
      <trkpt lat="45.08475" lon="5.21191">
        <ele>172.3</ele>
        <time>2022-10-16T14:30:52.000Z</time>
      </trkpt>
      <trkpt lat="45.08476" lon="5.21196">
        <ele>172.8</ele>
        <time>2022-10-16T14:30:53.000Z</time>
      </trkpt>
      <trkpt lat="45.08477" lon="5.212">
        <ele>173.3</ele>
        <time>2022-10-16T14:30:54.000Z</time>
      </trkpt>
      <trkpt lat="45.08479" lon="5.21204">
        <ele>173.7</ele>
        <time>2022-10-16T14:30:55.000Z</time>
      </trkpt>
      <trkpt lat="45.0848" lon="5.21209">
        <ele>173.9</ele>
        <time>2022-10-16T14:30:56.000Z</time>
      </trkpt>
      <trkpt lat="45.08481" lon="5.21214">
        <ele>174</ele>
        <time>2022-10-16T14:30:57.000Z</time>
      </trkpt>
      <trkpt lat="45.08482" lon="5.21219">
        <ele>174</ele>
        <time>2022-10-16T14:30:58.000Z</time>
      </trkpt>
      <trkpt lat="45.08484" lon="5.21224">
        <ele>174.2</ele>
        <time>2022-10-16T14:30:59.000Z</time>
      </trkpt>
      <trkpt lat="45.08485" lon="5.21229">
        <ele>174.5</ele>
        <time>2022-10-16T14:31:00.000Z</time>
      </trkpt>
      <trkpt lat="45.08486" lon="5.21233">
        <ele>174.8</ele>
        <time>2022-10-16T14:31:01.000Z</time>
      </trkpt>
      <trkpt lat="45.08486" lon="5.21239">
        <ele>175.2</ele>
        <time>2022-10-16T14:31:02.000Z</time>
      </trkpt>
      <trkpt lat="45.08487" lon="5.21244">
        <ele>175.4</ele>
        <time>2022-10-16T14:31:03.000Z</time>
      </trkpt>
      <trkpt lat="45.08488" lon="5.21248">
        <ele>175.7</ele>
        <time>2022-10-16T14:31:04.000Z</time>
      </trkpt>
      <trkpt lat="45.08488" lon="5.21253">
        <ele>175.7</ele>
        <time>2022-10-16T14:31:05.000Z</time>
      </trkpt>
      <trkpt lat="45.0849" lon="5.21257">
        <ele>175.6</ele>
        <time>2022-10-16T14:31:06.000Z</time>
      </trkpt>
      <trkpt lat="45.08491" lon="5.21261">
        <ele>175.5</ele>
        <time>2022-10-16T14:31:07.000Z</time>
      </trkpt>
      <trkpt lat="45.08491" lon="5.21265">
        <ele>175.5</ele>
        <time>2022-10-16T14:31:08.000Z</time>
      </trkpt>
      <trkpt lat="45.08493" lon="5.21269">
        <ele>175.4</ele>
        <time>2022-10-16T14:31:09.000Z</time>
      </trkpt>
      <trkpt lat="45.08494" lon="5.21273">
        <ele>175.3</ele>
        <time>2022-10-16T14:31:10.000Z</time>
      </trkpt>
      <trkpt lat="45.08496" lon="5.21276">
        <ele>175.3</ele>
        <time>2022-10-16T14:31:11.000Z</time>
      </trkpt>
      <trkpt lat="45.08497" lon="5.2128">
        <ele>175.5</ele>
        <time>2022-10-16T14:31:12.000Z</time>
      </trkpt>
      <trkpt lat="45.08498" lon="5.21284">
        <ele>175.7</ele>
        <time>2022-10-16T14:31:13.000Z</time>
      </trkpt>
      <trkpt lat="45.08499" lon="5.21287">
        <ele>176</ele>
        <time>2022-10-16T14:31:14.000Z</time>
      </trkpt>
      <trkpt lat="45.085" lon="5.2129">
        <ele>176.3</ele>
        <time>2022-10-16T14:31:15.000Z</time>
      </trkpt>
      <trkpt lat="45.08501" lon="5.21294">
        <ele>176.7</ele>
        <time>2022-10-16T14:31:16.000Z</time>
      </trkpt>
      <trkpt lat="45.08502" lon="5.21297">
        <ele>177.1</ele>
        <time>2022-10-16T14:31:17.000Z</time>
      </trkpt>
      <trkpt lat="45.08503" lon="5.213">
        <ele>177.4</ele>
        <time>2022-10-16T14:31:18.000Z</time>
      </trkpt>
      <trkpt lat="45.08504" lon="5.21303">
        <ele>177.7</ele>
        <time>2022-10-16T14:31:19.000Z</time>
      </trkpt>
      <trkpt lat="45.08505" lon="5.21306">
        <ele>178.1</ele>
        <time>2022-10-16T14:31:20.000Z</time>
      </trkpt>
      <trkpt lat="45.08507" lon="5.2131">
        <ele>178.4</ele>
        <time>2022-10-16T14:31:21.000Z</time>
      </trkpt>
      <trkpt lat="45.08508" lon="5.21313">
        <ele>178.6</ele>
        <time>2022-10-16T14:31:22.000Z</time>
      </trkpt>
      <trkpt lat="45.08509" lon="5.21316">
        <ele>178.8</ele>
        <time>2022-10-16T14:31:23.000Z</time>
      </trkpt>
      <trkpt lat="45.0851" lon="5.21319">
        <ele>178.9</ele>
        <time>2022-10-16T14:31:24.000Z</time>
      </trkpt>
      <trkpt lat="45.08511" lon="5.21322">
        <ele>179.1</ele>
        <time>2022-10-16T14:31:25.000Z</time>
      </trkpt>
      <trkpt lat="45.08511" lon="5.21326">
        <ele>179.3</ele>
        <time>2022-10-16T14:31:26.000Z</time>
      </trkpt>
      <trkpt lat="45.08513" lon="5.21329">
        <ele>179.4</ele>
        <time>2022-10-16T14:31:27.000Z</time>
      </trkpt>
      <trkpt lat="45.08514" lon="5.21333">
        <ele>179.4</ele>
        <time>2022-10-16T14:31:28.000Z</time>
      </trkpt>
      <trkpt lat="45.08516" lon="5.21337">
        <ele>179.4</ele>
        <time>2022-10-16T14:31:29.000Z</time>
      </trkpt>
      <trkpt lat="45.08517" lon="5.21342">
        <ele>179.3</ele>
        <time>2022-10-16T14:31:30.000Z</time>
      </trkpt>
      <trkpt lat="45.08518" lon="5.21345">
        <ele>179.3</ele>
        <time>2022-10-16T14:31:31.000Z</time>
      </trkpt>
      <trkpt lat="45.08519" lon="5.21348">
        <ele>179.4</ele>
        <time>2022-10-16T14:31:32.000Z</time>
      </trkpt>
      <trkpt lat="45.08519" lon="5.21351">
        <ele>179.4</ele>
        <time>2022-10-16T14:31:33.000Z</time>
      </trkpt>
      <trkpt lat="45.08519" lon="5.21354">
        <ele>179.4</ele>
        <time>2022-10-16T14:31:34.000Z</time>
      </trkpt>
      <trkpt lat="45.0852" lon="5.21357">
        <ele>179.4</ele>
        <time>2022-10-16T14:31:35.000Z</time>
      </trkpt>
      <trkpt lat="45.08521" lon="5.2136">
        <ele>179.5</ele>
        <time>2022-10-16T14:31:36.000Z</time>
      </trkpt>
      <trkpt lat="45.08522" lon="5.21366">
        <ele>179.6</ele>
        <time>2022-10-16T14:31:38.000Z</time>
      </trkpt>
      <trkpt lat="45.08523" lon="5.21369">
        <ele>179.6</ele>
        <time>2022-10-16T14:31:39.000Z</time>
      </trkpt>
      <trkpt lat="45.08523" lon="5.21372">
        <ele>179.7</ele>
        <time>2022-10-16T14:31:40.000Z</time>
      </trkpt>
      <trkpt lat="45.08524" lon="5.21375">
        <ele>179.7</ele>
        <time>2022-10-16T14:31:41.000Z</time>
      </trkpt>
      <trkpt lat="45.08525" lon="5.21379">
        <ele>179.8</ele>
        <time>2022-10-16T14:31:42.000Z</time>
      </trkpt>
      <trkpt lat="45.08526" lon="5.21382">
        <ele>179.8</ele>
        <time>2022-10-16T14:31:43.000Z</time>
      </trkpt>
      <trkpt lat="45.08528" lon="5.21385">
        <ele>179.9</ele>
        <time>2022-10-16T14:31:44.000Z</time>
      </trkpt>
      <trkpt lat="45.08529" lon="5.21389">
        <ele>180.2</ele>
        <time>2022-10-16T14:31:45.000Z</time>
      </trkpt>
      <trkpt lat="45.08531" lon="5.21392">
        <ele>180.9</ele>
        <time>2022-10-16T14:31:46.000Z</time>
      </trkpt>
      <trkpt lat="45.08532" lon="5.21396">
        <ele>181.4</ele>
        <time>2022-10-16T14:31:47.000Z</time>
      </trkpt>
      <trkpt lat="45.08533" lon="5.21399">
        <ele>181.8</ele>
        <time>2022-10-16T14:31:48.000Z</time>
      </trkpt>
      <trkpt lat="45.08534" lon="5.21403">
        <ele>182.3</ele>
        <time>2022-10-16T14:31:49.000Z</time>
      </trkpt>
      <trkpt lat="45.08535" lon="5.21406">
        <ele>182.8</ele>
        <time>2022-10-16T14:31:50.000Z</time>
      </trkpt>
      <trkpt lat="45.08537" lon="5.21409">
        <ele>183.3</ele>
        <time>2022-10-16T14:31:51.000Z</time>
      </trkpt>
      <trkpt lat="45.08538" lon="5.21413">
        <ele>183.8</ele>
        <time>2022-10-16T14:31:52.000Z</time>
      </trkpt>
      <trkpt lat="45.08539" lon="5.21416">
        <ele>184.3</ele>
        <time>2022-10-16T14:31:53.000Z</time>
      </trkpt>
      <trkpt lat="45.08539" lon="5.2142">
        <ele>184.5</ele>
        <time>2022-10-16T14:31:54.000Z</time>
      </trkpt>
      <trkpt lat="45.0854" lon="5.21423">
        <ele>184.6</ele>
        <time>2022-10-16T14:31:55.000Z</time>
      </trkpt>
      <trkpt lat="45.08541" lon="5.21427">
        <ele>184.7</ele>
        <time>2022-10-16T14:31:56.000Z</time>
      </trkpt>
      <trkpt lat="45.08542" lon="5.2143">
        <ele>184.8</ele>
        <time>2022-10-16T14:31:57.000Z</time>
      </trkpt>
      <trkpt lat="45.08542" lon="5.21434">
        <ele>184.8</ele>
        <time>2022-10-16T14:31:58.000Z</time>
      </trkpt>
      <trkpt lat="45.08543" lon="5.21437">
        <ele>184.8</ele>
        <time>2022-10-16T14:31:59.000Z</time>
      </trkpt>
      <trkpt lat="45.08544" lon="5.21441">
        <ele>184.7</ele>
        <time>2022-10-16T14:32:00.000Z</time>
      </trkpt>
      <trkpt lat="45.08545" lon="5.21444">
        <ele>184.6</ele>
        <time>2022-10-16T14:32:01.000Z</time>
      </trkpt>
      <trkpt lat="45.08546" lon="5.21448">
        <ele>184.6</ele>
        <time>2022-10-16T14:32:02.000Z</time>
      </trkpt>
      <trkpt lat="45.08547" lon="5.21451">
        <ele>184.6</ele>
        <time>2022-10-16T14:32:03.000Z</time>
      </trkpt>
      <trkpt lat="45.08548" lon="5.21454">
        <ele>184.6</ele>
        <time>2022-10-16T14:32:04.000Z</time>
      </trkpt>
      <trkpt lat="45.08548" lon="5.21458">
        <ele>184.5</ele>
        <time>2022-10-16T14:32:05.000Z</time>
      </trkpt>
      <trkpt lat="45.08549" lon="5.21461">
        <ele>184.5</ele>
        <time>2022-10-16T14:32:06.000Z</time>
      </trkpt>
      <trkpt lat="45.0855" lon="5.21464">
        <ele>184.4</ele>
        <time>2022-10-16T14:32:07.000Z</time>
      </trkpt>
      <trkpt lat="45.08551" lon="5.21467">
        <ele>184.3</ele>
        <time>2022-10-16T14:32:08.000Z</time>
      </trkpt>
      <trkpt lat="45.08552" lon="5.21471">
        <ele>184.2</ele>
        <time>2022-10-16T14:32:09.000Z</time>
      </trkpt>
      <trkpt lat="45.08553" lon="5.21474">
        <ele>184.2</ele>
        <time>2022-10-16T14:32:10.000Z</time>
      </trkpt>
      <trkpt lat="45.08554" lon="5.21478">
        <ele>184.3</ele>
        <time>2022-10-16T14:32:11.000Z</time>
      </trkpt>
      <trkpt lat="45.08554" lon="5.21481">
        <ele>184.4</ele>
        <time>2022-10-16T14:32:12.000Z</time>
      </trkpt>
      <trkpt lat="45.08555" lon="5.21484">
        <ele>184.5</ele>
        <time>2022-10-16T14:32:13.000Z</time>
      </trkpt>
      <trkpt lat="45.08556" lon="5.21487">
        <ele>184.6</ele>
        <time>2022-10-16T14:32:14.000Z</time>
      </trkpt>
      <trkpt lat="45.08557" lon="5.21491">
        <ele>184.9</ele>
        <time>2022-10-16T14:32:15.000Z</time>
      </trkpt>
      <trkpt lat="45.08559" lon="5.21494">
        <ele>185.3</ele>
        <time>2022-10-16T14:32:16.000Z</time>
      </trkpt>
      <trkpt lat="45.0856" lon="5.21498">
        <ele>185.5</ele>
        <time>2022-10-16T14:32:17.000Z</time>
      </trkpt>
      <trkpt lat="45.08561" lon="5.21501">
        <ele>185.6</ele>
        <time>2022-10-16T14:32:18.000Z</time>
      </trkpt>
      <trkpt lat="45.08562" lon="5.21504">
        <ele>185.9</ele>
        <time>2022-10-16T14:32:19.000Z</time>
      </trkpt>
      <trkpt lat="45.08564" lon="5.21507">
        <ele>186.2</ele>
        <time>2022-10-16T14:32:20.000Z</time>
      </trkpt>
      <trkpt lat="45.08565" lon="5.2151">
        <ele>186.4</ele>
        <time>2022-10-16T14:32:21.000Z</time>
      </trkpt>
      <trkpt lat="45.08566" lon="5.21514">
        <ele>186.6</ele>
        <time>2022-10-16T14:32:22.000Z</time>
      </trkpt>
      <trkpt lat="45.08567" lon="5.21517">
        <ele>186.7</ele>
        <time>2022-10-16T14:32:23.000Z</time>
      </trkpt>
      <trkpt lat="45.08569" lon="5.2152">
        <ele>186.8</ele>
        <time>2022-10-16T14:32:24.000Z</time>
      </trkpt>
      <trkpt lat="45.0857" lon="5.21523">
        <ele>186.9</ele>
        <time>2022-10-16T14:32:25.000Z</time>
      </trkpt>
      <trkpt lat="45.08571" lon="5.21526">
        <ele>187</ele>
        <time>2022-10-16T14:32:26.000Z</time>
      </trkpt>
      <trkpt lat="45.08572" lon="5.2153">
        <ele>187.1</ele>
        <time>2022-10-16T14:32:27.000Z</time>
      </trkpt>
      <trkpt lat="45.08573" lon="5.21533">
        <ele>187.3</ele>
        <time>2022-10-16T14:32:28.000Z</time>
      </trkpt>
      <trkpt lat="45.08575" lon="5.21536">
        <ele>187.5</ele>
        <time>2022-10-16T14:32:29.000Z</time>
      </trkpt>
      <trkpt lat="45.08576" lon="5.21539">
        <ele>187.7</ele>
        <time>2022-10-16T14:32:30.000Z</time>
      </trkpt>
      <trkpt lat="45.08577" lon="5.21542">
        <ele>187.9</ele>
        <time>2022-10-16T14:32:31.000Z</time>
      </trkpt>
      <trkpt lat="45.08578" lon="5.21546">
        <ele>188.2</ele>
        <time>2022-10-16T14:32:32.000Z</time>
      </trkpt>
      <trkpt lat="45.08579" lon="5.21549">
        <ele>188.4</ele>
        <time>2022-10-16T14:32:33.000Z</time>
      </trkpt>
      <trkpt lat="45.08581" lon="5.21552">
        <ele>188.7</ele>
        <time>2022-10-16T14:32:34.000Z</time>
      </trkpt>
      <trkpt lat="45.08582" lon="5.21555">
        <ele>188.9</ele>
        <time>2022-10-16T14:32:35.000Z</time>
      </trkpt>
      <trkpt lat="45.08583" lon="5.21559">
        <ele>189</ele>
        <time>2022-10-16T14:32:36.000Z</time>
      </trkpt>
      <trkpt lat="45.08584" lon="5.21562">
        <ele>189</ele>
        <time>2022-10-16T14:32:37.000Z</time>
      </trkpt>
      <trkpt lat="45.08586" lon="5.21565">
        <ele>189</ele>
        <time>2022-10-16T14:32:38.000Z</time>
      </trkpt>
      <trkpt lat="45.08587" lon="5.21568">
        <ele>189</ele>
        <time>2022-10-16T14:32:39.000Z</time>
      </trkpt>
      <trkpt lat="45.08588" lon="5.21571">
        <ele>189</ele>
        <time>2022-10-16T14:32:40.000Z</time>
      </trkpt>
      <trkpt lat="45.08589" lon="5.21575">
        <ele>189.1</ele>
        <time>2022-10-16T14:32:41.000Z</time>
      </trkpt>
      <trkpt lat="45.0859" lon="5.21578">
        <ele>189.2</ele>
        <time>2022-10-16T14:32:42.000Z</time>
      </trkpt>
      <trkpt lat="45.08592" lon="5.21581">
        <ele>189.3</ele>
        <time>2022-10-16T14:32:43.000Z</time>
      </trkpt>
      <trkpt lat="45.08593" lon="5.21585">
        <ele>189.3</ele>
        <time>2022-10-16T14:32:44.000Z</time>
      </trkpt>
      <trkpt lat="45.08593" lon="5.21588">
        <ele>189.4</ele>
        <time>2022-10-16T14:32:45.000Z</time>
      </trkpt>
      <trkpt lat="45.08594" lon="5.21591">
        <ele>189.4</ele>
        <time>2022-10-16T14:32:46.000Z</time>
      </trkpt>
      <trkpt lat="45.08596" lon="5.21594">
        <ele>189.6</ele>
        <time>2022-10-16T14:32:47.000Z</time>
      </trkpt>
      <trkpt lat="45.08597" lon="5.21597">
        <ele>189.7</ele>
        <time>2022-10-16T14:32:48.000Z</time>
      </trkpt>
      <trkpt lat="45.08598" lon="5.216">
        <ele>189.9</ele>
        <time>2022-10-16T14:32:49.000Z</time>
      </trkpt>
      <trkpt lat="45.08599" lon="5.21603">
        <ele>190.1</ele>
        <time>2022-10-16T14:32:50.000Z</time>
      </trkpt>
      <trkpt lat="45.08601" lon="5.21607">
        <ele>190.4</ele>
        <time>2022-10-16T14:32:51.000Z</time>
      </trkpt>
      <trkpt lat="45.08603" lon="5.2161">
        <ele>190.8</ele>
        <time>2022-10-16T14:32:52.000Z</time>
      </trkpt>
      <trkpt lat="45.08605" lon="5.21613">
        <ele>190.8</ele>
        <time>2022-10-16T14:32:53.000Z</time>
      </trkpt>
      <trkpt lat="45.08606" lon="5.21616">
        <ele>190.5</ele>
        <time>2022-10-16T14:32:54.000Z</time>
      </trkpt>
      <trkpt lat="45.08608" lon="5.21619">
        <ele>190.2</ele>
        <time>2022-10-16T14:32:55.000Z</time>
      </trkpt>
      <trkpt lat="45.08609" lon="5.21622">
        <ele>189.8</ele>
        <time>2022-10-16T14:32:56.000Z</time>
      </trkpt>
      <trkpt lat="45.0861" lon="5.21626">
        <ele>189.4</ele>
        <time>2022-10-16T14:32:57.000Z</time>
      </trkpt>
      <trkpt lat="45.08612" lon="5.21629">
        <ele>188.8</ele>
        <time>2022-10-16T14:32:58.000Z</time>
      </trkpt>
      <trkpt lat="45.08613" lon="5.21632">
        <ele>188.3</ele>
        <time>2022-10-16T14:32:59.000Z</time>
      </trkpt>
      <trkpt lat="45.08614" lon="5.21635">
        <ele>187.9</ele>
        <time>2022-10-16T14:33:00.000Z</time>
      </trkpt>
      <trkpt lat="45.08616" lon="5.21639">
        <ele>187.5</ele>
        <time>2022-10-16T14:33:01.000Z</time>
      </trkpt>
      <trkpt lat="45.08617" lon="5.21642">
        <ele>187.6</ele>
        <time>2022-10-16T14:33:02.000Z</time>
      </trkpt>
      <trkpt lat="45.08619" lon="5.21645">
        <ele>187.6</ele>
        <time>2022-10-16T14:33:03.000Z</time>
      </trkpt>
      <trkpt lat="45.08621" lon="5.21649">
        <ele>187.7</ele>
        <time>2022-10-16T14:33:04.000Z</time>
      </trkpt>
      <trkpt lat="45.08622" lon="5.21652">
        <ele>187.6</ele>
        <time>2022-10-16T14:33:05.000Z</time>
      </trkpt>
      <trkpt lat="45.08624" lon="5.21656">
        <ele>187.6</ele>
        <time>2022-10-16T14:33:06.000Z</time>
      </trkpt>
      <trkpt lat="45.08626" lon="5.21659">
        <ele>187.4</ele>
        <time>2022-10-16T14:33:07.000Z</time>
      </trkpt>
      <trkpt lat="45.08627" lon="5.21662">
        <ele>187.3</ele>
        <time>2022-10-16T14:33:08.000Z</time>
      </trkpt>
      <trkpt lat="45.08629" lon="5.21666">
        <ele>187.1</ele>
        <time>2022-10-16T14:33:09.000Z</time>
      </trkpt>
      <trkpt lat="45.0863" lon="5.21669">
        <ele>187</ele>
        <time>2022-10-16T14:33:10.000Z</time>
      </trkpt>
      <trkpt lat="45.08632" lon="5.21672">
        <ele>187.1</ele>
        <time>2022-10-16T14:33:11.000Z</time>
      </trkpt>
      <trkpt lat="45.08633" lon="5.21676">
        <ele>187.1</ele>
        <time>2022-10-16T14:33:12.000Z</time>
      </trkpt>
      <trkpt lat="45.08635" lon="5.21679">
        <ele>187.1</ele>
        <time>2022-10-16T14:33:13.000Z</time>
      </trkpt>
      <trkpt lat="45.08637" lon="5.21682">
        <ele>187</ele>
        <time>2022-10-16T14:33:14.000Z</time>
      </trkpt>
      <trkpt lat="45.08638" lon="5.21686">
        <ele>187</ele>
        <time>2022-10-16T14:33:15.000Z</time>
      </trkpt>
      <trkpt lat="45.0864" lon="5.21689">
        <ele>187</ele>
        <time>2022-10-16T14:33:16.000Z</time>
      </trkpt>
      <trkpt lat="45.08642" lon="5.21692">
        <ele>186.9</ele>
        <time>2022-10-16T14:33:17.000Z</time>
      </trkpt>
      <trkpt lat="45.08643" lon="5.21696">
        <ele>187.1</ele>
        <time>2022-10-16T14:33:18.000Z</time>
      </trkpt>
      <trkpt lat="45.08645" lon="5.21699">
        <ele>187.5</ele>
        <time>2022-10-16T14:33:19.000Z</time>
      </trkpt>
      <trkpt lat="45.08646" lon="5.21702">
        <ele>188.1</ele>
        <time>2022-10-16T14:33:20.000Z</time>
      </trkpt>
      <trkpt lat="45.08648" lon="5.21705">
        <ele>188.7</ele>
        <time>2022-10-16T14:33:21.000Z</time>
      </trkpt>
      <trkpt lat="45.0865" lon="5.21709">
        <ele>189.5</ele>
        <time>2022-10-16T14:33:22.000Z</time>
      </trkpt>
      <trkpt lat="45.08652" lon="5.21712">
        <ele>190.3</ele>
        <time>2022-10-16T14:33:23.000Z</time>
      </trkpt>
      <trkpt lat="45.08653" lon="5.21715">
        <ele>191</ele>
        <time>2022-10-16T14:33:24.000Z</time>
      </trkpt>
      <trkpt lat="45.08655" lon="5.21719">
        <ele>191.9</ele>
        <time>2022-10-16T14:33:25.000Z</time>
      </trkpt>
      <trkpt lat="45.08657" lon="5.21722">
        <ele>192.8</ele>
        <time>2022-10-16T14:33:26.000Z</time>
      </trkpt>
      <trkpt lat="45.08659" lon="5.21725">
        <ele>193.2</ele>
        <time>2022-10-16T14:33:27.000Z</time>
      </trkpt>
      <trkpt lat="45.0866" lon="5.21729">
        <ele>193.5</ele>
        <time>2022-10-16T14:33:28.000Z</time>
      </trkpt>
      <trkpt lat="45.08662" lon="5.21733">
        <ele>193.9</ele>
        <time>2022-10-16T14:33:29.000Z</time>
      </trkpt>
      <trkpt lat="45.08664" lon="5.21737">
        <ele>194.2</ele>
        <time>2022-10-16T14:33:30.000Z</time>
      </trkpt>
      <trkpt lat="45.08666" lon="5.2174">
        <ele>194.5</ele>
        <time>2022-10-16T14:33:31.000Z</time>
      </trkpt>
      <trkpt lat="45.08668" lon="5.21744">
        <ele>194.7</ele>
        <time>2022-10-16T14:33:32.000Z</time>
      </trkpt>
      <trkpt lat="45.0867" lon="5.21749">
        <ele>194.6</ele>
        <time>2022-10-16T14:33:33.000Z</time>
      </trkpt>
      <trkpt lat="45.08672" lon="5.21753">
        <ele>194.5</ele>
        <time>2022-10-16T14:33:34.000Z</time>
      </trkpt>
      <trkpt lat="45.08674" lon="5.21757">
        <ele>194.3</ele>
        <time>2022-10-16T14:33:35.000Z</time>
      </trkpt>
      <trkpt lat="45.08676" lon="5.21762">
        <ele>194.3</ele>
        <time>2022-10-16T14:33:36.000Z</time>
      </trkpt>
      <trkpt lat="45.08679" lon="5.21766">
        <ele>194.4</ele>
        <time>2022-10-16T14:33:37.000Z</time>
      </trkpt>
      <trkpt lat="45.08681" lon="5.21771">
        <ele>194.6</ele>
        <time>2022-10-16T14:33:38.000Z</time>
      </trkpt>
      <trkpt lat="45.08684" lon="5.21775">
        <ele>195</ele>
        <time>2022-10-16T14:33:39.000Z</time>
      </trkpt>
      <trkpt lat="45.08687" lon="5.2178">
        <ele>195.5</ele>
        <time>2022-10-16T14:33:40.000Z</time>
      </trkpt>
      <trkpt lat="45.08689" lon="5.21785">
        <ele>195.8</ele>
        <time>2022-10-16T14:33:41.000Z</time>
      </trkpt>
      <trkpt lat="45.08692" lon="5.21789">
        <ele>196.2</ele>
        <time>2022-10-16T14:33:42.000Z</time>
      </trkpt>
      <trkpt lat="45.08695" lon="5.21794">
        <ele>196.6</ele>
        <time>2022-10-16T14:33:43.000Z</time>
      </trkpt>
      <trkpt lat="45.08697" lon="5.21799">
        <ele>196.4</ele>
        <time>2022-10-16T14:33:44.000Z</time>
      </trkpt>
      <trkpt lat="45.087" lon="5.21803">
        <ele>196.4</ele>
        <time>2022-10-16T14:33:45.000Z</time>
      </trkpt>
      <trkpt lat="45.08703" lon="5.21808">
        <ele>196.4</ele>
        <time>2022-10-16T14:33:46.000Z</time>
      </trkpt>
      <trkpt lat="45.08706" lon="5.21813">
        <ele>196.4</ele>
        <time>2022-10-16T14:33:47.000Z</time>
      </trkpt>
      <trkpt lat="45.08709" lon="5.21818">
        <ele>196.4</ele>
        <time>2022-10-16T14:33:48.000Z</time>
      </trkpt>
      <trkpt lat="45.08713" lon="5.21824">
        <ele>196.5</ele>
        <time>2022-10-16T14:33:49.000Z</time>
      </trkpt>
      <trkpt lat="45.08717" lon="5.21829">
        <ele>196.8</ele>
        <time>2022-10-16T14:33:50.000Z</time>
      </trkpt>
      <trkpt lat="45.08721" lon="5.21835">
        <ele>197</ele>
        <time>2022-10-16T14:33:51.000Z</time>
      </trkpt>
      <trkpt lat="45.08725" lon="5.2184">
        <ele>196.7</ele>
        <time>2022-10-16T14:33:52.000Z</time>
      </trkpt>
      <trkpt lat="45.08729" lon="5.21845">
        <ele>196.5</ele>
        <time>2022-10-16T14:33:53.000Z</time>
      </trkpt>
      <trkpt lat="45.08732" lon="5.21851">
        <ele>196.4</ele>
        <time>2022-10-16T14:33:54.000Z</time>
      </trkpt>
      <trkpt lat="45.08736" lon="5.21856">
        <ele>196.6</ele>
        <time>2022-10-16T14:33:55.000Z</time>
      </trkpt>
      <trkpt lat="45.0874" lon="5.21861">
        <ele>197</ele>
        <time>2022-10-16T14:33:56.000Z</time>
      </trkpt>
      <trkpt lat="45.08744" lon="5.21866">
        <ele>197</ele>
        <time>2022-10-16T14:33:57.000Z</time>
      </trkpt>
      <trkpt lat="45.08748" lon="5.2187">
        <ele>197</ele>
        <time>2022-10-16T14:33:58.000Z</time>
      </trkpt>
      <trkpt lat="45.08751" lon="5.21875">
        <ele>196.9</ele>
        <time>2022-10-16T14:33:59.000Z</time>
      </trkpt>
      <trkpt lat="45.08755" lon="5.21879">
        <ele>196.6</ele>
        <time>2022-10-16T14:34:00.000Z</time>
      </trkpt>
      <trkpt lat="45.08759" lon="5.21884">
        <ele>196.6</ele>
        <time>2022-10-16T14:34:01.000Z</time>
      </trkpt>
      <trkpt lat="45.08762" lon="5.21888">
        <ele>196.9</ele>
        <time>2022-10-16T14:34:02.000Z</time>
      </trkpt>
      <trkpt lat="45.08766" lon="5.21893">
        <ele>196.9</ele>
        <time>2022-10-16T14:34:03.000Z</time>
      </trkpt>
      <trkpt lat="45.08769" lon="5.21897">
        <ele>196.7</ele>
        <time>2022-10-16T14:34:04.000Z</time>
      </trkpt>
      <trkpt lat="45.08773" lon="5.21901">
        <ele>196.6</ele>
        <time>2022-10-16T14:34:05.000Z</time>
      </trkpt>
      <trkpt lat="45.08776" lon="5.21905">
        <ele>196.4</ele>
        <time>2022-10-16T14:34:06.000Z</time>
      </trkpt>
      <trkpt lat="45.0878" lon="5.21909">
        <ele>196.1</ele>
        <time>2022-10-16T14:34:07.000Z</time>
      </trkpt>
      <trkpt lat="45.08784" lon="5.21914">
        <ele>195.9</ele>
        <time>2022-10-16T14:34:08.000Z</time>
      </trkpt>
      <trkpt lat="45.08788" lon="5.21918">
        <ele>196</ele>
        <time>2022-10-16T14:34:09.000Z</time>
      </trkpt>
      <trkpt lat="45.08792" lon="5.21923">
        <ele>196</ele>
        <time>2022-10-16T14:34:10.000Z</time>
      </trkpt>
      <trkpt lat="45.08797" lon="5.21927">
        <ele>196</ele>
        <time>2022-10-16T14:34:11.000Z</time>
      </trkpt>
      <trkpt lat="45.08801" lon="5.21932">
        <ele>196</ele>
        <time>2022-10-16T14:34:12.000Z</time>
      </trkpt>
      <trkpt lat="45.08805" lon="5.21936">
        <ele>196</ele>
        <time>2022-10-16T14:34:13.000Z</time>
      </trkpt>
      <trkpt lat="45.08809" lon="5.2194">
        <ele>195.9</ele>
        <time>2022-10-16T14:34:14.000Z</time>
      </trkpt>
      <trkpt lat="45.08813" lon="5.21944">
        <ele>196</ele>
        <time>2022-10-16T14:34:15.000Z</time>
      </trkpt>
      <trkpt lat="45.08817" lon="5.21949">
        <ele>196</ele>
        <time>2022-10-16T14:34:16.000Z</time>
      </trkpt>
      <trkpt lat="45.08821" lon="5.21953">
        <ele>196</ele>
        <time>2022-10-16T14:34:17.000Z</time>
      </trkpt>
      <trkpt lat="45.08824" lon="5.21957">
        <ele>196</ele>
        <time>2022-10-16T14:34:18.000Z</time>
      </trkpt>
      <trkpt lat="45.08828" lon="5.21961">
        <ele>196</ele>
        <time>2022-10-16T14:34:19.000Z</time>
      </trkpt>
      <trkpt lat="45.08832" lon="5.21964">
        <ele>196</ele>
        <time>2022-10-16T14:34:20.000Z</time>
      </trkpt>
      <trkpt lat="45.08836" lon="5.21968">
        <ele>196</ele>
        <time>2022-10-16T14:34:21.000Z</time>
      </trkpt>
      <trkpt lat="45.0884" lon="5.21972">
        <ele>196</ele>
        <time>2022-10-16T14:34:22.000Z</time>
      </trkpt>
      <trkpt lat="45.08844" lon="5.21976">
        <ele>196</ele>
        <time>2022-10-16T14:34:23.000Z</time>
      </trkpt>
      <trkpt lat="45.08848" lon="5.2198">
        <ele>196</ele>
        <time>2022-10-16T14:34:24.000Z</time>
      </trkpt>
      <trkpt lat="45.08853" lon="5.21985">
        <ele>196</ele>
        <time>2022-10-16T14:34:25.000Z</time>
      </trkpt>
      <trkpt lat="45.08858" lon="5.21989">
        <ele>196</ele>
        <time>2022-10-16T14:34:26.000Z</time>
      </trkpt>
      <trkpt lat="45.08862" lon="5.21994">
        <ele>195.9</ele>
        <time>2022-10-16T14:34:27.000Z</time>
      </trkpt>
      <trkpt lat="45.08867" lon="5.21999">
        <ele>195.7</ele>
        <time>2022-10-16T14:34:28.000Z</time>
      </trkpt>
      <trkpt lat="45.08871" lon="5.22004">
        <ele>195.6</ele>
        <time>2022-10-16T14:34:29.000Z</time>
      </trkpt>
      <trkpt lat="45.08875" lon="5.22008">
        <ele>195.4</ele>
        <time>2022-10-16T14:34:30.000Z</time>
      </trkpt>
      <trkpt lat="45.08879" lon="5.22012">
        <ele>195.2</ele>
        <time>2022-10-16T14:34:31.000Z</time>
      </trkpt>
      <trkpt lat="45.08884" lon="5.22017">
        <ele>195.1</ele>
        <time>2022-10-16T14:34:32.000Z</time>
      </trkpt>
      <trkpt lat="45.08888" lon="5.22022">
        <ele>195</ele>
        <time>2022-10-16T14:34:33.000Z</time>
      </trkpt>
      <trkpt lat="45.08892" lon="5.22026">
        <ele>195.1</ele>
        <time>2022-10-16T14:34:34.000Z</time>
      </trkpt>
      <trkpt lat="45.08897" lon="5.22031">
        <ele>195.3</ele>
        <time>2022-10-16T14:34:35.000Z</time>
      </trkpt>
      <trkpt lat="45.08901" lon="5.22036">
        <ele>195.4</ele>
        <time>2022-10-16T14:34:36.000Z</time>
      </trkpt>
      <trkpt lat="45.08905" lon="5.22041">
        <ele>195.6</ele>
        <time>2022-10-16T14:34:37.000Z</time>
      </trkpt>
      <trkpt lat="45.08909" lon="5.22045">
        <ele>195.7</ele>
        <time>2022-10-16T14:34:38.000Z</time>
      </trkpt>
      <trkpt lat="45.08913" lon="5.2205">
        <ele>195.9</ele>
        <time>2022-10-16T14:34:39.000Z</time>
      </trkpt>
      <trkpt lat="45.08917" lon="5.22054">
        <ele>196</ele>
        <time>2022-10-16T14:34:40.000Z</time>
      </trkpt>
      <trkpt lat="45.08921" lon="5.22059">
        <ele>195.8</ele>
        <time>2022-10-16T14:34:41.000Z</time>
      </trkpt>
      <trkpt lat="45.08925" lon="5.22063">
        <ele>195.6</ele>
        <time>2022-10-16T14:34:42.000Z</time>
      </trkpt>
      <trkpt lat="45.08929" lon="5.22068">
        <ele>195.5</ele>
        <time>2022-10-16T14:34:43.000Z</time>
      </trkpt>
      <trkpt lat="45.08932" lon="5.22072">
        <ele>195.5</ele>
        <time>2022-10-16T14:34:44.000Z</time>
      </trkpt>
      <trkpt lat="45.08936" lon="5.22076">
        <ele>195.6</ele>
        <time>2022-10-16T14:34:45.000Z</time>
      </trkpt>
      <trkpt lat="45.08939" lon="5.22081">
        <ele>195.7</ele>
        <time>2022-10-16T14:34:46.000Z</time>
      </trkpt>
      <trkpt lat="45.08942" lon="5.22085">
        <ele>195.9</ele>
        <time>2022-10-16T14:34:47.000Z</time>
      </trkpt>
      <trkpt lat="45.08946" lon="5.2209">
        <ele>195.7</ele>
        <time>2022-10-16T14:34:48.000Z</time>
      </trkpt>
      <trkpt lat="45.0895" lon="5.22095">
        <ele>195.4</ele>
        <time>2022-10-16T14:34:49.000Z</time>
      </trkpt>
      <trkpt lat="45.08953" lon="5.221">
        <ele>195.1</ele>
        <time>2022-10-16T14:34:50.000Z</time>
      </trkpt>
      <trkpt lat="45.08957" lon="5.22105">
        <ele>195</ele>
        <time>2022-10-16T14:34:51.000Z</time>
      </trkpt>
      <trkpt lat="45.08961" lon="5.2211">
        <ele>195</ele>
        <time>2022-10-16T14:34:52.000Z</time>
      </trkpt>
      <trkpt lat="45.08965" lon="5.22115">
        <ele>194.9</ele>
        <time>2022-10-16T14:34:53.000Z</time>
      </trkpt>
      <trkpt lat="45.08968" lon="5.2212">
        <ele>194.7</ele>
        <time>2022-10-16T14:34:54.000Z</time>
      </trkpt>
      <trkpt lat="45.08971" lon="5.22125">
        <ele>194.5</ele>
        <time>2022-10-16T14:34:55.000Z</time>
      </trkpt>
      <trkpt lat="45.08975" lon="5.2213">
        <ele>193.9</ele>
        <time>2022-10-16T14:34:56.000Z</time>
      </trkpt>
      <trkpt lat="45.08978" lon="5.22135">
        <ele>193.3</ele>
        <time>2022-10-16T14:34:57.000Z</time>
      </trkpt>
      <trkpt lat="45.08981" lon="5.2214">
        <ele>192.7</ele>
        <time>2022-10-16T14:34:58.000Z</time>
      </trkpt>
      <trkpt lat="45.08984" lon="5.22145">
        <ele>192.2</ele>
        <time>2022-10-16T14:34:59.000Z</time>
      </trkpt>
      <trkpt lat="45.08987" lon="5.2215">
        <ele>192.2</ele>
        <time>2022-10-16T14:35:00.000Z</time>
      </trkpt>
      <trkpt lat="45.08991" lon="5.22155">
        <ele>192.4</ele>
        <time>2022-10-16T14:35:01.000Z</time>
      </trkpt>
      <trkpt lat="45.08994" lon="5.22159">
        <ele>193.1</ele>
        <time>2022-10-16T14:35:02.000Z</time>
      </trkpt>
      <trkpt lat="45.08996" lon="5.22164">
        <ele>193.9</ele>
        <time>2022-10-16T14:35:03.000Z</time>
      </trkpt>
      <trkpt lat="45.08999" lon="5.22169">
        <ele>194.7</ele>
        <time>2022-10-16T14:35:04.000Z</time>
      </trkpt>
      <trkpt lat="45.09003" lon="5.22174">
        <ele>194.1</ele>
        <time>2022-10-16T14:35:05.000Z</time>
      </trkpt>
      <trkpt lat="45.09006" lon="5.22179">
        <ele>193.5</ele>
        <time>2022-10-16T14:35:06.000Z</time>
      </trkpt>
      <trkpt lat="45.09009" lon="5.22184">
        <ele>193.3</ele>
        <time>2022-10-16T14:35:07.000Z</time>
      </trkpt>
      <trkpt lat="45.09013" lon="5.22189">
        <ele>193.3</ele>
        <time>2022-10-16T14:35:08.000Z</time>
      </trkpt>
      <trkpt lat="45.09016" lon="5.22194">
        <ele>193.7</ele>
        <time>2022-10-16T14:35:09.000Z</time>
      </trkpt>
      <trkpt lat="45.09019" lon="5.22199">
        <ele>194.1</ele>
        <time>2022-10-16T14:35:10.000Z</time>
      </trkpt>
      <trkpt lat="45.09023" lon="5.22204">
        <ele>194.5</ele>
        <time>2022-10-16T14:35:11.000Z</time>
      </trkpt>
      <trkpt lat="45.09026" lon="5.2221">
        <ele>194.8</ele>
        <time>2022-10-16T14:35:12.000Z</time>
      </trkpt>
      <trkpt lat="45.09029" lon="5.22215">
        <ele>194.9</ele>
        <time>2022-10-16T14:35:13.000Z</time>
      </trkpt>
      <trkpt lat="45.09032" lon="5.2222">
        <ele>194.8</ele>
        <time>2022-10-16T14:35:14.000Z</time>
      </trkpt>
      <trkpt lat="45.09036" lon="5.22226">
        <ele>194.8</ele>
        <time>2022-10-16T14:35:15.000Z</time>
      </trkpt>
      <trkpt lat="45.0904" lon="5.22232">
        <ele>194.9</ele>
        <time>2022-10-16T14:35:16.000Z</time>
      </trkpt>
      <trkpt lat="45.09043" lon="5.22237">
        <ele>195</ele>
        <time>2022-10-16T14:35:17.000Z</time>
      </trkpt>
      <trkpt lat="45.09047" lon="5.22242">
        <ele>195.3</ele>
        <time>2022-10-16T14:35:18.000Z</time>
      </trkpt>
      <trkpt lat="45.0905" lon="5.22248">
        <ele>195.7</ele>
        <time>2022-10-16T14:35:19.000Z</time>
      </trkpt>
      <trkpt lat="45.09054" lon="5.22254">
        <ele>195.9</ele>
        <time>2022-10-16T14:35:20.000Z</time>
      </trkpt>
      <trkpt lat="45.09058" lon="5.22259">
        <ele>195.9</ele>
        <time>2022-10-16T14:35:21.000Z</time>
      </trkpt>
      <trkpt lat="45.09061" lon="5.22265">
        <ele>195.9</ele>
        <time>2022-10-16T14:35:22.000Z</time>
      </trkpt>
      <trkpt lat="45.09064" lon="5.2227">
        <ele>196</ele>
        <time>2022-10-16T14:35:23.000Z</time>
      </trkpt>
      <trkpt lat="45.09068" lon="5.22275">
        <ele>196.3</ele>
        <time>2022-10-16T14:35:24.000Z</time>
      </trkpt>
      <trkpt lat="45.09071" lon="5.2228">
        <ele>196.6</ele>
        <time>2022-10-16T14:35:25.000Z</time>
      </trkpt>
      <trkpt lat="45.09074" lon="5.22285">
        <ele>197</ele>
        <time>2022-10-16T14:35:26.000Z</time>
      </trkpt>
      <trkpt lat="45.09077" lon="5.2229">
        <ele>197.4</ele>
        <time>2022-10-16T14:35:27.000Z</time>
      </trkpt>
      <trkpt lat="45.0908" lon="5.22294">
        <ele>197.9</ele>
        <time>2022-10-16T14:35:28.000Z</time>
      </trkpt>
      <trkpt lat="45.09082" lon="5.22298">
        <ele>198.4</ele>
        <time>2022-10-16T14:35:29.000Z</time>
      </trkpt>
      <trkpt lat="45.09085" lon="5.22302">
        <ele>198.6</ele>
        <time>2022-10-16T14:35:30.000Z</time>
      </trkpt>
      <trkpt lat="45.09087" lon="5.22306">
        <ele>198.7</ele>
        <time>2022-10-16T14:35:31.000Z</time>
      </trkpt>
      <trkpt lat="45.0909" lon="5.2231">
        <ele>198.4</ele>
        <time>2022-10-16T14:35:32.000Z</time>
      </trkpt>
      <trkpt lat="45.09092" lon="5.22313">
        <ele>198.3</ele>
        <time>2022-10-16T14:35:33.000Z</time>
      </trkpt>
      <trkpt lat="45.09094" lon="5.22317">
        <ele>198.4</ele>
        <time>2022-10-16T14:35:34.000Z</time>
      </trkpt>
      <trkpt lat="45.09096" lon="5.2232">
        <ele>198.5</ele>
        <time>2022-10-16T14:35:35.000Z</time>
      </trkpt>
      <trkpt lat="45.09098" lon="5.22323">
        <ele>198.7</ele>
        <time>2022-10-16T14:35:36.000Z</time>
      </trkpt>
      <trkpt lat="45.091" lon="5.22326">
        <ele>198.9</ele>
        <time>2022-10-16T14:35:37.000Z</time>
      </trkpt>
      <trkpt lat="45.09102" lon="5.22328">
        <ele>199.3</ele>
        <time>2022-10-16T14:35:38.000Z</time>
      </trkpt>
      <trkpt lat="45.09103" lon="5.22331">
        <ele>199.7</ele>
        <time>2022-10-16T14:35:39.000Z</time>
      </trkpt>
      <trkpt lat="45.09105" lon="5.22334">
        <ele>200.1</ele>
        <time>2022-10-16T14:35:40.000Z</time>
      </trkpt>
      <trkpt lat="45.09107" lon="5.22337">
        <ele>200.3</ele>
        <time>2022-10-16T14:35:41.000Z</time>
      </trkpt>
      <trkpt lat="45.09108" lon="5.22339">
        <ele>200.5</ele>
        <time>2022-10-16T14:35:42.000Z</time>
      </trkpt>
      <trkpt lat="45.0911" lon="5.22342">
        <ele>200.8</ele>
        <time>2022-10-16T14:35:43.000Z</time>
      </trkpt>
      <trkpt lat="45.09111" lon="5.22344">
        <ele>201</ele>
        <time>2022-10-16T14:35:44.000Z</time>
      </trkpt>
      <trkpt lat="45.09113" lon="5.22347">
        <ele>201</ele>
        <time>2022-10-16T14:35:45.000Z</time>
      </trkpt>
      <trkpt lat="45.09115" lon="5.2235">
        <ele>201</ele>
        <time>2022-10-16T14:35:46.000Z</time>
      </trkpt>
      <trkpt lat="45.09116" lon="5.22353">
        <ele>201</ele>
        <time>2022-10-16T14:35:47.000Z</time>
      </trkpt>
      <trkpt lat="45.09118" lon="5.22355">
        <ele>201.1</ele>
        <time>2022-10-16T14:35:48.000Z</time>
      </trkpt>
      <trkpt lat="45.0912" lon="5.22358">
        <ele>201.2</ele>
        <time>2022-10-16T14:35:49.000Z</time>
      </trkpt>
      <trkpt lat="45.09122" lon="5.2236">
        <ele>201.3</ele>
        <time>2022-10-16T14:35:50.000Z</time>
      </trkpt>
      <trkpt lat="45.09123" lon="5.22363">
        <ele>201.7</ele>
        <time>2022-10-16T14:35:51.000Z</time>
      </trkpt>
      <trkpt lat="45.09125" lon="5.22366">
        <ele>202</ele>
        <time>2022-10-16T14:35:52.000Z</time>
      </trkpt>
      <trkpt lat="45.09127" lon="5.22368">
        <ele>202.3</ele>
        <time>2022-10-16T14:35:53.000Z</time>
      </trkpt>
      <trkpt lat="45.09128" lon="5.22371">
        <ele>202.7</ele>
        <time>2022-10-16T14:35:54.000Z</time>
      </trkpt>
      <trkpt lat="45.0913" lon="5.22373">
        <ele>203</ele>
        <time>2022-10-16T14:35:55.000Z</time>
      </trkpt>
      <trkpt lat="45.09132" lon="5.22376">
        <ele>203.3</ele>
        <time>2022-10-16T14:35:56.000Z</time>
      </trkpt>
      <trkpt lat="45.09133" lon="5.22379">
        <ele>203.7</ele>
        <time>2022-10-16T14:35:57.000Z</time>
      </trkpt>
      <trkpt lat="45.09135" lon="5.22381">
        <ele>204</ele>
        <time>2022-10-16T14:35:58.000Z</time>
      </trkpt>
      <trkpt lat="45.09136" lon="5.22383">
        <ele>204.3</ele>
        <time>2022-10-16T14:35:59.000Z</time>
      </trkpt>
      <trkpt lat="45.09138" lon="5.22386">
        <ele>204.7</ele>
        <time>2022-10-16T14:36:00.000Z</time>
      </trkpt>
      <trkpt lat="45.0914" lon="5.22389">
        <ele>205</ele>
        <time>2022-10-16T14:36:01.000Z</time>
      </trkpt>
      <trkpt lat="45.09141" lon="5.22392">
        <ele>205.8</ele>
        <time>2022-10-16T14:36:02.000Z</time>
      </trkpt>
      <trkpt lat="45.09143" lon="5.22395">
        <ele>206.4</ele>
        <time>2022-10-16T14:36:03.000Z</time>
      </trkpt>
      <trkpt lat="45.09144" lon="5.22397">
        <ele>206.9</ele>
        <time>2022-10-16T14:36:04.000Z</time>
      </trkpt>
      <trkpt lat="45.09146" lon="5.224">
        <ele>207.3</ele>
        <time>2022-10-16T14:36:05.000Z</time>
      </trkpt>
      <trkpt lat="45.09148" lon="5.22402">
        <ele>207.8</ele>
        <time>2022-10-16T14:36:06.000Z</time>
      </trkpt>
      <trkpt lat="45.09149" lon="5.22405">
        <ele>208.1</ele>
        <time>2022-10-16T14:36:07.000Z</time>
      </trkpt>
      <trkpt lat="45.09151" lon="5.22407">
        <ele>208.4</ele>
        <time>2022-10-16T14:36:08.000Z</time>
      </trkpt>
      <trkpt lat="45.09152" lon="5.2241">
        <ele>208.6</ele>
        <time>2022-10-16T14:36:09.000Z</time>
      </trkpt>
      <trkpt lat="45.09154" lon="5.22412">
        <ele>208.7</ele>
        <time>2022-10-16T14:36:10.000Z</time>
      </trkpt>
      <trkpt lat="45.09156" lon="5.22415">
        <ele>208.8</ele>
        <time>2022-10-16T14:36:11.000Z</time>
      </trkpt>
      <trkpt lat="45.09157" lon="5.22417">
        <ele>208.8</ele>
        <time>2022-10-16T14:36:12.000Z</time>
      </trkpt>
      <trkpt lat="45.09159" lon="5.2242">
        <ele>208.9</ele>
        <time>2022-10-16T14:36:13.000Z</time>
      </trkpt>
      <trkpt lat="45.09161" lon="5.22423">
        <ele>208.9</ele>
        <time>2022-10-16T14:36:14.000Z</time>
      </trkpt>
      <trkpt lat="45.09162" lon="5.22425">
        <ele>209</ele>
        <time>2022-10-16T14:36:15.000Z</time>
      </trkpt>
      <trkpt lat="45.09164" lon="5.22428">
        <ele>209.1</ele>
        <time>2022-10-16T14:36:16.000Z</time>
      </trkpt>
      <trkpt lat="45.09166" lon="5.22431">
        <ele>209.2</ele>
        <time>2022-10-16T14:36:17.000Z</time>
      </trkpt>
      <trkpt lat="45.09167" lon="5.22433">
        <ele>209.3</ele>
        <time>2022-10-16T14:36:18.000Z</time>
      </trkpt>
      <trkpt lat="45.09169" lon="5.22436">
        <ele>209.6</ele>
        <time>2022-10-16T14:36:19.000Z</time>
      </trkpt>
      <trkpt lat="45.09171" lon="5.22438">
        <ele>209.9</ele>
        <time>2022-10-16T14:36:20.000Z</time>
      </trkpt>
      <trkpt lat="45.09172" lon="5.22441">
        <ele>210.1</ele>
        <time>2022-10-16T14:36:21.000Z</time>
      </trkpt>
      <trkpt lat="45.09174" lon="5.22444">
        <ele>210.4</ele>
        <time>2022-10-16T14:36:22.000Z</time>
      </trkpt>
      <trkpt lat="45.09175" lon="5.22446">
        <ele>210.6</ele>
        <time>2022-10-16T14:36:23.000Z</time>
      </trkpt>
      <trkpt lat="45.09177" lon="5.22449">
        <ele>210.8</ele>
        <time>2022-10-16T14:36:24.000Z</time>
      </trkpt>
      <trkpt lat="45.09178" lon="5.22451">
        <ele>210.9</ele>
        <time>2022-10-16T14:36:25.000Z</time>
      </trkpt>
      <trkpt lat="45.0918" lon="5.22453">
        <ele>211</ele>
        <time>2022-10-16T14:36:26.000Z</time>
      </trkpt>
      <trkpt lat="45.09182" lon="5.22456">
        <ele>211</ele>
        <time>2022-10-16T14:36:27.000Z</time>
      </trkpt>
      <trkpt lat="45.09184" lon="5.22459">
        <ele>211.1</ele>
        <time>2022-10-16T14:36:28.000Z</time>
      </trkpt>
      <trkpt lat="45.09185" lon="5.22461">
        <ele>211.1</ele>
        <time>2022-10-16T14:36:29.000Z</time>
      </trkpt>
      <trkpt lat="45.09187" lon="5.22464">
        <ele>211.1</ele>
        <time>2022-10-16T14:36:30.000Z</time>
      </trkpt>
      <trkpt lat="45.09188" lon="5.22466">
        <ele>211</ele>
        <time>2022-10-16T14:36:31.000Z</time>
      </trkpt>
      <trkpt lat="45.0919" lon="5.22469">
        <ele>210.8</ele>
        <time>2022-10-16T14:36:32.000Z</time>
      </trkpt>
      <trkpt lat="45.09191" lon="5.22471">
        <ele>210.6</ele>
        <time>2022-10-16T14:36:33.000Z</time>
      </trkpt>
      <trkpt lat="45.09193" lon="5.22473">
        <ele>210.5</ele>
        <time>2022-10-16T14:36:34.000Z</time>
      </trkpt>
      <trkpt lat="45.09195" lon="5.22476">
        <ele>210.7</ele>
        <time>2022-10-16T14:36:35.000Z</time>
      </trkpt>
      <trkpt lat="45.09196" lon="5.22479">
        <ele>211</ele>
        <time>2022-10-16T14:36:36.000Z</time>
      </trkpt>
      <trkpt lat="45.09198" lon="5.22481">
        <ele>211.2</ele>
        <time>2022-10-16T14:36:37.000Z</time>
      </trkpt>
      <trkpt lat="45.092" lon="5.22484">
        <ele>211.5</ele>
        <time>2022-10-16T14:36:38.000Z</time>
      </trkpt>
      <trkpt lat="45.09201" lon="5.22486">
        <ele>211.8</ele>
        <time>2022-10-16T14:36:39.000Z</time>
      </trkpt>
      <trkpt lat="45.09203" lon="5.22489">
        <ele>212</ele>
        <time>2022-10-16T14:36:40.000Z</time>
      </trkpt>
      <trkpt lat="45.09204" lon="5.22491">
        <ele>212.3</ele>
        <time>2022-10-16T14:36:41.000Z</time>
      </trkpt>
      <trkpt lat="45.09206" lon="5.22494">
        <ele>212.5</ele>
        <time>2022-10-16T14:36:42.000Z</time>
      </trkpt>
      <trkpt lat="45.09207" lon="5.22497">
        <ele>212.7</ele>
        <time>2022-10-16T14:36:43.000Z</time>
      </trkpt>
      <trkpt lat="45.09209" lon="5.22499">
        <ele>212.8</ele>
        <time>2022-10-16T14:36:44.000Z</time>
      </trkpt>
      <trkpt lat="45.0921" lon="5.22502">
        <ele>212.9</ele>
        <time>2022-10-16T14:36:45.000Z</time>
      </trkpt>
      <trkpt lat="45.09212" lon="5.22504">
        <ele>212.9</ele>
        <time>2022-10-16T14:36:46.000Z</time>
      </trkpt>
      <trkpt lat="45.09214" lon="5.22507">
        <ele>212.9</ele>
        <time>2022-10-16T14:36:47.000Z</time>
      </trkpt>
      <trkpt lat="45.09215" lon="5.2251">
        <ele>213</ele>
        <time>2022-10-16T14:36:48.000Z</time>
      </trkpt>
      <trkpt lat="45.09217" lon="5.22512">
        <ele>213</ele>
        <time>2022-10-16T14:36:49.000Z</time>
      </trkpt>
      <trkpt lat="45.09219" lon="5.22515">
        <ele>213</ele>
        <time>2022-10-16T14:36:50.000Z</time>
      </trkpt>
      <trkpt lat="45.0922" lon="5.22518">
        <ele>213.1</ele>
        <time>2022-10-16T14:36:51.000Z</time>
      </trkpt>
      <trkpt lat="45.09222" lon="5.2252">
        <ele>213.2</ele>
        <time>2022-10-16T14:36:52.000Z</time>
      </trkpt>
      <trkpt lat="45.09224" lon="5.22523">
        <ele>213.4</ele>
        <time>2022-10-16T14:36:53.000Z</time>
      </trkpt>
      <trkpt lat="45.09226" lon="5.22526">
        <ele>213.6</ele>
        <time>2022-10-16T14:36:54.000Z</time>
      </trkpt>
      <trkpt lat="45.09227" lon="5.22529">
        <ele>213.8</ele>
        <time>2022-10-16T14:36:55.000Z</time>
      </trkpt>
      <trkpt lat="45.09229" lon="5.22532">
        <ele>214</ele>
        <time>2022-10-16T14:36:56.000Z</time>
      </trkpt>
      <trkpt lat="45.0923" lon="5.22534">
        <ele>214.2</ele>
        <time>2022-10-16T14:36:57.000Z</time>
      </trkpt>
      <trkpt lat="45.09232" lon="5.22537">
        <ele>214.4</ele>
        <time>2022-10-16T14:36:58.000Z</time>
      </trkpt>
      <trkpt lat="45.09234" lon="5.2254">
        <ele>214.6</ele>
        <time>2022-10-16T14:36:59.000Z</time>
      </trkpt>
      <trkpt lat="45.09236" lon="5.22543">
        <ele>214.9</ele>
        <time>2022-10-16T14:37:00.000Z</time>
      </trkpt>
      <trkpt lat="45.09237" lon="5.22545">
        <ele>215.1</ele>
        <time>2022-10-16T14:37:01.000Z</time>
      </trkpt>
      <trkpt lat="45.09239" lon="5.22548">
        <ele>215.4</ele>
        <time>2022-10-16T14:37:02.000Z</time>
      </trkpt>
      <trkpt lat="45.09241" lon="5.22551">
        <ele>215.7</ele>
        <time>2022-10-16T14:37:03.000Z</time>
      </trkpt>
      <trkpt lat="45.09242" lon="5.22554">
        <ele>216</ele>
        <time>2022-10-16T14:37:04.000Z</time>
      </trkpt>
      <trkpt lat="45.09244" lon="5.22556">
        <ele>216.3</ele>
        <time>2022-10-16T14:37:05.000Z</time>
      </trkpt>
      <trkpt lat="45.09245" lon="5.22559">
        <ele>216.4</ele>
        <time>2022-10-16T14:37:06.000Z</time>
      </trkpt>
      <trkpt lat="45.09247" lon="5.22562">
        <ele>216.6</ele>
        <time>2022-10-16T14:37:07.000Z</time>
      </trkpt>
      <trkpt lat="45.09249" lon="5.22565">
        <ele>216.7</ele>
        <time>2022-10-16T14:37:08.000Z</time>
      </trkpt>
      <trkpt lat="45.0925" lon="5.22567">
        <ele>216.8</ele>
        <time>2022-10-16T14:37:09.000Z</time>
      </trkpt>
      <trkpt lat="45.09252" lon="5.2257">
        <ele>216.9</ele>
        <time>2022-10-16T14:37:10.000Z</time>
      </trkpt>
      <trkpt lat="45.09254" lon="5.22573">
        <ele>217</ele>
        <time>2022-10-16T14:37:11.000Z</time>
      </trkpt>
      <trkpt lat="45.09255" lon="5.22576">
        <ele>217.1</ele>
        <time>2022-10-16T14:37:12.000Z</time>
      </trkpt>
      <trkpt lat="45.09257" lon="5.22579">
        <ele>217.2</ele>
        <time>2022-10-16T14:37:13.000Z</time>
      </trkpt>
      <trkpt lat="45.09259" lon="5.22582">
        <ele>217.2</ele>
        <time>2022-10-16T14:37:14.000Z</time>
      </trkpt>
      <trkpt lat="45.0926" lon="5.22585">
        <ele>217.4</ele>
        <time>2022-10-16T14:37:15.000Z</time>
      </trkpt>
      <trkpt lat="45.09262" lon="5.22587">
        <ele>217.5</ele>
        <time>2022-10-16T14:37:16.000Z</time>
      </trkpt>
      <trkpt lat="45.09263" lon="5.2259">
        <ele>217.7</ele>
        <time>2022-10-16T14:37:17.000Z</time>
      </trkpt>
      <trkpt lat="45.09265" lon="5.22593">
        <ele>217.8</ele>
        <time>2022-10-16T14:37:18.000Z</time>
      </trkpt>
      <trkpt lat="45.09266" lon="5.22596">
        <ele>218</ele>
        <time>2022-10-16T14:37:19.000Z</time>
      </trkpt>
      <trkpt lat="45.09267" lon="5.22599">
        <ele>218.3</ele>
        <time>2022-10-16T14:37:20.000Z</time>
      </trkpt>
      <trkpt lat="45.09268" lon="5.22602">
        <ele>218.5</ele>
        <time>2022-10-16T14:37:21.000Z</time>
      </trkpt>
      <trkpt lat="45.0927" lon="5.22605">
        <ele>218.7</ele>
        <time>2022-10-16T14:37:22.000Z</time>
      </trkpt>
      <trkpt lat="45.09271" lon="5.22609">
        <ele>219</ele>
        <time>2022-10-16T14:37:23.000Z</time>
      </trkpt>
      <trkpt lat="45.09272" lon="5.22612">
        <ele>219.2</ele>
        <time>2022-10-16T14:37:24.000Z</time>
      </trkpt>
      <trkpt lat="45.09273" lon="5.22615">
        <ele>219.3</ele>
        <time>2022-10-16T14:37:25.000Z</time>
      </trkpt>
      <trkpt lat="45.09275" lon="5.22618">
        <ele>219.3</ele>
        <time>2022-10-16T14:37:26.000Z</time>
      </trkpt>
      <trkpt lat="45.09276" lon="5.22621">
        <ele>219.4</ele>
        <time>2022-10-16T14:37:27.000Z</time>
      </trkpt>
      <trkpt lat="45.09277" lon="5.22624">
        <ele>219.5</ele>
        <time>2022-10-16T14:37:28.000Z</time>
      </trkpt>
      <trkpt lat="45.09279" lon="5.22627">
        <ele>219.6</ele>
        <time>2022-10-16T14:37:29.000Z</time>
      </trkpt>
      <trkpt lat="45.0928" lon="5.2263">
        <ele>219.8</ele>
        <time>2022-10-16T14:37:30.000Z</time>
      </trkpt>
      <trkpt lat="45.09282" lon="5.22633">
        <ele>220</ele>
        <time>2022-10-16T14:37:31.000Z</time>
      </trkpt>
      <trkpt lat="45.09283" lon="5.22636">
        <ele>220.3</ele>
        <time>2022-10-16T14:37:32.000Z</time>
      </trkpt>
      <trkpt lat="45.09284" lon="5.2264">
        <ele>220.5</ele>
        <time>2022-10-16T14:37:33.000Z</time>
      </trkpt>
      <trkpt lat="45.09286" lon="5.22644">
        <ele>220.7</ele>
        <time>2022-10-16T14:37:34.000Z</time>
      </trkpt>
      <trkpt lat="45.09287" lon="5.22647">
        <ele>220.9</ele>
        <time>2022-10-16T14:37:35.000Z</time>
      </trkpt>
      <trkpt lat="45.09289" lon="5.2265">
        <ele>221</ele>
        <time>2022-10-16T14:37:36.000Z</time>
      </trkpt>
      <trkpt lat="45.0929" lon="5.22654">
        <ele>221.2</ele>
        <time>2022-10-16T14:37:37.000Z</time>
      </trkpt>
      <trkpt lat="45.09292" lon="5.22657">
        <ele>221.3</ele>
        <time>2022-10-16T14:37:38.000Z</time>
      </trkpt>
      <trkpt lat="45.09294" lon="5.2266">
        <ele>221.5</ele>
        <time>2022-10-16T14:37:39.000Z</time>
      </trkpt>
      <trkpt lat="45.09296" lon="5.22664">
        <ele>221.6</ele>
        <time>2022-10-16T14:37:40.000Z</time>
      </trkpt>
      <trkpt lat="45.09297" lon="5.22668">
        <ele>221.7</ele>
        <time>2022-10-16T14:37:41.000Z</time>
      </trkpt>
      <trkpt lat="45.09299" lon="5.22672">
        <ele>221.7</ele>
        <time>2022-10-16T14:37:42.000Z</time>
      </trkpt>
      <trkpt lat="45.09301" lon="5.22676">
        <ele>221.8</ele>
        <time>2022-10-16T14:37:43.000Z</time>
      </trkpt>
      <trkpt lat="45.09302" lon="5.2268">
        <ele>221.8</ele>
        <time>2022-10-16T14:37:44.000Z</time>
      </trkpt>
      <trkpt lat="45.09304" lon="5.22684">
        <ele>221.9</ele>
        <time>2022-10-16T14:37:45.000Z</time>
      </trkpt>
      <trkpt lat="45.09306" lon="5.22689">
        <ele>222</ele>
        <time>2022-10-16T14:37:46.000Z</time>
      </trkpt>
      <trkpt lat="45.09308" lon="5.22694">
        <ele>222.1</ele>
        <time>2022-10-16T14:37:47.000Z</time>
      </trkpt>
      <trkpt lat="45.0931" lon="5.22698">
        <ele>222</ele>
        <time>2022-10-16T14:37:48.000Z</time>
      </trkpt>
      <trkpt lat="45.09312" lon="5.22703">
        <ele>222</ele>
        <time>2022-10-16T14:37:49.000Z</time>
      </trkpt>
      <trkpt lat="45.09313" lon="5.22706">
        <ele>222</ele>
        <time>2022-10-16T14:37:50.000Z</time>
      </trkpt>
      <trkpt lat="45.09315" lon="5.2271">
        <ele>221.9</ele>
        <time>2022-10-16T14:37:51.000Z</time>
      </trkpt>
      <trkpt lat="45.09316" lon="5.22714">
        <ele>221.9</ele>
        <time>2022-10-16T14:37:52.000Z</time>
      </trkpt>
      <trkpt lat="45.09318" lon="5.22719">
        <ele>222</ele>
        <time>2022-10-16T14:37:53.000Z</time>
      </trkpt>
      <trkpt lat="45.0932" lon="5.22724">
        <ele>222</ele>
        <time>2022-10-16T14:37:54.000Z</time>
      </trkpt>
      <trkpt lat="45.09321" lon="5.22728">
        <ele>222.1</ele>
        <time>2022-10-16T14:37:55.000Z</time>
      </trkpt>
      <trkpt lat="45.09323" lon="5.22733">
        <ele>222.2</ele>
        <time>2022-10-16T14:37:56.000Z</time>
      </trkpt>
      <trkpt lat="45.09324" lon="5.22737">
        <ele>222.3</ele>
        <time>2022-10-16T14:37:57.000Z</time>
      </trkpt>
      <trkpt lat="45.09326" lon="5.22741">
        <ele>222.4</ele>
        <time>2022-10-16T14:37:58.000Z</time>
      </trkpt>
      <trkpt lat="45.09327" lon="5.22746">
        <ele>222.5</ele>
        <time>2022-10-16T14:37:59.000Z</time>
      </trkpt>
      <trkpt lat="45.09329" lon="5.2275">
        <ele>222.7</ele>
        <time>2022-10-16T14:38:00.000Z</time>
      </trkpt>
      <trkpt lat="45.0933" lon="5.22755">
        <ele>222.6</ele>
        <time>2022-10-16T14:38:01.000Z</time>
      </trkpt>
      <trkpt lat="45.09332" lon="5.22759">
        <ele>222.6</ele>
        <time>2022-10-16T14:38:02.000Z</time>
      </trkpt>
      <trkpt lat="45.09334" lon="5.22764">
        <ele>222.6</ele>
        <time>2022-10-16T14:38:03.000Z</time>
      </trkpt>
      <trkpt lat="45.09336" lon="5.22769">
        <ele>222.6</ele>
        <time>2022-10-16T14:38:04.000Z</time>
      </trkpt>
      <trkpt lat="45.09337" lon="5.22773">
        <ele>222.7</ele>
        <time>2022-10-16T14:38:05.000Z</time>
      </trkpt>
      <trkpt lat="45.09339" lon="5.22778">
        <ele>222.8</ele>
        <time>2022-10-16T14:38:06.000Z</time>
      </trkpt>
      <trkpt lat="45.09341" lon="5.22783">
        <ele>222.8</ele>
        <time>2022-10-16T14:38:07.000Z</time>
      </trkpt>
      <trkpt lat="45.09342" lon="5.22787">
        <ele>222.7</ele>
        <time>2022-10-16T14:38:08.000Z</time>
      </trkpt>
      <trkpt lat="45.09344" lon="5.22792">
        <ele>222.8</ele>
        <time>2022-10-16T14:38:09.000Z</time>
      </trkpt>
      <trkpt lat="45.09346" lon="5.22796">
        <ele>222.8</ele>
        <time>2022-10-16T14:38:10.000Z</time>
      </trkpt>
      <trkpt lat="45.09348" lon="5.22801">
        <ele>222.9</ele>
        <time>2022-10-16T14:38:11.000Z</time>
      </trkpt>
      <trkpt lat="45.0935" lon="5.22805">
        <ele>222.9</ele>
        <time>2022-10-16T14:38:12.000Z</time>
      </trkpt>
      <trkpt lat="45.09351" lon="5.22809">
        <ele>223</ele>
        <time>2022-10-16T14:38:13.000Z</time>
      </trkpt>
      <trkpt lat="45.09353" lon="5.22813">
        <ele>223.1</ele>
        <time>2022-10-16T14:38:14.000Z</time>
      </trkpt>
      <trkpt lat="45.09355" lon="5.22818">
        <ele>223.3</ele>
        <time>2022-10-16T14:38:15.000Z</time>
      </trkpt>
      <trkpt lat="45.09357" lon="5.22822">
        <ele>223.5</ele>
        <time>2022-10-16T14:38:16.000Z</time>
      </trkpt>
      <trkpt lat="45.09359" lon="5.22826">
        <ele>223.7</ele>
        <time>2022-10-16T14:38:17.000Z</time>
      </trkpt>
      <trkpt lat="45.09361" lon="5.2283">
        <ele>224</ele>
        <time>2022-10-16T14:38:18.000Z</time>
      </trkpt>
      <trkpt lat="45.09363" lon="5.22835">
        <ele>224.1</ele>
        <time>2022-10-16T14:38:19.000Z</time>
      </trkpt>
      <trkpt lat="45.09364" lon="5.22839">
        <ele>224.1</ele>
        <time>2022-10-16T14:38:20.000Z</time>
      </trkpt>
      <trkpt lat="45.09366" lon="5.22844">
        <ele>224.1</ele>
        <time>2022-10-16T14:38:21.000Z</time>
      </trkpt>
      <trkpt lat="45.09368" lon="5.22848">
        <ele>224.1</ele>
        <time>2022-10-16T14:38:22.000Z</time>
      </trkpt>
      <trkpt lat="45.09369" lon="5.22852">
        <ele>224.2</ele>
        <time>2022-10-16T14:38:23.000Z</time>
      </trkpt>
      <trkpt lat="45.09371" lon="5.22857">
        <ele>224.3</ele>
        <time>2022-10-16T14:38:24.000Z</time>
      </trkpt>
      <trkpt lat="45.09373" lon="5.22861">
        <ele>224.5</ele>
        <time>2022-10-16T14:38:25.000Z</time>
      </trkpt>
      <trkpt lat="45.09374" lon="5.22865">
        <ele>224.6</ele>
        <time>2022-10-16T14:38:26.000Z</time>
      </trkpt>
      <trkpt lat="45.09376" lon="5.22869">
        <ele>224.7</ele>
        <time>2022-10-16T14:38:27.000Z</time>
      </trkpt>
      <trkpt lat="45.09377" lon="5.22873">
        <ele>224.8</ele>
        <time>2022-10-16T14:38:28.000Z</time>
      </trkpt>
      <trkpt lat="45.09378" lon="5.22877">
        <ele>225</ele>
        <time>2022-10-16T14:38:29.000Z</time>
      </trkpt>
      <trkpt lat="45.0938" lon="5.22882">
        <ele>225.4</ele>
        <time>2022-10-16T14:38:30.000Z</time>
      </trkpt>
      <trkpt lat="45.09382" lon="5.22886">
        <ele>225.7</ele>
        <time>2022-10-16T14:38:31.000Z</time>
      </trkpt>
      <trkpt lat="45.09383" lon="5.2289">
        <ele>226</ele>
        <time>2022-10-16T14:38:32.000Z</time>
      </trkpt>
      <trkpt lat="45.09384" lon="5.22894">
        <ele>226.4</ele>
        <time>2022-10-16T14:38:33.000Z</time>
      </trkpt>
      <trkpt lat="45.09386" lon="5.22898">
        <ele>226.7</ele>
        <time>2022-10-16T14:38:34.000Z</time>
      </trkpt>
      <trkpt lat="45.09387" lon="5.22902">
        <ele>227</ele>
        <time>2022-10-16T14:38:35.000Z</time>
      </trkpt>
      <trkpt lat="45.09389" lon="5.22906">
        <ele>227.4</ele>
        <time>2022-10-16T14:38:36.000Z</time>
      </trkpt>
      <trkpt lat="45.0939" lon="5.2291">
        <ele>227.4</ele>
        <time>2022-10-16T14:38:37.000Z</time>
      </trkpt>
      <trkpt lat="45.09392" lon="5.22914">
        <ele>227.4</ele>
        <time>2022-10-16T14:38:38.000Z</time>
      </trkpt>
      <trkpt lat="45.09393" lon="5.22918">
        <ele>227.4</ele>
        <time>2022-10-16T14:38:39.000Z</time>
      </trkpt>
      <trkpt lat="45.09395" lon="5.22922">
        <ele>227.3</ele>
        <time>2022-10-16T14:38:40.000Z</time>
      </trkpt>
      <trkpt lat="45.09397" lon="5.22926">
        <ele>227.3</ele>
        <time>2022-10-16T14:38:41.000Z</time>
      </trkpt>
      <trkpt lat="45.09398" lon="5.2293">
        <ele>227.3</ele>
        <time>2022-10-16T14:38:42.000Z</time>
      </trkpt>
      <trkpt lat="45.094" lon="5.22934">
        <ele>227.4</ele>
        <time>2022-10-16T14:38:43.000Z</time>
      </trkpt>
      <trkpt lat="45.09401" lon="5.22938">
        <ele>227.4</ele>
        <time>2022-10-16T14:38:44.000Z</time>
      </trkpt>
      <trkpt lat="45.09402" lon="5.22943">
        <ele>227.5</ele>
        <time>2022-10-16T14:38:45.000Z</time>
      </trkpt>
      <trkpt lat="45.09404" lon="5.22947">
        <ele>227.6</ele>
        <time>2022-10-16T14:38:46.000Z</time>
      </trkpt>
      <trkpt lat="45.09406" lon="5.22951">
        <ele>227.9</ele>
        <time>2022-10-16T14:38:47.000Z</time>
      </trkpt>
      <trkpt lat="45.09407" lon="5.22956">
        <ele>228.2</ele>
        <time>2022-10-16T14:38:48.000Z</time>
      </trkpt>
      <trkpt lat="45.09409" lon="5.2296">
        <ele>228.5</ele>
        <time>2022-10-16T14:38:49.000Z</time>
      </trkpt>
      <trkpt lat="45.09411" lon="5.22965">
        <ele>228.9</ele>
        <time>2022-10-16T14:38:50.000Z</time>
      </trkpt>
      <trkpt lat="45.09413" lon="5.22969">
        <ele>229.2</ele>
        <time>2022-10-16T14:38:51.000Z</time>
      </trkpt>
      <trkpt lat="45.09415" lon="5.22973">
        <ele>229.6</ele>
        <time>2022-10-16T14:38:52.000Z</time>
      </trkpt>
      <trkpt lat="45.09416" lon="5.22978">
        <ele>230.1</ele>
        <time>2022-10-16T14:38:53.000Z</time>
      </trkpt>
      <trkpt lat="45.09418" lon="5.22982">
        <ele>230.4</ele>
        <time>2022-10-16T14:38:54.000Z</time>
      </trkpt>
      <trkpt lat="45.09419" lon="5.22986">
        <ele>230.6</ele>
        <time>2022-10-16T14:38:55.000Z</time>
      </trkpt>
      <trkpt lat="45.09421" lon="5.2299">
        <ele>230.9</ele>
        <time>2022-10-16T14:38:56.000Z</time>
      </trkpt>
      <trkpt lat="45.09423" lon="5.22995">
        <ele>231.1</ele>
        <time>2022-10-16T14:38:57.000Z</time>
      </trkpt>
      <trkpt lat="45.09424" lon="5.22999">
        <ele>231.2</ele>
        <time>2022-10-16T14:38:58.000Z</time>
      </trkpt>
      <trkpt lat="45.09426" lon="5.23003">
        <ele>231.3</ele>
        <time>2022-10-16T14:38:59.000Z</time>
      </trkpt>
      <trkpt lat="45.09428" lon="5.23008">
        <ele>231.4</ele>
        <time>2022-10-16T14:39:00.000Z</time>
      </trkpt>
      <trkpt lat="45.09429" lon="5.23012">
        <ele>231.4</ele>
        <time>2022-10-16T14:39:01.000Z</time>
      </trkpt>
      <trkpt lat="45.09431" lon="5.23016">
        <ele>231.5</ele>
        <time>2022-10-16T14:39:02.000Z</time>
      </trkpt>
      <trkpt lat="45.09432" lon="5.2302">
        <ele>231.6</ele>
        <time>2022-10-16T14:39:03.000Z</time>
      </trkpt>
      <trkpt lat="45.09434" lon="5.23025">
        <ele>231.6</ele>
        <time>2022-10-16T14:39:04.000Z</time>
      </trkpt>
      <trkpt lat="45.09435" lon="5.23029">
        <ele>231.7</ele>
        <time>2022-10-16T14:39:05.000Z</time>
      </trkpt>
      <trkpt lat="45.09437" lon="5.23033">
        <ele>231.7</ele>
        <time>2022-10-16T14:39:06.000Z</time>
      </trkpt>
      <trkpt lat="45.09438" lon="5.23038">
        <ele>231.9</ele>
        <time>2022-10-16T14:39:07.000Z</time>
      </trkpt>
      <trkpt lat="45.0944" lon="5.23042">
        <ele>232.1</ele>
        <time>2022-10-16T14:39:08.000Z</time>
      </trkpt>
      <trkpt lat="45.09441" lon="5.23046">
        <ele>232.3</ele>
        <time>2022-10-16T14:39:09.000Z</time>
      </trkpt>
      <trkpt lat="45.09443" lon="5.23051">
        <ele>232.6</ele>
        <time>2022-10-16T14:39:10.000Z</time>
      </trkpt>
      <trkpt lat="45.09444" lon="5.23055">
        <ele>232.9</ele>
        <time>2022-10-16T14:39:11.000Z</time>
      </trkpt>
      <trkpt lat="45.09446" lon="5.23059">
        <ele>233.2</ele>
        <time>2022-10-16T14:39:12.000Z</time>
      </trkpt>
      <trkpt lat="45.09448" lon="5.23063">
        <ele>233.4</ele>
        <time>2022-10-16T14:39:13.000Z</time>
      </trkpt>
      <trkpt lat="45.09449" lon="5.23067">
        <ele>233.5</ele>
        <time>2022-10-16T14:39:14.000Z</time>
      </trkpt>
      <trkpt lat="45.09451" lon="5.23072">
        <ele>233.7</ele>
        <time>2022-10-16T14:39:15.000Z</time>
      </trkpt>
      <trkpt lat="45.09453" lon="5.23076">
        <ele>233.8</ele>
        <time>2022-10-16T14:39:16.000Z</time>
      </trkpt>
      <trkpt lat="45.09454" lon="5.2308">
        <ele>233.9</ele>
        <time>2022-10-16T14:39:17.000Z</time>
      </trkpt>
      <trkpt lat="45.09456" lon="5.23085">
        <ele>234</ele>
        <time>2022-10-16T14:39:18.000Z</time>
      </trkpt>
      <trkpt lat="45.09458" lon="5.23089">
        <ele>233.9</ele>
        <time>2022-10-16T14:39:19.000Z</time>
      </trkpt>
      <trkpt lat="45.09459" lon="5.23094">
        <ele>233.8</ele>
        <time>2022-10-16T14:39:20.000Z</time>
      </trkpt>
      <trkpt lat="45.09461" lon="5.23098">
        <ele>233.8</ele>
        <time>2022-10-16T14:39:21.000Z</time>
      </trkpt>
      <trkpt lat="45.09463" lon="5.23103">
        <ele>233.8</ele>
        <time>2022-10-16T14:39:22.000Z</time>
      </trkpt>
      <trkpt lat="45.09465" lon="5.23107">
        <ele>233.8</ele>
        <time>2022-10-16T14:39:23.000Z</time>
      </trkpt>
      <trkpt lat="45.09466" lon="5.23112">
        <ele>233.8</ele>
        <time>2022-10-16T14:39:24.000Z</time>
      </trkpt>
      <trkpt lat="45.09468" lon="5.23116">
        <ele>233.8</ele>
        <time>2022-10-16T14:39:25.000Z</time>
      </trkpt>
      <trkpt lat="45.09469" lon="5.23121">
        <ele>233.9</ele>
        <time>2022-10-16T14:39:26.000Z</time>
      </trkpt>
      <trkpt lat="45.09471" lon="5.23125">
        <ele>233.9</ele>
        <time>2022-10-16T14:39:27.000Z</time>
      </trkpt>
      <trkpt lat="45.09473" lon="5.2313">
        <ele>234</ele>
        <time>2022-10-16T14:39:28.000Z</time>
      </trkpt>
      <trkpt lat="45.09475" lon="5.23134">
        <ele>234</ele>
        <time>2022-10-16T14:39:29.000Z</time>
      </trkpt>
      <trkpt lat="45.09476" lon="5.23139">
        <ele>234</ele>
        <time>2022-10-16T14:39:30.000Z</time>
      </trkpt>
      <trkpt lat="45.09478" lon="5.23143">
        <ele>234</ele>
        <time>2022-10-16T14:39:31.000Z</time>
      </trkpt>
      <trkpt lat="45.0948" lon="5.23148">
        <ele>234</ele>
        <time>2022-10-16T14:39:32.000Z</time>
      </trkpt>
      <trkpt lat="45.09482" lon="5.23153">
        <ele>234</ele>
        <time>2022-10-16T14:39:33.000Z</time>
      </trkpt>
      <trkpt lat="45.09484" lon="5.23159">
        <ele>234</ele>
        <time>2022-10-16T14:39:34.000Z</time>
      </trkpt>
      <trkpt lat="45.09486" lon="5.23164">
        <ele>234</ele>
        <time>2022-10-16T14:39:35.000Z</time>
      </trkpt>
      <trkpt lat="45.09489" lon="5.2317">
        <ele>234</ele>
        <time>2022-10-16T14:39:36.000Z</time>
      </trkpt>
      <trkpt lat="45.09491" lon="5.23176">
        <ele>234.1</ele>
        <time>2022-10-16T14:39:37.000Z</time>
      </trkpt>
      <trkpt lat="45.09493" lon="5.23182">
        <ele>234.2</ele>
        <time>2022-10-16T14:39:38.000Z</time>
      </trkpt>
      <trkpt lat="45.09495" lon="5.23188">
        <ele>234.5</ele>
        <time>2022-10-16T14:39:39.000Z</time>
      </trkpt>
      <trkpt lat="45.09497" lon="5.23194">
        <ele>234.7</ele>
        <time>2022-10-16T14:39:40.000Z</time>
      </trkpt>
      <trkpt lat="45.09499" lon="5.23201">
        <ele>234.7</ele>
        <time>2022-10-16T14:39:41.000Z</time>
      </trkpt>
      <trkpt lat="45.09501" lon="5.23207">
        <ele>234.5</ele>
        <time>2022-10-16T14:39:42.000Z</time>
      </trkpt>
      <trkpt lat="45.09504" lon="5.23214">
        <ele>234.3</ele>
        <time>2022-10-16T14:39:43.000Z</time>
      </trkpt>
      <trkpt lat="45.09506" lon="5.23222">
        <ele>234</ele>
        <time>2022-10-16T14:39:44.000Z</time>
      </trkpt>
      <trkpt lat="45.09509" lon="5.23229">
        <ele>234</ele>
        <time>2022-10-16T14:39:45.000Z</time>
      </trkpt>
      <trkpt lat="45.09512" lon="5.23237">
        <ele>234</ele>
        <time>2022-10-16T14:39:46.000Z</time>
      </trkpt>
      <trkpt lat="45.09515" lon="5.23245">
        <ele>234</ele>
        <time>2022-10-16T14:39:47.000Z</time>
      </trkpt>
      <trkpt lat="45.09518" lon="5.23253">
        <ele>234</ele>
        <time>2022-10-16T14:39:48.000Z</time>
      </trkpt>
      <trkpt lat="45.09521" lon="5.23261">
        <ele>234.2</ele>
        <time>2022-10-16T14:39:49.000Z</time>
      </trkpt>
      <trkpt lat="45.09524" lon="5.23268">
        <ele>234.5</ele>
        <time>2022-10-16T14:39:50.000Z</time>
      </trkpt>
      <trkpt lat="45.09527" lon="5.23276">
        <ele>234.9</ele>
        <time>2022-10-16T14:39:51.000Z</time>
      </trkpt>
      <trkpt lat="45.0953" lon="5.23284">
        <ele>234.7</ele>
        <time>2022-10-16T14:39:52.000Z</time>
      </trkpt>
      <trkpt lat="45.09533" lon="5.23291">
        <ele>234.4</ele>
        <time>2022-10-16T14:39:53.000Z</time>
      </trkpt>
      <trkpt lat="45.09536" lon="5.23299">
        <ele>234.2</ele>
        <time>2022-10-16T14:39:54.000Z</time>
      </trkpt>
      <trkpt lat="45.09538" lon="5.23306">
        <ele>234</ele>
        <time>2022-10-16T14:39:55.000Z</time>
      </trkpt>
      <trkpt lat="45.0954" lon="5.23313">
        <ele>234</ele>
        <time>2022-10-16T14:39:56.000Z</time>
      </trkpt>
      <trkpt lat="45.09543" lon="5.2332">
        <ele>234</ele>
        <time>2022-10-16T14:39:57.000Z</time>
      </trkpt>
      <trkpt lat="45.09545" lon="5.23327">
        <ele>234</ele>
        <time>2022-10-16T14:39:58.000Z</time>
      </trkpt>
      <trkpt lat="45.09548" lon="5.23334">
        <ele>234</ele>
        <time>2022-10-16T14:39:59.000Z</time>
      </trkpt>
      <trkpt lat="45.09551" lon="5.23341">
        <ele>234</ele>
        <time>2022-10-16T14:40:00.000Z</time>
      </trkpt>
      <trkpt lat="45.09553" lon="5.23348">
        <ele>234</ele>
        <time>2022-10-16T14:40:01.000Z</time>
      </trkpt>
      <trkpt lat="45.09556" lon="5.23354">
        <ele>234</ele>
        <time>2022-10-16T14:40:02.000Z</time>
      </trkpt>
      <trkpt lat="45.09558" lon="5.23361">
        <ele>234</ele>
        <time>2022-10-16T14:40:03.000Z</time>
      </trkpt>
      <trkpt lat="45.09561" lon="5.23368">
        <ele>234</ele>
        <time>2022-10-16T14:40:04.000Z</time>
      </trkpt>
      <trkpt lat="45.09563" lon="5.23375">
        <ele>234</ele>
        <time>2022-10-16T14:40:05.000Z</time>
      </trkpt>
      <trkpt lat="45.09566" lon="5.23382">
        <ele>234</ele>
        <time>2022-10-16T14:40:06.000Z</time>
      </trkpt>
      <trkpt lat="45.09569" lon="5.23389">
        <ele>234</ele>
        <time>2022-10-16T14:40:07.000Z</time>
      </trkpt>
      <trkpt lat="45.09572" lon="5.23397">
        <ele>234</ele>
        <time>2022-10-16T14:40:08.000Z</time>
      </trkpt>
      <trkpt lat="45.09575" lon="5.23405">
        <ele>234</ele>
        <time>2022-10-16T14:40:09.000Z</time>
      </trkpt>
      <trkpt lat="45.09578" lon="5.23412">
        <ele>234</ele>
        <time>2022-10-16T14:40:10.000Z</time>
      </trkpt>
      <trkpt lat="45.09581" lon="5.2342">
        <ele>234</ele>
        <time>2022-10-16T14:40:11.000Z</time>
      </trkpt>
      <trkpt lat="45.09584" lon="5.23428">
        <ele>234</ele>
        <time>2022-10-16T14:40:12.000Z</time>
      </trkpt>
      <trkpt lat="45.09586" lon="5.23435">
        <ele>234</ele>
        <time>2022-10-16T14:40:13.000Z</time>
      </trkpt>
      <trkpt lat="45.09589" lon="5.23443">
        <ele>234</ele>
        <time>2022-10-16T14:40:14.000Z</time>
      </trkpt>
      <trkpt lat="45.09592" lon="5.23451">
        <ele>234</ele>
        <time>2022-10-16T14:40:15.000Z</time>
      </trkpt>
      <trkpt lat="45.09595" lon="5.23458">
        <ele>234</ele>
        <time>2022-10-16T14:40:16.000Z</time>
      </trkpt>
      <trkpt lat="45.09597" lon="5.23466">
        <ele>234</ele>
        <time>2022-10-16T14:40:17.000Z</time>
      </trkpt>
      <trkpt lat="45.096" lon="5.23473">
        <ele>234</ele>
        <time>2022-10-16T14:40:18.000Z</time>
      </trkpt>
      <trkpt lat="45.09603" lon="5.2348">
        <ele>234.2</ele>
        <time>2022-10-16T14:40:19.000Z</time>
      </trkpt>
      <trkpt lat="45.09606" lon="5.23488">
        <ele>234.5</ele>
        <time>2022-10-16T14:40:20.000Z</time>
      </trkpt>
      <trkpt lat="45.09609" lon="5.23495">
        <ele>234.8</ele>
        <time>2022-10-16T14:40:21.000Z</time>
      </trkpt>
      <trkpt lat="45.09612" lon="5.23503">
        <ele>235</ele>
        <time>2022-10-16T14:40:22.000Z</time>
      </trkpt>
      <trkpt lat="45.09615" lon="5.2351">
        <ele>235</ele>
        <time>2022-10-16T14:40:23.000Z</time>
      </trkpt>
      <trkpt lat="45.09618" lon="5.23518">
        <ele>235</ele>
        <time>2022-10-16T14:40:24.000Z</time>
      </trkpt>
      <trkpt lat="45.09621" lon="5.23525">
        <ele>235</ele>
        <time>2022-10-16T14:40:25.000Z</time>
      </trkpt>
      <trkpt lat="45.09624" lon="5.23533">
        <ele>235</ele>
        <time>2022-10-16T14:40:26.000Z</time>
      </trkpt>
      <trkpt lat="45.09627" lon="5.2354">
        <ele>235</ele>
        <time>2022-10-16T14:40:27.000Z</time>
      </trkpt>
      <trkpt lat="45.09629" lon="5.23547">
        <ele>235</ele>
        <time>2022-10-16T14:40:28.000Z</time>
      </trkpt>
      <trkpt lat="45.09632" lon="5.23555">
        <ele>235</ele>
        <time>2022-10-16T14:40:29.000Z</time>
      </trkpt>
      <trkpt lat="45.09635" lon="5.23563">
        <ele>235</ele>
        <time>2022-10-16T14:40:30.000Z</time>
      </trkpt>
      <trkpt lat="45.09638" lon="5.2357">
        <ele>235</ele>
        <time>2022-10-16T14:40:31.000Z</time>
      </trkpt>
      <trkpt lat="45.09641" lon="5.23578">
        <ele>235</ele>
        <time>2022-10-16T14:40:32.000Z</time>
      </trkpt>
      <trkpt lat="45.09644" lon="5.23586">
        <ele>235</ele>
        <time>2022-10-16T14:40:33.000Z</time>
      </trkpt>
      <trkpt lat="45.09647" lon="5.23593">
        <ele>235</ele>
        <time>2022-10-16T14:40:34.000Z</time>
      </trkpt>
      <trkpt lat="45.0965" lon="5.23601">
        <ele>235</ele>
        <time>2022-10-16T14:40:35.000Z</time>
      </trkpt>
      <trkpt lat="45.09653" lon="5.23608">
        <ele>235</ele>
        <time>2022-10-16T14:40:36.000Z</time>
      </trkpt>
      <trkpt lat="45.09656" lon="5.23615">
        <ele>234.9</ele>
        <time>2022-10-16T14:40:37.000Z</time>
      </trkpt>
      <trkpt lat="45.09659" lon="5.23623">
        <ele>234.9</ele>
        <time>2022-10-16T14:40:38.000Z</time>
      </trkpt>
      <trkpt lat="45.09661" lon="5.2363">
        <ele>234.9</ele>
        <time>2022-10-16T14:40:39.000Z</time>
      </trkpt>
      <trkpt lat="45.09664" lon="5.23637">
        <ele>234.9</ele>
        <time>2022-10-16T14:40:40.000Z</time>
      </trkpt>
      <trkpt lat="45.09667" lon="5.23644">
        <ele>235</ele>
        <time>2022-10-16T14:40:41.000Z</time>
      </trkpt>
      <trkpt lat="45.09669" lon="5.23651">
        <ele>235</ele>
        <time>2022-10-16T14:40:42.000Z</time>
      </trkpt>
      <trkpt lat="45.09672" lon="5.23657">
        <ele>235</ele>
        <time>2022-10-16T14:40:43.000Z</time>
      </trkpt>
      <trkpt lat="45.09674" lon="5.23664">
        <ele>235</ele>
        <time>2022-10-16T14:40:44.000Z</time>
      </trkpt>
      <trkpt lat="45.09677" lon="5.23671">
        <ele>234.9</ele>
        <time>2022-10-16T14:40:45.000Z</time>
      </trkpt>
      <trkpt lat="45.09679" lon="5.23678">
        <ele>234.8</ele>
        <time>2022-10-16T14:40:46.000Z</time>
      </trkpt>
      <trkpt lat="45.09682" lon="5.23686">
        <ele>234.7</ele>
        <time>2022-10-16T14:40:47.000Z</time>
      </trkpt>
      <trkpt lat="45.09685" lon="5.23694">
        <ele>234.7</ele>
        <time>2022-10-16T14:40:48.000Z</time>
      </trkpt>
      <trkpt lat="45.09688" lon="5.23701">
        <ele>234.7</ele>
        <time>2022-10-16T14:40:49.000Z</time>
      </trkpt>
      <trkpt lat="45.09691" lon="5.23709">
        <ele>234.8</ele>
        <time>2022-10-16T14:40:50.000Z</time>
      </trkpt>
      <trkpt lat="45.09694" lon="5.23717">
        <ele>235</ele>
        <time>2022-10-16T14:40:51.000Z</time>
      </trkpt>
      <trkpt lat="45.09697" lon="5.23724">
        <ele>234.9</ele>
        <time>2022-10-16T14:40:52.000Z</time>
      </trkpt>
      <trkpt lat="45.097" lon="5.23732">
        <ele>234.7</ele>
        <time>2022-10-16T14:40:53.000Z</time>
      </trkpt>
      <trkpt lat="45.09703" lon="5.2374">
        <ele>234.6</ele>
        <time>2022-10-16T14:40:54.000Z</time>
      </trkpt>
      <trkpt lat="45.09706" lon="5.23748">
        <ele>234.5</ele>
        <time>2022-10-16T14:40:55.000Z</time>
      </trkpt>
      <trkpt lat="45.09709" lon="5.23756">
        <ele>234.7</ele>
        <time>2022-10-16T14:40:56.000Z</time>
      </trkpt>
      <trkpt lat="45.09712" lon="5.23763">
        <ele>235.1</ele>
        <time>2022-10-16T14:40:57.000Z</time>
      </trkpt>
      <trkpt lat="45.09715" lon="5.23771">
        <ele>235.5</ele>
        <time>2022-10-16T14:40:58.000Z</time>
      </trkpt>
      <trkpt lat="45.09718" lon="5.23778">
        <ele>235.8</ele>
        <time>2022-10-16T14:40:59.000Z</time>
      </trkpt>
      <trkpt lat="45.09721" lon="5.23786">
        <ele>235.7</ele>
        <time>2022-10-16T14:41:00.000Z</time>
      </trkpt>
      <trkpt lat="45.09724" lon="5.23793">
        <ele>235.4</ele>
        <time>2022-10-16T14:41:01.000Z</time>
      </trkpt>
      <trkpt lat="45.09727" lon="5.238">
        <ele>235.2</ele>
        <time>2022-10-16T14:41:02.000Z</time>
      </trkpt>
      <trkpt lat="45.0973" lon="5.23807">
        <ele>235</ele>
        <time>2022-10-16T14:41:03.000Z</time>
      </trkpt>
      <trkpt lat="45.09732" lon="5.23814">
        <ele>235.2</ele>
        <time>2022-10-16T14:41:04.000Z</time>
      </trkpt>
      <trkpt lat="45.09735" lon="5.23821">
        <ele>235.3</ele>
        <time>2022-10-16T14:41:05.000Z</time>
      </trkpt>
      <trkpt lat="45.09737" lon="5.23828">
        <ele>235.4</ele>
        <time>2022-10-16T14:41:06.000Z</time>
      </trkpt>
      <trkpt lat="45.0974" lon="5.23835">
        <ele>235.4</ele>
        <time>2022-10-16T14:41:07.000Z</time>
      </trkpt>
      <trkpt lat="45.09743" lon="5.23843">
        <ele>235.5</ele>
        <time>2022-10-16T14:41:08.000Z</time>
      </trkpt>
      <trkpt lat="45.09746" lon="5.23851">
        <ele>235.7</ele>
        <time>2022-10-16T14:41:09.000Z</time>
      </trkpt>
      <trkpt lat="45.09749" lon="5.23859">
        <ele>235.9</ele>
        <time>2022-10-16T14:41:10.000Z</time>
      </trkpt>
      <trkpt lat="45.09752" lon="5.23867">
        <ele>235.9</ele>
        <time>2022-10-16T14:41:11.000Z</time>
      </trkpt>
      <trkpt lat="45.09755" lon="5.23875">
        <ele>235.8</ele>
        <time>2022-10-16T14:41:12.000Z</time>
      </trkpt>
      <trkpt lat="45.09759" lon="5.23882">
        <ele>235.7</ele>
        <time>2022-10-16T14:41:13.000Z</time>
      </trkpt>
      <trkpt lat="45.09761" lon="5.23889">
        <ele>235.6</ele>
        <time>2022-10-16T14:41:14.000Z</time>
      </trkpt>
      <trkpt lat="45.09764" lon="5.23897">
        <ele>235.6</ele>
        <time>2022-10-16T14:41:15.000Z</time>
      </trkpt>
      <trkpt lat="45.09766" lon="5.23904">
        <ele>235.7</ele>
        <time>2022-10-16T14:41:16.000Z</time>
      </trkpt>
      <trkpt lat="45.09769" lon="5.23911">
        <ele>235.9</ele>
        <time>2022-10-16T14:41:17.000Z</time>
      </trkpt>
      <trkpt lat="45.09772" lon="5.23918">
        <ele>236</ele>
        <time>2022-10-16T14:41:18.000Z</time>
      </trkpt>
      <trkpt lat="45.09774" lon="5.23925">
        <ele>236</ele>
        <time>2022-10-16T14:41:19.000Z</time>
      </trkpt>
      <trkpt lat="45.09777" lon="5.23932">
        <ele>236</ele>
        <time>2022-10-16T14:41:20.000Z</time>
      </trkpt>
      <trkpt lat="45.09779" lon="5.23939">
        <ele>236</ele>
        <time>2022-10-16T14:41:21.000Z</time>
      </trkpt>
      <trkpt lat="45.09782" lon="5.23946">
        <ele>236</ele>
        <time>2022-10-16T14:41:22.000Z</time>
      </trkpt>
      <trkpt lat="45.09785" lon="5.23953">
        <ele>236</ele>
        <time>2022-10-16T14:41:23.000Z</time>
      </trkpt>
      <trkpt lat="45.09788" lon="5.2396">
        <ele>236</ele>
        <time>2022-10-16T14:41:24.000Z</time>
      </trkpt>
      <trkpt lat="45.09791" lon="5.23968">
        <ele>236</ele>
        <time>2022-10-16T14:41:25.000Z</time>
      </trkpt>
      <trkpt lat="45.09793" lon="5.23976">
        <ele>236</ele>
        <time>2022-10-16T14:41:26.000Z</time>
      </trkpt>
      <trkpt lat="45.09796" lon="5.23983">
        <ele>236</ele>
        <time>2022-10-16T14:41:27.000Z</time>
      </trkpt>
      <trkpt lat="45.09798" lon="5.2399">
        <ele>236</ele>
        <time>2022-10-16T14:41:28.000Z</time>
      </trkpt>
      <trkpt lat="45.09801" lon="5.23997">
        <ele>236</ele>
        <time>2022-10-16T14:41:29.000Z</time>
      </trkpt>
      <trkpt lat="45.09803" lon="5.24004">
        <ele>236.1</ele>
        <time>2022-10-16T14:41:30.000Z</time>
      </trkpt>
      <trkpt lat="45.09806" lon="5.24011">
        <ele>236.4</ele>
        <time>2022-10-16T14:41:31.000Z</time>
      </trkpt>
      <trkpt lat="45.09808" lon="5.24018">
        <ele>236.6</ele>
        <time>2022-10-16T14:41:32.000Z</time>
      </trkpt>
      <trkpt lat="45.09811" lon="5.24024">
        <ele>236.7</ele>
        <time>2022-10-16T14:41:33.000Z</time>
      </trkpt>
      <trkpt lat="45.09813" lon="5.2403">
        <ele>236.7</ele>
        <time>2022-10-16T14:41:34.000Z</time>
      </trkpt>
      <trkpt lat="45.09816" lon="5.24037">
        <ele>236.4</ele>
        <time>2022-10-16T14:41:35.000Z</time>
      </trkpt>
      <trkpt lat="45.09818" lon="5.24044">
        <ele>236.2</ele>
        <time>2022-10-16T14:41:36.000Z</time>
      </trkpt>
      <trkpt lat="45.09821" lon="5.24051">
        <ele>236.1</ele>
        <time>2022-10-16T14:41:37.000Z</time>
      </trkpt>
      <trkpt lat="45.09824" lon="5.24058">
        <ele>236.1</ele>
        <time>2022-10-16T14:41:38.000Z</time>
      </trkpt>
      <trkpt lat="45.09827" lon="5.24065">
        <ele>236.3</ele>
        <time>2022-10-16T14:41:39.000Z</time>
      </trkpt>
      <trkpt lat="45.09829" lon="5.24072">
        <ele>236.5</ele>
        <time>2022-10-16T14:41:40.000Z</time>
      </trkpt>
      <trkpt lat="45.09832" lon="5.24079">
        <ele>236.8</ele>
        <time>2022-10-16T14:41:41.000Z</time>
      </trkpt>
      <trkpt lat="45.09835" lon="5.24087">
        <ele>236.8</ele>
        <time>2022-10-16T14:41:42.000Z</time>
      </trkpt>
      <trkpt lat="45.09838" lon="5.24094">
        <ele>236.5</ele>
        <time>2022-10-16T14:41:43.000Z</time>
      </trkpt>
      <trkpt lat="45.09841" lon="5.24101">
        <ele>236.3</ele>
        <time>2022-10-16T14:41:44.000Z</time>
      </trkpt>
      <trkpt lat="45.09844" lon="5.24109">
        <ele>236</ele>
        <time>2022-10-16T14:41:45.000Z</time>
      </trkpt>
      <trkpt lat="45.09846" lon="5.24117">
        <ele>236.1</ele>
        <time>2022-10-16T14:41:46.000Z</time>
      </trkpt>
      <trkpt lat="45.09849" lon="5.24124">
        <ele>236.3</ele>
        <time>2022-10-16T14:41:47.000Z</time>
      </trkpt>
      <trkpt lat="45.09852" lon="5.24132">
        <ele>236.5</ele>
        <time>2022-10-16T14:41:48.000Z</time>
      </trkpt>
      <trkpt lat="45.09855" lon="5.2414">
        <ele>236.8</ele>
        <time>2022-10-16T14:41:49.000Z</time>
      </trkpt>
      <trkpt lat="45.09858" lon="5.24148">
        <ele>236.9</ele>
        <time>2022-10-16T14:41:50.000Z</time>
      </trkpt>
      <trkpt lat="45.09861" lon="5.24156">
        <ele>237</ele>
        <time>2022-10-16T14:41:51.000Z</time>
      </trkpt>
      <trkpt lat="45.09864" lon="5.24163">
        <ele>237</ele>
        <time>2022-10-16T14:41:52.000Z</time>
      </trkpt>
      <trkpt lat="45.09867" lon="5.24171">
        <ele>237</ele>
        <time>2022-10-16T14:41:53.000Z</time>
      </trkpt>
      <trkpt lat="45.0987" lon="5.24179">
        <ele>237.1</ele>
        <time>2022-10-16T14:41:54.000Z</time>
      </trkpt>
      <trkpt lat="45.09873" lon="5.24186">
        <ele>237.3</ele>
        <time>2022-10-16T14:41:55.000Z</time>
      </trkpt>
      <trkpt lat="45.09875" lon="5.24193">
        <ele>237.5</ele>
        <time>2022-10-16T14:41:56.000Z</time>
      </trkpt>
      <trkpt lat="45.09878" lon="5.24199">
        <ele>237.7</ele>
        <time>2022-10-16T14:41:57.000Z</time>
      </trkpt>
      <trkpt lat="45.0988" lon="5.24206">
        <ele>237.8</ele>
        <time>2022-10-16T14:41:58.000Z</time>
      </trkpt>
      <trkpt lat="45.09883" lon="5.24212">
        <ele>237.9</ele>
        <time>2022-10-16T14:41:59.000Z</time>
      </trkpt>
      <trkpt lat="45.09885" lon="5.24219">
        <ele>238</ele>
        <time>2022-10-16T14:42:00.000Z</time>
      </trkpt>
      <trkpt lat="45.09888" lon="5.24225">
        <ele>238</ele>
        <time>2022-10-16T14:42:01.000Z</time>
      </trkpt>
      <trkpt lat="45.0989" lon="5.24232">
        <ele>238</ele>
        <time>2022-10-16T14:42:02.000Z</time>
      </trkpt>
      <trkpt lat="45.09893" lon="5.24239">
        <ele>237.9</ele>
        <time>2022-10-16T14:42:03.000Z</time>
      </trkpt>
      <trkpt lat="45.09896" lon="5.24246">
        <ele>238</ele>
        <time>2022-10-16T14:42:04.000Z</time>
      </trkpt>
      <trkpt lat="45.09898" lon="5.24253">
        <ele>238</ele>
        <time>2022-10-16T14:42:05.000Z</time>
      </trkpt>
      <trkpt lat="45.09901" lon="5.24261">
        <ele>238</ele>
        <time>2022-10-16T14:42:06.000Z</time>
      </trkpt>
      <trkpt lat="45.09904" lon="5.24268">
        <ele>238</ele>
        <time>2022-10-16T14:42:07.000Z</time>
      </trkpt>
      <trkpt lat="45.09906" lon="5.24275">
        <ele>238</ele>
        <time>2022-10-16T14:42:08.000Z</time>
      </trkpt>
      <trkpt lat="45.09908" lon="5.24283">
        <ele>238.1</ele>
        <time>2022-10-16T14:42:09.000Z</time>
      </trkpt>
      <trkpt lat="45.09911" lon="5.2429">
        <ele>238.3</ele>
        <time>2022-10-16T14:42:10.000Z</time>
      </trkpt>
      <trkpt lat="45.09914" lon="5.24298">
        <ele>238.6</ele>
        <time>2022-10-16T14:42:11.000Z</time>
      </trkpt>
      <trkpt lat="45.09917" lon="5.24305">
        <ele>239</ele>
        <time>2022-10-16T14:42:12.000Z</time>
      </trkpt>
      <trkpt lat="45.0992" lon="5.24313">
        <ele>238.7</ele>
        <time>2022-10-16T14:42:13.000Z</time>
      </trkpt>
      <trkpt lat="45.09923" lon="5.24321">
        <ele>238.3</ele>
        <time>2022-10-16T14:42:14.000Z</time>
      </trkpt>
      <trkpt lat="45.09927" lon="5.24329">
        <ele>238.1</ele>
        <time>2022-10-16T14:42:15.000Z</time>
      </trkpt>
      <trkpt lat="45.0993" lon="5.24337">
        <ele>238.1</ele>
        <time>2022-10-16T14:42:16.000Z</time>
      </trkpt>
      <trkpt lat="45.09933" lon="5.24345">
        <ele>238.2</ele>
        <time>2022-10-16T14:42:17.000Z</time>
      </trkpt>
      <trkpt lat="45.09936" lon="5.24352">
        <ele>238.5</ele>
        <time>2022-10-16T14:42:18.000Z</time>
      </trkpt>
      <trkpt lat="45.09939" lon="5.24359">
        <ele>238.7</ele>
        <time>2022-10-16T14:42:19.000Z</time>
      </trkpt>
      <trkpt lat="45.09942" lon="5.24366">
        <ele>238.7</ele>
        <time>2022-10-16T14:42:20.000Z</time>
      </trkpt>
      <trkpt lat="45.09945" lon="5.24373">
        <ele>238.6</ele>
        <time>2022-10-16T14:42:21.000Z</time>
      </trkpt>
      <trkpt lat="45.09947" lon="5.2438">
        <ele>238.3</ele>
        <time>2022-10-16T14:42:22.000Z</time>
      </trkpt>
      <trkpt lat="45.0995" lon="5.24387">
        <ele>238.1</ele>
        <time>2022-10-16T14:42:23.000Z</time>
      </trkpt>
      <trkpt lat="45.09952" lon="5.24393">
        <ele>237.9</ele>
        <time>2022-10-16T14:42:24.000Z</time>
      </trkpt>
      <trkpt lat="45.09954" lon="5.244">
        <ele>237.9</ele>
        <time>2022-10-16T14:42:25.000Z</time>
      </trkpt>
      <trkpt lat="45.09956" lon="5.24406">
        <ele>237.9</ele>
        <time>2022-10-16T14:42:26.000Z</time>
      </trkpt>
      <trkpt lat="45.09958" lon="5.24413">
        <ele>238</ele>
        <time>2022-10-16T14:42:27.000Z</time>
      </trkpt>
      <trkpt lat="45.09961" lon="5.2442">
        <ele>238.2</ele>
        <time>2022-10-16T14:42:28.000Z</time>
      </trkpt>
      <trkpt lat="45.09964" lon="5.24427">
        <ele>238.5</ele>
        <time>2022-10-16T14:42:29.000Z</time>
      </trkpt>
      <trkpt lat="45.09966" lon="5.24434">
        <ele>238.7</ele>
        <time>2022-10-16T14:42:30.000Z</time>
      </trkpt>
      <trkpt lat="45.09969" lon="5.24441">
        <ele>238.9</ele>
        <time>2022-10-16T14:42:31.000Z</time>
      </trkpt>
      <trkpt lat="45.09971" lon="5.24448">
        <ele>238.9</ele>
        <time>2022-10-16T14:42:32.000Z</time>
      </trkpt>
      <trkpt lat="45.09974" lon="5.24454">
        <ele>238.7</ele>
        <time>2022-10-16T14:42:33.000Z</time>
      </trkpt>
      <trkpt lat="45.09976" lon="5.24461">
        <ele>238.5</ele>
        <time>2022-10-16T14:42:34.000Z</time>
      </trkpt>
      <trkpt lat="45.09979" lon="5.24468">
        <ele>238.4</ele>
        <time>2022-10-16T14:42:35.000Z</time>
      </trkpt>
      <trkpt lat="45.09981" lon="5.24474">
        <ele>238.3</ele>
        <time>2022-10-16T14:42:36.000Z</time>
      </trkpt>
      <trkpt lat="45.09983" lon="5.2448">
        <ele>238.4</ele>
        <time>2022-10-16T14:42:37.000Z</time>
      </trkpt>
      <trkpt lat="45.09986" lon="5.24486">
        <ele>238.5</ele>
        <time>2022-10-16T14:42:38.000Z</time>
      </trkpt>
      <trkpt lat="45.09988" lon="5.24492">
        <ele>238.5</ele>
        <time>2022-10-16T14:42:39.000Z</time>
      </trkpt>
      <trkpt lat="45.0999" lon="5.24498">
        <ele>238.6</ele>
        <time>2022-10-16T14:42:40.000Z</time>
      </trkpt>
      <trkpt lat="45.09993" lon="5.24504">
        <ele>238.7</ele>
        <time>2022-10-16T14:42:41.000Z</time>
      </trkpt>
      <trkpt lat="45.09995" lon="5.2451">
        <ele>238.8</ele>
        <time>2022-10-16T14:42:42.000Z</time>
      </trkpt>
      <trkpt lat="45.09998" lon="5.24517">
        <ele>238.9</ele>
        <time>2022-10-16T14:42:43.000Z</time>
      </trkpt>
      <trkpt lat="45.1" lon="5.24523">
        <ele>239</ele>
        <time>2022-10-16T14:42:44.000Z</time>
      </trkpt>
      <trkpt lat="45.10003" lon="5.2453">
        <ele>239</ele>
        <time>2022-10-16T14:42:45.000Z</time>
      </trkpt>
      <trkpt lat="45.10006" lon="5.24537">
        <ele>239</ele>
        <time>2022-10-16T14:42:46.000Z</time>
      </trkpt>
      <trkpt lat="45.10009" lon="5.24544">
        <ele>239</ele>
        <time>2022-10-16T14:42:47.000Z</time>
      </trkpt>
      <trkpt lat="45.10011" lon="5.24552">
        <ele>239</ele>
        <time>2022-10-16T14:42:48.000Z</time>
      </trkpt>
      <trkpt lat="45.10014" lon="5.24559">
        <ele>239</ele>
        <time>2022-10-16T14:42:49.000Z</time>
      </trkpt>
      <trkpt lat="45.10017" lon="5.24567">
        <ele>239</ele>
        <time>2022-10-16T14:42:50.000Z</time>
      </trkpt>
      <trkpt lat="45.1002" lon="5.24574">
        <ele>239</ele>
        <time>2022-10-16T14:42:51.000Z</time>
      </trkpt>
      <trkpt lat="45.10023" lon="5.24581">
        <ele>239</ele>
        <time>2022-10-16T14:42:52.000Z</time>
      </trkpt>
      <trkpt lat="45.10025" lon="5.24587">
        <ele>239</ele>
        <time>2022-10-16T14:42:53.000Z</time>
      </trkpt>
      <trkpt lat="45.10028" lon="5.24594">
        <ele>239</ele>
        <time>2022-10-16T14:42:54.000Z</time>
      </trkpt>
      <trkpt lat="45.1003" lon="5.246">
        <ele>239.1</ele>
        <time>2022-10-16T14:42:55.000Z</time>
      </trkpt>
      <trkpt lat="45.10033" lon="5.24607">
        <ele>239.1</ele>
        <time>2022-10-16T14:42:56.000Z</time>
      </trkpt>
      <trkpt lat="45.10035" lon="5.24613">
        <ele>239.3</ele>
        <time>2022-10-16T14:42:57.000Z</time>
      </trkpt>
      <trkpt lat="45.10038" lon="5.2462">
        <ele>239.4</ele>
        <time>2022-10-16T14:42:58.000Z</time>
      </trkpt>
      <trkpt lat="45.10041" lon="5.24626">
        <ele>239.5</ele>
        <time>2022-10-16T14:42:59.000Z</time>
      </trkpt>
      <trkpt lat="45.10044" lon="5.24633">
        <ele>239.6</ele>
        <time>2022-10-16T14:43:00.000Z</time>
      </trkpt>
      <trkpt lat="45.10047" lon="5.2464">
        <ele>239.7</ele>
        <time>2022-10-16T14:43:01.000Z</time>
      </trkpt>
      <trkpt lat="45.1005" lon="5.24648">
        <ele>239.8</ele>
        <time>2022-10-16T14:43:02.000Z</time>
      </trkpt>
      <trkpt lat="45.10052" lon="5.24655">
        <ele>239.9</ele>
        <time>2022-10-16T14:43:03.000Z</time>
      </trkpt>
      <trkpt lat="45.10054" lon="5.24662">
        <ele>240</ele>
        <time>2022-10-16T14:43:04.000Z</time>
      </trkpt>
      <trkpt lat="45.10057" lon="5.24669">
        <ele>240</ele>
        <time>2022-10-16T14:43:05.000Z</time>
      </trkpt>
      <trkpt lat="45.10059" lon="5.24676">
        <ele>240</ele>
        <time>2022-10-16T14:43:06.000Z</time>
      </trkpt>
      <trkpt lat="45.10062" lon="5.24682">
        <ele>240</ele>
        <time>2022-10-16T14:43:07.000Z</time>
      </trkpt>
      <trkpt lat="45.10065" lon="5.24688">
        <ele>240</ele>
        <time>2022-10-16T14:43:08.000Z</time>
      </trkpt>
      <trkpt lat="45.10067" lon="5.24694">
        <ele>240</ele>
        <time>2022-10-16T14:43:09.000Z</time>
      </trkpt>
      <trkpt lat="45.1007" lon="5.247">
        <ele>240</ele>
        <time>2022-10-16T14:43:10.000Z</time>
      </trkpt>
      <trkpt lat="45.10073" lon="5.24706">
        <ele>240</ele>
        <time>2022-10-16T14:43:11.000Z</time>
      </trkpt>
      <trkpt lat="45.10076" lon="5.24712">
        <ele>240</ele>
        <time>2022-10-16T14:43:12.000Z</time>
      </trkpt>
      <trkpt lat="45.10079" lon="5.24717">
        <ele>240</ele>
        <time>2022-10-16T14:43:13.000Z</time>
      </trkpt>
      <trkpt lat="45.10081" lon="5.24722">
        <ele>240</ele>
        <time>2022-10-16T14:43:14.000Z</time>
      </trkpt>
      <trkpt lat="45.10084" lon="5.24728">
        <ele>240.2</ele>
        <time>2022-10-16T14:43:15.000Z</time>
      </trkpt>
      <trkpt lat="45.10086" lon="5.24732">
        <ele>240.4</ele>
        <time>2022-10-16T14:43:16.000Z</time>
      </trkpt>
      <trkpt lat="45.10088" lon="5.24736">
        <ele>240.6</ele>
        <time>2022-10-16T14:43:17.000Z</time>
      </trkpt>
      <trkpt lat="45.10089" lon="5.2474">
        <ele>240.7</ele>
        <time>2022-10-16T14:43:18.000Z</time>
      </trkpt>
      <trkpt lat="45.10089" lon="5.24743">
        <ele>240.8</ele>
        <time>2022-10-16T14:43:19.000Z</time>
      </trkpt>
      <trkpt lat="45.10088" lon="5.24746">
        <ele>240.9</ele>
        <time>2022-10-16T14:43:20.000Z</time>
      </trkpt>
      <trkpt lat="45.10087" lon="5.24748">
        <ele>240.9</ele>
        <time>2022-10-16T14:43:21.000Z</time>
      </trkpt>
      <trkpt lat="45.10086" lon="5.24751">
        <ele>241</ele>
        <time>2022-10-16T14:43:22.000Z</time>
      </trkpt>
      <trkpt lat="45.10085" lon="5.24754">
        <ele>240.9</ele>
        <time>2022-10-16T14:43:24.000Z</time>
      </trkpt>
      <trkpt lat="45.10087" lon="5.24752">
        <ele>240.9</ele>
        <time>2022-10-16T14:43:26.000Z</time>
      </trkpt>
      <trkpt lat="45.10088" lon="5.2475">
        <ele>241</ele>
        <time>2022-10-16T14:43:27.000Z</time>
      </trkpt>
      <trkpt lat="45.10091" lon="5.24752">
        <ele>240.9</ele>
        <time>2022-10-16T14:43:28.000Z</time>
      </trkpt>
      <trkpt lat="45.10094" lon="5.24757">
        <ele>240.8</ele>
        <time>2022-10-16T14:43:29.000Z</time>
      </trkpt>
      <trkpt lat="45.10098" lon="5.24762">
        <ele>240.8</ele>
        <time>2022-10-16T14:43:30.000Z</time>
      </trkpt>
      <trkpt lat="45.10101" lon="5.24768">
        <ele>240.8</ele>
        <time>2022-10-16T14:43:31.000Z</time>
      </trkpt>
      <trkpt lat="45.10104" lon="5.24774">
        <ele>240.8</ele>
        <time>2022-10-16T14:43:32.000Z</time>
      </trkpt>
      <trkpt lat="45.10107" lon="5.2478">
        <ele>240.8</ele>
        <time>2022-10-16T14:43:33.000Z</time>
      </trkpt>
      <trkpt lat="45.1011" lon="5.24786">
        <ele>241</ele>
        <time>2022-10-16T14:43:34.000Z</time>
      </trkpt>
      <trkpt lat="45.10113" lon="5.24791">
        <ele>241</ele>
        <time>2022-10-16T14:43:35.000Z</time>
      </trkpt>
      <trkpt lat="45.10116" lon="5.24797">
        <ele>241.1</ele>
        <time>2022-10-16T14:43:36.000Z</time>
      </trkpt>
      <trkpt lat="45.10119" lon="5.24803">
        <ele>241.3</ele>
        <time>2022-10-16T14:43:37.000Z</time>
      </trkpt>
      <trkpt lat="45.10121" lon="5.24809">
        <ele>241.3</ele>
        <time>2022-10-16T14:43:38.000Z</time>
      </trkpt>
      <trkpt lat="45.10124" lon="5.24815">
        <ele>241.3</ele>
        <time>2022-10-16T14:43:39.000Z</time>
      </trkpt>
      <trkpt lat="45.10127" lon="5.24821">
        <ele>241.3</ele>
        <time>2022-10-16T14:43:40.000Z</time>
      </trkpt>
      <trkpt lat="45.1013" lon="5.24826">
        <ele>241.5</ele>
        <time>2022-10-16T14:43:41.000Z</time>
      </trkpt>
      <trkpt lat="45.10134" lon="5.24832">
        <ele>241.6</ele>
        <time>2022-10-16T14:43:42.000Z</time>
      </trkpt>
      <trkpt lat="45.10137" lon="5.24837">
        <ele>241.7</ele>
        <time>2022-10-16T14:43:43.000Z</time>
      </trkpt>
      <trkpt lat="45.10141" lon="5.24843">
        <ele>241.7</ele>
        <time>2022-10-16T14:43:44.000Z</time>
      </trkpt>
      <trkpt lat="45.10145" lon="5.24848">
        <ele>241.6</ele>
        <time>2022-10-16T14:43:45.000Z</time>
      </trkpt>
      <trkpt lat="45.10148" lon="5.24854">
        <ele>241.5</ele>
        <time>2022-10-16T14:43:46.000Z</time>
      </trkpt>
      <trkpt lat="45.10152" lon="5.2486">
        <ele>241.5</ele>
        <time>2022-10-16T14:43:47.000Z</time>
      </trkpt>
      <trkpt lat="45.10156" lon="5.24866">
        <ele>241.5</ele>
        <time>2022-10-16T14:43:48.000Z</time>
      </trkpt>
      <trkpt lat="45.10159" lon="5.24872">
        <ele>241.6</ele>
        <time>2022-10-16T14:43:49.000Z</time>
      </trkpt>
      <trkpt lat="45.10163" lon="5.24877">
        <ele>241.8</ele>
        <time>2022-10-16T14:43:50.000Z</time>
      </trkpt>
      <trkpt lat="45.10167" lon="5.24883">
        <ele>242</ele>
        <time>2022-10-16T14:43:51.000Z</time>
      </trkpt>
      <trkpt lat="45.1017" lon="5.24889">
        <ele>242</ele>
        <time>2022-10-16T14:43:52.000Z</time>
      </trkpt>
      <trkpt lat="45.10174" lon="5.24896">
        <ele>241.8</ele>
        <time>2022-10-16T14:43:53.000Z</time>
      </trkpt>
      <trkpt lat="45.10178" lon="5.24902">
        <ele>241.7</ele>
        <time>2022-10-16T14:43:54.000Z</time>
      </trkpt>
      <trkpt lat="45.10182" lon="5.24908">
        <ele>241.7</ele>
        <time>2022-10-16T14:43:55.000Z</time>
      </trkpt>
      <trkpt lat="45.10186" lon="5.24915">
        <ele>241.7</ele>
        <time>2022-10-16T14:43:56.000Z</time>
      </trkpt>
      <trkpt lat="45.1019" lon="5.24921">
        <ele>241.8</ele>
        <time>2022-10-16T14:43:57.000Z</time>
      </trkpt>
      <trkpt lat="45.10194" lon="5.24927">
        <ele>242</ele>
        <time>2022-10-16T14:43:58.000Z</time>
      </trkpt>
      <trkpt lat="45.10198" lon="5.24933">
        <ele>242.1</ele>
        <time>2022-10-16T14:43:59.000Z</time>
      </trkpt>
      <trkpt lat="45.10202" lon="5.24939">
        <ele>242.1</ele>
        <time>2022-10-16T14:44:00.000Z</time>
      </trkpt>
      <trkpt lat="45.10206" lon="5.24945">
        <ele>242</ele>
        <time>2022-10-16T14:44:01.000Z</time>
      </trkpt>
      <trkpt lat="45.1021" lon="5.24951">
        <ele>242</ele>
        <time>2022-10-16T14:44:02.000Z</time>
      </trkpt>
      <trkpt lat="45.10213" lon="5.24957">
        <ele>242.1</ele>
        <time>2022-10-16T14:44:03.000Z</time>
      </trkpt>
      <trkpt lat="45.10216" lon="5.24963">
        <ele>242.4</ele>
        <time>2022-10-16T14:44:04.000Z</time>
      </trkpt>
      <trkpt lat="45.10219" lon="5.24968">
        <ele>242.7</ele>
        <time>2022-10-16T14:44:05.000Z</time>
      </trkpt>
      <trkpt lat="45.10222" lon="5.24974">
        <ele>242.9</ele>
        <time>2022-10-16T14:44:06.000Z</time>
      </trkpt>
      <trkpt lat="45.10225" lon="5.24979">
        <ele>242.5</ele>
        <time>2022-10-16T14:44:07.000Z</time>
      </trkpt>
      <trkpt lat="45.10229" lon="5.24984">
        <ele>242.2</ele>
        <time>2022-10-16T14:44:08.000Z</time>
      </trkpt>
      <trkpt lat="45.10232" lon="5.24989">
        <ele>242.1</ele>
        <time>2022-10-16T14:44:09.000Z</time>
      </trkpt>
      <trkpt lat="45.10236" lon="5.24995">
        <ele>242.1</ele>
        <time>2022-10-16T14:44:10.000Z</time>
      </trkpt>
      <trkpt lat="45.10239" lon="5.25">
        <ele>242.2</ele>
        <time>2022-10-16T14:44:11.000Z</time>
      </trkpt>
      <trkpt lat="45.10243" lon="5.25005">
        <ele>242.4</ele>
        <time>2022-10-16T14:44:12.000Z</time>
      </trkpt>
      <trkpt lat="45.10247" lon="5.25011">
        <ele>242.4</ele>
        <time>2022-10-16T14:44:13.000Z</time>
      </trkpt>
      <trkpt lat="45.10251" lon="5.25017">
        <ele>242.4</ele>
        <time>2022-10-16T14:44:14.000Z</time>
      </trkpt>
      <trkpt lat="45.10255" lon="5.25023">
        <ele>242.3</ele>
        <time>2022-10-16T14:44:15.000Z</time>
      </trkpt>
      <trkpt lat="45.10259" lon="5.25028">
        <ele>242.3</ele>
        <time>2022-10-16T14:44:16.000Z</time>
      </trkpt>
      <trkpt lat="45.10263" lon="5.25034">
        <ele>242.3</ele>
        <time>2022-10-16T14:44:17.000Z</time>
      </trkpt>
      <trkpt lat="45.10267" lon="5.25041">
        <ele>242.5</ele>
        <time>2022-10-16T14:44:18.000Z</time>
      </trkpt>
      <trkpt lat="45.10272" lon="5.25047">
        <ele>242.6</ele>
        <time>2022-10-16T14:44:19.000Z</time>
      </trkpt>
      <trkpt lat="45.10276" lon="5.25053">
        <ele>242.9</ele>
        <time>2022-10-16T14:44:20.000Z</time>
      </trkpt>
      <trkpt lat="45.1028" lon="5.25059">
        <ele>242.9</ele>
        <time>2022-10-16T14:44:21.000Z</time>
      </trkpt>
      <trkpt lat="45.10285" lon="5.25065">
        <ele>242.7</ele>
        <time>2022-10-16T14:44:22.000Z</time>
      </trkpt>
      <trkpt lat="45.10289" lon="5.25071">
        <ele>242.7</ele>
        <time>2022-10-16T14:44:23.000Z</time>
      </trkpt>
      <trkpt lat="45.10294" lon="5.25077">
        <ele>242.7</ele>
        <time>2022-10-16T14:44:24.000Z</time>
      </trkpt>
      <trkpt lat="45.10298" lon="5.25084">
        <ele>242.7</ele>
        <time>2022-10-16T14:44:25.000Z</time>
      </trkpt>
      <trkpt lat="45.10302" lon="5.2509">
        <ele>242.9</ele>
        <time>2022-10-16T14:44:26.000Z</time>
      </trkpt>
      <trkpt lat="45.10306" lon="5.25095">
        <ele>243</ele>
        <time>2022-10-16T14:44:27.000Z</time>
      </trkpt>
      <trkpt lat="45.10311" lon="5.25101">
        <ele>243</ele>
        <time>2022-10-16T14:44:28.000Z</time>
      </trkpt>
      <trkpt lat="45.10315" lon="5.25107">
        <ele>243</ele>
        <time>2022-10-16T14:44:29.000Z</time>
      </trkpt>
      <trkpt lat="45.10319" lon="5.25112">
        <ele>243</ele>
        <time>2022-10-16T14:44:30.000Z</time>
      </trkpt>
      <trkpt lat="45.10323" lon="5.25118">
        <ele>242.9</ele>
        <time>2022-10-16T14:44:31.000Z</time>
      </trkpt>
      <trkpt lat="45.10327" lon="5.25123">
        <ele>242.9</ele>
        <time>2022-10-16T14:44:32.000Z</time>
      </trkpt>
      <trkpt lat="45.10331" lon="5.25128">
        <ele>242.9</ele>
        <time>2022-10-16T14:44:33.000Z</time>
      </trkpt>
      <trkpt lat="45.10335" lon="5.25134">
        <ele>243</ele>
        <time>2022-10-16T14:44:34.000Z</time>
      </trkpt>
      <trkpt lat="45.10339" lon="5.2514">
        <ele>243</ele>
        <time>2022-10-16T14:44:35.000Z</time>
      </trkpt>
      <trkpt lat="45.10343" lon="5.25146">
        <ele>242.8</ele>
        <time>2022-10-16T14:44:36.000Z</time>
      </trkpt>
      <trkpt lat="45.10347" lon="5.25152">
        <ele>242.8</ele>
        <time>2022-10-16T14:44:37.000Z</time>
      </trkpt>
      <trkpt lat="45.10352" lon="5.25157">
        <ele>242.8</ele>
        <time>2022-10-16T14:44:38.000Z</time>
      </trkpt>
      <trkpt lat="45.10357" lon="5.25163">
        <ele>242.9</ele>
        <time>2022-10-16T14:44:39.000Z</time>
      </trkpt>
      <trkpt lat="45.10361" lon="5.25169">
        <ele>242.9</ele>
        <time>2022-10-16T14:44:40.000Z</time>
      </trkpt>
      <trkpt lat="45.10365" lon="5.25175">
        <ele>242.7</ele>
        <time>2022-10-16T14:44:41.000Z</time>
      </trkpt>
      <trkpt lat="45.1037" lon="5.25181">
        <ele>242.6</ele>
        <time>2022-10-16T14:44:42.000Z</time>
      </trkpt>
      <trkpt lat="45.10374" lon="5.25188">
        <ele>242.6</ele>
        <time>2022-10-16T14:44:43.000Z</time>
      </trkpt>
      <trkpt lat="45.10379" lon="5.25194">
        <ele>242.6</ele>
        <time>2022-10-16T14:44:44.000Z</time>
      </trkpt>
      <trkpt lat="45.10384" lon="5.25201">
        <ele>242.8</ele>
        <time>2022-10-16T14:44:45.000Z</time>
      </trkpt>
      <trkpt lat="45.10388" lon="5.25207">
        <ele>243</ele>
        <time>2022-10-16T14:44:46.000Z</time>
      </trkpt>
      <trkpt lat="45.10392" lon="5.25213">
        <ele>242.9</ele>
        <time>2022-10-16T14:44:47.000Z</time>
      </trkpt>
      <trkpt lat="45.10396" lon="5.25219">
        <ele>242.8</ele>
        <time>2022-10-16T14:44:48.000Z</time>
      </trkpt>
      <trkpt lat="45.104" lon="5.25225">
        <ele>242.6</ele>
        <time>2022-10-16T14:44:49.000Z</time>
      </trkpt>
      <trkpt lat="45.10404" lon="5.25231">
        <ele>242.6</ele>
        <time>2022-10-16T14:44:50.000Z</time>
      </trkpt>
      <trkpt lat="45.10407" lon="5.25237">
        <ele>242.7</ele>
        <time>2022-10-16T14:44:51.000Z</time>
      </trkpt>
      <trkpt lat="45.10411" lon="5.25242">
        <ele>242.8</ele>
        <time>2022-10-16T14:44:52.000Z</time>
      </trkpt>
      <trkpt lat="45.10416" lon="5.25247">
        <ele>242.9</ele>
        <time>2022-10-16T14:44:53.000Z</time>
      </trkpt>
      <trkpt lat="45.1042" lon="5.25253">
        <ele>243</ele>
        <time>2022-10-16T14:44:54.000Z</time>
      </trkpt>
      <trkpt lat="45.10425" lon="5.25259">
        <ele>243</ele>
        <time>2022-10-16T14:44:55.000Z</time>
      </trkpt>
      <trkpt lat="45.10429" lon="5.25265">
        <ele>243</ele>
        <time>2022-10-16T14:44:56.000Z</time>
      </trkpt>
      <trkpt lat="45.10433" lon="5.25271">
        <ele>243</ele>
        <time>2022-10-16T14:44:57.000Z</time>
      </trkpt>
      <trkpt lat="45.10437" lon="5.25277">
        <ele>243</ele>
        <time>2022-10-16T14:44:58.000Z</time>
      </trkpt>
      <trkpt lat="45.10442" lon="5.25284">
        <ele>243</ele>
        <time>2022-10-16T14:44:59.000Z</time>
      </trkpt>
      <trkpt lat="45.10446" lon="5.25291">
        <ele>243</ele>
        <time>2022-10-16T14:45:00.000Z</time>
      </trkpt>
      <trkpt lat="45.10451" lon="5.25297">
        <ele>243</ele>
        <time>2022-10-16T14:45:01.000Z</time>
      </trkpt>
      <trkpt lat="45.10456" lon="5.25304">
        <ele>243</ele>
        <time>2022-10-16T14:45:02.000Z</time>
      </trkpt>
      <trkpt lat="45.10461" lon="5.2531">
        <ele>243</ele>
        <time>2022-10-16T14:45:03.000Z</time>
      </trkpt>
      <trkpt lat="45.10465" lon="5.25317">
        <ele>243</ele>
        <time>2022-10-16T14:45:04.000Z</time>
      </trkpt>
      <trkpt lat="45.1047" lon="5.25323">
        <ele>243</ele>
        <time>2022-10-16T14:45:05.000Z</time>
      </trkpt>
      <trkpt lat="45.10474" lon="5.25329">
        <ele>243</ele>
        <time>2022-10-16T14:45:06.000Z</time>
      </trkpt>
      <trkpt lat="45.10478" lon="5.25335">
        <ele>243</ele>
        <time>2022-10-16T14:45:07.000Z</time>
      </trkpt>
      <trkpt lat="45.10482" lon="5.2534">
        <ele>243</ele>
        <time>2022-10-16T14:45:08.000Z</time>
      </trkpt>
      <trkpt lat="45.10486" lon="5.25346">
        <ele>243</ele>
        <time>2022-10-16T14:45:09.000Z</time>
      </trkpt>
      <trkpt lat="45.1049" lon="5.25352">
        <ele>243</ele>
        <time>2022-10-16T14:45:10.000Z</time>
      </trkpt>
      <trkpt lat="45.10494" lon="5.25358">
        <ele>243</ele>
        <time>2022-10-16T14:45:11.000Z</time>
      </trkpt>
      <trkpt lat="45.10498" lon="5.25363">
        <ele>243</ele>
        <time>2022-10-16T14:45:12.000Z</time>
      </trkpt>
      <trkpt lat="45.10502" lon="5.25369">
        <ele>243</ele>
        <time>2022-10-16T14:45:13.000Z</time>
      </trkpt>
      <trkpt lat="45.10507" lon="5.25374">
        <ele>242.9</ele>
        <time>2022-10-16T14:45:14.000Z</time>
      </trkpt>
      <trkpt lat="45.10511" lon="5.2538">
        <ele>242.9</ele>
        <time>2022-10-16T14:45:15.000Z</time>
      </trkpt>
      <trkpt lat="45.10515" lon="5.25386">
        <ele>242.9</ele>
        <time>2022-10-16T14:45:16.000Z</time>
      </trkpt>
      <trkpt lat="45.1052" lon="5.25392">
        <ele>242.9</ele>
        <time>2022-10-16T14:45:17.000Z</time>
      </trkpt>
      <trkpt lat="45.10525" lon="5.25398">
        <ele>242.7</ele>
        <time>2022-10-16T14:45:18.000Z</time>
      </trkpt>
      <trkpt lat="45.1053" lon="5.25405">
        <ele>242.4</ele>
        <time>2022-10-16T14:45:19.000Z</time>
      </trkpt>
      <trkpt lat="45.10536" lon="5.25412">
        <ele>242.1</ele>
        <time>2022-10-16T14:45:20.000Z</time>
      </trkpt>
      <trkpt lat="45.10541" lon="5.25419">
        <ele>242</ele>
        <time>2022-10-16T14:45:21.000Z</time>
      </trkpt>
      <trkpt lat="45.10546" lon="5.25426">
        <ele>242</ele>
        <time>2022-10-16T14:45:22.000Z</time>
      </trkpt>
      <trkpt lat="45.10552" lon="5.25433">
        <ele>242</ele>
        <time>2022-10-16T14:45:23.000Z</time>
      </trkpt>
      <trkpt lat="45.10557" lon="5.2544">
        <ele>242</ele>
        <time>2022-10-16T14:45:24.000Z</time>
      </trkpt>
      <trkpt lat="45.10563" lon="5.25447">
        <ele>242</ele>
        <time>2022-10-16T14:45:25.000Z</time>
      </trkpt>
      <trkpt lat="45.10568" lon="5.25454">
        <ele>242.2</ele>
        <time>2022-10-16T14:45:26.000Z</time>
      </trkpt>
      <trkpt lat="45.10573" lon="5.25461">
        <ele>242.4</ele>
        <time>2022-10-16T14:45:27.000Z</time>
      </trkpt>
      <trkpt lat="45.10578" lon="5.25468">
        <ele>242.7</ele>
        <time>2022-10-16T14:45:28.000Z</time>
      </trkpt>
      <trkpt lat="45.10583" lon="5.25475">
        <ele>242.9</ele>
        <time>2022-10-16T14:45:29.000Z</time>
      </trkpt>
      <trkpt lat="45.10588" lon="5.25482">
        <ele>242.6</ele>
        <time>2022-10-16T14:45:30.000Z</time>
      </trkpt>
      <trkpt lat="45.10592" lon="5.25488">
        <ele>242.5</ele>
        <time>2022-10-16T14:45:31.000Z</time>
      </trkpt>
      <trkpt lat="45.10597" lon="5.25494">
        <ele>242.5</ele>
        <time>2022-10-16T14:45:32.000Z</time>
      </trkpt>
      <trkpt lat="45.10601" lon="5.25501">
        <ele>242.6</ele>
        <time>2022-10-16T14:45:33.000Z</time>
      </trkpt>
      <trkpt lat="45.10606" lon="5.25507">
        <ele>242.8</ele>
        <time>2022-10-16T14:45:34.000Z</time>
      </trkpt>
      <trkpt lat="45.10611" lon="5.25514">
        <ele>243</ele>
        <time>2022-10-16T14:45:35.000Z</time>
      </trkpt>
      <trkpt lat="45.10616" lon="5.2552">
        <ele>243</ele>
        <time>2022-10-16T14:45:36.000Z</time>
      </trkpt>
      <trkpt lat="45.10621" lon="5.25527">
        <ele>243</ele>
        <time>2022-10-16T14:45:37.000Z</time>
      </trkpt>
      <trkpt lat="45.10625" lon="5.25534">
        <ele>242.9</ele>
        <time>2022-10-16T14:45:38.000Z</time>
      </trkpt>
      <trkpt lat="45.1063" lon="5.25541">
        <ele>242.9</ele>
        <time>2022-10-16T14:45:39.000Z</time>
      </trkpt>
      <trkpt lat="45.10635" lon="5.25548">
        <ele>242.9</ele>
        <time>2022-10-16T14:45:40.000Z</time>
      </trkpt>
      <trkpt lat="45.1064" lon="5.25555">
        <ele>243</ele>
        <time>2022-10-16T14:45:41.000Z</time>
      </trkpt>
      <trkpt lat="45.10645" lon="5.25561">
        <ele>242.9</ele>
        <time>2022-10-16T14:45:42.000Z</time>
      </trkpt>
      <trkpt lat="45.1065" lon="5.25568">
        <ele>242.9</ele>
        <time>2022-10-16T14:45:43.000Z</time>
      </trkpt>
      <trkpt lat="45.10655" lon="5.25575">
        <ele>243.1</ele>
        <time>2022-10-16T14:45:44.000Z</time>
      </trkpt>
      <trkpt lat="45.1066" lon="5.25582">
        <ele>243.5</ele>
        <time>2022-10-16T14:45:45.000Z</time>
      </trkpt>
      <trkpt lat="45.10665" lon="5.25589">
        <ele>243.7</ele>
        <time>2022-10-16T14:45:46.000Z</time>
      </trkpt>
      <trkpt lat="45.1067" lon="5.25596">
        <ele>243.5</ele>
        <time>2022-10-16T14:45:47.000Z</time>
      </trkpt>
      <trkpt lat="45.10675" lon="5.25603">
        <ele>243.4</ele>
        <time>2022-10-16T14:45:48.000Z</time>
      </trkpt>
      <trkpt lat="45.1068" lon="5.2561">
        <ele>243.5</ele>
        <time>2022-10-16T14:45:49.000Z</time>
      </trkpt>
      <trkpt lat="45.10685" lon="5.25617">
        <ele>243.7</ele>
        <time>2022-10-16T14:45:50.000Z</time>
      </trkpt>
      <trkpt lat="45.10691" lon="5.25624">
        <ele>243.9</ele>
        <time>2022-10-16T14:45:51.000Z</time>
      </trkpt>
      <trkpt lat="45.10696" lon="5.25631">
        <ele>244</ele>
        <time>2022-10-16T14:45:52.000Z</time>
      </trkpt>
      <trkpt lat="45.10701" lon="5.25638">
        <ele>243.8</ele>
        <time>2022-10-16T14:45:53.000Z</time>
      </trkpt>
      <trkpt lat="45.10706" lon="5.25646">
        <ele>243.5</ele>
        <time>2022-10-16T14:45:54.000Z</time>
      </trkpt>
      <trkpt lat="45.10712" lon="5.25653">
        <ele>243.5</ele>
        <time>2022-10-16T14:45:55.000Z</time>
      </trkpt>
      <trkpt lat="45.10717" lon="5.2566">
        <ele>243.7</ele>
        <time>2022-10-16T14:45:56.000Z</time>
      </trkpt>
      <trkpt lat="45.10722" lon="5.25668">
        <ele>243.9</ele>
        <time>2022-10-16T14:45:57.000Z</time>
      </trkpt>
      <trkpt lat="45.10728" lon="5.25676">
        <ele>243.6</ele>
        <time>2022-10-16T14:45:58.000Z</time>
      </trkpt>
      <trkpt lat="45.10734" lon="5.25684">
        <ele>243.5</ele>
        <time>2022-10-16T14:45:59.000Z</time>
      </trkpt>
      <trkpt lat="45.10739" lon="5.25691">
        <ele>243.6</ele>
        <time>2022-10-16T14:46:00.000Z</time>
      </trkpt>
      <trkpt lat="45.10745" lon="5.25698">
        <ele>243.8</ele>
        <time>2022-10-16T14:46:01.000Z</time>
      </trkpt>
      <trkpt lat="45.1075" lon="5.25705">
        <ele>244</ele>
        <time>2022-10-16T14:46:02.000Z</time>
      </trkpt>
      <trkpt lat="45.10756" lon="5.25713">
        <ele>243.9</ele>
        <time>2022-10-16T14:46:03.000Z</time>
      </trkpt>
      <trkpt lat="45.10761" lon="5.2572">
        <ele>244</ele>
        <time>2022-10-16T14:46:04.000Z</time>
      </trkpt>
      <trkpt lat="45.10766" lon="5.25727">
        <ele>243.9</ele>
        <time>2022-10-16T14:46:05.000Z</time>
      </trkpt>
      <trkpt lat="45.10771" lon="5.25734">
        <ele>243.9</ele>
        <time>2022-10-16T14:46:06.000Z</time>
      </trkpt>
      <trkpt lat="45.10776" lon="5.25741">
        <ele>244</ele>
        <time>2022-10-16T14:46:07.000Z</time>
      </trkpt>
      <trkpt lat="45.10781" lon="5.25747">
        <ele>244</ele>
        <time>2022-10-16T14:46:08.000Z</time>
      </trkpt>
      <trkpt lat="45.10787" lon="5.25755">
        <ele>244</ele>
        <time>2022-10-16T14:46:09.000Z</time>
      </trkpt>
      <trkpt lat="45.10792" lon="5.25762">
        <ele>244</ele>
        <time>2022-10-16T14:46:10.000Z</time>
      </trkpt>
      <trkpt lat="45.10798" lon="5.2577">
        <ele>244</ele>
        <time>2022-10-16T14:46:11.000Z</time>
      </trkpt>
      <trkpt lat="45.10803" lon="5.25777">
        <ele>244</ele>
        <time>2022-10-16T14:46:12.000Z</time>
      </trkpt>
      <trkpt lat="45.10809" lon="5.25785">
        <ele>243.9</ele>
        <time>2022-10-16T14:46:13.000Z</time>
      </trkpt>
      <trkpt lat="45.10814" lon="5.25793">
        <ele>243.9</ele>
        <time>2022-10-16T14:46:14.000Z</time>
      </trkpt>
      <trkpt lat="45.1082" lon="5.25801">
        <ele>243.9</ele>
        <time>2022-10-16T14:46:15.000Z</time>
      </trkpt>
      <trkpt lat="45.10825" lon="5.25808">
        <ele>244</ele>
        <time>2022-10-16T14:46:16.000Z</time>
      </trkpt>
      <trkpt lat="45.10831" lon="5.25816">
        <ele>244</ele>
        <time>2022-10-16T14:46:17.000Z</time>
      </trkpt>
      <trkpt lat="45.10836" lon="5.25823">
        <ele>243.9</ele>
        <time>2022-10-16T14:46:18.000Z</time>
      </trkpt>
      <trkpt lat="45.10841" lon="5.25831">
        <ele>243.7</ele>
        <time>2022-10-16T14:46:19.000Z</time>
      </trkpt>
      <trkpt lat="45.10847" lon="5.25839">
        <ele>243.6</ele>
        <time>2022-10-16T14:46:20.000Z</time>
      </trkpt>
      <trkpt lat="45.10852" lon="5.25846">
        <ele>243.6</ele>
        <time>2022-10-16T14:46:21.000Z</time>
      </trkpt>
      <trkpt lat="45.10858" lon="5.25853">
        <ele>243.8</ele>
        <time>2022-10-16T14:46:22.000Z</time>
      </trkpt>
      <trkpt lat="45.10863" lon="5.25861">
        <ele>243.9</ele>
        <time>2022-10-16T14:46:23.000Z</time>
      </trkpt>
      <trkpt lat="45.10869" lon="5.25868">
        <ele>243.6</ele>
        <time>2022-10-16T14:46:24.000Z</time>
      </trkpt>
      <trkpt lat="45.10874" lon="5.25876">
        <ele>243.5</ele>
        <time>2022-10-16T14:46:25.000Z</time>
      </trkpt>
      <trkpt lat="45.1088" lon="5.25883">
        <ele>243.6</ele>
        <time>2022-10-16T14:46:26.000Z</time>
      </trkpt>
      <trkpt lat="45.10885" lon="5.25891">
        <ele>243.8</ele>
        <time>2022-10-16T14:46:27.000Z</time>
      </trkpt>
      <trkpt lat="45.10891" lon="5.25898">
        <ele>243.6</ele>
        <time>2022-10-16T14:46:28.000Z</time>
      </trkpt>
      <trkpt lat="45.10896" lon="5.25906">
        <ele>243.3</ele>
        <time>2022-10-16T14:46:29.000Z</time>
      </trkpt>
      <trkpt lat="45.10902" lon="5.25913">
        <ele>243.4</ele>
        <time>2022-10-16T14:46:30.000Z</time>
      </trkpt>
      <trkpt lat="45.10907" lon="5.25921">
        <ele>243.6</ele>
        <time>2022-10-16T14:46:31.000Z</time>
      </trkpt>
      <trkpt lat="45.10913" lon="5.25929">
        <ele>243.5</ele>
        <time>2022-10-16T14:46:32.000Z</time>
      </trkpt>
      <trkpt lat="45.10919" lon="5.25937">
        <ele>243.2</ele>
        <time>2022-10-16T14:46:33.000Z</time>
      </trkpt>
      <trkpt lat="45.10925" lon="5.25945">
        <ele>243</ele>
        <time>2022-10-16T14:46:34.000Z</time>
      </trkpt>
      <trkpt lat="45.1093" lon="5.25953">
        <ele>243.2</ele>
        <time>2022-10-16T14:46:35.000Z</time>
      </trkpt>
      <trkpt lat="45.10936" lon="5.25961">
        <ele>243.4</ele>
        <time>2022-10-16T14:46:36.000Z</time>
      </trkpt>
      <trkpt lat="45.10942" lon="5.25969">
        <ele>243.8</ele>
        <time>2022-10-16T14:46:37.000Z</time>
      </trkpt>
      <trkpt lat="45.10948" lon="5.25977">
        <ele>243.7</ele>
        <time>2022-10-16T14:46:38.000Z</time>
      </trkpt>
      <trkpt lat="45.10954" lon="5.25985">
        <ele>243.5</ele>
        <time>2022-10-16T14:46:39.000Z</time>
      </trkpt>
      <trkpt lat="45.1096" lon="5.25994">
        <ele>243.5</ele>
        <time>2022-10-16T14:46:40.000Z</time>
      </trkpt>
      <trkpt lat="45.10966" lon="5.26002">
        <ele>243.7</ele>
        <time>2022-10-16T14:46:41.000Z</time>
      </trkpt>
      <trkpt lat="45.10972" lon="5.2601">
        <ele>243.6</ele>
        <time>2022-10-16T14:46:42.000Z</time>
      </trkpt>
      <trkpt lat="45.10978" lon="5.26018">
        <ele>243.5</ele>
        <time>2022-10-16T14:46:43.000Z</time>
      </trkpt>
      <trkpt lat="45.10984" lon="5.26026">
        <ele>243.4</ele>
        <time>2022-10-16T14:46:44.000Z</time>
      </trkpt>
      <trkpt lat="45.1099" lon="5.26034">
        <ele>243.6</ele>
        <time>2022-10-16T14:46:45.000Z</time>
      </trkpt>
      <trkpt lat="45.10995" lon="5.26042">
        <ele>243.8</ele>
        <time>2022-10-16T14:46:46.000Z</time>
      </trkpt>
      <trkpt lat="45.11001" lon="5.2605">
        <ele>244</ele>
        <time>2022-10-16T14:46:47.000Z</time>
      </trkpt>
      <trkpt lat="45.11007" lon="5.26058">
        <ele>244</ele>
        <time>2022-10-16T14:46:48.000Z</time>
      </trkpt>
      <trkpt lat="45.11013" lon="5.26066">
        <ele>244.2</ele>
        <time>2022-10-16T14:46:49.000Z</time>
      </trkpt>
      <trkpt lat="45.11019" lon="5.26074">
        <ele>244.4</ele>
        <time>2022-10-16T14:46:50.000Z</time>
      </trkpt>
      <trkpt lat="45.11024" lon="5.26082">
        <ele>244.8</ele>
        <time>2022-10-16T14:46:51.000Z</time>
      </trkpt>
      <trkpt lat="45.1103" lon="5.2609">
        <ele>244.7</ele>
        <time>2022-10-16T14:46:52.000Z</time>
      </trkpt>
      <trkpt lat="45.11036" lon="5.26098">
        <ele>244.5</ele>
        <time>2022-10-16T14:46:53.000Z</time>
      </trkpt>
      <trkpt lat="45.11041" lon="5.26106">
        <ele>244.5</ele>
        <time>2022-10-16T14:46:54.000Z</time>
      </trkpt>
      <trkpt lat="45.11047" lon="5.26113">
        <ele>244.7</ele>
        <time>2022-10-16T14:46:55.000Z</time>
      </trkpt>
      <trkpt lat="45.11053" lon="5.26121">
        <ele>244.9</ele>
        <time>2022-10-16T14:46:56.000Z</time>
      </trkpt>
      <trkpt lat="45.11059" lon="5.26129">
        <ele>245</ele>
        <time>2022-10-16T14:46:57.000Z</time>
      </trkpt>
      <trkpt lat="45.11065" lon="5.26138">
        <ele>245</ele>
        <time>2022-10-16T14:46:58.000Z</time>
      </trkpt>
      <trkpt lat="45.11071" lon="5.26146">
        <ele>245.1</ele>
        <time>2022-10-16T14:46:59.000Z</time>
      </trkpt>
      <trkpt lat="45.11077" lon="5.26154">
        <ele>245.4</ele>
        <time>2022-10-16T14:47:00.000Z</time>
      </trkpt>
      <trkpt lat="45.11083" lon="5.26162">
        <ele>245.8</ele>
        <time>2022-10-16T14:47:01.000Z</time>
      </trkpt>
      <trkpt lat="45.11088" lon="5.2617">
        <ele>245.7</ele>
        <time>2022-10-16T14:47:02.000Z</time>
      </trkpt>
      <trkpt lat="45.11094" lon="5.26178">
        <ele>245.5</ele>
        <time>2022-10-16T14:47:03.000Z</time>
      </trkpt>
      <trkpt lat="45.111" lon="5.26186">
        <ele>245.5</ele>
        <time>2022-10-16T14:47:04.000Z</time>
      </trkpt>
      <trkpt lat="45.11105" lon="5.26194">
        <ele>245.8</ele>
        <time>2022-10-16T14:47:05.000Z</time>
      </trkpt>
      <trkpt lat="45.11111" lon="5.26202">
        <ele>245.7</ele>
        <time>2022-10-16T14:47:06.000Z</time>
      </trkpt>
      <trkpt lat="45.11116" lon="5.26209">
        <ele>245.3</ele>
        <time>2022-10-16T14:47:07.000Z</time>
      </trkpt>
      <trkpt lat="45.11122" lon="5.26217">
        <ele>245</ele>
        <time>2022-10-16T14:47:08.000Z</time>
      </trkpt>
      <trkpt lat="45.11127" lon="5.26224">
        <ele>245</ele>
        <time>2022-10-16T14:47:09.000Z</time>
      </trkpt>
      <trkpt lat="45.11133" lon="5.26232">
        <ele>245.3</ele>
        <time>2022-10-16T14:47:10.000Z</time>
      </trkpt>
      <trkpt lat="45.11138" lon="5.26239">
        <ele>245.6</ele>
        <time>2022-10-16T14:47:11.000Z</time>
      </trkpt>
      <trkpt lat="45.11144" lon="5.26247">
        <ele>245.9</ele>
        <time>2022-10-16T14:47:12.000Z</time>
      </trkpt>
      <trkpt lat="45.11149" lon="5.26254">
        <ele>246</ele>
        <time>2022-10-16T14:47:13.000Z</time>
      </trkpt>
      <trkpt lat="45.11154" lon="5.26262">
        <ele>246</ele>
        <time>2022-10-16T14:47:14.000Z</time>
      </trkpt>
      <trkpt lat="45.1116" lon="5.26269">
        <ele>246</ele>
        <time>2022-10-16T14:47:15.000Z</time>
      </trkpt>
      <trkpt lat="45.11165" lon="5.26276">
        <ele>246</ele>
        <time>2022-10-16T14:47:16.000Z</time>
      </trkpt>
      <trkpt lat="45.1117" lon="5.26283">
        <ele>245.9</ele>
        <time>2022-10-16T14:47:17.000Z</time>
      </trkpt>
      <trkpt lat="45.11175" lon="5.2629">
        <ele>245.8</ele>
        <time>2022-10-16T14:47:18.000Z</time>
      </trkpt>
      <trkpt lat="45.1118" lon="5.26296">
        <ele>245.8</ele>
        <time>2022-10-16T14:47:19.000Z</time>
      </trkpt>
      <trkpt lat="45.11184" lon="5.26303">
        <ele>245.9</ele>
        <time>2022-10-16T14:47:20.000Z</time>
      </trkpt>
      <trkpt lat="45.11189" lon="5.26309">
        <ele>246</ele>
        <time>2022-10-16T14:47:21.000Z</time>
      </trkpt>
      <trkpt lat="45.11193" lon="5.26315">
        <ele>246</ele>
        <time>2022-10-16T14:47:22.000Z</time>
      </trkpt>
      <trkpt lat="45.11198" lon="5.26321">
        <ele>246</ele>
        <time>2022-10-16T14:47:23.000Z</time>
      </trkpt>
      <trkpt lat="45.11202" lon="5.26327">
        <ele>246.1</ele>
        <time>2022-10-16T14:47:24.000Z</time>
      </trkpt>
      <trkpt lat="45.11206" lon="5.26332">
        <ele>246.4</ele>
        <time>2022-10-16T14:47:25.000Z</time>
      </trkpt>
      <trkpt lat="45.1121" lon="5.26338">
        <ele>246.6</ele>
        <time>2022-10-16T14:47:26.000Z</time>
      </trkpt>
      <trkpt lat="45.11214" lon="5.26343">
        <ele>246.7</ele>
        <time>2022-10-16T14:47:27.000Z</time>
      </trkpt>
      <trkpt lat="45.11218" lon="5.26348">
        <ele>246.8</ele>
        <time>2022-10-16T14:47:28.000Z</time>
      </trkpt>
      <trkpt lat="45.11222" lon="5.26353">
        <ele>247</ele>
        <time>2022-10-16T14:47:29.000Z</time>
      </trkpt>
      <trkpt lat="45.11226" lon="5.26357">
        <ele>246.9</ele>
        <time>2022-10-16T14:47:30.000Z</time>
      </trkpt>
      <trkpt lat="45.1123" lon="5.26362">
        <ele>246.7</ele>
        <time>2022-10-16T14:47:31.000Z</time>
      </trkpt>
      <trkpt lat="45.11233" lon="5.26367">
        <ele>246.6</ele>
        <time>2022-10-16T14:47:32.000Z</time>
      </trkpt>
      <trkpt lat="45.11234" lon="5.26373">
        <ele>246.5</ele>
        <time>2022-10-16T14:47:33.000Z</time>
      </trkpt>
      <trkpt lat="45.11233" lon="5.2638">
        <ele>246.5</ele>
        <time>2022-10-16T14:47:34.000Z</time>
      </trkpt>
      <trkpt lat="45.11231" lon="5.26386">
        <ele>246.3</ele>
        <time>2022-10-16T14:47:35.000Z</time>
      </trkpt>
      <trkpt lat="45.11227" lon="5.26391">
        <ele>246.2</ele>
        <time>2022-10-16T14:47:36.000Z</time>
      </trkpt>
      <trkpt lat="45.11223" lon="5.26396">
        <ele>246.3</ele>
        <time>2022-10-16T14:47:37.000Z</time>
      </trkpt>
      <trkpt lat="45.11219" lon="5.26402">
        <ele>246.5</ele>
        <time>2022-10-16T14:47:38.000Z</time>
      </trkpt>
      <trkpt lat="45.11216" lon="5.26409">
        <ele>246.8</ele>
        <time>2022-10-16T14:47:39.000Z</time>
      </trkpt>
      <trkpt lat="45.11213" lon="5.26415">
        <ele>247</ele>
        <time>2022-10-16T14:47:40.000Z</time>
      </trkpt>
      <trkpt lat="45.1121" lon="5.26423">
        <ele>247</ele>
        <time>2022-10-16T14:47:41.000Z</time>
      </trkpt>
      <trkpt lat="45.11207" lon="5.2643">
        <ele>247</ele>
        <time>2022-10-16T14:47:42.000Z</time>
      </trkpt>
      <trkpt lat="45.11205" lon="5.26437">
        <ele>247</ele>
        <time>2022-10-16T14:47:43.000Z</time>
      </trkpt>
      <trkpt lat="45.11202" lon="5.26444">
        <ele>247</ele>
        <time>2022-10-16T14:47:44.000Z</time>
      </trkpt>
      <trkpt lat="45.11199" lon="5.26451">
        <ele>247</ele>
        <time>2022-10-16T14:47:45.000Z</time>
      </trkpt>
      <trkpt lat="45.11197" lon="5.26458">
        <ele>247</ele>
        <time>2022-10-16T14:47:46.000Z</time>
      </trkpt>
      <trkpt lat="45.11194" lon="5.26465">
        <ele>247</ele>
        <time>2022-10-16T14:47:47.000Z</time>
      </trkpt>
      <trkpt lat="45.11192" lon="5.26472">
        <ele>247</ele>
        <time>2022-10-16T14:47:48.000Z</time>
      </trkpt>
      <trkpt lat="45.1119" lon="5.26479">
        <ele>247.2</ele>
        <time>2022-10-16T14:47:49.000Z</time>
      </trkpt>
      <trkpt lat="45.11187" lon="5.26486">
        <ele>247.4</ele>
        <time>2022-10-16T14:47:50.000Z</time>
      </trkpt>
      <trkpt lat="45.11185" lon="5.26493">
        <ele>247.5</ele>
        <time>2022-10-16T14:47:51.000Z</time>
      </trkpt>
      <trkpt lat="45.11183" lon="5.265">
        <ele>247.6</ele>
        <time>2022-10-16T14:47:52.000Z</time>
      </trkpt>
      <trkpt lat="45.11182" lon="5.26507">
        <ele>247.5</ele>
        <time>2022-10-16T14:47:53.000Z</time>
      </trkpt>
      <trkpt lat="45.1118" lon="5.26515">
        <ele>247.5</ele>
        <time>2022-10-16T14:47:54.000Z</time>
      </trkpt>
      <trkpt lat="45.11179" lon="5.26522">
        <ele>247.4</ele>
        <time>2022-10-16T14:47:55.000Z</time>
      </trkpt>
      <trkpt lat="45.11177" lon="5.2653">
        <ele>247.4</ele>
        <time>2022-10-16T14:47:56.000Z</time>
      </trkpt>
      <trkpt lat="45.11176" lon="5.26537">
        <ele>247.5</ele>
        <time>2022-10-16T14:47:57.000Z</time>
      </trkpt>
      <trkpt lat="45.11174" lon="5.26545">
        <ele>247.7</ele>
        <time>2022-10-16T14:47:58.000Z</time>
      </trkpt>
      <trkpt lat="45.11172" lon="5.26552">
        <ele>247.9</ele>
        <time>2022-10-16T14:47:59.000Z</time>
      </trkpt>
      <trkpt lat="45.11171" lon="5.2656">
        <ele>248</ele>
        <time>2022-10-16T14:48:00.000Z</time>
      </trkpt>
      <trkpt lat="45.11169" lon="5.26569">
        <ele>248</ele>
        <time>2022-10-16T14:48:01.000Z</time>
      </trkpt>
      <trkpt lat="45.11167" lon="5.26576">
        <ele>248</ele>
        <time>2022-10-16T14:48:02.000Z</time>
      </trkpt>
      <trkpt lat="45.11164" lon="5.26584">
        <ele>247.8</ele>
        <time>2022-10-16T14:48:03.000Z</time>
      </trkpt>
      <trkpt lat="45.11162" lon="5.26592">
        <ele>247.7</ele>
        <time>2022-10-16T14:48:04.000Z</time>
      </trkpt>
      <trkpt lat="45.11159" lon="5.266">
        <ele>247.6</ele>
        <time>2022-10-16T14:48:05.000Z</time>
      </trkpt>
      <trkpt lat="45.11157" lon="5.26608">
        <ele>247.6</ele>
        <time>2022-10-16T14:48:06.000Z</time>
      </trkpt>
      <trkpt lat="45.11154" lon="5.26617">
        <ele>247.5</ele>
        <time>2022-10-16T14:48:07.000Z</time>
      </trkpt>
      <trkpt lat="45.11152" lon="5.26625">
        <ele>247.2</ele>
        <time>2022-10-16T14:48:08.000Z</time>
      </trkpt>
      <trkpt lat="45.1115" lon="5.26634">
        <ele>246.9</ele>
        <time>2022-10-16T14:48:09.000Z</time>
      </trkpt>
      <trkpt lat="45.11148" lon="5.26643">
        <ele>246.7</ele>
        <time>2022-10-16T14:48:10.000Z</time>
      </trkpt>
      <trkpt lat="45.11146" lon="5.26652">
        <ele>246.8</ele>
        <time>2022-10-16T14:48:11.000Z</time>
      </trkpt>
      <trkpt lat="45.11145" lon="5.2666">
        <ele>247</ele>
        <time>2022-10-16T14:48:12.000Z</time>
      </trkpt>
      <trkpt lat="45.11143" lon="5.26669">
        <ele>247.1</ele>
        <time>2022-10-16T14:48:13.000Z</time>
      </trkpt>
      <trkpt lat="45.11142" lon="5.26678">
        <ele>247.1</ele>
        <time>2022-10-16T14:48:14.000Z</time>
      </trkpt>
      <trkpt lat="45.11141" lon="5.26686">
        <ele>247</ele>
        <time>2022-10-16T14:48:15.000Z</time>
      </trkpt>
      <trkpt lat="45.11139" lon="5.26694">
        <ele>247</ele>
        <time>2022-10-16T14:48:16.000Z</time>
      </trkpt>
      <trkpt lat="45.11138" lon="5.26702">
        <ele>247</ele>
        <time>2022-10-16T14:48:17.000Z</time>
      </trkpt>
      <trkpt lat="45.11136" lon="5.26709">
        <ele>246.9</ele>
        <time>2022-10-16T14:48:18.000Z</time>
      </trkpt>
      <trkpt lat="45.11135" lon="5.26716">
        <ele>246.8</ele>
        <time>2022-10-16T14:48:19.000Z</time>
      </trkpt>
      <trkpt lat="45.11132" lon="5.26723">
        <ele>246.8</ele>
        <time>2022-10-16T14:48:20.000Z</time>
      </trkpt>
      <trkpt lat="45.1113" lon="5.26729">
        <ele>246.7</ele>
        <time>2022-10-16T14:48:21.000Z</time>
      </trkpt>
      <trkpt lat="45.11128" lon="5.26737">
        <ele>246.6</ele>
        <time>2022-10-16T14:48:22.000Z</time>
      </trkpt>
      <trkpt lat="45.11126" lon="5.26744">
        <ele>246.5</ele>
        <time>2022-10-16T14:48:23.000Z</time>
      </trkpt>
      <trkpt lat="45.11124" lon="5.26751">
        <ele>246.5</ele>
        <time>2022-10-16T14:48:24.000Z</time>
      </trkpt>
      <trkpt lat="45.11122" lon="5.26759">
        <ele>246.6</ele>
        <time>2022-10-16T14:48:25.000Z</time>
      </trkpt>
      <trkpt lat="45.11119" lon="5.26766">
        <ele>246.7</ele>
        <time>2022-10-16T14:48:26.000Z</time>
      </trkpt>
      <trkpt lat="45.11117" lon="5.26773">
        <ele>246.9</ele>
        <time>2022-10-16T14:48:27.000Z</time>
      </trkpt>
      <trkpt lat="45.11115" lon="5.26781">
        <ele>247</ele>
        <time>2022-10-16T14:48:28.000Z</time>
      </trkpt>
      <trkpt lat="45.11112" lon="5.26788">
        <ele>247</ele>
        <time>2022-10-16T14:48:29.000Z</time>
      </trkpt>
      <trkpt lat="45.1111" lon="5.26795">
        <ele>247</ele>
        <time>2022-10-16T14:48:30.000Z</time>
      </trkpt>
      <trkpt lat="45.11108" lon="5.26803">
        <ele>247</ele>
        <time>2022-10-16T14:48:31.000Z</time>
      </trkpt>
      <trkpt lat="45.11105" lon="5.2681">
        <ele>247</ele>
        <time>2022-10-16T14:48:32.000Z</time>
      </trkpt>
      <trkpt lat="45.11103" lon="5.26818">
        <ele>247</ele>
        <time>2022-10-16T14:48:33.000Z</time>
      </trkpt>
      <trkpt lat="45.11101" lon="5.26825">
        <ele>247</ele>
        <time>2022-10-16T14:48:34.000Z</time>
      </trkpt>
      <trkpt lat="45.11099" lon="5.26833">
        <ele>247</ele>
        <time>2022-10-16T14:48:35.000Z</time>
      </trkpt>
      <trkpt lat="45.11098" lon="5.2684">
        <ele>247.1</ele>
        <time>2022-10-16T14:48:36.000Z</time>
      </trkpt>
      <trkpt lat="45.11097" lon="5.26846">
        <ele>247.2</ele>
        <time>2022-10-16T14:48:37.000Z</time>
      </trkpt>
      <trkpt lat="45.11096" lon="5.26853">
        <ele>247.4</ele>
        <time>2022-10-16T14:48:38.000Z</time>
      </trkpt>
      <trkpt lat="45.11096" lon="5.26859">
        <ele>247.5</ele>
        <time>2022-10-16T14:48:39.000Z</time>
      </trkpt>
      <trkpt lat="45.11095" lon="5.26866">
        <ele>247.6</ele>
        <time>2022-10-16T14:48:40.000Z</time>
      </trkpt>
      <trkpt lat="45.11094" lon="5.26872">
        <ele>247.5</ele>
        <time>2022-10-16T14:48:41.000Z</time>
      </trkpt>
      <trkpt lat="45.11093" lon="5.2688">
        <ele>247.5</ele>
        <time>2022-10-16T14:48:42.000Z</time>
      </trkpt>
      <trkpt lat="45.11092" lon="5.26887">
        <ele>247.4</ele>
        <time>2022-10-16T14:48:43.000Z</time>
      </trkpt>
      <trkpt lat="45.11092" lon="5.26893">
        <ele>247.3</ele>
        <time>2022-10-16T14:48:44.000Z</time>
      </trkpt>
      <trkpt lat="45.11091" lon="5.26899">
        <ele>247.2</ele>
        <time>2022-10-16T14:48:45.000Z</time>
      </trkpt>
      <trkpt lat="45.1109" lon="5.26907">
        <ele>247.1</ele>
        <time>2022-10-16T14:48:46.000Z</time>
      </trkpt>
      <trkpt lat="45.11089" lon="5.26915">
        <ele>247</ele>
        <time>2022-10-16T14:48:47.000Z</time>
      </trkpt>
      <trkpt lat="45.11087" lon="5.26921">
        <ele>247.1</ele>
        <time>2022-10-16T14:48:48.000Z</time>
      </trkpt>
      <trkpt lat="45.11084" lon="5.26927">
        <ele>247.4</ele>
        <time>2022-10-16T14:48:49.000Z</time>
      </trkpt>
      <trkpt lat="45.1108" lon="5.26931">
        <ele>247.3</ele>
        <time>2022-10-16T14:48:50.000Z</time>
      </trkpt>
      <trkpt lat="45.11076" lon="5.26934">
        <ele>247.1</ele>
        <time>2022-10-16T14:48:51.000Z</time>
      </trkpt>
      <trkpt lat="45.11072" lon="5.26935">
        <ele>246.9</ele>
        <time>2022-10-16T14:48:52.000Z</time>
      </trkpt>
      <trkpt lat="45.11069" lon="5.26936">
        <ele>246.6</ele>
        <time>2022-10-16T14:48:53.000Z</time>
      </trkpt>
      <trkpt lat="45.11064" lon="5.26938">
        <ele>246.2</ele>
        <time>2022-10-16T14:48:54.000Z</time>
      </trkpt>
      <trkpt lat="45.11059" lon="5.26942">
        <ele>245.6</ele>
        <time>2022-10-16T14:48:55.000Z</time>
      </trkpt>
      <trkpt lat="45.11056" lon="5.26947">
        <ele>245.1</ele>
        <time>2022-10-16T14:48:56.000Z</time>
      </trkpt>
      <trkpt lat="45.11054" lon="5.26952">
        <ele>245.1</ele>
        <time>2022-10-16T14:48:57.000Z</time>
      </trkpt>
      <trkpt lat="45.11052" lon="5.26956">
        <ele>245.2</ele>
        <time>2022-10-16T14:48:58.000Z</time>
      </trkpt>
      <trkpt lat="45.11049" lon="5.26961">
        <ele>245.2</ele>
        <time>2022-10-16T14:48:59.000Z</time>
      </trkpt>
      <trkpt lat="45.11048" lon="5.26965">
        <ele>245.2</ele>
        <time>2022-10-16T14:49:00.000Z</time>
      </trkpt>
      <trkpt lat="45.11046" lon="5.2697">
        <ele>245.1</ele>
        <time>2022-10-16T14:49:01.000Z</time>
      </trkpt>
      <trkpt lat="45.11046" lon="5.26977">
        <ele>244.7</ele>
        <time>2022-10-16T14:49:02.000Z</time>
      </trkpt>
      <trkpt lat="45.11045" lon="5.26985">
        <ele>244</ele>
        <time>2022-10-16T14:49:03.000Z</time>
      </trkpt>
      <trkpt lat="45.11045" lon="5.26993">
        <ele>243.5</ele>
        <time>2022-10-16T14:49:04.000Z</time>
      </trkpt>
      <trkpt lat="45.11044" lon="5.27001">
        <ele>243</ele>
        <time>2022-10-16T14:49:05.000Z</time>
      </trkpt>
      <trkpt lat="45.11045" lon="5.27008">
        <ele>242.7</ele>
        <time>2022-10-16T14:49:06.000Z</time>
      </trkpt>
      <trkpt lat="45.11046" lon="5.27016">
        <ele>242.1</ele>
        <time>2022-10-16T14:49:07.000Z</time>
      </trkpt>
      <trkpt lat="45.11048" lon="5.27023">
        <ele>241.4</ele>
        <time>2022-10-16T14:49:08.000Z</time>
      </trkpt>
      <trkpt lat="45.11049" lon="5.27031">
        <ele>240.8</ele>
        <time>2022-10-16T14:49:09.000Z</time>
      </trkpt>
      <trkpt lat="45.1105" lon="5.27038">
        <ele>239.9</ele>
        <time>2022-10-16T14:49:10.000Z</time>
      </trkpt>
      <trkpt lat="45.11051" lon="5.27046">
        <ele>239.1</ele>
        <time>2022-10-16T14:49:11.000Z</time>
      </trkpt>
      <trkpt lat="45.11052" lon="5.27054">
        <ele>238.3</ele>
        <time>2022-10-16T14:49:12.000Z</time>
      </trkpt>
      <trkpt lat="45.11052" lon="5.27062">
        <ele>237.4</ele>
        <time>2022-10-16T14:49:13.000Z</time>
      </trkpt>
      <trkpt lat="45.11053" lon="5.2707">
        <ele>236.4</ele>
        <time>2022-10-16T14:49:14.000Z</time>
      </trkpt>
      <trkpt lat="45.11053" lon="5.27079">
        <ele>235.4</ele>
        <time>2022-10-16T14:49:15.000Z</time>
      </trkpt>
      <trkpt lat="45.11054" lon="5.27087">
        <ele>234.6</ele>
        <time>2022-10-16T14:49:16.000Z</time>
      </trkpt>
      <trkpt lat="45.11054" lon="5.27095">
        <ele>234.1</ele>
        <time>2022-10-16T14:49:17.000Z</time>
      </trkpt>
      <trkpt lat="45.11055" lon="5.27102">
        <ele>233.5</ele>
        <time>2022-10-16T14:49:18.000Z</time>
      </trkpt>
      <trkpt lat="45.11056" lon="5.2711">
        <ele>233.1</ele>
        <time>2022-10-16T14:49:19.000Z</time>
      </trkpt>
      <trkpt lat="45.11058" lon="5.27117">
        <ele>233</ele>
        <time>2022-10-16T14:49:20.000Z</time>
      </trkpt>
      <trkpt lat="45.11059" lon="5.27124">
        <ele>232.6</ele>
        <time>2022-10-16T14:49:21.000Z</time>
      </trkpt>
      <trkpt lat="45.1106" lon="5.27131">
        <ele>232.3</ele>
        <time>2022-10-16T14:49:22.000Z</time>
      </trkpt>
      <trkpt lat="45.11061" lon="5.27138">
        <ele>231.9</ele>
        <time>2022-10-16T14:49:23.000Z</time>
      </trkpt>
      <trkpt lat="45.11062" lon="5.27144">
        <ele>231.7</ele>
        <time>2022-10-16T14:49:24.000Z</time>
      </trkpt>
      <trkpt lat="45.11063" lon="5.27151">
        <ele>231.4</ele>
        <time>2022-10-16T14:49:25.000Z</time>
      </trkpt>
      <trkpt lat="45.11065" lon="5.27159">
        <ele>231.1</ele>
        <time>2022-10-16T14:49:26.000Z</time>
      </trkpt>
      <trkpt lat="45.11065" lon="5.27167">
        <ele>230.7</ele>
        <time>2022-10-16T14:49:27.000Z</time>
      </trkpt>
      <trkpt lat="45.11066" lon="5.27175">
        <ele>230.2</ele>
        <time>2022-10-16T14:49:28.000Z</time>
      </trkpt>
      <trkpt lat="45.11066" lon="5.27183">
        <ele>229.6</ele>
        <time>2022-10-16T14:49:29.000Z</time>
      </trkpt>
      <trkpt lat="45.11066" lon="5.27191">
        <ele>229</ele>
        <time>2022-10-16T14:49:30.000Z</time>
      </trkpt>
      <trkpt lat="45.11065" lon="5.27199">
        <ele>228.3</ele>
        <time>2022-10-16T14:49:31.000Z</time>
      </trkpt>
      <trkpt lat="45.11065" lon="5.27207">
        <ele>227.6</ele>
        <time>2022-10-16T14:49:32.000Z</time>
      </trkpt>
      <trkpt lat="45.11065" lon="5.27216">
        <ele>226.9</ele>
        <time>2022-10-16T14:49:33.000Z</time>
      </trkpt>
      <trkpt lat="45.11065" lon="5.27225">
        <ele>226.1</ele>
        <time>2022-10-16T14:49:34.000Z</time>
      </trkpt>
      <trkpt lat="45.11066" lon="5.27235">
        <ele>225.3</ele>
        <time>2022-10-16T14:49:35.000Z</time>
      </trkpt>
      <trkpt lat="45.11066" lon="5.27245">
        <ele>224.4</ele>
        <time>2022-10-16T14:49:36.000Z</time>
      </trkpt>
      <trkpt lat="45.11067" lon="5.27255">
        <ele>223.5</ele>
        <time>2022-10-16T14:49:37.000Z</time>
      </trkpt>
      <trkpt lat="45.11068" lon="5.27266">
        <ele>222.4</ele>
        <time>2022-10-16T14:49:38.000Z</time>
      </trkpt>
      <trkpt lat="45.11069" lon="5.27275">
        <ele>221.3</ele>
        <time>2022-10-16T14:49:39.000Z</time>
      </trkpt>
      <trkpt lat="45.1107" lon="5.27284">
        <ele>220.4</ele>
        <time>2022-10-16T14:49:40.000Z</time>
      </trkpt>
      <trkpt lat="45.11072" lon="5.27292">
        <ele>219.5</ele>
        <time>2022-10-16T14:49:41.000Z</time>
      </trkpt>
      <trkpt lat="45.11076" lon="5.273">
        <ele>218.7</ele>
        <time>2022-10-16T14:49:42.000Z</time>
      </trkpt>
      <trkpt lat="45.1108" lon="5.27308">
        <ele>217.9</ele>
        <time>2022-10-16T14:49:43.000Z</time>
      </trkpt>
      <trkpt lat="45.11083" lon="5.27316">
        <ele>217.2</ele>
        <time>2022-10-16T14:49:44.000Z</time>
      </trkpt>
      <trkpt lat="45.11086" lon="5.27325">
        <ele>218.1</ele>
        <time>2022-10-16T14:49:45.000Z</time>
      </trkpt>
      <trkpt lat="45.11088" lon="5.27335">
        <ele>218.4</ele>
        <time>2022-10-16T14:49:46.000Z</time>
      </trkpt>
      <trkpt lat="45.11089" lon="5.27346">
        <ele>218</ele>
        <time>2022-10-16T14:49:47.000Z</time>
      </trkpt>
      <trkpt lat="45.11089" lon="5.27357">
        <ele>217.3</ele>
        <time>2022-10-16T14:49:48.000Z</time>
      </trkpt>
      <trkpt lat="45.1109" lon="5.27368">
        <ele>217</ele>
        <time>2022-10-16T14:49:49.000Z</time>
      </trkpt>
      <trkpt lat="45.1109" lon="5.27377">
        <ele>216.9</ele>
        <time>2022-10-16T14:49:50.000Z</time>
      </trkpt>
      <trkpt lat="45.11089" lon="5.27387">
        <ele>216.1</ele>
        <time>2022-10-16T14:49:51.000Z</time>
      </trkpt>
      <trkpt lat="45.11088" lon="5.27398">
        <ele>215.6</ele>
        <time>2022-10-16T14:49:52.000Z</time>
      </trkpt>
      <trkpt lat="45.11086" lon="5.27409">
        <ele>214.8</ele>
        <time>2022-10-16T14:49:53.000Z</time>
      </trkpt>
      <trkpt lat="45.11084" lon="5.27422">
        <ele>214.8</ele>
        <time>2022-10-16T14:49:54.000Z</time>
      </trkpt>
      <trkpt lat="45.11081" lon="5.27433">
        <ele>214.7</ele>
        <time>2022-10-16T14:49:55.000Z</time>
      </trkpt>
      <trkpt lat="45.11079" lon="5.27443">
        <ele>214.6</ele>
        <time>2022-10-16T14:49:56.000Z</time>
      </trkpt>
      <trkpt lat="45.11078" lon="5.27451">
        <ele>213.7</ele>
        <time>2022-10-16T14:49:57.000Z</time>
      </trkpt>
      <trkpt lat="45.11077" lon="5.27461">
        <ele>212.2</ele>
        <time>2022-10-16T14:49:58.000Z</time>
      </trkpt>
      <trkpt lat="45.11076" lon="5.2747">
        <ele>211.4</ele>
        <time>2022-10-16T14:49:59.000Z</time>
      </trkpt>
      <trkpt lat="45.11078" lon="5.27478">
        <ele>210.7</ele>
        <time>2022-10-16T14:50:00.000Z</time>
      </trkpt>
      <trkpt lat="45.11083" lon="5.27484">
        <ele>211</ele>
        <time>2022-10-16T14:50:01.000Z</time>
      </trkpt>
      <trkpt lat="45.1109" lon="5.27488">
        <ele>208.6</ele>
        <time>2022-10-16T14:50:02.000Z</time>
      </trkpt>
      <trkpt lat="45.11092" lon="5.27495">
        <ele>206</ele>
        <time>2022-10-16T14:50:03.000Z</time>
      </trkpt>
      <trkpt lat="45.11095" lon="5.27498">
        <ele>204.2</ele>
        <time>2022-10-16T14:50:04.000Z</time>
      </trkpt>
      <trkpt lat="45.11099" lon="5.27491">
        <ele>205.4</ele>
        <time>2022-10-16T14:50:05.000Z</time>
      </trkpt>
      <trkpt lat="45.11101" lon="5.27485">
        <ele>206.7</ele>
        <time>2022-10-16T14:50:06.000Z</time>
      </trkpt>
      <trkpt lat="45.11105" lon="5.27481">
        <ele>207.3</ele>
        <time>2022-10-16T14:50:07.000Z</time>
      </trkpt>
      <trkpt lat="45.1111" lon="5.27476">
        <ele>207.7</ele>
        <time>2022-10-16T14:50:08.000Z</time>
      </trkpt>
      <trkpt lat="45.11118" lon="5.27471">
        <ele>207.7</ele>
        <time>2022-10-16T14:50:09.000Z</time>
      </trkpt>
      <trkpt lat="45.11127" lon="5.27465">
        <ele>207.2</ele>
        <time>2022-10-16T14:50:10.000Z</time>
      </trkpt>
      <trkpt lat="45.11137" lon="5.27459">
        <ele>206.4</ele>
        <time>2022-10-16T14:50:11.000Z</time>
      </trkpt>
      <trkpt lat="45.11143" lon="5.27455">
        <ele>206.1</ele>
        <time>2022-10-16T14:50:12.000Z</time>
      </trkpt>
      <trkpt lat="45.11151" lon="5.27449">
        <ele>205.6</ele>
        <time>2022-10-16T14:50:13.000Z</time>
      </trkpt>
      <trkpt lat="45.11159" lon="5.27444">
        <ele>204.6</ele>
        <time>2022-10-16T14:50:14.000Z</time>
      </trkpt>
      <trkpt lat="45.11168" lon="5.2744">
        <ele>203.5</ele>
        <time>2022-10-16T14:50:15.000Z</time>
      </trkpt>
      <trkpt lat="45.1118" lon="5.27438">
        <ele>202.2</ele>
        <time>2022-10-16T14:50:16.000Z</time>
      </trkpt>
      <trkpt lat="45.11188" lon="5.27437">
        <ele>200.9</ele>
        <time>2022-10-16T14:50:17.000Z</time>
      </trkpt>
      <trkpt lat="45.112" lon="5.27435">
        <ele>200.1</ele>
        <time>2022-10-16T14:50:18.000Z</time>
      </trkpt>
      <trkpt lat="45.11213" lon="5.27433">
        <ele>200.3</ele>
        <time>2022-10-16T14:50:19.000Z</time>
      </trkpt>
      <trkpt lat="45.11223" lon="5.27433">
        <ele>200.1</ele>
        <time>2022-10-16T14:50:20.000Z</time>
      </trkpt>
      <trkpt lat="45.11232" lon="5.27434">
        <ele>200</ele>
        <time>2022-10-16T14:50:21.000Z</time>
      </trkpt>
      <trkpt lat="45.11237" lon="5.27436">
        <ele>199.8</ele>
        <time>2022-10-16T14:50:22.000Z</time>
      </trkpt>
      <trkpt lat="45.11241" lon="5.27439">
        <ele>199.5</ele>
        <time>2022-10-16T14:50:23.000Z</time>
      </trkpt>
      <trkpt lat="45.11243" lon="5.27444">
        <ele>198.8</ele>
        <time>2022-10-16T14:50:24.000Z</time>
      </trkpt>
      <trkpt lat="45.11243" lon="5.27447">
        <ele>198.8</ele>
        <time>2022-10-16T14:50:25.000Z</time>
      </trkpt>
      <trkpt lat="45.11239" lon="5.2745">
        <ele>198.7</ele>
        <time>2022-10-16T14:50:27.000Z</time>
      </trkpt>
      <trkpt lat="45.11235" lon="5.27453">
        <ele>198.6</ele>
        <time>2022-10-16T14:50:28.000Z</time>
      </trkpt>
      <trkpt lat="45.1123" lon="5.27457">
        <ele>198.4</ele>
        <time>2022-10-16T14:50:29.000Z</time>
      </trkpt>
      <trkpt lat="45.11228" lon="5.27457">
        <ele>198.3</ele>
        <time>2022-10-16T14:50:30.000Z</time>
      </trkpt>
      <trkpt lat="45.11227" lon="5.27458">
        <ele>198.2</ele>
        <time>2022-10-16T14:50:31.000Z</time>
      </trkpt>
      <trkpt lat="45.11216" lon="5.27462">
        <ele>197.8</ele>
        <time>2022-10-16T14:50:33.000Z</time>
      </trkpt>
      <trkpt lat="45.11211" lon="5.27465">
        <ele>197.6</ele>
        <time>2022-10-16T14:50:34.000Z</time>
      </trkpt>
      <trkpt lat="45.11205" lon="5.27468">
        <ele>197.4</ele>
        <time>2022-10-16T14:50:35.000Z</time>
      </trkpt>
      <trkpt lat="45.11199" lon="5.27473">
        <ele>197.2</ele>
        <time>2022-10-16T14:50:36.000Z</time>
      </trkpt>
      <trkpt lat="45.11194" lon="5.27476">
        <ele>197</ele>
        <time>2022-10-16T14:50:37.000Z</time>
      </trkpt>
      <trkpt lat="45.11188" lon="5.27482">
        <ele>196.3</ele>
        <time>2022-10-16T14:50:38.000Z</time>
      </trkpt>
      <trkpt lat="45.11183" lon="5.27489">
        <ele>195.7</ele>
        <time>2022-10-16T14:50:39.000Z</time>
      </trkpt>
      <trkpt lat="45.11177" lon="5.27498">
        <ele>194.7</ele>
        <time>2022-10-16T14:50:40.000Z</time>
      </trkpt>
      <trkpt lat="45.11171" lon="5.27508">
        <ele>195.1</ele>
        <time>2022-10-16T14:50:41.000Z</time>
      </trkpt>
      <trkpt lat="45.11164" lon="5.27519">
        <ele>194.6</ele>
        <time>2022-10-16T14:50:42.000Z</time>
      </trkpt>
      <trkpt lat="45.11159" lon="5.27527">
        <ele>194.2</ele>
        <time>2022-10-16T14:50:43.000Z</time>
      </trkpt>
      <trkpt lat="45.11153" lon="5.27537">
        <ele>195.3</ele>
        <time>2022-10-16T14:50:44.000Z</time>
      </trkpt>
      <trkpt lat="45.1115" lon="5.27546">
        <ele>196.2</ele>
        <time>2022-10-16T14:50:45.000Z</time>
      </trkpt>
      <trkpt lat="45.11147" lon="5.27557">
        <ele>197.1</ele>
        <time>2022-10-16T14:50:46.000Z</time>
      </trkpt>
      <trkpt lat="45.11145" lon="5.27569">
        <ele>198.1</ele>
        <time>2022-10-16T14:50:47.000Z</time>
      </trkpt>
      <trkpt lat="45.11143" lon="5.27581">
        <ele>199.6</ele>
        <time>2022-10-16T14:50:48.000Z</time>
      </trkpt>
      <trkpt lat="45.11142" lon="5.27593">
        <ele>199.9</ele>
        <time>2022-10-16T14:50:49.000Z</time>
      </trkpt>
      <trkpt lat="45.11141" lon="5.27606">
        <ele>200.5</ele>
        <time>2022-10-16T14:50:50.000Z</time>
      </trkpt>
      <trkpt lat="45.1114" lon="5.2762">
        <ele>199.3</ele>
        <time>2022-10-16T14:50:51.000Z</time>
      </trkpt>
      <trkpt lat="45.1114" lon="5.27635">
        <ele>197.2</ele>
        <time>2022-10-16T14:50:52.000Z</time>
      </trkpt>
      <trkpt lat="45.11141" lon="5.27648">
        <ele>195.1</ele>
        <time>2022-10-16T14:50:53.000Z</time>
      </trkpt>
      <trkpt lat="45.11142" lon="5.27662">
        <ele>192.9</ele>
        <time>2022-10-16T14:50:54.000Z</time>
      </trkpt>
      <trkpt lat="45.11143" lon="5.27674">
        <ele>192</ele>
        <time>2022-10-16T14:50:55.000Z</time>
      </trkpt>
      <trkpt lat="45.11143" lon="5.27685">
        <ele>191.5</ele>
        <time>2022-10-16T14:50:56.000Z</time>
      </trkpt>
      <trkpt lat="45.11145" lon="5.27696">
        <ele>191.4</ele>
        <time>2022-10-16T14:50:57.000Z</time>
      </trkpt>
      <trkpt lat="45.11147" lon="5.27707">
        <ele>191.4</ele>
        <time>2022-10-16T14:50:58.000Z</time>
      </trkpt>
      <trkpt lat="45.1115" lon="5.27717">
        <ele>191.4</ele>
        <time>2022-10-16T14:50:59.000Z</time>
      </trkpt>
      <trkpt lat="45.11153" lon="5.27726">
        <ele>191.2</ele>
        <time>2022-10-16T14:51:00.000Z</time>
      </trkpt>
      <trkpt lat="45.11155" lon="5.27736">
        <ele>190.6</ele>
        <time>2022-10-16T14:51:01.000Z</time>
      </trkpt>
      <trkpt lat="45.11157" lon="5.27745">
        <ele>189.8</ele>
        <time>2022-10-16T14:51:02.000Z</time>
      </trkpt>
      <trkpt lat="45.11159" lon="5.27755">
        <ele>189.4</ele>
        <time>2022-10-16T14:51:03.000Z</time>
      </trkpt>
      <trkpt lat="45.1116" lon="5.27764">
        <ele>189.4</ele>
        <time>2022-10-16T14:51:04.000Z</time>
      </trkpt>
      <trkpt lat="45.11163" lon="5.27773">
        <ele>189.6</ele>
        <time>2022-10-16T14:51:05.000Z</time>
      </trkpt>
      <trkpt lat="45.11165" lon="5.27782">
        <ele>189.7</ele>
        <time>2022-10-16T14:51:06.000Z</time>
      </trkpt>
      <trkpt lat="45.11167" lon="5.27791">
        <ele>189.6</ele>
        <time>2022-10-16T14:51:07.000Z</time>
      </trkpt>
      <trkpt lat="45.11169" lon="5.27801">
        <ele>189.5</ele>
        <time>2022-10-16T14:51:08.000Z</time>
      </trkpt>
      <trkpt lat="45.1117" lon="5.2781">
        <ele>189.2</ele>
        <time>2022-10-16T14:51:09.000Z</time>
      </trkpt>
      <trkpt lat="45.11171" lon="5.27819">
        <ele>188.8</ele>
        <time>2022-10-16T14:51:10.000Z</time>
      </trkpt>
      <trkpt lat="45.11172" lon="5.27829">
        <ele>188.3</ele>
        <time>2022-10-16T14:51:11.000Z</time>
      </trkpt>
      <trkpt lat="45.11175" lon="5.27838">
        <ele>187.9</ele>
        <time>2022-10-16T14:51:12.000Z</time>
      </trkpt>
      <trkpt lat="45.11177" lon="5.27847">
        <ele>187.9</ele>
        <time>2022-10-16T14:51:13.000Z</time>
      </trkpt>
      <trkpt lat="45.11179" lon="5.27857">
        <ele>187.9</ele>
        <time>2022-10-16T14:51:14.000Z</time>
      </trkpt>
      <trkpt lat="45.11181" lon="5.27867">
        <ele>187.9</ele>
        <time>2022-10-16T14:51:15.000Z</time>
      </trkpt>
      <trkpt lat="45.11182" lon="5.27878">
        <ele>187.8</ele>
        <time>2022-10-16T14:51:16.000Z</time>
      </trkpt>
      <trkpt lat="45.11181" lon="5.27888">
        <ele>187.5</ele>
        <time>2022-10-16T14:51:17.000Z</time>
      </trkpt>
      <trkpt lat="45.11181" lon="5.27898">
        <ele>187.2</ele>
        <time>2022-10-16T14:51:18.000Z</time>
      </trkpt>
      <trkpt lat="45.11179" lon="5.27906">
        <ele>186.8</ele>
        <time>2022-10-16T14:51:19.000Z</time>
      </trkpt>
      <trkpt lat="45.11176" lon="5.27914">
        <ele>186.4</ele>
        <time>2022-10-16T14:51:20.000Z</time>
      </trkpt>
      <trkpt lat="45.11172" lon="5.2792">
        <ele>185.7</ele>
        <time>2022-10-16T14:51:21.000Z</time>
      </trkpt>
      <trkpt lat="45.11168" lon="5.27926">
        <ele>184.7</ele>
        <time>2022-10-16T14:51:22.000Z</time>
      </trkpt>
      <trkpt lat="45.11164" lon="5.27933">
        <ele>182.7</ele>
        <time>2022-10-16T14:51:23.000Z</time>
      </trkpt>
      <trkpt lat="45.1116" lon="5.27938">
        <ele>180.1</ele>
        <time>2022-10-16T14:51:24.000Z</time>
      </trkpt>
      <trkpt lat="45.11155" lon="5.27945">
        <ele>176.3</ele>
        <time>2022-10-16T14:51:25.000Z</time>
      </trkpt>
      <trkpt lat="45.11151" lon="5.27951">
        <ele>172.4</ele>
        <time>2022-10-16T14:51:26.000Z</time>
      </trkpt>
      <trkpt lat="45.11147" lon="5.27957">
        <ele>168.9</ele>
        <time>2022-10-16T14:51:27.000Z</time>
      </trkpt>
      <trkpt lat="45.11142" lon="5.27964">
        <ele>165.1</ele>
        <time>2022-10-16T14:51:28.000Z</time>
      </trkpt>
      <trkpt lat="45.11139" lon="5.27972">
        <ele>162.1</ele>
        <time>2022-10-16T14:51:29.000Z</time>
      </trkpt>
      <trkpt lat="45.11135" lon="5.27979">
        <ele>161.8</ele>
        <time>2022-10-16T14:51:30.000Z</time>
      </trkpt>
      <trkpt lat="45.11131" lon="5.27986">
        <ele>161.7</ele>
        <time>2022-10-16T14:51:31.000Z</time>
      </trkpt>
      <trkpt lat="45.11127" lon="5.27993">
        <ele>161.6</ele>
        <time>2022-10-16T14:51:32.000Z</time>
      </trkpt>
      <trkpt lat="45.11123" lon="5.27998">
        <ele>161.4</ele>
        <time>2022-10-16T14:51:33.000Z</time>
      </trkpt>
      <trkpt lat="45.1112" lon="5.28005">
        <ele>161.4</ele>
        <time>2022-10-16T14:51:34.000Z</time>
      </trkpt>
      <trkpt lat="45.11117" lon="5.28011">
        <ele>161.5</ele>
        <time>2022-10-16T14:51:35.000Z</time>
      </trkpt>
      <trkpt lat="45.11113" lon="5.28017">
        <ele>161.6</ele>
        <time>2022-10-16T14:51:36.000Z</time>
      </trkpt>
      <trkpt lat="45.1111" lon="5.28022">
        <ele>161.8</ele>
        <time>2022-10-16T14:51:37.000Z</time>
      </trkpt>
      <trkpt lat="45.11107" lon="5.28027">
        <ele>162</ele>
        <time>2022-10-16T14:51:38.000Z</time>
      </trkpt>
      <trkpt lat="45.11103" lon="5.28032">
        <ele>162.1</ele>
        <time>2022-10-16T14:51:39.000Z</time>
      </trkpt>
      <trkpt lat="45.111" lon="5.28037">
        <ele>162.4</ele>
        <time>2022-10-16T14:51:40.000Z</time>
      </trkpt>
      <trkpt lat="45.11097" lon="5.28042">
        <ele>162.8</ele>
        <time>2022-10-16T14:51:41.000Z</time>
      </trkpt>
      <trkpt lat="45.11094" lon="5.28047">
        <ele>163.3</ele>
        <time>2022-10-16T14:51:42.000Z</time>
      </trkpt>
      <trkpt lat="45.1109" lon="5.28052">
        <ele>163.9</ele>
        <time>2022-10-16T14:51:43.000Z</time>
      </trkpt>
      <trkpt lat="45.11087" lon="5.28057">
        <ele>164.9</ele>
        <time>2022-10-16T14:51:44.000Z</time>
      </trkpt>
      <trkpt lat="45.11084" lon="5.28061">
        <ele>167</ele>
        <time>2022-10-16T14:51:45.000Z</time>
      </trkpt>
      <trkpt lat="45.11081" lon="5.28066">
        <ele>170.2</ele>
        <time>2022-10-16T14:51:46.000Z</time>
      </trkpt>
      <trkpt lat="45.11078" lon="5.28071">
        <ele>173.4</ele>
        <time>2022-10-16T14:51:47.000Z</time>
      </trkpt>
      <trkpt lat="45.11075" lon="5.28075">
        <ele>176.6</ele>
        <time>2022-10-16T14:51:48.000Z</time>
      </trkpt>
      <trkpt lat="45.11072" lon="5.28081">
        <ele>180</ele>
        <time>2022-10-16T14:51:49.000Z</time>
      </trkpt>
      <trkpt lat="45.11069" lon="5.28086">
        <ele>183</ele>
        <time>2022-10-16T14:51:50.000Z</time>
      </trkpt>
      <trkpt lat="45.11066" lon="5.28091">
        <ele>185.5</ele>
        <time>2022-10-16T14:51:51.000Z</time>
      </trkpt>
      <trkpt lat="45.11062" lon="5.28096">
        <ele>187.7</ele>
        <time>2022-10-16T14:51:52.000Z</time>
      </trkpt>
      <trkpt lat="45.11059" lon="5.281">
        <ele>189.1</ele>
        <time>2022-10-16T14:51:53.000Z</time>
      </trkpt>
      <trkpt lat="45.11055" lon="5.28104">
        <ele>190</ele>
        <time>2022-10-16T14:51:54.000Z</time>
      </trkpt>
      <trkpt lat="45.11051" lon="5.28107">
        <ele>190.2</ele>
        <time>2022-10-16T14:51:55.000Z</time>
      </trkpt>
      <trkpt lat="45.11048" lon="5.28109">
        <ele>190.3</ele>
        <time>2022-10-16T14:51:56.000Z</time>
      </trkpt>
      <trkpt lat="45.11044" lon="5.28111">
        <ele>190.4</ele>
        <time>2022-10-16T14:51:57.000Z</time>
      </trkpt>
      <trkpt lat="45.11041" lon="5.28111">
        <ele>190.5</ele>
        <time>2022-10-16T14:51:58.000Z</time>
      </trkpt>
      <trkpt lat="45.11038" lon="5.2811">
        <ele>190.7</ele>
        <time>2022-10-16T14:51:59.000Z</time>
      </trkpt>
      <trkpt lat="45.11035" lon="5.2811">
        <ele>190.8</ele>
        <time>2022-10-16T14:52:00.000Z</time>
      </trkpt>
      <trkpt lat="45.11032" lon="5.28109">
        <ele>190.9</ele>
        <time>2022-10-16T14:52:01.000Z</time>
      </trkpt>
      <trkpt lat="45.11029" lon="5.28108">
        <ele>191.1</ele>
        <time>2022-10-16T14:52:02.000Z</time>
      </trkpt>
      <trkpt lat="45.11026" lon="5.28107">
        <ele>191.5</ele>
        <time>2022-10-16T14:52:03.000Z</time>
      </trkpt>
      <trkpt lat="45.11023" lon="5.28106">
        <ele>192</ele>
        <time>2022-10-16T14:52:04.000Z</time>
      </trkpt>
      <trkpt lat="45.11021" lon="5.28104">
        <ele>192.5</ele>
        <time>2022-10-16T14:52:05.000Z</time>
      </trkpt>
      <trkpt lat="45.11019" lon="5.28102">
        <ele>192.9</ele>
        <time>2022-10-16T14:52:06.000Z</time>
      </trkpt>
      <trkpt lat="45.11016" lon="5.281">
        <ele>193.2</ele>
        <time>2022-10-16T14:52:07.000Z</time>
      </trkpt>
      <trkpt lat="45.11014" lon="5.28098">
        <ele>193.5</ele>
        <time>2022-10-16T14:52:08.000Z</time>
      </trkpt>
      <trkpt lat="45.11012" lon="5.28096">
        <ele>193.8</ele>
        <time>2022-10-16T14:52:09.000Z</time>
      </trkpt>
      <trkpt lat="45.11009" lon="5.28094">
        <ele>194</ele>
        <time>2022-10-16T14:52:10.000Z</time>
      </trkpt>
      <trkpt lat="45.11007" lon="5.28092">
        <ele>194.1</ele>
        <time>2022-10-16T14:52:11.000Z</time>
      </trkpt>
      <trkpt lat="45.11005" lon="5.28089">
        <ele>194.1</ele>
        <time>2022-10-16T14:52:12.000Z</time>
      </trkpt>
      <trkpt lat="45.11002" lon="5.28086">
        <ele>194.1</ele>
        <time>2022-10-16T14:52:13.000Z</time>
      </trkpt>
      <trkpt lat="45.11" lon="5.28083">
        <ele>194.1</ele>
        <time>2022-10-16T14:52:14.000Z</time>
      </trkpt>
      <trkpt lat="45.10997" lon="5.28079">
        <ele>195.2</ele>
        <time>2022-10-16T14:52:15.000Z</time>
      </trkpt>
      <trkpt lat="45.10994" lon="5.28074">
        <ele>196.1</ele>
        <time>2022-10-16T14:52:16.000Z</time>
      </trkpt>
      <trkpt lat="45.10992" lon="5.28071">
        <ele>196.5</ele>
        <time>2022-10-16T14:52:17.000Z</time>
      </trkpt>
      <trkpt lat="45.10989" lon="5.28067">
        <ele>196.8</ele>
        <time>2022-10-16T14:52:18.000Z</time>
      </trkpt>
      <trkpt lat="45.10986" lon="5.28064">
        <ele>196.9</ele>
        <time>2022-10-16T14:52:19.000Z</time>
      </trkpt>
      <trkpt lat="45.10984" lon="5.28062">
        <ele>196.7</ele>
        <time>2022-10-16T14:52:20.000Z</time>
      </trkpt>
      <trkpt lat="45.10981" lon="5.28058">
        <ele>196.4</ele>
        <time>2022-10-16T14:52:21.000Z</time>
      </trkpt>
      <trkpt lat="45.10979" lon="5.28056">
        <ele>196</ele>
        <time>2022-10-16T14:52:22.000Z</time>
      </trkpt>
      <trkpt lat="45.10977" lon="5.28054">
        <ele>195.8</ele>
        <time>2022-10-16T14:52:23.000Z</time>
      </trkpt>
      <trkpt lat="45.10975" lon="5.28052">
        <ele>195.7</ele>
        <time>2022-10-16T14:52:24.000Z</time>
      </trkpt>
      <trkpt lat="45.10972" lon="5.2805">
        <ele>195.7</ele>
        <time>2022-10-16T14:52:25.000Z</time>
      </trkpt>
      <trkpt lat="45.10969" lon="5.28047">
        <ele>196.2</ele>
        <time>2022-10-16T14:52:26.000Z</time>
      </trkpt>
      <trkpt lat="45.10966" lon="5.28044">
        <ele>196.7</ele>
        <time>2022-10-16T14:52:27.000Z</time>
      </trkpt>
      <trkpt lat="45.10963" lon="5.28042">
        <ele>197</ele>
        <time>2022-10-16T14:52:28.000Z</time>
      </trkpt>
      <trkpt lat="45.10961" lon="5.28038">
        <ele>197.1</ele>
        <time>2022-10-16T14:52:29.000Z</time>
      </trkpt>
      <trkpt lat="45.10958" lon="5.28035">
        <ele>197.1</ele>
        <time>2022-10-16T14:52:30.000Z</time>
      </trkpt>
      <trkpt lat="45.10955" lon="5.28031">
        <ele>196.9</ele>
        <time>2022-10-16T14:52:31.000Z</time>
      </trkpt>
      <trkpt lat="45.10953" lon="5.28027">
        <ele>196.6</ele>
        <time>2022-10-16T14:52:32.000Z</time>
      </trkpt>
      <trkpt lat="45.1095" lon="5.28024">
        <ele>196.5</ele>
        <time>2022-10-16T14:52:33.000Z</time>
      </trkpt>
      <trkpt lat="45.10948" lon="5.28021">
        <ele>196.5</ele>
        <time>2022-10-16T14:52:34.000Z</time>
      </trkpt>
      <trkpt lat="45.10945" lon="5.28017">
        <ele>196.7</ele>
        <time>2022-10-16T14:52:35.000Z</time>
      </trkpt>
      <trkpt lat="45.10942" lon="5.28014">
        <ele>197.3</ele>
        <time>2022-10-16T14:52:36.000Z</time>
      </trkpt>
      <trkpt lat="45.10939" lon="5.28011">
        <ele>197.8</ele>
        <time>2022-10-16T14:52:37.000Z</time>
      </trkpt>
      <trkpt lat="45.10936" lon="5.28008">
        <ele>198.1</ele>
        <time>2022-10-16T14:52:38.000Z</time>
      </trkpt>
      <trkpt lat="45.10934" lon="5.28004">
        <ele>198.3</ele>
        <time>2022-10-16T14:52:39.000Z</time>
      </trkpt>
      <trkpt lat="45.10931" lon="5.28">
        <ele>198.5</ele>
        <time>2022-10-16T14:52:40.000Z</time>
      </trkpt>
      <trkpt lat="45.10929" lon="5.27997">
        <ele>198.5</ele>
        <time>2022-10-16T14:52:41.000Z</time>
      </trkpt>
      <trkpt lat="45.10926" lon="5.27993">
        <ele>198.6</ele>
        <time>2022-10-16T14:52:42.000Z</time>
      </trkpt>
      <trkpt lat="45.10923" lon="5.2799">
        <ele>198.7</ele>
        <time>2022-10-16T14:52:43.000Z</time>
      </trkpt>
      <trkpt lat="45.1092" lon="5.27987">
        <ele>198.8</ele>
        <time>2022-10-16T14:52:44.000Z</time>
      </trkpt>
      <trkpt lat="45.10918" lon="5.27983">
        <ele>199</ele>
        <time>2022-10-16T14:52:45.000Z</time>
      </trkpt>
      <trkpt lat="45.10915" lon="5.27979">
        <ele>199.1</ele>
        <time>2022-10-16T14:52:46.000Z</time>
      </trkpt>
      <trkpt lat="45.10912" lon="5.27976">
        <ele>199.2</ele>
        <time>2022-10-16T14:52:47.000Z</time>
      </trkpt>
      <trkpt lat="45.10909" lon="5.27973">
        <ele>199.3</ele>
        <time>2022-10-16T14:52:48.000Z</time>
      </trkpt>
      <trkpt lat="45.10906" lon="5.2797">
        <ele>199.3</ele>
        <time>2022-10-16T14:52:49.000Z</time>
      </trkpt>
      <trkpt lat="45.10903" lon="5.27967">
        <ele>199.3</ele>
        <time>2022-10-16T14:52:50.000Z</time>
      </trkpt>
      <trkpt lat="45.10901" lon="5.27964">
        <ele>199.3</ele>
        <time>2022-10-16T14:52:51.000Z</time>
      </trkpt>
      <trkpt lat="45.10898" lon="5.27962">
        <ele>199.3</ele>
        <time>2022-10-16T14:52:52.000Z</time>
      </trkpt>
      <trkpt lat="45.10895" lon="5.27959">
        <ele>199.3</ele>
        <time>2022-10-16T14:52:53.000Z</time>
      </trkpt>
      <trkpt lat="45.10892" lon="5.27957">
        <ele>199.3</ele>
        <time>2022-10-16T14:52:54.000Z</time>
      </trkpt>
      <trkpt lat="45.10889" lon="5.27953">
        <ele>199.3</ele>
        <time>2022-10-16T14:52:55.000Z</time>
      </trkpt>
      <trkpt lat="45.10886" lon="5.2795">
        <ele>199.4</ele>
        <time>2022-10-16T14:52:56.000Z</time>
      </trkpt>
      <trkpt lat="45.10883" lon="5.27947">
        <ele>199.5</ele>
        <time>2022-10-16T14:52:57.000Z</time>
      </trkpt>
      <trkpt lat="45.1088" lon="5.27944">
        <ele>199.6</ele>
        <time>2022-10-16T14:52:58.000Z</time>
      </trkpt>
      <trkpt lat="45.10877" lon="5.2794">
        <ele>199.6</ele>
        <time>2022-10-16T14:52:59.000Z</time>
      </trkpt>
      <trkpt lat="45.10874" lon="5.27937">
        <ele>199.7</ele>
        <time>2022-10-16T14:53:00.000Z</time>
      </trkpt>
      <trkpt lat="45.10871" lon="5.27934">
        <ele>199.7</ele>
        <time>2022-10-16T14:53:01.000Z</time>
      </trkpt>
      <trkpt lat="45.10868" lon="5.27931">
        <ele>199.7</ele>
        <time>2022-10-16T14:53:02.000Z</time>
      </trkpt>
      <trkpt lat="45.10866" lon="5.27928">
        <ele>199.6</ele>
        <time>2022-10-16T14:53:03.000Z</time>
      </trkpt>
      <trkpt lat="45.10863" lon="5.27924">
        <ele>199.5</ele>
        <time>2022-10-16T14:53:04.000Z</time>
      </trkpt>
      <trkpt lat="45.1086" lon="5.27921">
        <ele>199.4</ele>
        <time>2022-10-16T14:53:05.000Z</time>
      </trkpt>
      <trkpt lat="45.10857" lon="5.27918">
        <ele>199.4</ele>
        <time>2022-10-16T14:53:06.000Z</time>
      </trkpt>
      <trkpt lat="45.10854" lon="5.27914">
        <ele>199.5</ele>
        <time>2022-10-16T14:53:07.000Z</time>
      </trkpt>
      <trkpt lat="45.10851" lon="5.2791">
        <ele>199.6</ele>
        <time>2022-10-16T14:53:08.000Z</time>
      </trkpt>
      <trkpt lat="45.10848" lon="5.27906">
        <ele>199.8</ele>
        <time>2022-10-16T14:53:09.000Z</time>
      </trkpt>
      <trkpt lat="45.10845" lon="5.27903">
        <ele>199.9</ele>
        <time>2022-10-16T14:53:10.000Z</time>
      </trkpt>
      <trkpt lat="45.10842" lon="5.27899">
        <ele>199.9</ele>
        <time>2022-10-16T14:53:11.000Z</time>
      </trkpt>
      <trkpt lat="45.10839" lon="5.27895">
        <ele>200</ele>
        <time>2022-10-16T14:53:12.000Z</time>
      </trkpt>
      <trkpt lat="45.10836" lon="5.27891">
        <ele>200</ele>
        <time>2022-10-16T14:53:13.000Z</time>
      </trkpt>
      <trkpt lat="45.10833" lon="5.27886">
        <ele>199.9</ele>
        <time>2022-10-16T14:53:14.000Z</time>
      </trkpt>
      <trkpt lat="45.1083" lon="5.27882">
        <ele>199.9</ele>
        <time>2022-10-16T14:53:15.000Z</time>
      </trkpt>
      <trkpt lat="45.10827" lon="5.27879">
        <ele>199.9</ele>
        <time>2022-10-16T14:53:16.000Z</time>
      </trkpt>
      <trkpt lat="45.10824" lon="5.27875">
        <ele>199.9</ele>
        <time>2022-10-16T14:53:17.000Z</time>
      </trkpt>
      <trkpt lat="45.10821" lon="5.27872">
        <ele>199.8</ele>
        <time>2022-10-16T14:53:18.000Z</time>
      </trkpt>
      <trkpt lat="45.10818" lon="5.27869">
        <ele>199.8</ele>
        <time>2022-10-16T14:53:19.000Z</time>
      </trkpt>
      <trkpt lat="45.10815" lon="5.27865">
        <ele>199.8</ele>
        <time>2022-10-16T14:53:20.000Z</time>
      </trkpt>
      <trkpt lat="45.10812" lon="5.27862">
        <ele>199.8</ele>
        <time>2022-10-16T14:53:21.000Z</time>
      </trkpt>
      <trkpt lat="45.10808" lon="5.27858">
        <ele>200</ele>
        <time>2022-10-16T14:53:22.000Z</time>
      </trkpt>
      <trkpt lat="45.10805" lon="5.27854">
        <ele>200.3</ele>
        <time>2022-10-16T14:53:23.000Z</time>
      </trkpt>
      <trkpt lat="45.10801" lon="5.2785">
        <ele>200.5</ele>
        <time>2022-10-16T14:53:24.000Z</time>
      </trkpt>
      <trkpt lat="45.10798" lon="5.27846">
        <ele>200.7</ele>
        <time>2022-10-16T14:53:25.000Z</time>
      </trkpt>
      <trkpt lat="45.10794" lon="5.27841">
        <ele>200.8</ele>
        <time>2022-10-16T14:53:26.000Z</time>
      </trkpt>
      <trkpt lat="45.10791" lon="5.27837">
        <ele>200.9</ele>
        <time>2022-10-16T14:53:27.000Z</time>
      </trkpt>
      <trkpt lat="45.10787" lon="5.27834">
        <ele>201</ele>
        <time>2022-10-16T14:53:28.000Z</time>
      </trkpt>
      <trkpt lat="45.10784" lon="5.2783">
        <ele>200.8</ele>
        <time>2022-10-16T14:53:29.000Z</time>
      </trkpt>
      <trkpt lat="45.10781" lon="5.27826">
        <ele>200.7</ele>
        <time>2022-10-16T14:53:30.000Z</time>
      </trkpt>
      <trkpt lat="45.10778" lon="5.27823">
        <ele>200.6</ele>
        <time>2022-10-16T14:53:31.000Z</time>
      </trkpt>
      <trkpt lat="45.10776" lon="5.27819">
        <ele>200.4</ele>
        <time>2022-10-16T14:53:32.000Z</time>
      </trkpt>
      <trkpt lat="45.10773" lon="5.27815">
        <ele>200.3</ele>
        <time>2022-10-16T14:53:33.000Z</time>
      </trkpt>
      <trkpt lat="45.1077" lon="5.27811">
        <ele>200.1</ele>
        <time>2022-10-16T14:53:34.000Z</time>
      </trkpt>
      <trkpt lat="45.10766" lon="5.27807">
        <ele>200</ele>
        <time>2022-10-16T14:53:35.000Z</time>
      </trkpt>
      <trkpt lat="45.10763" lon="5.27803">
        <ele>200</ele>
        <time>2022-10-16T14:53:36.000Z</time>
      </trkpt>
      <trkpt lat="45.1076" lon="5.27799">
        <ele>199.9</ele>
        <time>2022-10-16T14:53:37.000Z</time>
      </trkpt>
      <trkpt lat="45.10757" lon="5.27795">
        <ele>199.9</ele>
        <time>2022-10-16T14:53:38.000Z</time>
      </trkpt>
      <trkpt lat="45.10753" lon="5.27791">
        <ele>199.9</ele>
        <time>2022-10-16T14:53:39.000Z</time>
      </trkpt>
      <trkpt lat="45.1075" lon="5.27787">
        <ele>200</ele>
        <time>2022-10-16T14:53:40.000Z</time>
      </trkpt>
      <trkpt lat="45.10747" lon="5.27783">
        <ele>200.1</ele>
        <time>2022-10-16T14:53:41.000Z</time>
      </trkpt>
      <trkpt lat="45.10744" lon="5.27779">
        <ele>200.2</ele>
        <time>2022-10-16T14:53:42.000Z</time>
      </trkpt>
      <trkpt lat="45.1074" lon="5.27775">
        <ele>200.4</ele>
        <time>2022-10-16T14:53:43.000Z</time>
      </trkpt>
      <trkpt lat="45.10737" lon="5.27771">
        <ele>200.5</ele>
        <time>2022-10-16T14:53:44.000Z</time>
      </trkpt>
      <trkpt lat="45.10733" lon="5.27768">
        <ele>200.6</ele>
        <time>2022-10-16T14:53:45.000Z</time>
      </trkpt>
      <trkpt lat="45.1073" lon="5.27765">
        <ele>200.7</ele>
        <time>2022-10-16T14:53:46.000Z</time>
      </trkpt>
      <trkpt lat="45.10726" lon="5.27761">
        <ele>200.9</ele>
        <time>2022-10-16T14:53:47.000Z</time>
      </trkpt>
      <trkpt lat="45.10723" lon="5.27757">
        <ele>201</ele>
        <time>2022-10-16T14:53:48.000Z</time>
      </trkpt>
      <trkpt lat="45.1072" lon="5.27754">
        <ele>201</ele>
        <time>2022-10-16T14:53:49.000Z</time>
      </trkpt>
      <trkpt lat="45.10716" lon="5.2775">
        <ele>201</ele>
        <time>2022-10-16T14:53:50.000Z</time>
      </trkpt>
      <trkpt lat="45.10713" lon="5.27747">
        <ele>200.9</ele>
        <time>2022-10-16T14:53:51.000Z</time>
      </trkpt>
      <trkpt lat="45.1071" lon="5.27743">
        <ele>200.9</ele>
        <time>2022-10-16T14:53:52.000Z</time>
      </trkpt>
      <trkpt lat="45.10707" lon="5.2774">
        <ele>200.8</ele>
        <time>2022-10-16T14:53:53.000Z</time>
      </trkpt>
      <trkpt lat="45.10703" lon="5.27736">
        <ele>200.8</ele>
        <time>2022-10-16T14:53:54.000Z</time>
      </trkpt>
      <trkpt lat="45.10701" lon="5.27733">
        <ele>200.9</ele>
        <time>2022-10-16T14:53:55.000Z</time>
      </trkpt>
      <trkpt lat="45.10698" lon="5.27731">
        <ele>200.9</ele>
        <time>2022-10-16T14:53:56.000Z</time>
      </trkpt>
      <trkpt lat="45.10695" lon="5.27728">
        <ele>201</ele>
        <time>2022-10-16T14:53:57.000Z</time>
      </trkpt>
      <trkpt lat="45.10693" lon="5.27725">
        <ele>201</ele>
        <time>2022-10-16T14:53:58.000Z</time>
      </trkpt>
      <trkpt lat="45.1069" lon="5.27722">
        <ele>201</ele>
        <time>2022-10-16T14:53:59.000Z</time>
      </trkpt>
      <trkpt lat="45.10687" lon="5.27719">
        <ele>201</ele>
        <time>2022-10-16T14:54:00.000Z</time>
      </trkpt>
      <trkpt lat="45.10685" lon="5.27715">
        <ele>201</ele>
        <time>2022-10-16T14:54:01.000Z</time>
      </trkpt>
      <trkpt lat="45.10682" lon="5.27712">
        <ele>201</ele>
        <time>2022-10-16T14:54:02.000Z</time>
      </trkpt>
      <trkpt lat="45.10679" lon="5.2771">
        <ele>201</ele>
        <time>2022-10-16T14:54:03.000Z</time>
      </trkpt>
      <trkpt lat="45.10676" lon="5.27707">
        <ele>201</ele>
        <time>2022-10-16T14:54:04.000Z</time>
      </trkpt>
      <trkpt lat="45.10673" lon="5.27704">
        <ele>201</ele>
        <time>2022-10-16T14:54:05.000Z</time>
      </trkpt>
      <trkpt lat="45.1067" lon="5.27703">
        <ele>201</ele>
        <time>2022-10-16T14:54:06.000Z</time>
      </trkpt>
      <trkpt lat="45.10666" lon="5.27704">
        <ele>201</ele>
        <time>2022-10-16T14:54:07.000Z</time>
      </trkpt>
      <trkpt lat="45.10663" lon="5.27706">
        <ele>200.9</ele>
        <time>2022-10-16T14:54:08.000Z</time>
      </trkpt>
      <trkpt lat="45.10661" lon="5.27709">
        <ele>200.9</ele>
        <time>2022-10-16T14:54:09.000Z</time>
      </trkpt>
      <trkpt lat="45.10659" lon="5.27713">
        <ele>200.8</ele>
        <time>2022-10-16T14:54:10.000Z</time>
      </trkpt>
      <trkpt lat="45.10658" lon="5.27719">
        <ele>200.7</ele>
        <time>2022-10-16T14:54:11.000Z</time>
      </trkpt>
      <trkpt lat="45.10658" lon="5.27725">
        <ele>200.7</ele>
        <time>2022-10-16T14:54:12.000Z</time>
      </trkpt>
      <trkpt lat="45.10657" lon="5.27731">
        <ele>200.8</ele>
        <time>2022-10-16T14:54:13.000Z</time>
      </trkpt>
      <trkpt lat="45.10658" lon="5.27738">
        <ele>200.9</ele>
        <time>2022-10-16T14:54:14.000Z</time>
      </trkpt>
      <trkpt lat="45.10659" lon="5.27744">
        <ele>200.9</ele>
        <time>2022-10-16T14:54:15.000Z</time>
      </trkpt>
      <trkpt lat="45.1066" lon="5.27751">
        <ele>201</ele>
        <time>2022-10-16T14:54:16.000Z</time>
      </trkpt>
      <trkpt lat="45.1066" lon="5.27758">
        <ele>201.2</ele>
        <time>2022-10-16T14:54:17.000Z</time>
      </trkpt>
      <trkpt lat="45.10661" lon="5.27765">
        <ele>201.4</ele>
        <time>2022-10-16T14:54:18.000Z</time>
      </trkpt>
      <trkpt lat="45.10662" lon="5.27772">
        <ele>201.7</ele>
        <time>2022-10-16T14:54:19.000Z</time>
      </trkpt>
      <trkpt lat="45.10663" lon="5.27779">
        <ele>201.9</ele>
        <time>2022-10-16T14:54:20.000Z</time>
      </trkpt>
      <trkpt lat="45.10664" lon="5.27786">
        <ele>201.9</ele>
        <time>2022-10-16T14:54:21.000Z</time>
      </trkpt>
      <trkpt lat="45.10665" lon="5.27793">
        <ele>202</ele>
        <time>2022-10-16T14:54:22.000Z</time>
      </trkpt>
      <trkpt lat="45.10666" lon="5.278">
        <ele>202</ele>
        <time>2022-10-16T14:54:23.000Z</time>
      </trkpt>
      <trkpt lat="45.10667" lon="5.27807">
        <ele>202</ele>
        <time>2022-10-16T14:54:24.000Z</time>
      </trkpt>
      <trkpt lat="45.10667" lon="5.27814">
        <ele>202</ele>
        <time>2022-10-16T14:54:25.000Z</time>
      </trkpt>
      <trkpt lat="45.10667" lon="5.27821">
        <ele>202</ele>
        <time>2022-10-16T14:54:26.000Z</time>
      </trkpt>
      <trkpt lat="45.10668" lon="5.27827">
        <ele>202</ele>
        <time>2022-10-16T14:54:27.000Z</time>
      </trkpt>
      <trkpt lat="45.10669" lon="5.27834">
        <ele>202</ele>
        <time>2022-10-16T14:54:28.000Z</time>
      </trkpt>
      <trkpt lat="45.1067" lon="5.27841">
        <ele>202</ele>
        <time>2022-10-16T14:54:29.000Z</time>
      </trkpt>
      <trkpt lat="45.10671" lon="5.27848">
        <ele>202</ele>
        <time>2022-10-16T14:54:30.000Z</time>
      </trkpt>
      <trkpt lat="45.10672" lon="5.27855">
        <ele>202</ele>
        <time>2022-10-16T14:54:31.000Z</time>
      </trkpt>
      <trkpt lat="45.10673" lon="5.27863">
        <ele>202</ele>
        <time>2022-10-16T14:54:32.000Z</time>
      </trkpt>
      <trkpt lat="45.10674" lon="5.27871">
        <ele>202</ele>
        <time>2022-10-16T14:54:33.000Z</time>
      </trkpt>
      <trkpt lat="45.10675" lon="5.27879">
        <ele>202</ele>
        <time>2022-10-16T14:54:34.000Z</time>
      </trkpt>
      <trkpt lat="45.10676" lon="5.27887">
        <ele>202</ele>
        <time>2022-10-16T14:54:35.000Z</time>
      </trkpt>
      <trkpt lat="45.10677" lon="5.27894">
        <ele>202</ele>
        <time>2022-10-16T14:54:36.000Z</time>
      </trkpt>
      <trkpt lat="45.10678" lon="5.27903">
        <ele>202</ele>
        <time>2022-10-16T14:54:37.000Z</time>
      </trkpt>
      <trkpt lat="45.10678" lon="5.27911">
        <ele>202</ele>
        <time>2022-10-16T14:54:38.000Z</time>
      </trkpt>
      <trkpt lat="45.10679" lon="5.27919">
        <ele>202</ele>
        <time>2022-10-16T14:54:39.000Z</time>
      </trkpt>
      <trkpt lat="45.10679" lon="5.27929">
        <ele>202</ele>
        <time>2022-10-16T14:54:40.000Z</time>
      </trkpt>
      <trkpt lat="45.1068" lon="5.27938">
        <ele>202</ele>
        <time>2022-10-16T14:54:41.000Z</time>
      </trkpt>
      <trkpt lat="45.10681" lon="5.27946">
        <ele>202</ele>
        <time>2022-10-16T14:54:42.000Z</time>
      </trkpt>
      <trkpt lat="45.10681" lon="5.27954">
        <ele>202</ele>
        <time>2022-10-16T14:54:43.000Z</time>
      </trkpt>
      <trkpt lat="45.10681" lon="5.27963">
        <ele>202</ele>
        <time>2022-10-16T14:54:44.000Z</time>
      </trkpt>
      <trkpt lat="45.10682" lon="5.27971">
        <ele>202</ele>
        <time>2022-10-16T14:54:45.000Z</time>
      </trkpt>
      <trkpt lat="45.10682" lon="5.27979">
        <ele>202</ele>
        <time>2022-10-16T14:54:46.000Z</time>
      </trkpt>
      <trkpt lat="45.10683" lon="5.27987">
        <ele>202</ele>
        <time>2022-10-16T14:54:47.000Z</time>
      </trkpt>
      <trkpt lat="45.10683" lon="5.27995">
        <ele>202</ele>
        <time>2022-10-16T14:54:48.000Z</time>
      </trkpt>
      <trkpt lat="45.10684" lon="5.28003">
        <ele>202</ele>
        <time>2022-10-16T14:54:49.000Z</time>
      </trkpt>
      <trkpt lat="45.10684" lon="5.2801">
        <ele>201.9</ele>
        <time>2022-10-16T14:54:50.000Z</time>
      </trkpt>
      <trkpt lat="45.10685" lon="5.28017">
        <ele>201.8</ele>
        <time>2022-10-16T14:54:51.000Z</time>
      </trkpt>
      <trkpt lat="45.10685" lon="5.28024">
        <ele>201.7</ele>
        <time>2022-10-16T14:54:52.000Z</time>
      </trkpt>
      <trkpt lat="45.10686" lon="5.28031">
        <ele>201.7</ele>
        <time>2022-10-16T14:54:53.000Z</time>
      </trkpt>
      <trkpt lat="45.10686" lon="5.28039">
        <ele>201.7</ele>
        <time>2022-10-16T14:54:54.000Z</time>
      </trkpt>
      <trkpt lat="45.10686" lon="5.28046">
        <ele>201.7</ele>
        <time>2022-10-16T14:54:55.000Z</time>
      </trkpt>
      <trkpt lat="45.10687" lon="5.28053">
        <ele>201.7</ele>
        <time>2022-10-16T14:54:56.000Z</time>
      </trkpt>
      <trkpt lat="45.10688" lon="5.28062">
        <ele>201.7</ele>
        <time>2022-10-16T14:54:57.000Z</time>
      </trkpt>
      <trkpt lat="45.10688" lon="5.28071">
        <ele>201.7</ele>
        <time>2022-10-16T14:54:58.000Z</time>
      </trkpt>
      <trkpt lat="45.10689" lon="5.2808">
        <ele>201.6</ele>
        <time>2022-10-16T14:54:59.000Z</time>
      </trkpt>
      <trkpt lat="45.1069" lon="5.28088">
        <ele>201.6</ele>
        <time>2022-10-16T14:55:00.000Z</time>
      </trkpt>
      <trkpt lat="45.10691" lon="5.28096">
        <ele>201.7</ele>
        <time>2022-10-16T14:55:01.000Z</time>
      </trkpt>
      <trkpt lat="45.10691" lon="5.28104">
        <ele>201.7</ele>
        <time>2022-10-16T14:55:02.000Z</time>
      </trkpt>
      <trkpt lat="45.10692" lon="5.28112">
        <ele>201.7</ele>
        <time>2022-10-16T14:55:03.000Z</time>
      </trkpt>
      <trkpt lat="45.10692" lon="5.28119">
        <ele>202</ele>
        <time>2022-10-16T14:55:04.000Z</time>
      </trkpt>
      <trkpt lat="45.10693" lon="5.28126">
        <ele>202.3</ele>
        <time>2022-10-16T14:55:05.000Z</time>
      </trkpt>
      <trkpt lat="45.10694" lon="5.28132">
        <ele>202.7</ele>
        <time>2022-10-16T14:55:06.000Z</time>
      </trkpt>
      <trkpt lat="45.10695" lon="5.28138">
        <ele>202.9</ele>
        <time>2022-10-16T14:55:07.000Z</time>
      </trkpt>
      <trkpt lat="45.10695" lon="5.28144">
        <ele>202.9</ele>
        <time>2022-10-16T14:55:08.000Z</time>
      </trkpt>
      <trkpt lat="45.10696" lon="5.28151">
        <ele>202.8</ele>
        <time>2022-10-16T14:55:09.000Z</time>
      </trkpt>
      <trkpt lat="45.10697" lon="5.28157">
        <ele>202.6</ele>
        <time>2022-10-16T14:55:10.000Z</time>
      </trkpt>
      <trkpt lat="45.10698" lon="5.28163">
        <ele>202.5</ele>
        <time>2022-10-16T14:55:11.000Z</time>
      </trkpt>
      <trkpt lat="45.10699" lon="5.28169">
        <ele>202.4</ele>
        <time>2022-10-16T14:55:12.000Z</time>
      </trkpt>
      <trkpt lat="45.10699" lon="5.28175">
        <ele>202.4</ele>
        <time>2022-10-16T14:55:13.000Z</time>
      </trkpt>
      <trkpt lat="45.107" lon="5.28182">
        <ele>202.4</ele>
        <time>2022-10-16T14:55:14.000Z</time>
      </trkpt>
      <trkpt lat="45.107" lon="5.28189">
        <ele>202.3</ele>
        <time>2022-10-16T14:55:15.000Z</time>
      </trkpt>
      <trkpt lat="45.10701" lon="5.28196">
        <ele>202.4</ele>
        <time>2022-10-16T14:55:16.000Z</time>
      </trkpt>
      <trkpt lat="45.10701" lon="5.28203">
        <ele>202.5</ele>
        <time>2022-10-16T14:55:17.000Z</time>
      </trkpt>
      <trkpt lat="45.10701" lon="5.28209">
        <ele>202.7</ele>
        <time>2022-10-16T14:55:18.000Z</time>
      </trkpt>
      <trkpt lat="45.10701" lon="5.28215">
        <ele>202.8</ele>
        <time>2022-10-16T14:55:19.000Z</time>
      </trkpt>
      <trkpt lat="45.10702" lon="5.28221">
        <ele>202.9</ele>
        <time>2022-10-16T14:55:20.000Z</time>
      </trkpt>
      <trkpt lat="45.10703" lon="5.28227">
        <ele>203.2</ele>
        <time>2022-10-16T14:55:21.000Z</time>
      </trkpt>
      <trkpt lat="45.10704" lon="5.28233">
        <ele>203.7</ele>
        <time>2022-10-16T14:55:22.000Z</time>
      </trkpt>
      <trkpt lat="45.10704" lon="5.28239">
        <ele>204.2</ele>
        <time>2022-10-16T14:55:23.000Z</time>
      </trkpt>
      <trkpt lat="45.10705" lon="5.28245">
        <ele>204.7</ele>
        <time>2022-10-16T14:55:24.000Z</time>
      </trkpt>
      <trkpt lat="45.10706" lon="5.28251">
        <ele>205.2</ele>
        <time>2022-10-16T14:55:25.000Z</time>
      </trkpt>
      <trkpt lat="45.10707" lon="5.28256">
        <ele>205.6</ele>
        <time>2022-10-16T14:55:26.000Z</time>
      </trkpt>
      <trkpt lat="45.10708" lon="5.28262">
        <ele>205.9</ele>
        <time>2022-10-16T14:55:27.000Z</time>
      </trkpt>
      <trkpt lat="45.10708" lon="5.28268">
        <ele>206.4</ele>
        <time>2022-10-16T14:55:28.000Z</time>
      </trkpt>
      <trkpt lat="45.10708" lon="5.28274">
        <ele>206.8</ele>
        <time>2022-10-16T14:55:29.000Z</time>
      </trkpt>
      <trkpt lat="45.10708" lon="5.2828">
        <ele>207.1</ele>
        <time>2022-10-16T14:55:30.000Z</time>
      </trkpt>
      <trkpt lat="45.10709" lon="5.28285">
        <ele>207.2</ele>
        <time>2022-10-16T14:55:31.000Z</time>
      </trkpt>
      <trkpt lat="45.10709" lon="5.28291">
        <ele>207.4</ele>
        <time>2022-10-16T14:55:32.000Z</time>
      </trkpt>
      <trkpt lat="45.1071" lon="5.28296">
        <ele>207.4</ele>
        <time>2022-10-16T14:55:33.000Z</time>
      </trkpt>
      <trkpt lat="45.10711" lon="5.28301">
        <ele>207.5</ele>
        <time>2022-10-16T14:55:34.000Z</time>
      </trkpt>
      <trkpt lat="45.10711" lon="5.28306">
        <ele>207.6</ele>
        <time>2022-10-16T14:55:35.000Z</time>
      </trkpt>
      <trkpt lat="45.10711" lon="5.28311">
        <ele>207.8</ele>
        <time>2022-10-16T14:55:36.000Z</time>
      </trkpt>
      <trkpt lat="45.10711" lon="5.28316">
        <ele>208</ele>
        <time>2022-10-16T14:55:37.000Z</time>
      </trkpt>
      <trkpt lat="45.10712" lon="5.28321">
        <ele>208.2</ele>
        <time>2022-10-16T14:55:38.000Z</time>
      </trkpt>
      <trkpt lat="45.10712" lon="5.28326">
        <ele>208.4</ele>
        <time>2022-10-16T14:55:39.000Z</time>
      </trkpt>
      <trkpt lat="45.10712" lon="5.28331">
        <ele>208.6</ele>
        <time>2022-10-16T14:55:40.000Z</time>
      </trkpt>
      <trkpt lat="45.10713" lon="5.28336">
        <ele>208.7</ele>
        <time>2022-10-16T14:55:41.000Z</time>
      </trkpt>
      <trkpt lat="45.10714" lon="5.28341">
        <ele>208.8</ele>
        <time>2022-10-16T14:55:42.000Z</time>
      </trkpt>
      <trkpt lat="45.10714" lon="5.28346">
        <ele>208.9</ele>
        <time>2022-10-16T14:55:43.000Z</time>
      </trkpt>
      <trkpt lat="45.10715" lon="5.28352">
        <ele>209</ele>
        <time>2022-10-16T14:55:44.000Z</time>
      </trkpt>
      <trkpt lat="45.10715" lon="5.28357">
        <ele>209.1</ele>
        <time>2022-10-16T14:55:45.000Z</time>
      </trkpt>
      <trkpt lat="45.10716" lon="5.28363">
        <ele>209.3</ele>
        <time>2022-10-16T14:55:46.000Z</time>
      </trkpt>
      <trkpt lat="45.10716" lon="5.28368">
        <ele>209.4</ele>
        <time>2022-10-16T14:55:47.000Z</time>
      </trkpt>
      <trkpt lat="45.10717" lon="5.28374">
        <ele>209.6</ele>
        <time>2022-10-16T14:55:48.000Z</time>
      </trkpt>
      <trkpt lat="45.10717" lon="5.28379">
        <ele>209.7</ele>
        <time>2022-10-16T14:55:49.000Z</time>
      </trkpt>
      <trkpt lat="45.10718" lon="5.28385">
        <ele>209.9</ele>
        <time>2022-10-16T14:55:50.000Z</time>
      </trkpt>
      <trkpt lat="45.10718" lon="5.28391">
        <ele>210</ele>
        <time>2022-10-16T14:55:51.000Z</time>
      </trkpt>
      <trkpt lat="45.10718" lon="5.28397">
        <ele>210</ele>
        <time>2022-10-16T14:55:52.000Z</time>
      </trkpt>
      <trkpt lat="45.10719" lon="5.28403">
        <ele>209.9</ele>
        <time>2022-10-16T14:55:53.000Z</time>
      </trkpt>
      <trkpt lat="45.1072" lon="5.28409">
        <ele>209.9</ele>
        <time>2022-10-16T14:55:54.000Z</time>
      </trkpt>
      <trkpt lat="45.10721" lon="5.28415">
        <ele>209.9</ele>
        <time>2022-10-16T14:55:55.000Z</time>
      </trkpt>
      <trkpt lat="45.10721" lon="5.28421">
        <ele>210.1</ele>
        <time>2022-10-16T14:55:56.000Z</time>
      </trkpt>
      <trkpt lat="45.10721" lon="5.28428">
        <ele>210.3</ele>
        <time>2022-10-16T14:55:57.000Z</time>
      </trkpt>
      <trkpt lat="45.10721" lon="5.28435">
        <ele>210.6</ele>
        <time>2022-10-16T14:55:58.000Z</time>
      </trkpt>
      <trkpt lat="45.10721" lon="5.28442">
        <ele>210.8</ele>
        <time>2022-10-16T14:55:59.000Z</time>
      </trkpt>
      <trkpt lat="45.10722" lon="5.28449">
        <ele>210.8</ele>
        <time>2022-10-16T14:56:00.000Z</time>
      </trkpt>
      <trkpt lat="45.10722" lon="5.28455">
        <ele>210.6</ele>
        <time>2022-10-16T14:56:01.000Z</time>
      </trkpt>
      <trkpt lat="45.10723" lon="5.28462">
        <ele>210.3</ele>
        <time>2022-10-16T14:56:02.000Z</time>
      </trkpt>
      <trkpt lat="45.10723" lon="5.28468">
        <ele>209.9</ele>
        <time>2022-10-16T14:56:03.000Z</time>
      </trkpt>
      <trkpt lat="45.10724" lon="5.28474">
        <ele>209.5</ele>
        <time>2022-10-16T14:56:04.000Z</time>
      </trkpt>
      <trkpt lat="45.10725" lon="5.2848">
        <ele>209.3</ele>
        <time>2022-10-16T14:56:05.000Z</time>
      </trkpt>
      <trkpt lat="45.10725" lon="5.28487">
        <ele>209.3</ele>
        <time>2022-10-16T14:56:06.000Z</time>
      </trkpt>
      <trkpt lat="45.10726" lon="5.28494">
        <ele>209.4</ele>
        <time>2022-10-16T14:56:07.000Z</time>
      </trkpt>
      <trkpt lat="45.10727" lon="5.28501">
        <ele>209.5</ele>
        <time>2022-10-16T14:56:08.000Z</time>
      </trkpt>
      <trkpt lat="45.10727" lon="5.28509">
        <ele>209.6</ele>
        <time>2022-10-16T14:56:09.000Z</time>
      </trkpt>
      <trkpt lat="45.10728" lon="5.28516">
        <ele>209.6</ele>
        <time>2022-10-16T14:56:10.000Z</time>
      </trkpt>
      <trkpt lat="45.10728" lon="5.28524">
        <ele>209.7</ele>
        <time>2022-10-16T14:56:11.000Z</time>
      </trkpt>
      <trkpt lat="45.10729" lon="5.28531">
        <ele>209.7</ele>
        <time>2022-10-16T14:56:12.000Z</time>
      </trkpt>
      <trkpt lat="45.1073" lon="5.28538">
        <ele>209.6</ele>
        <time>2022-10-16T14:56:13.000Z</time>
      </trkpt>
      <trkpt lat="45.1073" lon="5.28545">
        <ele>209.4</ele>
        <time>2022-10-16T14:56:14.000Z</time>
      </trkpt>
      <trkpt lat="45.10731" lon="5.28553">
        <ele>209.4</ele>
        <time>2022-10-16T14:56:15.000Z</time>
      </trkpt>
      <trkpt lat="45.10732" lon="5.2856">
        <ele>209.4</ele>
        <time>2022-10-16T14:56:16.000Z</time>
      </trkpt>
      <trkpt lat="45.10733" lon="5.28568">
        <ele>209.5</ele>
        <time>2022-10-16T14:56:17.000Z</time>
      </trkpt>
      <trkpt lat="45.10733" lon="5.28575">
        <ele>209.7</ele>
        <time>2022-10-16T14:56:18.000Z</time>
      </trkpt>
      <trkpt lat="45.10734" lon="5.28582">
        <ele>209.8</ele>
        <time>2022-10-16T14:56:19.000Z</time>
      </trkpt>
      <trkpt lat="45.10734" lon="5.2859">
        <ele>209.7</ele>
        <time>2022-10-16T14:56:20.000Z</time>
      </trkpt>
      <trkpt lat="45.10735" lon="5.28596">
        <ele>209.5</ele>
        <time>2022-10-16T14:56:21.000Z</time>
      </trkpt>
      <trkpt lat="45.10735" lon="5.28602">
        <ele>209.3</ele>
        <time>2022-10-16T14:56:22.000Z</time>
      </trkpt>
      <trkpt lat="45.10736" lon="5.28609">
        <ele>209.1</ele>
        <time>2022-10-16T14:56:23.000Z</time>
      </trkpt>
      <trkpt lat="45.10736" lon="5.28614">
        <ele>208.9</ele>
        <time>2022-10-16T14:56:24.000Z</time>
      </trkpt>
      <trkpt lat="45.10737" lon="5.28621">
        <ele>208.8</ele>
        <time>2022-10-16T14:56:25.000Z</time>
      </trkpt>
      <trkpt lat="45.10737" lon="5.28627">
        <ele>208.7</ele>
        <time>2022-10-16T14:56:26.000Z</time>
      </trkpt>
      <trkpt lat="45.10738" lon="5.28633">
        <ele>208.7</ele>
        <time>2022-10-16T14:56:27.000Z</time>
      </trkpt>
      <trkpt lat="45.10739" lon="5.28639">
        <ele>208.6</ele>
        <time>2022-10-16T14:56:28.000Z</time>
      </trkpt>
      <trkpt lat="45.1074" lon="5.28645">
        <ele>208.6</ele>
        <time>2022-10-16T14:56:29.000Z</time>
      </trkpt>
      <trkpt lat="45.1074" lon="5.28654">
        <ele>208.6</ele>
        <time>2022-10-16T14:56:30.000Z</time>
      </trkpt>
      <trkpt lat="45.10741" lon="5.28663">
        <ele>208.7</ele>
        <time>2022-10-16T14:56:31.000Z</time>
      </trkpt>
      <trkpt lat="45.10742" lon="5.2867">
        <ele>208.7</ele>
        <time>2022-10-16T14:56:32.000Z</time>
      </trkpt>
      <trkpt lat="45.10743" lon="5.28677">
        <ele>208.7</ele>
        <time>2022-10-16T14:56:33.000Z</time>
      </trkpt>
      <trkpt lat="45.10743" lon="5.28682">
        <ele>208.7</ele>
        <time>2022-10-16T14:56:34.000Z</time>
      </trkpt>
      <trkpt lat="45.10743" lon="5.28688">
        <ele>208.7</ele>
        <time>2022-10-16T14:56:35.000Z</time>
      </trkpt>
      <trkpt lat="45.10743" lon="5.28693">
        <ele>208.8</ele>
        <time>2022-10-16T14:56:36.000Z</time>
      </trkpt>
      <trkpt lat="45.10744" lon="5.28698">
        <ele>208.8</ele>
        <time>2022-10-16T14:56:37.000Z</time>
      </trkpt>
      <trkpt lat="45.10744" lon="5.28704">
        <ele>208.8</ele>
        <time>2022-10-16T14:56:38.000Z</time>
      </trkpt>
      <trkpt lat="45.10745" lon="5.2871">
        <ele>208.8</ele>
        <time>2022-10-16T14:56:39.000Z</time>
      </trkpt>
      <trkpt lat="45.10745" lon="5.28715">
        <ele>208.8</ele>
        <time>2022-10-16T14:56:40.000Z</time>
      </trkpt>
      <trkpt lat="45.10745" lon="5.28721">
        <ele>208.8</ele>
        <time>2022-10-16T14:56:41.000Z</time>
      </trkpt>
      <trkpt lat="45.10746" lon="5.28727">
        <ele>208.7</ele>
        <time>2022-10-16T14:56:42.000Z</time>
      </trkpt>
      <trkpt lat="45.10746" lon="5.28733">
        <ele>208.5</ele>
        <time>2022-10-16T14:56:43.000Z</time>
      </trkpt>
      <trkpt lat="45.10745" lon="5.2874">
        <ele>208.3</ele>
        <time>2022-10-16T14:56:44.000Z</time>
      </trkpt>
      <trkpt lat="45.10745" lon="5.28746">
        <ele>208.1</ele>
        <time>2022-10-16T14:56:45.000Z</time>
      </trkpt>
      <trkpt lat="45.10745" lon="5.28754">
        <ele>208</ele>
        <time>2022-10-16T14:56:46.000Z</time>
      </trkpt>
      <trkpt lat="45.10745" lon="5.28761">
        <ele>208.1</ele>
        <time>2022-10-16T14:56:47.000Z</time>
      </trkpt>
      <trkpt lat="45.10745" lon="5.28769">
        <ele>208.1</ele>
        <time>2022-10-16T14:56:48.000Z</time>
      </trkpt>
      <trkpt lat="45.10745" lon="5.28776">
        <ele>208.2</ele>
        <time>2022-10-16T14:56:49.000Z</time>
      </trkpt>
      <trkpt lat="45.10745" lon="5.28783">
        <ele>208.2</ele>
        <time>2022-10-16T14:56:50.000Z</time>
      </trkpt>
      <trkpt lat="45.10745" lon="5.2879">
        <ele>208.2</ele>
        <time>2022-10-16T14:56:51.000Z</time>
      </trkpt>
      <trkpt lat="45.10746" lon="5.28796">
        <ele>208.1</ele>
        <time>2022-10-16T14:56:52.000Z</time>
      </trkpt>
      <trkpt lat="45.10746" lon="5.28802">
        <ele>208.1</ele>
        <time>2022-10-16T14:56:53.000Z</time>
      </trkpt>
      <trkpt lat="45.10747" lon="5.28809">
        <ele>208.2</ele>
        <time>2022-10-16T14:56:54.000Z</time>
      </trkpt>
      <trkpt lat="45.10747" lon="5.28815">
        <ele>208.4</ele>
        <time>2022-10-16T14:56:55.000Z</time>
      </trkpt>
      <trkpt lat="45.10748" lon="5.28821">
        <ele>208.6</ele>
        <time>2022-10-16T14:56:56.000Z</time>
      </trkpt>
      <trkpt lat="45.10749" lon="5.28827">
        <ele>208.8</ele>
        <time>2022-10-16T14:56:57.000Z</time>
      </trkpt>
      <trkpt lat="45.10749" lon="5.28833">
        <ele>209</ele>
        <time>2022-10-16T14:56:58.000Z</time>
      </trkpt>
      <trkpt lat="45.1075" lon="5.28839">
        <ele>209</ele>
        <time>2022-10-16T14:56:59.000Z</time>
      </trkpt>
      <trkpt lat="45.1075" lon="5.28844">
        <ele>209</ele>
        <time>2022-10-16T14:57:00.000Z</time>
      </trkpt>
      <trkpt lat="45.1075" lon="5.28849">
        <ele>209</ele>
        <time>2022-10-16T14:57:01.000Z</time>
      </trkpt>
      <trkpt lat="45.10751" lon="5.28855">
        <ele>209</ele>
        <time>2022-10-16T14:57:02.000Z</time>
      </trkpt>
      <trkpt lat="45.10751" lon="5.2886">
        <ele>209</ele>
        <time>2022-10-16T14:57:03.000Z</time>
      </trkpt>
      <trkpt lat="45.10752" lon="5.28865">
        <ele>209</ele>
        <time>2022-10-16T14:57:04.000Z</time>
      </trkpt>
      <trkpt lat="45.10752" lon="5.28869">
        <ele>209</ele>
        <time>2022-10-16T14:57:05.000Z</time>
      </trkpt>
      <trkpt lat="45.10752" lon="5.28874">
        <ele>209</ele>
        <time>2022-10-16T14:57:06.000Z</time>
      </trkpt>
      <trkpt lat="45.10752" lon="5.28879">
        <ele>209</ele>
        <time>2022-10-16T14:57:07.000Z</time>
      </trkpt>
      <trkpt lat="45.10752" lon="5.28885">
        <ele>209</ele>
        <time>2022-10-16T14:57:08.000Z</time>
      </trkpt>
      <trkpt lat="45.10753" lon="5.2889">
        <ele>209</ele>
        <time>2022-10-16T14:57:09.000Z</time>
      </trkpt>
      <trkpt lat="45.10753" lon="5.28896">
        <ele>209</ele>
        <time>2022-10-16T14:57:10.000Z</time>
      </trkpt>
      <trkpt lat="45.10754" lon="5.28902">
        <ele>209</ele>
        <time>2022-10-16T14:57:11.000Z</time>
      </trkpt>
      <trkpt lat="45.10755" lon="5.28907">
        <ele>209</ele>
        <time>2022-10-16T14:57:12.000Z</time>
      </trkpt>
      <trkpt lat="45.10755" lon="5.28913">
        <ele>209</ele>
        <time>2022-10-16T14:57:13.000Z</time>
      </trkpt>
      <trkpt lat="45.10756" lon="5.28919">
        <ele>209.1</ele>
        <time>2022-10-16T14:57:14.000Z</time>
      </trkpt>
      <trkpt lat="45.10756" lon="5.28925">
        <ele>209.2</ele>
        <time>2022-10-16T14:57:15.000Z</time>
      </trkpt>
      <trkpt lat="45.10757" lon="5.28931">
        <ele>209.4</ele>
        <time>2022-10-16T14:57:16.000Z</time>
      </trkpt>
      <trkpt lat="45.10757" lon="5.28937">
        <ele>209.5</ele>
        <time>2022-10-16T14:57:17.000Z</time>
      </trkpt>
      <trkpt lat="45.10757" lon="5.28942">
        <ele>209.7</ele>
        <time>2022-10-16T14:57:18.000Z</time>
      </trkpt>
      <trkpt lat="45.10758" lon="5.28947">
        <ele>209.6</ele>
        <time>2022-10-16T14:57:19.000Z</time>
      </trkpt>
      <trkpt lat="45.1076" lon="5.28952">
        <ele>209.5</ele>
        <time>2022-10-16T14:57:20.000Z</time>
      </trkpt>
      <trkpt lat="45.10761" lon="5.28957">
        <ele>209.3</ele>
        <time>2022-10-16T14:57:21.000Z</time>
      </trkpt>
      <trkpt lat="45.10762" lon="5.28962">
        <ele>209.2</ele>
        <time>2022-10-16T14:57:22.000Z</time>
      </trkpt>
      <trkpt lat="45.10763" lon="5.28966">
        <ele>209.1</ele>
        <time>2022-10-16T14:57:23.000Z</time>
      </trkpt>
      <trkpt lat="45.10763" lon="5.28971">
        <ele>209</ele>
        <time>2022-10-16T14:57:24.000Z</time>
      </trkpt>
      <trkpt lat="45.10764" lon="5.28975">
        <ele>209</ele>
        <time>2022-10-16T14:57:25.000Z</time>
      </trkpt>
      <trkpt lat="45.10764" lon="5.2898">
        <ele>209</ele>
        <time>2022-10-16T14:57:26.000Z</time>
      </trkpt>
      <trkpt lat="45.10765" lon="5.28985">
        <ele>209</ele>
        <time>2022-10-16T14:57:27.000Z</time>
      </trkpt>
      <trkpt lat="45.10766" lon="5.2899">
        <ele>209</ele>
        <time>2022-10-16T14:57:28.000Z</time>
      </trkpt>
      <trkpt lat="45.10766" lon="5.28996">
        <ele>209</ele>
        <time>2022-10-16T14:57:29.000Z</time>
      </trkpt>
      <trkpt lat="45.10767" lon="5.29002">
        <ele>209</ele>
        <time>2022-10-16T14:57:30.000Z</time>
      </trkpt>
      <trkpt lat="45.10767" lon="5.29008">
        <ele>209</ele>
        <time>2022-10-16T14:57:31.000Z</time>
      </trkpt>
      <trkpt lat="45.10767" lon="5.29014">
        <ele>209</ele>
        <time>2022-10-16T14:57:32.000Z</time>
      </trkpt>
      <trkpt lat="45.10768" lon="5.2902">
        <ele>209</ele>
        <time>2022-10-16T14:57:33.000Z</time>
      </trkpt>
      <trkpt lat="45.10768" lon="5.29027">
        <ele>209</ele>
        <time>2022-10-16T14:57:34.000Z</time>
      </trkpt>
      <trkpt lat="45.10768" lon="5.29033">
        <ele>209.2</ele>
        <time>2022-10-16T14:57:35.000Z</time>
      </trkpt>
      <trkpt lat="45.10769" lon="5.29039">
        <ele>209.4</ele>
        <time>2022-10-16T14:57:36.000Z</time>
      </trkpt>
      <trkpt lat="45.10769" lon="5.29045">
        <ele>209.6</ele>
        <time>2022-10-16T14:57:37.000Z</time>
      </trkpt>
      <trkpt lat="45.1077" lon="5.29051">
        <ele>209.8</ele>
        <time>2022-10-16T14:57:38.000Z</time>
      </trkpt>
      <trkpt lat="45.1077" lon="5.29057">
        <ele>210</ele>
        <time>2022-10-16T14:57:39.000Z</time>
      </trkpt>
      <trkpt lat="45.10771" lon="5.29063">
        <ele>210.1</ele>
        <time>2022-10-16T14:57:40.000Z</time>
      </trkpt>
      <trkpt lat="45.10771" lon="5.29068">
        <ele>210.1</ele>
        <time>2022-10-16T14:57:41.000Z</time>
      </trkpt>
      <trkpt lat="45.10772" lon="5.29074">
        <ele>210.1</ele>
        <time>2022-10-16T14:57:42.000Z</time>
      </trkpt>
      <trkpt lat="45.10772" lon="5.29079">
        <ele>210.2</ele>
        <time>2022-10-16T14:57:43.000Z</time>
      </trkpt>
      <trkpt lat="45.10772" lon="5.29085">
        <ele>210.3</ele>
        <time>2022-10-16T14:57:44.000Z</time>
      </trkpt>
      <trkpt lat="45.10773" lon="5.2909">
        <ele>210.4</ele>
        <time>2022-10-16T14:57:45.000Z</time>
      </trkpt>
      <trkpt lat="45.10773" lon="5.29095">
        <ele>210.6</ele>
        <time>2022-10-16T14:57:46.000Z</time>
      </trkpt>
      <trkpt lat="45.10774" lon="5.291">
        <ele>210.8</ele>
        <time>2022-10-16T14:57:47.000Z</time>
      </trkpt>
      <trkpt lat="45.10774" lon="5.29106">
        <ele>210.9</ele>
        <time>2022-10-16T14:57:48.000Z</time>
      </trkpt>
      <trkpt lat="45.10774" lon="5.29111">
        <ele>211.1</ele>
        <time>2022-10-16T14:57:49.000Z</time>
      </trkpt>
      <trkpt lat="45.10775" lon="5.29116">
        <ele>211.1</ele>
        <time>2022-10-16T14:57:50.000Z</time>
      </trkpt>
      <trkpt lat="45.10775" lon="5.29121">
        <ele>211.1</ele>
        <time>2022-10-16T14:57:51.000Z</time>
      </trkpt>
      <trkpt lat="45.10775" lon="5.29126">
        <ele>211.1</ele>
        <time>2022-10-16T14:57:52.000Z</time>
      </trkpt>
      <trkpt lat="45.10775" lon="5.29131">
        <ele>211.1</ele>
        <time>2022-10-16T14:57:53.000Z</time>
      </trkpt>
      <trkpt lat="45.10776" lon="5.29137">
        <ele>211.1</ele>
        <time>2022-10-16T14:57:54.000Z</time>
      </trkpt>
      <trkpt lat="45.10776" lon="5.29142">
        <ele>211.1</ele>
        <time>2022-10-16T14:57:55.000Z</time>
      </trkpt>
      <trkpt lat="45.10777" lon="5.29148">
        <ele>211</ele>
        <time>2022-10-16T14:57:56.000Z</time>
      </trkpt>
      <trkpt lat="45.10777" lon="5.29153">
        <ele>211</ele>
        <time>2022-10-16T14:57:57.000Z</time>
      </trkpt>
      <trkpt lat="45.10777" lon="5.29159">
        <ele>211</ele>
        <time>2022-10-16T14:57:58.000Z</time>
      </trkpt>
      <trkpt lat="45.10778" lon="5.29164">
        <ele>211</ele>
        <time>2022-10-16T14:57:59.000Z</time>
      </trkpt>
      <trkpt lat="45.10778" lon="5.2917">
        <ele>211</ele>
        <time>2022-10-16T14:58:00.000Z</time>
      </trkpt>
      <trkpt lat="45.10778" lon="5.29175">
        <ele>211</ele>
        <time>2022-10-16T14:58:01.000Z</time>
      </trkpt>
      <trkpt lat="45.10779" lon="5.29181">
        <ele>211</ele>
        <time>2022-10-16T14:58:02.000Z</time>
      </trkpt>
      <trkpt lat="45.10779" lon="5.29186">
        <ele>211</ele>
        <time>2022-10-16T14:58:03.000Z</time>
      </trkpt>
      <trkpt lat="45.1078" lon="5.29191">
        <ele>211</ele>
        <time>2022-10-16T14:58:04.000Z</time>
      </trkpt>
      <trkpt lat="45.1078" lon="5.29196">
        <ele>211.1</ele>
        <time>2022-10-16T14:58:05.000Z</time>
      </trkpt>
      <trkpt lat="45.10781" lon="5.29201">
        <ele>211.2</ele>
        <time>2022-10-16T14:58:06.000Z</time>
      </trkpt>
      <trkpt lat="45.10781" lon="5.29206">
        <ele>211.3</ele>
        <time>2022-10-16T14:58:07.000Z</time>
      </trkpt>
      <trkpt lat="45.10782" lon="5.2921">
        <ele>211.5</ele>
        <time>2022-10-16T14:58:08.000Z</time>
      </trkpt>
      <trkpt lat="45.10783" lon="5.29215">
        <ele>211.6</ele>
        <time>2022-10-16T14:58:09.000Z</time>
      </trkpt>
      <trkpt lat="45.10783" lon="5.29219">
        <ele>211.7</ele>
        <time>2022-10-16T14:58:10.000Z</time>
      </trkpt>
      <trkpt lat="45.10784" lon="5.29224">
        <ele>211.8</ele>
        <time>2022-10-16T14:58:11.000Z</time>
      </trkpt>
      <trkpt lat="45.10784" lon="5.29229">
        <ele>211.8</ele>
        <time>2022-10-16T14:58:12.000Z</time>
      </trkpt>
      <trkpt lat="45.10785" lon="5.29234">
        <ele>211.7</ele>
        <time>2022-10-16T14:58:13.000Z</time>
      </trkpt>
      <trkpt lat="45.10786" lon="5.29239">
        <ele>211.7</ele>
        <time>2022-10-16T14:58:14.000Z</time>
      </trkpt>
      <trkpt lat="45.10786" lon="5.29245">
        <ele>211.7</ele>
        <time>2022-10-16T14:58:15.000Z</time>
      </trkpt>
      <trkpt lat="45.10787" lon="5.29251">
        <ele>211.7</ele>
        <time>2022-10-16T14:58:16.000Z</time>
      </trkpt>
      <trkpt lat="45.10788" lon="5.29257">
        <ele>211.6</ele>
        <time>2022-10-16T14:58:17.000Z</time>
      </trkpt>
      <trkpt lat="45.10789" lon="5.29263">
        <ele>211.6</ele>
        <time>2022-10-16T14:58:18.000Z</time>
      </trkpt>
      <trkpt lat="45.10789" lon="5.29268">
        <ele>211.6</ele>
        <time>2022-10-16T14:58:19.000Z</time>
      </trkpt>
      <trkpt lat="45.1079" lon="5.29274">
        <ele>211.6</ele>
        <time>2022-10-16T14:58:20.000Z</time>
      </trkpt>
      <trkpt lat="45.1079" lon="5.29279">
        <ele>211.5</ele>
        <time>2022-10-16T14:58:21.000Z</time>
      </trkpt>
      <trkpt lat="45.10791" lon="5.29285">
        <ele>211.4</ele>
        <time>2022-10-16T14:58:22.000Z</time>
      </trkpt>
      <trkpt lat="45.10791" lon="5.2929">
        <ele>211.3</ele>
        <time>2022-10-16T14:58:23.000Z</time>
      </trkpt>
      <trkpt lat="45.10791" lon="5.29294">
        <ele>211.2</ele>
        <time>2022-10-16T14:58:24.000Z</time>
      </trkpt>
      <trkpt lat="45.10792" lon="5.29299">
        <ele>211.1</ele>
        <time>2022-10-16T14:58:25.000Z</time>
      </trkpt>
      <trkpt lat="45.10792" lon="5.29303">
        <ele>211</ele>
        <time>2022-10-16T14:58:26.000Z</time>
      </trkpt>
      <trkpt lat="45.10792" lon="5.29308">
        <ele>211</ele>
        <time>2022-10-16T14:58:27.000Z</time>
      </trkpt>
      <trkpt lat="45.10792" lon="5.29313">
        <ele>211</ele>
        <time>2022-10-16T14:58:28.000Z</time>
      </trkpt>
      <trkpt lat="45.10792" lon="5.29318">
        <ele>211</ele>
        <time>2022-10-16T14:58:29.000Z</time>
      </trkpt>
      <trkpt lat="45.10793" lon="5.29324">
        <ele>211</ele>
        <time>2022-10-16T14:58:30.000Z</time>
      </trkpt>
      <trkpt lat="45.10793" lon="5.29329">
        <ele>211</ele>
        <time>2022-10-16T14:58:31.000Z</time>
      </trkpt>
      <trkpt lat="45.10794" lon="5.29335">
        <ele>211</ele>
        <time>2022-10-16T14:58:32.000Z</time>
      </trkpt>
      <trkpt lat="45.10794" lon="5.2934">
        <ele>211</ele>
        <time>2022-10-16T14:58:33.000Z</time>
      </trkpt>
      <trkpt lat="45.10795" lon="5.29346">
        <ele>211</ele>
        <time>2022-10-16T14:58:34.000Z</time>
      </trkpt>
      <trkpt lat="45.10795" lon="5.29351">
        <ele>211</ele>
        <time>2022-10-16T14:58:35.000Z</time>
      </trkpt>
      <trkpt lat="45.10795" lon="5.29356">
        <ele>211</ele>
        <time>2022-10-16T14:58:36.000Z</time>
      </trkpt>
      <trkpt lat="45.10795" lon="5.29361">
        <ele>211</ele>
        <time>2022-10-16T14:58:37.000Z</time>
      </trkpt>
      <trkpt lat="45.10796" lon="5.29366">
        <ele>211</ele>
        <time>2022-10-16T14:58:38.000Z</time>
      </trkpt>
      <trkpt lat="45.10796" lon="5.29371">
        <ele>211</ele>
        <time>2022-10-16T14:58:39.000Z</time>
      </trkpt>
      <trkpt lat="45.10796" lon="5.29377">
        <ele>211</ele>
        <time>2022-10-16T14:58:40.000Z</time>
      </trkpt>
      <trkpt lat="45.10797" lon="5.29382">
        <ele>211</ele>
        <time>2022-10-16T14:58:41.000Z</time>
      </trkpt>
      <trkpt lat="45.10797" lon="5.29388">
        <ele>211</ele>
        <time>2022-10-16T14:58:42.000Z</time>
      </trkpt>
      <trkpt lat="45.10797" lon="5.29394">
        <ele>211.1</ele>
        <time>2022-10-16T14:58:43.000Z</time>
      </trkpt>
      <trkpt lat="45.10798" lon="5.294">
        <ele>211.3</ele>
        <time>2022-10-16T14:58:44.000Z</time>
      </trkpt>
      <trkpt lat="45.10798" lon="5.29406">
        <ele>211.4</ele>
        <time>2022-10-16T14:58:45.000Z</time>
      </trkpt>
      <trkpt lat="45.10798" lon="5.29412">
        <ele>211.6</ele>
        <time>2022-10-16T14:58:46.000Z</time>
      </trkpt>
      <trkpt lat="45.10798" lon="5.29417">
        <ele>211.7</ele>
        <time>2022-10-16T14:58:47.000Z</time>
      </trkpt>
      <trkpt lat="45.10798" lon="5.29423">
        <ele>211.6</ele>
        <time>2022-10-16T14:58:48.000Z</time>
      </trkpt>
      <trkpt lat="45.10799" lon="5.29428">
        <ele>211.4</ele>
        <time>2022-10-16T14:58:49.000Z</time>
      </trkpt>
      <trkpt lat="45.10799" lon="5.29434">
        <ele>211.3</ele>
        <time>2022-10-16T14:58:50.000Z</time>
      </trkpt>
      <trkpt lat="45.108" lon="5.29439">
        <ele>211.2</ele>
        <time>2022-10-16T14:58:51.000Z</time>
      </trkpt>
      <trkpt lat="45.10801" lon="5.29444">
        <ele>211</ele>
        <time>2022-10-16T14:58:52.000Z</time>
      </trkpt>
      <trkpt lat="45.10801" lon="5.29449">
        <ele>211</ele>
        <time>2022-10-16T14:58:53.000Z</time>
      </trkpt>
      <trkpt lat="45.10802" lon="5.29454">
        <ele>211</ele>
        <time>2022-10-16T14:58:54.000Z</time>
      </trkpt>
      <trkpt lat="45.10803" lon="5.2946">
        <ele>211</ele>
        <time>2022-10-16T14:58:55.000Z</time>
      </trkpt>
      <trkpt lat="45.10803" lon="5.29466">
        <ele>211</ele>
        <time>2022-10-16T14:58:56.000Z</time>
      </trkpt>
      <trkpt lat="45.10804" lon="5.29472">
        <ele>211</ele>
        <time>2022-10-16T14:58:57.000Z</time>
      </trkpt>
      <trkpt lat="45.10804" lon="5.29479">
        <ele>211</ele>
        <time>2022-10-16T14:58:58.000Z</time>
      </trkpt>
      <trkpt lat="45.10805" lon="5.29485">
        <ele>211</ele>
        <time>2022-10-16T14:58:59.000Z</time>
      </trkpt>
      <trkpt lat="45.10805" lon="5.29492">
        <ele>211</ele>
        <time>2022-10-16T14:59:00.000Z</time>
      </trkpt>
      <trkpt lat="45.10805" lon="5.29498">
        <ele>211</ele>
        <time>2022-10-16T14:59:01.000Z</time>
      </trkpt>
      <trkpt lat="45.10806" lon="5.29503">
        <ele>211</ele>
        <time>2022-10-16T14:59:02.000Z</time>
      </trkpt>
      <trkpt lat="45.10806" lon="5.29509">
        <ele>211</ele>
        <time>2022-10-16T14:59:03.000Z</time>
      </trkpt>
      <trkpt lat="45.10806" lon="5.29516">
        <ele>211</ele>
        <time>2022-10-16T14:59:04.000Z</time>
      </trkpt>
      <trkpt lat="45.10807" lon="5.29522">
        <ele>211</ele>
        <time>2022-10-16T14:59:05.000Z</time>
      </trkpt>
      <trkpt lat="45.10808" lon="5.29529">
        <ele>211</ele>
        <time>2022-10-16T14:59:06.000Z</time>
      </trkpt>
      <trkpt lat="45.10808" lon="5.29534">
        <ele>211</ele>
        <time>2022-10-16T14:59:07.000Z</time>
      </trkpt>
      <trkpt lat="45.10809" lon="5.2954">
        <ele>211</ele>
        <time>2022-10-16T14:59:08.000Z</time>
      </trkpt>
      <trkpt lat="45.1081" lon="5.29546">
        <ele>211</ele>
        <time>2022-10-16T14:59:09.000Z</time>
      </trkpt>
      <trkpt lat="45.10811" lon="5.29553">
        <ele>211</ele>
        <time>2022-10-16T14:59:10.000Z</time>
      </trkpt>
      <trkpt lat="45.10811" lon="5.2956">
        <ele>211</ele>
        <time>2022-10-16T14:59:11.000Z</time>
      </trkpt>
      <trkpt lat="45.10812" lon="5.29568">
        <ele>211</ele>
        <time>2022-10-16T14:59:12.000Z</time>
      </trkpt>
      <trkpt lat="45.10812" lon="5.29576">
        <ele>211</ele>
        <time>2022-10-16T14:59:13.000Z</time>
      </trkpt>
      <trkpt lat="45.10812" lon="5.29583">
        <ele>211</ele>
        <time>2022-10-16T14:59:14.000Z</time>
      </trkpt>
      <trkpt lat="45.10813" lon="5.2959">
        <ele>211</ele>
        <time>2022-10-16T14:59:15.000Z</time>
      </trkpt>
      <trkpt lat="45.10813" lon="5.29597">
        <ele>211</ele>
        <time>2022-10-16T14:59:16.000Z</time>
      </trkpt>
      <trkpt lat="45.10814" lon="5.29603">
        <ele>211</ele>
        <time>2022-10-16T14:59:17.000Z</time>
      </trkpt>
      <trkpt lat="45.10815" lon="5.2961">
        <ele>211</ele>
        <time>2022-10-16T14:59:18.000Z</time>
      </trkpt>
      <trkpt lat="45.10815" lon="5.29616">
        <ele>211</ele>
        <time>2022-10-16T14:59:19.000Z</time>
      </trkpt>
      <trkpt lat="45.10816" lon="5.29622">
        <ele>211</ele>
        <time>2022-10-16T14:59:20.000Z</time>
      </trkpt>
      <trkpt lat="45.10816" lon="5.29628">
        <ele>211</ele>
        <time>2022-10-16T14:59:21.000Z</time>
      </trkpt>
      <trkpt lat="45.10816" lon="5.29634">
        <ele>211</ele>
        <time>2022-10-16T14:59:22.000Z</time>
      </trkpt>
      <trkpt lat="45.10816" lon="5.29639">
        <ele>211</ele>
        <time>2022-10-16T14:59:23.000Z</time>
      </trkpt>
      <trkpt lat="45.10817" lon="5.29644">
        <ele>211</ele>
        <time>2022-10-16T14:59:24.000Z</time>
      </trkpt>
      <trkpt lat="45.10817" lon="5.2965">
        <ele>211</ele>
        <time>2022-10-16T14:59:25.000Z</time>
      </trkpt>
      <trkpt lat="45.10818" lon="5.29655">
        <ele>211</ele>
        <time>2022-10-16T14:59:26.000Z</time>
      </trkpt>
      <trkpt lat="45.10818" lon="5.2966">
        <ele>211</ele>
        <time>2022-10-16T14:59:27.000Z</time>
      </trkpt>
      <trkpt lat="45.10819" lon="5.29666">
        <ele>211</ele>
        <time>2022-10-16T14:59:28.000Z</time>
      </trkpt>
      <trkpt lat="45.10819" lon="5.29671">
        <ele>211</ele>
        <time>2022-10-16T14:59:29.000Z</time>
      </trkpt>
      <trkpt lat="45.1082" lon="5.29675">
        <ele>211</ele>
        <time>2022-10-16T14:59:30.000Z</time>
      </trkpt>
      <trkpt lat="45.1082" lon="5.2968">
        <ele>211</ele>
        <time>2022-10-16T14:59:31.000Z</time>
      </trkpt>
      <trkpt lat="45.10821" lon="5.29686">
        <ele>211</ele>
        <time>2022-10-16T14:59:32.000Z</time>
      </trkpt>
      <trkpt lat="45.10821" lon="5.29692">
        <ele>211</ele>
        <time>2022-10-16T14:59:33.000Z</time>
      </trkpt>
      <trkpt lat="45.10822" lon="5.29697">
        <ele>211</ele>
        <time>2022-10-16T14:59:34.000Z</time>
      </trkpt>
      <trkpt lat="45.10823" lon="5.29704">
        <ele>211</ele>
        <time>2022-10-16T14:59:35.000Z</time>
      </trkpt>
      <trkpt lat="45.10823" lon="5.29711">
        <ele>211</ele>
        <time>2022-10-16T14:59:36.000Z</time>
      </trkpt>
      <trkpt lat="45.10824" lon="5.29718">
        <ele>211</ele>
        <time>2022-10-16T14:59:37.000Z</time>
      </trkpt>
      <trkpt lat="45.10824" lon="5.29724">
        <ele>211</ele>
        <time>2022-10-16T14:59:38.000Z</time>
      </trkpt>
      <trkpt lat="45.10825" lon="5.2973">
        <ele>211</ele>
        <time>2022-10-16T14:59:39.000Z</time>
      </trkpt>
      <trkpt lat="45.10825" lon="5.29736">
        <ele>211</ele>
        <time>2022-10-16T14:59:40.000Z</time>
      </trkpt>
      <trkpt lat="45.10825" lon="5.29742">
        <ele>211</ele>
        <time>2022-10-16T14:59:41.000Z</time>
      </trkpt>
      <trkpt lat="45.10825" lon="5.29748">
        <ele>211</ele>
        <time>2022-10-16T14:59:42.000Z</time>
      </trkpt>
      <trkpt lat="45.10826" lon="5.29753">
        <ele>211</ele>
        <time>2022-10-16T14:59:43.000Z</time>
      </trkpt>
      <trkpt lat="45.10826" lon="5.29758">
        <ele>211</ele>
        <time>2022-10-16T14:59:44.000Z</time>
      </trkpt>
      <trkpt lat="45.10826" lon="5.29763">
        <ele>211</ele>
        <time>2022-10-16T14:59:45.000Z</time>
      </trkpt>
      <trkpt lat="45.10826" lon="5.29768">
        <ele>211</ele>
        <time>2022-10-16T14:59:46.000Z</time>
      </trkpt>
      <trkpt lat="45.10826" lon="5.29773">
        <ele>211</ele>
        <time>2022-10-16T14:59:47.000Z</time>
      </trkpt>
      <trkpt lat="45.10827" lon="5.29777">
        <ele>211</ele>
        <time>2022-10-16T14:59:48.000Z</time>
      </trkpt>
      <trkpt lat="45.10827" lon="5.29781">
        <ele>211</ele>
        <time>2022-10-16T14:59:49.000Z</time>
      </trkpt>
      <trkpt lat="45.10828" lon="5.29786">
        <ele>211</ele>
        <time>2022-10-16T14:59:50.000Z</time>
      </trkpt>
      <trkpt lat="45.10828" lon="5.29791">
        <ele>211</ele>
        <time>2022-10-16T14:59:51.000Z</time>
      </trkpt>
      <trkpt lat="45.10829" lon="5.29796">
        <ele>211</ele>
        <time>2022-10-16T14:59:52.000Z</time>
      </trkpt>
      <trkpt lat="45.10829" lon="5.29802">
        <ele>211</ele>
        <time>2022-10-16T14:59:53.000Z</time>
      </trkpt>
      <trkpt lat="45.10829" lon="5.29807">
        <ele>211</ele>
        <time>2022-10-16T14:59:54.000Z</time>
      </trkpt>
      <trkpt lat="45.1083" lon="5.29813">
        <ele>211</ele>
        <time>2022-10-16T14:59:55.000Z</time>
      </trkpt>
      <trkpt lat="45.1083" lon="5.29819">
        <ele>211</ele>
        <time>2022-10-16T14:59:56.000Z</time>
      </trkpt>
      <trkpt lat="45.10831" lon="5.29824">
        <ele>211</ele>
        <time>2022-10-16T14:59:57.000Z</time>
      </trkpt>
      <trkpt lat="45.10831" lon="5.29829">
        <ele>211</ele>
        <time>2022-10-16T14:59:58.000Z</time>
      </trkpt>
      <trkpt lat="45.10832" lon="5.29835">
        <ele>211</ele>
        <time>2022-10-16T14:59:59.000Z</time>
      </trkpt>
      <trkpt lat="45.10832" lon="5.2984">
        <ele>211</ele>
        <time>2022-10-16T15:00:00.000Z</time>
      </trkpt>
      <trkpt lat="45.10832" lon="5.29846">
        <ele>211</ele>
        <time>2022-10-16T15:00:01.000Z</time>
      </trkpt>
      <trkpt lat="45.10832" lon="5.29852">
        <ele>211</ele>
        <time>2022-10-16T15:00:02.000Z</time>
      </trkpt>
      <trkpt lat="45.10833" lon="5.29858">
        <ele>211</ele>
        <time>2022-10-16T15:00:03.000Z</time>
      </trkpt>
      <trkpt lat="45.10833" lon="5.29864">
        <ele>211</ele>
        <time>2022-10-16T15:00:04.000Z</time>
      </trkpt>
      <trkpt lat="45.10834" lon="5.2987">
        <ele>211</ele>
        <time>2022-10-16T15:00:05.000Z</time>
      </trkpt>
      <trkpt lat="45.10835" lon="5.29877">
        <ele>211</ele>
        <time>2022-10-16T15:00:06.000Z</time>
      </trkpt>
      <trkpt lat="45.10836" lon="5.29884">
        <ele>211</ele>
        <time>2022-10-16T15:00:07.000Z</time>
      </trkpt>
      <trkpt lat="45.10836" lon="5.29891">
        <ele>211</ele>
        <time>2022-10-16T15:00:08.000Z</time>
      </trkpt>
      <trkpt lat="45.10837" lon="5.29898">
        <ele>211</ele>
        <time>2022-10-16T15:00:09.000Z</time>
      </trkpt>
      <trkpt lat="45.10837" lon="5.29905">
        <ele>211</ele>
        <time>2022-10-16T15:00:10.000Z</time>
      </trkpt>
      <trkpt lat="45.10838" lon="5.29912">
        <ele>211</ele>
        <time>2022-10-16T15:00:11.000Z</time>
      </trkpt>
      <trkpt lat="45.10838" lon="5.29919">
        <ele>211.1</ele>
        <time>2022-10-16T15:00:12.000Z</time>
      </trkpt>
      <trkpt lat="45.10838" lon="5.29926">
        <ele>211.3</ele>
        <time>2022-10-16T15:00:13.000Z</time>
      </trkpt>
      <trkpt lat="45.10839" lon="5.29933">
        <ele>211.6</ele>
        <time>2022-10-16T15:00:14.000Z</time>
      </trkpt>
      <trkpt lat="45.10839" lon="5.2994">
        <ele>211.8</ele>
        <time>2022-10-16T15:00:15.000Z</time>
      </trkpt>
      <trkpt lat="45.1084" lon="5.29946">
        <ele>211.9</ele>
        <time>2022-10-16T15:00:16.000Z</time>
      </trkpt>
      <trkpt lat="45.10841" lon="5.29953">
        <ele>211.7</ele>
        <time>2022-10-16T15:00:17.000Z</time>
      </trkpt>
      <trkpt lat="45.10842" lon="5.2996">
        <ele>211.4</ele>
        <time>2022-10-16T15:00:18.000Z</time>
      </trkpt>
      <trkpt lat="45.10842" lon="5.29967">
        <ele>211.2</ele>
        <time>2022-10-16T15:00:19.000Z</time>
      </trkpt>
      <trkpt lat="45.10843" lon="5.29973">
        <ele>211</ele>
        <time>2022-10-16T15:00:20.000Z</time>
      </trkpt>
      <trkpt lat="45.10844" lon="5.2998">
        <ele>211</ele>
        <time>2022-10-16T15:00:21.000Z</time>
      </trkpt>
      <trkpt lat="45.10844" lon="5.29986">
        <ele>211</ele>
        <time>2022-10-16T15:00:22.000Z</time>
      </trkpt>
      <trkpt lat="45.10845" lon="5.29992">
        <ele>211</ele>
        <time>2022-10-16T15:00:23.000Z</time>
      </trkpt>
      <trkpt lat="45.10846" lon="5.29999">
        <ele>211</ele>
        <time>2022-10-16T15:00:24.000Z</time>
      </trkpt>
      <trkpt lat="45.10846" lon="5.30005">
        <ele>211</ele>
        <time>2022-10-16T15:00:25.000Z</time>
      </trkpt>
      <trkpt lat="45.10846" lon="5.30011">
        <ele>211</ele>
        <time>2022-10-16T15:00:26.000Z</time>
      </trkpt>
      <trkpt lat="45.10847" lon="5.30018">
        <ele>211</ele>
        <time>2022-10-16T15:00:27.000Z</time>
      </trkpt>
      <trkpt lat="45.10847" lon="5.30024">
        <ele>211</ele>
        <time>2022-10-16T15:00:28.000Z</time>
      </trkpt>
      <trkpt lat="45.10848" lon="5.30029">
        <ele>211</ele>
        <time>2022-10-16T15:00:29.000Z</time>
      </trkpt>
      <trkpt lat="45.10848" lon="5.30035">
        <ele>211</ele>
        <time>2022-10-16T15:00:30.000Z</time>
      </trkpt>
      <trkpt lat="45.10849" lon="5.30041">
        <ele>211</ele>
        <time>2022-10-16T15:00:31.000Z</time>
      </trkpt>
      <trkpt lat="45.10849" lon="5.30046">
        <ele>211</ele>
        <time>2022-10-16T15:00:32.000Z</time>
      </trkpt>
      <trkpt lat="45.1085" lon="5.30052">
        <ele>211</ele>
        <time>2022-10-16T15:00:33.000Z</time>
      </trkpt>
      <trkpt lat="45.1085" lon="5.30057">
        <ele>211</ele>
        <time>2022-10-16T15:00:34.000Z</time>
      </trkpt>
      <trkpt lat="45.1085" lon="5.30063">
        <ele>211</ele>
        <time>2022-10-16T15:00:35.000Z</time>
      </trkpt>
      <trkpt lat="45.1085" lon="5.30068">
        <ele>211</ele>
        <time>2022-10-16T15:00:36.000Z</time>
      </trkpt>
      <trkpt lat="45.10851" lon="5.30073">
        <ele>211</ele>
        <time>2022-10-16T15:00:37.000Z</time>
      </trkpt>
      <trkpt lat="45.10851" lon="5.30077">
        <ele>211</ele>
        <time>2022-10-16T15:00:38.000Z</time>
      </trkpt>
      <trkpt lat="45.10852" lon="5.30082">
        <ele>211</ele>
        <time>2022-10-16T15:00:39.000Z</time>
      </trkpt>
      <trkpt lat="45.10853" lon="5.30086">
        <ele>211</ele>
        <time>2022-10-16T15:00:40.000Z</time>
      </trkpt>
      <trkpt lat="45.10853" lon="5.30092">
        <ele>211</ele>
        <time>2022-10-16T15:00:41.000Z</time>
      </trkpt>
      <trkpt lat="45.10853" lon="5.30098">
        <ele>211</ele>
        <time>2022-10-16T15:00:42.000Z</time>
      </trkpt>
      <trkpt lat="45.10853" lon="5.30103">
        <ele>211</ele>
        <time>2022-10-16T15:00:43.000Z</time>
      </trkpt>
      <trkpt lat="45.10853" lon="5.30109">
        <ele>211</ele>
        <time>2022-10-16T15:00:44.000Z</time>
      </trkpt>
      <trkpt lat="45.10853" lon="5.30114">
        <ele>211</ele>
        <time>2022-10-16T15:00:45.000Z</time>
      </trkpt>
      <trkpt lat="45.10854" lon="5.30119">
        <ele>211</ele>
        <time>2022-10-16T15:00:46.000Z</time>
      </trkpt>
      <trkpt lat="45.10854" lon="5.30124">
        <ele>211</ele>
        <time>2022-10-16T15:00:47.000Z</time>
      </trkpt>
      <trkpt lat="45.10855" lon="5.3013">
        <ele>211</ele>
        <time>2022-10-16T15:00:48.000Z</time>
      </trkpt>
      <trkpt lat="45.10855" lon="5.30135">
        <ele>211</ele>
        <time>2022-10-16T15:00:49.000Z</time>
      </trkpt>
      <trkpt lat="45.10855" lon="5.30141">
        <ele>211</ele>
        <time>2022-10-16T15:00:50.000Z</time>
      </trkpt>
      <trkpt lat="45.10856" lon="5.30146">
        <ele>211</ele>
        <time>2022-10-16T15:00:51.000Z</time>
      </trkpt>
      <trkpt lat="45.10856" lon="5.30151">
        <ele>211</ele>
        <time>2022-10-16T15:00:52.000Z</time>
      </trkpt>
      <trkpt lat="45.10857" lon="5.30157">
        <ele>211</ele>
        <time>2022-10-16T15:00:53.000Z</time>
      </trkpt>
      <trkpt lat="45.10857" lon="5.30162">
        <ele>211</ele>
        <time>2022-10-16T15:00:54.000Z</time>
      </trkpt>
      <trkpt lat="45.10858" lon="5.30167">
        <ele>211</ele>
        <time>2022-10-16T15:00:55.000Z</time>
      </trkpt>
      <trkpt lat="45.10858" lon="5.30172">
        <ele>211</ele>
        <time>2022-10-16T15:00:56.000Z</time>
      </trkpt>
      <trkpt lat="45.10859" lon="5.30177">
        <ele>211</ele>
        <time>2022-10-16T15:00:57.000Z</time>
      </trkpt>
      <trkpt lat="45.1086" lon="5.30181">
        <ele>211</ele>
        <time>2022-10-16T15:00:58.000Z</time>
      </trkpt>
      <trkpt lat="45.1086" lon="5.30186">
        <ele>211</ele>
        <time>2022-10-16T15:00:59.000Z</time>
      </trkpt>
      <trkpt lat="45.10861" lon="5.3019">
        <ele>211</ele>
        <time>2022-10-16T15:01:00.000Z</time>
      </trkpt>
      <trkpt lat="45.10861" lon="5.30195">
        <ele>211</ele>
        <time>2022-10-16T15:01:01.000Z</time>
      </trkpt>
      <trkpt lat="45.10862" lon="5.30199">
        <ele>211</ele>
        <time>2022-10-16T15:01:02.000Z</time>
      </trkpt>
      <trkpt lat="45.10863" lon="5.30204">
        <ele>211</ele>
        <time>2022-10-16T15:01:03.000Z</time>
      </trkpt>
      <trkpt lat="45.10863" lon="5.30208">
        <ele>211</ele>
        <time>2022-10-16T15:01:04.000Z</time>
      </trkpt>
      <trkpt lat="45.10864" lon="5.30212">
        <ele>211</ele>
        <time>2022-10-16T15:01:05.000Z</time>
      </trkpt>
      <trkpt lat="45.10864" lon="5.30216">
        <ele>211</ele>
        <time>2022-10-16T15:01:06.000Z</time>
      </trkpt>
      <trkpt lat="45.10864" lon="5.3022">
        <ele>211</ele>
        <time>2022-10-16T15:01:07.000Z</time>
      </trkpt>
      <trkpt lat="45.10864" lon="5.30225">
        <ele>211</ele>
        <time>2022-10-16T15:01:08.000Z</time>
      </trkpt>
      <trkpt lat="45.10865" lon="5.30229">
        <ele>211</ele>
        <time>2022-10-16T15:01:09.000Z</time>
      </trkpt>
      <trkpt lat="45.10866" lon="5.30234">
        <ele>210.9</ele>
        <time>2022-10-16T15:01:10.000Z</time>
      </trkpt>
      <trkpt lat="45.10866" lon="5.3024">
        <ele>210.9</ele>
        <time>2022-10-16T15:01:11.000Z</time>
      </trkpt>
      <trkpt lat="45.10867" lon="5.30245">
        <ele>210.8</ele>
        <time>2022-10-16T15:01:12.000Z</time>
      </trkpt>
      <trkpt lat="45.10868" lon="5.3025">
        <ele>210.8</ele>
        <time>2022-10-16T15:01:13.000Z</time>
      </trkpt>
      <trkpt lat="45.10868" lon="5.30256">
        <ele>210.8</ele>
        <time>2022-10-16T15:01:14.000Z</time>
      </trkpt>
      <trkpt lat="45.10868" lon="5.30262">
        <ele>210.9</ele>
        <time>2022-10-16T15:01:15.000Z</time>
      </trkpt>
      <trkpt lat="45.10868" lon="5.30266">
        <ele>210.9</ele>
        <time>2022-10-16T15:01:16.000Z</time>
      </trkpt>
      <trkpt lat="45.10869" lon="5.30271">
        <ele>210.9</ele>
        <time>2022-10-16T15:01:17.000Z</time>
      </trkpt>
      <trkpt lat="45.10869" lon="5.30276">
        <ele>211</ele>
        <time>2022-10-16T15:01:18.000Z</time>
      </trkpt>
      <trkpt lat="45.10869" lon="5.3028">
        <ele>211</ele>
        <time>2022-10-16T15:01:19.000Z</time>
      </trkpt>
      <trkpt lat="45.1087" lon="5.30284">
        <ele>211.1</ele>
        <time>2022-10-16T15:01:20.000Z</time>
      </trkpt>
      <trkpt lat="45.10871" lon="5.30288">
        <ele>211.2</ele>
        <time>2022-10-16T15:01:21.000Z</time>
      </trkpt>
      <trkpt lat="45.10871" lon="5.30292">
        <ele>211.3</ele>
        <time>2022-10-16T15:01:22.000Z</time>
      </trkpt>
      <trkpt lat="45.1087" lon="5.30298">
        <ele>211.5</ele>
        <time>2022-10-16T15:01:23.000Z</time>
      </trkpt>
      <trkpt lat="45.1087" lon="5.30303">
        <ele>211.6</ele>
        <time>2022-10-16T15:01:24.000Z</time>
      </trkpt>
      <trkpt lat="45.10871" lon="5.30308">
        <ele>211.7</ele>
        <time>2022-10-16T15:01:25.000Z</time>
      </trkpt>
      <trkpt lat="45.10872" lon="5.30314">
        <ele>211.6</ele>
        <time>2022-10-16T15:01:26.000Z</time>
      </trkpt>
      <trkpt lat="45.10873" lon="5.30319">
        <ele>211.6</ele>
        <time>2022-10-16T15:01:27.000Z</time>
      </trkpt>
      <trkpt lat="45.10874" lon="5.30325">
        <ele>211.6</ele>
        <time>2022-10-16T15:01:28.000Z</time>
      </trkpt>
      <trkpt lat="45.10874" lon="5.3033">
        <ele>211.5</ele>
        <time>2022-10-16T15:01:29.000Z</time>
      </trkpt>
      <trkpt lat="45.10875" lon="5.30335">
        <ele>211.5</ele>
        <time>2022-10-16T15:01:30.000Z</time>
      </trkpt>
      <trkpt lat="45.10875" lon="5.3034">
        <ele>211.6</ele>
        <time>2022-10-16T15:01:31.000Z</time>
      </trkpt>
      <trkpt lat="45.10875" lon="5.30345">
        <ele>211.7</ele>
        <time>2022-10-16T15:01:32.000Z</time>
      </trkpt>
      <trkpt lat="45.10875" lon="5.30349">
        <ele>211.8</ele>
        <time>2022-10-16T15:01:33.000Z</time>
      </trkpt>
      <trkpt lat="45.10875" lon="5.30354">
        <ele>211.9</ele>
        <time>2022-10-16T15:01:34.000Z</time>
      </trkpt>
      <trkpt lat="45.10876" lon="5.30358">
        <ele>211.9</ele>
        <time>2022-10-16T15:01:35.000Z</time>
      </trkpt>
      <trkpt lat="45.10876" lon="5.30363">
        <ele>212</ele>
        <time>2022-10-16T15:01:36.000Z</time>
      </trkpt>
      <trkpt lat="45.10876" lon="5.30367">
        <ele>212</ele>
        <time>2022-10-16T15:01:37.000Z</time>
      </trkpt>
      <trkpt lat="45.10877" lon="5.30372">
        <ele>212</ele>
        <time>2022-10-16T15:01:38.000Z</time>
      </trkpt>
      <trkpt lat="45.10877" lon="5.30378">
        <ele>212</ele>
        <time>2022-10-16T15:01:39.000Z</time>
      </trkpt>
      <trkpt lat="45.10877" lon="5.30383">
        <ele>212</ele>
        <time>2022-10-16T15:01:40.000Z</time>
      </trkpt>
      <trkpt lat="45.10878" lon="5.30389">
        <ele>212</ele>
        <time>2022-10-16T15:01:41.000Z</time>
      </trkpt>
      <trkpt lat="45.10878" lon="5.30395">
        <ele>212</ele>
        <time>2022-10-16T15:01:42.000Z</time>
      </trkpt>
      <trkpt lat="45.10878" lon="5.30401">
        <ele>212</ele>
        <time>2022-10-16T15:01:43.000Z</time>
      </trkpt>
      <trkpt lat="45.10879" lon="5.30407">
        <ele>212</ele>
        <time>2022-10-16T15:01:44.000Z</time>
      </trkpt>
      <trkpt lat="45.10879" lon="5.30413">
        <ele>212</ele>
        <time>2022-10-16T15:01:45.000Z</time>
      </trkpt>
      <trkpt lat="45.10879" lon="5.30419">
        <ele>212</ele>
        <time>2022-10-16T15:01:46.000Z</time>
      </trkpt>
      <trkpt lat="45.10879" lon="5.30424">
        <ele>212.1</ele>
        <time>2022-10-16T15:01:47.000Z</time>
      </trkpt>
      <trkpt lat="45.10879" lon="5.30429">
        <ele>212.2</ele>
        <time>2022-10-16T15:01:48.000Z</time>
      </trkpt>
      <trkpt lat="45.10879" lon="5.30434">
        <ele>212.2</ele>
        <time>2022-10-16T15:01:49.000Z</time>
      </trkpt>
      <trkpt lat="45.10879" lon="5.30438">
        <ele>212.3</ele>
        <time>2022-10-16T15:01:50.000Z</time>
      </trkpt>
      <trkpt lat="45.10879" lon="5.30442">
        <ele>212.3</ele>
        <time>2022-10-16T15:01:51.000Z</time>
      </trkpt>
      <trkpt lat="45.10879" lon="5.30446">
        <ele>212.3</ele>
        <time>2022-10-16T15:01:52.000Z</time>
      </trkpt>
      <trkpt lat="45.10879" lon="5.30449">
        <ele>212.3</ele>
        <time>2022-10-16T15:01:53.000Z</time>
      </trkpt>
      <trkpt lat="45.10879" lon="5.30452">
        <ele>212.3</ele>
        <time>2022-10-16T15:01:54.000Z</time>
      </trkpt>
      <trkpt lat="45.10879" lon="5.30456">
        <ele>212.3</ele>
        <time>2022-10-16T15:01:55.000Z</time>
      </trkpt>
      <trkpt lat="45.1088" lon="5.3046">
        <ele>212.3</ele>
        <time>2022-10-16T15:01:56.000Z</time>
      </trkpt>
      <trkpt lat="45.10881" lon="5.30464">
        <ele>212.3</ele>
        <time>2022-10-16T15:01:57.000Z</time>
      </trkpt>
      <trkpt lat="45.10881" lon="5.30468">
        <ele>212.3</ele>
        <time>2022-10-16T15:01:58.000Z</time>
      </trkpt>
      <trkpt lat="45.10881" lon="5.30472">
        <ele>212.3</ele>
        <time>2022-10-16T15:01:59.000Z</time>
      </trkpt>
      <trkpt lat="45.10881" lon="5.30476">
        <ele>212.4</ele>
        <time>2022-10-16T15:02:00.000Z</time>
      </trkpt>
      <trkpt lat="45.10881" lon="5.3048">
        <ele>212.6</ele>
        <time>2022-10-16T15:02:01.000Z</time>
      </trkpt>
      <trkpt lat="45.10881" lon="5.30484">
        <ele>212.7</ele>
        <time>2022-10-16T15:02:02.000Z</time>
      </trkpt>
      <trkpt lat="45.10881" lon="5.30489">
        <ele>212.9</ele>
        <time>2022-10-16T15:02:03.000Z</time>
      </trkpt>
      <trkpt lat="45.10882" lon="5.30493">
        <ele>213</ele>
        <time>2022-10-16T15:02:04.000Z</time>
      </trkpt>
      <trkpt lat="45.10882" lon="5.30498">
        <ele>213.2</ele>
        <time>2022-10-16T15:02:05.000Z</time>
      </trkpt>
      <trkpt lat="45.10883" lon="5.30502">
        <ele>213.2</ele>
        <time>2022-10-16T15:02:06.000Z</time>
      </trkpt>
      <trkpt lat="45.10883" lon="5.30507">
        <ele>213.2</ele>
        <time>2022-10-16T15:02:07.000Z</time>
      </trkpt>
      <trkpt lat="45.10884" lon="5.30512">
        <ele>213.2</ele>
        <time>2022-10-16T15:02:08.000Z</time>
      </trkpt>
      <trkpt lat="45.10884" lon="5.30517">
        <ele>213.2</ele>
        <time>2022-10-16T15:02:09.000Z</time>
      </trkpt>
      <trkpt lat="45.10884" lon="5.30522">
        <ele>213.2</ele>
        <time>2022-10-16T15:02:10.000Z</time>
      </trkpt>
      <trkpt lat="45.10885" lon="5.30527">
        <ele>213.1</ele>
        <time>2022-10-16T15:02:11.000Z</time>
      </trkpt>
      <trkpt lat="45.10886" lon="5.30532">
        <ele>213.1</ele>
        <time>2022-10-16T15:02:12.000Z</time>
      </trkpt>
      <trkpt lat="45.10887" lon="5.30537">
        <ele>213.1</ele>
        <time>2022-10-16T15:02:13.000Z</time>
      </trkpt>
      <trkpt lat="45.10887" lon="5.30543">
        <ele>213.1</ele>
        <time>2022-10-16T15:02:14.000Z</time>
      </trkpt>
      <trkpt lat="45.10888" lon="5.30548">
        <ele>213</ele>
        <time>2022-10-16T15:02:15.000Z</time>
      </trkpt>
      <trkpt lat="45.10889" lon="5.30554">
        <ele>213</ele>
        <time>2022-10-16T15:02:16.000Z</time>
      </trkpt>
      <trkpt lat="45.10889" lon="5.3056">
        <ele>213.1</ele>
        <time>2022-10-16T15:02:17.000Z</time>
      </trkpt>
      <trkpt lat="45.1089" lon="5.30566">
        <ele>213.3</ele>
        <time>2022-10-16T15:02:18.000Z</time>
      </trkpt>
      <trkpt lat="45.10891" lon="5.30572">
        <ele>213.5</ele>
        <time>2022-10-16T15:02:19.000Z</time>
      </trkpt>
      <trkpt lat="45.10891" lon="5.30577">
        <ele>213.6</ele>
        <time>2022-10-16T15:02:20.000Z</time>
      </trkpt>
      <trkpt lat="45.10892" lon="5.30582">
        <ele>213.7</ele>
        <time>2022-10-16T15:02:21.000Z</time>
      </trkpt>
      <trkpt lat="45.10892" lon="5.30587">
        <ele>213.8</ele>
        <time>2022-10-16T15:02:22.000Z</time>
      </trkpt>
      <trkpt lat="45.10892" lon="5.30592">
        <ele>213.8</ele>
        <time>2022-10-16T15:02:23.000Z</time>
      </trkpt>
      <trkpt lat="45.10892" lon="5.30597">
        <ele>213.8</ele>
        <time>2022-10-16T15:02:24.000Z</time>
      </trkpt>
      <trkpt lat="45.10894" lon="5.30602">
        <ele>213.8</ele>
        <time>2022-10-16T15:02:25.000Z</time>
      </trkpt>
      <trkpt lat="45.10896" lon="5.30606">
        <ele>213.7</ele>
        <time>2022-10-16T15:02:26.000Z</time>
      </trkpt>
      <trkpt lat="45.10899" lon="5.30611">
        <ele>213.6</ele>
        <time>2022-10-16T15:02:27.000Z</time>
      </trkpt>
      <trkpt lat="45.10902" lon="5.30616">
        <ele>213.5</ele>
        <time>2022-10-16T15:02:28.000Z</time>
      </trkpt>
      <trkpt lat="45.10905" lon="5.30622">
        <ele>213.4</ele>
        <time>2022-10-16T15:02:29.000Z</time>
      </trkpt>
      <trkpt lat="45.10909" lon="5.30628">
        <ele>213.3</ele>
        <time>2022-10-16T15:02:30.000Z</time>
      </trkpt>
      <trkpt lat="45.10913" lon="5.30634">
        <ele>213.2</ele>
        <time>2022-10-16T15:02:31.000Z</time>
      </trkpt>
      <trkpt lat="45.10917" lon="5.30639">
        <ele>213</ele>
        <time>2022-10-16T15:02:32.000Z</time>
      </trkpt>
      <trkpt lat="45.10921" lon="5.30644">
        <ele>213</ele>
        <time>2022-10-16T15:02:33.000Z</time>
      </trkpt>
      <trkpt lat="45.10926" lon="5.30649">
        <ele>213</ele>
        <time>2022-10-16T15:02:34.000Z</time>
      </trkpt>
      <trkpt lat="45.10929" lon="5.30654">
        <ele>213</ele>
        <time>2022-10-16T15:02:35.000Z</time>
      </trkpt>
      <trkpt lat="45.10933" lon="5.3066">
        <ele>213</ele>
        <time>2022-10-16T15:02:36.000Z</time>
      </trkpt>
      <trkpt lat="45.10936" lon="5.30666">
        <ele>213</ele>
        <time>2022-10-16T15:02:37.000Z</time>
      </trkpt>
      <trkpt lat="45.10939" lon="5.30671">
        <ele>213</ele>
        <time>2022-10-16T15:02:38.000Z</time>
      </trkpt>
      <trkpt lat="45.10942" lon="5.30676">
        <ele>213</ele>
        <time>2022-10-16T15:02:39.000Z</time>
      </trkpt>
      <trkpt lat="45.10945" lon="5.30679">
        <ele>213</ele>
        <time>2022-10-16T15:02:40.000Z</time>
      </trkpt>
      <trkpt lat="45.10948" lon="5.30683">
        <ele>213</ele>
        <time>2022-10-16T15:02:41.000Z</time>
      </trkpt>
      <trkpt lat="45.10951" lon="5.30688">
        <ele>212.9</ele>
        <time>2022-10-16T15:02:42.000Z</time>
      </trkpt>
      <trkpt lat="45.10953" lon="5.30692">
        <ele>213</ele>
        <time>2022-10-16T15:02:43.000Z</time>
      </trkpt>
      <trkpt lat="45.10956" lon="5.30695">
        <ele>213</ele>
        <time>2022-10-16T15:02:44.000Z</time>
      </trkpt>
      <trkpt lat="45.10958" lon="5.30699">
        <ele>213.2</ele>
        <time>2022-10-16T15:02:45.000Z</time>
      </trkpt>
      <trkpt lat="45.10961" lon="5.30702">
        <ele>213.3</ele>
        <time>2022-10-16T15:02:46.000Z</time>
      </trkpt>
      <trkpt lat="45.10963" lon="5.30706">
        <ele>213.4</ele>
        <time>2022-10-16T15:02:47.000Z</time>
      </trkpt>
      <trkpt lat="45.10964" lon="5.30709">
        <ele>213.5</ele>
        <time>2022-10-16T15:02:48.000Z</time>
      </trkpt>
      <trkpt lat="45.10966" lon="5.30712">
        <ele>213.6</ele>
        <time>2022-10-16T15:02:49.000Z</time>
      </trkpt>
      <trkpt lat="45.10968" lon="5.30715">
        <ele>213.7</ele>
        <time>2022-10-16T15:02:50.000Z</time>
      </trkpt>
      <trkpt lat="45.1097" lon="5.30717">
        <ele>213.8</ele>
        <time>2022-10-16T15:02:51.000Z</time>
      </trkpt>
      <trkpt lat="45.10971" lon="5.3072">
        <ele>213.9</ele>
        <time>2022-10-16T15:02:52.000Z</time>
      </trkpt>
      <trkpt lat="45.10973" lon="5.30723">
        <ele>214</ele>
        <time>2022-10-16T15:02:53.000Z</time>
      </trkpt>
      <trkpt lat="45.10976" lon="5.30726">
        <ele>213.9</ele>
        <time>2022-10-16T15:02:54.000Z</time>
      </trkpt>
      <trkpt lat="45.10978" lon="5.3073">
        <ele>213.8</ele>
        <time>2022-10-16T15:02:55.000Z</time>
      </trkpt>
      <trkpt lat="45.1098" lon="5.30733">
        <ele>213.7</ele>
        <time>2022-10-16T15:02:56.000Z</time>
      </trkpt>
      <trkpt lat="45.10983" lon="5.30736">
        <ele>213.6</ele>
        <time>2022-10-16T15:02:57.000Z</time>
      </trkpt>
      <trkpt lat="45.10985" lon="5.3074">
        <ele>213.6</ele>
        <time>2022-10-16T15:02:58.000Z</time>
      </trkpt>
      <trkpt lat="45.10987" lon="5.30744">
        <ele>213.5</ele>
        <time>2022-10-16T15:02:59.000Z</time>
      </trkpt>
      <trkpt lat="45.10989" lon="5.30748">
        <ele>213.4</ele>
        <time>2022-10-16T15:03:00.000Z</time>
      </trkpt>
      <trkpt lat="45.10992" lon="5.30752">
        <ele>213.3</ele>
        <time>2022-10-16T15:03:01.000Z</time>
      </trkpt>
      <trkpt lat="45.10994" lon="5.30755">
        <ele>213.4</ele>
        <time>2022-10-16T15:03:02.000Z</time>
      </trkpt>
      <trkpt lat="45.10996" lon="5.30759">
        <ele>213.4</ele>
        <time>2022-10-16T15:03:03.000Z</time>
      </trkpt>
      <trkpt lat="45.10998" lon="5.30763">
        <ele>213.5</ele>
        <time>2022-10-16T15:03:04.000Z</time>
      </trkpt>
      <trkpt lat="45.11001" lon="5.30766">
        <ele>213.6</ele>
        <time>2022-10-16T15:03:05.000Z</time>
      </trkpt>
      <trkpt lat="45.11003" lon="5.3077">
        <ele>213.7</ele>
        <time>2022-10-16T15:03:06.000Z</time>
      </trkpt>
      <trkpt lat="45.11006" lon="5.30773">
        <ele>213.8</ele>
        <time>2022-10-16T15:03:07.000Z</time>
      </trkpt>
      <trkpt lat="45.11008" lon="5.30777">
        <ele>214</ele>
        <time>2022-10-16T15:03:08.000Z</time>
      </trkpt>
      <trkpt lat="45.1101" lon="5.3078">
        <ele>214</ele>
        <time>2022-10-16T15:03:09.000Z</time>
      </trkpt>
      <trkpt lat="45.11012" lon="5.30784">
        <ele>214</ele>
        <time>2022-10-16T15:03:10.000Z</time>
      </trkpt>
      <trkpt lat="45.11014" lon="5.30787">
        <ele>214</ele>
        <time>2022-10-16T15:03:11.000Z</time>
      </trkpt>
      <trkpt lat="45.11016" lon="5.30791">
        <ele>214</ele>
        <time>2022-10-16T15:03:12.000Z</time>
      </trkpt>
      <trkpt lat="45.11018" lon="5.30795">
        <ele>214</ele>
        <time>2022-10-16T15:03:13.000Z</time>
      </trkpt>
      <trkpt lat="45.11021" lon="5.30799">
        <ele>214</ele>
        <time>2022-10-16T15:03:14.000Z</time>
      </trkpt>
      <trkpt lat="45.11023" lon="5.30803">
        <ele>214</ele>
        <time>2022-10-16T15:03:15.000Z</time>
      </trkpt>
      <trkpt lat="45.11026" lon="5.30808">
        <ele>214</ele>
        <time>2022-10-16T15:03:16.000Z</time>
      </trkpt>
      <trkpt lat="45.11028" lon="5.30812">
        <ele>214</ele>
        <time>2022-10-16T15:03:17.000Z</time>
      </trkpt>
      <trkpt lat="45.11031" lon="5.30817">
        <ele>214</ele>
        <time>2022-10-16T15:03:18.000Z</time>
      </trkpt>
      <trkpt lat="45.11033" lon="5.30821">
        <ele>214</ele>
        <time>2022-10-16T15:03:19.000Z</time>
      </trkpt>
      <trkpt lat="45.11036" lon="5.30826">
        <ele>214</ele>
        <time>2022-10-16T15:03:20.000Z</time>
      </trkpt>
      <trkpt lat="45.11039" lon="5.30831">
        <ele>214</ele>
        <time>2022-10-16T15:03:21.000Z</time>
      </trkpt>
      <trkpt lat="45.11041" lon="5.30836">
        <ele>214</ele>
        <time>2022-10-16T15:03:22.000Z</time>
      </trkpt>
      <trkpt lat="45.11042" lon="5.3084">
        <ele>214</ele>
        <time>2022-10-16T15:03:23.000Z</time>
      </trkpt>
      <trkpt lat="45.11044" lon="5.30845">
        <ele>214</ele>
        <time>2022-10-16T15:03:24.000Z</time>
      </trkpt>
      <trkpt lat="45.11045" lon="5.3085">
        <ele>214</ele>
        <time>2022-10-16T15:03:25.000Z</time>
      </trkpt>
      <trkpt lat="45.11046" lon="5.30854">
        <ele>214</ele>
        <time>2022-10-16T15:03:26.000Z</time>
      </trkpt>
      <trkpt lat="45.11047" lon="5.30859">
        <ele>214</ele>
        <time>2022-10-16T15:03:27.000Z</time>
      </trkpt>
      <trkpt lat="45.11048" lon="5.30863">
        <ele>214.1</ele>
        <time>2022-10-16T15:03:28.000Z</time>
      </trkpt>
      <trkpt lat="45.1105" lon="5.30867">
        <ele>214.2</ele>
        <time>2022-10-16T15:03:29.000Z</time>
      </trkpt>
      <trkpt lat="45.11051" lon="5.30871">
        <ele>214.3</ele>
        <time>2022-10-16T15:03:30.000Z</time>
      </trkpt>
      <trkpt lat="45.11052" lon="5.30874">
        <ele>214.5</ele>
        <time>2022-10-16T15:03:31.000Z</time>
      </trkpt>
      <trkpt lat="45.11053" lon="5.30878">
        <ele>214.6</ele>
        <time>2022-10-16T15:03:32.000Z</time>
      </trkpt>
      <trkpt lat="45.11054" lon="5.30881">
        <ele>214.7</ele>
        <time>2022-10-16T15:03:33.000Z</time>
      </trkpt>
      <trkpt lat="45.11056" lon="5.30885">
        <ele>214.8</ele>
        <time>2022-10-16T15:03:34.000Z</time>
      </trkpt>
      <trkpt lat="45.11057" lon="5.30888">
        <ele>214.9</ele>
        <time>2022-10-16T15:03:35.000Z</time>
      </trkpt>
      <trkpt lat="45.11059" lon="5.30892">
        <ele>214.9</ele>
        <time>2022-10-16T15:03:36.000Z</time>
      </trkpt>
      <trkpt lat="45.11061" lon="5.30896">
        <ele>214.8</ele>
        <time>2022-10-16T15:03:37.000Z</time>
      </trkpt>
      <trkpt lat="45.11062" lon="5.30901">
        <ele>214.8</ele>
        <time>2022-10-16T15:03:38.000Z</time>
      </trkpt>
      <trkpt lat="45.11064" lon="5.30905">
        <ele>214.7</ele>
        <time>2022-10-16T15:03:39.000Z</time>
      </trkpt>
      <trkpt lat="45.11065" lon="5.3091">
        <ele>214.6</ele>
        <time>2022-10-16T15:03:40.000Z</time>
      </trkpt>
      <trkpt lat="45.11067" lon="5.30914">
        <ele>214.6</ele>
        <time>2022-10-16T15:03:41.000Z</time>
      </trkpt>
      <trkpt lat="45.11069" lon="5.30919">
        <ele>214.6</ele>
        <time>2022-10-16T15:03:42.000Z</time>
      </trkpt>
      <trkpt lat="45.1107" lon="5.30924">
        <ele>214.6</ele>
        <time>2022-10-16T15:03:43.000Z</time>
      </trkpt>
      <trkpt lat="45.11072" lon="5.30929">
        <ele>214.7</ele>
        <time>2022-10-16T15:03:44.000Z</time>
      </trkpt>
      <trkpt lat="45.11073" lon="5.30933">
        <ele>214.7</ele>
        <time>2022-10-16T15:03:45.000Z</time>
      </trkpt>
      <trkpt lat="45.11075" lon="5.30938">
        <ele>214.8</ele>
        <time>2022-10-16T15:03:46.000Z</time>
      </trkpt>
      <trkpt lat="45.11077" lon="5.30942">
        <ele>214.9</ele>
        <time>2022-10-16T15:03:47.000Z</time>
      </trkpt>
      <trkpt lat="45.11078" lon="5.30945">
        <ele>215</ele>
        <time>2022-10-16T15:03:48.000Z</time>
      </trkpt>
      <trkpt lat="45.11079" lon="5.30949">
        <ele>215</ele>
        <time>2022-10-16T15:03:49.000Z</time>
      </trkpt>
      <trkpt lat="45.11081" lon="5.30952">
        <ele>215</ele>
        <time>2022-10-16T15:03:50.000Z</time>
      </trkpt>
      <trkpt lat="45.11082" lon="5.30956">
        <ele>215</ele>
        <time>2022-10-16T15:03:51.000Z</time>
      </trkpt>
      <trkpt lat="45.11084" lon="5.3096">
        <ele>215</ele>
        <time>2022-10-16T15:03:52.000Z</time>
      </trkpt>
      <trkpt lat="45.11085" lon="5.30964">
        <ele>214.9</ele>
        <time>2022-10-16T15:03:53.000Z</time>
      </trkpt>
      <trkpt lat="45.11087" lon="5.30968">
        <ele>214.9</ele>
        <time>2022-10-16T15:03:54.000Z</time>
      </trkpt>
      <trkpt lat="45.11088" lon="5.30973">
        <ele>214.8</ele>
        <time>2022-10-16T15:03:55.000Z</time>
      </trkpt>
      <trkpt lat="45.1109" lon="5.30978">
        <ele>214.8</ele>
        <time>2022-10-16T15:03:56.000Z</time>
      </trkpt>
      <trkpt lat="45.11091" lon="5.30983">
        <ele>214.7</ele>
        <time>2022-10-16T15:03:57.000Z</time>
      </trkpt>
      <trkpt lat="45.11093" lon="5.30988">
        <ele>214.6</ele>
        <time>2022-10-16T15:03:58.000Z</time>
      </trkpt>
      <trkpt lat="45.11095" lon="5.30993">
        <ele>214.6</ele>
        <time>2022-10-16T15:03:59.000Z</time>
      </trkpt>
      <trkpt lat="45.11097" lon="5.30998">
        <ele>214.5</ele>
        <time>2022-10-16T15:04:00.000Z</time>
      </trkpt>
      <trkpt lat="45.11098" lon="5.31003">
        <ele>214.5</ele>
        <time>2022-10-16T15:04:01.000Z</time>
      </trkpt>
      <trkpt lat="45.111" lon="5.31007">
        <ele>214.6</ele>
        <time>2022-10-16T15:04:02.000Z</time>
      </trkpt>
      <trkpt lat="45.11102" lon="5.31012">
        <ele>214.6</ele>
        <time>2022-10-16T15:04:03.000Z</time>
      </trkpt>
      <trkpt lat="45.11103" lon="5.31016">
        <ele>214.7</ele>
        <time>2022-10-16T15:04:04.000Z</time>
      </trkpt>
      <trkpt lat="45.11105" lon="5.31021">
        <ele>214.8</ele>
        <time>2022-10-16T15:04:05.000Z</time>
      </trkpt>
      <trkpt lat="45.11106" lon="5.31025">
        <ele>214.9</ele>
        <time>2022-10-16T15:04:06.000Z</time>
      </trkpt>
      <trkpt lat="45.11108" lon="5.3103">
        <ele>215</ele>
        <time>2022-10-16T15:04:07.000Z</time>
      </trkpt>
      <trkpt lat="45.11109" lon="5.31034">
        <ele>215</ele>
        <time>2022-10-16T15:04:08.000Z</time>
      </trkpt>
      <trkpt lat="45.1111" lon="5.31039">
        <ele>215</ele>
        <time>2022-10-16T15:04:09.000Z</time>
      </trkpt>
      <trkpt lat="45.11111" lon="5.31043">
        <ele>215</ele>
        <time>2022-10-16T15:04:10.000Z</time>
      </trkpt>
      <trkpt lat="45.11112" lon="5.31048">
        <ele>215</ele>
        <time>2022-10-16T15:04:11.000Z</time>
      </trkpt>
      <trkpt lat="45.11113" lon="5.31052">
        <ele>215</ele>
        <time>2022-10-16T15:04:12.000Z</time>
      </trkpt>
      <trkpt lat="45.11114" lon="5.31057">
        <ele>215</ele>
        <time>2022-10-16T15:04:13.000Z</time>
      </trkpt>
      <trkpt lat="45.11115" lon="5.31061">
        <ele>215</ele>
        <time>2022-10-16T15:04:14.000Z</time>
      </trkpt>
      <trkpt lat="45.11115" lon="5.31065">
        <ele>215</ele>
        <time>2022-10-16T15:04:15.000Z</time>
      </trkpt>
      <trkpt lat="45.11116" lon="5.3107">
        <ele>215</ele>
        <time>2022-10-16T15:04:16.000Z</time>
      </trkpt>
      <trkpt lat="45.11116" lon="5.31074">
        <ele>215</ele>
        <time>2022-10-16T15:04:17.000Z</time>
      </trkpt>
      <trkpt lat="45.11117" lon="5.31079">
        <ele>215</ele>
        <time>2022-10-16T15:04:18.000Z</time>
      </trkpt>
      <trkpt lat="45.11118" lon="5.31083">
        <ele>215</ele>
        <time>2022-10-16T15:04:19.000Z</time>
      </trkpt>
      <trkpt lat="45.11118" lon="5.31087">
        <ele>215.1</ele>
        <time>2022-10-16T15:04:20.000Z</time>
      </trkpt>
      <trkpt lat="45.11119" lon="5.31092">
        <ele>215.2</ele>
        <time>2022-10-16T15:04:21.000Z</time>
      </trkpt>
      <trkpt lat="45.1112" lon="5.31097">
        <ele>215.3</ele>
        <time>2022-10-16T15:04:22.000Z</time>
      </trkpt>
      <trkpt lat="45.11121" lon="5.31103">
        <ele>215.5</ele>
        <time>2022-10-16T15:04:23.000Z</time>
      </trkpt>
      <trkpt lat="45.11122" lon="5.31108">
        <ele>215.5</ele>
        <time>2022-10-16T15:04:24.000Z</time>
      </trkpt>
      <trkpt lat="45.11124" lon="5.31113">
        <ele>215.5</ele>
        <time>2022-10-16T15:04:25.000Z</time>
      </trkpt>
      <trkpt lat="45.11125" lon="5.31119">
        <ele>215.5</ele>
        <time>2022-10-16T15:04:26.000Z</time>
      </trkpt>
      <trkpt lat="45.11126" lon="5.31124">
        <ele>215.5</ele>
        <time>2022-10-16T15:04:27.000Z</time>
      </trkpt>
      <trkpt lat="45.11128" lon="5.31129">
        <ele>215.4</ele>
        <time>2022-10-16T15:04:28.000Z</time>
      </trkpt>
      <trkpt lat="45.11129" lon="5.31134">
        <ele>215.3</ele>
        <time>2022-10-16T15:04:29.000Z</time>
      </trkpt>
      <trkpt lat="45.11131" lon="5.31139">
        <ele>215.3</ele>
        <time>2022-10-16T15:04:30.000Z</time>
      </trkpt>
      <trkpt lat="45.11132" lon="5.31144">
        <ele>215.4</ele>
        <time>2022-10-16T15:04:31.000Z</time>
      </trkpt>
      <trkpt lat="45.11134" lon="5.31149">
        <ele>215.5</ele>
        <time>2022-10-16T15:04:32.000Z</time>
      </trkpt>
      <trkpt lat="45.11135" lon="5.31153">
        <ele>215.6</ele>
        <time>2022-10-16T15:04:33.000Z</time>
      </trkpt>
      <trkpt lat="45.11137" lon="5.31158">
        <ele>215.7</ele>
        <time>2022-10-16T15:04:34.000Z</time>
      </trkpt>
      <trkpt lat="45.11139" lon="5.31162">
        <ele>215.8</ele>
        <time>2022-10-16T15:04:35.000Z</time>
      </trkpt>
      <trkpt lat="45.1114" lon="5.31166">
        <ele>215.9</ele>
        <time>2022-10-16T15:04:36.000Z</time>
      </trkpt>
      <trkpt lat="45.11142" lon="5.31171">
        <ele>215.7</ele>
        <time>2022-10-16T15:04:37.000Z</time>
      </trkpt>
      <trkpt lat="45.11144" lon="5.31175">
        <ele>215.4</ele>
        <time>2022-10-16T15:04:38.000Z</time>
      </trkpt>
      <trkpt lat="45.11146" lon="5.3118">
        <ele>215.1</ele>
        <time>2022-10-16T15:04:39.000Z</time>
      </trkpt>
      <trkpt lat="45.11149" lon="5.31185">
        <ele>214.9</ele>
        <time>2022-10-16T15:04:40.000Z</time>
      </trkpt>
      <trkpt lat="45.11151" lon="5.31191">
        <ele>214.6</ele>
        <time>2022-10-16T15:04:41.000Z</time>
      </trkpt>
      <trkpt lat="45.11153" lon="5.31196">
        <ele>214.5</ele>
        <time>2022-10-16T15:04:42.000Z</time>
      </trkpt>
      <trkpt lat="45.11156" lon="5.31201">
        <ele>214.5</ele>
        <time>2022-10-16T15:04:43.000Z</time>
      </trkpt>
      <trkpt lat="45.11159" lon="5.31206">
        <ele>214.6</ele>
        <time>2022-10-16T15:04:44.000Z</time>
      </trkpt>
      <trkpt lat="45.11162" lon="5.31211">
        <ele>214.7</ele>
        <time>2022-10-16T15:04:45.000Z</time>
      </trkpt>
      <trkpt lat="45.11166" lon="5.31216">
        <ele>214.8</ele>
        <time>2022-10-16T15:04:46.000Z</time>
      </trkpt>
      <trkpt lat="45.11168" lon="5.31221">
        <ele>214.9</ele>
        <time>2022-10-16T15:04:47.000Z</time>
      </trkpt>
      <trkpt lat="45.11171" lon="5.31226">
        <ele>214.9</ele>
        <time>2022-10-16T15:04:48.000Z</time>
      </trkpt>
      <trkpt lat="45.11174" lon="5.31231">
        <ele>214.8</ele>
        <time>2022-10-16T15:04:49.000Z</time>
      </trkpt>
      <trkpt lat="45.11177" lon="5.31236">
        <ele>214.8</ele>
        <time>2022-10-16T15:04:50.000Z</time>
      </trkpt>
      <trkpt lat="45.1118" lon="5.31241">
        <ele>214.8</ele>
        <time>2022-10-16T15:04:51.000Z</time>
      </trkpt>
      <trkpt lat="45.11184" lon="5.31246">
        <ele>214.9</ele>
        <time>2022-10-16T15:04:52.000Z</time>
      </trkpt>
      <trkpt lat="45.11187" lon="5.31251">
        <ele>215</ele>
        <time>2022-10-16T15:04:53.000Z</time>
      </trkpt>
      <trkpt lat="45.1119" lon="5.31257">
        <ele>215</ele>
        <time>2022-10-16T15:04:54.000Z</time>
      </trkpt>
      <trkpt lat="45.11193" lon="5.31262">
        <ele>215</ele>
        <time>2022-10-16T15:04:55.000Z</time>
      </trkpt>
      <trkpt lat="45.11197" lon="5.31268">
        <ele>214.9</ele>
        <time>2022-10-16T15:04:56.000Z</time>
      </trkpt>
      <trkpt lat="45.112" lon="5.31274">
        <ele>214.8</ele>
        <time>2022-10-16T15:04:57.000Z</time>
      </trkpt>
      <trkpt lat="45.11203" lon="5.31279">
        <ele>214.7</ele>
        <time>2022-10-16T15:04:58.000Z</time>
      </trkpt>
      <trkpt lat="45.11207" lon="5.31285">
        <ele>214.7</ele>
        <time>2022-10-16T15:04:59.000Z</time>
      </trkpt>
      <trkpt lat="45.1121" lon="5.31291">
        <ele>214.7</ele>
        <time>2022-10-16T15:05:00.000Z</time>
      </trkpt>
      <trkpt lat="45.11213" lon="5.31297">
        <ele>214.8</ele>
        <time>2022-10-16T15:05:01.000Z</time>
      </trkpt>
      <trkpt lat="45.11216" lon="5.31303">
        <ele>214.9</ele>
        <time>2022-10-16T15:05:02.000Z</time>
      </trkpt>
      <trkpt lat="45.11219" lon="5.31309">
        <ele>215</ele>
        <time>2022-10-16T15:05:03.000Z</time>
      </trkpt>
      <trkpt lat="45.11223" lon="5.31314">
        <ele>215</ele>
        <time>2022-10-16T15:05:04.000Z</time>
      </trkpt>
      <trkpt lat="45.11226" lon="5.31319">
        <ele>214.9</ele>
        <time>2022-10-16T15:05:05.000Z</time>
      </trkpt>
      <trkpt lat="45.1123" lon="5.31324">
        <ele>214.9</ele>
        <time>2022-10-16T15:05:06.000Z</time>
      </trkpt>
      <trkpt lat="45.11234" lon="5.31329">
        <ele>214.9</ele>
        <time>2022-10-16T15:05:07.000Z</time>
      </trkpt>
      <trkpt lat="45.11235" lon="5.31334">
        <ele>215</ele>
        <time>2022-10-16T15:05:08.000Z</time>
      </trkpt>
      <trkpt lat="45.11237" lon="5.3134">
        <ele>215</ele>
        <time>2022-10-16T15:05:09.000Z</time>
      </trkpt>
      <trkpt lat="45.11241" lon="5.31345">
        <ele>215</ele>
        <time>2022-10-16T15:05:10.000Z</time>
      </trkpt>
      <trkpt lat="45.11244" lon="5.31351">
        <ele>215</ele>
        <time>2022-10-16T15:05:11.000Z</time>
      </trkpt>
      <trkpt lat="45.11247" lon="5.31357">
        <ele>215</ele>
        <time>2022-10-16T15:05:12.000Z</time>
      </trkpt>
      <trkpt lat="45.1125" lon="5.31362">
        <ele>215</ele>
        <time>2022-10-16T15:05:13.000Z</time>
      </trkpt>
      <trkpt lat="45.11253" lon="5.31367">
        <ele>215</ele>
        <time>2022-10-16T15:05:14.000Z</time>
      </trkpt>
      <trkpt lat="45.11256" lon="5.31372">
        <ele>215</ele>
        <time>2022-10-16T15:05:15.000Z</time>
      </trkpt>
      <trkpt lat="45.11259" lon="5.31377">
        <ele>215</ele>
        <time>2022-10-16T15:05:16.000Z</time>
      </trkpt>
      <trkpt lat="45.11262" lon="5.31382">
        <ele>215</ele>
        <time>2022-10-16T15:05:17.000Z</time>
      </trkpt>
      <trkpt lat="45.11265" lon="5.31387">
        <ele>215</ele>
        <time>2022-10-16T15:05:18.000Z</time>
      </trkpt>
      <trkpt lat="45.11268" lon="5.31391">
        <ele>215</ele>
        <time>2022-10-16T15:05:19.000Z</time>
      </trkpt>
      <trkpt lat="45.11271" lon="5.31395">
        <ele>215</ele>
        <time>2022-10-16T15:05:20.000Z</time>
      </trkpt>
      <trkpt lat="45.11274" lon="5.31399">
        <ele>215</ele>
        <time>2022-10-16T15:05:21.000Z</time>
      </trkpt>
      <trkpt lat="45.11277" lon="5.31403">
        <ele>215</ele>
        <time>2022-10-16T15:05:22.000Z</time>
      </trkpt>
      <trkpt lat="45.1128" lon="5.31408">
        <ele>215</ele>
        <time>2022-10-16T15:05:23.000Z</time>
      </trkpt>
      <trkpt lat="45.11283" lon="5.31412">
        <ele>215</ele>
        <time>2022-10-16T15:05:24.000Z</time>
      </trkpt>
      <trkpt lat="45.11287" lon="5.31416">
        <ele>215</ele>
        <time>2022-10-16T15:05:25.000Z</time>
      </trkpt>
      <trkpt lat="45.11291" lon="5.3142">
        <ele>215</ele>
        <time>2022-10-16T15:05:26.000Z</time>
      </trkpt>
      <trkpt lat="45.11295" lon="5.31425">
        <ele>215</ele>
        <time>2022-10-16T15:05:27.000Z</time>
      </trkpt>
      <trkpt lat="45.11299" lon="5.3143">
        <ele>215</ele>
        <time>2022-10-16T15:05:28.000Z</time>
      </trkpt>
      <trkpt lat="45.11303" lon="5.31433">
        <ele>215</ele>
        <time>2022-10-16T15:05:29.000Z</time>
      </trkpt>
      <trkpt lat="45.11307" lon="5.31437">
        <ele>215</ele>
        <time>2022-10-16T15:05:30.000Z</time>
      </trkpt>
      <trkpt lat="45.1131" lon="5.31441">
        <ele>215</ele>
        <time>2022-10-16T15:05:31.000Z</time>
      </trkpt>
      <trkpt lat="45.11314" lon="5.31445">
        <ele>215</ele>
        <time>2022-10-16T15:05:32.000Z</time>
      </trkpt>
      <trkpt lat="45.11319" lon="5.31449">
        <ele>215</ele>
        <time>2022-10-16T15:05:33.000Z</time>
      </trkpt>
      <trkpt lat="45.11323" lon="5.31454">
        <ele>215</ele>
        <time>2022-10-16T15:05:34.000Z</time>
      </trkpt>
      <trkpt lat="45.11327" lon="5.31458">
        <ele>215</ele>
        <time>2022-10-16T15:05:35.000Z</time>
      </trkpt>
      <trkpt lat="45.11332" lon="5.31463">
        <ele>215</ele>
        <time>2022-10-16T15:05:36.000Z</time>
      </trkpt>
      <trkpt lat="45.11336" lon="5.31467">
        <ele>214.9</ele>
        <time>2022-10-16T15:05:37.000Z</time>
      </trkpt>
      <trkpt lat="45.1134" lon="5.31472">
        <ele>214.7</ele>
        <time>2022-10-16T15:05:38.000Z</time>
      </trkpt>
      <trkpt lat="45.11345" lon="5.31477">
        <ele>214.6</ele>
        <time>2022-10-16T15:05:39.000Z</time>
      </trkpt>
      <trkpt lat="45.11349" lon="5.31482">
        <ele>214.4</ele>
        <time>2022-10-16T15:05:40.000Z</time>
      </trkpt>
      <trkpt lat="45.11353" lon="5.31488">
        <ele>214.3</ele>
        <time>2022-10-16T15:05:41.000Z</time>
      </trkpt>
      <trkpt lat="45.11357" lon="5.31493">
        <ele>214.1</ele>
        <time>2022-10-16T15:05:42.000Z</time>
      </trkpt>
      <trkpt lat="45.11361" lon="5.31498">
        <ele>214</ele>
        <time>2022-10-16T15:05:43.000Z</time>
      </trkpt>
      <trkpt lat="45.11365" lon="5.31503">
        <ele>214.1</ele>
        <time>2022-10-16T15:05:44.000Z</time>
      </trkpt>
      <trkpt lat="45.11369" lon="5.31508">
        <ele>214.2</ele>
        <time>2022-10-16T15:05:45.000Z</time>
      </trkpt>
      <trkpt lat="45.11373" lon="5.31513">
        <ele>214.3</ele>
        <time>2022-10-16T15:05:46.000Z</time>
      </trkpt>
      <trkpt lat="45.11377" lon="5.31519">
        <ele>214.3</ele>
        <time>2022-10-16T15:05:47.000Z</time>
      </trkpt>
      <trkpt lat="45.11381" lon="5.31523">
        <ele>214.2</ele>
        <time>2022-10-16T15:05:48.000Z</time>
      </trkpt>
      <trkpt lat="45.11385" lon="5.31529">
        <ele>214.2</ele>
        <time>2022-10-16T15:05:49.000Z</time>
      </trkpt>
      <trkpt lat="45.11389" lon="5.31534">
        <ele>214.2</ele>
        <time>2022-10-16T15:05:50.000Z</time>
      </trkpt>
      <trkpt lat="45.11392" lon="5.3154">
        <ele>214.4</ele>
        <time>2022-10-16T15:05:51.000Z</time>
      </trkpt>
      <trkpt lat="45.11396" lon="5.31546">
        <ele>214.5</ele>
        <time>2022-10-16T15:05:52.000Z</time>
      </trkpt>
      <trkpt lat="45.11399" lon="5.31552">
        <ele>214.6</ele>
        <time>2022-10-16T15:05:53.000Z</time>
      </trkpt>
      <trkpt lat="45.11402" lon="5.31558">
        <ele>214.5</ele>
        <time>2022-10-16T15:05:54.000Z</time>
      </trkpt>
      <trkpt lat="45.11404" lon="5.31564">
        <ele>214.4</ele>
        <time>2022-10-16T15:05:55.000Z</time>
      </trkpt>
      <trkpt lat="45.11407" lon="5.3157">
        <ele>214.4</ele>
        <time>2022-10-16T15:05:56.000Z</time>
      </trkpt>
      <trkpt lat="45.11409" lon="5.31577">
        <ele>214.3</ele>
        <time>2022-10-16T15:05:57.000Z</time>
      </trkpt>
      <trkpt lat="45.11411" lon="5.31584">
        <ele>214.2</ele>
        <time>2022-10-16T15:05:58.000Z</time>
      </trkpt>
      <trkpt lat="45.11413" lon="5.31591">
        <ele>214.4</ele>
        <time>2022-10-16T15:05:59.000Z</time>
      </trkpt>
      <trkpt lat="45.11415" lon="5.31598">
        <ele>214.5</ele>
        <time>2022-10-16T15:06:00.000Z</time>
      </trkpt>
      <trkpt lat="45.11418" lon="5.31605">
        <ele>214.7</ele>
        <time>2022-10-16T15:06:01.000Z</time>
      </trkpt>
      <trkpt lat="45.1142" lon="5.31612">
        <ele>214.9</ele>
        <time>2022-10-16T15:06:02.000Z</time>
      </trkpt>
      <trkpt lat="45.11422" lon="5.31619">
        <ele>214.8</ele>
        <time>2022-10-16T15:06:03.000Z</time>
      </trkpt>
      <trkpt lat="45.11424" lon="5.31626">
        <ele>214.7</ele>
        <time>2022-10-16T15:06:04.000Z</time>
      </trkpt>
      <trkpt lat="45.11426" lon="5.31634">
        <ele>214.7</ele>
        <time>2022-10-16T15:06:05.000Z</time>
      </trkpt>
      <trkpt lat="45.11428" lon="5.31641">
        <ele>214.6</ele>
        <time>2022-10-16T15:06:06.000Z</time>
      </trkpt>
      <trkpt lat="45.1143" lon="5.31649">
        <ele>214.5</ele>
        <time>2022-10-16T15:06:07.000Z</time>
      </trkpt>
      <trkpt lat="45.11432" lon="5.31656">
        <ele>214.4</ele>
        <time>2022-10-16T15:06:08.000Z</time>
      </trkpt>
      <trkpt lat="45.11434" lon="5.31664">
        <ele>214.4</ele>
        <time>2022-10-16T15:06:09.000Z</time>
      </trkpt>
      <trkpt lat="45.11437" lon="5.31672">
        <ele>214.4</ele>
        <time>2022-10-16T15:06:10.000Z</time>
      </trkpt>
      <trkpt lat="45.11439" lon="5.31679">
        <ele>214.6</ele>
        <time>2022-10-16T15:06:11.000Z</time>
      </trkpt>
      <trkpt lat="45.11441" lon="5.31686">
        <ele>214.7</ele>
        <time>2022-10-16T15:06:12.000Z</time>
      </trkpt>
      <trkpt lat="45.11443" lon="5.31693">
        <ele>215</ele>
        <time>2022-10-16T15:06:13.000Z</time>
      </trkpt>
      <trkpt lat="45.11446" lon="5.317">
        <ele>214.9</ele>
        <time>2022-10-16T15:06:14.000Z</time>
      </trkpt>
      <trkpt lat="45.11449" lon="5.31707">
        <ele>214.8</ele>
        <time>2022-10-16T15:06:15.000Z</time>
      </trkpt>
      <trkpt lat="45.11452" lon="5.31714">
        <ele>214.7</ele>
        <time>2022-10-16T15:06:16.000Z</time>
      </trkpt>
      <trkpt lat="45.11455" lon="5.3172">
        <ele>214.6</ele>
        <time>2022-10-16T15:06:17.000Z</time>
      </trkpt>
      <trkpt lat="45.11458" lon="5.31726">
        <ele>214.6</ele>
        <time>2022-10-16T15:06:18.000Z</time>
      </trkpt>
      <trkpt lat="45.11462" lon="5.31731">
        <ele>214.6</ele>
        <time>2022-10-16T15:06:19.000Z</time>
      </trkpt>
      <trkpt lat="45.11465" lon="5.31737">
        <ele>214.7</ele>
        <time>2022-10-16T15:06:20.000Z</time>
      </trkpt>
      <trkpt lat="45.11467" lon="5.31743">
        <ele>214.8</ele>
        <time>2022-10-16T15:06:21.000Z</time>
      </trkpt>
      <trkpt lat="45.1147" lon="5.31748">
        <ele>214.9</ele>
        <time>2022-10-16T15:06:22.000Z</time>
      </trkpt>
      <trkpt lat="45.11474" lon="5.31752">
        <ele>215</ele>
        <time>2022-10-16T15:06:23.000Z</time>
      </trkpt>
      <trkpt lat="45.11476" lon="5.31757">
        <ele>214.9</ele>
        <time>2022-10-16T15:06:24.000Z</time>
      </trkpt>
      <trkpt lat="45.11479" lon="5.31762">
        <ele>214.8</ele>
        <time>2022-10-16T15:06:25.000Z</time>
      </trkpt>
      <trkpt lat="45.11481" lon="5.31767">
        <ele>214.7</ele>
        <time>2022-10-16T15:06:26.000Z</time>
      </trkpt>
      <trkpt lat="45.11484" lon="5.31773">
        <ele>214.6</ele>
        <time>2022-10-16T15:06:27.000Z</time>
      </trkpt>
      <trkpt lat="45.11487" lon="5.31778">
        <ele>214.5</ele>
        <time>2022-10-16T15:06:28.000Z</time>
      </trkpt>
      <trkpt lat="45.1149" lon="5.31783">
        <ele>214.5</ele>
        <time>2022-10-16T15:06:29.000Z</time>
      </trkpt>
      <trkpt lat="45.11492" lon="5.31788">
        <ele>214.5</ele>
        <time>2022-10-16T15:06:30.000Z</time>
      </trkpt>
      <trkpt lat="45.11495" lon="5.31793">
        <ele>214.6</ele>
        <time>2022-10-16T15:06:31.000Z</time>
      </trkpt>
      <trkpt lat="45.11498" lon="5.31798">
        <ele>214.7</ele>
        <time>2022-10-16T15:06:32.000Z</time>
      </trkpt>
      <trkpt lat="45.11502" lon="5.31802">
        <ele>214.8</ele>
        <time>2022-10-16T15:06:33.000Z</time>
      </trkpt>
      <trkpt lat="45.11505" lon="5.31807">
        <ele>214.8</ele>
        <time>2022-10-16T15:06:34.000Z</time>
      </trkpt>
      <trkpt lat="45.11508" lon="5.31812">
        <ele>214.7</ele>
        <time>2022-10-16T15:06:35.000Z</time>
      </trkpt>
      <trkpt lat="45.1151" lon="5.31815">
        <ele>214.6</ele>
        <time>2022-10-16T15:06:36.000Z</time>
      </trkpt>
      <trkpt lat="45.11514" lon="5.31815">
        <ele>214.5</ele>
        <time>2022-10-16T15:06:38.000Z</time>
      </trkpt>
      <trkpt lat="45.11513" lon="5.31818">
        <ele>214.5</ele>
        <time>2022-10-16T15:06:40.000Z</time>
      </trkpt>
      <trkpt lat="45.1151" lon="5.31822">
        <ele>214.6</ele>
        <time>2022-10-16T15:06:41.000Z</time>
      </trkpt>
      <trkpt lat="45.11507" lon="5.31827">
        <ele>214.8</ele>
        <time>2022-10-16T15:06:42.000Z</time>
      </trkpt>
      <trkpt lat="45.11504" lon="5.31831">
        <ele>214.9</ele>
        <time>2022-10-16T15:06:43.000Z</time>
      </trkpt>
      <trkpt lat="45.11502" lon="5.31834">
        <ele>214.9</ele>
        <time>2022-10-16T15:06:44.000Z</time>
      </trkpt>
      <trkpt lat="45.11499" lon="5.31837">
        <ele>215</ele>
        <time>2022-10-16T15:06:45.000Z</time>
      </trkpt>
      <trkpt lat="45.11496" lon="5.3184">
        <ele>215</ele>
        <time>2022-10-16T15:06:46.000Z</time>
      </trkpt>
      <trkpt lat="45.11494" lon="5.31843">
        <ele>215</ele>
        <time>2022-10-16T15:06:47.000Z</time>
      </trkpt>
      <trkpt lat="45.11493" lon="5.31847">
        <ele>215</ele>
        <time>2022-10-16T15:06:48.000Z</time>
      </trkpt>
      <trkpt lat="45.11493" lon="5.31851">
        <ele>215</ele>
        <time>2022-10-16T15:06:49.000Z</time>
      </trkpt>
      <trkpt lat="45.11494" lon="5.31854">
        <ele>215</ele>
        <time>2022-10-16T15:06:52.000Z</time>
      </trkpt>
      <trkpt lat="45.11494" lon="5.31857">
        <ele>215</ele>
        <time>2022-10-16T15:07:07.000Z</time>
      </trkpt>
      <trkpt lat="45.11494" lon="5.31861">
        <ele>215</ele>
        <time>2022-10-16T15:07:09.000Z</time>
      </trkpt>
      <trkpt lat="45.11494" lon="5.31865">
        <ele>215</ele>
        <time>2022-10-16T15:07:11.000Z</time>
      </trkpt>
      <trkpt lat="45.11494" lon="5.31868">
        <ele>215</ele>
        <time>2022-10-16T15:07:13.000Z</time>
      </trkpt>
      <trkpt lat="45.11494" lon="5.31871">
        <ele>215</ele>
        <time>2022-10-16T15:07:15.000Z</time>
      </trkpt>
      <trkpt lat="45.11491" lon="5.31876">
        <ele>215</ele>
        <time>2022-10-16T15:07:21.000Z</time>
      </trkpt>
      <trkpt lat="45.11489" lon="5.31878">
        <ele>215</ele>
        <time>2022-10-16T15:07:23.000Z</time>
      </trkpt>
      <trkpt lat="45.1148" lon="5.31875">
        <ele>215</ele>
        <time>2022-10-16T15:07:36.000Z</time>
      </trkpt>
      <trkpt lat="45.11483" lon="5.31876">
        <ele>215</ele>
        <time>2022-10-16T15:07:37.000Z</time>
      </trkpt>
    </trkseg>
  </trk>
</gpx>